<?xml version="1.0" encoding="UTF-8" standalone="no" ?>
<gpx xmlns="http://www.topografix.com/GPX/1/1" xmlns:xsi="http://www.w3.org/2001/XMLSchema-instance" xsi:schemaLocation="http://www.topografix.com/GPX/1/1 http://www.topografix.com/GPX/1/1/gpx.xsd" version="1.1" creator="VisuGPX - https://www.visugpx.com">
  <metadata>
    <name>SUQUET LANTOSQUE A GAUCHE A DROITE</name>
    <desc><![CDATA[Au départ du Suquet, monter par la route sur Pélasque puis le chemin qui monte aux granges de la brasque qui passe à l?hélice d'avion, puis à la balise prendre à droite pour récupérer la superbe descente des anciennes transV et fini par la voie romaine sur Lantosque.
A Lantosque à coté des bars prendre la route qui descend, traverser le pont sur la vésubie, et ne pas prendre la piste que nous avons prise qui part à gauche car elle termine dans une propriété privée que nous avons dû traverser pour retrouver le chemin en contrebas, mais prendre directement après le pont à droite de la route au dessus, le chemin qui part à droite en qui monte en balcon au dessus de la vésubie, il retombe sur la route après un passage le long des grillages de protection, sur la route de St Colombant.
A l'entrée du village prendre le chemin descendant à droite puis sous le village et le poussage portage qui remonte à la baisse de béasse.
Là, enocre un belle descente, c'est la spéciale de l'enduro TV 2016 qui ramène à Lantosque il ne reste plus qu'a remonter la route vers Lauda sur 2km et prendre à droite (ancienne TV à l'envers) le Boudou au petit pont qui traverse la Vésubie après le pont retour Suquet soit par le bord Vesubie avec quelques barrières ou la route sur 1km.]]></desc>
  </metadata>
  <trk>
    <name><![CDATA[20190331102605-WlDPz]]></name>
    <trkseg>
      <trkpt lat="43.94331" lon="7.28247">
        <ele>351.39999389648</ele>
        <time>2019-03-30T08:29:26.000Z</time>
      </trkpt>
      <trkpt lat="43.94328" lon="7.2824">
        <ele>351.39999389648</ele>
        <time>2019-03-30T08:29:29.000Z</time>
      </trkpt>
      <trkpt lat="43.94323" lon="7.28228">
        <ele>352.39999389648</ele>
        <time>2019-03-30T08:29:34.000Z</time>
      </trkpt>
      <trkpt lat="43.94321" lon="7.28223">
        <ele>352.60000610352</ele>
        <time>2019-03-30T08:29:36.000Z</time>
      </trkpt>
      <trkpt lat="43.94321" lon="7.28203">
        <ele>353.39999389648</ele>
        <time>2019-03-30T08:29:43.000Z</time>
      </trkpt>
      <trkpt lat="43.94321" lon="7.282">
        <ele>353.39999389648</ele>
        <time>2019-03-30T08:29:44.000Z</time>
      </trkpt>
      <trkpt lat="43.94324" lon="7.28182">
        <ele>354.39999389648</ele>
        <time>2019-03-30T08:29:51.000Z</time>
      </trkpt>
      <trkpt lat="43.94324" lon="7.2818">
        <ele>354.60000610352</ele>
        <time>2019-03-30T08:29:52.000Z</time>
      </trkpt>
      <trkpt lat="43.94327" lon="7.28161">
        <ele>355.39999389648</ele>
        <time>2019-03-30T08:29:59.000Z</time>
      </trkpt>
      <trkpt lat="43.94327" lon="7.28159">
        <ele>355.60000610352</ele>
        <time>2019-03-30T08:30:00.000Z</time>
      </trkpt>
      <trkpt lat="43.9433" lon="7.28149">
        <ele>356.20001220703</ele>
        <time>2019-03-30T08:30:05.000Z</time>
      </trkpt>
      <trkpt lat="43.94331" lon="7.28142">
        <ele>356.60000610352</ele>
        <time>2019-03-30T08:30:08.000Z</time>
      </trkpt>
      <trkpt lat="43.94332" lon="7.28135">
        <ele>357</ele>
        <time>2019-03-30T08:30:11.000Z</time>
      </trkpt>
      <trkpt lat="43.94334" lon="7.28122">
        <ele>357.79998779297</ele>
        <time>2019-03-30T08:30:16.000Z</time>
      </trkpt>
      <trkpt lat="43.94335" lon="7.28111">
        <ele>358.20001220703</ele>
        <time>2019-03-30T08:30:20.000Z</time>
      </trkpt>
      <trkpt lat="43.94336" lon="7.281">
        <ele>358.79998779297</ele>
        <time>2019-03-30T08:30:24.000Z</time>
      </trkpt>
      <trkpt lat="43.94336" lon="7.28094">
        <ele>359</ele>
        <time>2019-03-30T08:30:26.000Z</time>
      </trkpt>
      <trkpt lat="43.94338" lon="7.28072">
        <ele>359.79998779297</ele>
        <time>2019-03-30T08:30:34.000Z</time>
      </trkpt>
      <trkpt lat="43.94339" lon="7.2807">
        <ele>360</ele>
        <time>2019-03-30T08:30:35.000Z</time>
      </trkpt>
      <trkpt lat="43.9434" lon="7.28057">
        <ele>360.60000610352</ele>
        <time>2019-03-30T08:30:40.000Z</time>
      </trkpt>
      <trkpt lat="43.94341" lon="7.28051">
        <ele>361</ele>
        <time>2019-03-30T08:30:42.000Z</time>
      </trkpt>
      <trkpt lat="43.94343" lon="7.28038">
        <ele>361.60000610352</ele>
        <time>2019-03-30T08:30:47.000Z</time>
      </trkpt>
      <trkpt lat="43.94346" lon="7.28026">
        <ele>362</ele>
        <time>2019-03-30T08:30:51.000Z</time>
      </trkpt>
      <trkpt lat="43.9435" lon="7.28014">
        <ele>362.39999389648</ele>
        <time>2019-03-30T08:30:55.000Z</time>
      </trkpt>
      <trkpt lat="43.94357" lon="7.27996">
        <ele>363</ele>
        <time>2019-03-30T08:31:01.000Z</time>
      </trkpt>
      <trkpt lat="43.94359" lon="7.2799">
        <ele>363.20001220703</ele>
        <time>2019-03-30T08:31:03.000Z</time>
      </trkpt>
      <trkpt lat="43.94366" lon="7.27973">
        <ele>364</ele>
        <time>2019-03-30T08:31:09.000Z</time>
      </trkpt>
      <trkpt lat="43.94368" lon="7.27967">
        <ele>364.39999389648</ele>
        <time>2019-03-30T08:31:11.000Z</time>
      </trkpt>
      <trkpt lat="43.94372" lon="7.27958">
        <ele>365</ele>
        <time>2019-03-30T08:31:15.000Z</time>
      </trkpt>
      <trkpt lat="43.94375" lon="7.27954">
        <ele>365.39999389648</ele>
        <time>2019-03-30T08:31:17.000Z</time>
      </trkpt>
      <trkpt lat="43.94376" lon="7.27952">
        <ele>365.60000610352</ele>
        <time>2019-03-30T08:31:18.000Z</time>
      </trkpt>
      <trkpt lat="43.94379" lon="7.27945">
        <ele>366</ele>
        <time>2019-03-30T08:31:21.000Z</time>
      </trkpt>
      <trkpt lat="43.94381" lon="7.27944">
        <ele>366</ele>
        <time>2019-03-30T08:31:22.000Z</time>
      </trkpt>
      <trkpt lat="43.94391" lon="7.2793">
        <ele>367.20001220703</ele>
        <time>2019-03-30T08:31:29.000Z</time>
      </trkpt>
      <trkpt lat="43.94392" lon="7.27928">
        <ele>367.39999389648</ele>
        <time>2019-03-30T08:31:30.000Z</time>
      </trkpt>
      <trkpt lat="43.94401" lon="7.27918">
        <ele>368.39999389648</ele>
        <time>2019-03-30T08:31:36.000Z</time>
      </trkpt>
      <trkpt lat="43.94402" lon="7.27915">
        <ele>368.60000610352</ele>
        <time>2019-03-30T08:31:37.000Z</time>
      </trkpt>
      <trkpt lat="43.94411" lon="7.27902">
        <ele>369.39999389648</ele>
        <time>2019-03-30T08:31:43.000Z</time>
      </trkpt>
      <trkpt lat="43.94418" lon="7.2789">
        <ele>369.79998779297</ele>
        <time>2019-03-30T08:31:48.000Z</time>
      </trkpt>
      <trkpt lat="43.94425" lon="7.27874">
        <ele>370.39999389648</ele>
        <time>2019-03-30T08:31:54.000Z</time>
      </trkpt>
      <trkpt lat="43.94427" lon="7.27866">
        <ele>370.79998779297</ele>
        <time>2019-03-30T08:31:57.000Z</time>
      </trkpt>
      <trkpt lat="43.94433" lon="7.27854">
        <ele>371.39999389648</ele>
        <time>2019-03-30T08:32:02.000Z</time>
      </trkpt>
      <trkpt lat="43.94436" lon="7.27849">
        <ele>371.79998779297</ele>
        <time>2019-03-30T08:32:04.000Z</time>
      </trkpt>
      <trkpt lat="43.9444" lon="7.2784">
        <ele>372.39999389648</ele>
        <time>2019-03-30T08:32:08.000Z</time>
      </trkpt>
      <trkpt lat="43.94446" lon="7.27831">
        <ele>373.20001220703</ele>
        <time>2019-03-30T08:32:12.000Z</time>
      </trkpt>
      <trkpt lat="43.9445" lon="7.27825">
        <ele>373.60000610352</ele>
        <time>2019-03-30T08:32:15.000Z</time>
      </trkpt>
      <trkpt lat="43.94459" lon="7.27814">
        <ele>374.60000610352</ele>
        <time>2019-03-30T08:32:21.000Z</time>
      </trkpt>
      <trkpt lat="43.94469" lon="7.27798">
        <ele>375.60000610352</ele>
        <time>2019-03-30T08:32:28.000Z</time>
      </trkpt>
      <trkpt lat="43.9447" lon="7.27795">
        <ele>375.79998779297</ele>
        <time>2019-03-30T08:32:29.000Z</time>
      </trkpt>
      <trkpt lat="43.94478" lon="7.27781">
        <ele>376.60000610352</ele>
        <time>2019-03-30T08:32:35.000Z</time>
      </trkpt>
      <trkpt lat="43.94483" lon="7.27772">
        <ele>377.20001220703</ele>
        <time>2019-03-30T08:32:39.000Z</time>
      </trkpt>
      <trkpt lat="43.94487" lon="7.27765">
        <ele>377.79998779297</ele>
        <time>2019-03-30T08:32:42.000Z</time>
      </trkpt>
      <trkpt lat="43.94491" lon="7.27759">
        <ele>378.20001220703</ele>
        <time>2019-03-30T08:32:45.000Z</time>
      </trkpt>
      <trkpt lat="43.94498" lon="7.27747">
        <ele>378.79998779297</ele>
        <time>2019-03-30T08:32:50.000Z</time>
      </trkpt>
      <trkpt lat="43.94501" lon="7.27741">
        <ele>379.39999389648</ele>
        <time>2019-03-30T08:32:53.000Z</time>
      </trkpt>
      <trkpt lat="43.94507" lon="7.2773">
        <ele>380</ele>
        <time>2019-03-30T08:32:58.000Z</time>
      </trkpt>
      <trkpt lat="43.9451" lon="7.27727">
        <ele>380.39999389648</ele>
        <time>2019-03-30T08:33:00.000Z</time>
      </trkpt>
      <trkpt lat="43.94517" lon="7.27719">
        <ele>381</ele>
        <time>2019-03-30T08:33:05.000Z</time>
      </trkpt>
      <trkpt lat="43.94518" lon="7.27717">
        <ele>381.20001220703</ele>
        <time>2019-03-30T08:33:06.000Z</time>
      </trkpt>
      <trkpt lat="43.94526" lon="7.27711">
        <ele>381.79998779297</ele>
        <time>2019-03-30T08:33:11.000Z</time>
      </trkpt>
      <trkpt lat="43.94534" lon="7.27708">
        <ele>382.20001220703</ele>
        <time>2019-03-30T08:33:15.000Z</time>
      </trkpt>
      <trkpt lat="43.9454" lon="7.27705">
        <ele>382.60000610352</ele>
        <time>2019-03-30T08:33:18.000Z</time>
      </trkpt>
      <trkpt lat="43.94553" lon="7.27695">
        <ele>383.39999389648</ele>
        <time>2019-03-30T08:33:25.000Z</time>
      </trkpt>
      <trkpt lat="43.94568" lon="7.27682">
        <ele>384.39999389648</ele>
        <time>2019-03-30T08:33:33.000Z</time>
      </trkpt>
      <trkpt lat="43.9457" lon="7.27681">
        <ele>384.60000610352</ele>
        <time>2019-03-30T08:33:34.000Z</time>
      </trkpt>
      <trkpt lat="43.94576" lon="7.27674">
        <ele>385.39999389648</ele>
        <time>2019-03-30T08:33:38.000Z</time>
      </trkpt>
      <trkpt lat="43.9458" lon="7.27668">
        <ele>386</ele>
        <time>2019-03-30T08:33:41.000Z</time>
      </trkpt>
      <trkpt lat="43.94587" lon="7.2766">
        <ele>386.60000610352</ele>
        <time>2019-03-30T08:33:45.000Z</time>
      </trkpt>
      <trkpt lat="43.94595" lon="7.27652">
        <ele>387.39999389648</ele>
        <time>2019-03-30T08:33:50.000Z</time>
      </trkpt>
      <trkpt lat="43.94598" lon="7.27649">
        <ele>387.79998779297</ele>
        <time>2019-03-30T08:33:52.000Z</time>
      </trkpt>
      <trkpt lat="43.9461" lon="7.27638">
        <ele>388.60000610352</ele>
        <time>2019-03-30T08:33:59.000Z</time>
      </trkpt>
      <trkpt lat="43.94612" lon="7.27637">
        <ele>388.79998779297</ele>
        <time>2019-03-30T08:34:00.000Z</time>
      </trkpt>
      <trkpt lat="43.94621" lon="7.27626">
        <ele>389.60000610352</ele>
        <time>2019-03-30T08:34:06.000Z</time>
      </trkpt>
      <trkpt lat="43.94623" lon="7.27624">
        <ele>389.79998779297</ele>
        <time>2019-03-30T08:34:07.000Z</time>
      </trkpt>
      <trkpt lat="43.94632" lon="7.27608">
        <ele>390.79998779297</ele>
        <time>2019-03-30T08:34:14.000Z</time>
      </trkpt>
      <trkpt lat="43.94633" lon="7.27606">
        <ele>391</ele>
        <time>2019-03-30T08:34:15.000Z</time>
      </trkpt>
      <trkpt lat="43.94641" lon="7.27593">
        <ele>391.79998779297</ele>
        <time>2019-03-30T08:34:21.000Z</time>
      </trkpt>
      <trkpt lat="43.94643" lon="7.27588">
        <ele>392.20001220703</ele>
        <time>2019-03-30T08:34:23.000Z</time>
      </trkpt>
      <trkpt lat="43.9465" lon="7.27577">
        <ele>393</ele>
        <time>2019-03-30T08:34:28.000Z</time>
      </trkpt>
      <trkpt lat="43.94655" lon="7.27569">
        <ele>393.39999389648</ele>
        <time>2019-03-30T08:34:32.000Z</time>
      </trkpt>
      <trkpt lat="43.94662" lon="7.27558">
        <ele>394</ele>
        <time>2019-03-30T08:34:37.000Z</time>
      </trkpt>
      <trkpt lat="43.94665" lon="7.2755">
        <ele>394.39999389648</ele>
        <time>2019-03-30T08:34:40.000Z</time>
      </trkpt>
      <trkpt lat="43.94668" lon="7.27537">
        <ele>395</ele>
        <time>2019-03-30T08:34:45.000Z</time>
      </trkpt>
      <trkpt lat="43.9467" lon="7.27529">
        <ele>395.60000610352</ele>
        <time>2019-03-30T08:34:48.000Z</time>
      </trkpt>
      <trkpt lat="43.94672" lon="7.27518">
        <ele>396</ele>
        <time>2019-03-30T08:34:52.000Z</time>
      </trkpt>
      <trkpt lat="43.94673" lon="7.27512">
        <ele>396.39999389648</ele>
        <time>2019-03-30T08:34:54.000Z</time>
      </trkpt>
      <trkpt lat="43.94671" lon="7.27491">
        <ele>397.20001220703</ele>
        <time>2019-03-30T08:35:00.000Z</time>
      </trkpt>
      <trkpt lat="43.9467" lon="7.27481">
        <ele>397.79998779297</ele>
        <time>2019-03-30T08:35:03.000Z</time>
      </trkpt>
      <trkpt lat="43.94664" lon="7.27465">
        <ele>398.20001220703</ele>
        <time>2019-03-30T08:35:08.000Z</time>
      </trkpt>
      <trkpt lat="43.94662" lon="7.27459">
        <ele>398.39999389648</ele>
        <time>2019-03-30T08:35:10.000Z</time>
      </trkpt>
      <trkpt lat="43.94654" lon="7.27438">
        <ele>399.39999389648</ele>
        <time>2019-03-30T08:35:17.000Z</time>
      </trkpt>
      <trkpt lat="43.94653" lon="7.27432">
        <ele>399.60000610352</ele>
        <time>2019-03-30T08:35:19.000Z</time>
      </trkpt>
      <trkpt lat="43.94656" lon="7.2742">
        <ele>400.20001220703</ele>
        <time>2019-03-30T08:35:24.000Z</time>
      </trkpt>
      <trkpt lat="43.94658" lon="7.27419">
        <ele>400.20001220703</ele>
        <time>2019-03-30T08:35:25.000Z</time>
      </trkpt>
      <trkpt lat="43.9466" lon="7.27418">
        <ele>400.39999389648</ele>
        <time>2019-03-30T08:35:26.000Z</time>
      </trkpt>
      <trkpt lat="43.9467" lon="7.27415">
        <ele>401</ele>
        <time>2019-03-30T08:35:31.000Z</time>
      </trkpt>
      <trkpt lat="43.94672" lon="7.27415">
        <ele>401.20001220703</ele>
        <time>2019-03-30T08:35:32.000Z</time>
      </trkpt>
      <trkpt lat="43.94676" lon="7.27414">
        <ele>401.39999389648</ele>
        <time>2019-03-30T08:35:34.000Z</time>
      </trkpt>
      <trkpt lat="43.94688" lon="7.27415">
        <ele>402.60000610352</ele>
        <time>2019-03-30T08:35:40.000Z</time>
      </trkpt>
      <trkpt lat="43.9469" lon="7.27416">
        <ele>402.60000610352</ele>
        <time>2019-03-30T08:35:41.000Z</time>
      </trkpt>
      <trkpt lat="43.94701" lon="7.27422">
        <ele>403.60000610352</ele>
        <time>2019-03-30T08:35:47.000Z</time>
      </trkpt>
      <trkpt lat="43.94702" lon="7.27424">
        <ele>403.60000610352</ele>
        <time>2019-03-30T08:35:48.000Z</time>
      </trkpt>
      <trkpt lat="43.94707" lon="7.27437">
        <ele>404.39999389648</ele>
        <time>2019-03-30T08:35:54.000Z</time>
      </trkpt>
      <trkpt lat="43.94707" lon="7.27439">
        <ele>404.60000610352</ele>
        <time>2019-03-30T08:35:55.000Z</time>
      </trkpt>
      <trkpt lat="43.94707" lon="7.27446">
        <ele>405.20001220703</ele>
        <time>2019-03-30T08:35:58.000Z</time>
      </trkpt>
      <trkpt lat="43.94707" lon="7.27449">
        <ele>405.20001220703</ele>
        <time>2019-03-30T08:35:59.000Z</time>
      </trkpt>
      <trkpt lat="43.94706" lon="7.27457">
        <ele>405.79998779297</ele>
        <time>2019-03-30T08:36:02.000Z</time>
      </trkpt>
      <trkpt lat="43.94706" lon="7.27464">
        <ele>406.39999389648</ele>
        <time>2019-03-30T08:36:05.000Z</time>
      </trkpt>
      <trkpt lat="43.94706" lon="7.27471">
        <ele>406.79998779297</ele>
        <time>2019-03-30T08:36:08.000Z</time>
      </trkpt>
      <trkpt lat="43.94705" lon="7.27478">
        <ele>407.20001220703</ele>
        <time>2019-03-30T08:36:11.000Z</time>
      </trkpt>
      <trkpt lat="43.94703" lon="7.27486">
        <ele>408</ele>
        <time>2019-03-30T08:36:14.000Z</time>
      </trkpt>
      <trkpt lat="43.947" lon="7.27496">
        <ele>408.60000610352</ele>
        <time>2019-03-30T08:36:18.000Z</time>
      </trkpt>
      <trkpt lat="43.94699" lon="7.27503">
        <ele>409</ele>
        <time>2019-03-30T08:36:21.000Z</time>
      </trkpt>
      <trkpt lat="43.94695" lon="7.27516">
        <ele>409.79998779297</ele>
        <time>2019-03-30T08:36:26.000Z</time>
      </trkpt>
      <trkpt lat="43.94693" lon="7.27521">
        <ele>410.20001220703</ele>
        <time>2019-03-30T08:36:28.000Z</time>
      </trkpt>
      <trkpt lat="43.94688" lon="7.27536">
        <ele>410.79998779297</ele>
        <time>2019-03-30T08:36:34.000Z</time>
      </trkpt>
      <trkpt lat="43.94686" lon="7.2754">
        <ele>411.20001220703</ele>
        <time>2019-03-30T08:36:36.000Z</time>
      </trkpt>
      <trkpt lat="43.9468" lon="7.27554">
        <ele>412</ele>
        <time>2019-03-30T08:36:42.000Z</time>
      </trkpt>
      <trkpt lat="43.94679" lon="7.27557">
        <ele>412.20001220703</ele>
        <time>2019-03-30T08:36:43.000Z</time>
      </trkpt>
      <trkpt lat="43.94672" lon="7.2757">
        <ele>413.39999389648</ele>
        <time>2019-03-30T08:36:49.000Z</time>
      </trkpt>
      <trkpt lat="43.94668" lon="7.27579">
        <ele>414</ele>
        <time>2019-03-30T08:36:53.000Z</time>
      </trkpt>
      <trkpt lat="43.94666" lon="7.27583">
        <ele>414.60000610352</ele>
        <time>2019-03-30T08:36:55.000Z</time>
      </trkpt>
      <trkpt lat="43.9466" lon="7.27599">
        <ele>415.60000610352</ele>
        <time>2019-03-30T08:37:02.000Z</time>
      </trkpt>
      <trkpt lat="43.9466" lon="7.27602">
        <ele>415.79998779297</ele>
        <time>2019-03-30T08:37:03.000Z</time>
      </trkpt>
      <trkpt lat="43.94656" lon="7.27615">
        <ele>416.60000610352</ele>
        <time>2019-03-30T08:37:09.000Z</time>
      </trkpt>
      <trkpt lat="43.94655" lon="7.27617">
        <ele>416.79998779297</ele>
        <time>2019-03-30T08:37:10.000Z</time>
      </trkpt>
      <trkpt lat="43.94649" lon="7.27634">
        <ele>417.79998779297</ele>
        <time>2019-03-30T08:37:17.000Z</time>
      </trkpt>
      <trkpt lat="43.94647" lon="7.27639">
        <ele>418.20001220703</ele>
        <time>2019-03-30T08:37:19.000Z</time>
      </trkpt>
      <trkpt lat="43.94644" lon="7.27648">
        <ele>419</ele>
        <time>2019-03-30T08:37:23.000Z</time>
      </trkpt>
      <trkpt lat="43.94638" lon="7.27662">
        <ele>420</ele>
        <time>2019-03-30T08:37:29.000Z</time>
      </trkpt>
      <trkpt lat="43.94638" lon="7.27665">
        <ele>420</ele>
        <time>2019-03-30T08:37:30.000Z</time>
      </trkpt>
      <trkpt lat="43.94633" lon="7.27676">
        <ele>421</ele>
        <time>2019-03-30T08:37:35.000Z</time>
      </trkpt>
      <trkpt lat="43.9463" lon="7.27682">
        <ele>421.39999389648</ele>
        <time>2019-03-30T08:37:38.000Z</time>
      </trkpt>
      <trkpt lat="43.94626" lon="7.27691">
        <ele>422</ele>
        <time>2019-03-30T08:37:42.000Z</time>
      </trkpt>
      <trkpt lat="43.94619" lon="7.27702">
        <ele>423.20001220703</ele>
        <time>2019-03-30T08:37:48.000Z</time>
      </trkpt>
      <trkpt lat="43.94618" lon="7.27704">
        <ele>423.20001220703</ele>
        <time>2019-03-30T08:37:49.000Z</time>
      </trkpt>
      <trkpt lat="43.9461" lon="7.27715">
        <ele>424.20001220703</ele>
        <time>2019-03-30T08:37:55.000Z</time>
      </trkpt>
      <trkpt lat="43.94605" lon="7.27719">
        <ele>424.60000610352</ele>
        <time>2019-03-30T08:37:58.000Z</time>
      </trkpt>
      <trkpt lat="43.94601" lon="7.27723">
        <ele>425.20001220703</ele>
        <time>2019-03-30T08:38:01.000Z</time>
      </trkpt>
      <trkpt lat="43.94594" lon="7.27727">
        <ele>426</ele>
        <time>2019-03-30T08:38:05.000Z</time>
      </trkpt>
      <trkpt lat="43.94591" lon="7.27731">
        <ele>426.39999389648</ele>
        <time>2019-03-30T08:38:07.000Z</time>
      </trkpt>
      <trkpt lat="43.94582" lon="7.2774">
        <ele>427.20001220703</ele>
        <time>2019-03-30T08:38:13.000Z</time>
      </trkpt>
      <trkpt lat="43.94581" lon="7.27741">
        <ele>427.39999389648</ele>
        <time>2019-03-30T08:38:14.000Z</time>
      </trkpt>
      <trkpt lat="43.94573" lon="7.27751">
        <ele>428.39999389648</ele>
        <time>2019-03-30T08:38:20.000Z</time>
      </trkpt>
      <trkpt lat="43.94571" lon="7.27752">
        <ele>428.60000610352</ele>
        <time>2019-03-30T08:38:21.000Z</time>
      </trkpt>
      <trkpt lat="43.94562" lon="7.27764">
        <ele>429.60000610352</ele>
        <time>2019-03-30T08:38:28.000Z</time>
      </trkpt>
      <trkpt lat="43.94553" lon="7.27774">
        <ele>430.79998779297</ele>
        <time>2019-03-30T08:38:34.000Z</time>
      </trkpt>
      <trkpt lat="43.94551" lon="7.27778">
        <ele>431</ele>
        <time>2019-03-30T08:38:36.000Z</time>
      </trkpt>
      <trkpt lat="43.94546" lon="7.27788">
        <ele>431.79998779297</ele>
        <time>2019-03-30T08:38:41.000Z</time>
      </trkpt>
      <trkpt lat="43.94543" lon="7.27797">
        <ele>432.39999389648</ele>
        <time>2019-03-30T08:38:45.000Z</time>
      </trkpt>
      <trkpt lat="43.94541" lon="7.27804">
        <ele>432.79998779297</ele>
        <time>2019-03-30T08:38:48.000Z</time>
      </trkpt>
      <trkpt lat="43.9454" lon="7.27814">
        <ele>433.39999389648</ele>
        <time>2019-03-30T08:38:52.000Z</time>
      </trkpt>
      <trkpt lat="43.94539" lon="7.27821">
        <ele>433.79998779297</ele>
        <time>2019-03-30T08:38:55.000Z</time>
      </trkpt>
      <trkpt lat="43.94535" lon="7.27837">
        <ele>435</ele>
        <time>2019-03-30T08:39:01.000Z</time>
      </trkpt>
      <trkpt lat="43.94534" lon="7.27839">
        <ele>435</ele>
        <time>2019-03-30T08:39:02.000Z</time>
      </trkpt>
      <trkpt lat="43.94528" lon="7.27853">
        <ele>436</ele>
        <time>2019-03-30T08:39:08.000Z</time>
      </trkpt>
      <trkpt lat="43.94525" lon="7.27862">
        <ele>436.60000610352</ele>
        <time>2019-03-30T08:39:12.000Z</time>
      </trkpt>
      <trkpt lat="43.94523" lon="7.27866">
        <ele>437</ele>
        <time>2019-03-30T08:39:14.000Z</time>
      </trkpt>
      <trkpt lat="43.94518" lon="7.27883">
        <ele>438</ele>
        <time>2019-03-30T08:39:21.000Z</time>
      </trkpt>
      <trkpt lat="43.94514" lon="7.27896">
        <ele>439.20001220703</ele>
        <time>2019-03-30T08:39:27.000Z</time>
      </trkpt>
      <trkpt lat="43.94512" lon="7.27909">
        <ele>439.79998779297</ele>
        <time>2019-03-30T08:39:32.000Z</time>
      </trkpt>
      <trkpt lat="43.94511" lon="7.27914">
        <ele>440.20001220703</ele>
        <time>2019-03-30T08:39:34.000Z</time>
      </trkpt>
      <trkpt lat="43.94507" lon="7.27934">
        <ele>441.39999389648</ele>
        <time>2019-03-30T08:39:42.000Z</time>
      </trkpt>
      <trkpt lat="43.94505" lon="7.2795">
        <ele>442.60000610352</ele>
        <time>2019-03-30T08:39:49.000Z</time>
      </trkpt>
      <trkpt lat="43.94504" lon="7.27953">
        <ele>442.60000610352</ele>
        <time>2019-03-30T08:39:50.000Z</time>
      </trkpt>
      <trkpt lat="43.94501" lon="7.27967">
        <ele>443.60000610352</ele>
        <time>2019-03-30T08:39:56.000Z</time>
      </trkpt>
      <trkpt lat="43.94499" lon="7.27971">
        <ele>443.79998779297</ele>
        <time>2019-03-30T08:39:58.000Z</time>
      </trkpt>
      <trkpt lat="43.94497" lon="7.27983">
        <ele>444.60000610352</ele>
        <time>2019-03-30T08:40:03.000Z</time>
      </trkpt>
      <trkpt lat="43.94495" lon="7.27992">
        <ele>445.20001220703</ele>
        <time>2019-03-30T08:40:07.000Z</time>
      </trkpt>
      <trkpt lat="43.94494" lon="7.28">
        <ele>445.60000610352</ele>
        <time>2019-03-30T08:40:10.000Z</time>
      </trkpt>
      <trkpt lat="43.94492" lon="7.28014">
        <ele>446.60000610352</ele>
        <time>2019-03-30T08:40:16.000Z</time>
      </trkpt>
      <trkpt lat="43.94491" lon="7.28016">
        <ele>446.79998779297</ele>
        <time>2019-03-30T08:40:17.000Z</time>
      </trkpt>
      <trkpt lat="43.94492" lon="7.28028">
        <ele>447.60000610352</ele>
        <time>2019-03-30T08:40:22.000Z</time>
      </trkpt>
      <trkpt lat="43.94492" lon="7.28034">
        <ele>447.79998779297</ele>
        <time>2019-03-30T08:40:24.000Z</time>
      </trkpt>
      <trkpt lat="43.94494" lon="7.28049">
        <ele>448.79998779297</ele>
        <time>2019-03-30T08:40:30.000Z</time>
      </trkpt>
      <trkpt lat="43.94495" lon="7.28051">
        <ele>449</ele>
        <time>2019-03-30T08:40:31.000Z</time>
      </trkpt>
      <trkpt lat="43.94501" lon="7.28065">
        <ele>449.79998779297</ele>
        <time>2019-03-30T08:40:38.000Z</time>
      </trkpt>
      <trkpt lat="43.94502" lon="7.28069">
        <ele>450</ele>
        <time>2019-03-30T08:40:40.000Z</time>
      </trkpt>
      <trkpt lat="43.94503" lon="7.2807">
        <ele>450.20001220703</ele>
        <time>2019-03-30T08:40:41.000Z</time>
      </trkpt>
      <trkpt lat="43.94505" lon="7.28074">
        <ele>450.60000610352</ele>
        <time>2019-03-30T08:40:43.000Z</time>
      </trkpt>
      <trkpt lat="43.94509" lon="7.28079">
        <ele>451</ele>
        <time>2019-03-30T08:40:46.000Z</time>
      </trkpt>
      <trkpt lat="43.94519" lon="7.28088">
        <ele>452</ele>
        <time>2019-03-30T08:40:52.000Z</time>
      </trkpt>
      <trkpt lat="43.9452" lon="7.28089">
        <ele>452.20001220703</ele>
        <time>2019-03-30T08:40:53.000Z</time>
      </trkpt>
      <trkpt lat="43.94528" lon="7.28098">
        <ele>453</ele>
        <time>2019-03-30T08:40:59.000Z</time>
      </trkpt>
      <trkpt lat="43.94529" lon="7.281">
        <ele>453.20001220703</ele>
        <time>2019-03-30T08:41:00.000Z</time>
      </trkpt>
      <trkpt lat="43.94537" lon="7.28107">
        <ele>454</ele>
        <time>2019-03-30T08:41:05.000Z</time>
      </trkpt>
      <trkpt lat="43.94539" lon="7.28109">
        <ele>454.20001220703</ele>
        <time>2019-03-30T08:41:06.000Z</time>
      </trkpt>
      <trkpt lat="43.94549" lon="7.28117">
        <ele>455.20001220703</ele>
        <time>2019-03-30T08:41:12.000Z</time>
      </trkpt>
      <trkpt lat="43.94551" lon="7.28118">
        <ele>455.39999389648</ele>
        <time>2019-03-30T08:41:13.000Z</time>
      </trkpt>
      <trkpt lat="43.9456" lon="7.28126">
        <ele>456.39999389648</ele>
        <time>2019-03-30T08:41:19.000Z</time>
      </trkpt>
      <trkpt lat="43.94561" lon="7.28127">
        <ele>456.60000610352</ele>
        <time>2019-03-30T08:41:20.000Z</time>
      </trkpt>
      <trkpt lat="43.9457" lon="7.28132">
        <ele>457.39999389648</ele>
        <time>2019-03-30T08:41:25.000Z</time>
      </trkpt>
      <trkpt lat="43.94573" lon="7.28134">
        <ele>457.60000610352</ele>
        <time>2019-03-30T08:41:27.000Z</time>
      </trkpt>
      <trkpt lat="43.94576" lon="7.28134">
        <ele>457.79998779297</ele>
        <time>2019-03-30T08:41:28.000Z</time>
      </trkpt>
      <trkpt lat="43.94583" lon="7.28134">
        <ele>458.39999389648</ele>
        <time>2019-03-30T08:41:32.000Z</time>
      </trkpt>
      <trkpt lat="43.94587" lon="7.28133">
        <ele>458.60000610352</ele>
        <time>2019-03-30T08:41:34.000Z</time>
      </trkpt>
      <trkpt lat="43.94599" lon="7.28127">
        <ele>459.60000610352</ele>
        <time>2019-03-30T08:41:40.000Z</time>
      </trkpt>
      <trkpt lat="43.94601" lon="7.28126">
        <ele>459.60000610352</ele>
        <time>2019-03-30T08:41:41.000Z</time>
      </trkpt>
      <trkpt lat="43.9461" lon="7.28117">
        <ele>460.79998779297</ele>
        <time>2019-03-30T08:41:47.000Z</time>
      </trkpt>
      <trkpt lat="43.94617" lon="7.28112">
        <ele>461.39999389648</ele>
        <time>2019-03-30T08:41:51.000Z</time>
      </trkpt>
      <trkpt lat="43.9462" lon="7.2811">
        <ele>461.79998779297</ele>
        <time>2019-03-30T08:41:53.000Z</time>
      </trkpt>
      <trkpt lat="43.94627" lon="7.28102">
        <ele>462.60000610352</ele>
        <time>2019-03-30T08:41:59.000Z</time>
      </trkpt>
      <trkpt lat="43.94629" lon="7.281">
        <ele>462.79998779297</ele>
        <time>2019-03-30T08:42:01.000Z</time>
      </trkpt>
      <trkpt lat="43.94633" lon="7.28098">
        <ele>463.20001220703</ele>
        <time>2019-03-30T08:42:04.000Z</time>
      </trkpt>
      <trkpt lat="43.94635" lon="7.28094">
        <ele>463.60000610352</ele>
        <time>2019-03-30T08:42:09.000Z</time>
      </trkpt>
      <trkpt lat="43.94634" lon="7.28093">
        <ele>463.60000610352</ele>
        <time>2019-03-30T08:42:10.000Z</time>
      </trkpt>
      <trkpt lat="43.94631" lon="7.28097">
        <ele>463.60000610352</ele>
        <time>2019-03-30T08:42:14.000Z</time>
      </trkpt>
      <trkpt lat="43.9463" lon="7.28098">
        <ele>463.60000610352</ele>
        <time>2019-03-30T08:42:15.000Z</time>
      </trkpt>
      <trkpt lat="43.94629" lon="7.28099">
        <ele>463.20001220703</ele>
        <time>2019-03-30T08:42:20.000Z</time>
      </trkpt>
      <trkpt lat="43.94628" lon="7.28099">
        <ele>463.39999389648</ele>
        <time>2019-03-30T08:42:26.000Z</time>
      </trkpt>
      <trkpt lat="43.94628" lon="7.28098">
        <ele>463</ele>
        <time>2019-03-30T08:42:49.000Z</time>
      </trkpt>
      <trkpt lat="43.94626" lon="7.28097">
        <ele>463</ele>
        <time>2019-03-30T08:42:55.000Z</time>
      </trkpt>
      <trkpt lat="43.94627" lon="7.28096">
        <ele>463</ele>
        <time>2019-03-30T08:43:02.000Z</time>
      </trkpt>
      <trkpt lat="43.94627" lon="7.28098">
        <ele>462.60000610352</ele>
        <time>2019-03-30T08:43:09.000Z</time>
      </trkpt>
      <trkpt lat="43.94627" lon="7.28099">
        <ele>462.60000610352</ele>
        <time>2019-03-30T08:43:17.000Z</time>
      </trkpt>
      <trkpt lat="43.94628" lon="7.28098">
        <ele>462.39999389648</ele>
        <time>2019-03-30T08:43:29.000Z</time>
      </trkpt>
      <trkpt lat="43.94629" lon="7.28099">
        <ele>462.60000610352</ele>
        <time>2019-03-30T08:43:34.000Z</time>
      </trkpt>
      <trkpt lat="43.94629" lon="7.28099">
        <ele>462.60000610352</ele>
        <time>2019-03-30T08:43:35.000Z</time>
      </trkpt>
      <trkpt lat="43.94627" lon="7.28101">
        <ele>462.60000610352</ele>
        <time>2019-03-30T08:43:38.000Z</time>
      </trkpt>
      <trkpt lat="43.94626" lon="7.28101">
        <ele>462.60000610352</ele>
        <time>2019-03-30T08:43:39.000Z</time>
      </trkpt>
      <trkpt lat="43.94625" lon="7.281">
        <ele>462.79998779297</ele>
        <time>2019-03-30T08:43:44.000Z</time>
      </trkpt>
      <trkpt lat="43.94625" lon="7.28098">
        <ele>463.20001220703</ele>
        <time>2019-03-30T08:44:03.000Z</time>
      </trkpt>
      <trkpt lat="43.94625" lon="7.28096">
        <ele>463.39999389648</ele>
        <time>2019-03-30T08:44:10.000Z</time>
      </trkpt>
      <trkpt lat="43.94626" lon="7.28097">
        <ele>463.39999389648</ele>
        <time>2019-03-30T08:44:18.000Z</time>
      </trkpt>
      <trkpt lat="43.94627" lon="7.28096">
        <ele>463.20001220703</ele>
        <time>2019-03-30T08:44:23.000Z</time>
      </trkpt>
      <trkpt lat="43.9463" lon="7.28096">
        <ele>462.79998779297</ele>
        <time>2019-03-30T08:44:30.000Z</time>
      </trkpt>
      <trkpt lat="43.94629" lon="7.28098">
        <ele>462.79998779297</ele>
        <time>2019-03-30T08:44:44.000Z</time>
      </trkpt>
      <trkpt lat="43.94629" lon="7.28099">
        <ele>462.79998779297</ele>
        <time>2019-03-30T08:44:45.000Z</time>
      </trkpt>
      <trkpt lat="43.94625" lon="7.28099">
        <ele>462.79998779297</ele>
        <time>2019-03-30T08:44:49.000Z</time>
      </trkpt>
      <trkpt lat="43.94625" lon="7.28097">
        <ele>463.20001220703</ele>
        <time>2019-03-30T08:44:56.000Z</time>
      </trkpt>
      <trkpt lat="43.94625" lon="7.28098">
        <ele>463</ele>
        <time>2019-03-30T08:45:08.000Z</time>
      </trkpt>
      <trkpt lat="43.94626" lon="7.28099">
        <ele>463</ele>
        <time>2019-03-30T08:45:16.000Z</time>
      </trkpt>
      <trkpt lat="43.94627" lon="7.28099">
        <ele>463</ele>
        <time>2019-03-30T08:45:23.000Z</time>
      </trkpt>
      <trkpt lat="43.94628" lon="7.28098">
        <ele>463</ele>
        <time>2019-03-30T08:45:31.000Z</time>
      </trkpt>
      <trkpt lat="43.94629" lon="7.28098">
        <ele>463</ele>
        <time>2019-03-30T08:45:37.000Z</time>
      </trkpt>
      <trkpt lat="43.94632" lon="7.28097">
        <ele>463.39999389648</ele>
        <time>2019-03-30T08:45:44.000Z</time>
      </trkpt>
      <trkpt lat="43.94631" lon="7.28097">
        <ele>463.60000610352</ele>
        <time>2019-03-30T08:45:52.000Z</time>
      </trkpt>
      <trkpt lat="43.94631" lon="7.28097">
        <ele>463.79998779297</ele>
        <time>2019-03-30T08:45:59.000Z</time>
      </trkpt>
      <trkpt lat="43.94632" lon="7.28099">
        <ele>463.60000610352</ele>
        <time>2019-03-30T08:46:13.000Z</time>
      </trkpt>
      <trkpt lat="43.94631" lon="7.28099">
        <ele>463.60000610352</ele>
        <time>2019-03-30T08:46:24.000Z</time>
      </trkpt>
      <trkpt lat="43.94631" lon="7.28098">
        <ele>463.60000610352</ele>
        <time>2019-03-30T08:46:34.000Z</time>
      </trkpt>
      <trkpt lat="43.94631" lon="7.28096">
        <ele>463.79998779297</ele>
        <time>2019-03-30T08:46:55.000Z</time>
      </trkpt>
      <trkpt lat="43.94633" lon="7.28095">
        <ele>463.79998779297</ele>
        <time>2019-03-30T08:46:58.000Z</time>
      </trkpt>
      <trkpt lat="43.94636" lon="7.28094">
        <ele>463.79998779297</ele>
        <time>2019-03-30T08:47:00.000Z</time>
      </trkpt>
      <trkpt lat="43.94641" lon="7.28091">
        <ele>463.79998779297</ele>
        <time>2019-03-30T08:47:04.000Z</time>
      </trkpt>
      <trkpt lat="43.94643" lon="7.28089">
        <ele>464</ele>
        <time>2019-03-30T08:47:06.000Z</time>
      </trkpt>
      <trkpt lat="43.94652" lon="7.28082">
        <ele>465</ele>
        <time>2019-03-30T08:47:12.000Z</time>
      </trkpt>
      <trkpt lat="43.94653" lon="7.28081">
        <ele>465</ele>
        <time>2019-03-30T08:47:13.000Z</time>
      </trkpt>
      <trkpt lat="43.9466" lon="7.28073">
        <ele>465.60000610352</ele>
        <time>2019-03-30T08:47:18.000Z</time>
      </trkpt>
      <trkpt lat="43.94666" lon="7.28066">
        <ele>466</ele>
        <time>2019-03-30T08:47:22.000Z</time>
      </trkpt>
      <trkpt lat="43.94669" lon="7.28063">
        <ele>466.39999389648</ele>
        <time>2019-03-30T08:47:24.000Z</time>
      </trkpt>
      <trkpt lat="43.94677" lon="7.28054">
        <ele>467.20001220703</ele>
        <time>2019-03-30T08:47:29.000Z</time>
      </trkpt>
      <trkpt lat="43.94684" lon="7.28048">
        <ele>467.79998779297</ele>
        <time>2019-03-30T08:47:33.000Z</time>
      </trkpt>
      <trkpt lat="43.94689" lon="7.28044">
        <ele>468.39999389648</ele>
        <time>2019-03-30T08:47:36.000Z</time>
      </trkpt>
      <trkpt lat="43.94694" lon="7.28042">
        <ele>468.79998779297</ele>
        <time>2019-03-30T08:47:39.000Z</time>
      </trkpt>
      <trkpt lat="43.94702" lon="7.28039">
        <ele>469.39999389648</ele>
        <time>2019-03-30T08:47:43.000Z</time>
      </trkpt>
      <trkpt lat="43.9471" lon="7.28038">
        <ele>470.20001220703</ele>
        <time>2019-03-30T08:47:47.000Z</time>
      </trkpt>
      <trkpt lat="43.94714" lon="7.28037">
        <ele>470.60000610352</ele>
        <time>2019-03-30T08:47:49.000Z</time>
      </trkpt>
      <trkpt lat="43.94723" lon="7.28035">
        <ele>471.60000610352</ele>
        <time>2019-03-30T08:47:54.000Z</time>
      </trkpt>
      <trkpt lat="43.94725" lon="7.28035">
        <ele>471.79998779297</ele>
        <time>2019-03-30T08:47:55.000Z</time>
      </trkpt>
      <trkpt lat="43.94737" lon="7.28032">
        <ele>472.79998779297</ele>
        <time>2019-03-30T08:48:01.000Z</time>
      </trkpt>
      <trkpt lat="43.94745" lon="7.28031">
        <ele>473.39999389648</ele>
        <time>2019-03-30T08:48:05.000Z</time>
      </trkpt>
      <trkpt lat="43.94752" lon="7.28033">
        <ele>473.79998779297</ele>
        <time>2019-03-30T08:48:08.000Z</time>
      </trkpt>
      <trkpt lat="43.94758" lon="7.28036">
        <ele>474.39999389648</ele>
        <time>2019-03-30T08:48:11.000Z</time>
      </trkpt>
      <trkpt lat="43.94764" lon="7.28045">
        <ele>475</ele>
        <time>2019-03-30T08:48:15.000Z</time>
      </trkpt>
      <trkpt lat="43.94766" lon="7.2805">
        <ele>475.20001220703</ele>
        <time>2019-03-30T08:48:17.000Z</time>
      </trkpt>
      <trkpt lat="43.94769" lon="7.28063">
        <ele>476</ele>
        <time>2019-03-30T08:48:22.000Z</time>
      </trkpt>
      <trkpt lat="43.9477" lon="7.28073">
        <ele>476.79998779297</ele>
        <time>2019-03-30T08:48:26.000Z</time>
      </trkpt>
      <trkpt lat="43.94771" lon="7.28078">
        <ele>477.20001220703</ele>
        <time>2019-03-30T08:48:28.000Z</time>
      </trkpt>
      <trkpt lat="43.94773" lon="7.28094">
        <ele>478.20001220703</ele>
        <time>2019-03-30T08:48:34.000Z</time>
      </trkpt>
      <trkpt lat="43.94776" lon="7.28112">
        <ele>479.39999389648</ele>
        <time>2019-03-30T08:48:41.000Z</time>
      </trkpt>
      <trkpt lat="43.94777" lon="7.28119">
        <ele>479.79998779297</ele>
        <time>2019-03-30T08:48:44.000Z</time>
      </trkpt>
      <trkpt lat="43.9478" lon="7.2813">
        <ele>480.39999389648</ele>
        <time>2019-03-30T08:48:48.000Z</time>
      </trkpt>
      <trkpt lat="43.94781" lon="7.28138">
        <ele>480.79998779297</ele>
        <time>2019-03-30T08:48:51.000Z</time>
      </trkpt>
      <trkpt lat="43.94784" lon="7.28148">
        <ele>481.39999389648</ele>
        <time>2019-03-30T08:48:55.000Z</time>
      </trkpt>
      <trkpt lat="43.94786" lon="7.28158">
        <ele>482</ele>
        <time>2019-03-30T08:48:59.000Z</time>
      </trkpt>
      <trkpt lat="43.94788" lon="7.28166">
        <ele>482.60000610352</ele>
        <time>2019-03-30T08:49:02.000Z</time>
      </trkpt>
      <trkpt lat="43.94793" lon="7.28181">
        <ele>483.60000610352</ele>
        <time>2019-03-30T08:49:08.000Z</time>
      </trkpt>
      <trkpt lat="43.94794" lon="7.28184">
        <ele>483.79998779297</ele>
        <time>2019-03-30T08:49:09.000Z</time>
      </trkpt>
      <trkpt lat="43.94802" lon="7.28199">
        <ele>484.79998779297</ele>
        <time>2019-03-30T08:49:16.000Z</time>
      </trkpt>
      <trkpt lat="43.94809" lon="7.28211">
        <ele>485.79998779297</ele>
        <time>2019-03-30T08:49:22.000Z</time>
      </trkpt>
      <trkpt lat="43.94812" lon="7.28214">
        <ele>486.20001220703</ele>
        <time>2019-03-30T08:49:24.000Z</time>
      </trkpt>
      <trkpt lat="43.94817" lon="7.2822">
        <ele>486.79998779297</ele>
        <time>2019-03-30T08:49:28.000Z</time>
      </trkpt>
      <trkpt lat="43.94823" lon="7.28225">
        <ele>487.39999389648</ele>
        <time>2019-03-30T08:49:32.000Z</time>
      </trkpt>
      <trkpt lat="43.94827" lon="7.28229">
        <ele>487.79998779297</ele>
        <time>2019-03-30T08:49:35.000Z</time>
      </trkpt>
      <trkpt lat="43.94835" lon="7.28235">
        <ele>488.60000610352</ele>
        <time>2019-03-30T08:49:40.000Z</time>
      </trkpt>
      <trkpt lat="43.94838" lon="7.28238">
        <ele>488.79998779297</ele>
        <time>2019-03-30T08:49:42.000Z</time>
      </trkpt>
      <trkpt lat="43.94848" lon="7.28248">
        <ele>489.60000610352</ele>
        <time>2019-03-30T08:49:48.000Z</time>
      </trkpt>
      <trkpt lat="43.94852" lon="7.28254">
        <ele>489.79998779297</ele>
        <time>2019-03-30T08:49:51.000Z</time>
      </trkpt>
      <trkpt lat="43.94857" lon="7.28263">
        <ele>490.60000610352</ele>
        <time>2019-03-30T08:49:55.000Z</time>
      </trkpt>
      <trkpt lat="43.9486" lon="7.2827">
        <ele>491</ele>
        <time>2019-03-30T08:49:58.000Z</time>
      </trkpt>
      <trkpt lat="43.94865" lon="7.28282">
        <ele>491.60000610352</ele>
        <time>2019-03-30T08:50:03.000Z</time>
      </trkpt>
      <trkpt lat="43.94868" lon="7.28287">
        <ele>492</ele>
        <time>2019-03-30T08:50:05.000Z</time>
      </trkpt>
      <trkpt lat="43.94877" lon="7.28297">
        <ele>492.79998779297</ele>
        <time>2019-03-30T08:50:11.000Z</time>
      </trkpt>
      <trkpt lat="43.94883" lon="7.28296">
        <ele>493</ele>
        <time>2019-03-30T08:50:14.000Z</time>
      </trkpt>
      <trkpt lat="43.94886" lon="7.28292">
        <ele>493.20001220703</ele>
        <time>2019-03-30T08:50:16.000Z</time>
      </trkpt>
      <trkpt lat="43.94888" lon="7.28291">
        <ele>493.39999389648</ele>
        <time>2019-03-30T08:50:17.000Z</time>
      </trkpt>
      <trkpt lat="43.94888" lon="7.28286">
        <ele>493.60000610352</ele>
        <time>2019-03-30T08:50:19.000Z</time>
      </trkpt>
      <trkpt lat="43.94885" lon="7.28277">
        <ele>494.20001220703</ele>
        <time>2019-03-30T08:50:22.000Z</time>
      </trkpt>
      <trkpt lat="43.9488" lon="7.28268">
        <ele>494.60000610352</ele>
        <time>2019-03-30T08:50:26.000Z</time>
      </trkpt>
      <trkpt lat="43.94873" lon="7.28256">
        <ele>495.20001220703</ele>
        <time>2019-03-30T08:50:31.000Z</time>
      </trkpt>
      <trkpt lat="43.94869" lon="7.28245">
        <ele>495.60000610352</ele>
        <time>2019-03-30T08:50:35.000Z</time>
      </trkpt>
      <trkpt lat="43.94862" lon="7.28233">
        <ele>496.20001220703</ele>
        <time>2019-03-30T08:50:40.000Z</time>
      </trkpt>
      <trkpt lat="43.94859" lon="7.2823">
        <ele>496.39999389648</ele>
        <time>2019-03-30T08:50:42.000Z</time>
      </trkpt>
      <trkpt lat="43.94854" lon="7.28219">
        <ele>497.20001220703</ele>
        <time>2019-03-30T08:50:47.000Z</time>
      </trkpt>
      <trkpt lat="43.94853" lon="7.28216">
        <ele>497.20001220703</ele>
        <time>2019-03-30T08:50:48.000Z</time>
      </trkpt>
      <trkpt lat="43.94843" lon="7.28197">
        <ele>498.39999389648</ele>
        <time>2019-03-30T08:50:56.000Z</time>
      </trkpt>
      <trkpt lat="43.94842" lon="7.28194">
        <ele>498.39999389648</ele>
        <time>2019-03-30T08:50:57.000Z</time>
      </trkpt>
      <trkpt lat="43.94838" lon="7.28175">
        <ele>499.60000610352</ele>
        <time>2019-03-30T08:51:04.000Z</time>
      </trkpt>
      <trkpt lat="43.94838" lon="7.28172">
        <ele>499.79998779297</ele>
        <time>2019-03-30T08:51:05.000Z</time>
      </trkpt>
      <trkpt lat="43.94837" lon="7.28161">
        <ele>500.60000610352</ele>
        <time>2019-03-30T08:51:09.000Z</time>
      </trkpt>
      <trkpt lat="43.94836" lon="7.28151">
        <ele>501.20001220703</ele>
        <time>2019-03-30T08:51:13.000Z</time>
      </trkpt>
      <trkpt lat="43.94837" lon="7.28146">
        <ele>501.60000610352</ele>
        <time>2019-03-30T08:51:15.000Z</time>
      </trkpt>
      <trkpt lat="43.94837" lon="7.28134">
        <ele>502.20001220703</ele>
        <time>2019-03-30T08:51:19.000Z</time>
      </trkpt>
      <trkpt lat="43.94837" lon="7.28126">
        <ele>502.60000610352</ele>
        <time>2019-03-30T08:51:22.000Z</time>
      </trkpt>
      <trkpt lat="43.94836" lon="7.28108">
        <ele>503.79998779297</ele>
        <time>2019-03-30T08:51:28.000Z</time>
      </trkpt>
      <trkpt lat="43.94836" lon="7.2809">
        <ele>504.79998779297</ele>
        <time>2019-03-30T08:51:34.000Z</time>
      </trkpt>
      <trkpt lat="43.94835" lon="7.28081">
        <ele>505.39999389648</ele>
        <time>2019-03-30T08:51:37.000Z</time>
      </trkpt>
      <trkpt lat="43.94836" lon="7.28072">
        <ele>506</ele>
        <time>2019-03-30T08:51:40.000Z</time>
      </trkpt>
      <trkpt lat="43.94838" lon="7.28054">
        <ele>507</ele>
        <time>2019-03-30T08:51:46.000Z</time>
      </trkpt>
      <trkpt lat="43.94841" lon="7.2804">
        <ele>508.20001220703</ele>
        <time>2019-03-30T08:51:51.000Z</time>
      </trkpt>
      <trkpt lat="43.94845" lon="7.2803">
        <ele>509</ele>
        <time>2019-03-30T08:51:55.000Z</time>
      </trkpt>
      <trkpt lat="43.94846" lon="7.28028">
        <ele>509.20001220703</ele>
        <time>2019-03-30T08:51:56.000Z</time>
      </trkpt>
      <trkpt lat="43.94852" lon="7.28013">
        <ele>510.39999389648</ele>
        <time>2019-03-30T08:52:02.000Z</time>
      </trkpt>
      <trkpt lat="43.94857" lon="7.28004">
        <ele>511</ele>
        <time>2019-03-30T08:52:06.000Z</time>
      </trkpt>
      <trkpt lat="43.94859" lon="7.28">
        <ele>511.60000610352</ele>
        <time>2019-03-30T08:52:08.000Z</time>
      </trkpt>
      <trkpt lat="43.94865" lon="7.27989">
        <ele>512.20001220703</ele>
        <time>2019-03-30T08:52:13.000Z</time>
      </trkpt>
      <trkpt lat="43.94868" lon="7.27985">
        <ele>512.59997558594</ele>
        <time>2019-03-30T08:52:15.000Z</time>
      </trkpt>
      <trkpt lat="43.94879" lon="7.27973">
        <ele>513.59997558594</ele>
        <time>2019-03-30T08:52:22.000Z</time>
      </trkpt>
      <trkpt lat="43.94881" lon="7.27971">
        <ele>513.79998779297</ele>
        <time>2019-03-30T08:52:23.000Z</time>
      </trkpt>
      <trkpt lat="43.94888" lon="7.27957">
        <ele>514.79998779297</ele>
        <time>2019-03-30T08:52:29.000Z</time>
      </trkpt>
      <trkpt lat="43.94889" lon="7.27952">
        <ele>515.20001220703</ele>
        <time>2019-03-30T08:52:31.000Z</time>
      </trkpt>
      <trkpt lat="43.9489" lon="7.27944">
        <ele>515.79998779297</ele>
        <time>2019-03-30T08:52:34.000Z</time>
      </trkpt>
      <trkpt lat="43.94892" lon="7.2793">
        <ele>516.59997558594</ele>
        <time>2019-03-30T08:52:39.000Z</time>
      </trkpt>
      <trkpt lat="43.94893" lon="7.27924">
        <ele>517</ele>
        <time>2019-03-30T08:52:41.000Z</time>
      </trkpt>
      <trkpt lat="43.94894" lon="7.27907">
        <ele>518</ele>
        <time>2019-03-30T08:52:47.000Z</time>
      </trkpt>
      <trkpt lat="43.94895" lon="7.27904">
        <ele>518</ele>
        <time>2019-03-30T08:52:48.000Z</time>
      </trkpt>
      <trkpt lat="43.94896" lon="7.27888">
        <ele>519</ele>
        <time>2019-03-30T08:52:54.000Z</time>
      </trkpt>
      <trkpt lat="43.94897" lon="7.27886">
        <ele>519.20001220703</ele>
        <time>2019-03-30T08:52:55.000Z</time>
      </trkpt>
      <trkpt lat="43.94901" lon="7.27867">
        <ele>520.20001220703</ele>
        <time>2019-03-30T08:53:02.000Z</time>
      </trkpt>
      <trkpt lat="43.94902" lon="7.27865">
        <ele>520.20001220703</ele>
        <time>2019-03-30T08:53:03.000Z</time>
      </trkpt>
      <trkpt lat="43.94905" lon="7.2785">
        <ele>521.20001220703</ele>
        <time>2019-03-30T08:53:08.000Z</time>
      </trkpt>
      <trkpt lat="43.94906" lon="7.27841">
        <ele>521.40002441406</ele>
        <time>2019-03-30T08:53:11.000Z</time>
      </trkpt>
      <trkpt lat="43.94912" lon="7.27825">
        <ele>522.40002441406</ele>
        <time>2019-03-30T08:53:17.000Z</time>
      </trkpt>
      <trkpt lat="43.94915" lon="7.27818">
        <ele>523</ele>
        <time>2019-03-30T08:53:20.000Z</time>
      </trkpt>
      <trkpt lat="43.94919" lon="7.27811">
        <ele>523.59997558594</ele>
        <time>2019-03-30T08:53:23.000Z</time>
      </trkpt>
      <trkpt lat="43.94926" lon="7.27796">
        <ele>524.59997558594</ele>
        <time>2019-03-30T08:53:29.000Z</time>
      </trkpt>
      <trkpt lat="43.94929" lon="7.27792">
        <ele>524.79998779297</ele>
        <time>2019-03-30T08:53:31.000Z</time>
      </trkpt>
      <trkpt lat="43.94939" lon="7.27781">
        <ele>525.79998779297</ele>
        <time>2019-03-30T08:53:37.000Z</time>
      </trkpt>
      <trkpt lat="43.94941" lon="7.2778">
        <ele>526</ele>
        <time>2019-03-30T08:53:38.000Z</time>
      </trkpt>
      <trkpt lat="43.94949" lon="7.27774">
        <ele>526.79998779297</ele>
        <time>2019-03-30T08:53:42.000Z</time>
      </trkpt>
      <trkpt lat="43.94957" lon="7.27769">
        <ele>527.79998779297</ele>
        <time>2019-03-30T08:53:46.000Z</time>
      </trkpt>
      <trkpt lat="43.94961" lon="7.27766">
        <ele>528.20001220703</ele>
        <time>2019-03-30T08:53:48.000Z</time>
      </trkpt>
      <trkpt lat="43.94969" lon="7.27762">
        <ele>529</ele>
        <time>2019-03-30T08:53:52.000Z</time>
      </trkpt>
      <trkpt lat="43.94982" lon="7.27754">
        <ele>530</ele>
        <time>2019-03-30T08:53:58.000Z</time>
      </trkpt>
      <trkpt lat="43.94995" lon="7.27748">
        <ele>531.20001220703</ele>
        <time>2019-03-30T08:54:04.000Z</time>
      </trkpt>
      <trkpt lat="43.94999" lon="7.27747">
        <ele>531.79998779297</ele>
        <time>2019-03-30T08:54:06.000Z</time>
      </trkpt>
      <trkpt lat="43.95006" lon="7.27748">
        <ele>532.20001220703</ele>
        <time>2019-03-30T08:54:09.000Z</time>
      </trkpt>
      <trkpt lat="43.95022" lon="7.27749">
        <ele>533.40002441406</ele>
        <time>2019-03-30T08:54:16.000Z</time>
      </trkpt>
      <trkpt lat="43.95035" lon="7.27752">
        <ele>534.59997558594</ele>
        <time>2019-03-30T08:54:22.000Z</time>
      </trkpt>
      <trkpt lat="43.95042" lon="7.27752">
        <ele>535</ele>
        <time>2019-03-30T08:54:25.000Z</time>
      </trkpt>
      <trkpt lat="43.9505" lon="7.27749">
        <ele>535.59997558594</ele>
        <time>2019-03-30T08:54:29.000Z</time>
      </trkpt>
      <trkpt lat="43.95058" lon="7.27744">
        <ele>536.40002441406</ele>
        <time>2019-03-30T08:54:33.000Z</time>
      </trkpt>
      <trkpt lat="43.95062" lon="7.27741">
        <ele>536.79998779297</ele>
        <time>2019-03-30T08:54:35.000Z</time>
      </trkpt>
      <trkpt lat="43.95069" lon="7.27734">
        <ele>537.79998779297</ele>
        <time>2019-03-30T08:54:39.000Z</time>
      </trkpt>
      <trkpt lat="43.95074" lon="7.27728">
        <ele>538.59997558594</ele>
        <time>2019-03-30T08:54:42.000Z</time>
      </trkpt>
      <trkpt lat="43.95078" lon="7.27722">
        <ele>539</ele>
        <time>2019-03-30T08:54:45.000Z</time>
      </trkpt>
      <trkpt lat="43.95087" lon="7.27711">
        <ele>540</ele>
        <time>2019-03-30T08:54:51.000Z</time>
      </trkpt>
      <trkpt lat="43.9509" lon="7.27707">
        <ele>540.59997558594</ele>
        <time>2019-03-30T08:54:53.000Z</time>
      </trkpt>
      <trkpt lat="43.95093" lon="7.277">
        <ele>541.20001220703</ele>
        <time>2019-03-30T08:54:56.000Z</time>
      </trkpt>
      <trkpt lat="43.95097" lon="7.27687">
        <ele>542.20001220703</ele>
        <time>2019-03-30T08:55:01.000Z</time>
      </trkpt>
      <trkpt lat="43.95098" lon="7.27682">
        <ele>542.59997558594</ele>
        <time>2019-03-30T08:55:03.000Z</time>
      </trkpt>
      <trkpt lat="43.951" lon="7.27672">
        <ele>543.20001220703</ele>
        <time>2019-03-30T08:55:07.000Z</time>
      </trkpt>
      <trkpt lat="43.95104" lon="7.27653">
        <ele>544</ele>
        <time>2019-03-30T08:55:14.000Z</time>
      </trkpt>
      <trkpt lat="43.95104" lon="7.2765">
        <ele>544.20001220703</ele>
        <time>2019-03-30T08:55:15.000Z</time>
      </trkpt>
      <trkpt lat="43.95107" lon="7.27634">
        <ele>545.20001220703</ele>
        <time>2019-03-30T08:55:21.000Z</time>
      </trkpt>
      <trkpt lat="43.95108" lon="7.27629">
        <ele>545.59997558594</ele>
        <time>2019-03-30T08:55:23.000Z</time>
      </trkpt>
      <trkpt lat="43.95109" lon="7.27615">
        <ele>546.40002441406</ele>
        <time>2019-03-30T08:55:28.000Z</time>
      </trkpt>
      <trkpt lat="43.95111" lon="7.27604">
        <ele>547</ele>
        <time>2019-03-30T08:55:32.000Z</time>
      </trkpt>
      <trkpt lat="43.95113" lon="7.27597">
        <ele>547.40002441406</ele>
        <time>2019-03-30T08:55:35.000Z</time>
      </trkpt>
      <trkpt lat="43.95114" lon="7.27589">
        <ele>547.79998779297</ele>
        <time>2019-03-30T08:55:38.000Z</time>
      </trkpt>
      <trkpt lat="43.95116" lon="7.27581">
        <ele>548.40002441406</ele>
        <time>2019-03-30T08:55:41.000Z</time>
      </trkpt>
      <trkpt lat="43.95122" lon="7.27565">
        <ele>549.59997558594</ele>
        <time>2019-03-30T08:55:48.000Z</time>
      </trkpt>
      <trkpt lat="43.95123" lon="7.27562">
        <ele>549.59997558594</ele>
        <time>2019-03-30T08:55:49.000Z</time>
      </trkpt>
      <trkpt lat="43.95129" lon="7.27548">
        <ele>550.59997558594</ele>
        <time>2019-03-30T08:55:55.000Z</time>
      </trkpt>
      <trkpt lat="43.95133" lon="7.27539">
        <ele>551.20001220703</ele>
        <time>2019-03-30T08:55:59.000Z</time>
      </trkpt>
      <trkpt lat="43.95135" lon="7.27533">
        <ele>551.59997558594</ele>
        <time>2019-03-30T08:56:02.000Z</time>
      </trkpt>
      <trkpt lat="43.95142" lon="7.27521">
        <ele>552.59997558594</ele>
        <time>2019-03-30T08:56:08.000Z</time>
      </trkpt>
      <trkpt lat="43.95149" lon="7.27507">
        <ele>553.59997558594</ele>
        <time>2019-03-30T08:56:14.000Z</time>
      </trkpt>
      <trkpt lat="43.9515" lon="7.27502">
        <ele>554</ele>
        <time>2019-03-30T08:56:16.000Z</time>
      </trkpt>
      <trkpt lat="43.95154" lon="7.27492">
        <ele>554.79998779297</ele>
        <time>2019-03-30T08:56:20.000Z</time>
      </trkpt>
      <trkpt lat="43.95157" lon="7.27483">
        <ele>555.40002441406</ele>
        <time>2019-03-30T08:56:24.000Z</time>
      </trkpt>
      <trkpt lat="43.95158" lon="7.27478">
        <ele>555.79998779297</ele>
        <time>2019-03-30T08:56:26.000Z</time>
      </trkpt>
      <trkpt lat="43.95161" lon="7.2747">
        <ele>556.59997558594</ele>
        <time>2019-03-30T08:56:29.000Z</time>
      </trkpt>
      <trkpt lat="43.95162" lon="7.27465">
        <ele>557</ele>
        <time>2019-03-30T08:56:31.000Z</time>
      </trkpt>
      <trkpt lat="43.9517" lon="7.27457">
        <ele>557.79998779297</ele>
        <time>2019-03-30T08:56:36.000Z</time>
      </trkpt>
      <trkpt lat="43.95176" lon="7.27456">
        <ele>558</ele>
        <time>2019-03-30T08:56:39.000Z</time>
      </trkpt>
      <trkpt lat="43.95184" lon="7.27457">
        <ele>558.59997558594</ele>
        <time>2019-03-30T08:56:43.000Z</time>
      </trkpt>
      <trkpt lat="43.9519" lon="7.2746">
        <ele>559</ele>
        <time>2019-03-30T08:56:46.000Z</time>
      </trkpt>
      <trkpt lat="43.95199" lon="7.27465">
        <ele>559.79998779297</ele>
        <time>2019-03-30T08:56:51.000Z</time>
      </trkpt>
      <trkpt lat="43.95202" lon="7.27468">
        <ele>560.20001220703</ele>
        <time>2019-03-30T08:56:53.000Z</time>
      </trkpt>
      <trkpt lat="43.95212" lon="7.27474">
        <ele>560.79998779297</ele>
        <time>2019-03-30T08:56:58.000Z</time>
      </trkpt>
      <trkpt lat="43.95218" lon="7.27475">
        <ele>561.20001220703</ele>
        <time>2019-03-30T08:57:01.000Z</time>
      </trkpt>
      <trkpt lat="43.95227" lon="7.27475">
        <ele>562</ele>
        <time>2019-03-30T08:57:05.000Z</time>
      </trkpt>
      <trkpt lat="43.95231" lon="7.27476">
        <ele>562.40002441406</ele>
        <time>2019-03-30T08:57:07.000Z</time>
      </trkpt>
      <trkpt lat="43.95242" lon="7.27477">
        <ele>563.20001220703</ele>
        <time>2019-03-30T08:57:13.000Z</time>
      </trkpt>
      <trkpt lat="43.95244" lon="7.27477">
        <ele>563.40002441406</ele>
        <time>2019-03-30T08:57:14.000Z</time>
      </trkpt>
      <trkpt lat="43.95256" lon="7.27478">
        <ele>564.20001220703</ele>
        <time>2019-03-30T08:57:20.000Z</time>
      </trkpt>
      <trkpt lat="43.95258" lon="7.27479">
        <ele>564.40002441406</ele>
        <time>2019-03-30T08:57:21.000Z</time>
      </trkpt>
      <trkpt lat="43.95268" lon="7.27482">
        <ele>565</ele>
        <time>2019-03-30T08:57:26.000Z</time>
      </trkpt>
      <trkpt lat="43.95272" lon="7.27485">
        <ele>565.40002441406</ele>
        <time>2019-03-30T08:57:29.000Z</time>
      </trkpt>
      <trkpt lat="43.95276" lon="7.27488">
        <ele>565.79998779297</ele>
        <time>2019-03-30T08:57:32.000Z</time>
      </trkpt>
      <trkpt lat="43.95282" lon="7.27491">
        <ele>566.59997558594</ele>
        <time>2019-03-30T08:57:36.000Z</time>
      </trkpt>
      <trkpt lat="43.95285" lon="7.27494">
        <ele>566.79998779297</ele>
        <time>2019-03-30T08:57:38.000Z</time>
      </trkpt>
      <trkpt lat="43.95294" lon="7.27499">
        <ele>567.59997558594</ele>
        <time>2019-03-30T08:57:43.000Z</time>
      </trkpt>
      <trkpt lat="43.95298" lon="7.275">
        <ele>568</ele>
        <time>2019-03-30T08:57:45.000Z</time>
      </trkpt>
      <trkpt lat="43.9531" lon="7.27504">
        <ele>568.79998779297</ele>
        <time>2019-03-30T08:57:50.000Z</time>
      </trkpt>
      <trkpt lat="43.95316" lon="7.27505">
        <ele>569.40002441406</ele>
        <time>2019-03-30T08:57:53.000Z</time>
      </trkpt>
      <trkpt lat="43.95322" lon="7.27507">
        <ele>570</ele>
        <time>2019-03-30T08:57:56.000Z</time>
      </trkpt>
      <trkpt lat="43.95327" lon="7.2751">
        <ele>570.59997558594</ele>
        <time>2019-03-30T08:57:59.000Z</time>
      </trkpt>
      <trkpt lat="43.95332" lon="7.27514">
        <ele>571</ele>
        <time>2019-03-30T08:58:02.000Z</time>
      </trkpt>
      <trkpt lat="43.95343" lon="7.27522">
        <ele>572</ele>
        <time>2019-03-30T08:58:08.000Z</time>
      </trkpt>
      <trkpt lat="43.95346" lon="7.27524">
        <ele>572.40002441406</ele>
        <time>2019-03-30T08:58:10.000Z</time>
      </trkpt>
      <trkpt lat="43.95349" lon="7.27526">
        <ele>572.59997558594</ele>
        <time>2019-03-30T08:58:12.000Z</time>
      </trkpt>
      <trkpt lat="43.95354" lon="7.27528">
        <ele>573.20001220703</ele>
        <time>2019-03-30T08:58:15.000Z</time>
      </trkpt>
      <trkpt lat="43.95361" lon="7.27532">
        <ele>574</ele>
        <time>2019-03-30T08:58:19.000Z</time>
      </trkpt>
      <trkpt lat="43.95367" lon="7.27535">
        <ele>574.40002441406</ele>
        <time>2019-03-30T08:58:23.000Z</time>
      </trkpt>
      <trkpt lat="43.95373" lon="7.27538">
        <ele>574.79998779297</ele>
        <time>2019-03-30T08:58:26.000Z</time>
      </trkpt>
      <trkpt lat="43.95379" lon="7.27541">
        <ele>575</ele>
        <time>2019-03-30T08:58:31.000Z</time>
      </trkpt>
      <trkpt lat="43.95381" lon="7.27541">
        <ele>575.20001220703</ele>
        <time>2019-03-30T08:58:32.000Z</time>
      </trkpt>
      <trkpt lat="43.95391" lon="7.27544">
        <ele>575.40002441406</ele>
        <time>2019-03-30T08:58:37.000Z</time>
      </trkpt>
      <trkpt lat="43.95394" lon="7.27544">
        <ele>575.40002441406</ele>
        <time>2019-03-30T08:58:38.000Z</time>
      </trkpt>
      <trkpt lat="43.95413" lon="7.27544">
        <ele>575.79998779297</ele>
        <time>2019-03-30T08:58:45.000Z</time>
      </trkpt>
      <trkpt lat="43.95435" lon="7.27541">
        <ele>576.40002441406</ele>
        <time>2019-03-30T08:58:53.000Z</time>
      </trkpt>
      <trkpt lat="43.95437" lon="7.27539">
        <ele>576.79998779297</ele>
        <time>2019-03-30T08:58:54.000Z</time>
      </trkpt>
      <trkpt lat="43.95449" lon="7.2753">
        <ele>577.59997558594</ele>
        <time>2019-03-30T08:59:00.000Z</time>
      </trkpt>
      <trkpt lat="43.95451" lon="7.27528">
        <ele>577.79998779297</ele>
        <time>2019-03-30T08:59:01.000Z</time>
      </trkpt>
      <trkpt lat="43.95461" lon="7.27521">
        <ele>578.79998779297</ele>
        <time>2019-03-30T08:59:07.000Z</time>
      </trkpt>
      <trkpt lat="43.95469" lon="7.27516">
        <ele>579.79998779297</ele>
        <time>2019-03-30T08:59:12.000Z</time>
      </trkpt>
      <trkpt lat="43.95471" lon="7.27515">
        <ele>580</ele>
        <time>2019-03-30T08:59:13.000Z</time>
      </trkpt>
      <trkpt lat="43.95477" lon="7.27509">
        <ele>580.79998779297</ele>
        <time>2019-03-30T08:59:17.000Z</time>
      </trkpt>
      <trkpt lat="43.95485" lon="7.27501">
        <ele>582</ele>
        <time>2019-03-30T08:59:22.000Z</time>
      </trkpt>
      <trkpt lat="43.95486" lon="7.275">
        <ele>582.20001220703</ele>
        <time>2019-03-30T08:59:23.000Z</time>
      </trkpt>
      <trkpt lat="43.95492" lon="7.27494">
        <ele>583</ele>
        <time>2019-03-30T08:59:27.000Z</time>
      </trkpt>
      <trkpt lat="43.95499" lon="7.27485">
        <ele>584.20001220703</ele>
        <time>2019-03-30T08:59:32.000Z</time>
      </trkpt>
      <trkpt lat="43.95509" lon="7.27475">
        <ele>585.20001220703</ele>
        <time>2019-03-30T08:59:38.000Z</time>
      </trkpt>
      <trkpt lat="43.95514" lon="7.2747">
        <ele>585.79998779297</ele>
        <time>2019-03-30T08:59:41.000Z</time>
      </trkpt>
      <trkpt lat="43.95518" lon="7.27463">
        <ele>586.20001220703</ele>
        <time>2019-03-30T08:59:44.000Z</time>
      </trkpt>
      <trkpt lat="43.95527" lon="7.27449">
        <ele>587</ele>
        <time>2019-03-30T08:59:50.000Z</time>
      </trkpt>
      <trkpt lat="43.95532" lon="7.27442">
        <ele>587.40002441406</ele>
        <time>2019-03-30T08:59:53.000Z</time>
      </trkpt>
      <trkpt lat="43.95539" lon="7.27429">
        <ele>588</ele>
        <time>2019-03-30T08:59:58.000Z</time>
      </trkpt>
      <trkpt lat="43.95542" lon="7.27417">
        <ele>588.40002441406</ele>
        <time>2019-03-30T09:00:02.000Z</time>
      </trkpt>
      <trkpt lat="43.95544" lon="7.27402">
        <ele>589.20001220703</ele>
        <time>2019-03-30T09:00:07.000Z</time>
      </trkpt>
      <trkpt lat="43.95545" lon="7.27396">
        <ele>589.40002441406</ele>
        <time>2019-03-30T09:00:09.000Z</time>
      </trkpt>
      <trkpt lat="43.95551" lon="7.27387">
        <ele>590.20001220703</ele>
        <time>2019-03-30T09:00:13.000Z</time>
      </trkpt>
      <trkpt lat="43.95554" lon="7.27385">
        <ele>590.59997558594</ele>
        <time>2019-03-30T09:00:15.000Z</time>
      </trkpt>
      <trkpt lat="43.95562" lon="7.27378">
        <ele>591.79998779297</ele>
        <time>2019-03-30T09:00:21.000Z</time>
      </trkpt>
      <trkpt lat="43.95569" lon="7.27371">
        <ele>592.79998779297</ele>
        <time>2019-03-30T09:00:27.000Z</time>
      </trkpt>
      <trkpt lat="43.95576" lon="7.27364">
        <ele>593.79998779297</ele>
        <time>2019-03-30T09:00:32.000Z</time>
      </trkpt>
      <trkpt lat="43.95578" lon="7.27363">
        <ele>594</ele>
        <time>2019-03-30T09:00:33.000Z</time>
      </trkpt>
      <trkpt lat="43.95584" lon="7.27358">
        <ele>595</ele>
        <time>2019-03-30T09:00:37.000Z</time>
      </trkpt>
      <trkpt lat="43.95591" lon="7.27353">
        <ele>595.59997558594</ele>
        <time>2019-03-30T09:00:41.000Z</time>
      </trkpt>
      <trkpt lat="43.95599" lon="7.27347">
        <ele>596</ele>
        <time>2019-03-30T09:00:45.000Z</time>
      </trkpt>
      <trkpt lat="43.95601" lon="7.27345">
        <ele>596.20001220703</ele>
        <time>2019-03-30T09:00:46.000Z</time>
      </trkpt>
      <trkpt lat="43.9561" lon="7.27332">
        <ele>597.20001220703</ele>
        <time>2019-03-30T09:00:52.000Z</time>
      </trkpt>
      <trkpt lat="43.9561" lon="7.27329">
        <ele>597.40002441406</ele>
        <time>2019-03-30T09:00:53.000Z</time>
      </trkpt>
      <trkpt lat="43.9561" lon="7.27326">
        <ele>597.59997558594</ele>
        <time>2019-03-30T09:00:54.000Z</time>
      </trkpt>
      <trkpt lat="43.95608" lon="7.27321">
        <ele>598.20001220703</ele>
        <time>2019-03-30T09:00:56.000Z</time>
      </trkpt>
      <trkpt lat="43.95607" lon="7.27319">
        <ele>598.40002441406</ele>
        <time>2019-03-30T09:00:57.000Z</time>
      </trkpt>
      <trkpt lat="43.95601" lon="7.27311">
        <ele>599.20001220703</ele>
        <time>2019-03-30T09:01:01.000Z</time>
      </trkpt>
      <trkpt lat="43.95596" lon="7.27306">
        <ele>599.79998779297</ele>
        <time>2019-03-30T09:01:04.000Z</time>
      </trkpt>
      <trkpt lat="43.95593" lon="7.27303">
        <ele>600.20001220703</ele>
        <time>2019-03-30T09:01:06.000Z</time>
      </trkpt>
      <trkpt lat="43.95588" lon="7.27293">
        <ele>601.20001220703</ele>
        <time>2019-03-30T09:01:11.000Z</time>
      </trkpt>
      <trkpt lat="43.95585" lon="7.27288">
        <ele>601.79998779297</ele>
        <time>2019-03-30T09:01:14.000Z</time>
      </trkpt>
      <trkpt lat="43.95583" lon="7.27283">
        <ele>602.40002441406</ele>
        <time>2019-03-30T09:01:16.000Z</time>
      </trkpt>
      <trkpt lat="43.95577" lon="7.2727">
        <ele>603.40002441406</ele>
        <time>2019-03-30T09:01:22.000Z</time>
      </trkpt>
      <trkpt lat="43.95576" lon="7.27268">
        <ele>603.79998779297</ele>
        <time>2019-03-30T09:01:23.000Z</time>
      </trkpt>
      <trkpt lat="43.95569" lon="7.27259">
        <ele>604.59997558594</ele>
        <time>2019-03-30T09:01:28.000Z</time>
      </trkpt>
      <trkpt lat="43.95565" lon="7.27253">
        <ele>605.20001220703</ele>
        <time>2019-03-30T09:01:31.000Z</time>
      </trkpt>
      <trkpt lat="43.95563" lon="7.27247">
        <ele>605.79998779297</ele>
        <time>2019-03-30T09:01:34.000Z</time>
      </trkpt>
      <trkpt lat="43.95557" lon="7.27233">
        <ele>606.79998779297</ele>
        <time>2019-03-30T09:01:40.000Z</time>
      </trkpt>
      <trkpt lat="43.95552" lon="7.27222">
        <ele>608</ele>
        <time>2019-03-30T09:01:45.000Z</time>
      </trkpt>
      <trkpt lat="43.95548" lon="7.2721">
        <ele>609</ele>
        <time>2019-03-30T09:01:51.000Z</time>
      </trkpt>
      <trkpt lat="43.95544" lon="7.27198">
        <ele>610</ele>
        <time>2019-03-30T09:01:57.000Z</time>
      </trkpt>
      <trkpt lat="43.95543" lon="7.27195">
        <ele>610.20001220703</ele>
        <time>2019-03-30T09:01:58.000Z</time>
      </trkpt>
      <trkpt lat="43.95541" lon="7.2718">
        <ele>611.20001220703</ele>
        <time>2019-03-30T09:02:04.000Z</time>
      </trkpt>
      <trkpt lat="43.95541" lon="7.27177">
        <ele>611.59997558594</ele>
        <time>2019-03-30T09:02:05.000Z</time>
      </trkpt>
      <trkpt lat="43.95543" lon="7.27167">
        <ele>612.20001220703</ele>
        <time>2019-03-30T09:02:09.000Z</time>
      </trkpt>
      <trkpt lat="43.95547" lon="7.27156">
        <ele>612.79998779297</ele>
        <time>2019-03-30T09:02:13.000Z</time>
      </trkpt>
      <trkpt lat="43.95553" lon="7.27148">
        <ele>613.40002441406</ele>
        <time>2019-03-30T09:02:17.000Z</time>
      </trkpt>
      <trkpt lat="43.95556" lon="7.2714">
        <ele>614</ele>
        <time>2019-03-30T09:02:21.000Z</time>
      </trkpt>
      <trkpt lat="43.95561" lon="7.27132">
        <ele>614.40002441406</ele>
        <time>2019-03-30T09:02:25.000Z</time>
      </trkpt>
      <trkpt lat="43.95565" lon="7.27124">
        <ele>614.79998779297</ele>
        <time>2019-03-30T09:02:28.000Z</time>
      </trkpt>
      <trkpt lat="43.95577" lon="7.27105">
        <ele>615.59997558594</ele>
        <time>2019-03-30T09:02:35.000Z</time>
      </trkpt>
      <trkpt lat="43.95579" lon="7.27103">
        <ele>615.79998779297</ele>
        <time>2019-03-30T09:02:36.000Z</time>
      </trkpt>
      <trkpt lat="43.95587" lon="7.27093">
        <ele>616.59997558594</ele>
        <time>2019-03-30T09:02:41.000Z</time>
      </trkpt>
      <trkpt lat="43.95596" lon="7.27088">
        <ele>617.40002441406</ele>
        <time>2019-03-30T09:02:45.000Z</time>
      </trkpt>
      <trkpt lat="43.95602" lon="7.27086">
        <ele>617.79998779297</ele>
        <time>2019-03-30T09:02:48.000Z</time>
      </trkpt>
      <trkpt lat="43.95613" lon="7.27088">
        <ele>618.40002441406</ele>
        <time>2019-03-30T09:02:52.000Z</time>
      </trkpt>
      <trkpt lat="43.95617" lon="7.27089">
        <ele>618.79998779297</ele>
        <time>2019-03-30T09:02:54.000Z</time>
      </trkpt>
      <trkpt lat="43.95631" lon="7.27088">
        <ele>619.79998779297</ele>
        <time>2019-03-30T09:03:00.000Z</time>
      </trkpt>
      <trkpt lat="43.95634" lon="7.27087">
        <ele>620</ele>
        <time>2019-03-30T09:03:01.000Z</time>
      </trkpt>
      <trkpt lat="43.95649" lon="7.27079">
        <ele>620.59997558594</ele>
        <time>2019-03-30T09:03:08.000Z</time>
      </trkpt>
      <trkpt lat="43.95655" lon="7.27076">
        <ele>621</ele>
        <time>2019-03-30T09:03:11.000Z</time>
      </trkpt>
      <trkpt lat="43.95668" lon="7.27072">
        <ele>622</ele>
        <time>2019-03-30T09:03:17.000Z</time>
      </trkpt>
      <trkpt lat="43.95682" lon="7.27069">
        <ele>623.20001220703</ele>
        <time>2019-03-30T09:03:23.000Z</time>
      </trkpt>
      <trkpt lat="43.95687" lon="7.27067">
        <ele>623.40002441406</ele>
        <time>2019-03-30T09:03:25.000Z</time>
      </trkpt>
      <trkpt lat="43.95702" lon="7.27061">
        <ele>624.40002441406</ele>
        <time>2019-03-30T09:03:32.000Z</time>
      </trkpt>
      <trkpt lat="43.95706" lon="7.2706">
        <ele>624.59997558594</ele>
        <time>2019-03-30T09:03:34.000Z</time>
      </trkpt>
      <trkpt lat="43.95719" lon="7.27054">
        <ele>625.40002441406</ele>
        <time>2019-03-30T09:03:40.000Z</time>
      </trkpt>
      <trkpt lat="43.95723" lon="7.27056">
        <ele>625.79998779297</ele>
        <time>2019-03-30T09:03:42.000Z</time>
      </trkpt>
      <trkpt lat="43.95723" lon="7.27065">
        <ele>626.79998779297</ele>
        <time>2019-03-30T09:03:46.000Z</time>
      </trkpt>
      <trkpt lat="43.9572" lon="7.2707">
        <ele>627.40002441406</ele>
        <time>2019-03-30T09:03:49.000Z</time>
      </trkpt>
      <trkpt lat="43.95716" lon="7.27076">
        <ele>627.79998779297</ele>
        <time>2019-03-30T09:03:53.000Z</time>
      </trkpt>
      <trkpt lat="43.95716" lon="7.27077">
        <ele>627.79998779297</ele>
        <time>2019-03-30T09:03:54.000Z</time>
      </trkpt>
      <trkpt lat="43.95715" lon="7.27079">
        <ele>628</ele>
        <time>2019-03-30T09:03:55.000Z</time>
      </trkpt>
      <trkpt lat="43.95714" lon="7.2708">
        <ele>628.20001220703</ele>
        <time>2019-03-30T09:04:00.000Z</time>
      </trkpt>
      <trkpt lat="43.95718" lon="7.27079">
        <ele>628.20001220703</ele>
        <time>2019-03-30T09:04:06.000Z</time>
      </trkpt>
      <trkpt lat="43.95724" lon="7.27075">
        <ele>628.79998779297</ele>
        <time>2019-03-30T09:04:11.000Z</time>
      </trkpt>
      <trkpt lat="43.95726" lon="7.27072">
        <ele>629.20001220703</ele>
        <time>2019-03-30T09:04:13.000Z</time>
      </trkpt>
      <trkpt lat="43.95733" lon="7.27066">
        <ele>630</ele>
        <time>2019-03-30T09:04:18.000Z</time>
      </trkpt>
      <trkpt lat="43.95738" lon="7.27062">
        <ele>630.79998779297</ele>
        <time>2019-03-30T09:04:21.000Z</time>
      </trkpt>
      <trkpt lat="43.9574" lon="7.27061">
        <ele>631</ele>
        <time>2019-03-30T09:04:22.000Z</time>
      </trkpt>
      <trkpt lat="43.95745" lon="7.27055">
        <ele>632</ele>
        <time>2019-03-30T09:04:26.000Z</time>
      </trkpt>
      <trkpt lat="43.95749" lon="7.27053">
        <ele>632.40002441406</ele>
        <time>2019-03-30T09:04:28.000Z</time>
      </trkpt>
      <trkpt lat="43.95753" lon="7.2705">
        <ele>633.20001220703</ele>
        <time>2019-03-30T09:04:31.000Z</time>
      </trkpt>
      <trkpt lat="43.9576" lon="7.27046">
        <ele>634.20001220703</ele>
        <time>2019-03-30T09:04:35.000Z</time>
      </trkpt>
      <trkpt lat="43.95762" lon="7.27045">
        <ele>634.59997558594</ele>
        <time>2019-03-30T09:04:36.000Z</time>
      </trkpt>
      <trkpt lat="43.95766" lon="7.27042">
        <ele>635.59997558594</ele>
        <time>2019-03-30T09:04:39.000Z</time>
      </trkpt>
      <trkpt lat="43.95774" lon="7.27036">
        <ele>636.59997558594</ele>
        <time>2019-03-30T09:04:44.000Z</time>
      </trkpt>
      <trkpt lat="43.95776" lon="7.27034">
        <ele>636.79998779297</ele>
        <time>2019-03-30T09:04:45.000Z</time>
      </trkpt>
      <trkpt lat="43.95785" lon="7.27021">
        <ele>637.79998779297</ele>
        <time>2019-03-30T09:04:52.000Z</time>
      </trkpt>
      <trkpt lat="43.95787" lon="7.27019">
        <ele>638.20001220703</ele>
        <time>2019-03-30T09:04:53.000Z</time>
      </trkpt>
      <trkpt lat="43.9579" lon="7.27014">
        <ele>639</ele>
        <time>2019-03-30T09:04:56.000Z</time>
      </trkpt>
      <trkpt lat="43.95797" lon="7.27006">
        <ele>640</ele>
        <time>2019-03-30T09:05:01.000Z</time>
      </trkpt>
      <trkpt lat="43.95804" lon="7.26999">
        <ele>641</ele>
        <time>2019-03-30T09:05:06.000Z</time>
      </trkpt>
      <trkpt lat="43.95809" lon="7.26995">
        <ele>641.40002441406</ele>
        <time>2019-03-30T09:05:09.000Z</time>
      </trkpt>
      <trkpt lat="43.95817" lon="7.2699">
        <ele>642.20001220703</ele>
        <time>2019-03-30T09:05:14.000Z</time>
      </trkpt>
      <trkpt lat="43.95821" lon="7.26988">
        <ele>643</ele>
        <time>2019-03-30T09:05:17.000Z</time>
      </trkpt>
      <trkpt lat="43.95823" lon="7.26987">
        <ele>643.20001220703</ele>
        <time>2019-03-30T09:05:18.000Z</time>
      </trkpt>
      <trkpt lat="43.95831" lon="7.26982">
        <ele>644.20001220703</ele>
        <time>2019-03-30T09:05:24.000Z</time>
      </trkpt>
      <trkpt lat="43.95835" lon="7.26979">
        <ele>644.40002441406</ele>
        <time>2019-03-30T09:05:27.000Z</time>
      </trkpt>
      <trkpt lat="43.9584" lon="7.26976">
        <ele>645</ele>
        <time>2019-03-30T09:05:30.000Z</time>
      </trkpt>
      <trkpt lat="43.95845" lon="7.26972">
        <ele>645.59997558594</ele>
        <time>2019-03-30T09:05:33.000Z</time>
      </trkpt>
      <trkpt lat="43.9585" lon="7.26968">
        <ele>646.40002441406</ele>
        <time>2019-03-30T09:05:37.000Z</time>
      </trkpt>
      <trkpt lat="43.95852" lon="7.26967">
        <ele>646.59997558594</ele>
        <time>2019-03-30T09:05:38.000Z</time>
      </trkpt>
      <trkpt lat="43.95857" lon="7.26963">
        <ele>647.40002441406</ele>
        <time>2019-03-30T09:05:42.000Z</time>
      </trkpt>
      <trkpt lat="43.9586" lon="7.26961">
        <ele>647.79998779297</ele>
        <time>2019-03-30T09:05:44.000Z</time>
      </trkpt>
      <trkpt lat="43.95865" lon="7.26958">
        <ele>648.40002441406</ele>
        <time>2019-03-30T09:05:48.000Z</time>
      </trkpt>
      <trkpt lat="43.95868" lon="7.26957">
        <ele>648.79998779297</ele>
        <time>2019-03-30T09:05:50.000Z</time>
      </trkpt>
      <trkpt lat="43.95874" lon="7.26956">
        <ele>649.59997558594</ele>
        <time>2019-03-30T09:05:54.000Z</time>
      </trkpt>
      <trkpt lat="43.95877" lon="7.26956">
        <ele>650.20001220703</ele>
        <time>2019-03-30T09:05:56.000Z</time>
      </trkpt>
      <trkpt lat="43.95882" lon="7.26952">
        <ele>651.20001220703</ele>
        <time>2019-03-30T09:06:00.000Z</time>
      </trkpt>
      <trkpt lat="43.95886" lon="7.2695">
        <ele>651.79998779297</ele>
        <time>2019-03-30T09:06:03.000Z</time>
      </trkpt>
      <trkpt lat="43.95888" lon="7.26949">
        <ele>652.20001220703</ele>
        <time>2019-03-30T09:06:05.000Z</time>
      </trkpt>
      <trkpt lat="43.95889" lon="7.26949">
        <ele>652.40002441406</ele>
        <time>2019-03-30T09:06:06.000Z</time>
      </trkpt>
      <trkpt lat="43.95895" lon="7.26947">
        <ele>653.40002441406</ele>
        <time>2019-03-30T09:06:10.000Z</time>
      </trkpt>
      <trkpt lat="43.95896" lon="7.26946">
        <ele>653.59997558594</ele>
        <time>2019-03-30T09:06:11.000Z</time>
      </trkpt>
      <trkpt lat="43.95897" lon="7.26946">
        <ele>653.79998779297</ele>
        <time>2019-03-30T09:06:12.000Z</time>
      </trkpt>
      <trkpt lat="43.95901" lon="7.26943">
        <ele>654.40002441406</ele>
        <time>2019-03-30T09:06:15.000Z</time>
      </trkpt>
      <trkpt lat="43.95906" lon="7.26939">
        <ele>654.79998779297</ele>
        <time>2019-03-30T09:06:18.000Z</time>
      </trkpt>
      <trkpt lat="43.9591" lon="7.26935">
        <ele>655.40002441406</ele>
        <time>2019-03-30T09:06:21.000Z</time>
      </trkpt>
      <trkpt lat="43.95911" lon="7.26935">
        <ele>655.79998779297</ele>
        <time>2019-03-30T09:06:22.000Z</time>
      </trkpt>
      <trkpt lat="43.95916" lon="7.2693">
        <ele>656.79998779297</ele>
        <time>2019-03-30T09:06:26.000Z</time>
      </trkpt>
      <trkpt lat="43.95918" lon="7.26929">
        <ele>657</ele>
        <time>2019-03-30T09:06:27.000Z</time>
      </trkpt>
      <trkpt lat="43.95922" lon="7.26922">
        <ele>658</ele>
        <time>2019-03-30T09:06:32.000Z</time>
      </trkpt>
      <trkpt lat="43.95923" lon="7.26921">
        <ele>658.20001220703</ele>
        <time>2019-03-30T09:06:33.000Z</time>
      </trkpt>
      <trkpt lat="43.95928" lon="7.26915">
        <ele>659.20001220703</ele>
        <time>2019-03-30T09:06:38.000Z</time>
      </trkpt>
      <trkpt lat="43.95929" lon="7.26913">
        <ele>659.40002441406</ele>
        <time>2019-03-30T09:06:39.000Z</time>
      </trkpt>
      <trkpt lat="43.95935" lon="7.26906">
        <ele>660.20001220703</ele>
        <time>2019-03-30T09:06:45.000Z</time>
      </trkpt>
      <trkpt lat="43.95935" lon="7.26905">
        <ele>660.40002441406</ele>
        <time>2019-03-30T09:06:46.000Z</time>
      </trkpt>
      <trkpt lat="43.95939" lon="7.26899">
        <ele>661</ele>
        <time>2019-03-30T09:06:50.000Z</time>
      </trkpt>
      <trkpt lat="43.9594" lon="7.26899">
        <ele>661.20001220703</ele>
        <time>2019-03-30T09:06:51.000Z</time>
      </trkpt>
      <trkpt lat="43.95942" lon="7.26896">
        <ele>661.40002441406</ele>
        <time>2019-03-30T09:06:53.000Z</time>
      </trkpt>
      <trkpt lat="43.95945" lon="7.26894">
        <ele>661.79998779297</ele>
        <time>2019-03-30T09:06:55.000Z</time>
      </trkpt>
      <trkpt lat="43.95949" lon="7.26889">
        <ele>662.59997558594</ele>
        <time>2019-03-30T09:06:59.000Z</time>
      </trkpt>
      <trkpt lat="43.9595" lon="7.26887">
        <ele>662.79998779297</ele>
        <time>2019-03-30T09:07:00.000Z</time>
      </trkpt>
      <trkpt lat="43.95953" lon="7.26884">
        <ele>663.59997558594</ele>
        <time>2019-03-30T09:07:03.000Z</time>
      </trkpt>
      <trkpt lat="43.95957" lon="7.2688">
        <ele>664.79998779297</ele>
        <time>2019-03-30T09:07:07.000Z</time>
      </trkpt>
      <trkpt lat="43.95963" lon="7.26878">
        <ele>665.79998779297</ele>
        <time>2019-03-30T09:07:12.000Z</time>
      </trkpt>
      <trkpt lat="43.95965" lon="7.26878">
        <ele>666.20001220703</ele>
        <time>2019-03-30T09:07:14.000Z</time>
      </trkpt>
      <trkpt lat="43.95971" lon="7.26877">
        <ele>667</ele>
        <time>2019-03-30T09:07:18.000Z</time>
      </trkpt>
      <trkpt lat="43.95976" lon="7.26877">
        <ele>667.79998779297</ele>
        <time>2019-03-30T09:07:22.000Z</time>
      </trkpt>
      <trkpt lat="43.95979" lon="7.26877">
        <ele>668</ele>
        <time>2019-03-30T09:07:24.000Z</time>
      </trkpt>
      <trkpt lat="43.95985" lon="7.2688">
        <ele>668.59997558594</ele>
        <time>2019-03-30T09:07:28.000Z</time>
      </trkpt>
      <trkpt lat="43.95987" lon="7.26882">
        <ele>669</ele>
        <time>2019-03-30T09:07:30.000Z</time>
      </trkpt>
      <trkpt lat="43.95988" lon="7.26886">
        <ele>669.79998779297</ele>
        <time>2019-03-30T09:07:33.000Z</time>
      </trkpt>
      <trkpt lat="43.95988" lon="7.26888">
        <ele>670</ele>
        <time>2019-03-30T09:07:34.000Z</time>
      </trkpt>
      <trkpt lat="43.9599" lon="7.26895">
        <ele>671</ele>
        <time>2019-03-30T09:07:39.000Z</time>
      </trkpt>
      <trkpt lat="43.95991" lon="7.26896">
        <ele>671.20001220703</ele>
        <time>2019-03-30T09:07:40.000Z</time>
      </trkpt>
      <trkpt lat="43.95992" lon="7.269">
        <ele>671.79998779297</ele>
        <time>2019-03-30T09:07:43.000Z</time>
      </trkpt>
      <trkpt lat="43.95993" lon="7.26902">
        <ele>672</ele>
        <time>2019-03-30T09:07:44.000Z</time>
      </trkpt>
      <trkpt lat="43.95994" lon="7.26904">
        <ele>672.20001220703</ele>
        <time>2019-03-30T09:07:46.000Z</time>
      </trkpt>
      <trkpt lat="43.95997" lon="7.26908">
        <ele>672.79998779297</ele>
        <time>2019-03-30T09:07:49.000Z</time>
      </trkpt>
      <trkpt lat="43.96" lon="7.26912">
        <ele>673.40002441406</ele>
        <time>2019-03-30T09:07:52.000Z</time>
      </trkpt>
      <trkpt lat="43.96001" lon="7.26916">
        <ele>673.79998779297</ele>
        <time>2019-03-30T09:07:54.000Z</time>
      </trkpt>
      <trkpt lat="43.96002" lon="7.26918">
        <ele>674.59997558594</ele>
        <time>2019-03-30T09:07:56.000Z</time>
      </trkpt>
      <trkpt lat="43.96005" lon="7.26923">
        <ele>675.59997558594</ele>
        <time>2019-03-30T09:08:00.000Z</time>
      </trkpt>
      <trkpt lat="43.96006" lon="7.26933">
        <ele>676.40002441406</ele>
        <time>2019-03-30T09:08:06.000Z</time>
      </trkpt>
      <trkpt lat="43.96006" lon="7.26934">
        <ele>676.59997558594</ele>
        <time>2019-03-30T09:08:07.000Z</time>
      </trkpt>
      <trkpt lat="43.96006" lon="7.26937">
        <ele>676.79998779297</ele>
        <time>2019-03-30T09:08:09.000Z</time>
      </trkpt>
      <trkpt lat="43.9601" lon="7.26944">
        <ele>677.59997558594</ele>
        <time>2019-03-30T09:08:14.000Z</time>
      </trkpt>
      <trkpt lat="43.96012" lon="7.26945">
        <ele>677.79998779297</ele>
        <time>2019-03-30T09:08:15.000Z</time>
      </trkpt>
      <trkpt lat="43.96016" lon="7.26951">
        <ele>678.79998779297</ele>
        <time>2019-03-30T09:08:20.000Z</time>
      </trkpt>
      <trkpt lat="43.96018" lon="7.26951">
        <ele>678.79998779297</ele>
        <time>2019-03-30T09:08:21.000Z</time>
      </trkpt>
      <trkpt lat="43.96021" lon="7.26953">
        <ele>679.20001220703</ele>
        <time>2019-03-30T09:08:24.000Z</time>
      </trkpt>
      <trkpt lat="43.9602" lon="7.26953">
        <ele>679.40002441406</ele>
        <time>2019-03-30T09:08:25.000Z</time>
      </trkpt>
      <trkpt lat="43.96026" lon="7.26956">
        <ele>680</ele>
        <time>2019-03-30T09:08:29.000Z</time>
      </trkpt>
      <trkpt lat="43.96028" lon="7.26958">
        <ele>680.59997558594</ele>
        <time>2019-03-30T09:08:31.000Z</time>
      </trkpt>
      <trkpt lat="43.96029" lon="7.26961">
        <ele>681.20001220703</ele>
        <time>2019-03-30T09:08:34.000Z</time>
      </trkpt>
      <trkpt lat="43.96032" lon="7.26963">
        <ele>681.40002441406</ele>
        <time>2019-03-30T09:08:36.000Z</time>
      </trkpt>
      <trkpt lat="43.96034" lon="7.26966">
        <ele>681.79998779297</ele>
        <time>2019-03-30T09:08:38.000Z</time>
      </trkpt>
      <trkpt lat="43.96034" lon="7.26965">
        <ele>682.40002441406</ele>
        <time>2019-03-30T09:08:40.000Z</time>
      </trkpt>
      <trkpt lat="43.96034" lon="7.26965">
        <ele>682.59997558594</ele>
        <time>2019-03-30T09:08:41.000Z</time>
      </trkpt>
      <trkpt lat="43.96036" lon="7.26965">
        <ele>682.40002441406</ele>
        <time>2019-03-30T09:08:48.000Z</time>
      </trkpt>
      <trkpt lat="43.96042" lon="7.26967">
        <ele>683.40002441406</ele>
        <time>2019-03-30T09:08:55.000Z</time>
      </trkpt>
      <trkpt lat="43.96041" lon="7.26967">
        <ele>683.59997558594</ele>
        <time>2019-03-30T09:08:56.000Z</time>
      </trkpt>
      <trkpt lat="43.96048" lon="7.26969">
        <ele>684.40002441406</ele>
        <time>2019-03-30T09:09:03.000Z</time>
      </trkpt>
      <trkpt lat="43.96048" lon="7.26969">
        <ele>684.59997558594</ele>
        <time>2019-03-30T09:09:04.000Z</time>
      </trkpt>
      <trkpt lat="43.9605" lon="7.26969">
        <ele>685</ele>
        <time>2019-03-30T09:09:10.000Z</time>
      </trkpt>
      <trkpt lat="43.96049" lon="7.26969">
        <ele>684.20001220703</ele>
        <time>2019-03-30T09:09:17.000Z</time>
      </trkpt>
      <trkpt lat="43.96049" lon="7.26969">
        <ele>683.79998779297</ele>
        <time>2019-03-30T09:09:30.000Z</time>
      </trkpt>
      <trkpt lat="43.9605" lon="7.2697">
        <ele>683.79998779297</ele>
        <time>2019-03-30T09:09:44.000Z</time>
      </trkpt>
      <trkpt lat="43.96052" lon="7.2697">
        <ele>684</ele>
        <time>2019-03-30T09:09:52.000Z</time>
      </trkpt>
      <trkpt lat="43.96053" lon="7.2697">
        <ele>684.40002441406</ele>
        <time>2019-03-30T09:09:58.000Z</time>
      </trkpt>
      <trkpt lat="43.96055" lon="7.2697">
        <ele>685</ele>
        <time>2019-03-30T09:10:04.000Z</time>
      </trkpt>
      <trkpt lat="43.96056" lon="7.2697">
        <ele>685.59997558594</ele>
        <time>2019-03-30T09:10:09.000Z</time>
      </trkpt>
      <trkpt lat="43.96056" lon="7.2697">
        <ele>685.79998779297</ele>
        <time>2019-03-30T09:10:12.000Z</time>
      </trkpt>
      <trkpt lat="43.96057" lon="7.26969">
        <ele>686.40002441406</ele>
        <time>2019-03-30T09:10:19.000Z</time>
      </trkpt>
      <trkpt lat="43.96057" lon="7.26969">
        <ele>686.79998779297</ele>
        <time>2019-03-30T09:10:21.000Z</time>
      </trkpt>
      <trkpt lat="43.9606" lon="7.26967">
        <ele>687.40002441406</ele>
        <time>2019-03-30T09:10:26.000Z</time>
      </trkpt>
      <trkpt lat="43.96062" lon="7.26969">
        <ele>687.79998779297</ele>
        <time>2019-03-30T09:10:31.000Z</time>
      </trkpt>
      <trkpt lat="43.96062" lon="7.26969">
        <ele>688</ele>
        <time>2019-03-30T09:10:32.000Z</time>
      </trkpt>
      <trkpt lat="43.96061" lon="7.26968">
        <ele>688.40002441406</ele>
        <time>2019-03-30T09:10:41.000Z</time>
      </trkpt>
      <trkpt lat="43.96061" lon="7.26969">
        <ele>688.40002441406</ele>
        <time>2019-03-30T09:10:51.000Z</time>
      </trkpt>
      <trkpt lat="43.96063" lon="7.26968">
        <ele>688</ele>
        <time>2019-03-30T09:10:58.000Z</time>
      </trkpt>
      <trkpt lat="43.96067" lon="7.26968">
        <ele>688.59997558594</ele>
        <time>2019-03-30T09:11:04.000Z</time>
      </trkpt>
      <trkpt lat="43.96068" lon="7.26968">
        <ele>688.79998779297</ele>
        <time>2019-03-30T09:11:06.000Z</time>
      </trkpt>
      <trkpt lat="43.96075" lon="7.26967">
        <ele>689.20001220703</ele>
        <time>2019-03-30T09:11:11.000Z</time>
      </trkpt>
      <trkpt lat="43.9608" lon="7.26968">
        <ele>690</ele>
        <time>2019-03-30T09:11:14.000Z</time>
      </trkpt>
      <trkpt lat="43.96084" lon="7.26968">
        <ele>691</ele>
        <time>2019-03-30T09:11:17.000Z</time>
      </trkpt>
      <trkpt lat="43.96087" lon="7.26969">
        <ele>692</ele>
        <time>2019-03-30T09:11:20.000Z</time>
      </trkpt>
      <trkpt lat="43.9609" lon="7.26971">
        <ele>692.59997558594</ele>
        <time>2019-03-30T09:11:22.000Z</time>
      </trkpt>
      <trkpt lat="43.96092" lon="7.26974">
        <ele>693.20001220703</ele>
        <time>2019-03-30T09:11:25.000Z</time>
      </trkpt>
      <trkpt lat="43.96095" lon="7.26976">
        <ele>693.59997558594</ele>
        <time>2019-03-30T09:11:27.000Z</time>
      </trkpt>
      <trkpt lat="43.96098" lon="7.26978">
        <ele>694.20001220703</ele>
        <time>2019-03-30T09:11:29.000Z</time>
      </trkpt>
      <trkpt lat="43.96106" lon="7.26979">
        <ele>695.40002441406</ele>
        <time>2019-03-30T09:11:34.000Z</time>
      </trkpt>
      <trkpt lat="43.9611" lon="7.2698">
        <ele>696</ele>
        <time>2019-03-30T09:11:37.000Z</time>
      </trkpt>
      <trkpt lat="43.96111" lon="7.26982">
        <ele>696.59997558594</ele>
        <time>2019-03-30T09:11:39.000Z</time>
      </trkpt>
      <trkpt lat="43.96111" lon="7.26983">
        <ele>697.59997558594</ele>
        <time>2019-03-30T09:11:43.000Z</time>
      </trkpt>
      <trkpt lat="43.96111" lon="7.26984">
        <ele>697.79998779297</ele>
        <time>2019-03-30T09:11:45.000Z</time>
      </trkpt>
      <trkpt lat="43.96115" lon="7.26991">
        <ele>698.20001220703</ele>
        <time>2019-03-30T09:11:52.000Z</time>
      </trkpt>
      <trkpt lat="43.96119" lon="7.26992">
        <ele>698.79998779297</ele>
        <time>2019-03-30T09:11:56.000Z</time>
      </trkpt>
      <trkpt lat="43.96119" lon="7.26993">
        <ele>698.79998779297</ele>
        <time>2019-03-30T09:11:57.000Z</time>
      </trkpt>
      <trkpt lat="43.96121" lon="7.26994">
        <ele>699.20001220703</ele>
        <time>2019-03-30T09:11:59.000Z</time>
      </trkpt>
      <trkpt lat="43.96123" lon="7.26993">
        <ele>699.79998779297</ele>
        <time>2019-03-30T09:12:01.000Z</time>
      </trkpt>
      <trkpt lat="43.96126" lon="7.26995">
        <ele>700.40002441406</ele>
        <time>2019-03-30T09:12:05.000Z</time>
      </trkpt>
      <trkpt lat="43.96129" lon="7.26996">
        <ele>700.79998779297</ele>
        <time>2019-03-30T09:12:08.000Z</time>
      </trkpt>
      <trkpt lat="43.96132" lon="7.26996">
        <ele>701.20001220703</ele>
        <time>2019-03-30T09:12:11.000Z</time>
      </trkpt>
      <trkpt lat="43.96141" lon="7.26991">
        <ele>702</ele>
        <time>2019-03-30T09:12:17.000Z</time>
      </trkpt>
      <trkpt lat="43.96144" lon="7.26988">
        <ele>702.40002441406</ele>
        <time>2019-03-30T09:12:19.000Z</time>
      </trkpt>
      <trkpt lat="43.96147" lon="7.26984">
        <ele>703.20001220703</ele>
        <time>2019-03-30T09:12:22.000Z</time>
      </trkpt>
      <trkpt lat="43.96151" lon="7.26975">
        <ele>704</ele>
        <time>2019-03-30T09:12:27.000Z</time>
      </trkpt>
      <trkpt lat="43.96156" lon="7.26965">
        <ele>704.20001220703</ele>
        <time>2019-03-30T09:12:31.000Z</time>
      </trkpt>
      <trkpt lat="43.96161" lon="7.26959">
        <ele>704.59997558594</ele>
        <time>2019-03-30T09:12:35.000Z</time>
      </trkpt>
      <trkpt lat="43.96176" lon="7.26951">
        <ele>705</ele>
        <time>2019-03-30T09:12:43.000Z</time>
      </trkpt>
      <trkpt lat="43.96184" lon="7.26944">
        <ele>705.20001220703</ele>
        <time>2019-03-30T09:12:48.000Z</time>
      </trkpt>
      <trkpt lat="43.96185" lon="7.26942">
        <ele>705.40002441406</ele>
        <time>2019-03-30T09:12:49.000Z</time>
      </trkpt>
      <trkpt lat="43.96193" lon="7.26937">
        <ele>706.59997558594</ele>
        <time>2019-03-30T09:12:54.000Z</time>
      </trkpt>
      <trkpt lat="43.96194" lon="7.26936">
        <ele>707</ele>
        <time>2019-03-30T09:12:55.000Z</time>
      </trkpt>
      <trkpt lat="43.96199" lon="7.26935">
        <ele>707.59997558594</ele>
        <time>2019-03-30T09:12:58.000Z</time>
      </trkpt>
      <trkpt lat="43.96203" lon="7.26934">
        <ele>708.59997558594</ele>
        <time>2019-03-30T09:13:02.000Z</time>
      </trkpt>
      <trkpt lat="43.96204" lon="7.26933">
        <ele>708.79998779297</ele>
        <time>2019-03-30T09:13:03.000Z</time>
      </trkpt>
      <trkpt lat="43.96208" lon="7.26931">
        <ele>709.20001220703</ele>
        <time>2019-03-30T09:13:06.000Z</time>
      </trkpt>
      <trkpt lat="43.96213" lon="7.26928">
        <ele>709.79998779297</ele>
        <time>2019-03-30T09:13:09.000Z</time>
      </trkpt>
      <trkpt lat="43.96218" lon="7.26921">
        <ele>710.40002441406</ele>
        <time>2019-03-30T09:13:13.000Z</time>
      </trkpt>
      <trkpt lat="43.96224" lon="7.26913">
        <ele>710.79998779297</ele>
        <time>2019-03-30T09:13:18.000Z</time>
      </trkpt>
      <trkpt lat="43.9623" lon="7.26907">
        <ele>711.20001220703</ele>
        <time>2019-03-30T09:13:22.000Z</time>
      </trkpt>
      <trkpt lat="43.96238" lon="7.269">
        <ele>711.79998779297</ele>
        <time>2019-03-30T09:13:27.000Z</time>
      </trkpt>
      <trkpt lat="43.96243" lon="7.26895">
        <ele>712.20001220703</ele>
        <time>2019-03-30T09:13:30.000Z</time>
      </trkpt>
      <trkpt lat="43.9625" lon="7.26889">
        <ele>713</ele>
        <time>2019-03-30T09:13:35.000Z</time>
      </trkpt>
      <trkpt lat="43.96257" lon="7.26885">
        <ele>713.40002441406</ele>
        <time>2019-03-30T09:13:38.000Z</time>
      </trkpt>
      <trkpt lat="43.96262" lon="7.2688">
        <ele>714.20001220703</ele>
        <time>2019-03-30T09:13:41.000Z</time>
      </trkpt>
      <trkpt lat="43.96265" lon="7.26878">
        <ele>714.79998779297</ele>
        <time>2019-03-30T09:13:43.000Z</time>
      </trkpt>
      <trkpt lat="43.96268" lon="7.26875">
        <ele>715.59997558594</ele>
        <time>2019-03-30T09:13:45.000Z</time>
      </trkpt>
      <trkpt lat="43.96273" lon="7.26869">
        <ele>716.79998779297</ele>
        <time>2019-03-30T09:13:49.000Z</time>
      </trkpt>
      <trkpt lat="43.96278" lon="7.2686">
        <ele>717.79998779297</ele>
        <time>2019-03-30T09:13:54.000Z</time>
      </trkpt>
      <trkpt lat="43.96279" lon="7.26858">
        <ele>717.79998779297</ele>
        <time>2019-03-30T09:13:55.000Z</time>
      </trkpt>
      <trkpt lat="43.96285" lon="7.26846">
        <ele>718.59997558594</ele>
        <time>2019-03-30T09:14:01.000Z</time>
      </trkpt>
      <trkpt lat="43.96286" lon="7.26844">
        <ele>718.79998779297</ele>
        <time>2019-03-30T09:14:02.000Z</time>
      </trkpt>
      <trkpt lat="43.96293" lon="7.26833">
        <ele>720</ele>
        <time>2019-03-30T09:14:08.000Z</time>
      </trkpt>
      <trkpt lat="43.963" lon="7.26829">
        <ele>721.20001220703</ele>
        <time>2019-03-30T09:14:12.000Z</time>
      </trkpt>
      <trkpt lat="43.96305" lon="7.26826">
        <ele>721.40002441406</ele>
        <time>2019-03-30T09:14:15.000Z</time>
      </trkpt>
      <trkpt lat="43.96312" lon="7.26823">
        <ele>722.20001220703</ele>
        <time>2019-03-30T09:14:20.000Z</time>
      </trkpt>
      <trkpt lat="43.96312" lon="7.26823">
        <ele>722.40002441406</ele>
        <time>2019-03-30T09:14:21.000Z</time>
      </trkpt>
      <trkpt lat="43.96319" lon="7.26824">
        <ele>723.20001220703</ele>
        <time>2019-03-30T09:14:26.000Z</time>
      </trkpt>
      <trkpt lat="43.96331" lon="7.26822">
        <ele>724.20001220703</ele>
        <time>2019-03-30T09:14:33.000Z</time>
      </trkpt>
      <trkpt lat="43.96332" lon="7.26822">
        <ele>724.40002441406</ele>
        <time>2019-03-30T09:14:34.000Z</time>
      </trkpt>
      <trkpt lat="43.96341" lon="7.2682">
        <ele>724.59997558594</ele>
        <time>2019-03-30T09:14:39.000Z</time>
      </trkpt>
      <trkpt lat="43.9635" lon="7.26815">
        <ele>724.79998779297</ele>
        <time>2019-03-30T09:14:44.000Z</time>
      </trkpt>
      <trkpt lat="43.96352" lon="7.26815">
        <ele>724.79998779297</ele>
        <time>2019-03-30T09:14:45.000Z</time>
      </trkpt>
      <trkpt lat="43.96366" lon="7.2681">
        <ele>725.20001220703</ele>
        <time>2019-03-30T09:14:53.000Z</time>
      </trkpt>
      <trkpt lat="43.96369" lon="7.26808">
        <ele>725.40002441406</ele>
        <time>2019-03-30T09:14:55.000Z</time>
      </trkpt>
      <trkpt lat="43.96375" lon="7.26804">
        <ele>726.40002441406</ele>
        <time>2019-03-30T09:14:59.000Z</time>
      </trkpt>
      <trkpt lat="43.96377" lon="7.26803">
        <ele>726.59997558594</ele>
        <time>2019-03-30T09:15:00.000Z</time>
      </trkpt>
      <trkpt lat="43.96384" lon="7.26798">
        <ele>727.59997558594</ele>
        <time>2019-03-30T09:15:05.000Z</time>
      </trkpt>
      <trkpt lat="43.96393" lon="7.26798">
        <ele>728.20001220703</ele>
        <time>2019-03-30T09:15:11.000Z</time>
      </trkpt>
      <trkpt lat="43.96395" lon="7.26798">
        <ele>728.20001220703</ele>
        <time>2019-03-30T09:15:12.000Z</time>
      </trkpt>
      <trkpt lat="43.96403" lon="7.268">
        <ele>728.59997558594</ele>
        <time>2019-03-30T09:15:16.000Z</time>
      </trkpt>
      <trkpt lat="43.96408" lon="7.26801">
        <ele>728.79998779297</ele>
        <time>2019-03-30T09:15:18.000Z</time>
      </trkpt>
      <trkpt lat="43.96409" lon="7.26803">
        <ele>729</ele>
        <time>2019-03-30T09:15:19.000Z</time>
      </trkpt>
      <trkpt lat="43.96414" lon="7.26806">
        <ele>729</ele>
        <time>2019-03-30T09:15:22.000Z</time>
      </trkpt>
      <trkpt lat="43.96429" lon="7.26811">
        <ele>729.59997558594</ele>
        <time>2019-03-30T09:15:29.000Z</time>
      </trkpt>
      <trkpt lat="43.96433" lon="7.26812">
        <ele>729.59997558594</ele>
        <time>2019-03-30T09:15:31.000Z</time>
      </trkpt>
      <trkpt lat="43.96444" lon="7.26816">
        <ele>730.20001220703</ele>
        <time>2019-03-30T09:15:36.000Z</time>
      </trkpt>
      <trkpt lat="43.96458" lon="7.26825">
        <ele>730.40002441406</ele>
        <time>2019-03-30T09:15:42.000Z</time>
      </trkpt>
      <trkpt lat="43.96461" lon="7.26828">
        <ele>730.79998779297</ele>
        <time>2019-03-30T09:15:44.000Z</time>
      </trkpt>
      <trkpt lat="43.96464" lon="7.2683">
        <ele>731.40002441406</ele>
        <time>2019-03-30T09:15:46.000Z</time>
      </trkpt>
      <trkpt lat="43.96468" lon="7.26833">
        <ele>732</ele>
        <time>2019-03-30T09:15:48.000Z</time>
      </trkpt>
      <trkpt lat="43.96478" lon="7.26839">
        <ele>732.40002441406</ele>
        <time>2019-03-30T09:15:54.000Z</time>
      </trkpt>
      <trkpt lat="43.9648" lon="7.2684">
        <ele>732.40002441406</ele>
        <time>2019-03-30T09:15:55.000Z</time>
      </trkpt>
      <trkpt lat="43.96485" lon="7.26842">
        <ele>733</ele>
        <time>2019-03-30T09:15:58.000Z</time>
      </trkpt>
      <trkpt lat="43.96492" lon="7.26843">
        <ele>733.59997558594</ele>
        <time>2019-03-30T09:16:01.000Z</time>
      </trkpt>
      <trkpt lat="43.965" lon="7.26844">
        <ele>734</ele>
        <time>2019-03-30T09:16:05.000Z</time>
      </trkpt>
      <trkpt lat="43.96503" lon="7.26845">
        <ele>734</ele>
        <time>2019-03-30T09:16:06.000Z</time>
      </trkpt>
      <trkpt lat="43.9651" lon="7.26844">
        <ele>734.40002441406</ele>
        <time>2019-03-30T09:16:09.000Z</time>
      </trkpt>
      <trkpt lat="43.96521" lon="7.26841">
        <ele>734.79998779297</ele>
        <time>2019-03-30T09:16:15.000Z</time>
      </trkpt>
      <trkpt lat="43.96528" lon="7.2684">
        <ele>735.20001220703</ele>
        <time>2019-03-30T09:16:18.000Z</time>
      </trkpt>
      <trkpt lat="43.96533" lon="7.26839">
        <ele>736</ele>
        <time>2019-03-30T09:16:21.000Z</time>
      </trkpt>
      <trkpt lat="43.96539" lon="7.26839">
        <ele>736.40002441406</ele>
        <time>2019-03-30T09:16:24.000Z</time>
      </trkpt>
      <trkpt lat="43.96544" lon="7.26839">
        <ele>737</ele>
        <time>2019-03-30T09:16:27.000Z</time>
      </trkpt>
      <trkpt lat="43.96548" lon="7.26839">
        <ele>737.40002441406</ele>
        <time>2019-03-30T09:16:29.000Z</time>
      </trkpt>
      <trkpt lat="43.96556" lon="7.26841">
        <ele>738.20001220703</ele>
        <time>2019-03-30T09:16:34.000Z</time>
      </trkpt>
      <trkpt lat="43.96561" lon="7.26841">
        <ele>738.59997558594</ele>
        <time>2019-03-30T09:16:37.000Z</time>
      </trkpt>
      <trkpt lat="43.96564" lon="7.26842">
        <ele>739.20001220703</ele>
        <time>2019-03-30T09:16:39.000Z</time>
      </trkpt>
      <trkpt lat="43.96566" lon="7.26843">
        <ele>740</ele>
        <time>2019-03-30T09:16:41.000Z</time>
      </trkpt>
      <trkpt lat="43.96569" lon="7.26844">
        <ele>740.59997558594</ele>
        <time>2019-03-30T09:16:44.000Z</time>
      </trkpt>
      <trkpt lat="43.96573" lon="7.26845">
        <ele>741</ele>
        <time>2019-03-30T09:16:46.000Z</time>
      </trkpt>
      <trkpt lat="43.96578" lon="7.26844">
        <ele>741.40002441406</ele>
        <time>2019-03-30T09:16:49.000Z</time>
      </trkpt>
      <trkpt lat="43.96585" lon="7.26844">
        <ele>741.79998779297</ele>
        <time>2019-03-30T09:16:54.000Z</time>
      </trkpt>
      <trkpt lat="43.9659" lon="7.26843">
        <ele>742</ele>
        <time>2019-03-30T09:16:57.000Z</time>
      </trkpt>
      <trkpt lat="43.96595" lon="7.26842">
        <ele>742.59997558594</ele>
        <time>2019-03-30T09:17:00.000Z</time>
      </trkpt>
      <trkpt lat="43.96602" lon="7.26839">
        <ele>743.20001220703</ele>
        <time>2019-03-30T09:17:05.000Z</time>
      </trkpt>
      <trkpt lat="43.96604" lon="7.26838">
        <ele>743.40002441406</ele>
        <time>2019-03-30T09:17:06.000Z</time>
      </trkpt>
      <trkpt lat="43.96613" lon="7.26835">
        <ele>744.20001220703</ele>
        <time>2019-03-30T09:17:12.000Z</time>
      </trkpt>
      <trkpt lat="43.96615" lon="7.26835">
        <ele>744.40002441406</ele>
        <time>2019-03-30T09:17:13.000Z</time>
      </trkpt>
      <trkpt lat="43.96622" lon="7.26833">
        <ele>745</ele>
        <time>2019-03-30T09:17:17.000Z</time>
      </trkpt>
      <trkpt lat="43.96626" lon="7.26832">
        <ele>745.40002441406</ele>
        <time>2019-03-30T09:17:19.000Z</time>
      </trkpt>
      <trkpt lat="43.96633" lon="7.26829">
        <ele>746.40002441406</ele>
        <time>2019-03-30T09:17:24.000Z</time>
      </trkpt>
      <trkpt lat="43.9664" lon="7.26826">
        <ele>747.40002441406</ele>
        <time>2019-03-30T09:17:28.000Z</time>
      </trkpt>
      <trkpt lat="43.96643" lon="7.26825">
        <ele>748</ele>
        <time>2019-03-30T09:17:30.000Z</time>
      </trkpt>
      <trkpt lat="43.96645" lon="7.26823">
        <ele>748.59997558594</ele>
        <time>2019-03-30T09:17:32.000Z</time>
      </trkpt>
      <trkpt lat="43.96647" lon="7.26821">
        <ele>749.20001220703</ele>
        <time>2019-03-30T09:17:34.000Z</time>
      </trkpt>
      <trkpt lat="43.96649" lon="7.26818">
        <ele>749.40002441406</ele>
        <time>2019-03-30T09:17:36.000Z</time>
      </trkpt>
      <trkpt lat="43.9665" lon="7.26817">
        <ele>749.59997558594</ele>
        <time>2019-03-30T09:17:37.000Z</time>
      </trkpt>
      <trkpt lat="43.96653" lon="7.26814">
        <ele>750.40002441406</ele>
        <time>2019-03-30T09:17:40.000Z</time>
      </trkpt>
      <trkpt lat="43.96654" lon="7.26813">
        <ele>750.59997558594</ele>
        <time>2019-03-30T09:17:41.000Z</time>
      </trkpt>
      <trkpt lat="43.96655" lon="7.26812">
        <ele>750.79998779297</ele>
        <time>2019-03-30T09:17:42.000Z</time>
      </trkpt>
      <trkpt lat="43.96658" lon="7.26806">
        <ele>751.79998779297</ele>
        <time>2019-03-30T09:17:47.000Z</time>
      </trkpt>
      <trkpt lat="43.96663" lon="7.26798">
        <ele>752.79998779297</ele>
        <time>2019-03-30T09:17:53.000Z</time>
      </trkpt>
      <trkpt lat="43.96665" lon="7.26795">
        <ele>753.40002441406</ele>
        <time>2019-03-30T09:17:55.000Z</time>
      </trkpt>
      <trkpt lat="43.96667" lon="7.26792">
        <ele>754</ele>
        <time>2019-03-30T09:17:57.000Z</time>
      </trkpt>
      <trkpt lat="43.96672" lon="7.26786">
        <ele>755.20001220703</ele>
        <time>2019-03-30T09:18:02.000Z</time>
      </trkpt>
      <trkpt lat="43.96673" lon="7.26785">
        <ele>755.40002441406</ele>
        <time>2019-03-30T09:18:03.000Z</time>
      </trkpt>
      <trkpt lat="43.96676" lon="7.26779">
        <ele>756.20001220703</ele>
        <time>2019-03-30T09:18:07.000Z</time>
      </trkpt>
      <trkpt lat="43.96679" lon="7.26774">
        <ele>756.79998779297</ele>
        <time>2019-03-30T09:18:10.000Z</time>
      </trkpt>
      <trkpt lat="43.96683" lon="7.26769">
        <ele>757.40002441406</ele>
        <time>2019-03-30T09:18:13.000Z</time>
      </trkpt>
      <trkpt lat="43.96687" lon="7.26764">
        <ele>758.20001220703</ele>
        <time>2019-03-30T09:18:17.000Z</time>
      </trkpt>
      <trkpt lat="43.96689" lon="7.26761">
        <ele>758.40002441406</ele>
        <time>2019-03-30T09:18:19.000Z</time>
      </trkpt>
      <trkpt lat="43.9669" lon="7.2676">
        <ele>758.59997558594</ele>
        <time>2019-03-30T09:18:20.000Z</time>
      </trkpt>
      <trkpt lat="43.96694" lon="7.26758">
        <ele>759</ele>
        <time>2019-03-30T09:18:23.000Z</time>
      </trkpt>
      <trkpt lat="43.96695" lon="7.26758">
        <ele>759.20001220703</ele>
        <time>2019-03-30T09:18:24.000Z</time>
      </trkpt>
      <trkpt lat="43.96695" lon="7.26758">
        <ele>759.59997558594</ele>
        <time>2019-03-30T09:18:25.000Z</time>
      </trkpt>
      <trkpt lat="43.967" lon="7.26759">
        <ele>760</ele>
        <time>2019-03-30T09:18:28.000Z</time>
      </trkpt>
      <trkpt lat="43.96703" lon="7.26758">
        <ele>760.59997558594</ele>
        <time>2019-03-30T09:18:31.000Z</time>
      </trkpt>
      <trkpt lat="43.96709" lon="7.26758">
        <ele>761.20001220703</ele>
        <time>2019-03-30T09:18:35.000Z</time>
      </trkpt>
      <trkpt lat="43.9671" lon="7.26758">
        <ele>761.40002441406</ele>
        <time>2019-03-30T09:18:36.000Z</time>
      </trkpt>
      <trkpt lat="43.96711" lon="7.26758">
        <ele>761.79998779297</ele>
        <time>2019-03-30T09:18:37.000Z</time>
      </trkpt>
      <trkpt lat="43.96718" lon="7.26757">
        <ele>762.79998779297</ele>
        <time>2019-03-30T09:18:42.000Z</time>
      </trkpt>
      <trkpt lat="43.96726" lon="7.26752">
        <ele>763.79998779297</ele>
        <time>2019-03-30T09:18:47.000Z</time>
      </trkpt>
      <trkpt lat="43.96728" lon="7.26751">
        <ele>764</ele>
        <time>2019-03-30T09:18:48.000Z</time>
      </trkpt>
      <trkpt lat="43.96734" lon="7.26747">
        <ele>765</ele>
        <time>2019-03-30T09:18:52.000Z</time>
      </trkpt>
      <trkpt lat="43.96736" lon="7.26746">
        <ele>765.40002441406</ele>
        <time>2019-03-30T09:18:53.000Z</time>
      </trkpt>
      <trkpt lat="43.9674" lon="7.26742">
        <ele>766.40002441406</ele>
        <time>2019-03-30T09:18:56.000Z</time>
      </trkpt>
      <trkpt lat="43.96744" lon="7.26733">
        <ele>767.40002441406</ele>
        <time>2019-03-30T09:19:01.000Z</time>
      </trkpt>
      <trkpt lat="43.9675" lon="7.26716">
        <ele>768.20001220703</ele>
        <time>2019-03-30T09:19:09.000Z</time>
      </trkpt>
      <trkpt lat="43.96755" lon="7.2671">
        <ele>768.59997558594</ele>
        <time>2019-03-30T09:19:14.000Z</time>
      </trkpt>
      <trkpt lat="43.96756" lon="7.26709">
        <ele>768.59997558594</ele>
        <time>2019-03-30T09:19:15.000Z</time>
      </trkpt>
      <trkpt lat="43.96766" lon="7.26707">
        <ele>769.40002441406</ele>
        <time>2019-03-30T09:19:22.000Z</time>
      </trkpt>
      <trkpt lat="43.96767" lon="7.26707">
        <ele>769.59997558594</ele>
        <time>2019-03-30T09:19:23.000Z</time>
      </trkpt>
      <trkpt lat="43.96771" lon="7.26707">
        <ele>770.40002441406</ele>
        <time>2019-03-30T09:19:26.000Z</time>
      </trkpt>
      <trkpt lat="43.96773" lon="7.26706">
        <ele>770.79998779297</ele>
        <time>2019-03-30T09:19:28.000Z</time>
      </trkpt>
      <trkpt lat="43.96776" lon="7.26706">
        <ele>771</ele>
        <time>2019-03-30T09:19:30.000Z</time>
      </trkpt>
      <trkpt lat="43.96783" lon="7.26706">
        <ele>771.79998779297</ele>
        <time>2019-03-30T09:19:35.000Z</time>
      </trkpt>
      <trkpt lat="43.96784" lon="7.26706">
        <ele>772</ele>
        <time>2019-03-30T09:19:36.000Z</time>
      </trkpt>
      <trkpt lat="43.96789" lon="7.26708">
        <ele>773</ele>
        <time>2019-03-30T09:19:40.000Z</time>
      </trkpt>
      <trkpt lat="43.96791" lon="7.26709">
        <ele>773.20001220703</ele>
        <time>2019-03-30T09:19:41.000Z</time>
      </trkpt>
      <trkpt lat="43.96797" lon="7.2671">
        <ele>774</ele>
        <time>2019-03-30T09:19:45.000Z</time>
      </trkpt>
      <trkpt lat="43.968" lon="7.2671">
        <ele>774.40002441406</ele>
        <time>2019-03-30T09:19:47.000Z</time>
      </trkpt>
      <trkpt lat="43.96804" lon="7.26708">
        <ele>775</ele>
        <time>2019-03-30T09:19:50.000Z</time>
      </trkpt>
      <trkpt lat="43.96809" lon="7.26705">
        <ele>775.59997558594</ele>
        <time>2019-03-30T09:19:53.000Z</time>
      </trkpt>
      <trkpt lat="43.96812" lon="7.26704">
        <ele>776.20001220703</ele>
        <time>2019-03-30T09:19:55.000Z</time>
      </trkpt>
      <trkpt lat="43.96816" lon="7.26702">
        <ele>776.79998779297</ele>
        <time>2019-03-30T09:19:58.000Z</time>
      </trkpt>
      <trkpt lat="43.96819" lon="7.26702">
        <ele>777.20001220703</ele>
        <time>2019-03-30T09:20:00.000Z</time>
      </trkpt>
      <trkpt lat="43.96824" lon="7.26701">
        <ele>778.20001220703</ele>
        <time>2019-03-30T09:20:04.000Z</time>
      </trkpt>
      <trkpt lat="43.96825" lon="7.26701">
        <ele>778.40002441406</ele>
        <time>2019-03-30T09:20:05.000Z</time>
      </trkpt>
      <trkpt lat="43.96832" lon="7.26703">
        <ele>779.20001220703</ele>
        <time>2019-03-30T09:20:10.000Z</time>
      </trkpt>
      <trkpt lat="43.96835" lon="7.26704">
        <ele>779.59997558594</ele>
        <time>2019-03-30T09:20:12.000Z</time>
      </trkpt>
      <trkpt lat="43.96841" lon="7.26702">
        <ele>780.79998779297</ele>
        <time>2019-03-30T09:20:16.000Z</time>
      </trkpt>
      <trkpt lat="43.96849" lon="7.26699">
        <ele>782</ele>
        <time>2019-03-30T09:20:21.000Z</time>
      </trkpt>
      <trkpt lat="43.96852" lon="7.26698">
        <ele>782.40002441406</ele>
        <time>2019-03-30T09:20:23.000Z</time>
      </trkpt>
      <trkpt lat="43.96854" lon="7.26697">
        <ele>783</ele>
        <time>2019-03-30T09:20:25.000Z</time>
      </trkpt>
      <trkpt lat="43.96858" lon="7.26694">
        <ele>783.59997558594</ele>
        <time>2019-03-30T09:20:28.000Z</time>
      </trkpt>
      <trkpt lat="43.96863" lon="7.26691">
        <ele>783.79998779297</ele>
        <time>2019-03-30T09:20:31.000Z</time>
      </trkpt>
      <trkpt lat="43.96866" lon="7.26692">
        <ele>783.79998779297</ele>
        <time>2019-03-30T09:20:33.000Z</time>
      </trkpt>
      <trkpt lat="43.96867" lon="7.26693">
        <ele>784</ele>
        <time>2019-03-30T09:20:34.000Z</time>
      </trkpt>
      <trkpt lat="43.96869" lon="7.26699">
        <ele>784.59997558594</ele>
        <time>2019-03-30T09:20:37.000Z</time>
      </trkpt>
      <trkpt lat="43.96869" lon="7.26701">
        <ele>784.59997558594</ele>
        <time>2019-03-30T09:20:38.000Z</time>
      </trkpt>
      <trkpt lat="43.96869" lon="7.2671">
        <ele>785</ele>
        <time>2019-03-30T09:20:42.000Z</time>
      </trkpt>
      <trkpt lat="43.96869" lon="7.26719">
        <ele>785.40002441406</ele>
        <time>2019-03-30T09:20:46.000Z</time>
      </trkpt>
      <trkpt lat="43.96873" lon="7.26731">
        <ele>786</ele>
        <time>2019-03-30T09:20:52.000Z</time>
      </trkpt>
      <trkpt lat="43.96874" lon="7.26733">
        <ele>786.20001220703</ele>
        <time>2019-03-30T09:20:53.000Z</time>
      </trkpt>
      <trkpt lat="43.96882" lon="7.26742">
        <ele>787</ele>
        <time>2019-03-30T09:20:59.000Z</time>
      </trkpt>
      <trkpt lat="43.96883" lon="7.26743">
        <ele>787.20001220703</ele>
        <time>2019-03-30T09:21:00.000Z</time>
      </trkpt>
      <trkpt lat="43.96884" lon="7.26745">
        <ele>787.20001220703</ele>
        <time>2019-03-30T09:21:01.000Z</time>
      </trkpt>
      <trkpt lat="43.9689" lon="7.26752">
        <ele>787.59997558594</ele>
        <time>2019-03-30T09:21:06.000Z</time>
      </trkpt>
      <trkpt lat="43.96895" lon="7.26761">
        <ele>788.40002441406</ele>
        <time>2019-03-30T09:21:12.000Z</time>
      </trkpt>
      <trkpt lat="43.96896" lon="7.26763">
        <ele>788.40002441406</ele>
        <time>2019-03-30T09:21:13.000Z</time>
      </trkpt>
      <trkpt lat="43.96904" lon="7.26778">
        <ele>788.79998779297</ele>
        <time>2019-03-30T09:21:21.000Z</time>
      </trkpt>
      <trkpt lat="43.96908" lon="7.26789">
        <ele>789.40002441406</ele>
        <time>2019-03-30T09:21:27.000Z</time>
      </trkpt>
      <trkpt lat="43.9691" lon="7.26797">
        <ele>790.40002441406</ele>
        <time>2019-03-30T09:21:33.000Z</time>
      </trkpt>
      <trkpt lat="43.96911" lon="7.26799">
        <ele>790.40002441406</ele>
        <time>2019-03-30T09:21:34.000Z</time>
      </trkpt>
      <trkpt lat="43.96913" lon="7.26804">
        <ele>791</ele>
        <time>2019-03-30T09:21:38.000Z</time>
      </trkpt>
      <trkpt lat="43.96914" lon="7.26806">
        <ele>791</ele>
        <time>2019-03-30T09:21:39.000Z</time>
      </trkpt>
      <trkpt lat="43.96917" lon="7.26809">
        <ele>791.59997558594</ele>
        <time>2019-03-30T09:21:42.000Z</time>
      </trkpt>
      <trkpt lat="43.96918" lon="7.26812">
        <ele>791.79998779297</ele>
        <time>2019-03-30T09:21:44.000Z</time>
      </trkpt>
      <trkpt lat="43.96919" lon="7.26814">
        <ele>791.79998779297</ele>
        <time>2019-03-30T09:21:45.000Z</time>
      </trkpt>
      <trkpt lat="43.96922" lon="7.26818">
        <ele>792</ele>
        <time>2019-03-30T09:21:48.000Z</time>
      </trkpt>
      <trkpt lat="43.96924" lon="7.2682">
        <ele>792</ele>
        <time>2019-03-30T09:21:50.000Z</time>
      </trkpt>
      <trkpt lat="43.96933" lon="7.26821">
        <ele>792.59997558594</ele>
        <time>2019-03-30T09:21:57.000Z</time>
      </trkpt>
      <trkpt lat="43.9694" lon="7.26817">
        <ele>792.59997558594</ele>
        <time>2019-03-30T09:22:01.000Z</time>
      </trkpt>
      <trkpt lat="43.96944" lon="7.26815">
        <ele>792.59997558594</ele>
        <time>2019-03-30T09:22:03.000Z</time>
      </trkpt>
      <trkpt lat="43.96953" lon="7.26814">
        <ele>792.79998779297</ele>
        <time>2019-03-30T09:22:08.000Z</time>
      </trkpt>
      <trkpt lat="43.96962" lon="7.26817">
        <ele>793.20001220703</ele>
        <time>2019-03-30T09:22:14.000Z</time>
      </trkpt>
      <trkpt lat="43.96966" lon="7.26817">
        <ele>793.59997558594</ele>
        <time>2019-03-30T09:22:16.000Z</time>
      </trkpt>
      <trkpt lat="43.96975" lon="7.26814">
        <ele>793.79998779297</ele>
        <time>2019-03-30T09:22:20.000Z</time>
      </trkpt>
      <trkpt lat="43.96995" lon="7.26802">
        <ele>794</ele>
        <time>2019-03-30T09:22:28.000Z</time>
      </trkpt>
      <trkpt lat="43.97005" lon="7.26809">
        <ele>794.59997558594</ele>
        <time>2019-03-30T09:22:33.000Z</time>
      </trkpt>
      <trkpt lat="43.97007" lon="7.2681">
        <ele>795</ele>
        <time>2019-03-30T09:22:35.000Z</time>
      </trkpt>
      <trkpt lat="43.97012" lon="7.2681">
        <ele>795.59997558594</ele>
        <time>2019-03-30T09:22:37.000Z</time>
      </trkpt>
      <trkpt lat="43.97019" lon="7.26809">
        <ele>795.79998779297</ele>
        <time>2019-03-30T09:22:40.000Z</time>
      </trkpt>
      <trkpt lat="43.97027" lon="7.2681">
        <ele>796.20001220703</ele>
        <time>2019-03-30T09:22:44.000Z</time>
      </trkpt>
      <trkpt lat="43.97035" lon="7.26812">
        <ele>796.40002441406</ele>
        <time>2019-03-30T09:22:49.000Z</time>
      </trkpt>
      <trkpt lat="43.97042" lon="7.26813">
        <ele>796.79998779297</ele>
        <time>2019-03-30T09:22:53.000Z</time>
      </trkpt>
      <trkpt lat="43.97043" lon="7.26814">
        <ele>796.79998779297</ele>
        <time>2019-03-30T09:22:54.000Z</time>
      </trkpt>
      <trkpt lat="43.97045" lon="7.26815">
        <ele>796.79998779297</ele>
        <time>2019-03-30T09:22:55.000Z</time>
      </trkpt>
      <trkpt lat="43.97056" lon="7.26819">
        <ele>797</ele>
        <time>2019-03-30T09:23:01.000Z</time>
      </trkpt>
      <trkpt lat="43.97069" lon="7.26827">
        <ele>797.79998779297</ele>
        <time>2019-03-30T09:23:08.000Z</time>
      </trkpt>
      <trkpt lat="43.97073" lon="7.26833">
        <ele>797.79998779297</ele>
        <time>2019-03-30T09:23:11.000Z</time>
      </trkpt>
      <trkpt lat="43.97077" lon="7.26836">
        <ele>798</ele>
        <time>2019-03-30T09:23:13.000Z</time>
      </trkpt>
      <trkpt lat="43.97094" lon="7.2684">
        <ele>797.59997558594</ele>
        <time>2019-03-30T09:23:19.000Z</time>
      </trkpt>
      <trkpt lat="43.97114" lon="7.26848">
        <ele>797.79998779297</ele>
        <time>2019-03-30T09:23:26.000Z</time>
      </trkpt>
      <trkpt lat="43.97128" lon="7.26852">
        <ele>799</ele>
        <time>2019-03-30T09:23:31.000Z</time>
      </trkpt>
      <trkpt lat="43.97131" lon="7.26852">
        <ele>799.20001220703</ele>
        <time>2019-03-30T09:23:32.000Z</time>
      </trkpt>
      <trkpt lat="43.9715" lon="7.26854">
        <ele>799.79998779297</ele>
        <time>2019-03-30T09:23:39.000Z</time>
      </trkpt>
      <trkpt lat="43.97158" lon="7.26856">
        <ele>800</ele>
        <time>2019-03-30T09:23:42.000Z</time>
      </trkpt>
      <trkpt lat="43.9716" lon="7.26858">
        <ele>800.20001220703</ele>
        <time>2019-03-30T09:23:43.000Z</time>
      </trkpt>
      <trkpt lat="43.97163" lon="7.26861">
        <ele>800.20001220703</ele>
        <time>2019-03-30T09:23:44.000Z</time>
      </trkpt>
      <trkpt lat="43.97164" lon="7.26864">
        <ele>800.20001220703</ele>
        <time>2019-03-30T09:23:45.000Z</time>
      </trkpt>
      <trkpt lat="43.97165" lon="7.26875">
        <ele>800.59997558594</ele>
        <time>2019-03-30T09:23:48.000Z</time>
      </trkpt>
      <trkpt lat="43.97167" lon="7.26887">
        <ele>801</ele>
        <time>2019-03-30T09:23:52.000Z</time>
      </trkpt>
      <trkpt lat="43.9717" lon="7.26889">
        <ele>801.20001220703</ele>
        <time>2019-03-30T09:23:53.000Z</time>
      </trkpt>
      <trkpt lat="43.97181" lon="7.26887">
        <ele>801.40002441406</ele>
        <time>2019-03-30T09:23:57.000Z</time>
      </trkpt>
      <trkpt lat="43.97194" lon="7.26889">
        <ele>801.59997558594</ele>
        <time>2019-03-30T09:24:01.000Z</time>
      </trkpt>
      <trkpt lat="43.97201" lon="7.26898">
        <ele>801.59997558594</ele>
        <time>2019-03-30T09:24:04.000Z</time>
      </trkpt>
      <trkpt lat="43.97202" lon="7.26901">
        <ele>801.59997558594</ele>
        <time>2019-03-30T09:24:05.000Z</time>
      </trkpt>
      <trkpt lat="43.97209" lon="7.26913">
        <ele>802.40002441406</ele>
        <time>2019-03-30T09:24:09.000Z</time>
      </trkpt>
      <trkpt lat="43.97214" lon="7.2692">
        <ele>802.79998779297</ele>
        <time>2019-03-30T09:24:12.000Z</time>
      </trkpt>
      <trkpt lat="43.97221" lon="7.26927">
        <ele>803.79998779297</ele>
        <time>2019-03-30T09:24:16.000Z</time>
      </trkpt>
      <trkpt lat="43.97223" lon="7.26929">
        <ele>804.20001220703</ele>
        <time>2019-03-30T09:24:17.000Z</time>
      </trkpt>
      <trkpt lat="43.97228" lon="7.2694">
        <ele>805</ele>
        <time>2019-03-30T09:24:21.000Z</time>
      </trkpt>
      <trkpt lat="43.97231" lon="7.26944">
        <ele>805.59997558594</ele>
        <time>2019-03-30T09:24:23.000Z</time>
      </trkpt>
      <trkpt lat="43.97236" lon="7.26953">
        <ele>806.20001220703</ele>
        <time>2019-03-30T09:24:27.000Z</time>
      </trkpt>
      <trkpt lat="43.97238" lon="7.26962">
        <ele>806.40002441406</ele>
        <time>2019-03-30T09:24:30.000Z</time>
      </trkpt>
      <trkpt lat="43.97242" lon="7.26971">
        <ele>807.40002441406</ele>
        <time>2019-03-30T09:24:34.000Z</time>
      </trkpt>
      <trkpt lat="43.97244" lon="7.26976">
        <ele>807.79998779297</ele>
        <time>2019-03-30T09:24:36.000Z</time>
      </trkpt>
      <trkpt lat="43.97252" lon="7.26981">
        <ele>808</ele>
        <time>2019-03-30T09:24:41.000Z</time>
      </trkpt>
      <trkpt lat="43.97254" lon="7.2698">
        <ele>808.20001220703</ele>
        <time>2019-03-30T09:24:42.000Z</time>
      </trkpt>
      <trkpt lat="43.97259" lon="7.26974">
        <ele>808.40002441406</ele>
        <time>2019-03-30T09:24:45.000Z</time>
      </trkpt>
      <trkpt lat="43.97262" lon="7.26963">
        <ele>808.40002441406</ele>
        <time>2019-03-30T09:24:49.000Z</time>
      </trkpt>
      <trkpt lat="43.97263" lon="7.26958">
        <ele>808.59997558594</ele>
        <time>2019-03-30T09:24:51.000Z</time>
      </trkpt>
      <trkpt lat="43.97265" lon="7.26951">
        <ele>808.59997558594</ele>
        <time>2019-03-30T09:24:53.000Z</time>
      </trkpt>
      <trkpt lat="43.97268" lon="7.26945">
        <ele>808.59997558594</ele>
        <time>2019-03-30T09:24:55.000Z</time>
      </trkpt>
      <trkpt lat="43.9727" lon="7.26925">
        <ele>808.79998779297</ele>
        <time>2019-03-30T09:25:01.000Z</time>
      </trkpt>
      <trkpt lat="43.97276" lon="7.26908">
        <ele>809</ele>
        <time>2019-03-30T09:25:06.000Z</time>
      </trkpt>
      <trkpt lat="43.97282" lon="7.26899">
        <ele>810</ele>
        <time>2019-03-30T09:25:11.000Z</time>
      </trkpt>
      <trkpt lat="43.97286" lon="7.26893">
        <ele>811.20001220703</ele>
        <time>2019-03-30T09:25:14.000Z</time>
      </trkpt>
      <trkpt lat="43.97289" lon="7.26889">
        <ele>811.59997558594</ele>
        <time>2019-03-30T09:25:17.000Z</time>
      </trkpt>
      <trkpt lat="43.97289" lon="7.26888">
        <ele>812</ele>
        <time>2019-03-30T09:25:21.000Z</time>
      </trkpt>
      <trkpt lat="43.97288" lon="7.26888">
        <ele>812.20001220703</ele>
        <time>2019-03-30T09:25:24.000Z</time>
      </trkpt>
      <trkpt lat="43.97288" lon="7.26888">
        <ele>812.40002441406</ele>
        <time>2019-03-30T09:25:26.000Z</time>
      </trkpt>
      <trkpt lat="43.97289" lon="7.26888">
        <ele>812.40002441406</ele>
        <time>2019-03-30T09:25:29.000Z</time>
      </trkpt>
      <trkpt lat="43.97289" lon="7.26888">
        <ele>812.20001220703</ele>
        <time>2019-03-30T09:25:31.000Z</time>
      </trkpt>
      <trkpt lat="43.9729" lon="7.26887">
        <ele>812.20001220703</ele>
        <time>2019-03-30T09:25:39.000Z</time>
      </trkpt>
      <trkpt lat="43.97291" lon="7.26886">
        <ele>812</ele>
        <time>2019-03-30T09:25:47.000Z</time>
      </trkpt>
      <trkpt lat="43.97291" lon="7.26886">
        <ele>812</ele>
        <time>2019-03-30T09:25:58.000Z</time>
      </trkpt>
      <trkpt lat="43.97294" lon="7.26888">
        <ele>812.20001220703</ele>
        <time>2019-03-30T09:26:03.000Z</time>
      </trkpt>
      <trkpt lat="43.97297" lon="7.26886">
        <ele>812.20001220703</ele>
        <time>2019-03-30T09:26:16.000Z</time>
      </trkpt>
      <trkpt lat="43.97296" lon="7.26886">
        <ele>812.40002441406</ele>
        <time>2019-03-30T09:26:30.000Z</time>
      </trkpt>
      <trkpt lat="43.97295" lon="7.26886">
        <ele>812.40002441406</ele>
        <time>2019-03-30T09:26:39.000Z</time>
      </trkpt>
      <trkpt lat="43.97293" lon="7.26888">
        <ele>812.20001220703</ele>
        <time>2019-03-30T09:26:48.000Z</time>
      </trkpt>
      <trkpt lat="43.97291" lon="7.26892">
        <ele>812</ele>
        <time>2019-03-30T09:27:07.000Z</time>
      </trkpt>
      <trkpt lat="43.9729" lon="7.26894">
        <ele>812.20001220703</ele>
        <time>2019-03-30T09:27:20.000Z</time>
      </trkpt>
      <trkpt lat="43.97288" lon="7.26897">
        <ele>812.20001220703</ele>
        <time>2019-03-30T09:27:31.000Z</time>
      </trkpt>
      <trkpt lat="43.97287" lon="7.26895">
        <ele>812.40002441406</ele>
        <time>2019-03-30T09:27:36.000Z</time>
      </trkpt>
      <trkpt lat="43.97287" lon="7.26894">
        <ele>812.40002441406</ele>
        <time>2019-03-30T09:27:38.000Z</time>
      </trkpt>
      <trkpt lat="43.97287" lon="7.26893">
        <ele>812</ele>
        <time>2019-03-30T09:27:44.000Z</time>
      </trkpt>
      <trkpt lat="43.97287" lon="7.26892">
        <ele>813</ele>
        <time>2019-03-30T09:27:56.000Z</time>
      </trkpt>
      <trkpt lat="43.97288" lon="7.2689">
        <ele>812.40002441406</ele>
        <time>2019-03-30T09:28:06.000Z</time>
      </trkpt>
      <trkpt lat="43.97288" lon="7.2689">
        <ele>812.20001220703</ele>
        <time>2019-03-30T09:28:07.000Z</time>
      </trkpt>
      <trkpt lat="43.97287" lon="7.26889">
        <ele>811.79998779297</ele>
        <time>2019-03-30T09:28:11.000Z</time>
      </trkpt>
      <trkpt lat="43.97287" lon="7.26888">
        <ele>812.20001220703</ele>
        <time>2019-03-30T09:28:17.000Z</time>
      </trkpt>
      <trkpt lat="43.97286" lon="7.26887">
        <ele>812.79998779297</ele>
        <time>2019-03-30T09:28:32.000Z</time>
      </trkpt>
      <trkpt lat="43.97285" lon="7.26887">
        <ele>812.59997558594</ele>
        <time>2019-03-30T09:28:40.000Z</time>
      </trkpt>
      <trkpt lat="43.97284" lon="7.26889">
        <ele>812.40002441406</ele>
        <time>2019-03-30T09:28:55.000Z</time>
      </trkpt>
      <trkpt lat="43.97285" lon="7.26891">
        <ele>812.59997558594</ele>
        <time>2019-03-30T09:29:08.000Z</time>
      </trkpt>
      <trkpt lat="43.97284" lon="7.26893">
        <ele>812.59997558594</ele>
        <time>2019-03-30T09:29:18.000Z</time>
      </trkpt>
      <trkpt lat="43.97285" lon="7.26892">
        <ele>812.20001220703</ele>
        <time>2019-03-30T09:29:24.000Z</time>
      </trkpt>
      <trkpt lat="43.97285" lon="7.26891">
        <ele>812.59997558594</ele>
        <time>2019-03-30T09:29:30.000Z</time>
      </trkpt>
      <trkpt lat="43.97286" lon="7.26891">
        <ele>812.59997558594</ele>
        <time>2019-03-30T09:29:43.000Z</time>
      </trkpt>
      <trkpt lat="43.97286" lon="7.2689">
        <ele>812</ele>
        <time>2019-03-30T09:29:49.000Z</time>
      </trkpt>
      <trkpt lat="43.97291" lon="7.2689">
        <ele>812.59997558594</ele>
        <time>2019-03-30T09:29:57.000Z</time>
      </trkpt>
      <trkpt lat="43.97293" lon="7.26893">
        <ele>813.20001220703</ele>
        <time>2019-03-30T09:30:03.000Z</time>
      </trkpt>
      <trkpt lat="43.97294" lon="7.26892">
        <ele>813.20001220703</ele>
        <time>2019-03-30T09:30:04.000Z</time>
      </trkpt>
      <trkpt lat="43.97294" lon="7.26891">
        <ele>813.40002441406</ele>
        <time>2019-03-30T09:30:14.000Z</time>
      </trkpt>
      <trkpt lat="43.97295" lon="7.26891">
        <ele>813.20001220703</ele>
        <time>2019-03-30T09:30:16.000Z</time>
      </trkpt>
      <trkpt lat="43.97297" lon="7.26892">
        <ele>813.20001220703</ele>
        <time>2019-03-30T09:30:18.000Z</time>
      </trkpt>
      <trkpt lat="43.97299" lon="7.26893">
        <ele>813.40002441406</ele>
        <time>2019-03-30T09:30:20.000Z</time>
      </trkpt>
      <trkpt lat="43.97309" lon="7.26897">
        <ele>814</ele>
        <time>2019-03-30T09:30:26.000Z</time>
      </trkpt>
      <trkpt lat="43.97312" lon="7.26899">
        <ele>814.20001220703</ele>
        <time>2019-03-30T09:30:28.000Z</time>
      </trkpt>
      <trkpt lat="43.97319" lon="7.26904">
        <ele>814.79998779297</ele>
        <time>2019-03-30T09:30:32.000Z</time>
      </trkpt>
      <trkpt lat="43.97328" lon="7.26911">
        <ele>815.40002441406</ele>
        <time>2019-03-30T09:30:37.000Z</time>
      </trkpt>
      <trkpt lat="43.97329" lon="7.26912">
        <ele>815.59997558594</ele>
        <time>2019-03-30T09:30:38.000Z</time>
      </trkpt>
      <trkpt lat="43.97338" lon="7.26919">
        <ele>816.59997558594</ele>
        <time>2019-03-30T09:30:43.000Z</time>
      </trkpt>
      <trkpt lat="43.97344" lon="7.26921">
        <ele>816.79998779297</ele>
        <time>2019-03-30T09:30:46.000Z</time>
      </trkpt>
      <trkpt lat="43.97359" lon="7.26923">
        <ele>817.40002441406</ele>
        <time>2019-03-30T09:30:54.000Z</time>
      </trkpt>
      <trkpt lat="43.9736" lon="7.26923">
        <ele>817.59997558594</ele>
        <time>2019-03-30T09:30:55.000Z</time>
      </trkpt>
      <trkpt lat="43.97367" lon="7.26923">
        <ele>817.79998779297</ele>
        <time>2019-03-30T09:30:58.000Z</time>
      </trkpt>
      <trkpt lat="43.97378" lon="7.26921">
        <ele>818.20001220703</ele>
        <time>2019-03-30T09:31:03.000Z</time>
      </trkpt>
      <trkpt lat="43.9739" lon="7.26921">
        <ele>818.79998779297</ele>
        <time>2019-03-30T09:31:08.000Z</time>
      </trkpt>
      <trkpt lat="43.97392" lon="7.26922">
        <ele>819</ele>
        <time>2019-03-30T09:31:09.000Z</time>
      </trkpt>
      <trkpt lat="43.974" lon="7.26919">
        <ele>819.59997558594</ele>
        <time>2019-03-30T09:31:13.000Z</time>
      </trkpt>
      <trkpt lat="43.97403" lon="7.26916">
        <ele>819.79998779297</ele>
        <time>2019-03-30T09:31:14.000Z</time>
      </trkpt>
      <trkpt lat="43.97404" lon="7.26905">
        <ele>820</ele>
        <time>2019-03-30T09:31:18.000Z</time>
      </trkpt>
      <trkpt lat="43.97397" lon="7.26898">
        <ele>820.20001220703</ele>
        <time>2019-03-30T09:31:22.000Z</time>
      </trkpt>
      <trkpt lat="43.97395" lon="7.26897">
        <ele>820.40002441406</ele>
        <time>2019-03-30T09:31:23.000Z</time>
      </trkpt>
      <trkpt lat="43.97391" lon="7.26893">
        <ele>820.79998779297</ele>
        <time>2019-03-30T09:31:25.000Z</time>
      </trkpt>
      <trkpt lat="43.97385" lon="7.26886">
        <ele>821.79998779297</ele>
        <time>2019-03-30T09:31:28.000Z</time>
      </trkpt>
      <trkpt lat="43.97382" lon="7.2688">
        <ele>822.20001220703</ele>
        <time>2019-03-30T09:31:30.000Z</time>
      </trkpt>
      <trkpt lat="43.97378" lon="7.2687">
        <ele>823</ele>
        <time>2019-03-30T09:31:34.000Z</time>
      </trkpt>
      <trkpt lat="43.97377" lon="7.26863">
        <ele>823.40002441406</ele>
        <time>2019-03-30T09:31:36.000Z</time>
      </trkpt>
      <trkpt lat="43.97378" lon="7.26851">
        <ele>824</ele>
        <time>2019-03-30T09:31:40.000Z</time>
      </trkpt>
      <trkpt lat="43.97379" lon="7.26849">
        <ele>824</ele>
        <time>2019-03-30T09:31:41.000Z</time>
      </trkpt>
      <trkpt lat="43.9738" lon="7.26846">
        <ele>824.20001220703</ele>
        <time>2019-03-30T09:31:42.000Z</time>
      </trkpt>
      <trkpt lat="43.97384" lon="7.26838">
        <ele>825</ele>
        <time>2019-03-30T09:31:46.000Z</time>
      </trkpt>
      <trkpt lat="43.97384" lon="7.26835">
        <ele>825.20001220703</ele>
        <time>2019-03-30T09:31:47.000Z</time>
      </trkpt>
      <trkpt lat="43.97382" lon="7.26823">
        <ele>826.20001220703</ele>
        <time>2019-03-30T09:31:52.000Z</time>
      </trkpt>
      <trkpt lat="43.97381" lon="7.2682">
        <ele>826.40002441406</ele>
        <time>2019-03-30T09:31:53.000Z</time>
      </trkpt>
      <trkpt lat="43.97372" lon="7.26806">
        <ele>827.20001220703</ele>
        <time>2019-03-30T09:31:59.000Z</time>
      </trkpt>
      <trkpt lat="43.97372" lon="7.26803">
        <ele>827.40002441406</ele>
        <time>2019-03-30T09:32:00.000Z</time>
      </trkpt>
      <trkpt lat="43.97374" lon="7.26792">
        <ele>828.20001220703</ele>
        <time>2019-03-30T09:32:05.000Z</time>
      </trkpt>
      <trkpt lat="43.97375" lon="7.2679">
        <ele>828.59997558594</ele>
        <time>2019-03-30T09:32:06.000Z</time>
      </trkpt>
      <trkpt lat="43.97376" lon="7.26776">
        <ele>829.59997558594</ele>
        <time>2019-03-30T09:32:11.000Z</time>
      </trkpt>
      <trkpt lat="43.97376" lon="7.26774">
        <ele>829.79998779297</ele>
        <time>2019-03-30T09:32:12.000Z</time>
      </trkpt>
      <trkpt lat="43.97375" lon="7.26764">
        <ele>830.79998779297</ele>
        <time>2019-03-30T09:32:16.000Z</time>
      </trkpt>
      <trkpt lat="43.97374" lon="7.26761">
        <ele>831.20001220703</ele>
        <time>2019-03-30T09:32:17.000Z</time>
      </trkpt>
      <trkpt lat="43.97366" lon="7.26756">
        <ele>831.79998779297</ele>
        <time>2019-03-30T09:32:22.000Z</time>
      </trkpt>
      <trkpt lat="43.97364" lon="7.26756">
        <ele>832.20001220703</ele>
        <time>2019-03-30T09:32:23.000Z</time>
      </trkpt>
      <trkpt lat="43.97355" lon="7.26754">
        <ele>833.20001220703</ele>
        <time>2019-03-30T09:32:28.000Z</time>
      </trkpt>
      <trkpt lat="43.97347" lon="7.26751">
        <ele>834.40002441406</ele>
        <time>2019-03-30T09:32:33.000Z</time>
      </trkpt>
      <trkpt lat="43.97342" lon="7.26747">
        <ele>834.79998779297</ele>
        <time>2019-03-30T09:32:36.000Z</time>
      </trkpt>
      <trkpt lat="43.97338" lon="7.26742">
        <ele>835.40002441406</ele>
        <time>2019-03-30T09:32:39.000Z</time>
      </trkpt>
      <trkpt lat="43.97336" lon="7.26735">
        <ele>836.59997558594</ele>
        <time>2019-03-30T09:32:43.000Z</time>
      </trkpt>
      <trkpt lat="43.97335" lon="7.26725">
        <ele>837.59997558594</ele>
        <time>2019-03-30T09:32:48.000Z</time>
      </trkpt>
      <trkpt lat="43.97334" lon="7.26723">
        <ele>838</ele>
        <time>2019-03-30T09:32:49.000Z</time>
      </trkpt>
      <trkpt lat="43.97332" lon="7.26721">
        <ele>838.59997558594</ele>
        <time>2019-03-30T09:32:51.000Z</time>
      </trkpt>
      <trkpt lat="43.97328" lon="7.26717">
        <ele>839.79998779297</ele>
        <time>2019-03-30T09:32:55.000Z</time>
      </trkpt>
      <trkpt lat="43.97321" lon="7.26713">
        <ele>840.79998779297</ele>
        <time>2019-03-30T09:33:00.000Z</time>
      </trkpt>
      <trkpt lat="43.97317" lon="7.2671">
        <ele>841.59997558594</ele>
        <time>2019-03-30T09:33:03.000Z</time>
      </trkpt>
      <trkpt lat="43.97315" lon="7.26708">
        <ele>842.20001220703</ele>
        <time>2019-03-30T09:33:05.000Z</time>
      </trkpt>
      <trkpt lat="43.97308" lon="7.26701">
        <ele>843.40002441406</ele>
        <time>2019-03-30T09:33:10.000Z</time>
      </trkpt>
      <trkpt lat="43.97304" lon="7.26693">
        <ele>844.40002441406</ele>
        <time>2019-03-30T09:33:15.000Z</time>
      </trkpt>
      <trkpt lat="43.97303" lon="7.26688">
        <ele>845.40002441406</ele>
        <time>2019-03-30T09:33:18.000Z</time>
      </trkpt>
      <trkpt lat="43.97303" lon="7.26686">
        <ele>845.59997558594</ele>
        <time>2019-03-30T09:33:19.000Z</time>
      </trkpt>
      <trkpt lat="43.97301" lon="7.26671">
        <ele>846.59997558594</ele>
        <time>2019-03-30T09:33:26.000Z</time>
      </trkpt>
      <trkpt lat="43.97302" lon="7.26661">
        <ele>847.59997558594</ele>
        <time>2019-03-30T09:33:31.000Z</time>
      </trkpt>
      <trkpt lat="43.97302" lon="7.26659">
        <ele>847.79998779297</ele>
        <time>2019-03-30T09:33:32.000Z</time>
      </trkpt>
      <trkpt lat="43.97303" lon="7.26655">
        <ele>848.59997558594</ele>
        <time>2019-03-30T09:33:35.000Z</time>
      </trkpt>
      <trkpt lat="43.97304" lon="7.26653">
        <ele>848.79998779297</ele>
        <time>2019-03-30T09:33:36.000Z</time>
      </trkpt>
      <trkpt lat="43.97304" lon="7.26651">
        <ele>849</ele>
        <time>2019-03-30T09:33:37.000Z</time>
      </trkpt>
      <trkpt lat="43.97304" lon="7.26643">
        <ele>849.79998779297</ele>
        <time>2019-03-30T09:33:40.000Z</time>
      </trkpt>
      <trkpt lat="43.97301" lon="7.26639">
        <ele>850.79998779297</ele>
        <time>2019-03-30T09:33:43.000Z</time>
      </trkpt>
      <trkpt lat="43.973" lon="7.26638">
        <ele>851</ele>
        <time>2019-03-30T09:33:44.000Z</time>
      </trkpt>
      <trkpt lat="43.97297" lon="7.26635">
        <ele>851.59997558594</ele>
        <time>2019-03-30T09:33:47.000Z</time>
      </trkpt>
      <trkpt lat="43.97295" lon="7.26634">
        <ele>852.20001220703</ele>
        <time>2019-03-30T09:33:49.000Z</time>
      </trkpt>
      <trkpt lat="43.97293" lon="7.26634">
        <ele>852.40002441406</ele>
        <time>2019-03-30T09:33:50.000Z</time>
      </trkpt>
      <trkpt lat="43.97289" lon="7.26632">
        <ele>853.20001220703</ele>
        <time>2019-03-30T09:33:54.000Z</time>
      </trkpt>
      <trkpt lat="43.97286" lon="7.2663">
        <ele>854</ele>
        <time>2019-03-30T09:33:57.000Z</time>
      </trkpt>
      <trkpt lat="43.97284" lon="7.26628">
        <ele>854.40002441406</ele>
        <time>2019-03-30T09:33:59.000Z</time>
      </trkpt>
      <trkpt lat="43.97278" lon="7.26624">
        <ele>855.59997558594</ele>
        <time>2019-03-30T09:34:04.000Z</time>
      </trkpt>
      <trkpt lat="43.97275" lon="7.26622">
        <ele>855.79998779297</ele>
        <time>2019-03-30T09:34:07.000Z</time>
      </trkpt>
      <trkpt lat="43.97268" lon="7.26617">
        <ele>856.59997558594</ele>
        <time>2019-03-30T09:34:12.000Z</time>
      </trkpt>
      <trkpt lat="43.97265" lon="7.26613">
        <ele>857.40002441406</ele>
        <time>2019-03-30T09:34:15.000Z</time>
      </trkpt>
      <trkpt lat="43.97263" lon="7.26608">
        <ele>858</ele>
        <time>2019-03-30T09:34:18.000Z</time>
      </trkpt>
      <trkpt lat="43.97265" lon="7.26604">
        <ele>858.79998779297</ele>
        <time>2019-03-30T09:34:21.000Z</time>
      </trkpt>
      <trkpt lat="43.97265" lon="7.26602">
        <ele>859.20001220703</ele>
        <time>2019-03-30T09:34:22.000Z</time>
      </trkpt>
      <trkpt lat="43.97267" lon="7.26597">
        <ele>860.40002441406</ele>
        <time>2019-03-30T09:34:26.000Z</time>
      </trkpt>
      <trkpt lat="43.97269" lon="7.26593">
        <ele>861</ele>
        <time>2019-03-30T09:34:29.000Z</time>
      </trkpt>
      <trkpt lat="43.97271" lon="7.26591">
        <ele>861.40002441406</ele>
        <time>2019-03-30T09:34:31.000Z</time>
      </trkpt>
      <trkpt lat="43.97273" lon="7.26585">
        <ele>862.20001220703</ele>
        <time>2019-03-30T09:34:35.000Z</time>
      </trkpt>
      <trkpt lat="43.97274" lon="7.26581">
        <ele>862.40002441406</ele>
        <time>2019-03-30T09:34:37.000Z</time>
      </trkpt>
      <trkpt lat="43.97273" lon="7.26568">
        <ele>863.79998779297</ele>
        <time>2019-03-30T09:34:43.000Z</time>
      </trkpt>
      <trkpt lat="43.97274" lon="7.26559">
        <ele>865.20001220703</ele>
        <time>2019-03-30T09:34:48.000Z</time>
      </trkpt>
      <trkpt lat="43.97275" lon="7.26555">
        <ele>866</ele>
        <time>2019-03-30T09:34:51.000Z</time>
      </trkpt>
      <trkpt lat="43.97275" lon="7.26553">
        <ele>866.20001220703</ele>
        <time>2019-03-30T09:34:52.000Z</time>
      </trkpt>
      <trkpt lat="43.97277" lon="7.26543">
        <ele>867.20001220703</ele>
        <time>2019-03-30T09:34:57.000Z</time>
      </trkpt>
      <trkpt lat="43.97277" lon="7.26542">
        <ele>867.40002441406</ele>
        <time>2019-03-30T09:34:58.000Z</time>
      </trkpt>
      <trkpt lat="43.97279" lon="7.26537">
        <ele>868.20001220703</ele>
        <time>2019-03-30T09:35:01.000Z</time>
      </trkpt>
      <trkpt lat="43.9728" lon="7.26535">
        <ele>868.79998779297</ele>
        <time>2019-03-30T09:35:03.000Z</time>
      </trkpt>
      <trkpt lat="43.97281" lon="7.26534">
        <ele>869</ele>
        <time>2019-03-30T09:35:04.000Z</time>
      </trkpt>
      <trkpt lat="43.97284" lon="7.26528">
        <ele>869.79998779297</ele>
        <time>2019-03-30T09:35:09.000Z</time>
      </trkpt>
      <trkpt lat="43.97286" lon="7.26523">
        <ele>870.20001220703</ele>
        <time>2019-03-30T09:35:12.000Z</time>
      </trkpt>
      <trkpt lat="43.97287" lon="7.2652">
        <ele>870.79998779297</ele>
        <time>2019-03-30T09:35:14.000Z</time>
      </trkpt>
      <trkpt lat="43.97287" lon="7.26517">
        <ele>871</ele>
        <time>2019-03-30T09:35:15.000Z</time>
      </trkpt>
      <trkpt lat="43.97286" lon="7.26511">
        <ele>871.79998779297</ele>
        <time>2019-03-30T09:35:18.000Z</time>
      </trkpt>
      <trkpt lat="43.97286" lon="7.2651">
        <ele>872</ele>
        <time>2019-03-30T09:35:19.000Z</time>
      </trkpt>
      <trkpt lat="43.97285" lon="7.26504">
        <ele>873</ele>
        <time>2019-03-30T09:35:23.000Z</time>
      </trkpt>
      <trkpt lat="43.97281" lon="7.26491">
        <ele>874</ele>
        <time>2019-03-30T09:35:29.000Z</time>
      </trkpt>
      <trkpt lat="43.9728" lon="7.26489">
        <ele>874.20001220703</ele>
        <time>2019-03-30T09:35:30.000Z</time>
      </trkpt>
      <trkpt lat="43.97277" lon="7.26483">
        <ele>875.20001220703</ele>
        <time>2019-03-30T09:35:33.000Z</time>
      </trkpt>
      <trkpt lat="43.97271" lon="7.26473">
        <ele>876.40002441406</ele>
        <time>2019-03-30T09:35:38.000Z</time>
      </trkpt>
      <trkpt lat="43.97266" lon="7.26461">
        <ele>877.59997558594</ele>
        <time>2019-03-30T09:35:44.000Z</time>
      </trkpt>
      <trkpt lat="43.97266" lon="7.2646">
        <ele>877.79998779297</ele>
        <time>2019-03-30T09:35:45.000Z</time>
      </trkpt>
      <trkpt lat="43.97266" lon="7.26453">
        <ele>878.59997558594</ele>
        <time>2019-03-30T09:35:48.000Z</time>
      </trkpt>
      <trkpt lat="43.97264" lon="7.26442">
        <ele>879.40002441406</ele>
        <time>2019-03-30T09:35:52.000Z</time>
      </trkpt>
      <trkpt lat="43.97264" lon="7.2644">
        <ele>879.79998779297</ele>
        <time>2019-03-30T09:35:53.000Z</time>
      </trkpt>
      <trkpt lat="43.97265" lon="7.26436">
        <ele>880.40002441406</ele>
        <time>2019-03-30T09:35:55.000Z</time>
      </trkpt>
      <trkpt lat="43.97267" lon="7.26435">
        <ele>880.79998779297</ele>
        <time>2019-03-30T09:35:56.000Z</time>
      </trkpt>
      <trkpt lat="43.97269" lon="7.26435">
        <ele>881</ele>
        <time>2019-03-30T09:35:57.000Z</time>
      </trkpt>
      <trkpt lat="43.97277" lon="7.26444">
        <ele>881.40002441406</ele>
        <time>2019-03-30T09:36:02.000Z</time>
      </trkpt>
      <trkpt lat="43.97289" lon="7.26452">
        <ele>881.59997558594</ele>
        <time>2019-03-30T09:36:07.000Z</time>
      </trkpt>
      <trkpt lat="43.97291" lon="7.26449">
        <ele>881.59997558594</ele>
        <time>2019-03-30T09:36:08.000Z</time>
      </trkpt>
      <trkpt lat="43.97296" lon="7.26445">
        <ele>881.59997558594</ele>
        <time>2019-03-30T09:36:10.000Z</time>
      </trkpt>
      <trkpt lat="43.97306" lon="7.26434">
        <ele>881.79998779297</ele>
        <time>2019-03-30T09:36:15.000Z</time>
      </trkpt>
      <trkpt lat="43.97308" lon="7.26431">
        <ele>882</ele>
        <time>2019-03-30T09:36:16.000Z</time>
      </trkpt>
      <trkpt lat="43.97311" lon="7.26425">
        <ele>882.40002441406</ele>
        <time>2019-03-30T09:36:18.000Z</time>
      </trkpt>
      <trkpt lat="43.97313" lon="7.26419">
        <ele>882.79998779297</ele>
        <time>2019-03-30T09:36:20.000Z</time>
      </trkpt>
      <trkpt lat="43.97316" lon="7.2641">
        <ele>883.20001220703</ele>
        <time>2019-03-30T09:36:23.000Z</time>
      </trkpt>
      <trkpt lat="43.97321" lon="7.26396">
        <ele>883.79998779297</ele>
        <time>2019-03-30T09:36:27.000Z</time>
      </trkpt>
      <trkpt lat="43.97324" lon="7.26378">
        <ele>884.20001220703</ele>
        <time>2019-03-30T09:36:32.000Z</time>
      </trkpt>
      <trkpt lat="43.97324" lon="7.26374">
        <ele>884.40002441406</ele>
        <time>2019-03-30T09:36:33.000Z</time>
      </trkpt>
      <trkpt lat="43.97326" lon="7.26355">
        <ele>885</ele>
        <time>2019-03-30T09:36:38.000Z</time>
      </trkpt>
      <trkpt lat="43.97329" lon="7.26336">
        <ele>885.40002441406</ele>
        <time>2019-03-30T09:36:43.000Z</time>
      </trkpt>
      <trkpt lat="43.97332" lon="7.26329">
        <ele>885.59997558594</ele>
        <time>2019-03-30T09:36:45.000Z</time>
      </trkpt>
      <trkpt lat="43.97337" lon="7.26321">
        <ele>886.20001220703</ele>
        <time>2019-03-30T09:36:48.000Z</time>
      </trkpt>
      <trkpt lat="43.97343" lon="7.26321">
        <ele>886.40002441406</ele>
        <time>2019-03-30T09:36:50.000Z</time>
      </trkpt>
      <trkpt lat="43.97345" lon="7.26322">
        <ele>886.59997558594</ele>
        <time>2019-03-30T09:36:51.000Z</time>
      </trkpt>
      <trkpt lat="43.97356" lon="7.26331">
        <ele>887.20001220703</ele>
        <time>2019-03-30T09:36:56.000Z</time>
      </trkpt>
      <trkpt lat="43.97361" lon="7.26335">
        <ele>887.59997558594</ele>
        <time>2019-03-30T09:36:58.000Z</time>
      </trkpt>
      <trkpt lat="43.97374" lon="7.26345">
        <ele>888.40002441406</ele>
        <time>2019-03-30T09:37:04.000Z</time>
      </trkpt>
      <trkpt lat="43.97375" lon="7.26347">
        <ele>888.59997558594</ele>
        <time>2019-03-30T09:37:05.000Z</time>
      </trkpt>
      <trkpt lat="43.97384" lon="7.26361">
        <ele>889.59997558594</ele>
        <time>2019-03-30T09:37:10.000Z</time>
      </trkpt>
      <trkpt lat="43.97386" lon="7.26363">
        <ele>889.79998779297</ele>
        <time>2019-03-30T09:37:11.000Z</time>
      </trkpt>
      <trkpt lat="43.97397" lon="7.26377">
        <ele>890.59997558594</ele>
        <time>2019-03-30T09:37:17.000Z</time>
      </trkpt>
      <trkpt lat="43.97402" lon="7.2638">
        <ele>890.79998779297</ele>
        <time>2019-03-30T09:37:19.000Z</time>
      </trkpt>
      <trkpt lat="43.97405" lon="7.26381">
        <ele>890.79998779297</ele>
        <time>2019-03-30T09:37:20.000Z</time>
      </trkpt>
      <trkpt lat="43.9741" lon="7.2638">
        <ele>891</ele>
        <time>2019-03-30T09:37:22.000Z</time>
      </trkpt>
      <trkpt lat="43.97434" lon="7.26373">
        <ele>892</ele>
        <time>2019-03-30T09:37:29.000Z</time>
      </trkpt>
      <trkpt lat="43.97444" lon="7.26375">
        <ele>892.20001220703</ele>
        <time>2019-03-30T09:37:32.000Z</time>
      </trkpt>
      <trkpt lat="43.97446" lon="7.26377">
        <ele>892.20001220703</ele>
        <time>2019-03-30T09:37:33.000Z</time>
      </trkpt>
      <trkpt lat="43.97452" lon="7.26384">
        <ele>892.40002441406</ele>
        <time>2019-03-30T09:37:36.000Z</time>
      </trkpt>
      <trkpt lat="43.97459" lon="7.26383">
        <ele>892.20001220703</ele>
        <time>2019-03-30T09:37:38.000Z</time>
      </trkpt>
      <trkpt lat="43.97475" lon="7.26385">
        <ele>892.20001220703</ele>
        <time>2019-03-30T09:37:42.000Z</time>
      </trkpt>
      <trkpt lat="43.97487" lon="7.26389">
        <ele>892.20001220703</ele>
        <time>2019-03-30T09:37:45.000Z</time>
      </trkpt>
      <trkpt lat="43.97497" lon="7.264">
        <ele>892</ele>
        <time>2019-03-30T09:37:48.000Z</time>
      </trkpt>
      <trkpt lat="43.975" lon="7.26415">
        <ele>892</ele>
        <time>2019-03-30T09:37:51.000Z</time>
      </trkpt>
      <trkpt lat="43.97506" lon="7.26438">
        <ele>893</ele>
        <time>2019-03-30T09:37:56.000Z</time>
      </trkpt>
      <trkpt lat="43.97511" lon="7.26444">
        <ele>893.20001220703</ele>
        <time>2019-03-30T09:37:58.000Z</time>
      </trkpt>
      <trkpt lat="43.97518" lon="7.26455">
        <ele>893.59997558594</ele>
        <time>2019-03-30T09:38:01.000Z</time>
      </trkpt>
      <trkpt lat="43.97526" lon="7.26464">
        <ele>894</ele>
        <time>2019-03-30T09:38:04.000Z</time>
      </trkpt>
      <trkpt lat="43.97531" lon="7.26468">
        <ele>894.40002441406</ele>
        <time>2019-03-30T09:38:06.000Z</time>
      </trkpt>
      <trkpt lat="43.97545" lon="7.26478">
        <ele>894.40002441406</ele>
        <time>2019-03-30T09:38:10.000Z</time>
      </trkpt>
      <trkpt lat="43.97552" lon="7.26487">
        <ele>894.20001220703</ele>
        <time>2019-03-30T09:38:12.000Z</time>
      </trkpt>
      <trkpt lat="43.97563" lon="7.26495">
        <ele>894.20001220703</ele>
        <time>2019-03-30T09:38:15.000Z</time>
      </trkpt>
      <trkpt lat="43.97571" lon="7.26495">
        <ele>894.40002441406</ele>
        <time>2019-03-30T09:38:17.000Z</time>
      </trkpt>
      <trkpt lat="43.97576" lon="7.26493">
        <ele>894.40002441406</ele>
        <time>2019-03-30T09:38:18.000Z</time>
      </trkpt>
      <trkpt lat="43.97588" lon="7.26487">
        <ele>894.20001220703</ele>
        <time>2019-03-30T09:38:21.000Z</time>
      </trkpt>
      <trkpt lat="43.97598" lon="7.26487">
        <ele>894.20001220703</ele>
        <time>2019-03-30T09:38:23.000Z</time>
      </trkpt>
      <trkpt lat="43.97612" lon="7.26501">
        <ele>894.59997558594</ele>
        <time>2019-03-30T09:38:27.000Z</time>
      </trkpt>
      <trkpt lat="43.97616" lon="7.26511">
        <ele>895</ele>
        <time>2019-03-30T09:38:29.000Z</time>
      </trkpt>
      <trkpt lat="43.97619" lon="7.26524">
        <ele>895.20001220703</ele>
        <time>2019-03-30T09:38:32.000Z</time>
      </trkpt>
      <trkpt lat="43.97625" lon="7.26547">
        <ele>896.20001220703</ele>
        <time>2019-03-30T09:38:37.000Z</time>
      </trkpt>
      <trkpt lat="43.97628" lon="7.26557">
        <ele>896.79998779297</ele>
        <time>2019-03-30T09:38:39.000Z</time>
      </trkpt>
      <trkpt lat="43.97637" lon="7.26585">
        <ele>896.79998779297</ele>
        <time>2019-03-30T09:38:45.000Z</time>
      </trkpt>
      <trkpt lat="43.97642" lon="7.26602">
        <ele>897.40002441406</ele>
        <time>2019-03-30T09:38:49.000Z</time>
      </trkpt>
      <trkpt lat="43.97646" lon="7.26621">
        <ele>898</ele>
        <time>2019-03-30T09:38:53.000Z</time>
      </trkpt>
      <trkpt lat="43.97658" lon="7.26649">
        <ele>898</ele>
        <time>2019-03-30T09:39:00.000Z</time>
      </trkpt>
      <trkpt lat="43.97667" lon="7.26647">
        <ele>898</ele>
        <time>2019-03-30T09:39:03.000Z</time>
      </trkpt>
      <trkpt lat="43.97676" lon="7.26636">
        <ele>898</ele>
        <time>2019-03-30T09:39:06.000Z</time>
      </trkpt>
      <trkpt lat="43.97679" lon="7.26631">
        <ele>898</ele>
        <time>2019-03-30T09:39:07.000Z</time>
      </trkpt>
      <trkpt lat="43.97699" lon="7.26605">
        <ele>897.59997558594</ele>
        <time>2019-03-30T09:39:13.000Z</time>
      </trkpt>
      <trkpt lat="43.97707" lon="7.26605">
        <ele>897.59997558594</ele>
        <time>2019-03-30T09:39:15.000Z</time>
      </trkpt>
      <trkpt lat="43.97712" lon="7.26613">
        <ele>897.59997558594</ele>
        <time>2019-03-30T09:39:17.000Z</time>
      </trkpt>
      <trkpt lat="43.97717" lon="7.26622">
        <ele>898</ele>
        <time>2019-03-30T09:39:19.000Z</time>
      </trkpt>
      <trkpt lat="43.97724" lon="7.2663">
        <ele>898.20001220703</ele>
        <time>2019-03-30T09:39:21.000Z</time>
      </trkpt>
      <trkpt lat="43.97732" lon="7.26638">
        <ele>898.40002441406</ele>
        <time>2019-03-30T09:39:23.000Z</time>
      </trkpt>
      <trkpt lat="43.97741" lon="7.26643">
        <ele>898.59997558594</ele>
        <time>2019-03-30T09:39:25.000Z</time>
      </trkpt>
      <trkpt lat="43.97758" lon="7.26654">
        <ele>898.20001220703</ele>
        <time>2019-03-30T09:39:29.000Z</time>
      </trkpt>
      <trkpt lat="43.97767" lon="7.26664">
        <ele>899</ele>
        <time>2019-03-30T09:39:32.000Z</time>
      </trkpt>
      <trkpt lat="43.97771" lon="7.26666">
        <ele>899.40002441406</ele>
        <time>2019-03-30T09:39:33.000Z</time>
      </trkpt>
      <trkpt lat="43.97784" lon="7.26684">
        <ele>899.40002441406</ele>
        <time>2019-03-30T09:39:37.000Z</time>
      </trkpt>
      <trkpt lat="43.97786" lon="7.2669">
        <ele>899.59997558594</ele>
        <time>2019-03-30T09:39:40.000Z</time>
      </trkpt>
      <trkpt lat="43.97786" lon="7.26689">
        <ele>899.59997558594</ele>
        <time>2019-03-30T09:39:41.000Z</time>
      </trkpt>
      <trkpt lat="43.97788" lon="7.26686">
        <ele>899.40002441406</ele>
        <time>2019-03-30T09:39:43.000Z</time>
      </trkpt>
      <trkpt lat="43.97794" lon="7.26676">
        <ele>899</ele>
        <time>2019-03-30T09:39:46.000Z</time>
      </trkpt>
      <trkpt lat="43.97796" lon="7.26673">
        <ele>899</ele>
        <time>2019-03-30T09:39:47.000Z</time>
      </trkpt>
      <trkpt lat="43.97805" lon="7.26668">
        <ele>898.79998779297</ele>
        <time>2019-03-30T09:39:50.000Z</time>
      </trkpt>
      <trkpt lat="43.97808" lon="7.26669">
        <ele>899</ele>
        <time>2019-03-30T09:39:51.000Z</time>
      </trkpt>
      <trkpt lat="43.97816" lon="7.2667">
        <ele>899</ele>
        <time>2019-03-30T09:39:53.000Z</time>
      </trkpt>
      <trkpt lat="43.97823" lon="7.26668">
        <ele>899.20001220703</ele>
        <time>2019-03-30T09:39:55.000Z</time>
      </trkpt>
      <trkpt lat="43.9784" lon="7.26675">
        <ele>899.79998779297</ele>
        <time>2019-03-30T09:39:59.000Z</time>
      </trkpt>
      <trkpt lat="43.97863" lon="7.26677">
        <ele>900.20001220703</ele>
        <time>2019-03-30T09:40:03.000Z</time>
      </trkpt>
      <trkpt lat="43.97869" lon="7.26677">
        <ele>900</ele>
        <time>2019-03-30T09:40:04.000Z</time>
      </trkpt>
      <trkpt lat="43.97881" lon="7.26676">
        <ele>899.59997558594</ele>
        <time>2019-03-30T09:40:07.000Z</time>
      </trkpt>
      <trkpt lat="43.97888" lon="7.26678">
        <ele>900.20001220703</ele>
        <time>2019-03-30T09:40:10.000Z</time>
      </trkpt>
      <trkpt lat="43.97892" lon="7.26677">
        <ele>900</ele>
        <time>2019-03-30T09:40:17.000Z</time>
      </trkpt>
      <trkpt lat="43.97894" lon="7.26668">
        <ele>899.79998779297</ele>
        <time>2019-03-30T09:40:23.000Z</time>
      </trkpt>
      <trkpt lat="43.97893" lon="7.26657">
        <ele>900.20001220703</ele>
        <time>2019-03-30T09:40:28.000Z</time>
      </trkpt>
      <trkpt lat="43.97892" lon="7.26643">
        <ele>900</ele>
        <time>2019-03-30T09:40:32.000Z</time>
      </trkpt>
      <trkpt lat="43.9789" lon="7.26641">
        <ele>900.20001220703</ele>
        <time>2019-03-30T09:40:33.000Z</time>
      </trkpt>
      <trkpt lat="43.97883" lon="7.26635">
        <ele>900.59997558594</ele>
        <time>2019-03-30T09:40:35.000Z</time>
      </trkpt>
      <trkpt lat="43.9787" lon="7.2662">
        <ele>901.40002441406</ele>
        <time>2019-03-30T09:40:39.000Z</time>
      </trkpt>
      <trkpt lat="43.97865" lon="7.26612">
        <ele>902</ele>
        <time>2019-03-30T09:40:41.000Z</time>
      </trkpt>
      <trkpt lat="43.97854" lon="7.26594">
        <ele>903.20001220703</ele>
        <time>2019-03-30T09:40:45.000Z</time>
      </trkpt>
      <trkpt lat="43.97843" lon="7.26577">
        <ele>903.79998779297</ele>
        <time>2019-03-30T09:40:49.000Z</time>
      </trkpt>
      <trkpt lat="43.97836" lon="7.2657">
        <ele>904.20001220703</ele>
        <time>2019-03-30T09:40:51.000Z</time>
      </trkpt>
      <trkpt lat="43.97831" lon="7.26557">
        <ele>905.20001220703</ele>
        <time>2019-03-30T09:40:54.000Z</time>
      </trkpt>
      <trkpt lat="43.97823" lon="7.26533">
        <ele>905.59997558594</ele>
        <time>2019-03-30T09:40:59.000Z</time>
      </trkpt>
      <trkpt lat="43.9782" lon="7.26517">
        <ele>906.59997558594</ele>
        <time>2019-03-30T09:41:03.000Z</time>
      </trkpt>
      <trkpt lat="43.97818" lon="7.26509">
        <ele>907</ele>
        <time>2019-03-30T09:41:05.000Z</time>
      </trkpt>
      <trkpt lat="43.97814" lon="7.26482">
        <ele>907.40002441406</ele>
        <time>2019-03-30T09:41:11.000Z</time>
      </trkpt>
      <trkpt lat="43.97813" lon="7.26478">
        <ele>907.59997558594</ele>
        <time>2019-03-30T09:41:12.000Z</time>
      </trkpt>
      <trkpt lat="43.9781" lon="7.26453">
        <ele>908.79998779297</ele>
        <time>2019-03-30T09:41:18.000Z</time>
      </trkpt>
      <trkpt lat="43.97809" lon="7.26449">
        <ele>909</ele>
        <time>2019-03-30T09:41:19.000Z</time>
      </trkpt>
      <trkpt lat="43.97803" lon="7.26425">
        <ele>909.79998779297</ele>
        <time>2019-03-30T09:41:25.000Z</time>
      </trkpt>
      <trkpt lat="43.97802" lon="7.26416">
        <ele>910.20001220703</ele>
        <time>2019-03-30T09:41:27.000Z</time>
      </trkpt>
      <trkpt lat="43.97802" lon="7.26399">
        <ele>910.79998779297</ele>
        <time>2019-03-30T09:41:31.000Z</time>
      </trkpt>
      <trkpt lat="43.97801" lon="7.26392">
        <ele>911</ele>
        <time>2019-03-30T09:41:33.000Z</time>
      </trkpt>
      <trkpt lat="43.97794" lon="7.26373">
        <ele>912</ele>
        <time>2019-03-30T09:41:38.000Z</time>
      </trkpt>
      <trkpt lat="43.97784" lon="7.26344">
        <ele>912.79998779297</ele>
        <time>2019-03-30T09:41:46.000Z</time>
      </trkpt>
      <trkpt lat="43.97784" lon="7.26341">
        <ele>913</ele>
        <time>2019-03-30T09:41:47.000Z</time>
      </trkpt>
      <trkpt lat="43.97784" lon="7.26327">
        <ele>913.79998779297</ele>
        <time>2019-03-30T09:41:51.000Z</time>
      </trkpt>
      <trkpt lat="43.97786" lon="7.26326">
        <ele>913.79998779297</ele>
        <time>2019-03-30T09:41:52.000Z</time>
      </trkpt>
      <trkpt lat="43.9779" lon="7.26323">
        <ele>914.20001220703</ele>
        <time>2019-03-30T09:41:54.000Z</time>
      </trkpt>
      <trkpt lat="43.97792" lon="7.26322">
        <ele>914.20001220703</ele>
        <time>2019-03-30T09:41:55.000Z</time>
      </trkpt>
      <trkpt lat="43.97805" lon="7.26314">
        <ele>915</ele>
        <time>2019-03-30T09:42:01.000Z</time>
      </trkpt>
      <trkpt lat="43.97806" lon="7.26313">
        <ele>915.20001220703</ele>
        <time>2019-03-30T09:42:02.000Z</time>
      </trkpt>
      <trkpt lat="43.97814" lon="7.26307">
        <ele>916.40002441406</ele>
        <time>2019-03-30T09:42:06.000Z</time>
      </trkpt>
      <trkpt lat="43.97816" lon="7.26306">
        <ele>916.59997558594</ele>
        <time>2019-03-30T09:42:07.000Z</time>
      </trkpt>
      <trkpt lat="43.97823" lon="7.26299">
        <ele>917.40002441406</ele>
        <time>2019-03-30T09:42:11.000Z</time>
      </trkpt>
      <trkpt lat="43.97829" lon="7.26297">
        <ele>918.20001220703</ele>
        <time>2019-03-30T09:42:14.000Z</time>
      </trkpt>
      <trkpt lat="43.9783" lon="7.26298">
        <ele>918.40002441406</ele>
        <time>2019-03-30T09:42:15.000Z</time>
      </trkpt>
      <trkpt lat="43.97838" lon="7.26301">
        <ele>919.59997558594</ele>
        <time>2019-03-30T09:42:20.000Z</time>
      </trkpt>
      <trkpt lat="43.97844" lon="7.26303">
        <ele>920.79998779297</ele>
        <time>2019-03-30T09:42:24.000Z</time>
      </trkpt>
      <trkpt lat="43.97848" lon="7.26303">
        <ele>921.40002441406</ele>
        <time>2019-03-30T09:42:27.000Z</time>
      </trkpt>
      <trkpt lat="43.9785" lon="7.26304">
        <ele>921.79998779297</ele>
        <time>2019-03-30T09:42:28.000Z</time>
      </trkpt>
      <trkpt lat="43.97858" lon="7.26302">
        <ele>922.20001220703</ele>
        <time>2019-03-30T09:42:32.000Z</time>
      </trkpt>
      <trkpt lat="43.97863" lon="7.26298">
        <ele>922.79998779297</ele>
        <time>2019-03-30T09:42:35.000Z</time>
      </trkpt>
      <trkpt lat="43.9787" lon="7.26291">
        <ele>923.59997558594</ele>
        <time>2019-03-30T09:42:40.000Z</time>
      </trkpt>
      <trkpt lat="43.97872" lon="7.2629">
        <ele>923.79998779297</ele>
        <time>2019-03-30T09:42:41.000Z</time>
      </trkpt>
      <trkpt lat="43.9788" lon="7.26281">
        <ele>924.79998779297</ele>
        <time>2019-03-30T09:42:46.000Z</time>
      </trkpt>
      <trkpt lat="43.97881" lon="7.26279">
        <ele>925</ele>
        <time>2019-03-30T09:42:47.000Z</time>
      </trkpt>
      <trkpt lat="43.97885" lon="7.26265">
        <ele>925.79998779297</ele>
        <time>2019-03-30T09:42:52.000Z</time>
      </trkpt>
      <trkpt lat="43.97886" lon="7.26262">
        <ele>926</ele>
        <time>2019-03-30T09:42:53.000Z</time>
      </trkpt>
      <trkpt lat="43.9789" lon="7.26244">
        <ele>927.20001220703</ele>
        <time>2019-03-30T09:42:59.000Z</time>
      </trkpt>
      <trkpt lat="43.97892" lon="7.26238">
        <ele>927.59997558594</ele>
        <time>2019-03-30T09:43:01.000Z</time>
      </trkpt>
      <trkpt lat="43.97895" lon="7.26231">
        <ele>928.59997558594</ele>
        <time>2019-03-30T09:43:04.000Z</time>
      </trkpt>
      <trkpt lat="43.97898" lon="7.26221">
        <ele>929.40002441406</ele>
        <time>2019-03-30T09:43:08.000Z</time>
      </trkpt>
      <trkpt lat="43.97899" lon="7.26218">
        <ele>929.59997558594</ele>
        <time>2019-03-30T09:43:09.000Z</time>
      </trkpt>
      <trkpt lat="43.97908" lon="7.26208">
        <ele>930.79998779297</ele>
        <time>2019-03-30T09:43:15.000Z</time>
      </trkpt>
      <trkpt lat="43.97917" lon="7.26208">
        <ele>931.79998779297</ele>
        <time>2019-03-30T09:43:22.000Z</time>
      </trkpt>
      <trkpt lat="43.9792" lon="7.26207">
        <ele>932.20001220703</ele>
        <time>2019-03-30T09:43:23.000Z</time>
      </trkpt>
      <trkpt lat="43.97928" lon="7.26206">
        <ele>933.20001220703</ele>
        <time>2019-03-30T09:43:28.000Z</time>
      </trkpt>
      <trkpt lat="43.9793" lon="7.26206">
        <ele>933.40002441406</ele>
        <time>2019-03-30T09:43:29.000Z</time>
      </trkpt>
      <trkpt lat="43.97937" lon="7.26204">
        <ele>934.40002441406</ele>
        <time>2019-03-30T09:43:34.000Z</time>
      </trkpt>
      <trkpt lat="43.9794" lon="7.26203">
        <ele>934.79998779297</ele>
        <time>2019-03-30T09:43:36.000Z</time>
      </trkpt>
      <trkpt lat="43.97945" lon="7.26201">
        <ele>935.40002441406</ele>
        <time>2019-03-30T09:43:39.000Z</time>
      </trkpt>
      <trkpt lat="43.97952" lon="7.26198">
        <ele>936.20001220703</ele>
        <time>2019-03-30T09:43:43.000Z</time>
      </trkpt>
      <trkpt lat="43.97956" lon="7.26198">
        <ele>936.59997558594</ele>
        <time>2019-03-30T09:43:45.000Z</time>
      </trkpt>
      <trkpt lat="43.97963" lon="7.26196">
        <ele>937.59997558594</ele>
        <time>2019-03-30T09:43:49.000Z</time>
      </trkpt>
      <trkpt lat="43.97966" lon="7.26194">
        <ele>938.20001220703</ele>
        <time>2019-03-30T09:43:51.000Z</time>
      </trkpt>
      <trkpt lat="43.97971" lon="7.26192">
        <ele>938.59997558594</ele>
        <time>2019-03-30T09:43:54.000Z</time>
      </trkpt>
      <trkpt lat="43.97975" lon="7.26189">
        <ele>939.20001220703</ele>
        <time>2019-03-30T09:43:57.000Z</time>
      </trkpt>
      <trkpt lat="43.9798" lon="7.26187">
        <ele>939.79998779297</ele>
        <time>2019-03-30T09:43:59.000Z</time>
      </trkpt>
      <trkpt lat="43.97988" lon="7.26184">
        <ele>940.59997558594</ele>
        <time>2019-03-30T09:44:04.000Z</time>
      </trkpt>
      <trkpt lat="43.9799" lon="7.26184">
        <ele>940.79998779297</ele>
        <time>2019-03-30T09:44:05.000Z</time>
      </trkpt>
      <trkpt lat="43.97997" lon="7.26182">
        <ele>942</ele>
        <time>2019-03-30T09:44:09.000Z</time>
      </trkpt>
      <trkpt lat="43.98" lon="7.26181">
        <ele>942.40002441406</ele>
        <time>2019-03-30T09:44:11.000Z</time>
      </trkpt>
      <trkpt lat="43.98006" lon="7.26182">
        <ele>943</ele>
        <time>2019-03-30T09:44:14.000Z</time>
      </trkpt>
      <trkpt lat="43.9801" lon="7.26185">
        <ele>943.40002441406</ele>
        <time>2019-03-30T09:44:16.000Z</time>
      </trkpt>
      <trkpt lat="43.98017" lon="7.26202">
        <ele>944</ele>
        <time>2019-03-30T09:44:22.000Z</time>
      </trkpt>
      <trkpt lat="43.98021" lon="7.26213">
        <ele>944.20001220703</ele>
        <time>2019-03-30T09:44:25.000Z</time>
      </trkpt>
      <trkpt lat="43.98024" lon="7.26224">
        <ele>944.79998779297</ele>
        <time>2019-03-30T09:44:28.000Z</time>
      </trkpt>
      <trkpt lat="43.98025" lon="7.26228">
        <ele>945</ele>
        <time>2019-03-30T09:44:29.000Z</time>
      </trkpt>
      <trkpt lat="43.98027" lon="7.26236">
        <ele>945.40002441406</ele>
        <time>2019-03-30T09:44:31.000Z</time>
      </trkpt>
      <trkpt lat="43.98031" lon="7.26249">
        <ele>945.20001220703</ele>
        <time>2019-03-30T09:44:34.000Z</time>
      </trkpt>
      <trkpt lat="43.98035" lon="7.2626">
        <ele>945.79998779297</ele>
        <time>2019-03-30T09:44:38.000Z</time>
      </trkpt>
      <trkpt lat="43.98037" lon="7.26259">
        <ele>946</ele>
        <time>2019-03-30T09:44:39.000Z</time>
      </trkpt>
      <trkpt lat="43.98047" lon="7.26261">
        <ele>946</ele>
        <time>2019-03-30T09:44:43.000Z</time>
      </trkpt>
      <trkpt lat="43.98053" lon="7.26267">
        <ele>946.40002441406</ele>
        <time>2019-03-30T09:44:45.000Z</time>
      </trkpt>
      <trkpt lat="43.9806" lon="7.26276">
        <ele>947.20001220703</ele>
        <time>2019-03-30T09:44:48.000Z</time>
      </trkpt>
      <trkpt lat="43.98068" lon="7.26287">
        <ele>947.40002441406</ele>
        <time>2019-03-30T09:44:52.000Z</time>
      </trkpt>
      <trkpt lat="43.98068" lon="7.26289">
        <ele>947.59997558594</ele>
        <time>2019-03-30T09:44:53.000Z</time>
      </trkpt>
      <trkpt lat="43.98071" lon="7.26295">
        <ele>948</ele>
        <time>2019-03-30T09:44:55.000Z</time>
      </trkpt>
      <trkpt lat="43.98083" lon="7.26307">
        <ele>948.40002441406</ele>
        <time>2019-03-30T09:44:59.000Z</time>
      </trkpt>
      <trkpt lat="43.98092" lon="7.26305">
        <ele>948.40002441406</ele>
        <time>2019-03-30T09:45:02.000Z</time>
      </trkpt>
      <trkpt lat="43.98097" lon="7.26299">
        <ele>948.40002441406</ele>
        <time>2019-03-30T09:45:04.000Z</time>
      </trkpt>
      <trkpt lat="43.98105" lon="7.2629">
        <ele>948.59997558594</ele>
        <time>2019-03-30T09:45:07.000Z</time>
      </trkpt>
      <trkpt lat="43.98109" lon="7.26282">
        <ele>949</ele>
        <time>2019-03-30T09:45:09.000Z</time>
      </trkpt>
      <trkpt lat="43.98121" lon="7.26268">
        <ele>949.59997558594</ele>
        <time>2019-03-30T09:45:13.000Z</time>
      </trkpt>
      <trkpt lat="43.98124" lon="7.26265">
        <ele>949.59997558594</ele>
        <time>2019-03-30T09:45:14.000Z</time>
      </trkpt>
      <trkpt lat="43.98127" lon="7.26263">
        <ele>949.79998779297</ele>
        <time>2019-03-30T09:45:15.000Z</time>
      </trkpt>
      <trkpt lat="43.98135" lon="7.26265">
        <ele>949.79998779297</ele>
        <time>2019-03-30T09:45:17.000Z</time>
      </trkpt>
      <trkpt lat="43.98153" lon="7.26276">
        <ele>950.20001220703</ele>
        <time>2019-03-30T09:45:22.000Z</time>
      </trkpt>
      <trkpt lat="43.98163" lon="7.26286">
        <ele>950.79998779297</ele>
        <time>2019-03-30T09:45:25.000Z</time>
      </trkpt>
      <trkpt lat="43.98173" lon="7.26295">
        <ele>951.20001220703</ele>
        <time>2019-03-30T09:45:28.000Z</time>
      </trkpt>
      <trkpt lat="43.98182" lon="7.26307">
        <ele>951.79998779297</ele>
        <time>2019-03-30T09:45:32.000Z</time>
      </trkpt>
      <trkpt lat="43.9819" lon="7.26313">
        <ele>952.40002441406</ele>
        <time>2019-03-30T09:45:35.000Z</time>
      </trkpt>
      <trkpt lat="43.98192" lon="7.26311">
        <ele>952.59997558594</ele>
        <time>2019-03-30T09:45:36.000Z</time>
      </trkpt>
      <trkpt lat="43.98195" lon="7.26307">
        <ele>952.79998779297</ele>
        <time>2019-03-30T09:45:37.000Z</time>
      </trkpt>
      <trkpt lat="43.982" lon="7.26299">
        <ele>953.20001220703</ele>
        <time>2019-03-30T09:45:39.000Z</time>
      </trkpt>
      <trkpt lat="43.98203" lon="7.26295">
        <ele>953</ele>
        <time>2019-03-30T09:45:40.000Z</time>
      </trkpt>
      <trkpt lat="43.9821" lon="7.2629">
        <ele>953</ele>
        <time>2019-03-30T09:45:42.000Z</time>
      </trkpt>
      <trkpt lat="43.98214" lon="7.2629">
        <ele>953</ele>
        <time>2019-03-30T09:45:43.000Z</time>
      </trkpt>
      <trkpt lat="43.98226" lon="7.26287">
        <ele>953.20001220703</ele>
        <time>2019-03-30T09:45:46.000Z</time>
      </trkpt>
      <trkpt lat="43.98229" lon="7.26284">
        <ele>953.20001220703</ele>
        <time>2019-03-30T09:45:47.000Z</time>
      </trkpt>
      <trkpt lat="43.98239" lon="7.2628">
        <ele>953.40002441406</ele>
        <time>2019-03-30T09:45:50.000Z</time>
      </trkpt>
      <trkpt lat="43.98247" lon="7.26289">
        <ele>953.79998779297</ele>
        <time>2019-03-30T09:45:53.000Z</time>
      </trkpt>
      <trkpt lat="43.98251" lon="7.26292">
        <ele>954.20001220703</ele>
        <time>2019-03-30T09:45:54.000Z</time>
      </trkpt>
      <trkpt lat="43.98268" lon="7.263">
        <ele>954.79998779297</ele>
        <time>2019-03-30T09:45:59.000Z</time>
      </trkpt>
      <trkpt lat="43.98279" lon="7.26307">
        <ele>955.40002441406</ele>
        <time>2019-03-30T09:46:03.000Z</time>
      </trkpt>
      <trkpt lat="43.98286" lon="7.26312">
        <ele>956.40002441406</ele>
        <time>2019-03-30T09:46:06.000Z</time>
      </trkpt>
      <trkpt lat="43.98294" lon="7.26315">
        <ele>956.59997558594</ele>
        <time>2019-03-30T09:46:09.000Z</time>
      </trkpt>
      <trkpt lat="43.9831" lon="7.2632">
        <ele>957.59997558594</ele>
        <time>2019-03-30T09:46:14.000Z</time>
      </trkpt>
      <trkpt lat="43.98312" lon="7.26321">
        <ele>957.79998779297</ele>
        <time>2019-03-30T09:46:15.000Z</time>
      </trkpt>
      <trkpt lat="43.98321" lon="7.26331">
        <ele>958.40002441406</ele>
        <time>2019-03-30T09:46:19.000Z</time>
      </trkpt>
      <trkpt lat="43.98323" lon="7.26333">
        <ele>958.59997558594</ele>
        <time>2019-03-30T09:46:20.000Z</time>
      </trkpt>
      <trkpt lat="43.98333" lon="7.26333">
        <ele>959</ele>
        <time>2019-03-30T09:46:23.000Z</time>
      </trkpt>
      <trkpt lat="43.98344" lon="7.26325">
        <ele>959.20001220703</ele>
        <time>2019-03-30T09:46:27.000Z</time>
      </trkpt>
      <trkpt lat="43.98347" lon="7.26326">
        <ele>959.40002441406</ele>
        <time>2019-03-30T09:46:28.000Z</time>
      </trkpt>
      <trkpt lat="43.98352" lon="7.2633">
        <ele>960</ele>
        <time>2019-03-30T09:46:30.000Z</time>
      </trkpt>
      <trkpt lat="43.98354" lon="7.26333">
        <ele>960.20001220703</ele>
        <time>2019-03-30T09:46:31.000Z</time>
      </trkpt>
      <trkpt lat="43.9836" lon="7.26336">
        <ele>960.59997558594</ele>
        <time>2019-03-30T09:46:33.000Z</time>
      </trkpt>
      <trkpt lat="43.98373" lon="7.26335">
        <ele>961.20001220703</ele>
        <time>2019-03-30T09:46:37.000Z</time>
      </trkpt>
      <trkpt lat="43.9838" lon="7.26328">
        <ele>961.40002441406</ele>
        <time>2019-03-30T09:46:40.000Z</time>
      </trkpt>
      <trkpt lat="43.98395" lon="7.2632">
        <ele>962</ele>
        <time>2019-03-30T09:46:45.000Z</time>
      </trkpt>
      <trkpt lat="43.98402" lon="7.26318">
        <ele>962.20001220703</ele>
        <time>2019-03-30T09:46:47.000Z</time>
      </trkpt>
      <trkpt lat="43.98405" lon="7.26316">
        <ele>962.40002441406</ele>
        <time>2019-03-30T09:46:48.000Z</time>
      </trkpt>
      <trkpt lat="43.98407" lon="7.26312">
        <ele>962.40002441406</ele>
        <time>2019-03-30T09:46:49.000Z</time>
      </trkpt>
      <trkpt lat="43.98422" lon="7.2629">
        <ele>962.40002441406</ele>
        <time>2019-03-30T09:46:55.000Z</time>
      </trkpt>
      <trkpt lat="43.98434" lon="7.26285">
        <ele>962.59997558594</ele>
        <time>2019-03-30T09:46:59.000Z</time>
      </trkpt>
      <trkpt lat="43.98442" lon="7.26291">
        <ele>963.40002441406</ele>
        <time>2019-03-30T09:47:02.000Z</time>
      </trkpt>
      <trkpt lat="43.98445" lon="7.26293">
        <ele>963.40002441406</ele>
        <time>2019-03-30T09:47:03.000Z</time>
      </trkpt>
      <trkpt lat="43.98457" lon="7.26304">
        <ele>964</ele>
        <time>2019-03-30T09:47:09.000Z</time>
      </trkpt>
      <trkpt lat="43.98462" lon="7.26308">
        <ele>964.40002441406</ele>
        <time>2019-03-30T09:47:11.000Z</time>
      </trkpt>
      <trkpt lat="43.98468" lon="7.2631">
        <ele>965</ele>
        <time>2019-03-30T09:47:14.000Z</time>
      </trkpt>
      <trkpt lat="43.98469" lon="7.26309">
        <ele>965.20001220703</ele>
        <time>2019-03-30T09:47:15.000Z</time>
      </trkpt>
      <trkpt lat="43.98471" lon="7.26308">
        <ele>965.40002441406</ele>
        <time>2019-03-30T09:47:16.000Z</time>
      </trkpt>
      <trkpt lat="43.98473" lon="7.26305">
        <ele>965.79998779297</ele>
        <time>2019-03-30T09:47:18.000Z</time>
      </trkpt>
      <trkpt lat="43.98475" lon="7.26303">
        <ele>966</ele>
        <time>2019-03-30T09:47:19.000Z</time>
      </trkpt>
      <trkpt lat="43.98481" lon="7.26283">
        <ele>966</ele>
        <time>2019-03-30T09:47:25.000Z</time>
      </trkpt>
      <trkpt lat="43.98487" lon="7.26265">
        <ele>966.59997558594</ele>
        <time>2019-03-30T09:47:30.000Z</time>
      </trkpt>
      <trkpt lat="43.98491" lon="7.26262">
        <ele>967</ele>
        <time>2019-03-30T09:47:32.000Z</time>
      </trkpt>
      <trkpt lat="43.98503" lon="7.26264">
        <ele>967.59997558594</ele>
        <time>2019-03-30T09:47:36.000Z</time>
      </trkpt>
      <trkpt lat="43.98505" lon="7.26266">
        <ele>967.79998779297</ele>
        <time>2019-03-30T09:47:37.000Z</time>
      </trkpt>
      <trkpt lat="43.98506" lon="7.26269">
        <ele>968</ele>
        <time>2019-03-30T09:47:38.000Z</time>
      </trkpt>
      <trkpt lat="43.9851" lon="7.26278">
        <ele>968.59997558594</ele>
        <time>2019-03-30T09:47:41.000Z</time>
      </trkpt>
      <trkpt lat="43.98515" lon="7.26287">
        <ele>969</ele>
        <time>2019-03-30T09:47:44.000Z</time>
      </trkpt>
      <trkpt lat="43.98518" lon="7.26293">
        <ele>969.59997558594</ele>
        <time>2019-03-30T09:47:47.000Z</time>
      </trkpt>
      <trkpt lat="43.98521" lon="7.26296">
        <ele>970</ele>
        <time>2019-03-30T09:47:49.000Z</time>
      </trkpt>
      <trkpt lat="43.98528" lon="7.26302">
        <ele>970.59997558594</ele>
        <time>2019-03-30T09:47:53.000Z</time>
      </trkpt>
      <trkpt lat="43.98533" lon="7.26304">
        <ele>971.20001220703</ele>
        <time>2019-03-30T09:47:55.000Z</time>
      </trkpt>
      <trkpt lat="43.98542" lon="7.26307">
        <ele>972</ele>
        <time>2019-03-30T09:47:59.000Z</time>
      </trkpt>
      <trkpt lat="43.98549" lon="7.26309">
        <ele>972.40002441406</ele>
        <time>2019-03-30T09:48:02.000Z</time>
      </trkpt>
      <trkpt lat="43.98552" lon="7.26309">
        <ele>972.40002441406</ele>
        <time>2019-03-30T09:48:03.000Z</time>
      </trkpt>
      <trkpt lat="43.98561" lon="7.26311">
        <ele>973</ele>
        <time>2019-03-30T09:48:07.000Z</time>
      </trkpt>
      <trkpt lat="43.98565" lon="7.26313">
        <ele>973.40002441406</ele>
        <time>2019-03-30T09:48:09.000Z</time>
      </trkpt>
      <trkpt lat="43.98567" lon="7.26315">
        <ele>973.79998779297</ele>
        <time>2019-03-30T09:48:10.000Z</time>
      </trkpt>
      <trkpt lat="43.98569" lon="7.26318">
        <ele>974</ele>
        <time>2019-03-30T09:48:12.000Z</time>
      </trkpt>
      <trkpt lat="43.98576" lon="7.26321">
        <ele>974.20001220703</ele>
        <time>2019-03-30T09:48:16.000Z</time>
      </trkpt>
      <trkpt lat="43.98578" lon="7.26321">
        <ele>974.40002441406</ele>
        <time>2019-03-30T09:48:17.000Z</time>
      </trkpt>
      <trkpt lat="43.98579" lon="7.2632">
        <ele>974.79998779297</ele>
        <time>2019-03-30T09:48:18.000Z</time>
      </trkpt>
      <trkpt lat="43.98581" lon="7.2632">
        <ele>975.40002441406</ele>
        <time>2019-03-30T09:48:20.000Z</time>
      </trkpt>
      <trkpt lat="43.98582" lon="7.2632">
        <ele>975.59997558594</ele>
        <time>2019-03-30T09:48:21.000Z</time>
      </trkpt>
      <trkpt lat="43.98585" lon="7.26322">
        <ele>976</ele>
        <time>2019-03-30T09:48:23.000Z</time>
      </trkpt>
      <trkpt lat="43.98587" lon="7.26323">
        <ele>976.20001220703</ele>
        <time>2019-03-30T09:48:25.000Z</time>
      </trkpt>
      <trkpt lat="43.98595" lon="7.26323">
        <ele>976.79998779297</ele>
        <time>2019-03-30T09:48:30.000Z</time>
      </trkpt>
      <trkpt lat="43.98597" lon="7.26321">
        <ele>977</ele>
        <time>2019-03-30T09:48:31.000Z</time>
      </trkpt>
      <trkpt lat="43.98602" lon="7.26317">
        <ele>977.20001220703</ele>
        <time>2019-03-30T09:48:34.000Z</time>
      </trkpt>
      <trkpt lat="43.98602" lon="7.26309">
        <ele>977.40002441406</ele>
        <time>2019-03-30T09:48:37.000Z</time>
      </trkpt>
      <trkpt lat="43.98602" lon="7.26306">
        <ele>977.40002441406</ele>
        <time>2019-03-30T09:48:38.000Z</time>
      </trkpt>
      <trkpt lat="43.98592" lon="7.26283">
        <ele>977.79998779297</ele>
        <time>2019-03-30T09:48:45.000Z</time>
      </trkpt>
      <trkpt lat="43.98581" lon="7.2626">
        <ele>978</ele>
        <time>2019-03-30T09:48:51.000Z</time>
      </trkpt>
      <trkpt lat="43.98579" lon="7.26256">
        <ele>978</ele>
        <time>2019-03-30T09:48:52.000Z</time>
      </trkpt>
      <trkpt lat="43.98577" lon="7.26246">
        <ele>978.20001220703</ele>
        <time>2019-03-30T09:48:54.000Z</time>
      </trkpt>
      <trkpt lat="43.98578" lon="7.26241">
        <ele>978.20001220703</ele>
        <time>2019-03-30T09:48:55.000Z</time>
      </trkpt>
      <trkpt lat="43.98582" lon="7.26224">
        <ele>978.79998779297</ele>
        <time>2019-03-30T09:48:59.000Z</time>
      </trkpt>
      <trkpt lat="43.98584" lon="7.26216">
        <ele>979.20001220703</ele>
        <time>2019-03-30T09:49:01.000Z</time>
      </trkpt>
      <trkpt lat="43.98584" lon="7.26196">
        <ele>980.20001220703</ele>
        <time>2019-03-30T09:49:06.000Z</time>
      </trkpt>
      <trkpt lat="43.98584" lon="7.26192">
        <ele>980.59997558594</ele>
        <time>2019-03-30T09:49:07.000Z</time>
      </trkpt>
      <trkpt lat="43.98581" lon="7.26177">
        <ele>981.40002441406</ele>
        <time>2019-03-30T09:49:11.000Z</time>
      </trkpt>
      <trkpt lat="43.98579" lon="7.26169">
        <ele>981.79998779297</ele>
        <time>2019-03-30T09:49:13.000Z</time>
      </trkpt>
      <trkpt lat="43.98574" lon="7.26153">
        <ele>982.59997558594</ele>
        <time>2019-03-30T09:49:18.000Z</time>
      </trkpt>
      <trkpt lat="43.98571" lon="7.26147">
        <ele>983</ele>
        <time>2019-03-30T09:49:20.000Z</time>
      </trkpt>
      <trkpt lat="43.98571" lon="7.26143">
        <ele>983.20001220703</ele>
        <time>2019-03-30T09:49:21.000Z</time>
      </trkpt>
      <trkpt lat="43.98575" lon="7.26136">
        <ele>983.40002441406</ele>
        <time>2019-03-30T09:49:23.000Z</time>
      </trkpt>
      <trkpt lat="43.98581" lon="7.26134">
        <ele>983.59997558594</ele>
        <time>2019-03-30T09:49:25.000Z</time>
      </trkpt>
      <trkpt lat="43.98584" lon="7.26133">
        <ele>983.79998779297</ele>
        <time>2019-03-30T09:49:26.000Z</time>
      </trkpt>
      <trkpt lat="43.98591" lon="7.26131">
        <ele>984</ele>
        <time>2019-03-30T09:49:28.000Z</time>
      </trkpt>
      <trkpt lat="43.98618" lon="7.26117">
        <ele>984.59997558594</ele>
        <time>2019-03-30T09:49:36.000Z</time>
      </trkpt>
      <trkpt lat="43.98625" lon="7.26117">
        <ele>984.79998779297</ele>
        <time>2019-03-30T09:49:38.000Z</time>
      </trkpt>
      <trkpt lat="43.98633" lon="7.26119">
        <ele>985.20001220703</ele>
        <time>2019-03-30T09:49:41.000Z</time>
      </trkpt>
      <trkpt lat="43.98635" lon="7.26117">
        <ele>985.40002441406</ele>
        <time>2019-03-30T09:49:42.000Z</time>
      </trkpt>
      <trkpt lat="43.98636" lon="7.26107">
        <ele>985.79998779297</ele>
        <time>2019-03-30T09:49:44.000Z</time>
      </trkpt>
      <trkpt lat="43.98638" lon="7.26096">
        <ele>985.59997558594</ele>
        <time>2019-03-30T09:49:46.000Z</time>
      </trkpt>
      <trkpt lat="43.98642" lon="7.26087">
        <ele>985.40002441406</ele>
        <time>2019-03-30T09:49:48.000Z</time>
      </trkpt>
      <trkpt lat="43.98647" lon="7.26081">
        <ele>985.40002441406</ele>
        <time>2019-03-30T09:49:50.000Z</time>
      </trkpt>
      <trkpt lat="43.98654" lon="7.26072">
        <ele>985.59997558594</ele>
        <time>2019-03-30T09:49:53.000Z</time>
      </trkpt>
      <trkpt lat="43.98656" lon="7.26066">
        <ele>985.40002441406</ele>
        <time>2019-03-30T09:49:54.000Z</time>
      </trkpt>
      <trkpt lat="43.98661" lon="7.26057">
        <ele>985.40002441406</ele>
        <time>2019-03-30T09:49:56.000Z</time>
      </trkpt>
      <trkpt lat="43.98666" lon="7.26044">
        <ele>985.59997558594</ele>
        <time>2019-03-30T09:49:59.000Z</time>
      </trkpt>
      <trkpt lat="43.98667" lon="7.26032">
        <ele>985.59997558594</ele>
        <time>2019-03-30T09:50:01.000Z</time>
      </trkpt>
      <trkpt lat="43.98674" lon="7.26012">
        <ele>985.40002441406</ele>
        <time>2019-03-30T09:50:05.000Z</time>
      </trkpt>
      <trkpt lat="43.98675" lon="7.26008">
        <ele>985.59997558594</ele>
        <time>2019-03-30T09:50:06.000Z</time>
      </trkpt>
      <trkpt lat="43.98678" lon="7.25999">
        <ele>986</ele>
        <time>2019-03-30T09:50:08.000Z</time>
      </trkpt>
      <trkpt lat="43.98685" lon="7.25988">
        <ele>986.40002441406</ele>
        <time>2019-03-30T09:50:11.000Z</time>
      </trkpt>
      <trkpt lat="43.98693" lon="7.25984">
        <ele>986.79998779297</ele>
        <time>2019-03-30T09:50:13.000Z</time>
      </trkpt>
      <trkpt lat="43.98698" lon="7.25983">
        <ele>987</ele>
        <time>2019-03-30T09:50:14.000Z</time>
      </trkpt>
      <trkpt lat="43.98702" lon="7.25982">
        <ele>987.40002441406</ele>
        <time>2019-03-30T09:50:15.000Z</time>
      </trkpt>
      <trkpt lat="43.98709" lon="7.25976">
        <ele>988</ele>
        <time>2019-03-30T09:50:18.000Z</time>
      </trkpt>
      <trkpt lat="43.98711" lon="7.25974">
        <ele>988.40002441406</ele>
        <time>2019-03-30T09:50:19.000Z</time>
      </trkpt>
      <trkpt lat="43.98715" lon="7.25972">
        <ele>989</ele>
        <time>2019-03-30T09:50:21.000Z</time>
      </trkpt>
      <trkpt lat="43.98716" lon="7.25969">
        <ele>989.59997558594</ele>
        <time>2019-03-30T09:50:23.000Z</time>
      </trkpt>
      <trkpt lat="43.98716" lon="7.25969">
        <ele>990</ele>
        <time>2019-03-30T09:50:24.000Z</time>
      </trkpt>
      <trkpt lat="43.98716" lon="7.25969">
        <ele>990.20001220703</ele>
        <time>2019-03-30T09:50:25.000Z</time>
      </trkpt>
      <trkpt lat="43.98717" lon="7.2597">
        <ele>991</ele>
        <time>2019-03-30T09:50:28.000Z</time>
      </trkpt>
      <trkpt lat="43.98717" lon="7.25971">
        <ele>991.20001220703</ele>
        <time>2019-03-30T09:50:30.000Z</time>
      </trkpt>
      <trkpt lat="43.98715" lon="7.25971">
        <ele>991.79998779297</ele>
        <time>2019-03-30T09:50:33.000Z</time>
      </trkpt>
      <trkpt lat="43.98719" lon="7.25974">
        <ele>992.40002441406</ele>
        <time>2019-03-30T09:50:35.000Z</time>
      </trkpt>
      <trkpt lat="43.98722" lon="7.25978">
        <ele>992.79998779297</ele>
        <time>2019-03-30T09:50:37.000Z</time>
      </trkpt>
      <trkpt lat="43.98724" lon="7.25979">
        <ele>993</ele>
        <time>2019-03-30T09:50:38.000Z</time>
      </trkpt>
      <trkpt lat="43.98726" lon="7.25982">
        <ele>993.59997558594</ele>
        <time>2019-03-30T09:50:40.000Z</time>
      </trkpt>
      <trkpt lat="43.98733" lon="7.25987">
        <ele>994.20001220703</ele>
        <time>2019-03-30T09:50:44.000Z</time>
      </trkpt>
      <trkpt lat="43.98734" lon="7.25989">
        <ele>994.40002441406</ele>
        <time>2019-03-30T09:50:45.000Z</time>
      </trkpt>
      <trkpt lat="43.98736" lon="7.25991">
        <ele>994.79998779297</ele>
        <time>2019-03-30T09:50:47.000Z</time>
      </trkpt>
      <trkpt lat="43.9874" lon="7.25997">
        <ele>995.59997558594</ele>
        <time>2019-03-30T09:50:50.000Z</time>
      </trkpt>
      <trkpt lat="43.98742" lon="7.25998">
        <ele>995.79998779297</ele>
        <time>2019-03-30T09:50:51.000Z</time>
      </trkpt>
      <trkpt lat="43.98746" lon="7.26001">
        <ele>996.40002441406</ele>
        <time>2019-03-30T09:50:54.000Z</time>
      </trkpt>
      <trkpt lat="43.98748" lon="7.26004">
        <ele>997</ele>
        <time>2019-03-30T09:50:57.000Z</time>
      </trkpt>
      <trkpt lat="43.9875" lon="7.26005">
        <ele>997.20001220703</ele>
        <time>2019-03-30T09:50:58.000Z</time>
      </trkpt>
      <trkpt lat="43.98752" lon="7.26007">
        <ele>997.40002441406</ele>
        <time>2019-03-30T09:51:00.000Z</time>
      </trkpt>
      <trkpt lat="43.98756" lon="7.2601">
        <ele>998.20001220703</ele>
        <time>2019-03-30T09:51:03.000Z</time>
      </trkpt>
      <trkpt lat="43.98759" lon="7.26012">
        <ele>998.59997558594</ele>
        <time>2019-03-30T09:51:05.000Z</time>
      </trkpt>
      <trkpt lat="43.98765" lon="7.26016">
        <ele>999.20001220703</ele>
        <time>2019-03-30T09:51:09.000Z</time>
      </trkpt>
      <trkpt lat="43.98768" lon="7.26018">
        <ele>999.40002441406</ele>
        <time>2019-03-30T09:51:11.000Z</time>
      </trkpt>
      <trkpt lat="43.98775" lon="7.26022">
        <ele>1000.200012207</ele>
        <time>2019-03-30T09:51:15.000Z</time>
      </trkpt>
      <trkpt lat="43.98776" lon="7.26024">
        <ele>1000.4000244141</ele>
        <time>2019-03-30T09:51:16.000Z</time>
      </trkpt>
      <trkpt lat="43.98784" lon="7.26029">
        <ele>1001.5999755859</ele>
        <time>2019-03-30T09:51:21.000Z</time>
      </trkpt>
      <trkpt lat="43.98793" lon="7.26036">
        <ele>1002.5999755859</ele>
        <time>2019-03-30T09:51:27.000Z</time>
      </trkpt>
      <trkpt lat="43.98795" lon="7.26038">
        <ele>1002.799987793</ele>
        <time>2019-03-30T09:51:28.000Z</time>
      </trkpt>
      <trkpt lat="43.98802" lon="7.26043">
        <ele>1003.799987793</ele>
        <time>2019-03-30T09:51:32.000Z</time>
      </trkpt>
      <trkpt lat="43.98806" lon="7.26045">
        <ele>1004.4000244141</ele>
        <time>2019-03-30T09:51:34.000Z</time>
      </trkpt>
      <trkpt lat="43.9881" lon="7.26049">
        <ele>1005</ele>
        <time>2019-03-30T09:51:37.000Z</time>
      </trkpt>
      <trkpt lat="43.98813" lon="7.26052">
        <ele>1005.4000244141</ele>
        <time>2019-03-30T09:51:39.000Z</time>
      </trkpt>
      <trkpt lat="43.98814" lon="7.26054">
        <ele>1005.5999755859</ele>
        <time>2019-03-30T09:51:40.000Z</time>
      </trkpt>
      <trkpt lat="43.98815" lon="7.26057">
        <ele>1006</ele>
        <time>2019-03-30T09:51:42.000Z</time>
      </trkpt>
      <trkpt lat="43.98815" lon="7.2606">
        <ele>1006.4000244141</ele>
        <time>2019-03-30T09:51:44.000Z</time>
      </trkpt>
      <trkpt lat="43.98814" lon="7.26061">
        <ele>1006.4000244141</ele>
        <time>2019-03-30T09:51:45.000Z</time>
      </trkpt>
      <trkpt lat="43.98815" lon="7.26063">
        <ele>1006.799987793</ele>
        <time>2019-03-30T09:51:46.000Z</time>
      </trkpt>
      <trkpt lat="43.98816" lon="7.26064">
        <ele>1007</ele>
        <time>2019-03-30T09:51:47.000Z</time>
      </trkpt>
      <trkpt lat="43.98818" lon="7.26068">
        <ele>1008</ele>
        <time>2019-03-30T09:51:50.000Z</time>
      </trkpt>
      <trkpt lat="43.98819" lon="7.26069">
        <ele>1008.200012207</ele>
        <time>2019-03-30T09:51:51.000Z</time>
      </trkpt>
      <trkpt lat="43.98824" lon="7.26069">
        <ele>1008.799987793</ele>
        <time>2019-03-30T09:51:54.000Z</time>
      </trkpt>
      <trkpt lat="43.98826" lon="7.26069">
        <ele>1009</ele>
        <time>2019-03-30T09:51:55.000Z</time>
      </trkpt>
      <trkpt lat="43.98833" lon="7.26071">
        <ele>1009.200012207</ele>
        <time>2019-03-30T09:52:00.000Z</time>
      </trkpt>
      <trkpt lat="43.98835" lon="7.26072">
        <ele>1009.5999755859</ele>
        <time>2019-03-30T09:52:01.000Z</time>
      </trkpt>
      <trkpt lat="43.98847" lon="7.2608">
        <ele>1010.4000244141</ele>
        <time>2019-03-30T09:52:08.000Z</time>
      </trkpt>
      <trkpt lat="43.98859" lon="7.26084">
        <ele>1011.5999755859</ele>
        <time>2019-03-30T09:52:15.000Z</time>
      </trkpt>
      <trkpt lat="43.9886" lon="7.26084">
        <ele>1011.5999755859</ele>
        <time>2019-03-30T09:52:16.000Z</time>
      </trkpt>
      <trkpt lat="43.98863" lon="7.26086">
        <ele>1012.5999755859</ele>
        <time>2019-03-30T09:52:19.000Z</time>
      </trkpt>
      <trkpt lat="43.98865" lon="7.26088">
        <ele>1013</ele>
        <time>2019-03-30T09:52:21.000Z</time>
      </trkpt>
      <trkpt lat="43.98873" lon="7.26091">
        <ele>1013.5999755859</ele>
        <time>2019-03-30T09:52:26.000Z</time>
      </trkpt>
      <trkpt lat="43.98874" lon="7.26092">
        <ele>1013.799987793</ele>
        <time>2019-03-30T09:52:27.000Z</time>
      </trkpt>
      <trkpt lat="43.98884" lon="7.26093">
        <ele>1014.799987793</ele>
        <time>2019-03-30T09:52:32.000Z</time>
      </trkpt>
      <trkpt lat="43.98886" lon="7.26093">
        <ele>1015</ele>
        <time>2019-03-30T09:52:33.000Z</time>
      </trkpt>
      <trkpt lat="43.98894" lon="7.26094">
        <ele>1015.5999755859</ele>
        <time>2019-03-30T09:52:37.000Z</time>
      </trkpt>
      <trkpt lat="43.98899" lon="7.26095">
        <ele>1016</ele>
        <time>2019-03-30T09:52:39.000Z</time>
      </trkpt>
      <trkpt lat="43.98902" lon="7.26097">
        <ele>1016.799987793</ele>
        <time>2019-03-30T09:52:41.000Z</time>
      </trkpt>
      <trkpt lat="43.98905" lon="7.26099">
        <ele>1017.4000244141</ele>
        <time>2019-03-30T09:52:43.000Z</time>
      </trkpt>
      <trkpt lat="43.98912" lon="7.26101">
        <ele>1018.5999755859</ele>
        <time>2019-03-30T09:52:46.000Z</time>
      </trkpt>
      <trkpt lat="43.98914" lon="7.26101">
        <ele>1018.799987793</ele>
        <time>2019-03-30T09:52:47.000Z</time>
      </trkpt>
      <trkpt lat="43.98925" lon="7.26098">
        <ele>1018.5999755859</ele>
        <time>2019-03-30T09:52:52.000Z</time>
      </trkpt>
      <trkpt lat="43.98933" lon="7.26093">
        <ele>1019.4000244141</ele>
        <time>2019-03-30T09:52:57.000Z</time>
      </trkpt>
      <trkpt lat="43.98936" lon="7.26091">
        <ele>1019.5999755859</ele>
        <time>2019-03-30T09:52:59.000Z</time>
      </trkpt>
      <trkpt lat="43.98944" lon="7.26089">
        <ele>1020.799987793</ele>
        <time>2019-03-30T09:53:04.000Z</time>
      </trkpt>
      <trkpt lat="43.98952" lon="7.2609">
        <ele>1021.799987793</ele>
        <time>2019-03-30T09:53:08.000Z</time>
      </trkpt>
      <trkpt lat="43.98954" lon="7.2609">
        <ele>1022</ele>
        <time>2019-03-30T09:53:09.000Z</time>
      </trkpt>
      <trkpt lat="43.98962" lon="7.26092">
        <ele>1022.5999755859</ele>
        <time>2019-03-30T09:53:14.000Z</time>
      </trkpt>
      <trkpt lat="43.98964" lon="7.26093">
        <ele>1023</ele>
        <time>2019-03-30T09:53:15.000Z</time>
      </trkpt>
      <trkpt lat="43.98972" lon="7.26099">
        <ele>1023.5999755859</ele>
        <time>2019-03-30T09:53:20.000Z</time>
      </trkpt>
      <trkpt lat="43.98974" lon="7.26102">
        <ele>1023.799987793</ele>
        <time>2019-03-30T09:53:22.000Z</time>
      </trkpt>
      <trkpt lat="43.98975" lon="7.26105">
        <ele>1024</ele>
        <time>2019-03-30T09:53:23.000Z</time>
      </trkpt>
      <trkpt lat="43.98985" lon="7.26112">
        <ele>1024.1999511719</ele>
        <time>2019-03-30T09:53:28.000Z</time>
      </trkpt>
      <trkpt lat="43.98987" lon="7.26112">
        <ele>1024.1999511719</ele>
        <time>2019-03-30T09:53:29.000Z</time>
      </trkpt>
      <trkpt lat="43.9899" lon="7.26108">
        <ele>1024.4000244141</ele>
        <time>2019-03-30T09:53:31.000Z</time>
      </trkpt>
      <trkpt lat="43.99" lon="7.26095">
        <ele>1024.8000488281</ele>
        <time>2019-03-30T09:53:36.000Z</time>
      </trkpt>
      <trkpt lat="43.99005" lon="7.26095">
        <ele>1025</ele>
        <time>2019-03-30T09:53:38.000Z</time>
      </trkpt>
      <trkpt lat="43.9901" lon="7.26095">
        <ele>1025</ele>
        <time>2019-03-30T09:53:40.000Z</time>
      </trkpt>
      <trkpt lat="43.99015" lon="7.26096">
        <ele>1025.1999511719</ele>
        <time>2019-03-30T09:53:42.000Z</time>
      </trkpt>
      <trkpt lat="43.99016" lon="7.26098">
        <ele>1025.4000244141</ele>
        <time>2019-03-30T09:53:45.000Z</time>
      </trkpt>
      <trkpt lat="43.99022" lon="7.26104">
        <ele>1025.8000488281</ele>
        <time>2019-03-30T09:53:48.000Z</time>
      </trkpt>
      <trkpt lat="43.99023" lon="7.26104">
        <ele>1026</ele>
        <time>2019-03-30T09:53:49.000Z</time>
      </trkpt>
      <trkpt lat="43.99027" lon="7.26103">
        <ele>1026.1999511719</ele>
        <time>2019-03-30T09:53:52.000Z</time>
      </trkpt>
      <trkpt lat="43.99028" lon="7.26101">
        <ele>1026.1999511719</ele>
        <time>2019-03-30T09:53:53.000Z</time>
      </trkpt>
      <trkpt lat="43.99031" lon="7.26092">
        <ele>1026.5999755859</ele>
        <time>2019-03-30T09:53:57.000Z</time>
      </trkpt>
      <trkpt lat="43.99033" lon="7.26077">
        <ele>1026.4000244141</ele>
        <time>2019-03-30T09:54:02.000Z</time>
      </trkpt>
      <trkpt lat="43.99033" lon="7.26068">
        <ele>1026.8000488281</ele>
        <time>2019-03-30T09:54:06.000Z</time>
      </trkpt>
      <trkpt lat="43.99034" lon="7.26065">
        <ele>1027</ele>
        <time>2019-03-30T09:54:08.000Z</time>
      </trkpt>
      <trkpt lat="43.99033" lon="7.26061">
        <ele>1027.1999511719</ele>
        <time>2019-03-30T09:54:11.000Z</time>
      </trkpt>
      <trkpt lat="43.99033" lon="7.26055">
        <ele>1027.4000244141</ele>
        <time>2019-03-30T09:54:13.000Z</time>
      </trkpt>
      <trkpt lat="43.99027" lon="7.26037">
        <ele>1028.1999511719</ele>
        <time>2019-03-30T09:54:18.000Z</time>
      </trkpt>
      <trkpt lat="43.99026" lon="7.26034">
        <ele>1028.4000244141</ele>
        <time>2019-03-30T09:54:19.000Z</time>
      </trkpt>
      <trkpt lat="43.99018" lon="7.26015">
        <ele>1028.8000488281</ele>
        <time>2019-03-30T09:54:25.000Z</time>
      </trkpt>
      <trkpt lat="43.99017" lon="7.26">
        <ele>1029.4000244141</ele>
        <time>2019-03-30T09:54:30.000Z</time>
      </trkpt>
      <trkpt lat="43.99018" lon="7.25994">
        <ele>1029.5999755859</ele>
        <time>2019-03-30T09:54:32.000Z</time>
      </trkpt>
      <trkpt lat="43.99019" lon="7.25991">
        <ele>1029.5999755859</ele>
        <time>2019-03-30T09:54:33.000Z</time>
      </trkpt>
      <trkpt lat="43.99027" lon="7.25981">
        <ele>1030.4000244141</ele>
        <time>2019-03-30T09:54:38.000Z</time>
      </trkpt>
      <trkpt lat="43.99031" lon="7.25977">
        <ele>1030.5999755859</ele>
        <time>2019-03-30T09:54:40.000Z</time>
      </trkpt>
      <trkpt lat="43.99034" lon="7.25973">
        <ele>1030.8000488281</ele>
        <time>2019-03-30T09:54:42.000Z</time>
      </trkpt>
      <trkpt lat="43.99035" lon="7.2597">
        <ele>1031</ele>
        <time>2019-03-30T09:54:43.000Z</time>
      </trkpt>
      <trkpt lat="43.99036" lon="7.25956">
        <ele>1031.5999755859</ele>
        <time>2019-03-30T09:54:48.000Z</time>
      </trkpt>
      <trkpt lat="43.99036" lon="7.25954">
        <ele>1032</ele>
        <time>2019-03-30T09:54:49.000Z</time>
      </trkpt>
      <trkpt lat="43.99037" lon="7.25948">
        <ele>1032.1999511719</ele>
        <time>2019-03-30T09:54:52.000Z</time>
      </trkpt>
      <trkpt lat="43.99038" lon="7.25943">
        <ele>1032.8000488281</ele>
        <time>2019-03-30T09:54:54.000Z</time>
      </trkpt>
      <trkpt lat="43.9904" lon="7.25939">
        <ele>1033.5999755859</ele>
        <time>2019-03-30T09:54:56.000Z</time>
      </trkpt>
      <trkpt lat="43.99043" lon="7.25935">
        <ele>1033.8000488281</ele>
        <time>2019-03-30T09:54:58.000Z</time>
      </trkpt>
      <trkpt lat="43.99046" lon="7.25926">
        <ele>1034.5999755859</ele>
        <time>2019-03-30T09:55:02.000Z</time>
      </trkpt>
      <trkpt lat="43.99045" lon="7.25918">
        <ele>1035</ele>
        <time>2019-03-30T09:55:05.000Z</time>
      </trkpt>
      <trkpt lat="43.99045" lon="7.25916">
        <ele>1035.1999511719</ele>
        <time>2019-03-30T09:55:06.000Z</time>
      </trkpt>
      <trkpt lat="43.99045" lon="7.25914">
        <ele>1035.4000244141</ele>
        <time>2019-03-30T09:55:07.000Z</time>
      </trkpt>
      <trkpt lat="43.99043" lon="7.25904">
        <ele>1036.1999511719</ele>
        <time>2019-03-30T09:55:12.000Z</time>
      </trkpt>
      <trkpt lat="43.99042" lon="7.25901">
        <ele>1036.5999755859</ele>
        <time>2019-03-30T09:55:13.000Z</time>
      </trkpt>
      <trkpt lat="43.9904" lon="7.25892">
        <ele>1037.1999511719</ele>
        <time>2019-03-30T09:55:17.000Z</time>
      </trkpt>
      <trkpt lat="43.9904" lon="7.25888">
        <ele>1037.8000488281</ele>
        <time>2019-03-30T09:55:19.000Z</time>
      </trkpt>
      <trkpt lat="43.99038" lon="7.25884">
        <ele>1038.4000244141</ele>
        <time>2019-03-30T09:55:21.000Z</time>
      </trkpt>
      <trkpt lat="43.99036" lon="7.25877">
        <ele>1039.4000244141</ele>
        <time>2019-03-30T09:55:24.000Z</time>
      </trkpt>
      <trkpt lat="43.99035" lon="7.25862">
        <ele>1040.4000244141</ele>
        <time>2019-03-30T09:55:30.000Z</time>
      </trkpt>
      <trkpt lat="43.99036" lon="7.2586">
        <ele>1040.5999755859</ele>
        <time>2019-03-30T09:55:31.000Z</time>
      </trkpt>
      <trkpt lat="43.99039" lon="7.25854">
        <ele>1041.8000488281</ele>
        <time>2019-03-30T09:55:35.000Z</time>
      </trkpt>
      <trkpt lat="43.99039" lon="7.25852">
        <ele>1041.8000488281</ele>
        <time>2019-03-30T09:55:36.000Z</time>
      </trkpt>
      <trkpt lat="43.99042" lon="7.25843">
        <ele>1042.8000488281</ele>
        <time>2019-03-30T09:55:41.000Z</time>
      </trkpt>
      <trkpt lat="43.99043" lon="7.25841">
        <ele>1043</ele>
        <time>2019-03-30T09:55:42.000Z</time>
      </trkpt>
      <trkpt lat="43.99046" lon="7.25833">
        <ele>1043.4000244141</ele>
        <time>2019-03-30T09:55:46.000Z</time>
      </trkpt>
      <trkpt lat="43.99046" lon="7.2583">
        <ele>1043.5999755859</ele>
        <time>2019-03-30T09:55:47.000Z</time>
      </trkpt>
      <trkpt lat="43.99045" lon="7.25824">
        <ele>1044</ele>
        <time>2019-03-30T09:55:49.000Z</time>
      </trkpt>
      <trkpt lat="43.99042" lon="7.25816">
        <ele>1044.8000488281</ele>
        <time>2019-03-30T09:55:53.000Z</time>
      </trkpt>
      <trkpt lat="43.99041" lon="7.25814">
        <ele>1045</ele>
        <time>2019-03-30T09:55:54.000Z</time>
      </trkpt>
      <trkpt lat="43.99039" lon="7.2581">
        <ele>1045.5999755859</ele>
        <time>2019-03-30T09:55:56.000Z</time>
      </trkpt>
      <trkpt lat="43.99038" lon="7.25806">
        <ele>1046</ele>
        <time>2019-03-30T09:55:58.000Z</time>
      </trkpt>
      <trkpt lat="43.99038" lon="7.25805">
        <ele>1046.4000244141</ele>
        <time>2019-03-30T09:55:59.000Z</time>
      </trkpt>
      <trkpt lat="43.99036" lon="7.258">
        <ele>1047.4000244141</ele>
        <time>2019-03-30T09:56:02.000Z</time>
      </trkpt>
      <trkpt lat="43.99036" lon="7.25798">
        <ele>1047.5999755859</ele>
        <time>2019-03-30T09:56:03.000Z</time>
      </trkpt>
      <trkpt lat="43.99036" lon="7.2579">
        <ele>1048.4000244141</ele>
        <time>2019-03-30T09:56:07.000Z</time>
      </trkpt>
      <trkpt lat="43.99036" lon="7.25788">
        <ele>1048.5999755859</ele>
        <time>2019-03-30T09:56:08.000Z</time>
      </trkpt>
      <trkpt lat="43.99035" lon="7.25787">
        <ele>1048.8000488281</ele>
        <time>2019-03-30T09:56:09.000Z</time>
      </trkpt>
      <trkpt lat="43.99036" lon="7.25778">
        <ele>1049.5999755859</ele>
        <time>2019-03-30T09:56:14.000Z</time>
      </trkpt>
      <trkpt lat="43.99035" lon="7.25777">
        <ele>1049.8000488281</ele>
        <time>2019-03-30T09:56:15.000Z</time>
      </trkpt>
      <trkpt lat="43.99037" lon="7.25771">
        <ele>1050.5999755859</ele>
        <time>2019-03-30T09:56:19.000Z</time>
      </trkpt>
      <trkpt lat="43.99037" lon="7.25761">
        <ele>1051.4000244141</ele>
        <time>2019-03-30T09:56:24.000Z</time>
      </trkpt>
      <trkpt lat="43.99038" lon="7.25758">
        <ele>1051.8000488281</ele>
        <time>2019-03-30T09:56:26.000Z</time>
      </trkpt>
      <trkpt lat="43.99038" lon="7.25755">
        <ele>1051.8000488281</ele>
        <time>2019-03-30T09:56:27.000Z</time>
      </trkpt>
      <trkpt lat="43.99038" lon="7.25752">
        <ele>1052</ele>
        <time>2019-03-30T09:56:28.000Z</time>
      </trkpt>
      <trkpt lat="43.99038" lon="7.25747">
        <ele>1052.8000488281</ele>
        <time>2019-03-30T09:56:31.000Z</time>
      </trkpt>
      <trkpt lat="43.99038" lon="7.25745">
        <ele>1053</ele>
        <time>2019-03-30T09:56:32.000Z</time>
      </trkpt>
      <trkpt lat="43.99036" lon="7.25737">
        <ele>1053.8000488281</ele>
        <time>2019-03-30T09:56:36.000Z</time>
      </trkpt>
      <trkpt lat="43.99036" lon="7.25735">
        <ele>1054</ele>
        <time>2019-03-30T09:56:37.000Z</time>
      </trkpt>
      <trkpt lat="43.99035" lon="7.25728">
        <ele>1054.5999755859</ele>
        <time>2019-03-30T09:56:40.000Z</time>
      </trkpt>
      <trkpt lat="43.99035" lon="7.25726">
        <ele>1054.5999755859</ele>
        <time>2019-03-30T09:56:41.000Z</time>
      </trkpt>
      <trkpt lat="43.99036" lon="7.25722">
        <ele>1055</ele>
        <time>2019-03-30T09:56:43.000Z</time>
      </trkpt>
      <trkpt lat="43.99037" lon="7.25713">
        <ele>1055.8000488281</ele>
        <time>2019-03-30T09:56:48.000Z</time>
      </trkpt>
      <trkpt lat="43.99037" lon="7.25711">
        <ele>1056</ele>
        <time>2019-03-30T09:56:49.000Z</time>
      </trkpt>
      <trkpt lat="43.99039" lon="7.25701">
        <ele>1057.1999511719</ele>
        <time>2019-03-30T09:56:54.000Z</time>
      </trkpt>
      <trkpt lat="43.9904" lon="7.257">
        <ele>1057.4000244141</ele>
        <time>2019-03-30T09:56:55.000Z</time>
      </trkpt>
      <trkpt lat="43.99042" lon="7.25693">
        <ele>1058.1999511719</ele>
        <time>2019-03-30T09:56:58.000Z</time>
      </trkpt>
      <trkpt lat="43.99042" lon="7.2569">
        <ele>1058.4000244141</ele>
        <time>2019-03-30T09:56:59.000Z</time>
      </trkpt>
      <trkpt lat="43.99047" lon="7.25684">
        <ele>1059.1999511719</ele>
        <time>2019-03-30T09:57:03.000Z</time>
      </trkpt>
      <trkpt lat="43.9905" lon="7.25684">
        <ele>1059.4000244141</ele>
        <time>2019-03-30T09:57:04.000Z</time>
      </trkpt>
      <trkpt lat="43.99055" lon="7.25681">
        <ele>1060</ele>
        <time>2019-03-30T09:57:08.000Z</time>
      </trkpt>
      <trkpt lat="43.99058" lon="7.2568">
        <ele>1060.4000244141</ele>
        <time>2019-03-30T09:57:10.000Z</time>
      </trkpt>
      <trkpt lat="43.9906" lon="7.25679">
        <ele>1060.8000488281</ele>
        <time>2019-03-30T09:57:11.000Z</time>
      </trkpt>
      <trkpt lat="43.99063" lon="7.25677">
        <ele>1061</ele>
        <time>2019-03-30T09:57:13.000Z</time>
      </trkpt>
      <trkpt lat="43.9907" lon="7.25674">
        <ele>1061.5999755859</ele>
        <time>2019-03-30T09:57:17.000Z</time>
      </trkpt>
      <trkpt lat="43.99075" lon="7.25672">
        <ele>1061.8000488281</ele>
        <time>2019-03-30T09:57:19.000Z</time>
      </trkpt>
      <trkpt lat="43.9908" lon="7.2567">
        <ele>1062.1999511719</ele>
        <time>2019-03-30T09:57:23.000Z</time>
      </trkpt>
      <trkpt lat="43.99086" lon="7.2567">
        <ele>1062.5999755859</ele>
        <time>2019-03-30T09:57:27.000Z</time>
      </trkpt>
      <trkpt lat="43.99087" lon="7.25671">
        <ele>1062.8000488281</ele>
        <time>2019-03-30T09:57:28.000Z</time>
      </trkpt>
      <trkpt lat="43.99093" lon="7.25674">
        <ele>1063.5999755859</ele>
        <time>2019-03-30T09:57:31.000Z</time>
      </trkpt>
      <trkpt lat="43.99099" lon="7.25678">
        <ele>1064.1999511719</ele>
        <time>2019-03-30T09:57:34.000Z</time>
      </trkpt>
      <trkpt lat="43.99105" lon="7.25679">
        <ele>1064.8000488281</ele>
        <time>2019-03-30T09:57:39.000Z</time>
      </trkpt>
      <trkpt lat="43.99107" lon="7.2568">
        <ele>1064.8000488281</ele>
        <time>2019-03-30T09:57:40.000Z</time>
      </trkpt>
      <trkpt lat="43.99118" lon="7.25686">
        <ele>1065</ele>
        <time>2019-03-30T09:57:45.000Z</time>
      </trkpt>
      <trkpt lat="43.99127" lon="7.25687">
        <ele>1065</ele>
        <time>2019-03-30T09:57:49.000Z</time>
      </trkpt>
      <trkpt lat="43.99138" lon="7.25689">
        <ele>1066</ele>
        <time>2019-03-30T09:57:53.000Z</time>
      </trkpt>
      <trkpt lat="43.99142" lon="7.25688">
        <ele>1066.4000244141</ele>
        <time>2019-03-30T09:57:55.000Z</time>
      </trkpt>
      <trkpt lat="43.99151" lon="7.25686">
        <ele>1066.8000488281</ele>
        <time>2019-03-30T09:58:00.000Z</time>
      </trkpt>
      <trkpt lat="43.99153" lon="7.25686">
        <ele>1067</ele>
        <time>2019-03-30T09:58:01.000Z</time>
      </trkpt>
      <trkpt lat="43.99161" lon="7.25687">
        <ele>1067.5999755859</ele>
        <time>2019-03-30T09:58:04.000Z</time>
      </trkpt>
      <trkpt lat="43.99171" lon="7.25689">
        <ele>1068</ele>
        <time>2019-03-30T09:58:08.000Z</time>
      </trkpt>
      <trkpt lat="43.99177" lon="7.25691">
        <ele>1068.1999511719</ele>
        <time>2019-03-30T09:58:10.000Z</time>
      </trkpt>
      <trkpt lat="43.99187" lon="7.2569">
        <ele>1068.4000244141</ele>
        <time>2019-03-30T09:58:13.000Z</time>
      </trkpt>
      <trkpt lat="43.99197" lon="7.25684">
        <ele>1069.1999511719</ele>
        <time>2019-03-30T09:58:17.000Z</time>
      </trkpt>
      <trkpt lat="43.992" lon="7.25682">
        <ele>1069.4000244141</ele>
        <time>2019-03-30T09:58:18.000Z</time>
      </trkpt>
      <trkpt lat="43.99213" lon="7.25671">
        <ele>1069.4000244141</ele>
        <time>2019-03-30T09:58:23.000Z</time>
      </trkpt>
      <trkpt lat="43.99227" lon="7.25656">
        <ele>1070.1999511719</ele>
        <time>2019-03-30T09:58:29.000Z</time>
      </trkpt>
      <trkpt lat="43.99236" lon="7.25652">
        <ele>1070.4000244141</ele>
        <time>2019-03-30T09:58:33.000Z</time>
      </trkpt>
      <trkpt lat="43.99237" lon="7.25651">
        <ele>1070.5999755859</ele>
        <time>2019-03-30T09:58:34.000Z</time>
      </trkpt>
      <trkpt lat="43.99241" lon="7.25636">
        <ele>1071.1999511719</ele>
        <time>2019-03-30T09:58:40.000Z</time>
      </trkpt>
      <trkpt lat="43.99241" lon="7.25626">
        <ele>1071.5999755859</ele>
        <time>2019-03-30T09:58:45.000Z</time>
      </trkpt>
      <trkpt lat="43.99241" lon="7.25623">
        <ele>1071.5999755859</ele>
        <time>2019-03-30T09:58:46.000Z</time>
      </trkpt>
      <trkpt lat="43.99242" lon="7.25621">
        <ele>1071.5999755859</ele>
        <time>2019-03-30T09:58:47.000Z</time>
      </trkpt>
      <trkpt lat="43.99243" lon="7.25613">
        <ele>1072</ele>
        <time>2019-03-30T09:58:50.000Z</time>
      </trkpt>
      <trkpt lat="43.99252" lon="7.2561">
        <ele>1072.4000244141</ele>
        <time>2019-03-30T09:58:55.000Z</time>
      </trkpt>
      <trkpt lat="43.99253" lon="7.25608">
        <ele>1072.4000244141</ele>
        <time>2019-03-30T09:58:56.000Z</time>
      </trkpt>
      <trkpt lat="43.99255" lon="7.25607">
        <ele>1072.5999755859</ele>
        <time>2019-03-30T09:58:57.000Z</time>
      </trkpt>
      <trkpt lat="43.99257" lon="7.25605">
        <ele>1072.5999755859</ele>
        <time>2019-03-30T09:58:58.000Z</time>
      </trkpt>
      <trkpt lat="43.9926" lon="7.25592">
        <ele>1072.5999755859</ele>
        <time>2019-03-30T09:59:01.000Z</time>
      </trkpt>
      <trkpt lat="43.99261" lon="7.25588">
        <ele>1072.5999755859</ele>
        <time>2019-03-30T09:59:02.000Z</time>
      </trkpt>
      <trkpt lat="43.99264" lon="7.2558">
        <ele>1073</ele>
        <time>2019-03-30T09:59:06.000Z</time>
      </trkpt>
      <trkpt lat="43.99264" lon="7.25577">
        <ele>1073.5999755859</ele>
        <time>2019-03-30T09:59:10.000Z</time>
      </trkpt>
      <trkpt lat="43.99264" lon="7.25575">
        <ele>1073.8000488281</ele>
        <time>2019-03-30T09:59:13.000Z</time>
      </trkpt>
      <trkpt lat="43.99258" lon="7.25568">
        <ele>1074.5999755859</ele>
        <time>2019-03-30T09:59:17.000Z</time>
      </trkpt>
      <trkpt lat="43.99256" lon="7.25566">
        <ele>1074.8000488281</ele>
        <time>2019-03-30T09:59:18.000Z</time>
      </trkpt>
      <trkpt lat="43.99254" lon="7.25563">
        <ele>1074.8000488281</ele>
        <time>2019-03-30T09:59:19.000Z</time>
      </trkpt>
      <trkpt lat="43.99251" lon="7.25558">
        <ele>1075.4000244141</ele>
        <time>2019-03-30T09:59:24.000Z</time>
      </trkpt>
      <trkpt lat="43.9925" lon="7.25557">
        <ele>1075.5999755859</ele>
        <time>2019-03-30T09:59:25.000Z</time>
      </trkpt>
      <trkpt lat="43.99243" lon="7.2555">
        <ele>1076.1999511719</ele>
        <time>2019-03-30T09:59:29.000Z</time>
      </trkpt>
      <trkpt lat="43.9924" lon="7.25545">
        <ele>1077</ele>
        <time>2019-03-30T09:59:32.000Z</time>
      </trkpt>
      <trkpt lat="43.99237" lon="7.25541">
        <ele>1077.8000488281</ele>
        <time>2019-03-30T09:59:35.000Z</time>
      </trkpt>
      <trkpt lat="43.99236" lon="7.2554">
        <ele>1078</ele>
        <time>2019-03-30T09:59:36.000Z</time>
      </trkpt>
      <trkpt lat="43.99229" lon="7.25534">
        <ele>1078.8000488281</ele>
        <time>2019-03-30T09:59:41.000Z</time>
      </trkpt>
      <trkpt lat="43.99225" lon="7.25529">
        <ele>1079.1999511719</ele>
        <time>2019-03-30T09:59:43.000Z</time>
      </trkpt>
      <trkpt lat="43.99218" lon="7.25522">
        <ele>1079.5999755859</ele>
        <time>2019-03-30T09:59:47.000Z</time>
      </trkpt>
      <trkpt lat="43.99216" lon="7.2552">
        <ele>1079.8000488281</ele>
        <time>2019-03-30T09:59:48.000Z</time>
      </trkpt>
      <trkpt lat="43.99216" lon="7.25519">
        <ele>1080.1999511719</ele>
        <time>2019-03-30T09:59:50.000Z</time>
      </trkpt>
      <trkpt lat="43.99215" lon="7.25518">
        <ele>1080.4000244141</ele>
        <time>2019-03-30T09:59:51.000Z</time>
      </trkpt>
      <trkpt lat="43.99215" lon="7.25518">
        <ele>1080.5999755859</ele>
        <time>2019-03-30T09:59:52.000Z</time>
      </trkpt>
      <trkpt lat="43.99218" lon="7.25518">
        <ele>1080.8000488281</ele>
        <time>2019-03-30T09:59:53.000Z</time>
      </trkpt>
      <trkpt lat="43.99228" lon="7.25522">
        <ele>1081</ele>
        <time>2019-03-30T09:59:56.000Z</time>
      </trkpt>
      <trkpt lat="43.99232" lon="7.25523">
        <ele>1081.1999511719</ele>
        <time>2019-03-30T09:59:57.000Z</time>
      </trkpt>
      <trkpt lat="43.99237" lon="7.25524">
        <ele>1081.5999755859</ele>
        <time>2019-03-30T10:00:00.000Z</time>
      </trkpt>
      <trkpt lat="43.99245" lon="7.25525">
        <ele>1082.1999511719</ele>
        <time>2019-03-30T10:00:04.000Z</time>
      </trkpt>
      <trkpt lat="43.99251" lon="7.25528">
        <ele>1082.5999755859</ele>
        <time>2019-03-30T10:00:06.000Z</time>
      </trkpt>
      <trkpt lat="43.99262" lon="7.25533">
        <ele>1083.4000244141</ele>
        <time>2019-03-30T10:00:11.000Z</time>
      </trkpt>
      <trkpt lat="43.9927" lon="7.25537">
        <ele>1083.8000488281</ele>
        <time>2019-03-30T10:00:13.000Z</time>
      </trkpt>
      <trkpt lat="43.99288" lon="7.25546">
        <ele>1084.4000244141</ele>
        <time>2019-03-30T10:00:16.000Z</time>
      </trkpt>
      <trkpt lat="43.993" lon="7.2555">
        <ele>1085.4000244141</ele>
        <time>2019-03-30T10:00:21.000Z</time>
      </trkpt>
      <trkpt lat="43.99302" lon="7.2555">
        <ele>1085.5999755859</ele>
        <time>2019-03-30T10:00:22.000Z</time>
      </trkpt>
      <trkpt lat="43.99311" lon="7.25551">
        <ele>1086.8000488281</ele>
        <time>2019-03-30T10:00:28.000Z</time>
      </trkpt>
      <trkpt lat="43.99312" lon="7.25551">
        <ele>1087.1999511719</ele>
        <time>2019-03-30T10:00:30.000Z</time>
      </trkpt>
      <trkpt lat="43.99316" lon="7.2555">
        <ele>1087.8000488281</ele>
        <time>2019-03-30T10:00:34.000Z</time>
      </trkpt>
      <trkpt lat="43.99318" lon="7.25549">
        <ele>1088.4000244141</ele>
        <time>2019-03-30T10:00:37.000Z</time>
      </trkpt>
      <trkpt lat="43.9932" lon="7.25547">
        <ele>1089</ele>
        <time>2019-03-30T10:00:40.000Z</time>
      </trkpt>
      <trkpt lat="43.99325" lon="7.25546">
        <ele>1089.4000244141</ele>
        <time>2019-03-30T10:00:44.000Z</time>
      </trkpt>
      <trkpt lat="43.99327" lon="7.25545">
        <ele>1090</ele>
        <time>2019-03-30T10:00:47.000Z</time>
      </trkpt>
      <trkpt lat="43.9933" lon="7.25544">
        <ele>1090.5999755859</ele>
        <time>2019-03-30T10:00:51.000Z</time>
      </trkpt>
      <trkpt lat="43.99333" lon="7.25544">
        <ele>1091.1999511719</ele>
        <time>2019-03-30T10:00:55.000Z</time>
      </trkpt>
      <trkpt lat="43.99335" lon="7.25544">
        <ele>1091.5999755859</ele>
        <time>2019-03-30T10:00:58.000Z</time>
      </trkpt>
      <trkpt lat="43.99338" lon="7.25544">
        <ele>1092.4000244141</ele>
        <time>2019-03-30T10:01:02.000Z</time>
      </trkpt>
      <trkpt lat="43.9934" lon="7.25544">
        <ele>1093</ele>
        <time>2019-03-30T10:01:05.000Z</time>
      </trkpt>
      <trkpt lat="43.99343" lon="7.25544">
        <ele>1093.4000244141</ele>
        <time>2019-03-30T10:01:08.000Z</time>
      </trkpt>
      <trkpt lat="43.99344" lon="7.25544">
        <ele>1094.1999511719</ele>
        <time>2019-03-30T10:01:12.000Z</time>
      </trkpt>
      <trkpt lat="43.99346" lon="7.25544">
        <ele>1094.5999755859</ele>
        <time>2019-03-30T10:01:14.000Z</time>
      </trkpt>
      <trkpt lat="43.99349" lon="7.25544">
        <ele>1095.1999511719</ele>
        <time>2019-03-30T10:01:18.000Z</time>
      </trkpt>
      <trkpt lat="43.99351" lon="7.25544">
        <ele>1095.5999755859</ele>
        <time>2019-03-30T10:01:20.000Z</time>
      </trkpt>
      <trkpt lat="43.99355" lon="7.25545">
        <ele>1096.1999511719</ele>
        <time>2019-03-30T10:01:24.000Z</time>
      </trkpt>
      <trkpt lat="43.99354" lon="7.25547">
        <ele>1096.5999755859</ele>
        <time>2019-03-30T10:01:27.000Z</time>
      </trkpt>
      <trkpt lat="43.99352" lon="7.25548">
        <ele>1097</ele>
        <time>2019-03-30T10:01:29.000Z</time>
      </trkpt>
      <trkpt lat="43.99349" lon="7.25549">
        <ele>1097.8000488281</ele>
        <time>2019-03-30T10:01:33.000Z</time>
      </trkpt>
      <trkpt lat="43.99347" lon="7.25549">
        <ele>1098.1999511719</ele>
        <time>2019-03-30T10:01:35.000Z</time>
      </trkpt>
      <trkpt lat="43.99345" lon="7.25552">
        <ele>1099</ele>
        <time>2019-03-30T10:01:39.000Z</time>
      </trkpt>
      <trkpt lat="43.99344" lon="7.25553">
        <ele>1099.4000244141</ele>
        <time>2019-03-30T10:01:42.000Z</time>
      </trkpt>
      <trkpt lat="43.99345" lon="7.25556">
        <ele>1100</ele>
        <time>2019-03-30T10:01:46.000Z</time>
      </trkpt>
      <trkpt lat="43.99347" lon="7.25556">
        <ele>1100.4000244141</ele>
        <time>2019-03-30T10:01:48.000Z</time>
      </trkpt>
      <trkpt lat="43.99349" lon="7.25557">
        <ele>1101.1999511719</ele>
        <time>2019-03-30T10:01:51.000Z</time>
      </trkpt>
      <trkpt lat="43.99355" lon="7.25559">
        <ele>1101.8000488281</ele>
        <time>2019-03-30T10:01:55.000Z</time>
      </trkpt>
      <trkpt lat="43.99358" lon="7.2556">
        <ele>1102.1999511719</ele>
        <time>2019-03-30T10:01:57.000Z</time>
      </trkpt>
      <trkpt lat="43.99365" lon="7.25563">
        <ele>1103.1999511719</ele>
        <time>2019-03-30T10:02:03.000Z</time>
      </trkpt>
      <trkpt lat="43.99369" lon="7.25565">
        <ele>1104.4000244141</ele>
        <time>2019-03-30T10:02:09.000Z</time>
      </trkpt>
      <trkpt lat="43.9937" lon="7.25566">
        <ele>1105.4000244141</ele>
        <time>2019-03-30T10:02:15.000Z</time>
      </trkpt>
      <trkpt lat="43.99373" lon="7.25568">
        <ele>1105.5999755859</ele>
        <time>2019-03-30T10:02:17.000Z</time>
      </trkpt>
      <trkpt lat="43.99376" lon="7.25569">
        <ele>1106.4000244141</ele>
        <time>2019-03-30T10:02:22.000Z</time>
      </trkpt>
      <trkpt lat="43.99376" lon="7.25569">
        <ele>1106.4000244141</ele>
        <time>2019-03-30T10:02:23.000Z</time>
      </trkpt>
      <trkpt lat="43.99375" lon="7.25569">
        <ele>1107.1999511719</ele>
        <time>2019-03-30T10:02:29.000Z</time>
      </trkpt>
      <trkpt lat="43.99377" lon="7.2557">
        <ele>1107.5999755859</ele>
        <time>2019-03-30T10:02:31.000Z</time>
      </trkpt>
      <trkpt lat="43.99379" lon="7.25571">
        <ele>1108.4000244141</ele>
        <time>2019-03-30T10:02:35.000Z</time>
      </trkpt>
      <trkpt lat="43.9938" lon="7.25571">
        <ele>1108.5999755859</ele>
        <time>2019-03-30T10:02:36.000Z</time>
      </trkpt>
      <trkpt lat="43.99385" lon="7.25574">
        <ele>1109.8000488281</ele>
        <time>2019-03-30T10:02:43.000Z</time>
      </trkpt>
      <trkpt lat="43.99385" lon="7.25574">
        <ele>1110</ele>
        <time>2019-03-30T10:02:44.000Z</time>
      </trkpt>
      <trkpt lat="43.99386" lon="7.25577">
        <ele>1110.8000488281</ele>
        <time>2019-03-30T10:02:49.000Z</time>
      </trkpt>
      <trkpt lat="43.99387" lon="7.25577">
        <ele>1111</ele>
        <time>2019-03-30T10:02:51.000Z</time>
      </trkpt>
      <trkpt lat="43.99389" lon="7.25578">
        <ele>1111.1999511719</ele>
        <time>2019-03-30T10:02:53.000Z</time>
      </trkpt>
      <trkpt lat="43.9939" lon="7.25579">
        <ele>1112</ele>
        <time>2019-03-30T10:02:57.000Z</time>
      </trkpt>
      <trkpt lat="43.99387" lon="7.25579">
        <ele>1112.5999755859</ele>
        <time>2019-03-30T10:03:04.000Z</time>
      </trkpt>
      <trkpt lat="43.99386" lon="7.25578">
        <ele>1113</ele>
        <time>2019-03-30T10:03:08.000Z</time>
      </trkpt>
      <trkpt lat="43.99387" lon="7.25578">
        <ele>1113.4000244141</ele>
        <time>2019-03-30T10:03:12.000Z</time>
      </trkpt>
      <trkpt lat="43.99386" lon="7.25575">
        <ele>1113.1999511719</ele>
        <time>2019-03-30T10:03:27.000Z</time>
      </trkpt>
      <trkpt lat="43.99384" lon="7.25577">
        <ele>1114</ele>
        <time>2019-03-30T10:03:32.000Z</time>
      </trkpt>
      <trkpt lat="43.99383" lon="7.25577">
        <ele>1114.1999511719</ele>
        <time>2019-03-30T10:03:33.000Z</time>
      </trkpt>
      <trkpt lat="43.99381" lon="7.25579">
        <ele>1114.5999755859</ele>
        <time>2019-03-30T10:03:36.000Z</time>
      </trkpt>
      <trkpt lat="43.9938" lon="7.2558">
        <ele>1115</ele>
        <time>2019-03-30T10:03:38.000Z</time>
      </trkpt>
      <trkpt lat="43.9938" lon="7.25581">
        <ele>1115</ele>
        <time>2019-03-30T10:03:39.000Z</time>
      </trkpt>
      <trkpt lat="43.99375" lon="7.25584">
        <ele>1115.4000244141</ele>
        <time>2019-03-30T10:03:46.000Z</time>
      </trkpt>
      <trkpt lat="43.9937" lon="7.25591">
        <ele>1115.1999511719</ele>
        <time>2019-03-30T10:03:52.000Z</time>
      </trkpt>
      <trkpt lat="43.99368" lon="7.256">
        <ele>1115.4000244141</ele>
        <time>2019-03-30T10:03:56.000Z</time>
      </trkpt>
      <trkpt lat="43.99367" lon="7.25605">
        <ele>1115.5999755859</ele>
        <time>2019-03-30T10:03:58.000Z</time>
      </trkpt>
      <trkpt lat="43.99365" lon="7.25613">
        <ele>1115.8000488281</ele>
        <time>2019-03-30T10:04:02.000Z</time>
      </trkpt>
      <trkpt lat="43.99363" lon="7.25616">
        <ele>1116</ele>
        <time>2019-03-30T10:04:03.000Z</time>
      </trkpt>
      <trkpt lat="43.99362" lon="7.25619">
        <ele>1116.1999511719</ele>
        <time>2019-03-30T10:04:04.000Z</time>
      </trkpt>
      <trkpt lat="43.99362" lon="7.25623">
        <ele>1116</ele>
        <time>2019-03-30T10:04:06.000Z</time>
      </trkpt>
      <trkpt lat="43.9936" lon="7.25624">
        <ele>1115.8000488281</ele>
        <time>2019-03-30T10:04:07.000Z</time>
      </trkpt>
      <trkpt lat="43.99356" lon="7.25633">
        <ele>1115.5999755859</ele>
        <time>2019-03-30T10:04:11.000Z</time>
      </trkpt>
      <trkpt lat="43.99351" lon="7.25635">
        <ele>1116.4000244141</ele>
        <time>2019-03-30T10:04:15.000Z</time>
      </trkpt>
      <trkpt lat="43.99349" lon="7.25636">
        <ele>1116.5999755859</ele>
        <time>2019-03-30T10:04:16.000Z</time>
      </trkpt>
      <trkpt lat="43.99344" lon="7.25639">
        <ele>1117.1999511719</ele>
        <time>2019-03-30T10:04:20.000Z</time>
      </trkpt>
      <trkpt lat="43.99341" lon="7.25641">
        <ele>1117.8000488281</ele>
        <time>2019-03-30T10:04:22.000Z</time>
      </trkpt>
      <trkpt lat="43.99336" lon="7.25647">
        <ele>1118.1999511719</ele>
        <time>2019-03-30T10:04:27.000Z</time>
      </trkpt>
      <trkpt lat="43.99331" lon="7.25649">
        <ele>1118.4000244141</ele>
        <time>2019-03-30T10:04:29.000Z</time>
      </trkpt>
      <trkpt lat="43.9932" lon="7.2566">
        <ele>1117.4000244141</ele>
        <time>2019-03-30T10:04:34.000Z</time>
      </trkpt>
      <trkpt lat="43.9932" lon="7.25663">
        <ele>1117.1999511719</ele>
        <time>2019-03-30T10:04:35.000Z</time>
      </trkpt>
      <trkpt lat="43.99319" lon="7.25668">
        <ele>1116.8000488281</ele>
        <time>2019-03-30T10:04:37.000Z</time>
      </trkpt>
      <trkpt lat="43.99317" lon="7.25674">
        <ele>1117.4000244141</ele>
        <time>2019-03-30T10:04:41.000Z</time>
      </trkpt>
      <trkpt lat="43.99316" lon="7.25676">
        <ele>1117.8000488281</ele>
        <time>2019-03-30T10:04:43.000Z</time>
      </trkpt>
      <trkpt lat="43.99314" lon="7.25678">
        <ele>1118.1999511719</ele>
        <time>2019-03-30T10:04:46.000Z</time>
      </trkpt>
      <trkpt lat="43.99311" lon="7.25685">
        <ele>1119.1999511719</ele>
        <time>2019-03-30T10:04:50.000Z</time>
      </trkpt>
      <trkpt lat="43.99311" lon="7.25686">
        <ele>1119.4000244141</ele>
        <time>2019-03-30T10:04:51.000Z</time>
      </trkpt>
      <trkpt lat="43.99306" lon="7.25693">
        <ele>1120</ele>
        <time>2019-03-30T10:04:55.000Z</time>
      </trkpt>
      <trkpt lat="43.99304" lon="7.25694">
        <ele>1119.8000488281</ele>
        <time>2019-03-30T10:04:56.000Z</time>
      </trkpt>
      <trkpt lat="43.993" lon="7.25694">
        <ele>1119.8000488281</ele>
        <time>2019-03-30T10:04:58.000Z</time>
      </trkpt>
      <trkpt lat="43.99295" lon="7.25694">
        <ele>1119.8000488281</ele>
        <time>2019-03-30T10:05:00.000Z</time>
      </trkpt>
      <trkpt lat="43.9928" lon="7.25698">
        <ele>1118.5999755859</ele>
        <time>2019-03-30T10:05:05.000Z</time>
      </trkpt>
      <trkpt lat="43.99272" lon="7.25703">
        <ele>1118.1999511719</ele>
        <time>2019-03-30T10:05:07.000Z</time>
      </trkpt>
      <trkpt lat="43.99262" lon="7.25707">
        <ele>1117.1999511719</ele>
        <time>2019-03-30T10:05:10.000Z</time>
      </trkpt>
      <trkpt lat="43.99257" lon="7.25709">
        <ele>1117</ele>
        <time>2019-03-30T10:05:11.000Z</time>
      </trkpt>
      <trkpt lat="43.99246" lon="7.25713">
        <ele>1115.8000488281</ele>
        <time>2019-03-30T10:05:14.000Z</time>
      </trkpt>
      <trkpt lat="43.99242" lon="7.25715">
        <ele>1115.5999755859</ele>
        <time>2019-03-30T10:05:15.000Z</time>
      </trkpt>
      <trkpt lat="43.9924" lon="7.25718">
        <ele>1115</ele>
        <time>2019-03-30T10:05:16.000Z</time>
      </trkpt>
      <trkpt lat="43.99235" lon="7.25725">
        <ele>1114.5999755859</ele>
        <time>2019-03-30T10:05:18.000Z</time>
      </trkpt>
      <trkpt lat="43.99232" lon="7.25727">
        <ele>1114.5999755859</ele>
        <time>2019-03-30T10:05:19.000Z</time>
      </trkpt>
      <trkpt lat="43.99219" lon="7.25741">
        <ele>1114.4000244141</ele>
        <time>2019-03-30T10:05:24.000Z</time>
      </trkpt>
      <trkpt lat="43.99203" lon="7.25745">
        <ele>1114.8000488281</ele>
        <time>2019-03-30T10:05:31.000Z</time>
      </trkpt>
      <trkpt lat="43.99191" lon="7.25743">
        <ele>1114.1999511719</ele>
        <time>2019-03-30T10:05:35.000Z</time>
      </trkpt>
      <trkpt lat="43.99179" lon="7.25746">
        <ele>1115.1999511719</ele>
        <time>2019-03-30T10:05:41.000Z</time>
      </trkpt>
      <trkpt lat="43.99174" lon="7.25747">
        <ele>1116</ele>
        <time>2019-03-30T10:05:43.000Z</time>
      </trkpt>
      <trkpt lat="43.99167" lon="7.25747">
        <ele>1116.4000244141</ele>
        <time>2019-03-30T10:05:46.000Z</time>
      </trkpt>
      <trkpt lat="43.99155" lon="7.25748">
        <ele>1116.1999511719</ele>
        <time>2019-03-30T10:05:51.000Z</time>
      </trkpt>
      <trkpt lat="43.99147" lon="7.25754">
        <ele>1117.1999511719</ele>
        <time>2019-03-30T10:05:57.000Z</time>
      </trkpt>
      <trkpt lat="43.99146" lon="7.25755">
        <ele>1117.5999755859</ele>
        <time>2019-03-30T10:05:58.000Z</time>
      </trkpt>
      <trkpt lat="43.99145" lon="7.25757">
        <ele>1118.4000244141</ele>
        <time>2019-03-30T10:06:00.000Z</time>
      </trkpt>
      <trkpt lat="43.99142" lon="7.25761">
        <ele>1119.1999511719</ele>
        <time>2019-03-30T10:06:03.000Z</time>
      </trkpt>
      <trkpt lat="43.99139" lon="7.25768">
        <ele>1119.4000244141</ele>
        <time>2019-03-30T10:06:06.000Z</time>
      </trkpt>
      <trkpt lat="43.99137" lon="7.25779">
        <ele>1119.1999511719</ele>
        <time>2019-03-30T10:06:09.000Z</time>
      </trkpt>
      <trkpt lat="43.99136" lon="7.25794">
        <ele>1118.1999511719</ele>
        <time>2019-03-30T10:06:13.000Z</time>
      </trkpt>
      <trkpt lat="43.99137" lon="7.25797">
        <ele>1118.1999511719</ele>
        <time>2019-03-30T10:06:14.000Z</time>
      </trkpt>
      <trkpt lat="43.99141" lon="7.25812">
        <ele>1117</ele>
        <time>2019-03-30T10:06:18.000Z</time>
      </trkpt>
      <trkpt lat="43.99141" lon="7.25816">
        <ele>1116.8000488281</ele>
        <time>2019-03-30T10:06:19.000Z</time>
      </trkpt>
      <trkpt lat="43.99144" lon="7.25833">
        <ele>1117.4000244141</ele>
        <time>2019-03-30T10:06:25.000Z</time>
      </trkpt>
      <trkpt lat="43.99148" lon="7.25844">
        <ele>1117.8000488281</ele>
        <time>2019-03-30T10:06:29.000Z</time>
      </trkpt>
      <trkpt lat="43.99148" lon="7.25846">
        <ele>1117.8000488281</ele>
        <time>2019-03-30T10:06:30.000Z</time>
      </trkpt>
      <trkpt lat="43.99148" lon="7.25854">
        <ele>1118.1999511719</ele>
        <time>2019-03-30T10:06:33.000Z</time>
      </trkpt>
      <trkpt lat="43.99148" lon="7.25864">
        <ele>1118.1999511719</ele>
        <time>2019-03-30T10:06:35.000Z</time>
      </trkpt>
      <trkpt lat="43.9915" lon="7.25877">
        <ele>1117.5999755859</ele>
        <time>2019-03-30T10:06:40.000Z</time>
      </trkpt>
      <trkpt lat="43.99148" lon="7.25889">
        <ele>1118</ele>
        <time>2019-03-30T10:06:45.000Z</time>
      </trkpt>
      <trkpt lat="43.99141" lon="7.25902">
        <ele>1119.1999511719</ele>
        <time>2019-03-30T10:06:51.000Z</time>
      </trkpt>
      <trkpt lat="43.99138" lon="7.25907">
        <ele>1119.4000244141</ele>
        <time>2019-03-30T10:06:53.000Z</time>
      </trkpt>
      <trkpt lat="43.99136" lon="7.25922">
        <ele>1119.8000488281</ele>
        <time>2019-03-30T10:06:59.000Z</time>
      </trkpt>
      <trkpt lat="43.99137" lon="7.25925">
        <ele>1120</ele>
        <time>2019-03-30T10:07:00.000Z</time>
      </trkpt>
      <trkpt lat="43.99138" lon="7.25929">
        <ele>1119.8000488281</ele>
        <time>2019-03-30T10:07:03.000Z</time>
      </trkpt>
      <trkpt lat="43.9914" lon="7.25935">
        <ele>1120.4000244141</ele>
        <time>2019-03-30T10:07:08.000Z</time>
      </trkpt>
      <trkpt lat="43.9914" lon="7.25936">
        <ele>1120.5999755859</ele>
        <time>2019-03-30T10:07:09.000Z</time>
      </trkpt>
      <trkpt lat="43.99141" lon="7.25939">
        <ele>1121.1999511719</ele>
        <time>2019-03-30T10:07:14.000Z</time>
      </trkpt>
      <trkpt lat="43.99141" lon="7.25942">
        <ele>1121.5999755859</ele>
        <time>2019-03-30T10:07:16.000Z</time>
      </trkpt>
      <trkpt lat="43.99141" lon="7.25952">
        <ele>1121.5999755859</ele>
        <time>2019-03-30T10:07:20.000Z</time>
      </trkpt>
      <trkpt lat="43.99142" lon="7.25965">
        <ele>1121.5999755859</ele>
        <time>2019-03-30T10:07:25.000Z</time>
      </trkpt>
      <trkpt lat="43.9914" lon="7.25979">
        <ele>1122.1999511719</ele>
        <time>2019-03-30T10:07:32.000Z</time>
      </trkpt>
      <trkpt lat="43.99139" lon="7.25982">
        <ele>1122.5999755859</ele>
        <time>2019-03-30T10:07:34.000Z</time>
      </trkpt>
      <trkpt lat="43.99138" lon="7.25984">
        <ele>1123.4000244141</ele>
        <time>2019-03-30T10:07:38.000Z</time>
      </trkpt>
      <trkpt lat="43.99138" lon="7.25986">
        <ele>1123.5999755859</ele>
        <time>2019-03-30T10:07:40.000Z</time>
      </trkpt>
      <trkpt lat="43.99138" lon="7.25992">
        <ele>1124.4000244141</ele>
        <time>2019-03-30T10:07:45.000Z</time>
      </trkpt>
      <trkpt lat="43.99138" lon="7.25994">
        <ele>1124.5999755859</ele>
        <time>2019-03-30T10:07:48.000Z</time>
      </trkpt>
      <trkpt lat="43.99139" lon="7.25995">
        <ele>1124.5999755859</ele>
        <time>2019-03-30T10:07:52.000Z</time>
      </trkpt>
      <trkpt lat="43.99141" lon="7.25999">
        <ele>1124.5999755859</ele>
        <time>2019-03-30T10:08:03.000Z</time>
      </trkpt>
      <trkpt lat="43.99145" lon="7.26002">
        <ele>1125.5999755859</ele>
        <time>2019-03-30T10:08:09.000Z</time>
      </trkpt>
      <trkpt lat="43.99146" lon="7.26003">
        <ele>1126.1999511719</ele>
        <time>2019-03-30T10:08:11.000Z</time>
      </trkpt>
      <trkpt lat="43.99148" lon="7.26005">
        <ele>1126.8000488281</ele>
        <time>2019-03-30T10:08:14.000Z</time>
      </trkpt>
      <trkpt lat="43.99152" lon="7.26008">
        <ele>1127.5999755859</ele>
        <time>2019-03-30T10:08:20.000Z</time>
      </trkpt>
      <trkpt lat="43.99153" lon="7.26009">
        <ele>1128</ele>
        <time>2019-03-30T10:08:21.000Z</time>
      </trkpt>
      <trkpt lat="43.99157" lon="7.26011">
        <ele>1129</ele>
        <time>2019-03-30T10:08:27.000Z</time>
      </trkpt>
      <trkpt lat="43.99158" lon="7.26012">
        <ele>1129.1999511719</ele>
        <time>2019-03-30T10:08:28.000Z</time>
      </trkpt>
      <trkpt lat="43.99162" lon="7.26016">
        <ele>1130</ele>
        <time>2019-03-30T10:08:34.000Z</time>
      </trkpt>
      <trkpt lat="43.99164" lon="7.26017">
        <ele>1130.4000244141</ele>
        <time>2019-03-30T10:08:37.000Z</time>
      </trkpt>
      <trkpt lat="43.99166" lon="7.26021">
        <ele>1131.1999511719</ele>
        <time>2019-03-30T10:08:41.000Z</time>
      </trkpt>
      <trkpt lat="43.99169" lon="7.26024">
        <ele>1131.1999511719</ele>
        <time>2019-03-30T10:08:46.000Z</time>
      </trkpt>
      <trkpt lat="43.99173" lon="7.26027">
        <ele>1132.1999511719</ele>
        <time>2019-03-30T10:08:52.000Z</time>
      </trkpt>
      <trkpt lat="43.99175" lon="7.26027">
        <ele>1132.8000488281</ele>
        <time>2019-03-30T10:08:55.000Z</time>
      </trkpt>
      <trkpt lat="43.99176" lon="7.26029">
        <ele>1133.4000244141</ele>
        <time>2019-03-30T10:08:58.000Z</time>
      </trkpt>
      <trkpt lat="43.99177" lon="7.26032">
        <ele>1134</ele>
        <time>2019-03-30T10:09:02.000Z</time>
      </trkpt>
      <trkpt lat="43.99177" lon="7.26036">
        <ele>1134</ele>
        <time>2019-03-30T10:09:05.000Z</time>
      </trkpt>
      <trkpt lat="43.99176" lon="7.2604">
        <ele>1133.8000488281</ele>
        <time>2019-03-30T10:09:08.000Z</time>
      </trkpt>
      <trkpt lat="43.99176" lon="7.26048">
        <ele>1133.8000488281</ele>
        <time>2019-03-30T10:09:15.000Z</time>
      </trkpt>
      <trkpt lat="43.99175" lon="7.26049">
        <ele>1133.8000488281</ele>
        <time>2019-03-30T10:09:16.000Z</time>
      </trkpt>
      <trkpt lat="43.99171" lon="7.26053">
        <ele>1134</ele>
        <time>2019-03-30T10:09:20.000Z</time>
      </trkpt>
      <trkpt lat="43.9917" lon="7.26056">
        <ele>1134.5999755859</ele>
        <time>2019-03-30T10:09:24.000Z</time>
      </trkpt>
      <trkpt lat="43.99171" lon="7.26057">
        <ele>1134.8000488281</ele>
        <time>2019-03-30T10:09:25.000Z</time>
      </trkpt>
      <trkpt lat="43.99172" lon="7.26059">
        <ele>1134.8000488281</ele>
        <time>2019-03-30T10:09:27.000Z</time>
      </trkpt>
      <trkpt lat="43.99173" lon="7.26063">
        <ele>1134.4000244141</ele>
        <time>2019-03-30T10:09:33.000Z</time>
      </trkpt>
      <trkpt lat="43.99177" lon="7.2607">
        <ele>1135</ele>
        <time>2019-03-30T10:09:40.000Z</time>
      </trkpt>
      <trkpt lat="43.99179" lon="7.26074">
        <ele>1135.4000244141</ele>
        <time>2019-03-30T10:09:46.000Z</time>
      </trkpt>
      <trkpt lat="43.9918" lon="7.26075">
        <ele>1135.4000244141</ele>
        <time>2019-03-30T10:09:47.000Z</time>
      </trkpt>
      <trkpt lat="43.99181" lon="7.26079">
        <ele>1135.5999755859</ele>
        <time>2019-03-30T10:09:52.000Z</time>
      </trkpt>
      <trkpt lat="43.99182" lon="7.26081">
        <ele>1135.8000488281</ele>
        <time>2019-03-30T10:09:53.000Z</time>
      </trkpt>
      <trkpt lat="43.99183" lon="7.26087">
        <ele>1136.1999511719</ele>
        <time>2019-03-30T10:09:59.000Z</time>
      </trkpt>
      <trkpt lat="43.99186" lon="7.26099">
        <ele>1136.8000488281</ele>
        <time>2019-03-30T10:10:08.000Z</time>
      </trkpt>
      <trkpt lat="43.99188" lon="7.26108">
        <ele>1137.8000488281</ele>
        <time>2019-03-30T10:10:16.000Z</time>
      </trkpt>
      <trkpt lat="43.99188" lon="7.2611">
        <ele>1138</ele>
        <time>2019-03-30T10:10:17.000Z</time>
      </trkpt>
      <trkpt lat="43.99191" lon="7.26114">
        <ele>1138.5999755859</ele>
        <time>2019-03-30T10:10:23.000Z</time>
      </trkpt>
      <trkpt lat="43.99192" lon="7.26116">
        <ele>1139</ele>
        <time>2019-03-30T10:10:25.000Z</time>
      </trkpt>
      <trkpt lat="43.99197" lon="7.2612">
        <ele>1138.5999755859</ele>
        <time>2019-03-30T10:10:30.000Z</time>
      </trkpt>
      <trkpt lat="43.99203" lon="7.26127">
        <ele>1138.5999755859</ele>
        <time>2019-03-30T10:10:38.000Z</time>
      </trkpt>
      <trkpt lat="43.99206" lon="7.26133">
        <ele>1140</ele>
        <time>2019-03-30T10:10:46.000Z</time>
      </trkpt>
      <trkpt lat="43.99206" lon="7.26133">
        <ele>1140.1999511719</ele>
        <time>2019-03-30T10:10:47.000Z</time>
      </trkpt>
      <trkpt lat="43.9921" lon="7.26137">
        <ele>1141.1999511719</ele>
        <time>2019-03-30T10:10:54.000Z</time>
      </trkpt>
      <trkpt lat="43.9921" lon="7.26138">
        <ele>1141.4000244141</ele>
        <time>2019-03-30T10:10:55.000Z</time>
      </trkpt>
      <trkpt lat="43.99211" lon="7.26141">
        <ele>1142.1999511719</ele>
        <time>2019-03-30T10:11:00.000Z</time>
      </trkpt>
      <trkpt lat="43.99212" lon="7.26143">
        <ele>1142.8000488281</ele>
        <time>2019-03-30T10:11:03.000Z</time>
      </trkpt>
      <trkpt lat="43.99213" lon="7.26146">
        <ele>1143.4000244141</ele>
        <time>2019-03-30T10:11:06.000Z</time>
      </trkpt>
      <trkpt lat="43.99216" lon="7.26148">
        <ele>1144.4000244141</ele>
        <time>2019-03-30T10:11:11.000Z</time>
      </trkpt>
      <trkpt lat="43.99218" lon="7.26151">
        <ele>1145.4000244141</ele>
        <time>2019-03-30T10:11:17.000Z</time>
      </trkpt>
      <trkpt lat="43.9922" lon="7.26152">
        <ele>1146</ele>
        <time>2019-03-30T10:11:19.000Z</time>
      </trkpt>
      <trkpt lat="43.99222" lon="7.26153">
        <ele>1146.8000488281</ele>
        <time>2019-03-30T10:11:22.000Z</time>
      </trkpt>
      <trkpt lat="43.99228" lon="7.26154">
        <ele>1147.8000488281</ele>
        <time>2019-03-30T10:11:29.000Z</time>
      </trkpt>
      <trkpt lat="43.99229" lon="7.26155">
        <ele>1147.8000488281</ele>
        <time>2019-03-30T10:11:31.000Z</time>
      </trkpt>
      <trkpt lat="43.99232" lon="7.26158">
        <ele>1148.4000244141</ele>
        <time>2019-03-30T10:11:36.000Z</time>
      </trkpt>
      <trkpt lat="43.99234" lon="7.2616">
        <ele>1149</ele>
        <time>2019-03-30T10:11:40.000Z</time>
      </trkpt>
      <trkpt lat="43.99237" lon="7.26163">
        <ele>1149.1999511719</ele>
        <time>2019-03-30T10:11:44.000Z</time>
      </trkpt>
      <trkpt lat="43.99241" lon="7.26167">
        <ele>1149</ele>
        <time>2019-03-30T10:11:50.000Z</time>
      </trkpt>
      <trkpt lat="43.99243" lon="7.26169">
        <ele>1148.8000488281</ele>
        <time>2019-03-30T10:11:52.000Z</time>
      </trkpt>
      <trkpt lat="43.99249" lon="7.26174">
        <ele>1148.1999511719</ele>
        <time>2019-03-30T10:11:58.000Z</time>
      </trkpt>
      <trkpt lat="43.9925" lon="7.26178">
        <ele>1148.1999511719</ele>
        <time>2019-03-30T10:12:03.000Z</time>
      </trkpt>
      <trkpt lat="43.9925" lon="7.2618">
        <ele>1148.1999511719</ele>
        <time>2019-03-30T10:12:04.000Z</time>
      </trkpt>
      <trkpt lat="43.9925" lon="7.26184">
        <ele>1148</ele>
        <time>2019-03-30T10:12:06.000Z</time>
      </trkpt>
      <trkpt lat="43.9925" lon="7.26186">
        <ele>1147.8000488281</ele>
        <time>2019-03-30T10:12:07.000Z</time>
      </trkpt>
      <trkpt lat="43.9925" lon="7.26189">
        <ele>1147.8000488281</ele>
        <time>2019-03-30T10:12:09.000Z</time>
      </trkpt>
      <trkpt lat="43.99251" lon="7.2619">
        <ele>1148.1999511719</ele>
        <time>2019-03-30T10:12:11.000Z</time>
      </trkpt>
      <trkpt lat="43.99254" lon="7.26193">
        <ele>1148.5999755859</ele>
        <time>2019-03-30T10:12:13.000Z</time>
      </trkpt>
      <trkpt lat="43.99255" lon="7.26194">
        <ele>1149.1999511719</ele>
        <time>2019-03-30T10:12:15.000Z</time>
      </trkpt>
      <trkpt lat="43.99258" lon="7.26198">
        <ele>1150.4000244141</ele>
        <time>2019-03-30T10:12:18.000Z</time>
      </trkpt>
      <trkpt lat="43.99257" lon="7.26199">
        <ele>1151.4000244141</ele>
        <time>2019-03-30T10:12:24.000Z</time>
      </trkpt>
      <trkpt lat="43.99258" lon="7.26203">
        <ele>1151.1999511719</ele>
        <time>2019-03-30T10:12:26.000Z</time>
      </trkpt>
      <trkpt lat="43.99257" lon="7.26205">
        <ele>1151</ele>
        <time>2019-03-30T10:12:28.000Z</time>
      </trkpt>
      <trkpt lat="43.99253" lon="7.26208">
        <ele>1150.4000244141</ele>
        <time>2019-03-30T10:12:32.000Z</time>
      </trkpt>
      <trkpt lat="43.99251" lon="7.26208">
        <ele>1150.4000244141</ele>
        <time>2019-03-30T10:12:34.000Z</time>
      </trkpt>
      <trkpt lat="43.99249" lon="7.26208">
        <ele>1150.4000244141</ele>
        <time>2019-03-30T10:12:36.000Z</time>
      </trkpt>
      <trkpt lat="43.99245" lon="7.26206">
        <ele>1151</ele>
        <time>2019-03-30T10:12:42.000Z</time>
      </trkpt>
      <trkpt lat="43.99239" lon="7.26202">
        <ele>1151.4000244141</ele>
        <time>2019-03-30T10:12:47.000Z</time>
      </trkpt>
      <trkpt lat="43.99237" lon="7.26202">
        <ele>1151.4000244141</ele>
        <time>2019-03-30T10:12:49.000Z</time>
      </trkpt>
      <trkpt lat="43.99232" lon="7.26201">
        <ele>1152</ele>
        <time>2019-03-30T10:12:54.000Z</time>
      </trkpt>
      <trkpt lat="43.99228" lon="7.262">
        <ele>1152.5999755859</ele>
        <time>2019-03-30T10:12:58.000Z</time>
      </trkpt>
      <trkpt lat="43.99225" lon="7.26201">
        <ele>1153</ele>
        <time>2019-03-30T10:13:01.000Z</time>
      </trkpt>
      <trkpt lat="43.99221" lon="7.26203">
        <ele>1153.5999755859</ele>
        <time>2019-03-30T10:13:06.000Z</time>
      </trkpt>
      <trkpt lat="43.99219" lon="7.26206">
        <ele>1154.1999511719</ele>
        <time>2019-03-30T10:13:09.000Z</time>
      </trkpt>
      <trkpt lat="43.99215" lon="7.2621">
        <ele>1154.8000488281</ele>
        <time>2019-03-30T10:13:14.000Z</time>
      </trkpt>
      <trkpt lat="43.99211" lon="7.26212">
        <ele>1155.4000244141</ele>
        <time>2019-03-30T10:13:18.000Z</time>
      </trkpt>
      <trkpt lat="43.99209" lon="7.26214">
        <ele>1155.8000488281</ele>
        <time>2019-03-30T10:13:20.000Z</time>
      </trkpt>
      <trkpt lat="43.99204" lon="7.2622">
        <ele>1156.5999755859</ele>
        <time>2019-03-30T10:13:27.000Z</time>
      </trkpt>
      <trkpt lat="43.99202" lon="7.26221">
        <ele>1157</ele>
        <time>2019-03-30T10:13:29.000Z</time>
      </trkpt>
      <trkpt lat="43.992" lon="7.26224">
        <ele>1157.4000244141</ele>
        <time>2019-03-30T10:13:34.000Z</time>
      </trkpt>
      <trkpt lat="43.99199" lon="7.26225">
        <ele>1157.8000488281</ele>
        <time>2019-03-30T10:13:43.000Z</time>
      </trkpt>
      <trkpt lat="43.99198" lon="7.26227">
        <ele>1158</ele>
        <time>2019-03-30T10:13:46.000Z</time>
      </trkpt>
      <trkpt lat="43.99197" lon="7.26227">
        <ele>1158</ele>
        <time>2019-03-30T10:13:47.000Z</time>
      </trkpt>
      <trkpt lat="43.99198" lon="7.26226">
        <ele>1158</ele>
        <time>2019-03-30T10:13:48.000Z</time>
      </trkpt>
      <trkpt lat="43.99194" lon="7.2623">
        <ele>1158.5999755859</ele>
        <time>2019-03-30T10:13:53.000Z</time>
      </trkpt>
      <trkpt lat="43.99194" lon="7.2623">
        <ele>1159</ele>
        <time>2019-03-30T10:13:56.000Z</time>
      </trkpt>
      <trkpt lat="43.99192" lon="7.26233">
        <ele>1159.5999755859</ele>
        <time>2019-03-30T10:13:59.000Z</time>
      </trkpt>
      <trkpt lat="43.99191" lon="7.26235">
        <ele>1160.1999511719</ele>
        <time>2019-03-30T10:14:01.000Z</time>
      </trkpt>
      <trkpt lat="43.9919" lon="7.26236">
        <ele>1161.1999511719</ele>
        <time>2019-03-30T10:14:04.000Z</time>
      </trkpt>
      <trkpt lat="43.99189" lon="7.26236">
        <ele>1161.4000244141</ele>
        <time>2019-03-30T10:14:05.000Z</time>
      </trkpt>
      <trkpt lat="43.99188" lon="7.26239">
        <ele>1161.8000488281</ele>
        <time>2019-03-30T10:14:10.000Z</time>
      </trkpt>
      <trkpt lat="43.99187" lon="7.26241">
        <ele>1162.5999755859</ele>
        <time>2019-03-30T10:14:14.000Z</time>
      </trkpt>
      <trkpt lat="43.99187" lon="7.26242">
        <ele>1162.8000488281</ele>
        <time>2019-03-30T10:14:16.000Z</time>
      </trkpt>
      <trkpt lat="43.99186" lon="7.26246">
        <ele>1163.5999755859</ele>
        <time>2019-03-30T10:14:21.000Z</time>
      </trkpt>
      <trkpt lat="43.99186" lon="7.26247">
        <ele>1163.8000488281</ele>
        <time>2019-03-30T10:14:23.000Z</time>
      </trkpt>
      <trkpt lat="43.99185" lon="7.26251">
        <ele>1164.8000488281</ele>
        <time>2019-03-30T10:14:29.000Z</time>
      </trkpt>
      <trkpt lat="43.99184" lon="7.26253">
        <ele>1165.1999511719</ele>
        <time>2019-03-30T10:14:31.000Z</time>
      </trkpt>
      <trkpt lat="43.99183" lon="7.26255">
        <ele>1165.8000488281</ele>
        <time>2019-03-30T10:14:34.000Z</time>
      </trkpt>
      <trkpt lat="43.99182" lon="7.26257">
        <ele>1166</ele>
        <time>2019-03-30T10:14:35.000Z</time>
      </trkpt>
      <trkpt lat="43.9918" lon="7.26258">
        <ele>1166.1999511719</ele>
        <time>2019-03-30T10:14:37.000Z</time>
      </trkpt>
      <trkpt lat="43.9918" lon="7.2626">
        <ele>1166.1999511719</ele>
        <time>2019-03-30T10:14:38.000Z</time>
      </trkpt>
      <trkpt lat="43.99179" lon="7.26262">
        <ele>1166.1999511719</ele>
        <time>2019-03-30T10:14:41.000Z</time>
      </trkpt>
      <trkpt lat="43.99179" lon="7.26263">
        <ele>1166.1999511719</ele>
        <time>2019-03-30T10:14:42.000Z</time>
      </trkpt>
      <trkpt lat="43.99177" lon="7.26264">
        <ele>1166.8000488281</ele>
        <time>2019-03-30T10:14:46.000Z</time>
      </trkpt>
      <trkpt lat="43.99176" lon="7.26265">
        <ele>1167</ele>
        <time>2019-03-30T10:14:48.000Z</time>
      </trkpt>
      <trkpt lat="43.99174" lon="7.26267">
        <ele>1167.8000488281</ele>
        <time>2019-03-30T10:14:53.000Z</time>
      </trkpt>
      <trkpt lat="43.99174" lon="7.26269">
        <ele>1168.1999511719</ele>
        <time>2019-03-30T10:14:55.000Z</time>
      </trkpt>
      <trkpt lat="43.99174" lon="7.26269">
        <ele>1168.4000244141</ele>
        <time>2019-03-30T10:14:57.000Z</time>
      </trkpt>
      <trkpt lat="43.99172" lon="7.26272">
        <ele>1168.5999755859</ele>
        <time>2019-03-30T10:14:58.000Z</time>
      </trkpt>
      <trkpt lat="43.9917" lon="7.26274">
        <ele>1169</ele>
        <time>2019-03-30T10:15:01.000Z</time>
      </trkpt>
      <trkpt lat="43.99169" lon="7.26274">
        <ele>1169.1999511719</ele>
        <time>2019-03-30T10:15:02.000Z</time>
      </trkpt>
      <trkpt lat="43.99165" lon="7.26274">
        <ele>1169.5999755859</ele>
        <time>2019-03-30T10:15:07.000Z</time>
      </trkpt>
      <trkpt lat="43.99161" lon="7.26276">
        <ele>1170.1999511719</ele>
        <time>2019-03-30T10:15:13.000Z</time>
      </trkpt>
      <trkpt lat="43.9916" lon="7.26277">
        <ele>1170.4000244141</ele>
        <time>2019-03-30T10:15:14.000Z</time>
      </trkpt>
      <trkpt lat="43.99159" lon="7.26278">
        <ele>1170.5999755859</ele>
        <time>2019-03-30T10:15:15.000Z</time>
      </trkpt>
      <trkpt lat="43.99158" lon="7.26279">
        <ele>1171</ele>
        <time>2019-03-30T10:15:17.000Z</time>
      </trkpt>
      <trkpt lat="43.99156" lon="7.26279">
        <ele>1171.4000244141</ele>
        <time>2019-03-30T10:15:19.000Z</time>
      </trkpt>
      <trkpt lat="43.99156" lon="7.2628">
        <ele>1171.5999755859</ele>
        <time>2019-03-30T10:15:20.000Z</time>
      </trkpt>
      <trkpt lat="43.99152" lon="7.26279">
        <ele>1172.4000244141</ele>
        <time>2019-03-30T10:15:24.000Z</time>
      </trkpt>
      <trkpt lat="43.99151" lon="7.26279">
        <ele>1172.5999755859</ele>
        <time>2019-03-30T10:15:25.000Z</time>
      </trkpt>
      <trkpt lat="43.99146" lon="7.26277">
        <ele>1173.5999755859</ele>
        <time>2019-03-30T10:15:29.000Z</time>
      </trkpt>
      <trkpt lat="43.99145" lon="7.26277">
        <ele>1173.5999755859</ele>
        <time>2019-03-30T10:15:30.000Z</time>
      </trkpt>
      <trkpt lat="43.9914" lon="7.26274">
        <ele>1174.4000244141</ele>
        <time>2019-03-30T10:15:35.000Z</time>
      </trkpt>
      <trkpt lat="43.9914" lon="7.26275">
        <ele>1174.4000244141</ele>
        <time>2019-03-30T10:15:36.000Z</time>
      </trkpt>
      <trkpt lat="43.99138" lon="7.26274">
        <ele>1174.8000488281</ele>
        <time>2019-03-30T10:15:38.000Z</time>
      </trkpt>
      <trkpt lat="43.99135" lon="7.26275">
        <ele>1175.4000244141</ele>
        <time>2019-03-30T10:15:43.000Z</time>
      </trkpt>
      <trkpt lat="43.99133" lon="7.26274">
        <ele>1175.8000488281</ele>
        <time>2019-03-30T10:15:46.000Z</time>
      </trkpt>
      <trkpt lat="43.99132" lon="7.26275">
        <ele>1176.1999511719</ele>
        <time>2019-03-30T10:15:48.000Z</time>
      </trkpt>
      <trkpt lat="43.9913" lon="7.26275">
        <ele>1177</ele>
        <time>2019-03-30T10:15:52.000Z</time>
      </trkpt>
      <trkpt lat="43.99129" lon="7.26275">
        <ele>1177.5999755859</ele>
        <time>2019-03-30T10:15:54.000Z</time>
      </trkpt>
      <trkpt lat="43.99128" lon="7.26275">
        <ele>1178.1999511719</ele>
        <time>2019-03-30T10:15:57.000Z</time>
      </trkpt>
      <trkpt lat="43.99125" lon="7.26275">
        <ele>1178.8000488281</ele>
        <time>2019-03-30T10:16:01.000Z</time>
      </trkpt>
      <trkpt lat="43.99122" lon="7.26275">
        <ele>1179.1999511719</ele>
        <time>2019-03-30T10:16:03.000Z</time>
      </trkpt>
      <trkpt lat="43.99119" lon="7.26274">
        <ele>1180.1999511719</ele>
        <time>2019-03-30T10:16:08.000Z</time>
      </trkpt>
      <trkpt lat="43.99118" lon="7.26274">
        <ele>1180.4000244141</ele>
        <time>2019-03-30T10:16:09.000Z</time>
      </trkpt>
      <trkpt lat="43.99115" lon="7.26274">
        <ele>1181.5999755859</ele>
        <time>2019-03-30T10:16:13.000Z</time>
      </trkpt>
      <trkpt lat="43.99111" lon="7.26274">
        <ele>1182.4000244141</ele>
        <time>2019-03-30T10:16:20.000Z</time>
      </trkpt>
      <trkpt lat="43.9911" lon="7.26274">
        <ele>1182.5999755859</ele>
        <time>2019-03-30T10:16:21.000Z</time>
      </trkpt>
      <trkpt lat="43.99106" lon="7.26276">
        <ele>1183.5999755859</ele>
        <time>2019-03-30T10:16:27.000Z</time>
      </trkpt>
      <trkpt lat="43.99105" lon="7.26277">
        <ele>1183.5999755859</ele>
        <time>2019-03-30T10:16:28.000Z</time>
      </trkpt>
      <trkpt lat="43.99104" lon="7.26278">
        <ele>1184</ele>
        <time>2019-03-30T10:16:30.000Z</time>
      </trkpt>
      <trkpt lat="43.99102" lon="7.26281">
        <ele>1184.5999755859</ele>
        <time>2019-03-30T10:16:33.000Z</time>
      </trkpt>
      <trkpt lat="43.99101" lon="7.26282">
        <ele>1184.5999755859</ele>
        <time>2019-03-30T10:16:34.000Z</time>
      </trkpt>
      <trkpt lat="43.99098" lon="7.26289">
        <ele>1185.8000488281</ele>
        <time>2019-03-30T10:16:41.000Z</time>
      </trkpt>
      <trkpt lat="43.99094" lon="7.26296">
        <ele>1186.5999755859</ele>
        <time>2019-03-30T10:16:47.000Z</time>
      </trkpt>
      <trkpt lat="43.99094" lon="7.26297">
        <ele>1186.8000488281</ele>
        <time>2019-03-30T10:16:48.000Z</time>
      </trkpt>
      <trkpt lat="43.99093" lon="7.263">
        <ele>1187.8000488281</ele>
        <time>2019-03-30T10:16:51.000Z</time>
      </trkpt>
      <trkpt lat="43.99093" lon="7.26303">
        <ele>1188.1999511719</ele>
        <time>2019-03-30T10:16:53.000Z</time>
      </trkpt>
      <trkpt lat="43.99088" lon="7.26313">
        <ele>1188.5999755859</ele>
        <time>2019-03-30T10:17:00.000Z</time>
      </trkpt>
      <trkpt lat="43.99087" lon="7.26319">
        <ele>1189</ele>
        <time>2019-03-30T10:17:05.000Z</time>
      </trkpt>
      <trkpt lat="43.99087" lon="7.26321">
        <ele>1189.1999511719</ele>
        <time>2019-03-30T10:17:07.000Z</time>
      </trkpt>
      <trkpt lat="43.99089" lon="7.26327">
        <ele>1189.8000488281</ele>
        <time>2019-03-30T10:17:13.000Z</time>
      </trkpt>
      <trkpt lat="43.99089" lon="7.26328">
        <ele>1190</ele>
        <time>2019-03-30T10:17:14.000Z</time>
      </trkpt>
      <trkpt lat="43.99088" lon="7.26332">
        <ele>1191.1999511719</ele>
        <time>2019-03-30T10:17:18.000Z</time>
      </trkpt>
      <trkpt lat="43.99088" lon="7.26335">
        <ele>1191.8000488281</ele>
        <time>2019-03-30T10:17:20.000Z</time>
      </trkpt>
      <trkpt lat="43.99088" lon="7.2634">
        <ele>1192.4000244141</ele>
        <time>2019-03-30T10:17:26.000Z</time>
      </trkpt>
      <trkpt lat="43.99083" lon="7.26348">
        <ele>1192.5999755859</ele>
        <time>2019-03-30T10:17:34.000Z</time>
      </trkpt>
      <trkpt lat="43.99077" lon="7.26351">
        <ele>1193.1999511719</ele>
        <time>2019-03-30T10:17:41.000Z</time>
      </trkpt>
      <trkpt lat="43.99076" lon="7.26351">
        <ele>1193.4000244141</ele>
        <time>2019-03-30T10:17:42.000Z</time>
      </trkpt>
      <trkpt lat="43.99076" lon="7.26351">
        <ele>1193.4000244141</ele>
        <time>2019-03-30T10:17:43.000Z</time>
      </trkpt>
      <trkpt lat="43.9907" lon="7.26351">
        <ele>1194.5999755859</ele>
        <time>2019-03-30T10:17:49.000Z</time>
      </trkpt>
      <trkpt lat="43.99068" lon="7.26351">
        <ele>1194.5999755859</ele>
        <time>2019-03-30T10:17:50.000Z</time>
      </trkpt>
      <trkpt lat="43.99059" lon="7.2635">
        <ele>1194.8000488281</ele>
        <time>2019-03-30T10:17:58.000Z</time>
      </trkpt>
      <trkpt lat="43.99052" lon="7.26353">
        <ele>1194.8000488281</ele>
        <time>2019-03-30T10:18:04.000Z</time>
      </trkpt>
      <trkpt lat="43.99045" lon="7.26351">
        <ele>1195.5999755859</ele>
        <time>2019-03-30T10:18:12.000Z</time>
      </trkpt>
      <trkpt lat="43.99043" lon="7.26351">
        <ele>1195.8000488281</ele>
        <time>2019-03-30T10:18:14.000Z</time>
      </trkpt>
      <trkpt lat="43.99039" lon="7.26351">
        <ele>1196.8000488281</ele>
        <time>2019-03-30T10:18:19.000Z</time>
      </trkpt>
      <trkpt lat="43.99038" lon="7.26351">
        <ele>1197</ele>
        <time>2019-03-30T10:18:21.000Z</time>
      </trkpt>
      <trkpt lat="43.99036" lon="7.26352">
        <ele>1197.8000488281</ele>
        <time>2019-03-30T10:18:24.000Z</time>
      </trkpt>
      <trkpt lat="43.99033" lon="7.26354">
        <ele>1199</ele>
        <time>2019-03-30T10:18:29.000Z</time>
      </trkpt>
      <trkpt lat="43.99032" lon="7.26355">
        <ele>1199.4000244141</ele>
        <time>2019-03-30T10:18:31.000Z</time>
      </trkpt>
      <trkpt lat="43.9903" lon="7.26356">
        <ele>1200</ele>
        <time>2019-03-30T10:18:34.000Z</time>
      </trkpt>
      <trkpt lat="43.99027" lon="7.26359">
        <ele>1201</ele>
        <time>2019-03-30T10:18:39.000Z</time>
      </trkpt>
      <trkpt lat="43.99028" lon="7.26358">
        <ele>1201.1999511719</ele>
        <time>2019-03-30T10:18:40.000Z</time>
      </trkpt>
      <trkpt lat="43.99027" lon="7.2636">
        <ele>1201.1999511719</ele>
        <time>2019-03-30T10:18:45.000Z</time>
      </trkpt>
      <trkpt lat="43.99029" lon="7.26371">
        <ele>1200.8000488281</ele>
        <time>2019-03-30T10:18:50.000Z</time>
      </trkpt>
      <trkpt lat="43.99033" lon="7.26378">
        <ele>1200</ele>
        <time>2019-03-30T10:18:52.000Z</time>
      </trkpt>
      <trkpt lat="43.99042" lon="7.26393">
        <ele>1198.8000488281</ele>
        <time>2019-03-30T10:18:55.000Z</time>
      </trkpt>
      <trkpt lat="43.99046" lon="7.26403">
        <ele>1198</ele>
        <time>2019-03-30T10:18:57.000Z</time>
      </trkpt>
      <trkpt lat="43.99047" lon="7.26408">
        <ele>1197.5999755859</ele>
        <time>2019-03-30T10:18:58.000Z</time>
      </trkpt>
      <trkpt lat="43.99052" lon="7.26415">
        <ele>1196.4000244141</ele>
        <time>2019-03-30T10:19:00.000Z</time>
      </trkpt>
      <trkpt lat="43.99055" lon="7.26429">
        <ele>1195.4000244141</ele>
        <time>2019-03-30T10:19:04.000Z</time>
      </trkpt>
      <trkpt lat="43.99059" lon="7.26441">
        <ele>1195.5999755859</ele>
        <time>2019-03-30T10:19:08.000Z</time>
      </trkpt>
      <trkpt lat="43.99071" lon="7.26447">
        <ele>1195.5999755859</ele>
        <time>2019-03-30T10:19:12.000Z</time>
      </trkpt>
      <trkpt lat="43.99077" lon="7.26447">
        <ele>1195.4000244141</ele>
        <time>2019-03-30T10:19:14.000Z</time>
      </trkpt>
      <trkpt lat="43.99084" lon="7.26447">
        <ele>1194.8000488281</ele>
        <time>2019-03-30T10:19:16.000Z</time>
      </trkpt>
      <trkpt lat="43.99088" lon="7.26446">
        <ele>1194.4000244141</ele>
        <time>2019-03-30T10:19:17.000Z</time>
      </trkpt>
      <trkpt lat="43.99095" lon="7.26442">
        <ele>1193.4000244141</ele>
        <time>2019-03-30T10:19:19.000Z</time>
      </trkpt>
      <trkpt lat="43.99099" lon="7.2644">
        <ele>1192.8000488281</ele>
        <time>2019-03-30T10:19:20.000Z</time>
      </trkpt>
      <trkpt lat="43.99107" lon="7.26438">
        <ele>1192.1999511719</ele>
        <time>2019-03-30T10:19:22.000Z</time>
      </trkpt>
      <trkpt lat="43.99114" lon="7.26436">
        <ele>1191.8000488281</ele>
        <time>2019-03-30T10:19:24.000Z</time>
      </trkpt>
      <trkpt lat="43.99124" lon="7.26435">
        <ele>1190.8000488281</ele>
        <time>2019-03-30T10:19:27.000Z</time>
      </trkpt>
      <trkpt lat="43.99127" lon="7.26435">
        <ele>1190.5999755859</ele>
        <time>2019-03-30T10:19:28.000Z</time>
      </trkpt>
      <trkpt lat="43.99133" lon="7.26436">
        <ele>1190</ele>
        <time>2019-03-30T10:19:29.000Z</time>
      </trkpt>
      <trkpt lat="43.99138" lon="7.26436">
        <ele>1189.4000244141</ele>
        <time>2019-03-30T10:19:30.000Z</time>
      </trkpt>
      <trkpt lat="43.99145" lon="7.26442">
        <ele>1188.5999755859</ele>
        <time>2019-03-30T10:19:32.000Z</time>
      </trkpt>
      <trkpt lat="43.99146" lon="7.26447">
        <ele>1188.1999511719</ele>
        <time>2019-03-30T10:19:33.000Z</time>
      </trkpt>
      <trkpt lat="43.9915" lon="7.26459">
        <ele>1187.4000244141</ele>
        <time>2019-03-30T10:19:36.000Z</time>
      </trkpt>
      <trkpt lat="43.9915" lon="7.26461">
        <ele>1187</ele>
        <time>2019-03-30T10:19:37.000Z</time>
      </trkpt>
      <trkpt lat="43.99157" lon="7.26472">
        <ele>1187.8000488281</ele>
        <time>2019-03-30T10:19:43.000Z</time>
      </trkpt>
      <trkpt lat="43.99158" lon="7.26473">
        <ele>1188</ele>
        <time>2019-03-30T10:19:44.000Z</time>
      </trkpt>
      <trkpt lat="43.99167" lon="7.26483">
        <ele>1189</ele>
        <time>2019-03-30T10:19:49.000Z</time>
      </trkpt>
      <trkpt lat="43.9918" lon="7.26502">
        <ele>1188</ele>
        <time>2019-03-30T10:19:53.000Z</time>
      </trkpt>
      <trkpt lat="43.99187" lon="7.26512">
        <ele>1187</ele>
        <time>2019-03-30T10:19:55.000Z</time>
      </trkpt>
      <trkpt lat="43.99194" lon="7.26522">
        <ele>1186</ele>
        <time>2019-03-30T10:19:58.000Z</time>
      </trkpt>
      <trkpt lat="43.99197" lon="7.26526">
        <ele>1185.8000488281</ele>
        <time>2019-03-30T10:19:59.000Z</time>
      </trkpt>
      <trkpt lat="43.99198" lon="7.26531">
        <ele>1185.8000488281</ele>
        <time>2019-03-30T10:20:00.000Z</time>
      </trkpt>
      <trkpt lat="43.99196" lon="7.26534">
        <ele>1185.4000244141</ele>
        <time>2019-03-30T10:20:02.000Z</time>
      </trkpt>
      <trkpt lat="43.9919" lon="7.26546">
        <ele>1185.8000488281</ele>
        <time>2019-03-30T10:20:07.000Z</time>
      </trkpt>
      <trkpt lat="43.99186" lon="7.26561">
        <ele>1184.8000488281</ele>
        <time>2019-03-30T10:20:11.000Z</time>
      </trkpt>
      <trkpt lat="43.99179" lon="7.26569">
        <ele>1184.8000488281</ele>
        <time>2019-03-30T10:20:15.000Z</time>
      </trkpt>
      <trkpt lat="43.99177" lon="7.2657">
        <ele>1185.1999511719</ele>
        <time>2019-03-30T10:20:16.000Z</time>
      </trkpt>
      <trkpt lat="43.99176" lon="7.26571">
        <ele>1186</ele>
        <time>2019-03-30T10:20:19.000Z</time>
      </trkpt>
      <trkpt lat="43.99175" lon="7.26572">
        <ele>1186.4000244141</ele>
        <time>2019-03-30T10:20:21.000Z</time>
      </trkpt>
      <trkpt lat="43.99174" lon="7.26573">
        <ele>1186.4000244141</ele>
        <time>2019-03-30T10:20:30.000Z</time>
      </trkpt>
      <trkpt lat="43.99172" lon="7.26574">
        <ele>1186.5999755859</ele>
        <time>2019-03-30T10:20:31.000Z</time>
      </trkpt>
      <trkpt lat="43.99167" lon="7.26574">
        <ele>1186.4000244141</ele>
        <time>2019-03-30T10:20:34.000Z</time>
      </trkpt>
      <trkpt lat="43.99161" lon="7.26578">
        <ele>1186.8000488281</ele>
        <time>2019-03-30T10:20:38.000Z</time>
      </trkpt>
      <trkpt lat="43.99159" lon="7.2658">
        <ele>1187</ele>
        <time>2019-03-30T10:20:39.000Z</time>
      </trkpt>
      <trkpt lat="43.99158" lon="7.26581">
        <ele>1187.4000244141</ele>
        <time>2019-03-30T10:20:40.000Z</time>
      </trkpt>
      <trkpt lat="43.99156" lon="7.26585">
        <ele>1188</ele>
        <time>2019-03-30T10:20:42.000Z</time>
      </trkpt>
      <trkpt lat="43.99157" lon="7.26591">
        <ele>1188.1999511719</ele>
        <time>2019-03-30T10:20:44.000Z</time>
      </trkpt>
      <trkpt lat="43.99157" lon="7.26593">
        <ele>1188.4000244141</ele>
        <time>2019-03-30T10:20:45.000Z</time>
      </trkpt>
      <trkpt lat="43.9916" lon="7.26609">
        <ele>1188.1999511719</ele>
        <time>2019-03-30T10:20:49.000Z</time>
      </trkpt>
      <trkpt lat="43.99163" lon="7.26619">
        <ele>1187.5999755859</ele>
        <time>2019-03-30T10:20:52.000Z</time>
      </trkpt>
      <trkpt lat="43.99164" lon="7.26628">
        <ele>1187.4000244141</ele>
        <time>2019-03-30T10:20:54.000Z</time>
      </trkpt>
      <trkpt lat="43.99166" lon="7.26638">
        <ele>1187</ele>
        <time>2019-03-30T10:20:57.000Z</time>
      </trkpt>
      <trkpt lat="43.99166" lon="7.26641">
        <ele>1187</ele>
        <time>2019-03-30T10:20:58.000Z</time>
      </trkpt>
      <trkpt lat="43.99169" lon="7.2666">
        <ele>1187.5999755859</ele>
        <time>2019-03-30T10:21:04.000Z</time>
      </trkpt>
      <trkpt lat="43.99172" lon="7.26668">
        <ele>1187.5999755859</ele>
        <time>2019-03-30T10:21:09.000Z</time>
      </trkpt>
      <trkpt lat="43.99177" lon="7.26677">
        <ele>1188.1999511719</ele>
        <time>2019-03-30T10:21:13.000Z</time>
      </trkpt>
      <trkpt lat="43.99179" lon="7.26679">
        <ele>1188.1999511719</ele>
        <time>2019-03-30T10:21:14.000Z</time>
      </trkpt>
      <trkpt lat="43.99192" lon="7.26692">
        <ele>1189.4000244141</ele>
        <time>2019-03-30T10:21:21.000Z</time>
      </trkpt>
      <trkpt lat="43.992" lon="7.26696">
        <ele>1189</ele>
        <time>2019-03-30T10:21:24.000Z</time>
      </trkpt>
      <trkpt lat="43.99201" lon="7.267">
        <ele>1188.5999755859</ele>
        <time>2019-03-30T10:21:25.000Z</time>
      </trkpt>
      <trkpt lat="43.99204" lon="7.26706">
        <ele>1188.1999511719</ele>
        <time>2019-03-30T10:21:27.000Z</time>
      </trkpt>
      <trkpt lat="43.99205" lon="7.26709">
        <ele>1188.4000244141</ele>
        <time>2019-03-30T10:21:28.000Z</time>
      </trkpt>
      <trkpt lat="43.9921" lon="7.26734">
        <ele>1188.8000488281</ele>
        <time>2019-03-30T10:21:34.000Z</time>
      </trkpt>
      <trkpt lat="43.99209" lon="7.26757">
        <ele>1188.1999511719</ele>
        <time>2019-03-30T10:21:39.000Z</time>
      </trkpt>
      <trkpt lat="43.99205" lon="7.2677">
        <ele>1188.4000244141</ele>
        <time>2019-03-30T10:21:44.000Z</time>
      </trkpt>
      <trkpt lat="43.99197" lon="7.26786">
        <ele>1188.5999755859</ele>
        <time>2019-03-30T10:21:49.000Z</time>
      </trkpt>
      <trkpt lat="43.99193" lon="7.26792">
        <ele>1188.1999511719</ele>
        <time>2019-03-30T10:21:53.000Z</time>
      </trkpt>
      <trkpt lat="43.99191" lon="7.26794">
        <ele>1188.1999511719</ele>
        <time>2019-03-30T10:21:54.000Z</time>
      </trkpt>
      <trkpt lat="43.99186" lon="7.26798">
        <ele>1188.4000244141</ele>
        <time>2019-03-30T10:21:58.000Z</time>
      </trkpt>
      <trkpt lat="43.99184" lon="7.26802">
        <ele>1188.5999755859</ele>
        <time>2019-03-30T10:22:01.000Z</time>
      </trkpt>
      <trkpt lat="43.99185" lon="7.26801">
        <ele>1188.4000244141</ele>
        <time>2019-03-30T10:22:06.000Z</time>
      </trkpt>
      <trkpt lat="43.99185" lon="7.268">
        <ele>1189</ele>
        <time>2019-03-30T10:22:12.000Z</time>
      </trkpt>
      <trkpt lat="43.99187" lon="7.26797">
        <ele>1189</ele>
        <time>2019-03-30T10:22:19.000Z</time>
      </trkpt>
      <trkpt lat="43.99188" lon="7.26797">
        <ele>1188.8000488281</ele>
        <time>2019-03-30T10:22:20.000Z</time>
      </trkpt>
      <trkpt lat="43.99189" lon="7.26796">
        <ele>1188.5999755859</ele>
        <time>2019-03-30T10:22:27.000Z</time>
      </trkpt>
      <trkpt lat="43.9919" lon="7.26794">
        <ele>1188.4000244141</ele>
        <time>2019-03-30T10:22:36.000Z</time>
      </trkpt>
      <trkpt lat="43.9919" lon="7.26794">
        <ele>1188.8000488281</ele>
        <time>2019-03-30T10:22:45.000Z</time>
      </trkpt>
      <trkpt lat="43.99191" lon="7.26794">
        <ele>1188.5999755859</ele>
        <time>2019-03-30T10:22:55.000Z</time>
      </trkpt>
      <trkpt lat="43.99192" lon="7.26794">
        <ele>1188.4000244141</ele>
        <time>2019-03-30T10:23:07.000Z</time>
      </trkpt>
      <trkpt lat="43.99193" lon="7.26793">
        <ele>1188.4000244141</ele>
        <time>2019-03-30T10:23:17.000Z</time>
      </trkpt>
      <trkpt lat="43.99195" lon="7.26793">
        <ele>1188.5999755859</ele>
        <time>2019-03-30T10:23:35.000Z</time>
      </trkpt>
      <trkpt lat="43.99196" lon="7.26793">
        <ele>1189</ele>
        <time>2019-03-30T10:23:47.000Z</time>
      </trkpt>
      <trkpt lat="43.99194" lon="7.26793">
        <ele>1189.1999511719</ele>
        <time>2019-03-30T10:23:58.000Z</time>
      </trkpt>
      <trkpt lat="43.99194" lon="7.26793">
        <ele>1189.4000244141</ele>
        <time>2019-03-30T10:23:59.000Z</time>
      </trkpt>
      <trkpt lat="43.99194" lon="7.26792">
        <ele>1189.1999511719</ele>
        <time>2019-03-30T10:24:13.000Z</time>
      </trkpt>
      <trkpt lat="43.99193" lon="7.26791">
        <ele>1189</ele>
        <time>2019-03-30T10:24:33.000Z</time>
      </trkpt>
      <trkpt lat="43.99193" lon="7.26792">
        <ele>1189.1999511719</ele>
        <time>2019-03-30T10:24:45.000Z</time>
      </trkpt>
      <trkpt lat="43.99192" lon="7.26791">
        <ele>1189.1999511719</ele>
        <time>2019-03-30T10:24:50.000Z</time>
      </trkpt>
      <trkpt lat="43.99192" lon="7.26791">
        <ele>1188.8000488281</ele>
        <time>2019-03-30T10:25:04.000Z</time>
      </trkpt>
      <trkpt lat="43.99192" lon="7.26792">
        <ele>1189</ele>
        <time>2019-03-30T10:25:12.000Z</time>
      </trkpt>
      <trkpt lat="43.99192" lon="7.26792">
        <ele>1188.1999511719</ele>
        <time>2019-03-30T10:25:21.000Z</time>
      </trkpt>
      <trkpt lat="43.99192" lon="7.26792">
        <ele>1188.4000244141</ele>
        <time>2019-03-30T10:25:25.000Z</time>
      </trkpt>
      <trkpt lat="43.99193" lon="7.26791">
        <ele>1188.8000488281</ele>
        <time>2019-03-30T10:25:38.000Z</time>
      </trkpt>
      <trkpt lat="43.99193" lon="7.26792">
        <ele>1189</ele>
        <time>2019-03-30T10:25:43.000Z</time>
      </trkpt>
      <trkpt lat="43.99192" lon="7.26791">
        <ele>1188.5999755859</ele>
        <time>2019-03-30T10:25:51.000Z</time>
      </trkpt>
      <trkpt lat="43.99193" lon="7.26792">
        <ele>1188.5999755859</ele>
        <time>2019-03-30T10:25:59.000Z</time>
      </trkpt>
      <trkpt lat="43.99192" lon="7.2679">
        <ele>1188.4000244141</ele>
        <time>2019-03-30T10:26:14.000Z</time>
      </trkpt>
      <trkpt lat="43.99192" lon="7.2679">
        <ele>1188.5999755859</ele>
        <time>2019-03-30T10:26:24.000Z</time>
      </trkpt>
      <trkpt lat="43.99191" lon="7.2679">
        <ele>1189</ele>
        <time>2019-03-30T10:26:39.000Z</time>
      </trkpt>
      <trkpt lat="43.99191" lon="7.2679">
        <ele>1189.4000244141</ele>
        <time>2019-03-30T10:26:48.000Z</time>
      </trkpt>
      <trkpt lat="43.99191" lon="7.2679">
        <ele>1189.1999511719</ele>
        <time>2019-03-30T10:26:50.000Z</time>
      </trkpt>
      <trkpt lat="43.99191" lon="7.26791">
        <ele>1188.8000488281</ele>
        <time>2019-03-30T10:27:08.000Z</time>
      </trkpt>
      <trkpt lat="43.99191" lon="7.26791">
        <ele>1189</ele>
        <time>2019-03-30T10:27:16.000Z</time>
      </trkpt>
      <trkpt lat="43.9919" lon="7.26791">
        <ele>1188.5999755859</ele>
        <time>2019-03-30T10:27:25.000Z</time>
      </trkpt>
      <trkpt lat="43.9919" lon="7.26791">
        <ele>1188.5999755859</ele>
        <time>2019-03-30T10:27:31.000Z</time>
      </trkpt>
      <trkpt lat="43.99189" lon="7.26792">
        <ele>1188.4000244141</ele>
        <time>2019-03-30T10:27:40.000Z</time>
      </trkpt>
      <trkpt lat="43.99189" lon="7.26792">
        <ele>1188.4000244141</ele>
        <time>2019-03-30T10:27:42.000Z</time>
      </trkpt>
      <trkpt lat="43.99189" lon="7.26792">
        <ele>1188.5999755859</ele>
        <time>2019-03-30T10:27:46.000Z</time>
      </trkpt>
      <trkpt lat="43.99189" lon="7.26793">
        <ele>1188.1999511719</ele>
        <time>2019-03-30T10:27:54.000Z</time>
      </trkpt>
      <trkpt lat="43.9919" lon="7.26793">
        <ele>1188.8000488281</ele>
        <time>2019-03-30T10:28:04.000Z</time>
      </trkpt>
      <trkpt lat="43.9919" lon="7.26792">
        <ele>1188.5999755859</ele>
        <time>2019-03-30T10:28:21.000Z</time>
      </trkpt>
      <trkpt lat="43.9919" lon="7.26793">
        <ele>1188.5999755859</ele>
        <time>2019-03-30T10:28:32.000Z</time>
      </trkpt>
      <trkpt lat="43.9919" lon="7.26792">
        <ele>1188.4000244141</ele>
        <time>2019-03-30T10:28:41.000Z</time>
      </trkpt>
      <trkpt lat="43.9919" lon="7.26792">
        <ele>1188.4000244141</ele>
        <time>2019-03-30T10:28:53.000Z</time>
      </trkpt>
      <trkpt lat="43.99191" lon="7.26792">
        <ele>1188.4000244141</ele>
        <time>2019-03-30T10:28:59.000Z</time>
      </trkpt>
      <trkpt lat="43.99191" lon="7.26792">
        <ele>1188</ele>
        <time>2019-03-30T10:29:13.000Z</time>
      </trkpt>
      <trkpt lat="43.99191" lon="7.26792">
        <ele>1188.4000244141</ele>
        <time>2019-03-30T10:29:31.000Z</time>
      </trkpt>
      <trkpt lat="43.99191" lon="7.26791">
        <ele>1188.1999511719</ele>
        <time>2019-03-30T10:29:39.000Z</time>
      </trkpt>
      <trkpt lat="43.99191" lon="7.26791">
        <ele>1188.1999511719</ele>
        <time>2019-03-30T10:29:49.000Z</time>
      </trkpt>
      <trkpt lat="43.99191" lon="7.26792">
        <ele>1188.5999755859</ele>
        <time>2019-03-30T10:29:57.000Z</time>
      </trkpt>
      <trkpt lat="43.99191" lon="7.26793">
        <ele>1188.5999755859</ele>
        <time>2019-03-30T10:30:09.000Z</time>
      </trkpt>
      <trkpt lat="43.99188" lon="7.26795">
        <ele>1188.5999755859</ele>
        <time>2019-03-30T10:30:15.000Z</time>
      </trkpt>
      <trkpt lat="43.99186" lon="7.26799">
        <ele>1188.4000244141</ele>
        <time>2019-03-30T10:30:21.000Z</time>
      </trkpt>
      <trkpt lat="43.99186" lon="7.26798">
        <ele>1189</ele>
        <time>2019-03-30T10:30:29.000Z</time>
      </trkpt>
      <trkpt lat="43.99187" lon="7.26798">
        <ele>1188.8000488281</ele>
        <time>2019-03-30T10:30:40.000Z</time>
      </trkpt>
      <trkpt lat="43.99188" lon="7.26797">
        <ele>1188.8000488281</ele>
        <time>2019-03-30T10:30:51.000Z</time>
      </trkpt>
      <trkpt lat="43.99187" lon="7.26798">
        <ele>1188.8000488281</ele>
        <time>2019-03-30T10:30:58.000Z</time>
      </trkpt>
      <trkpt lat="43.99187" lon="7.26798">
        <ele>1189.1999511719</ele>
        <time>2019-03-30T10:31:09.000Z</time>
      </trkpt>
      <trkpt lat="43.99187" lon="7.26797">
        <ele>1189</ele>
        <time>2019-03-30T10:31:22.000Z</time>
      </trkpt>
      <trkpt lat="43.99186" lon="7.26798">
        <ele>1189.1999511719</ele>
        <time>2019-03-30T10:31:31.000Z</time>
      </trkpt>
      <trkpt lat="43.99186" lon="7.268">
        <ele>1189.1999511719</ele>
        <time>2019-03-30T10:31:37.000Z</time>
      </trkpt>
      <trkpt lat="43.99186" lon="7.26801">
        <ele>1189</ele>
        <time>2019-03-30T10:31:50.000Z</time>
      </trkpt>
      <trkpt lat="43.99181" lon="7.26805">
        <ele>1189</ele>
        <time>2019-03-30T10:31:56.000Z</time>
      </trkpt>
      <trkpt lat="43.9917" lon="7.26814">
        <ele>1189.1999511719</ele>
        <time>2019-03-30T10:32:01.000Z</time>
      </trkpt>
      <trkpt lat="43.99166" lon="7.26815">
        <ele>1189.4000244141</ele>
        <time>2019-03-30T10:32:02.000Z</time>
      </trkpt>
      <trkpt lat="43.99156" lon="7.26821">
        <ele>1189.8000488281</ele>
        <time>2019-03-30T10:32:06.000Z</time>
      </trkpt>
      <trkpt lat="43.99152" lon="7.26823">
        <ele>1190.4000244141</ele>
        <time>2019-03-30T10:32:08.000Z</time>
      </trkpt>
      <trkpt lat="43.99147" lon="7.26824">
        <ele>1191.1999511719</ele>
        <time>2019-03-30T10:32:11.000Z</time>
      </trkpt>
      <trkpt lat="43.99146" lon="7.26823">
        <ele>1191.8000488281</ele>
        <time>2019-03-30T10:32:12.000Z</time>
      </trkpt>
      <trkpt lat="43.99146" lon="7.26825">
        <ele>1192.5999755859</ele>
        <time>2019-03-30T10:32:15.000Z</time>
      </trkpt>
      <trkpt lat="43.99147" lon="7.26828">
        <ele>1192.8000488281</ele>
        <time>2019-03-30T10:32:17.000Z</time>
      </trkpt>
      <trkpt lat="43.99146" lon="7.26827">
        <ele>1192.8000488281</ele>
        <time>2019-03-30T10:32:18.000Z</time>
      </trkpt>
      <trkpt lat="43.99142" lon="7.26828">
        <ele>1193.1999511719</ele>
        <time>2019-03-30T10:32:22.000Z</time>
      </trkpt>
      <trkpt lat="43.99141" lon="7.26828">
        <ele>1193.4000244141</ele>
        <time>2019-03-30T10:32:23.000Z</time>
      </trkpt>
      <trkpt lat="43.99136" lon="7.26829">
        <ele>1194</ele>
        <time>2019-03-30T10:32:26.000Z</time>
      </trkpt>
      <trkpt lat="43.99131" lon="7.2683">
        <ele>1194.4000244141</ele>
        <time>2019-03-30T10:32:29.000Z</time>
      </trkpt>
      <trkpt lat="43.99127" lon="7.2683">
        <ele>1195</ele>
        <time>2019-03-30T10:32:33.000Z</time>
      </trkpt>
      <trkpt lat="43.99125" lon="7.26831">
        <ele>1195</ele>
        <time>2019-03-30T10:32:34.000Z</time>
      </trkpt>
      <trkpt lat="43.99118" lon="7.26832">
        <ele>1195.5999755859</ele>
        <time>2019-03-30T10:32:39.000Z</time>
      </trkpt>
      <trkpt lat="43.99115" lon="7.26833">
        <ele>1196.1999511719</ele>
        <time>2019-03-30T10:32:41.000Z</time>
      </trkpt>
      <trkpt lat="43.9911" lon="7.26834">
        <ele>1197.1999511719</ele>
        <time>2019-03-30T10:32:45.000Z</time>
      </trkpt>
      <trkpt lat="43.99109" lon="7.26833">
        <ele>1197.4000244141</ele>
        <time>2019-03-30T10:32:46.000Z</time>
      </trkpt>
      <trkpt lat="43.99102" lon="7.26833">
        <ele>1198.5999755859</ele>
        <time>2019-03-30T10:32:51.000Z</time>
      </trkpt>
      <trkpt lat="43.991" lon="7.26833">
        <ele>1198.8000488281</ele>
        <time>2019-03-30T10:32:52.000Z</time>
      </trkpt>
      <trkpt lat="43.99096" lon="7.26832">
        <ele>1199.5999755859</ele>
        <time>2019-03-30T10:32:56.000Z</time>
      </trkpt>
      <trkpt lat="43.99095" lon="7.26832">
        <ele>1199.8000488281</ele>
        <time>2019-03-30T10:32:57.000Z</time>
      </trkpt>
      <trkpt lat="43.99093" lon="7.26832">
        <ele>1200.1999511719</ele>
        <time>2019-03-30T10:32:58.000Z</time>
      </trkpt>
      <trkpt lat="43.9909" lon="7.26832">
        <ele>1200.8000488281</ele>
        <time>2019-03-30T10:33:00.000Z</time>
      </trkpt>
      <trkpt lat="43.99085" lon="7.26829">
        <ele>1201.4000244141</ele>
        <time>2019-03-30T10:33:04.000Z</time>
      </trkpt>
      <trkpt lat="43.99082" lon="7.26828">
        <ele>1202</ele>
        <time>2019-03-30T10:33:06.000Z</time>
      </trkpt>
      <trkpt lat="43.99077" lon="7.26827">
        <ele>1202.8000488281</ele>
        <time>2019-03-30T10:33:10.000Z</time>
      </trkpt>
      <trkpt lat="43.99072" lon="7.26825">
        <ele>1203</ele>
        <time>2019-03-30T10:33:13.000Z</time>
      </trkpt>
      <trkpt lat="43.99067" lon="7.26824">
        <ele>1203.8000488281</ele>
        <time>2019-03-30T10:33:16.000Z</time>
      </trkpt>
      <trkpt lat="43.99064" lon="7.26823">
        <ele>1204.1999511719</ele>
        <time>2019-03-30T10:33:18.000Z</time>
      </trkpt>
      <trkpt lat="43.99058" lon="7.26821">
        <ele>1204.8000488281</ele>
        <time>2019-03-30T10:33:22.000Z</time>
      </trkpt>
      <trkpt lat="43.99052" lon="7.26818">
        <ele>1205.1999511719</ele>
        <time>2019-03-30T10:33:25.000Z</time>
      </trkpt>
      <trkpt lat="43.99045" lon="7.26819">
        <ele>1205.4000244141</ele>
        <time>2019-03-30T10:33:29.000Z</time>
      </trkpt>
      <trkpt lat="43.99035" lon="7.26834">
        <ele>1206</ele>
        <time>2019-03-30T10:33:35.000Z</time>
      </trkpt>
      <trkpt lat="43.99034" lon="7.26861">
        <ele>1205.8000488281</ele>
        <time>2019-03-30T10:33:41.000Z</time>
      </trkpt>
      <trkpt lat="43.99031" lon="7.26891">
        <ele>1206.1999511719</ele>
        <time>2019-03-30T10:33:48.000Z</time>
      </trkpt>
      <trkpt lat="43.99025" lon="7.26897">
        <ele>1206.1999511719</ele>
        <time>2019-03-30T10:33:50.000Z</time>
      </trkpt>
      <trkpt lat="43.99023" lon="7.26897">
        <ele>1206</ele>
        <time>2019-03-30T10:33:51.000Z</time>
      </trkpt>
      <trkpt lat="43.99016" lon="7.269">
        <ele>1205.5999755859</ele>
        <time>2019-03-30T10:33:54.000Z</time>
      </trkpt>
      <trkpt lat="43.99011" lon="7.26902">
        <ele>1206</ele>
        <time>2019-03-30T10:33:56.000Z</time>
      </trkpt>
      <trkpt lat="43.98993" lon="7.26909">
        <ele>1206.4000244141</ele>
        <time>2019-03-30T10:34:02.000Z</time>
      </trkpt>
      <trkpt lat="43.98978" lon="7.26915">
        <ele>1207</ele>
        <time>2019-03-30T10:34:08.000Z</time>
      </trkpt>
      <trkpt lat="43.98974" lon="7.26918">
        <ele>1207.4000244141</ele>
        <time>2019-03-30T10:34:10.000Z</time>
      </trkpt>
      <trkpt lat="43.98966" lon="7.26925">
        <ele>1208.1999511719</ele>
        <time>2019-03-30T10:34:14.000Z</time>
      </trkpt>
      <trkpt lat="43.98965" lon="7.26927">
        <ele>1208.5999755859</ele>
        <time>2019-03-30T10:34:15.000Z</time>
      </trkpt>
      <trkpt lat="43.98958" lon="7.26939">
        <ele>1209</ele>
        <time>2019-03-30T10:34:18.000Z</time>
      </trkpt>
      <trkpt lat="43.98958" lon="7.26946">
        <ele>1208.8000488281</ele>
        <time>2019-03-30T10:34:19.000Z</time>
      </trkpt>
      <trkpt lat="43.9896" lon="7.26958">
        <ele>1208.4000244141</ele>
        <time>2019-03-30T10:34:21.000Z</time>
      </trkpt>
      <trkpt lat="43.98962" lon="7.26971">
        <ele>1207.8000488281</ele>
        <time>2019-03-30T10:34:23.000Z</time>
      </trkpt>
      <trkpt lat="43.98963" lon="7.26979">
        <ele>1207.5999755859</ele>
        <time>2019-03-30T10:34:24.000Z</time>
      </trkpt>
      <trkpt lat="43.98965" lon="7.27">
        <ele>1206</ele>
        <time>2019-03-30T10:34:27.000Z</time>
      </trkpt>
      <trkpt lat="43.98964" lon="7.2702">
        <ele>1204.8000488281</ele>
        <time>2019-03-30T10:34:30.000Z</time>
      </trkpt>
      <trkpt lat="43.9896" lon="7.27022">
        <ele>1204.4000244141</ele>
        <time>2019-03-30T10:34:31.000Z</time>
      </trkpt>
      <trkpt lat="43.9895" lon="7.27034">
        <ele>1205</ele>
        <time>2019-03-30T10:34:35.000Z</time>
      </trkpt>
      <trkpt lat="43.98942" lon="7.27041">
        <ele>1205.8000488281</ele>
        <time>2019-03-30T10:34:38.000Z</time>
      </trkpt>
      <trkpt lat="43.98934" lon="7.27048">
        <ele>1206.1999511719</ele>
        <time>2019-03-30T10:34:41.000Z</time>
      </trkpt>
      <trkpt lat="43.98925" lon="7.27052">
        <ele>1207</ele>
        <time>2019-03-30T10:34:44.000Z</time>
      </trkpt>
      <trkpt lat="43.98918" lon="7.27059">
        <ele>1208.1999511719</ele>
        <time>2019-03-30T10:34:48.000Z</time>
      </trkpt>
      <trkpt lat="43.98917" lon="7.2706">
        <ele>1208.5999755859</ele>
        <time>2019-03-30T10:34:52.000Z</time>
      </trkpt>
      <trkpt lat="43.98917" lon="7.27061">
        <ele>1208.4000244141</ele>
        <time>2019-03-30T10:35:02.000Z</time>
      </trkpt>
      <trkpt lat="43.98916" lon="7.27062">
        <ele>1208.1999511719</ele>
        <time>2019-03-30T10:35:18.000Z</time>
      </trkpt>
      <trkpt lat="43.98918" lon="7.27074">
        <ele>1208</ele>
        <time>2019-03-30T10:35:24.000Z</time>
      </trkpt>
      <trkpt lat="43.98921" lon="7.27087">
        <ele>1207</ele>
        <time>2019-03-30T10:35:27.000Z</time>
      </trkpt>
      <trkpt lat="43.98924" lon="7.27094">
        <ele>1205.5999755859</ele>
        <time>2019-03-30T10:35:29.000Z</time>
      </trkpt>
      <trkpt lat="43.98925" lon="7.27097">
        <ele>1205</ele>
        <time>2019-03-30T10:35:30.000Z</time>
      </trkpt>
      <trkpt lat="43.98928" lon="7.27099">
        <ele>1204.4000244141</ele>
        <time>2019-03-30T10:35:31.000Z</time>
      </trkpt>
      <trkpt lat="43.98928" lon="7.27101">
        <ele>1203.4000244141</ele>
        <time>2019-03-30T10:35:33.000Z</time>
      </trkpt>
      <trkpt lat="43.98928" lon="7.27102">
        <ele>1203.1999511719</ele>
        <time>2019-03-30T10:35:34.000Z</time>
      </trkpt>
      <trkpt lat="43.98926" lon="7.27103">
        <ele>1202.1999511719</ele>
        <time>2019-03-30T10:35:36.000Z</time>
      </trkpt>
      <trkpt lat="43.98922" lon="7.27102">
        <ele>1201.1999511719</ele>
        <time>2019-03-30T10:35:38.000Z</time>
      </trkpt>
      <trkpt lat="43.98918" lon="7.27101">
        <ele>1200.8000488281</ele>
        <time>2019-03-30T10:35:39.000Z</time>
      </trkpt>
      <trkpt lat="43.98907" lon="7.271">
        <ele>1199.4000244141</ele>
        <time>2019-03-30T10:35:42.000Z</time>
      </trkpt>
      <trkpt lat="43.98903" lon="7.27102">
        <ele>1199</ele>
        <time>2019-03-30T10:35:43.000Z</time>
      </trkpt>
      <trkpt lat="43.98893" lon="7.27104">
        <ele>1197.8000488281</ele>
        <time>2019-03-30T10:35:45.000Z</time>
      </trkpt>
      <trkpt lat="43.98884" lon="7.27107">
        <ele>1196.4000244141</ele>
        <time>2019-03-30T10:35:47.000Z</time>
      </trkpt>
      <trkpt lat="43.98875" lon="7.27111">
        <ele>1194.4000244141</ele>
        <time>2019-03-30T10:35:49.000Z</time>
      </trkpt>
      <trkpt lat="43.98871" lon="7.2711">
        <ele>1193.4000244141</ele>
        <time>2019-03-30T10:35:50.000Z</time>
      </trkpt>
      <trkpt lat="43.98866" lon="7.27108">
        <ele>1193</ele>
        <time>2019-03-30T10:35:51.000Z</time>
      </trkpt>
      <trkpt lat="43.98858" lon="7.27102">
        <ele>1191.8000488281</ele>
        <time>2019-03-30T10:35:53.000Z</time>
      </trkpt>
      <trkpt lat="43.98853" lon="7.27101">
        <ele>1191</ele>
        <time>2019-03-30T10:35:54.000Z</time>
      </trkpt>
      <trkpt lat="43.98848" lon="7.27101">
        <ele>1190.4000244141</ele>
        <time>2019-03-30T10:35:55.000Z</time>
      </trkpt>
      <trkpt lat="43.98844" lon="7.271">
        <ele>1190</ele>
        <time>2019-03-30T10:35:56.000Z</time>
      </trkpt>
      <trkpt lat="43.98839" lon="7.27098">
        <ele>1188.1999511719</ele>
        <time>2019-03-30T10:35:57.000Z</time>
      </trkpt>
      <trkpt lat="43.98835" lon="7.27098">
        <ele>1187.1999511719</ele>
        <time>2019-03-30T10:35:58.000Z</time>
      </trkpt>
      <trkpt lat="43.98831" lon="7.27099">
        <ele>1186</ele>
        <time>2019-03-30T10:35:59.000Z</time>
      </trkpt>
      <trkpt lat="43.98827" lon="7.27099">
        <ele>1185.4000244141</ele>
        <time>2019-03-30T10:36:00.000Z</time>
      </trkpt>
      <trkpt lat="43.98816" lon="7.271">
        <ele>1184.4000244141</ele>
        <time>2019-03-30T10:36:03.000Z</time>
      </trkpt>
      <trkpt lat="43.98809" lon="7.27099">
        <ele>1182.5999755859</ele>
        <time>2019-03-30T10:36:05.000Z</time>
      </trkpt>
      <trkpt lat="43.98805" lon="7.27097">
        <ele>1181.4000244141</ele>
        <time>2019-03-30T10:36:06.000Z</time>
      </trkpt>
      <trkpt lat="43.988" lon="7.27095">
        <ele>1179.8000488281</ele>
        <time>2019-03-30T10:36:07.000Z</time>
      </trkpt>
      <trkpt lat="43.98793" lon="7.27095">
        <ele>1177.1999511719</ele>
        <time>2019-03-30T10:36:09.000Z</time>
      </trkpt>
      <trkpt lat="43.98783" lon="7.27093">
        <ele>1175.8000488281</ele>
        <time>2019-03-30T10:36:11.000Z</time>
      </trkpt>
      <trkpt lat="43.98779" lon="7.27093">
        <ele>1174.1999511719</ele>
        <time>2019-03-30T10:36:12.000Z</time>
      </trkpt>
      <trkpt lat="43.98774" lon="7.27095">
        <ele>1172.1999511719</ele>
        <time>2019-03-30T10:36:14.000Z</time>
      </trkpt>
      <trkpt lat="43.98769" lon="7.27096">
        <ele>1171.1999511719</ele>
        <time>2019-03-30T10:36:15.000Z</time>
      </trkpt>
      <trkpt lat="43.98765" lon="7.27094">
        <ele>1169.8000488281</ele>
        <time>2019-03-30T10:36:16.000Z</time>
      </trkpt>
      <trkpt lat="43.9876" lon="7.27097">
        <ele>1167.8000488281</ele>
        <time>2019-03-30T10:36:18.000Z</time>
      </trkpt>
      <trkpt lat="43.98757" lon="7.27101">
        <ele>1166.5999755859</ele>
        <time>2019-03-30T10:36:19.000Z</time>
      </trkpt>
      <trkpt lat="43.98753" lon="7.27106">
        <ele>1165.4000244141</ele>
        <time>2019-03-30T10:36:20.000Z</time>
      </trkpt>
      <trkpt lat="43.98748" lon="7.27108">
        <ele>1164</ele>
        <time>2019-03-30T10:36:22.000Z</time>
      </trkpt>
      <trkpt lat="43.98748" lon="7.27109">
        <ele>1162.8000488281</ele>
        <time>2019-03-30T10:36:23.000Z</time>
      </trkpt>
      <trkpt lat="43.98749" lon="7.2711">
        <ele>1161.8000488281</ele>
        <time>2019-03-30T10:36:25.000Z</time>
      </trkpt>
      <trkpt lat="43.98753" lon="7.27109">
        <ele>1160.4000244141</ele>
        <time>2019-03-30T10:36:29.000Z</time>
      </trkpt>
      <trkpt lat="43.98754" lon="7.2711">
        <ele>1160</ele>
        <time>2019-03-30T10:36:30.000Z</time>
      </trkpt>
      <trkpt lat="43.98755" lon="7.27112">
        <ele>1160</ele>
        <time>2019-03-30T10:36:31.000Z</time>
      </trkpt>
      <trkpt lat="43.98753" lon="7.27114">
        <ele>1159.1999511719</ele>
        <time>2019-03-30T10:36:33.000Z</time>
      </trkpt>
      <trkpt lat="43.98751" lon="7.27115">
        <ele>1158.5999755859</ele>
        <time>2019-03-30T10:36:34.000Z</time>
      </trkpt>
      <trkpt lat="43.98745" lon="7.27119">
        <ele>1157.8000488281</ele>
        <time>2019-03-30T10:36:36.000Z</time>
      </trkpt>
      <trkpt lat="43.98738" lon="7.27121">
        <ele>1157.1999511719</ele>
        <time>2019-03-30T10:36:38.000Z</time>
      </trkpt>
      <trkpt lat="43.98729" lon="7.27116">
        <ele>1156.4000244141</ele>
        <time>2019-03-30T10:36:40.000Z</time>
      </trkpt>
      <trkpt lat="43.98725" lon="7.27113">
        <ele>1155.8000488281</ele>
        <time>2019-03-30T10:36:41.000Z</time>
      </trkpt>
      <trkpt lat="43.98722" lon="7.27111">
        <ele>1154.8000488281</ele>
        <time>2019-03-30T10:36:42.000Z</time>
      </trkpt>
      <trkpt lat="43.98718" lon="7.27111">
        <ele>1153.8000488281</ele>
        <time>2019-03-30T10:36:43.000Z</time>
      </trkpt>
      <trkpt lat="43.98715" lon="7.27114">
        <ele>1153.4000244141</ele>
        <time>2019-03-30T10:36:44.000Z</time>
      </trkpt>
      <trkpt lat="43.98712" lon="7.27119">
        <ele>1152.5999755859</ele>
        <time>2019-03-30T10:36:45.000Z</time>
      </trkpt>
      <trkpt lat="43.98702" lon="7.27131">
        <ele>1151</ele>
        <time>2019-03-30T10:36:48.000Z</time>
      </trkpt>
      <trkpt lat="43.98699" lon="7.27136">
        <ele>1149.8000488281</ele>
        <time>2019-03-30T10:36:49.000Z</time>
      </trkpt>
      <trkpt lat="43.98696" lon="7.2714">
        <ele>1148.5999755859</ele>
        <time>2019-03-30T10:36:50.000Z</time>
      </trkpt>
      <trkpt lat="43.9869" lon="7.27141">
        <ele>1146.4000244141</ele>
        <time>2019-03-30T10:36:52.000Z</time>
      </trkpt>
      <trkpt lat="43.98683" lon="7.27136">
        <ele>1145.4000244141</ele>
        <time>2019-03-30T10:36:54.000Z</time>
      </trkpt>
      <trkpt lat="43.98679" lon="7.27132">
        <ele>1144.5999755859</ele>
        <time>2019-03-30T10:36:55.000Z</time>
      </trkpt>
      <trkpt lat="43.98676" lon="7.2713">
        <ele>1144.1999511719</ele>
        <time>2019-03-30T10:36:56.000Z</time>
      </trkpt>
      <trkpt lat="43.98671" lon="7.27125">
        <ele>1143.1999511719</ele>
        <time>2019-03-30T10:36:58.000Z</time>
      </trkpt>
      <trkpt lat="43.98667" lon="7.27121">
        <ele>1142.8000488281</ele>
        <time>2019-03-30T10:36:59.000Z</time>
      </trkpt>
      <trkpt lat="43.98664" lon="7.27116">
        <ele>1142.8000488281</ele>
        <time>2019-03-30T10:37:00.000Z</time>
      </trkpt>
      <trkpt lat="43.98657" lon="7.2711">
        <ele>1142.1999511719</ele>
        <time>2019-03-30T10:37:02.000Z</time>
      </trkpt>
      <trkpt lat="43.98649" lon="7.27116">
        <ele>1141.1999511719</ele>
        <time>2019-03-30T10:37:04.000Z</time>
      </trkpt>
      <trkpt lat="43.98645" lon="7.27118">
        <ele>1140.4000244141</ele>
        <time>2019-03-30T10:37:05.000Z</time>
      </trkpt>
      <trkpt lat="43.98638" lon="7.27114">
        <ele>1139.1999511719</ele>
        <time>2019-03-30T10:37:07.000Z</time>
      </trkpt>
      <trkpt lat="43.98634" lon="7.27115">
        <ele>1139</ele>
        <time>2019-03-30T10:37:08.000Z</time>
      </trkpt>
      <trkpt lat="43.98626" lon="7.27128">
        <ele>1138.1999511719</ele>
        <time>2019-03-30T10:37:11.000Z</time>
      </trkpt>
      <trkpt lat="43.98621" lon="7.2713">
        <ele>1137.8000488281</ele>
        <time>2019-03-30T10:37:12.000Z</time>
      </trkpt>
      <trkpt lat="43.98612" lon="7.2713">
        <ele>1137.4000244141</ele>
        <time>2019-03-30T10:37:14.000Z</time>
      </trkpt>
      <trkpt lat="43.98597" lon="7.27138">
        <ele>1137.1999511719</ele>
        <time>2019-03-30T10:37:18.000Z</time>
      </trkpt>
      <trkpt lat="43.98592" lon="7.27142">
        <ele>1137.1999511719</ele>
        <time>2019-03-30T10:37:19.000Z</time>
      </trkpt>
      <trkpt lat="43.98587" lon="7.27143">
        <ele>1137</ele>
        <time>2019-03-30T10:37:20.000Z</time>
      </trkpt>
      <trkpt lat="43.98583" lon="7.27142">
        <ele>1136.8000488281</ele>
        <time>2019-03-30T10:37:21.000Z</time>
      </trkpt>
      <trkpt lat="43.98578" lon="7.2714">
        <ele>1136.1999511719</ele>
        <time>2019-03-30T10:37:22.000Z</time>
      </trkpt>
      <trkpt lat="43.98569" lon="7.27131">
        <ele>1135.4000244141</ele>
        <time>2019-03-30T10:37:24.000Z</time>
      </trkpt>
      <trkpt lat="43.98564" lon="7.27129">
        <ele>1135</ele>
        <time>2019-03-30T10:37:25.000Z</time>
      </trkpt>
      <trkpt lat="43.98558" lon="7.27136">
        <ele>1134.4000244141</ele>
        <time>2019-03-30T10:37:27.000Z</time>
      </trkpt>
      <trkpt lat="43.98551" lon="7.2715">
        <ele>1133.4000244141</ele>
        <time>2019-03-30T10:37:30.000Z</time>
      </trkpt>
      <trkpt lat="43.98548" lon="7.27154">
        <ele>1133.4000244141</ele>
        <time>2019-03-30T10:37:31.000Z</time>
      </trkpt>
      <trkpt lat="43.98542" lon="7.27168">
        <ele>1133.8000488281</ele>
        <time>2019-03-30T10:37:34.000Z</time>
      </trkpt>
      <trkpt lat="43.98535" lon="7.27177">
        <ele>1134</ele>
        <time>2019-03-30T10:37:36.000Z</time>
      </trkpt>
      <trkpt lat="43.98522" lon="7.27178">
        <ele>1133.8000488281</ele>
        <time>2019-03-30T10:37:39.000Z</time>
      </trkpt>
      <trkpt lat="43.98504" lon="7.2718">
        <ele>1133.4000244141</ele>
        <time>2019-03-30T10:37:43.000Z</time>
      </trkpt>
      <trkpt lat="43.98502" lon="7.27186">
        <ele>1133.1999511719</ele>
        <time>2019-03-30T10:37:44.000Z</time>
      </trkpt>
      <trkpt lat="43.98497" lon="7.27198">
        <ele>1133.1999511719</ele>
        <time>2019-03-30T10:37:46.000Z</time>
      </trkpt>
      <trkpt lat="43.9849" lon="7.27214">
        <ele>1132.8000488281</ele>
        <time>2019-03-30T10:37:49.000Z</time>
      </trkpt>
      <trkpt lat="43.98488" lon="7.27227">
        <ele>1132.4000244141</ele>
        <time>2019-03-30T10:37:51.000Z</time>
      </trkpt>
      <trkpt lat="43.98486" lon="7.27238">
        <ele>1132.1999511719</ele>
        <time>2019-03-30T10:37:53.000Z</time>
      </trkpt>
      <trkpt lat="43.98484" lon="7.27255">
        <ele>1132</ele>
        <time>2019-03-30T10:37:56.000Z</time>
      </trkpt>
      <trkpt lat="43.98473" lon="7.27271">
        <ele>1132.1999511719</ele>
        <time>2019-03-30T10:37:59.000Z</time>
      </trkpt>
      <trkpt lat="43.98465" lon="7.2728">
        <ele>1131.8000488281</ele>
        <time>2019-03-30T10:38:01.000Z</time>
      </trkpt>
      <trkpt lat="43.98459" lon="7.27289">
        <ele>1131.4000244141</ele>
        <time>2019-03-30T10:38:03.000Z</time>
      </trkpt>
      <trkpt lat="43.98457" lon="7.27295">
        <ele>1131.1999511719</ele>
        <time>2019-03-30T10:38:04.000Z</time>
      </trkpt>
      <trkpt lat="43.98451" lon="7.27313">
        <ele>1130</ele>
        <time>2019-03-30T10:38:08.000Z</time>
      </trkpt>
      <trkpt lat="43.9845" lon="7.27316">
        <ele>1130.1999511719</ele>
        <time>2019-03-30T10:38:09.000Z</time>
      </trkpt>
      <trkpt lat="43.98447" lon="7.27328">
        <ele>1131.5999755859</ele>
        <time>2019-03-30T10:38:13.000Z</time>
      </trkpt>
      <trkpt lat="43.98447" lon="7.27328">
        <ele>1132</ele>
        <time>2019-03-30T10:38:14.000Z</time>
      </trkpt>
      <trkpt lat="43.98447" lon="7.27327">
        <ele>1132.5999755859</ele>
        <time>2019-03-30T10:38:15.000Z</time>
      </trkpt>
      <trkpt lat="43.98447" lon="7.27328">
        <ele>1134</ele>
        <time>2019-03-30T10:38:18.000Z</time>
      </trkpt>
      <trkpt lat="43.98447" lon="7.27328">
        <ele>1134.4000244141</ele>
        <time>2019-03-30T10:38:19.000Z</time>
      </trkpt>
      <trkpt lat="43.98447" lon="7.27328">
        <ele>1134.8000488281</ele>
        <time>2019-03-30T10:38:26.000Z</time>
      </trkpt>
      <trkpt lat="43.98447" lon="7.27328">
        <ele>1134.8000488281</ele>
        <time>2019-03-30T10:38:32.000Z</time>
      </trkpt>
      <trkpt lat="43.98447" lon="7.27327">
        <ele>1134.5999755859</ele>
        <time>2019-03-30T10:38:56.000Z</time>
      </trkpt>
      <trkpt lat="43.98447" lon="7.27328">
        <ele>1134.4000244141</ele>
        <time>2019-03-30T10:39:03.000Z</time>
      </trkpt>
      <trkpt lat="43.98447" lon="7.27328">
        <ele>1135</ele>
        <time>2019-03-30T10:39:25.000Z</time>
      </trkpt>
      <trkpt lat="43.98447" lon="7.27328">
        <ele>1135</ele>
        <time>2019-03-30T10:39:26.000Z</time>
      </trkpt>
      <trkpt lat="43.98447" lon="7.27328">
        <ele>1135.4000244141</ele>
        <time>2019-03-30T10:39:32.000Z</time>
      </trkpt>
      <trkpt lat="43.98447" lon="7.27328">
        <ele>1135.1999511719</ele>
        <time>2019-03-30T10:39:39.000Z</time>
      </trkpt>
      <trkpt lat="43.98447" lon="7.27328">
        <ele>1134.8000488281</ele>
        <time>2019-03-30T10:39:50.000Z</time>
      </trkpt>
      <trkpt lat="43.98447" lon="7.27328">
        <ele>1134.8000488281</ele>
        <time>2019-03-30T10:40:15.000Z</time>
      </trkpt>
      <trkpt lat="43.98447" lon="7.27328">
        <ele>1134.8000488281</ele>
        <time>2019-03-30T10:40:21.000Z</time>
      </trkpt>
      <trkpt lat="43.98447" lon="7.27328">
        <ele>1134.4000244141</ele>
        <time>2019-03-30T10:40:56.000Z</time>
      </trkpt>
      <trkpt lat="43.98446" lon="7.27327">
        <ele>1134</ele>
        <time>2019-03-30T10:41:01.000Z</time>
      </trkpt>
      <trkpt lat="43.98447" lon="7.27327">
        <ele>1134</ele>
        <time>2019-03-30T10:41:09.000Z</time>
      </trkpt>
      <trkpt lat="43.98448" lon="7.27327">
        <ele>1134.1999511719</ele>
        <time>2019-03-30T10:41:18.000Z</time>
      </trkpt>
      <trkpt lat="43.98452" lon="7.27316">
        <ele>1134</ele>
        <time>2019-03-30T10:41:24.000Z</time>
      </trkpt>
      <trkpt lat="43.98456" lon="7.2731">
        <ele>1133</ele>
        <time>2019-03-30T10:41:27.000Z</time>
      </trkpt>
      <trkpt lat="43.98458" lon="7.27313">
        <ele>1132.5999755859</ele>
        <time>2019-03-30T10:41:29.000Z</time>
      </trkpt>
      <trkpt lat="43.98459" lon="7.27323">
        <ele>1131.8000488281</ele>
        <time>2019-03-30T10:41:32.000Z</time>
      </trkpt>
      <trkpt lat="43.98459" lon="7.27327">
        <ele>1131.4000244141</ele>
        <time>2019-03-30T10:41:33.000Z</time>
      </trkpt>
      <trkpt lat="43.98458" lon="7.27333">
        <ele>1131</ele>
        <time>2019-03-30T10:41:34.000Z</time>
      </trkpt>
      <trkpt lat="43.98458" lon="7.27338">
        <ele>1130.5999755859</ele>
        <time>2019-03-30T10:41:35.000Z</time>
      </trkpt>
      <trkpt lat="43.98457" lon="7.27349">
        <ele>1129.5999755859</ele>
        <time>2019-03-30T10:41:37.000Z</time>
      </trkpt>
      <trkpt lat="43.98456" lon="7.27355">
        <ele>1129</ele>
        <time>2019-03-30T10:41:38.000Z</time>
      </trkpt>
      <trkpt lat="43.98454" lon="7.27362">
        <ele>1128.1999511719</ele>
        <time>2019-03-30T10:41:39.000Z</time>
      </trkpt>
      <trkpt lat="43.98452" lon="7.27374">
        <ele>1126.5999755859</ele>
        <time>2019-03-30T10:41:41.000Z</time>
      </trkpt>
      <trkpt lat="43.98452" lon="7.2738">
        <ele>1125.8000488281</ele>
        <time>2019-03-30T10:41:42.000Z</time>
      </trkpt>
      <trkpt lat="43.98451" lon="7.27387">
        <ele>1125.4000244141</ele>
        <time>2019-03-30T10:41:43.000Z</time>
      </trkpt>
      <trkpt lat="43.98452" lon="7.27405">
        <ele>1124.1999511719</ele>
        <time>2019-03-30T10:41:46.000Z</time>
      </trkpt>
      <trkpt lat="43.98454" lon="7.27427">
        <ele>1123.1999511719</ele>
        <time>2019-03-30T10:41:49.000Z</time>
      </trkpt>
      <trkpt lat="43.98454" lon="7.27429">
        <ele>1122.5999755859</ele>
        <time>2019-03-30T10:41:50.000Z</time>
      </trkpt>
      <trkpt lat="43.98454" lon="7.27446">
        <ele>1122.4000244141</ele>
        <time>2019-03-30T10:41:54.000Z</time>
      </trkpt>
      <trkpt lat="43.98454" lon="7.27459">
        <ele>1123</ele>
        <time>2019-03-30T10:41:56.000Z</time>
      </trkpt>
      <trkpt lat="43.98457" lon="7.27469">
        <ele>1122.5999755859</ele>
        <time>2019-03-30T10:41:58.000Z</time>
      </trkpt>
      <trkpt lat="43.98458" lon="7.27482">
        <ele>1122.1999511719</ele>
        <time>2019-03-30T10:42:00.000Z</time>
      </trkpt>
      <trkpt lat="43.98459" lon="7.27485">
        <ele>1122</ele>
        <time>2019-03-30T10:42:01.000Z</time>
      </trkpt>
      <trkpt lat="43.98459" lon="7.27486">
        <ele>1121.4000244141</ele>
        <time>2019-03-30T10:42:04.000Z</time>
      </trkpt>
      <trkpt lat="43.98461" lon="7.2749">
        <ele>1121.1999511719</ele>
        <time>2019-03-30T10:42:09.000Z</time>
      </trkpt>
      <trkpt lat="43.98463" lon="7.27496">
        <ele>1121.8000488281</ele>
        <time>2019-03-30T10:42:13.000Z</time>
      </trkpt>
      <trkpt lat="43.98464" lon="7.275">
        <ele>1122.4000244141</ele>
        <time>2019-03-30T10:42:16.000Z</time>
      </trkpt>
      <trkpt lat="43.98466" lon="7.27505">
        <ele>1122.8000488281</ele>
        <time>2019-03-30T10:42:18.000Z</time>
      </trkpt>
      <trkpt lat="43.98468" lon="7.27513">
        <ele>1122.8000488281</ele>
        <time>2019-03-30T10:42:20.000Z</time>
      </trkpt>
      <trkpt lat="43.9847" lon="7.27523">
        <ele>1122.5999755859</ele>
        <time>2019-03-30T10:42:22.000Z</time>
      </trkpt>
      <trkpt lat="43.9847" lon="7.27537">
        <ele>1121</ele>
        <time>2019-03-30T10:42:25.000Z</time>
      </trkpt>
      <trkpt lat="43.98469" lon="7.27556">
        <ele>1120.8000488281</ele>
        <time>2019-03-30T10:42:29.000Z</time>
      </trkpt>
      <trkpt lat="43.9847" lon="7.27561">
        <ele>1121.1999511719</ele>
        <time>2019-03-30T10:42:30.000Z</time>
      </trkpt>
      <trkpt lat="43.98474" lon="7.27577">
        <ele>1121.4000244141</ele>
        <time>2019-03-30T10:42:33.000Z</time>
      </trkpt>
      <trkpt lat="43.98476" lon="7.27591">
        <ele>1119.8000488281</ele>
        <time>2019-03-30T10:42:35.000Z</time>
      </trkpt>
      <trkpt lat="43.98479" lon="7.27605">
        <ele>1119.8000488281</ele>
        <time>2019-03-30T10:42:37.000Z</time>
      </trkpt>
      <trkpt lat="43.98481" lon="7.27618">
        <ele>1119.5999755859</ele>
        <time>2019-03-30T10:42:39.000Z</time>
      </trkpt>
      <trkpt lat="43.98487" lon="7.27638">
        <ele>1118.5999755859</ele>
        <time>2019-03-30T10:42:42.000Z</time>
      </trkpt>
      <trkpt lat="43.98492" lon="7.27651">
        <ele>1117.1999511719</ele>
        <time>2019-03-30T10:42:44.000Z</time>
      </trkpt>
      <trkpt lat="43.98496" lon="7.27671">
        <ele>1115.4000244141</ele>
        <time>2019-03-30T10:42:47.000Z</time>
      </trkpt>
      <trkpt lat="43.98497" lon="7.27679">
        <ele>1115</ele>
        <time>2019-03-30T10:42:48.000Z</time>
      </trkpt>
      <trkpt lat="43.98497" lon="7.27688">
        <ele>1114.4000244141</ele>
        <time>2019-03-30T10:42:49.000Z</time>
      </trkpt>
      <trkpt lat="43.98497" lon="7.27695">
        <ele>1113.8000488281</ele>
        <time>2019-03-30T10:42:50.000Z</time>
      </trkpt>
      <trkpt lat="43.98498" lon="7.27701">
        <ele>1113.1999511719</ele>
        <time>2019-03-30T10:42:51.000Z</time>
      </trkpt>
      <trkpt lat="43.98496" lon="7.27706">
        <ele>1112.1999511719</ele>
        <time>2019-03-30T10:42:52.000Z</time>
      </trkpt>
      <trkpt lat="43.98493" lon="7.27707">
        <ele>1112</ele>
        <time>2019-03-30T10:42:53.000Z</time>
      </trkpt>
      <trkpt lat="43.98489" lon="7.27709">
        <ele>1111.1999511719</ele>
        <time>2019-03-30T10:42:54.000Z</time>
      </trkpt>
      <trkpt lat="43.98485" lon="7.2771">
        <ele>1110</ele>
        <time>2019-03-30T10:42:55.000Z</time>
      </trkpt>
      <trkpt lat="43.98476" lon="7.27708">
        <ele>1108.1999511719</ele>
        <time>2019-03-30T10:42:57.000Z</time>
      </trkpt>
      <trkpt lat="43.98472" lon="7.27707">
        <ele>1107</ele>
        <time>2019-03-30T10:42:58.000Z</time>
      </trkpt>
      <trkpt lat="43.98469" lon="7.27709">
        <ele>1106</ele>
        <time>2019-03-30T10:42:59.000Z</time>
      </trkpt>
      <trkpt lat="43.98468" lon="7.27714">
        <ele>1104.5999755859</ele>
        <time>2019-03-30T10:43:00.000Z</time>
      </trkpt>
      <trkpt lat="43.98468" lon="7.27719">
        <ele>1103.5999755859</ele>
        <time>2019-03-30T10:43:01.000Z</time>
      </trkpt>
      <trkpt lat="43.98467" lon="7.27724">
        <ele>1103.4000244141</ele>
        <time>2019-03-30T10:43:02.000Z</time>
      </trkpt>
      <trkpt lat="43.98461" lon="7.27726">
        <ele>1102</ele>
        <time>2019-03-30T10:43:04.000Z</time>
      </trkpt>
      <trkpt lat="43.98455" lon="7.2772">
        <ele>1100.8000488281</ele>
        <time>2019-03-30T10:43:07.000Z</time>
      </trkpt>
      <trkpt lat="43.98454" lon="7.27712">
        <ele>1099.8000488281</ele>
        <time>2019-03-30T10:43:10.000Z</time>
      </trkpt>
      <trkpt lat="43.98447" lon="7.27708">
        <ele>1099.5999755859</ele>
        <time>2019-03-30T10:43:12.000Z</time>
      </trkpt>
      <trkpt lat="43.9844" lon="7.27709">
        <ele>1099.8000488281</ele>
        <time>2019-03-30T10:43:14.000Z</time>
      </trkpt>
      <trkpt lat="43.98434" lon="7.27723">
        <ele>1099.1999511719</ele>
        <time>2019-03-30T10:43:17.000Z</time>
      </trkpt>
      <trkpt lat="43.98434" lon="7.27737">
        <ele>1097.4000244141</ele>
        <time>2019-03-30T10:43:20.000Z</time>
      </trkpt>
      <trkpt lat="43.98433" lon="7.2774">
        <ele>1096.8000488281</ele>
        <time>2019-03-30T10:43:21.000Z</time>
      </trkpt>
      <trkpt lat="43.98433" lon="7.27743">
        <ele>1096.1999511719</ele>
        <time>2019-03-30T10:43:22.000Z</time>
      </trkpt>
      <trkpt lat="43.98431" lon="7.27746">
        <ele>1095.5999755859</ele>
        <time>2019-03-30T10:43:23.000Z</time>
      </trkpt>
      <trkpt lat="43.9843" lon="7.27755">
        <ele>1095.1999511719</ele>
        <time>2019-03-30T10:43:25.000Z</time>
      </trkpt>
      <trkpt lat="43.98429" lon="7.27771">
        <ele>1094.1999511719</ele>
        <time>2019-03-30T10:43:30.000Z</time>
      </trkpt>
      <trkpt lat="43.98428" lon="7.27774">
        <ele>1093.4000244141</ele>
        <time>2019-03-30T10:43:33.000Z</time>
      </trkpt>
      <trkpt lat="43.98428" lon="7.27778">
        <ele>1093.1999511719</ele>
        <time>2019-03-30T10:43:34.000Z</time>
      </trkpt>
      <trkpt lat="43.98431" lon="7.27784">
        <ele>1092.8000488281</ele>
        <time>2019-03-30T10:43:36.000Z</time>
      </trkpt>
      <trkpt lat="43.98432" lon="7.27792">
        <ele>1092.4000244141</ele>
        <time>2019-03-30T10:43:38.000Z</time>
      </trkpt>
      <trkpt lat="43.98431" lon="7.27806">
        <ele>1091.8000488281</ele>
        <time>2019-03-30T10:43:41.000Z</time>
      </trkpt>
      <trkpt lat="43.9843" lon="7.27812">
        <ele>1091.5999755859</ele>
        <time>2019-03-30T10:43:42.000Z</time>
      </trkpt>
      <trkpt lat="43.98427" lon="7.27816">
        <ele>1091.5999755859</ele>
        <time>2019-03-30T10:43:43.000Z</time>
      </trkpt>
      <trkpt lat="43.98421" lon="7.2782">
        <ele>1091.5999755859</ele>
        <time>2019-03-30T10:43:45.000Z</time>
      </trkpt>
      <trkpt lat="43.9842" lon="7.27834">
        <ele>1091.5999755859</ele>
        <time>2019-03-30T10:43:49.000Z</time>
      </trkpt>
      <trkpt lat="43.98424" lon="7.27848">
        <ele>1091.4000244141</ele>
        <time>2019-03-30T10:43:52.000Z</time>
      </trkpt>
      <trkpt lat="43.98424" lon="7.27851">
        <ele>1090.5999755859</ele>
        <time>2019-03-30T10:43:53.000Z</time>
      </trkpt>
      <trkpt lat="43.98423" lon="7.27863">
        <ele>1089.4000244141</ele>
        <time>2019-03-30T10:43:56.000Z</time>
      </trkpt>
      <trkpt lat="43.98421" lon="7.2787">
        <ele>1088.4000244141</ele>
        <time>2019-03-30T10:43:58.000Z</time>
      </trkpt>
      <trkpt lat="43.9842" lon="7.27877">
        <ele>1087.5999755859</ele>
        <time>2019-03-30T10:44:00.000Z</time>
      </trkpt>
      <trkpt lat="43.98418" lon="7.27882">
        <ele>1086.8000488281</ele>
        <time>2019-03-30T10:44:01.000Z</time>
      </trkpt>
      <trkpt lat="43.98418" lon="7.27886">
        <ele>1085.4000244141</ele>
        <time>2019-03-30T10:44:02.000Z</time>
      </trkpt>
      <trkpt lat="43.98418" lon="7.27892">
        <ele>1084.1999511719</ele>
        <time>2019-03-30T10:44:03.000Z</time>
      </trkpt>
      <trkpt lat="43.98417" lon="7.27897">
        <ele>1083.1999511719</ele>
        <time>2019-03-30T10:44:04.000Z</time>
      </trkpt>
      <trkpt lat="43.98416" lon="7.27903">
        <ele>1082.4000244141</ele>
        <time>2019-03-30T10:44:05.000Z</time>
      </trkpt>
      <trkpt lat="43.98414" lon="7.27913">
        <ele>1081.1999511719</ele>
        <time>2019-03-30T10:44:07.000Z</time>
      </trkpt>
      <trkpt lat="43.9841" lon="7.27924">
        <ele>1079.5999755859</ele>
        <time>2019-03-30T10:44:09.000Z</time>
      </trkpt>
      <trkpt lat="43.98408" lon="7.27932">
        <ele>1079.5999755859</ele>
        <time>2019-03-30T10:44:11.000Z</time>
      </trkpt>
      <trkpt lat="43.98408" lon="7.27944">
        <ele>1078.8000488281</ele>
        <time>2019-03-30T10:44:13.000Z</time>
      </trkpt>
      <trkpt lat="43.98409" lon="7.27948">
        <ele>1078.1999511719</ele>
        <time>2019-03-30T10:44:14.000Z</time>
      </trkpt>
      <trkpt lat="43.98409" lon="7.27959">
        <ele>1077.1999511719</ele>
        <time>2019-03-30T10:44:16.000Z</time>
      </trkpt>
      <trkpt lat="43.98409" lon="7.27972">
        <ele>1075.8000488281</ele>
        <time>2019-03-30T10:44:18.000Z</time>
      </trkpt>
      <trkpt lat="43.9841" lon="7.27978">
        <ele>1075.4000244141</ele>
        <time>2019-03-30T10:44:19.000Z</time>
      </trkpt>
      <trkpt lat="43.9841" lon="7.27992">
        <ele>1074.5999755859</ele>
        <time>2019-03-30T10:44:21.000Z</time>
      </trkpt>
      <trkpt lat="43.98412" lon="7.28003">
        <ele>1074.1999511719</ele>
        <time>2019-03-30T10:44:23.000Z</time>
      </trkpt>
      <trkpt lat="43.98414" lon="7.28006">
        <ele>1073.5999755859</ele>
        <time>2019-03-30T10:44:24.000Z</time>
      </trkpt>
      <trkpt lat="43.98412" lon="7.28008">
        <ele>1072</ele>
        <time>2019-03-30T10:44:26.000Z</time>
      </trkpt>
      <trkpt lat="43.9841" lon="7.28005">
        <ele>1071</ele>
        <time>2019-03-30T10:44:27.000Z</time>
      </trkpt>
      <trkpt lat="43.98406" lon="7.28003">
        <ele>1069.4000244141</ele>
        <time>2019-03-30T10:44:29.000Z</time>
      </trkpt>
      <trkpt lat="43.98403" lon="7.28002">
        <ele>1068</ele>
        <time>2019-03-30T10:44:30.000Z</time>
      </trkpt>
      <trkpt lat="43.98401" lon="7.28004">
        <ele>1066</ele>
        <time>2019-03-30T10:44:31.000Z</time>
      </trkpt>
      <trkpt lat="43.98401" lon="7.28005">
        <ele>1065.4000244141</ele>
        <time>2019-03-30T10:44:32.000Z</time>
      </trkpt>
      <trkpt lat="43.98399" lon="7.28008">
        <ele>1064.4000244141</ele>
        <time>2019-03-30T10:44:33.000Z</time>
      </trkpt>
      <trkpt lat="43.98398" lon="7.28017">
        <ele>1063</ele>
        <time>2019-03-30T10:44:35.000Z</time>
      </trkpt>
      <trkpt lat="43.98398" lon="7.28028">
        <ele>1061.4000244141</ele>
        <time>2019-03-30T10:44:37.000Z</time>
      </trkpt>
      <trkpt lat="43.98396" lon="7.28031">
        <ele>1060</ele>
        <time>2019-03-30T10:44:38.000Z</time>
      </trkpt>
      <trkpt lat="43.98394" lon="7.28033">
        <ele>1058.4000244141</ele>
        <time>2019-03-30T10:44:39.000Z</time>
      </trkpt>
      <trkpt lat="43.98389" lon="7.28039">
        <ele>1056.1999511719</ele>
        <time>2019-03-30T10:44:41.000Z</time>
      </trkpt>
      <trkpt lat="43.98387" lon="7.2804">
        <ele>1055.1999511719</ele>
        <time>2019-03-30T10:44:42.000Z</time>
      </trkpt>
      <trkpt lat="43.98386" lon="7.28041">
        <ele>1053.8000488281</ele>
        <time>2019-03-30T10:44:43.000Z</time>
      </trkpt>
      <trkpt lat="43.98386" lon="7.28043">
        <ele>1052.5999755859</ele>
        <time>2019-03-30T10:44:44.000Z</time>
      </trkpt>
      <trkpt lat="43.98387" lon="7.28043">
        <ele>1051.1999511719</ele>
        <time>2019-03-30T10:44:45.000Z</time>
      </trkpt>
      <trkpt lat="43.98388" lon="7.28043">
        <ele>1050.1999511719</ele>
        <time>2019-03-30T10:44:46.000Z</time>
      </trkpt>
      <trkpt lat="43.9839" lon="7.28045">
        <ele>1049.1999511719</ele>
        <time>2019-03-30T10:44:47.000Z</time>
      </trkpt>
      <trkpt lat="43.98392" lon="7.2805">
        <ele>1048.5999755859</ele>
        <time>2019-03-30T10:44:48.000Z</time>
      </trkpt>
      <trkpt lat="43.98395" lon="7.28053">
        <ele>1047.5999755859</ele>
        <time>2019-03-30T10:44:49.000Z</time>
      </trkpt>
      <trkpt lat="43.98396" lon="7.28056">
        <ele>1046.5999755859</ele>
        <time>2019-03-30T10:44:50.000Z</time>
      </trkpt>
      <trkpt lat="43.98393" lon="7.28058">
        <ele>1044.8000488281</ele>
        <time>2019-03-30T10:44:52.000Z</time>
      </trkpt>
      <trkpt lat="43.98389" lon="7.2806">
        <ele>1043.4000244141</ele>
        <time>2019-03-30T10:44:54.000Z</time>
      </trkpt>
      <trkpt lat="43.98384" lon="7.28062">
        <ele>1042.1999511719</ele>
        <time>2019-03-30T10:44:56.000Z</time>
      </trkpt>
      <trkpt lat="43.98382" lon="7.28064">
        <ele>1041.8000488281</ele>
        <time>2019-03-30T10:44:57.000Z</time>
      </trkpt>
      <trkpt lat="43.98379" lon="7.28065">
        <ele>1040.8000488281</ele>
        <time>2019-03-30T10:44:58.000Z</time>
      </trkpt>
      <trkpt lat="43.98375" lon="7.28064">
        <ele>1039.8000488281</ele>
        <time>2019-03-30T10:44:59.000Z</time>
      </trkpt>
      <trkpt lat="43.98373" lon="7.28064">
        <ele>1039</ele>
        <time>2019-03-30T10:45:00.000Z</time>
      </trkpt>
      <trkpt lat="43.98372" lon="7.28064">
        <ele>1038.4000244141</ele>
        <time>2019-03-30T10:45:01.000Z</time>
      </trkpt>
      <trkpt lat="43.98367" lon="7.28063">
        <ele>1037</ele>
        <time>2019-03-30T10:45:03.000Z</time>
      </trkpt>
      <trkpt lat="43.98365" lon="7.28063">
        <ele>1036.1999511719</ele>
        <time>2019-03-30T10:45:04.000Z</time>
      </trkpt>
      <trkpt lat="43.98364" lon="7.28061">
        <ele>1035.4000244141</ele>
        <time>2019-03-30T10:45:05.000Z</time>
      </trkpt>
      <trkpt lat="43.98362" lon="7.28059">
        <ele>1034</ele>
        <time>2019-03-30T10:45:07.000Z</time>
      </trkpt>
      <trkpt lat="43.9836" lon="7.2806">
        <ele>1033.1999511719</ele>
        <time>2019-03-30T10:45:08.000Z</time>
      </trkpt>
      <trkpt lat="43.98359" lon="7.2806">
        <ele>1032.5999755859</ele>
        <time>2019-03-30T10:45:09.000Z</time>
      </trkpt>
      <trkpt lat="43.98356" lon="7.28059">
        <ele>1031.5999755859</ele>
        <time>2019-03-30T10:45:10.000Z</time>
      </trkpt>
      <trkpt lat="43.98352" lon="7.28058">
        <ele>1030.1999511719</ele>
        <time>2019-03-30T10:45:12.000Z</time>
      </trkpt>
      <trkpt lat="43.98352" lon="7.28061">
        <ele>1029</ele>
        <time>2019-03-30T10:45:13.000Z</time>
      </trkpt>
      <trkpt lat="43.98353" lon="7.28064">
        <ele>1028</ele>
        <time>2019-03-30T10:45:14.000Z</time>
      </trkpt>
      <trkpt lat="43.98355" lon="7.28067">
        <ele>1027.4000244141</ele>
        <time>2019-03-30T10:45:15.000Z</time>
      </trkpt>
      <trkpt lat="43.98358" lon="7.28076">
        <ele>1025.4000244141</ele>
        <time>2019-03-30T10:45:17.000Z</time>
      </trkpt>
      <trkpt lat="43.98361" lon="7.2808">
        <ele>1023.799987793</ele>
        <time>2019-03-30T10:45:18.000Z</time>
      </trkpt>
      <trkpt lat="43.98363" lon="7.28082">
        <ele>1022</ele>
        <time>2019-03-30T10:45:19.000Z</time>
      </trkpt>
      <trkpt lat="43.98364" lon="7.28084">
        <ele>1020.799987793</ele>
        <time>2019-03-30T10:45:20.000Z</time>
      </trkpt>
      <trkpt lat="43.98367" lon="7.28091">
        <ele>1019</ele>
        <time>2019-03-30T10:45:22.000Z</time>
      </trkpt>
      <trkpt lat="43.98369" lon="7.28093">
        <ele>1018.4000244141</ele>
        <time>2019-03-30T10:45:23.000Z</time>
      </trkpt>
      <trkpt lat="43.98374" lon="7.28096">
        <ele>1017.5999755859</ele>
        <time>2019-03-30T10:45:25.000Z</time>
      </trkpt>
      <trkpt lat="43.98375" lon="7.28097">
        <ele>1016.4000244141</ele>
        <time>2019-03-30T10:45:26.000Z</time>
      </trkpt>
      <trkpt lat="43.98374" lon="7.28099">
        <ele>1015.5999755859</ele>
        <time>2019-03-30T10:45:27.000Z</time>
      </trkpt>
      <trkpt lat="43.98372" lon="7.28099">
        <ele>1014.799987793</ele>
        <time>2019-03-30T10:45:28.000Z</time>
      </trkpt>
      <trkpt lat="43.98366" lon="7.281">
        <ele>1012.799987793</ele>
        <time>2019-03-30T10:45:30.000Z</time>
      </trkpt>
      <trkpt lat="43.98365" lon="7.281">
        <ele>1012</ele>
        <time>2019-03-30T10:45:31.000Z</time>
      </trkpt>
      <trkpt lat="43.98364" lon="7.281">
        <ele>1011.4000244141</ele>
        <time>2019-03-30T10:45:32.000Z</time>
      </trkpt>
      <trkpt lat="43.98357" lon="7.28102">
        <ele>1009.799987793</ele>
        <time>2019-03-30T10:45:34.000Z</time>
      </trkpt>
      <trkpt lat="43.98355" lon="7.28102">
        <ele>1008.4000244141</ele>
        <time>2019-03-30T10:45:35.000Z</time>
      </trkpt>
      <trkpt lat="43.98353" lon="7.28103">
        <ele>1007.5999755859</ele>
        <time>2019-03-30T10:45:36.000Z</time>
      </trkpt>
      <trkpt lat="43.98353" lon="7.28105">
        <ele>1007</ele>
        <time>2019-03-30T10:45:37.000Z</time>
      </trkpt>
      <trkpt lat="43.98353" lon="7.28108">
        <ele>1006</ele>
        <time>2019-03-30T10:45:38.000Z</time>
      </trkpt>
      <trkpt lat="43.98354" lon="7.28111">
        <ele>1005.4000244141</ele>
        <time>2019-03-30T10:45:39.000Z</time>
      </trkpt>
      <trkpt lat="43.98354" lon="7.28116">
        <ele>1004</ele>
        <time>2019-03-30T10:45:40.000Z</time>
      </trkpt>
      <trkpt lat="43.98354" lon="7.28126">
        <ele>1001.5999755859</ele>
        <time>2019-03-30T10:45:42.000Z</time>
      </trkpt>
      <trkpt lat="43.98356" lon="7.28131">
        <ele>1000.200012207</ele>
        <time>2019-03-30T10:45:43.000Z</time>
      </trkpt>
      <trkpt lat="43.98359" lon="7.28135">
        <ele>999</ele>
        <time>2019-03-30T10:45:44.000Z</time>
      </trkpt>
      <trkpt lat="43.98366" lon="7.28142">
        <ele>996.59997558594</ele>
        <time>2019-03-30T10:45:46.000Z</time>
      </trkpt>
      <trkpt lat="43.98368" lon="7.28145">
        <ele>995.20001220703</ele>
        <time>2019-03-30T10:45:47.000Z</time>
      </trkpt>
      <trkpt lat="43.98369" lon="7.28149">
        <ele>994.20001220703</ele>
        <time>2019-03-30T10:45:48.000Z</time>
      </trkpt>
      <trkpt lat="43.9837" lon="7.28154">
        <ele>993</ele>
        <time>2019-03-30T10:45:49.000Z</time>
      </trkpt>
      <trkpt lat="43.98372" lon="7.28164">
        <ele>991.59997558594</ele>
        <time>2019-03-30T10:45:51.000Z</time>
      </trkpt>
      <trkpt lat="43.98374" lon="7.28168">
        <ele>989.40002441406</ele>
        <time>2019-03-30T10:45:53.000Z</time>
      </trkpt>
      <trkpt lat="43.98376" lon="7.2817">
        <ele>987.40002441406</ele>
        <time>2019-03-30T10:45:55.000Z</time>
      </trkpt>
      <trkpt lat="43.98376" lon="7.28171">
        <ele>986.59997558594</ele>
        <time>2019-03-30T10:45:58.000Z</time>
      </trkpt>
      <trkpt lat="43.98377" lon="7.28171">
        <ele>986.40002441406</ele>
        <time>2019-03-30T10:45:59.000Z</time>
      </trkpt>
      <trkpt lat="43.98376" lon="7.28171">
        <ele>985.20001220703</ele>
        <time>2019-03-30T10:46:06.000Z</time>
      </trkpt>
      <trkpt lat="43.98376" lon="7.28171">
        <ele>985</ele>
        <time>2019-03-30T10:46:07.000Z</time>
      </trkpt>
      <trkpt lat="43.98377" lon="7.28171">
        <ele>984.20001220703</ele>
        <time>2019-03-30T10:46:11.000Z</time>
      </trkpt>
      <trkpt lat="43.98377" lon="7.28171">
        <ele>983</ele>
        <time>2019-03-30T10:46:19.000Z</time>
      </trkpt>
      <trkpt lat="43.98377" lon="7.28172">
        <ele>982</ele>
        <time>2019-03-30T10:46:26.000Z</time>
      </trkpt>
      <trkpt lat="43.98377" lon="7.28172">
        <ele>981</ele>
        <time>2019-03-30T10:46:31.000Z</time>
      </trkpt>
      <trkpt lat="43.98377" lon="7.28172">
        <ele>980.40002441406</ele>
        <time>2019-03-30T10:46:35.000Z</time>
      </trkpt>
      <trkpt lat="43.98379" lon="7.28174">
        <ele>980</ele>
        <time>2019-03-30T10:46:39.000Z</time>
      </trkpt>
      <trkpt lat="43.98382" lon="7.28179">
        <ele>979.40002441406</ele>
        <time>2019-03-30T10:46:41.000Z</time>
      </trkpt>
      <trkpt lat="43.98384" lon="7.2819">
        <ele>979</ele>
        <time>2019-03-30T10:46:43.000Z</time>
      </trkpt>
      <trkpt lat="43.98384" lon="7.28197">
        <ele>978.59997558594</ele>
        <time>2019-03-30T10:46:44.000Z</time>
      </trkpt>
      <trkpt lat="43.98384" lon="7.28204">
        <ele>978.40002441406</ele>
        <time>2019-03-30T10:46:45.000Z</time>
      </trkpt>
      <trkpt lat="43.98385" lon="7.28216">
        <ele>977.40002441406</ele>
        <time>2019-03-30T10:46:47.000Z</time>
      </trkpt>
      <trkpt lat="43.98388" lon="7.28225">
        <ele>976</ele>
        <time>2019-03-30T10:46:49.000Z</time>
      </trkpt>
      <trkpt lat="43.98392" lon="7.28237">
        <ele>974</ele>
        <time>2019-03-30T10:46:51.000Z</time>
      </trkpt>
      <trkpt lat="43.98394" lon="7.28241">
        <ele>972.79998779297</ele>
        <time>2019-03-30T10:46:52.000Z</time>
      </trkpt>
      <trkpt lat="43.98396" lon="7.28245">
        <ele>971.59997558594</ele>
        <time>2019-03-30T10:46:53.000Z</time>
      </trkpt>
      <trkpt lat="43.98398" lon="7.28248">
        <ele>970.59997558594</ele>
        <time>2019-03-30T10:46:54.000Z</time>
      </trkpt>
      <trkpt lat="43.98399" lon="7.28252">
        <ele>969.20001220703</ele>
        <time>2019-03-30T10:46:55.000Z</time>
      </trkpt>
      <trkpt lat="43.98399" lon="7.28256">
        <ele>967.79998779297</ele>
        <time>2019-03-30T10:46:56.000Z</time>
      </trkpt>
      <trkpt lat="43.98398" lon="7.28261">
        <ele>966.40002441406</ele>
        <time>2019-03-30T10:46:57.000Z</time>
      </trkpt>
      <trkpt lat="43.98397" lon="7.28265">
        <ele>965.40002441406</ele>
        <time>2019-03-30T10:46:58.000Z</time>
      </trkpt>
      <trkpt lat="43.98399" lon="7.2827">
        <ele>964</ele>
        <time>2019-03-30T10:46:59.000Z</time>
      </trkpt>
      <trkpt lat="43.98401" lon="7.28274">
        <ele>962.79998779297</ele>
        <time>2019-03-30T10:47:00.000Z</time>
      </trkpt>
      <trkpt lat="43.98401" lon="7.28279">
        <ele>962.40002441406</ele>
        <time>2019-03-30T10:47:01.000Z</time>
      </trkpt>
      <trkpt lat="43.98402" lon="7.28284">
        <ele>961.59997558594</ele>
        <time>2019-03-30T10:47:02.000Z</time>
      </trkpt>
      <trkpt lat="43.98403" lon="7.2829">
        <ele>960.59997558594</ele>
        <time>2019-03-30T10:47:03.000Z</time>
      </trkpt>
      <trkpt lat="43.98406" lon="7.28296">
        <ele>958.59997558594</ele>
        <time>2019-03-30T10:47:04.000Z</time>
      </trkpt>
      <trkpt lat="43.98409" lon="7.28301">
        <ele>957.79998779297</ele>
        <time>2019-03-30T10:47:05.000Z</time>
      </trkpt>
      <trkpt lat="43.98412" lon="7.28308">
        <ele>956</ele>
        <time>2019-03-30T10:47:06.000Z</time>
      </trkpt>
      <trkpt lat="43.98417" lon="7.28322">
        <ele>954</ele>
        <time>2019-03-30T10:47:08.000Z</time>
      </trkpt>
      <trkpt lat="43.98417" lon="7.28329">
        <ele>952.79998779297</ele>
        <time>2019-03-30T10:47:09.000Z</time>
      </trkpt>
      <trkpt lat="43.98412" lon="7.28333">
        <ele>951.79998779297</ele>
        <time>2019-03-30T10:47:11.000Z</time>
      </trkpt>
      <trkpt lat="43.98409" lon="7.28333">
        <ele>951</ele>
        <time>2019-03-30T10:47:12.000Z</time>
      </trkpt>
      <trkpt lat="43.98408" lon="7.28329">
        <ele>950.20001220703</ele>
        <time>2019-03-30T10:47:13.000Z</time>
      </trkpt>
      <trkpt lat="43.98407" lon="7.28326">
        <ele>949.79998779297</ele>
        <time>2019-03-30T10:47:14.000Z</time>
      </trkpt>
      <trkpt lat="43.98407" lon="7.28323">
        <ele>949</ele>
        <time>2019-03-30T10:47:15.000Z</time>
      </trkpt>
      <trkpt lat="43.98405" lon="7.28322">
        <ele>948.20001220703</ele>
        <time>2019-03-30T10:47:16.000Z</time>
      </trkpt>
      <trkpt lat="43.98403" lon="7.28318">
        <ele>947.20001220703</ele>
        <time>2019-03-30T10:47:18.000Z</time>
      </trkpt>
      <trkpt lat="43.98402" lon="7.28316">
        <ele>946.79998779297</ele>
        <time>2019-03-30T10:47:19.000Z</time>
      </trkpt>
      <trkpt lat="43.98401" lon="7.28314">
        <ele>946</ele>
        <time>2019-03-30T10:47:20.000Z</time>
      </trkpt>
      <trkpt lat="43.984" lon="7.28315">
        <ele>945.20001220703</ele>
        <time>2019-03-30T10:47:21.000Z</time>
      </trkpt>
      <trkpt lat="43.984" lon="7.28316">
        <ele>944.40002441406</ele>
        <time>2019-03-30T10:47:22.000Z</time>
      </trkpt>
      <trkpt lat="43.984" lon="7.2832">
        <ele>943.40002441406</ele>
        <time>2019-03-30T10:47:23.000Z</time>
      </trkpt>
      <trkpt lat="43.984" lon="7.28325">
        <ele>942.59997558594</ele>
        <time>2019-03-30T10:47:24.000Z</time>
      </trkpt>
      <trkpt lat="43.98399" lon="7.28334">
        <ele>941.40002441406</ele>
        <time>2019-03-30T10:47:26.000Z</time>
      </trkpt>
      <trkpt lat="43.98399" lon="7.2834">
        <ele>940.59997558594</ele>
        <time>2019-03-30T10:47:27.000Z</time>
      </trkpt>
      <trkpt lat="43.98399" lon="7.28345">
        <ele>939.59997558594</ele>
        <time>2019-03-30T10:47:28.000Z</time>
      </trkpt>
      <trkpt lat="43.98397" lon="7.28356">
        <ele>937.20001220703</ele>
        <time>2019-03-30T10:47:30.000Z</time>
      </trkpt>
      <trkpt lat="43.98397" lon="7.28361">
        <ele>936.59997558594</ele>
        <time>2019-03-30T10:47:31.000Z</time>
      </trkpt>
      <trkpt lat="43.98397" lon="7.28366">
        <ele>935.40002441406</ele>
        <time>2019-03-30T10:47:32.000Z</time>
      </trkpt>
      <trkpt lat="43.98394" lon="7.28374">
        <ele>934</ele>
        <time>2019-03-30T10:47:34.000Z</time>
      </trkpt>
      <trkpt lat="43.98392" lon="7.28381">
        <ele>934</ele>
        <time>2019-03-30T10:47:35.000Z</time>
      </trkpt>
      <trkpt lat="43.98391" lon="7.28387">
        <ele>933.59997558594</ele>
        <time>2019-03-30T10:47:36.000Z</time>
      </trkpt>
      <trkpt lat="43.98391" lon="7.28401">
        <ele>932.79998779297</ele>
        <time>2019-03-30T10:47:38.000Z</time>
      </trkpt>
      <trkpt lat="43.98391" lon="7.28408">
        <ele>932</ele>
        <time>2019-03-30T10:47:39.000Z</time>
      </trkpt>
      <trkpt lat="43.98392" lon="7.28412">
        <ele>931</ele>
        <time>2019-03-30T10:47:40.000Z</time>
      </trkpt>
      <trkpt lat="43.98391" lon="7.28418">
        <ele>929.20001220703</ele>
        <time>2019-03-30T10:47:41.000Z</time>
      </trkpt>
      <trkpt lat="43.98389" lon="7.28418">
        <ele>927.59997558594</ele>
        <time>2019-03-30T10:47:42.000Z</time>
      </trkpt>
      <trkpt lat="43.98386" lon="7.28416">
        <ele>925.59997558594</ele>
        <time>2019-03-30T10:47:43.000Z</time>
      </trkpt>
      <trkpt lat="43.98382" lon="7.28417">
        <ele>923.79998779297</ele>
        <time>2019-03-30T10:47:45.000Z</time>
      </trkpt>
      <trkpt lat="43.98381" lon="7.28421">
        <ele>923.20001220703</ele>
        <time>2019-03-30T10:47:46.000Z</time>
      </trkpt>
      <trkpt lat="43.98381" lon="7.28424">
        <ele>922.40002441406</ele>
        <time>2019-03-30T10:47:47.000Z</time>
      </trkpt>
      <trkpt lat="43.9838" lon="7.28426">
        <ele>922</ele>
        <time>2019-03-30T10:47:48.000Z</time>
      </trkpt>
      <trkpt lat="43.98381" lon="7.28427">
        <ele>921.20001220703</ele>
        <time>2019-03-30T10:47:49.000Z</time>
      </trkpt>
      <trkpt lat="43.98381" lon="7.28429">
        <ele>920.79998779297</ele>
        <time>2019-03-30T10:47:52.000Z</time>
      </trkpt>
      <trkpt lat="43.98383" lon="7.28442">
        <ele>920.20001220703</ele>
        <time>2019-03-30T10:47:56.000Z</time>
      </trkpt>
      <trkpt lat="43.9838" lon="7.28449">
        <ele>919</ele>
        <time>2019-03-30T10:47:58.000Z</time>
      </trkpt>
      <trkpt lat="43.98378" lon="7.28451">
        <ele>917.79998779297</ele>
        <time>2019-03-30T10:47:59.000Z</time>
      </trkpt>
      <trkpt lat="43.98374" lon="7.28454">
        <ele>916.20001220703</ele>
        <time>2019-03-30T10:48:01.000Z</time>
      </trkpt>
      <trkpt lat="43.98369" lon="7.28458">
        <ele>915.20001220703</ele>
        <time>2019-03-30T10:48:03.000Z</time>
      </trkpt>
      <trkpt lat="43.98367" lon="7.28462">
        <ele>914.20001220703</ele>
        <time>2019-03-30T10:48:05.000Z</time>
      </trkpt>
      <trkpt lat="43.98366" lon="7.28464">
        <ele>913.79998779297</ele>
        <time>2019-03-30T10:48:06.000Z</time>
      </trkpt>
      <trkpt lat="43.98365" lon="7.28467">
        <ele>913.59997558594</ele>
        <time>2019-03-30T10:48:07.000Z</time>
      </trkpt>
      <trkpt lat="43.98366" lon="7.28468">
        <ele>913.40002441406</ele>
        <time>2019-03-30T10:48:08.000Z</time>
      </trkpt>
      <trkpt lat="43.9837" lon="7.28472">
        <ele>912.79998779297</ele>
        <time>2019-03-30T10:48:10.000Z</time>
      </trkpt>
      <trkpt lat="43.98371" lon="7.28473">
        <ele>912</ele>
        <time>2019-03-30T10:48:11.000Z</time>
      </trkpt>
      <trkpt lat="43.98371" lon="7.28474">
        <ele>910.40002441406</ele>
        <time>2019-03-30T10:48:13.000Z</time>
      </trkpt>
      <trkpt lat="43.98371" lon="7.28475">
        <ele>909</ele>
        <time>2019-03-30T10:48:15.000Z</time>
      </trkpt>
      <trkpt lat="43.98371" lon="7.28476">
        <ele>908.59997558594</ele>
        <time>2019-03-30T10:48:16.000Z</time>
      </trkpt>
      <trkpt lat="43.98371" lon="7.28479">
        <ele>907.79998779297</ele>
        <time>2019-03-30T10:48:23.000Z</time>
      </trkpt>
      <trkpt lat="43.98371" lon="7.28479">
        <ele>907.79998779297</ele>
        <time>2019-03-30T10:48:24.000Z</time>
      </trkpt>
      <trkpt lat="43.9837" lon="7.28484">
        <ele>907.59997558594</ele>
        <time>2019-03-30T10:48:30.000Z</time>
      </trkpt>
      <trkpt lat="43.98369" lon="7.28489">
        <ele>906.79998779297</ele>
        <time>2019-03-30T10:48:36.000Z</time>
      </trkpt>
      <trkpt lat="43.98369" lon="7.2849">
        <ele>906.59997558594</ele>
        <time>2019-03-30T10:48:37.000Z</time>
      </trkpt>
      <trkpt lat="43.98369" lon="7.2849">
        <ele>905.59997558594</ele>
        <time>2019-03-30T10:48:40.000Z</time>
      </trkpt>
      <trkpt lat="43.98368" lon="7.28492">
        <ele>905.40002441406</ele>
        <time>2019-03-30T10:48:42.000Z</time>
      </trkpt>
      <trkpt lat="43.98367" lon="7.28495">
        <ele>905.40002441406</ele>
        <time>2019-03-30T10:48:43.000Z</time>
      </trkpt>
      <trkpt lat="43.98363" lon="7.28504">
        <ele>905</ele>
        <time>2019-03-30T10:48:47.000Z</time>
      </trkpt>
      <trkpt lat="43.98362" lon="7.28509">
        <ele>904.40002441406</ele>
        <time>2019-03-30T10:48:49.000Z</time>
      </trkpt>
      <trkpt lat="43.98361" lon="7.28516">
        <ele>903.20001220703</ele>
        <time>2019-03-30T10:48:52.000Z</time>
      </trkpt>
      <trkpt lat="43.98362" lon="7.28521">
        <ele>901.79998779297</ele>
        <time>2019-03-30T10:48:54.000Z</time>
      </trkpt>
      <trkpt lat="43.98363" lon="7.28526">
        <ele>900.79998779297</ele>
        <time>2019-03-30T10:48:56.000Z</time>
      </trkpt>
      <trkpt lat="43.98364" lon="7.28528">
        <ele>900.40002441406</ele>
        <time>2019-03-30T10:48:57.000Z</time>
      </trkpt>
      <trkpt lat="43.98363" lon="7.28532">
        <ele>899.59997558594</ele>
        <time>2019-03-30T10:48:59.000Z</time>
      </trkpt>
      <trkpt lat="43.98362" lon="7.28534">
        <ele>899.20001220703</ele>
        <time>2019-03-30T10:49:00.000Z</time>
      </trkpt>
      <trkpt lat="43.98361" lon="7.28535">
        <ele>899.20001220703</ele>
        <time>2019-03-30T10:49:01.000Z</time>
      </trkpt>
      <trkpt lat="43.98361" lon="7.28537">
        <ele>898.79998779297</ele>
        <time>2019-03-30T10:49:02.000Z</time>
      </trkpt>
      <trkpt lat="43.98361" lon="7.28537">
        <ele>897.79998779297</ele>
        <time>2019-03-30T10:49:04.000Z</time>
      </trkpt>
      <trkpt lat="43.98361" lon="7.28541">
        <ele>897</ele>
        <time>2019-03-30T10:49:05.000Z</time>
      </trkpt>
      <trkpt lat="43.9836" lon="7.28545">
        <ele>896.59997558594</ele>
        <time>2019-03-30T10:49:07.000Z</time>
      </trkpt>
      <trkpt lat="43.98362" lon="7.28547">
        <ele>896.40002441406</ele>
        <time>2019-03-30T10:49:08.000Z</time>
      </trkpt>
      <trkpt lat="43.98363" lon="7.28551">
        <ele>895.79998779297</ele>
        <time>2019-03-30T10:49:11.000Z</time>
      </trkpt>
      <trkpt lat="43.98363" lon="7.28554">
        <ele>895.40002441406</ele>
        <time>2019-03-30T10:49:12.000Z</time>
      </trkpt>
      <trkpt lat="43.9836" lon="7.28569">
        <ele>895</ele>
        <time>2019-03-30T10:49:15.000Z</time>
      </trkpt>
      <trkpt lat="43.98352" lon="7.28584">
        <ele>894</ele>
        <time>2019-03-30T10:49:18.000Z</time>
      </trkpt>
      <trkpt lat="43.9835" lon="7.28589">
        <ele>893.40002441406</ele>
        <time>2019-03-30T10:49:19.000Z</time>
      </trkpt>
      <trkpt lat="43.98348" lon="7.28594">
        <ele>892.79998779297</ele>
        <time>2019-03-30T10:49:20.000Z</time>
      </trkpt>
      <trkpt lat="43.98347" lon="7.286">
        <ele>892.40002441406</ele>
        <time>2019-03-30T10:49:21.000Z</time>
      </trkpt>
      <trkpt lat="43.98344" lon="7.2861">
        <ele>891.79998779297</ele>
        <time>2019-03-30T10:49:23.000Z</time>
      </trkpt>
      <trkpt lat="43.98346" lon="7.28613">
        <ele>891.59997558594</ele>
        <time>2019-03-30T10:49:24.000Z</time>
      </trkpt>
      <trkpt lat="43.98347" lon="7.28618">
        <ele>891.59997558594</ele>
        <time>2019-03-30T10:49:25.000Z</time>
      </trkpt>
      <trkpt lat="43.98347" lon="7.28623">
        <ele>891.40002441406</ele>
        <time>2019-03-30T10:49:26.000Z</time>
      </trkpt>
      <trkpt lat="43.98344" lon="7.2863">
        <ele>890.79998779297</ele>
        <time>2019-03-30T10:49:28.000Z</time>
      </trkpt>
      <trkpt lat="43.98341" lon="7.28635">
        <ele>890.40002441406</ele>
        <time>2019-03-30T10:49:29.000Z</time>
      </trkpt>
      <trkpt lat="43.98338" lon="7.28641">
        <ele>890</ele>
        <time>2019-03-30T10:49:30.000Z</time>
      </trkpt>
      <trkpt lat="43.98336" lon="7.28647">
        <ele>889.20001220703</ele>
        <time>2019-03-30T10:49:31.000Z</time>
      </trkpt>
      <trkpt lat="43.98335" lon="7.28652">
        <ele>888</ele>
        <time>2019-03-30T10:49:32.000Z</time>
      </trkpt>
      <trkpt lat="43.98334" lon="7.28658">
        <ele>886.79998779297</ele>
        <time>2019-03-30T10:49:33.000Z</time>
      </trkpt>
      <trkpt lat="43.98334" lon="7.28665">
        <ele>885.40002441406</ele>
        <time>2019-03-30T10:49:34.000Z</time>
      </trkpt>
      <trkpt lat="43.98333" lon="7.28673">
        <ele>883.79998779297</ele>
        <time>2019-03-30T10:49:35.000Z</time>
      </trkpt>
      <trkpt lat="43.98334" lon="7.28679">
        <ele>881.79998779297</ele>
        <time>2019-03-30T10:49:36.000Z</time>
      </trkpt>
      <trkpt lat="43.98333" lon="7.28683">
        <ele>880.20001220703</ele>
        <time>2019-03-30T10:49:37.000Z</time>
      </trkpt>
      <trkpt lat="43.98331" lon="7.28684">
        <ele>878.79998779297</ele>
        <time>2019-03-30T10:49:38.000Z</time>
      </trkpt>
      <trkpt lat="43.98329" lon="7.28685">
        <ele>877.79998779297</ele>
        <time>2019-03-30T10:49:39.000Z</time>
      </trkpt>
      <trkpt lat="43.98329" lon="7.28686">
        <ele>877</ele>
        <time>2019-03-30T10:49:40.000Z</time>
      </trkpt>
      <trkpt lat="43.98328" lon="7.28687">
        <ele>877</ele>
        <time>2019-03-30T10:49:41.000Z</time>
      </trkpt>
      <trkpt lat="43.98325" lon="7.28693">
        <ele>876.59997558594</ele>
        <time>2019-03-30T10:49:43.000Z</time>
      </trkpt>
      <trkpt lat="43.98318" lon="7.28703">
        <ele>876</ele>
        <time>2019-03-30T10:49:45.000Z</time>
      </trkpt>
      <trkpt lat="43.98314" lon="7.28706">
        <ele>875.40002441406</ele>
        <time>2019-03-30T10:49:46.000Z</time>
      </trkpt>
      <trkpt lat="43.9831" lon="7.28709">
        <ele>874.79998779297</ele>
        <time>2019-03-30T10:49:47.000Z</time>
      </trkpt>
      <trkpt lat="43.98306" lon="7.28716">
        <ele>873</ele>
        <time>2019-03-30T10:49:49.000Z</time>
      </trkpt>
      <trkpt lat="43.98302" lon="7.2872">
        <ele>872.20001220703</ele>
        <time>2019-03-30T10:49:50.000Z</time>
      </trkpt>
      <trkpt lat="43.983" lon="7.28723">
        <ele>871</ele>
        <time>2019-03-30T10:49:51.000Z</time>
      </trkpt>
      <trkpt lat="43.98298" lon="7.28726">
        <ele>870</ele>
        <time>2019-03-30T10:49:52.000Z</time>
      </trkpt>
      <trkpt lat="43.98296" lon="7.28726">
        <ele>868.79998779297</ele>
        <time>2019-03-30T10:49:53.000Z</time>
      </trkpt>
      <trkpt lat="43.98294" lon="7.28729">
        <ele>867.79998779297</ele>
        <time>2019-03-30T10:49:54.000Z</time>
      </trkpt>
      <trkpt lat="43.98292" lon="7.28733">
        <ele>867</ele>
        <time>2019-03-30T10:49:55.000Z</time>
      </trkpt>
      <trkpt lat="43.98287" lon="7.28741">
        <ele>865.59997558594</ele>
        <time>2019-03-30T10:49:57.000Z</time>
      </trkpt>
      <trkpt lat="43.98286" lon="7.28744">
        <ele>864.20001220703</ele>
        <time>2019-03-30T10:49:58.000Z</time>
      </trkpt>
      <trkpt lat="43.98283" lon="7.28748">
        <ele>862.40002441406</ele>
        <time>2019-03-30T10:50:00.000Z</time>
      </trkpt>
      <trkpt lat="43.98277" lon="7.28751">
        <ele>860.79998779297</ele>
        <time>2019-03-30T10:50:03.000Z</time>
      </trkpt>
      <trkpt lat="43.98276" lon="7.28753">
        <ele>859.59997558594</ele>
        <time>2019-03-30T10:50:05.000Z</time>
      </trkpt>
      <trkpt lat="43.98275" lon="7.28754">
        <ele>858.79998779297</ele>
        <time>2019-03-30T10:50:07.000Z</time>
      </trkpt>
      <trkpt lat="43.98275" lon="7.28756">
        <ele>858.40002441406</ele>
        <time>2019-03-30T10:50:08.000Z</time>
      </trkpt>
      <trkpt lat="43.98274" lon="7.28757">
        <ele>857.20001220703</ele>
        <time>2019-03-30T10:50:13.000Z</time>
      </trkpt>
      <trkpt lat="43.98273" lon="7.28758">
        <ele>857.20001220703</ele>
        <time>2019-03-30T10:50:14.000Z</time>
      </trkpt>
      <trkpt lat="43.98269" lon="7.28765">
        <ele>856.20001220703</ele>
        <time>2019-03-30T10:50:20.000Z</time>
      </trkpt>
      <trkpt lat="43.98268" lon="7.28766">
        <ele>856</ele>
        <time>2019-03-30T10:50:21.000Z</time>
      </trkpt>
      <trkpt lat="43.98264" lon="7.28779">
        <ele>855.59997558594</ele>
        <time>2019-03-30T10:50:25.000Z</time>
      </trkpt>
      <trkpt lat="43.98262" lon="7.28787">
        <ele>855.40002441406</ele>
        <time>2019-03-30T10:50:28.000Z</time>
      </trkpt>
      <trkpt lat="43.9826" lon="7.28791">
        <ele>854.40002441406</ele>
        <time>2019-03-30T10:50:29.000Z</time>
      </trkpt>
      <trkpt lat="43.98253" lon="7.28792">
        <ele>853.20001220703</ele>
        <time>2019-03-30T10:50:32.000Z</time>
      </trkpt>
      <trkpt lat="43.9824" lon="7.28783">
        <ele>852.40002441406</ele>
        <time>2019-03-30T10:50:36.000Z</time>
      </trkpt>
      <trkpt lat="43.98237" lon="7.28782">
        <ele>852</ele>
        <time>2019-03-30T10:50:37.000Z</time>
      </trkpt>
      <trkpt lat="43.98234" lon="7.28784">
        <ele>851.79998779297</ele>
        <time>2019-03-30T10:50:38.000Z</time>
      </trkpt>
      <trkpt lat="43.98232" lon="7.28784">
        <ele>851.40002441406</ele>
        <time>2019-03-30T10:50:39.000Z</time>
      </trkpt>
      <trkpt lat="43.98231" lon="7.28783">
        <ele>851.20001220703</ele>
        <time>2019-03-30T10:50:40.000Z</time>
      </trkpt>
      <trkpt lat="43.98229" lon="7.28783">
        <ele>851</ele>
        <time>2019-03-30T10:50:41.000Z</time>
      </trkpt>
      <trkpt lat="43.98225" lon="7.28785">
        <ele>850.40002441406</ele>
        <time>2019-03-30T10:50:43.000Z</time>
      </trkpt>
      <trkpt lat="43.98224" lon="7.28784">
        <ele>850</ele>
        <time>2019-03-30T10:50:44.000Z</time>
      </trkpt>
      <trkpt lat="43.98221" lon="7.28783">
        <ele>849</ele>
        <time>2019-03-30T10:50:46.000Z</time>
      </trkpt>
      <trkpt lat="43.9822" lon="7.28785">
        <ele>848</ele>
        <time>2019-03-30T10:50:49.000Z</time>
      </trkpt>
      <trkpt lat="43.98219" lon="7.28787">
        <ele>847.59997558594</ele>
        <time>2019-03-30T10:50:50.000Z</time>
      </trkpt>
      <trkpt lat="43.98219" lon="7.28789">
        <ele>847.20001220703</ele>
        <time>2019-03-30T10:50:51.000Z</time>
      </trkpt>
      <trkpt lat="43.98218" lon="7.28788">
        <ele>846.20001220703</ele>
        <time>2019-03-30T10:50:53.000Z</time>
      </trkpt>
      <trkpt lat="43.98217" lon="7.28791">
        <ele>845.20001220703</ele>
        <time>2019-03-30T10:50:56.000Z</time>
      </trkpt>
      <trkpt lat="43.98216" lon="7.28793">
        <ele>844.79998779297</ele>
        <time>2019-03-30T10:51:03.000Z</time>
      </trkpt>
      <trkpt lat="43.98216" lon="7.28796">
        <ele>844</ele>
        <time>2019-03-30T10:51:06.000Z</time>
      </trkpt>
      <trkpt lat="43.98216" lon="7.28798">
        <ele>843.79998779297</ele>
        <time>2019-03-30T10:51:08.000Z</time>
      </trkpt>
      <trkpt lat="43.98215" lon="7.28801">
        <ele>843</ele>
        <time>2019-03-30T10:51:12.000Z</time>
      </trkpt>
      <trkpt lat="43.98215" lon="7.28802">
        <ele>843.40002441406</ele>
        <time>2019-03-30T10:51:15.000Z</time>
      </trkpt>
      <trkpt lat="43.98217" lon="7.28804">
        <ele>843.79998779297</ele>
        <time>2019-03-30T10:51:22.000Z</time>
      </trkpt>
      <trkpt lat="43.98216" lon="7.28808">
        <ele>844.20001220703</ele>
        <time>2019-03-30T10:51:25.000Z</time>
      </trkpt>
      <trkpt lat="43.98216" lon="7.28808">
        <ele>844.59997558594</ele>
        <time>2019-03-30T10:51:27.000Z</time>
      </trkpt>
      <trkpt lat="43.98219" lon="7.28808">
        <ele>845</ele>
        <time>2019-03-30T10:51:37.000Z</time>
      </trkpt>
      <trkpt lat="43.98221" lon="7.28808">
        <ele>844.79998779297</ele>
        <time>2019-03-30T10:51:48.000Z</time>
      </trkpt>
      <trkpt lat="43.98222" lon="7.28808">
        <ele>844.79998779297</ele>
        <time>2019-03-30T10:51:59.000Z</time>
      </trkpt>
      <trkpt lat="43.98221" lon="7.28808">
        <ele>845</ele>
        <time>2019-03-30T10:52:01.000Z</time>
      </trkpt>
      <trkpt lat="43.9822" lon="7.28809">
        <ele>845</ele>
        <time>2019-03-30T10:52:08.000Z</time>
      </trkpt>
      <trkpt lat="43.9822" lon="7.28816">
        <ele>845.20001220703</ele>
        <time>2019-03-30T10:52:11.000Z</time>
      </trkpt>
      <trkpt lat="43.98219" lon="7.28819">
        <ele>845</ele>
        <time>2019-03-30T10:52:12.000Z</time>
      </trkpt>
      <trkpt lat="43.9822" lon="7.28823">
        <ele>844.59997558594</ele>
        <time>2019-03-30T10:52:13.000Z</time>
      </trkpt>
      <trkpt lat="43.98223" lon="7.28831">
        <ele>843.20001220703</ele>
        <time>2019-03-30T10:52:16.000Z</time>
      </trkpt>
      <trkpt lat="43.98223" lon="7.28835">
        <ele>842.40002441406</ele>
        <time>2019-03-30T10:52:17.000Z</time>
      </trkpt>
      <trkpt lat="43.98223" lon="7.2884">
        <ele>841.79998779297</ele>
        <time>2019-03-30T10:52:18.000Z</time>
      </trkpt>
      <trkpt lat="43.98224" lon="7.28848">
        <ele>840.59997558594</ele>
        <time>2019-03-30T10:52:20.000Z</time>
      </trkpt>
      <trkpt lat="43.98224" lon="7.28852">
        <ele>840</ele>
        <time>2019-03-30T10:52:21.000Z</time>
      </trkpt>
      <trkpt lat="43.98224" lon="7.28857">
        <ele>839.20001220703</ele>
        <time>2019-03-30T10:52:22.000Z</time>
      </trkpt>
      <trkpt lat="43.98222" lon="7.28859">
        <ele>838.40002441406</ele>
        <time>2019-03-30T10:52:23.000Z</time>
      </trkpt>
      <trkpt lat="43.98219" lon="7.2886">
        <ele>837.59997558594</ele>
        <time>2019-03-30T10:52:24.000Z</time>
      </trkpt>
      <trkpt lat="43.98215" lon="7.28862">
        <ele>836.59997558594</ele>
        <time>2019-03-30T10:52:26.000Z</time>
      </trkpt>
      <trkpt lat="43.9821" lon="7.28866">
        <ele>836.20001220703</ele>
        <time>2019-03-30T10:52:30.000Z</time>
      </trkpt>
      <trkpt lat="43.98207" lon="7.28871">
        <ele>836.40002441406</ele>
        <time>2019-03-30T10:52:35.000Z</time>
      </trkpt>
      <trkpt lat="43.98208" lon="7.28875">
        <ele>836</ele>
        <time>2019-03-30T10:52:44.000Z</time>
      </trkpt>
      <trkpt lat="43.98209" lon="7.28878">
        <ele>836</ele>
        <time>2019-03-30T10:52:46.000Z</time>
      </trkpt>
      <trkpt lat="43.98209" lon="7.28888">
        <ele>835.59997558594</ele>
        <time>2019-03-30T10:52:48.000Z</time>
      </trkpt>
      <trkpt lat="43.98209" lon="7.28891">
        <ele>835.20001220703</ele>
        <time>2019-03-30T10:52:49.000Z</time>
      </trkpt>
      <trkpt lat="43.98208" lon="7.28896">
        <ele>834.79998779297</ele>
        <time>2019-03-30T10:52:50.000Z</time>
      </trkpt>
      <trkpt lat="43.98207" lon="7.28902">
        <ele>833.59997558594</ele>
        <time>2019-03-30T10:52:52.000Z</time>
      </trkpt>
      <trkpt lat="43.98206" lon="7.28913">
        <ele>832.59997558594</ele>
        <time>2019-03-30T10:52:54.000Z</time>
      </trkpt>
      <trkpt lat="43.98206" lon="7.28924">
        <ele>831.59997558594</ele>
        <time>2019-03-30T10:52:56.000Z</time>
      </trkpt>
      <trkpt lat="43.98206" lon="7.28929">
        <ele>831</ele>
        <time>2019-03-30T10:52:57.000Z</time>
      </trkpt>
      <trkpt lat="43.98206" lon="7.28935">
        <ele>830.20001220703</ele>
        <time>2019-03-30T10:52:58.000Z</time>
      </trkpt>
      <trkpt lat="43.98205" lon="7.28941">
        <ele>829</ele>
        <time>2019-03-30T10:52:59.000Z</time>
      </trkpt>
      <trkpt lat="43.98203" lon="7.28948">
        <ele>827.79998779297</ele>
        <time>2019-03-30T10:53:00.000Z</time>
      </trkpt>
      <trkpt lat="43.982" lon="7.28953">
        <ele>826.40002441406</ele>
        <time>2019-03-30T10:53:01.000Z</time>
      </trkpt>
      <trkpt lat="43.98198" lon="7.28959">
        <ele>824.79998779297</ele>
        <time>2019-03-30T10:53:02.000Z</time>
      </trkpt>
      <trkpt lat="43.98199" lon="7.28964">
        <ele>823.59997558594</ele>
        <time>2019-03-30T10:53:03.000Z</time>
      </trkpt>
      <trkpt lat="43.982" lon="7.28975">
        <ele>822</ele>
        <time>2019-03-30T10:53:05.000Z</time>
      </trkpt>
      <trkpt lat="43.98201" lon="7.28985">
        <ele>821</ele>
        <time>2019-03-30T10:53:07.000Z</time>
      </trkpt>
      <trkpt lat="43.98204" lon="7.28994">
        <ele>819</ele>
        <time>2019-03-30T10:53:09.000Z</time>
      </trkpt>
      <trkpt lat="43.98205" lon="7.28997">
        <ele>817.79998779297</ele>
        <time>2019-03-30T10:53:10.000Z</time>
      </trkpt>
      <trkpt lat="43.98203" lon="7.29">
        <ele>817.20001220703</ele>
        <time>2019-03-30T10:53:11.000Z</time>
      </trkpt>
      <trkpt lat="43.98202" lon="7.29006">
        <ele>815.79998779297</ele>
        <time>2019-03-30T10:53:12.000Z</time>
      </trkpt>
      <trkpt lat="43.98201" lon="7.2901">
        <ele>814.79998779297</ele>
        <time>2019-03-30T10:53:13.000Z</time>
      </trkpt>
      <trkpt lat="43.98202" lon="7.29022">
        <ele>813.79998779297</ele>
        <time>2019-03-30T10:53:15.000Z</time>
      </trkpt>
      <trkpt lat="43.98204" lon="7.29025">
        <ele>812.59997558594</ele>
        <time>2019-03-30T10:53:17.000Z</time>
      </trkpt>
      <trkpt lat="43.98205" lon="7.29035">
        <ele>811.59997558594</ele>
        <time>2019-03-30T10:53:19.000Z</time>
      </trkpt>
      <trkpt lat="43.98206" lon="7.29041">
        <ele>811.20001220703</ele>
        <time>2019-03-30T10:53:20.000Z</time>
      </trkpt>
      <trkpt lat="43.98206" lon="7.29047">
        <ele>810</ele>
        <time>2019-03-30T10:53:21.000Z</time>
      </trkpt>
      <trkpt lat="43.98204" lon="7.29051">
        <ele>809.20001220703</ele>
        <time>2019-03-30T10:53:22.000Z</time>
      </trkpt>
      <trkpt lat="43.98206" lon="7.29057">
        <ele>808</ele>
        <time>2019-03-30T10:53:23.000Z</time>
      </trkpt>
      <trkpt lat="43.98206" lon="7.29064">
        <ele>806.79998779297</ele>
        <time>2019-03-30T10:53:24.000Z</time>
      </trkpt>
      <trkpt lat="43.98207" lon="7.29069">
        <ele>805.40002441406</ele>
        <time>2019-03-30T10:53:25.000Z</time>
      </trkpt>
      <trkpt lat="43.98207" lon="7.29075">
        <ele>804</ele>
        <time>2019-03-30T10:53:26.000Z</time>
      </trkpt>
      <trkpt lat="43.98206" lon="7.29079">
        <ele>802.79998779297</ele>
        <time>2019-03-30T10:53:27.000Z</time>
      </trkpt>
      <trkpt lat="43.98207" lon="7.29084">
        <ele>801.20001220703</ele>
        <time>2019-03-30T10:53:28.000Z</time>
      </trkpt>
      <trkpt lat="43.98207" lon="7.2909">
        <ele>799.40002441406</ele>
        <time>2019-03-30T10:53:29.000Z</time>
      </trkpt>
      <trkpt lat="43.98207" lon="7.29098">
        <ele>798.20001220703</ele>
        <time>2019-03-30T10:53:31.000Z</time>
      </trkpt>
      <trkpt lat="43.98205" lon="7.291">
        <ele>797</ele>
        <time>2019-03-30T10:53:32.000Z</time>
      </trkpt>
      <trkpt lat="43.98203" lon="7.29103">
        <ele>796.20001220703</ele>
        <time>2019-03-30T10:53:33.000Z</time>
      </trkpt>
      <trkpt lat="43.98201" lon="7.29107">
        <ele>795.20001220703</ele>
        <time>2019-03-30T10:53:34.000Z</time>
      </trkpt>
      <trkpt lat="43.98197" lon="7.29109">
        <ele>793.59997558594</ele>
        <time>2019-03-30T10:53:36.000Z</time>
      </trkpt>
      <trkpt lat="43.98197" lon="7.2911">
        <ele>792.79998779297</ele>
        <time>2019-03-30T10:53:37.000Z</time>
      </trkpt>
      <trkpt lat="43.98198" lon="7.29111">
        <ele>791.79998779297</ele>
        <time>2019-03-30T10:53:38.000Z</time>
      </trkpt>
      <trkpt lat="43.982" lon="7.29112">
        <ele>790.20001220703</ele>
        <time>2019-03-30T10:53:40.000Z</time>
      </trkpt>
      <trkpt lat="43.98204" lon="7.29112">
        <ele>789.79998779297</ele>
        <time>2019-03-30T10:53:41.000Z</time>
      </trkpt>
      <trkpt lat="43.98209" lon="7.29112">
        <ele>789.59997558594</ele>
        <time>2019-03-30T10:53:43.000Z</time>
      </trkpt>
      <trkpt lat="43.9821" lon="7.2911">
        <ele>789.20001220703</ele>
        <time>2019-03-30T10:53:44.000Z</time>
      </trkpt>
      <trkpt lat="43.98212" lon="7.29111">
        <ele>788.59997558594</ele>
        <time>2019-03-30T10:53:45.000Z</time>
      </trkpt>
      <trkpt lat="43.98212" lon="7.29114">
        <ele>788.20001220703</ele>
        <time>2019-03-30T10:53:46.000Z</time>
      </trkpt>
      <trkpt lat="43.9821" lon="7.29119">
        <ele>787</ele>
        <time>2019-03-30T10:53:48.000Z</time>
      </trkpt>
      <trkpt lat="43.98211" lon="7.29122">
        <ele>785.79998779297</ele>
        <time>2019-03-30T10:53:50.000Z</time>
      </trkpt>
      <trkpt lat="43.98211" lon="7.29123">
        <ele>785.20001220703</ele>
        <time>2019-03-30T10:53:51.000Z</time>
      </trkpt>
      <trkpt lat="43.98212" lon="7.29123">
        <ele>784.59997558594</ele>
        <time>2019-03-30T10:53:52.000Z</time>
      </trkpt>
      <trkpt lat="43.98213" lon="7.29124">
        <ele>783.40002441406</ele>
        <time>2019-03-30T10:53:54.000Z</time>
      </trkpt>
      <trkpt lat="43.98214" lon="7.29127">
        <ele>782.79998779297</ele>
        <time>2019-03-30T10:53:55.000Z</time>
      </trkpt>
      <trkpt lat="43.98214" lon="7.2913">
        <ele>782</ele>
        <time>2019-03-30T10:53:57.000Z</time>
      </trkpt>
      <trkpt lat="43.98217" lon="7.29128">
        <ele>780.79998779297</ele>
        <time>2019-03-30T10:54:00.000Z</time>
      </trkpt>
      <trkpt lat="43.98218" lon="7.29127">
        <ele>780.20001220703</ele>
        <time>2019-03-30T10:54:01.000Z</time>
      </trkpt>
      <trkpt lat="43.9822" lon="7.29127">
        <ele>779.79998779297</ele>
        <time>2019-03-30T10:54:02.000Z</time>
      </trkpt>
      <trkpt lat="43.98222" lon="7.29127">
        <ele>778.40002441406</ele>
        <time>2019-03-30T10:54:05.000Z</time>
      </trkpt>
      <trkpt lat="43.98223" lon="7.29127">
        <ele>776.79998779297</ele>
        <time>2019-03-30T10:54:07.000Z</time>
      </trkpt>
      <trkpt lat="43.98223" lon="7.29127">
        <ele>775.79998779297</ele>
        <time>2019-03-30T10:54:09.000Z</time>
      </trkpt>
      <trkpt lat="43.98224" lon="7.29128">
        <ele>775.40002441406</ele>
        <time>2019-03-30T10:54:14.000Z</time>
      </trkpt>
      <trkpt lat="43.98227" lon="7.29128">
        <ele>775.20001220703</ele>
        <time>2019-03-30T10:54:22.000Z</time>
      </trkpt>
      <trkpt lat="43.98228" lon="7.29128">
        <ele>775</ele>
        <time>2019-03-30T10:54:23.000Z</time>
      </trkpt>
      <trkpt lat="43.98229" lon="7.29127">
        <ele>774.79998779297</ele>
        <time>2019-03-30T10:54:24.000Z</time>
      </trkpt>
      <trkpt lat="43.98233" lon="7.29132">
        <ele>773.79998779297</ele>
        <time>2019-03-30T10:54:27.000Z</time>
      </trkpt>
      <trkpt lat="43.98234" lon="7.29135">
        <ele>773.59997558594</ele>
        <time>2019-03-30T10:54:28.000Z</time>
      </trkpt>
      <trkpt lat="43.98234" lon="7.29151">
        <ele>772.20001220703</ele>
        <time>2019-03-30T10:54:31.000Z</time>
      </trkpt>
      <trkpt lat="43.98236" lon="7.2916">
        <ele>770.59997558594</ele>
        <time>2019-03-30T10:54:33.000Z</time>
      </trkpt>
      <trkpt lat="43.9824" lon="7.29167">
        <ele>770.59997558594</ele>
        <time>2019-03-30T10:54:35.000Z</time>
      </trkpt>
      <trkpt lat="43.98239" lon="7.29171">
        <ele>769.79998779297</ele>
        <time>2019-03-30T10:54:36.000Z</time>
      </trkpt>
      <trkpt lat="43.98237" lon="7.29173">
        <ele>769.40002441406</ele>
        <time>2019-03-30T10:54:37.000Z</time>
      </trkpt>
      <trkpt lat="43.98234" lon="7.29173">
        <ele>768.79998779297</ele>
        <time>2019-03-30T10:54:38.000Z</time>
      </trkpt>
      <trkpt lat="43.98232" lon="7.29173">
        <ele>768</ele>
        <time>2019-03-30T10:54:39.000Z</time>
      </trkpt>
      <trkpt lat="43.98228" lon="7.29177">
        <ele>766.20001220703</ele>
        <time>2019-03-30T10:54:41.000Z</time>
      </trkpt>
      <trkpt lat="43.98226" lon="7.2918">
        <ele>765.79998779297</ele>
        <time>2019-03-30T10:54:42.000Z</time>
      </trkpt>
      <trkpt lat="43.98225" lon="7.29182">
        <ele>765</ele>
        <time>2019-03-30T10:54:43.000Z</time>
      </trkpt>
      <trkpt lat="43.98222" lon="7.29186">
        <ele>763.79998779297</ele>
        <time>2019-03-30T10:54:45.000Z</time>
      </trkpt>
      <trkpt lat="43.98223" lon="7.29187">
        <ele>763.20001220703</ele>
        <time>2019-03-30T10:54:46.000Z</time>
      </trkpt>
      <trkpt lat="43.98222" lon="7.29191">
        <ele>762.20001220703</ele>
        <time>2019-03-30T10:54:47.000Z</time>
      </trkpt>
      <trkpt lat="43.98219" lon="7.29196">
        <ele>761</ele>
        <time>2019-03-30T10:54:49.000Z</time>
      </trkpt>
      <trkpt lat="43.98216" lon="7.29199">
        <ele>760.20001220703</ele>
        <time>2019-03-30T10:54:50.000Z</time>
      </trkpt>
      <trkpt lat="43.98214" lon="7.29202">
        <ele>759.40002441406</ele>
        <time>2019-03-30T10:54:51.000Z</time>
      </trkpt>
      <trkpt lat="43.98209" lon="7.29208">
        <ele>758</ele>
        <time>2019-03-30T10:54:53.000Z</time>
      </trkpt>
      <trkpt lat="43.98204" lon="7.29216">
        <ele>756.40002441406</ele>
        <time>2019-03-30T10:54:55.000Z</time>
      </trkpt>
      <trkpt lat="43.98201" lon="7.29222">
        <ele>755.40002441406</ele>
        <time>2019-03-30T10:54:56.000Z</time>
      </trkpt>
      <trkpt lat="43.98199" lon="7.29228">
        <ele>754.59997558594</ele>
        <time>2019-03-30T10:54:57.000Z</time>
      </trkpt>
      <trkpt lat="43.98197" lon="7.29231">
        <ele>754</ele>
        <time>2019-03-30T10:54:58.000Z</time>
      </trkpt>
      <trkpt lat="43.98193" lon="7.29232">
        <ele>753.59997558594</ele>
        <time>2019-03-30T10:54:59.000Z</time>
      </trkpt>
      <trkpt lat="43.98185" lon="7.29233">
        <ele>752.20001220703</ele>
        <time>2019-03-30T10:55:01.000Z</time>
      </trkpt>
      <trkpt lat="43.98182" lon="7.29233">
        <ele>751</ele>
        <time>2019-03-30T10:55:02.000Z</time>
      </trkpt>
      <trkpt lat="43.9818" lon="7.29232">
        <ele>750.40002441406</ele>
        <time>2019-03-30T10:55:03.000Z</time>
      </trkpt>
      <trkpt lat="43.98178" lon="7.29234">
        <ele>750</ele>
        <time>2019-03-30T10:55:05.000Z</time>
      </trkpt>
      <trkpt lat="43.98179" lon="7.29237">
        <ele>749.79998779297</ele>
        <time>2019-03-30T10:55:06.000Z</time>
      </trkpt>
      <trkpt lat="43.98179" lon="7.29246">
        <ele>749</ele>
        <time>2019-03-30T10:55:09.000Z</time>
      </trkpt>
      <trkpt lat="43.98176" lon="7.2925">
        <ele>748.59997558594</ele>
        <time>2019-03-30T10:55:11.000Z</time>
      </trkpt>
      <trkpt lat="43.98174" lon="7.29269">
        <ele>747.79998779297</ele>
        <time>2019-03-30T10:55:17.000Z</time>
      </trkpt>
      <trkpt lat="43.98171" lon="7.29273">
        <ele>747.79998779297</ele>
        <time>2019-03-30T10:55:18.000Z</time>
      </trkpt>
      <trkpt lat="43.98167" lon="7.29289">
        <ele>746.59997558594</ele>
        <time>2019-03-30T10:55:22.000Z</time>
      </trkpt>
      <trkpt lat="43.98164" lon="7.29293">
        <ele>746</ele>
        <time>2019-03-30T10:55:23.000Z</time>
      </trkpt>
      <trkpt lat="43.98161" lon="7.29299">
        <ele>745.40002441406</ele>
        <time>2019-03-30T10:55:25.000Z</time>
      </trkpt>
      <trkpt lat="43.98161" lon="7.29303">
        <ele>745.40002441406</ele>
        <time>2019-03-30T10:55:26.000Z</time>
      </trkpt>
      <trkpt lat="43.98162" lon="7.29308">
        <ele>745.40002441406</ele>
        <time>2019-03-30T10:55:27.000Z</time>
      </trkpt>
      <trkpt lat="43.98163" lon="7.29317">
        <ele>744.79998779297</ele>
        <time>2019-03-30T10:55:29.000Z</time>
      </trkpt>
      <trkpt lat="43.98165" lon="7.29322">
        <ele>744.40002441406</ele>
        <time>2019-03-30T10:55:30.000Z</time>
      </trkpt>
      <trkpt lat="43.9817" lon="7.29332">
        <ele>743.20001220703</ele>
        <time>2019-03-30T10:55:32.000Z</time>
      </trkpt>
      <trkpt lat="43.98169" lon="7.29338">
        <ele>743</ele>
        <time>2019-03-30T10:55:33.000Z</time>
      </trkpt>
      <trkpt lat="43.98168" lon="7.29343">
        <ele>742.40002441406</ele>
        <time>2019-03-30T10:55:34.000Z</time>
      </trkpt>
      <trkpt lat="43.98167" lon="7.29348">
        <ele>741.59997558594</ele>
        <time>2019-03-30T10:55:35.000Z</time>
      </trkpt>
      <trkpt lat="43.98166" lon="7.29358">
        <ele>740.20001220703</ele>
        <time>2019-03-30T10:55:37.000Z</time>
      </trkpt>
      <trkpt lat="43.98166" lon="7.29363">
        <ele>739</ele>
        <time>2019-03-30T10:55:38.000Z</time>
      </trkpt>
      <trkpt lat="43.98166" lon="7.29371">
        <ele>737</ele>
        <time>2019-03-30T10:55:40.000Z</time>
      </trkpt>
      <trkpt lat="43.98168" lon="7.29369">
        <ele>736.40002441406</ele>
        <time>2019-03-30T10:55:41.000Z</time>
      </trkpt>
      <trkpt lat="43.9817" lon="7.29368">
        <ele>735.59997558594</ele>
        <time>2019-03-30T10:55:42.000Z</time>
      </trkpt>
      <trkpt lat="43.98175" lon="7.29368">
        <ele>734.40002441406</ele>
        <time>2019-03-30T10:55:44.000Z</time>
      </trkpt>
      <trkpt lat="43.98177" lon="7.29369">
        <ele>733</ele>
        <time>2019-03-30T10:55:46.000Z</time>
      </trkpt>
      <trkpt lat="43.98177" lon="7.29371">
        <ele>732.20001220703</ele>
        <time>2019-03-30T10:55:47.000Z</time>
      </trkpt>
      <trkpt lat="43.98179" lon="7.29375">
        <ele>731.59997558594</ele>
        <time>2019-03-30T10:55:48.000Z</time>
      </trkpt>
      <trkpt lat="43.98179" lon="7.29378">
        <ele>730.79998779297</ele>
        <time>2019-03-30T10:55:49.000Z</time>
      </trkpt>
      <trkpt lat="43.98177" lon="7.29381">
        <ele>730</ele>
        <time>2019-03-30T10:55:50.000Z</time>
      </trkpt>
      <trkpt lat="43.98176" lon="7.29387">
        <ele>728.40002441406</ele>
        <time>2019-03-30T10:55:52.000Z</time>
      </trkpt>
      <trkpt lat="43.98177" lon="7.2939">
        <ele>727.40002441406</ele>
        <time>2019-03-30T10:55:53.000Z</time>
      </trkpt>
      <trkpt lat="43.98177" lon="7.2939">
        <ele>726.59997558594</ele>
        <time>2019-03-30T10:55:54.000Z</time>
      </trkpt>
      <trkpt lat="43.98178" lon="7.29391">
        <ele>725.59997558594</ele>
        <time>2019-03-30T10:55:55.000Z</time>
      </trkpt>
      <trkpt lat="43.9818" lon="7.2939">
        <ele>724.59997558594</ele>
        <time>2019-03-30T10:55:56.000Z</time>
      </trkpt>
      <trkpt lat="43.98183" lon="7.29388">
        <ele>723.79998779297</ele>
        <time>2019-03-30T10:55:58.000Z</time>
      </trkpt>
      <trkpt lat="43.98185" lon="7.29388">
        <ele>723.20001220703</ele>
        <time>2019-03-30T10:55:59.000Z</time>
      </trkpt>
      <trkpt lat="43.9819" lon="7.29388">
        <ele>722.20001220703</ele>
        <time>2019-03-30T10:56:01.000Z</time>
      </trkpt>
      <trkpt lat="43.98193" lon="7.2939">
        <ele>721.40002441406</ele>
        <time>2019-03-30T10:56:02.000Z</time>
      </trkpt>
      <trkpt lat="43.98192" lon="7.29394">
        <ele>720.79998779297</ele>
        <time>2019-03-30T10:56:03.000Z</time>
      </trkpt>
      <trkpt lat="43.98191" lon="7.29397">
        <ele>720</ele>
        <time>2019-03-30T10:56:04.000Z</time>
      </trkpt>
      <trkpt lat="43.98191" lon="7.294">
        <ele>718.40002441406</ele>
        <time>2019-03-30T10:56:06.000Z</time>
      </trkpt>
      <trkpt lat="43.98192" lon="7.29406">
        <ele>717.79998779297</ele>
        <time>2019-03-30T10:56:08.000Z</time>
      </trkpt>
      <trkpt lat="43.98192" lon="7.29408">
        <ele>717.20001220703</ele>
        <time>2019-03-30T10:56:09.000Z</time>
      </trkpt>
      <trkpt lat="43.98193" lon="7.29409">
        <ele>716.59997558594</ele>
        <time>2019-03-30T10:56:10.000Z</time>
      </trkpt>
      <trkpt lat="43.98194" lon="7.29409">
        <ele>715.79998779297</ele>
        <time>2019-03-30T10:56:11.000Z</time>
      </trkpt>
      <trkpt lat="43.98195" lon="7.2941">
        <ele>714.79998779297</ele>
        <time>2019-03-30T10:56:12.000Z</time>
      </trkpt>
      <trkpt lat="43.98196" lon="7.2941">
        <ele>713.79998779297</ele>
        <time>2019-03-30T10:56:13.000Z</time>
      </trkpt>
      <trkpt lat="43.98198" lon="7.29411">
        <ele>712.59997558594</ele>
        <time>2019-03-30T10:56:15.000Z</time>
      </trkpt>
      <trkpt lat="43.98201" lon="7.29412">
        <ele>711.59997558594</ele>
        <time>2019-03-30T10:56:18.000Z</time>
      </trkpt>
      <trkpt lat="43.98206" lon="7.29412">
        <ele>710.40002441406</ele>
        <time>2019-03-30T10:56:21.000Z</time>
      </trkpt>
      <trkpt lat="43.98206" lon="7.29413">
        <ele>710</ele>
        <time>2019-03-30T10:56:22.000Z</time>
      </trkpt>
      <trkpt lat="43.98207" lon="7.29413">
        <ele>709.20001220703</ele>
        <time>2019-03-30T10:56:23.000Z</time>
      </trkpt>
      <trkpt lat="43.98208" lon="7.29416">
        <ele>708.20001220703</ele>
        <time>2019-03-30T10:56:26.000Z</time>
      </trkpt>
      <trkpt lat="43.98208" lon="7.29417">
        <ele>707.79998779297</ele>
        <time>2019-03-30T10:56:27.000Z</time>
      </trkpt>
      <trkpt lat="43.98207" lon="7.29417">
        <ele>707.20001220703</ele>
        <time>2019-03-30T10:56:29.000Z</time>
      </trkpt>
      <trkpt lat="43.98206" lon="7.29419">
        <ele>707</ele>
        <time>2019-03-30T10:56:30.000Z</time>
      </trkpt>
      <trkpt lat="43.98204" lon="7.29423">
        <ele>706.59997558594</ele>
        <time>2019-03-30T10:56:33.000Z</time>
      </trkpt>
      <trkpt lat="43.98196" lon="7.29428">
        <ele>706.40002441406</ele>
        <time>2019-03-30T10:56:36.000Z</time>
      </trkpt>
      <trkpt lat="43.98194" lon="7.29427">
        <ele>706</ele>
        <time>2019-03-30T10:56:37.000Z</time>
      </trkpt>
      <trkpt lat="43.98193" lon="7.29427">
        <ele>705.20001220703</ele>
        <time>2019-03-30T10:56:41.000Z</time>
      </trkpt>
      <trkpt lat="43.98192" lon="7.29428">
        <ele>705.79998779297</ele>
        <time>2019-03-30T10:56:49.000Z</time>
      </trkpt>
      <trkpt lat="43.98189" lon="7.29428">
        <ele>705.20001220703</ele>
        <time>2019-03-30T10:56:56.000Z</time>
      </trkpt>
      <trkpt lat="43.98185" lon="7.29427">
        <ele>705.20001220703</ele>
        <time>2019-03-30T10:56:58.000Z</time>
      </trkpt>
      <trkpt lat="43.98172" lon="7.2942">
        <ele>705.20001220703</ele>
        <time>2019-03-30T10:57:03.000Z</time>
      </trkpt>
      <trkpt lat="43.98162" lon="7.29411">
        <ele>706.59997558594</ele>
        <time>2019-03-30T10:57:08.000Z</time>
      </trkpt>
      <trkpt lat="43.98157" lon="7.29409">
        <ele>707.20001220703</ele>
        <time>2019-03-30T10:57:10.000Z</time>
      </trkpt>
      <trkpt lat="43.98152" lon="7.29414">
        <ele>707.59997558594</ele>
        <time>2019-03-30T10:57:12.000Z</time>
      </trkpt>
      <trkpt lat="43.98147" lon="7.29418">
        <ele>707.40002441406</ele>
        <time>2019-03-30T10:57:13.000Z</time>
      </trkpt>
      <trkpt lat="43.98134" lon="7.29428">
        <ele>706.79998779297</ele>
        <time>2019-03-30T10:57:16.000Z</time>
      </trkpt>
      <trkpt lat="43.98127" lon="7.29437">
        <ele>705.40002441406</ele>
        <time>2019-03-30T10:57:18.000Z</time>
      </trkpt>
      <trkpt lat="43.98119" lon="7.29442">
        <ele>704.59997558594</ele>
        <time>2019-03-30T10:57:21.000Z</time>
      </trkpt>
      <trkpt lat="43.98118" lon="7.29443">
        <ele>704.59997558594</ele>
        <time>2019-03-30T10:57:22.000Z</time>
      </trkpt>
      <trkpt lat="43.98118" lon="7.29445">
        <ele>704.79998779297</ele>
        <time>2019-03-30T10:57:23.000Z</time>
      </trkpt>
      <trkpt lat="43.98116" lon="7.29446">
        <ele>704.40002441406</ele>
        <time>2019-03-30T10:57:25.000Z</time>
      </trkpt>
      <trkpt lat="43.98115" lon="7.29447">
        <ele>704</ele>
        <time>2019-03-30T10:57:27.000Z</time>
      </trkpt>
      <trkpt lat="43.98114" lon="7.29448">
        <ele>703.40002441406</ele>
        <time>2019-03-30T10:57:28.000Z</time>
      </trkpt>
      <trkpt lat="43.98113" lon="7.29448">
        <ele>703</ele>
        <time>2019-03-30T10:57:29.000Z</time>
      </trkpt>
      <trkpt lat="43.98107" lon="7.29448">
        <ele>702.40002441406</ele>
        <time>2019-03-30T10:57:31.000Z</time>
      </trkpt>
      <trkpt lat="43.98102" lon="7.29448">
        <ele>701.59997558594</ele>
        <time>2019-03-30T10:57:33.000Z</time>
      </trkpt>
      <trkpt lat="43.98098" lon="7.29445">
        <ele>700</ele>
        <time>2019-03-30T10:57:35.000Z</time>
      </trkpt>
      <trkpt lat="43.98096" lon="7.29445">
        <ele>699.20001220703</ele>
        <time>2019-03-30T10:57:36.000Z</time>
      </trkpt>
      <trkpt lat="43.98095" lon="7.29445">
        <ele>698.79998779297</ele>
        <time>2019-03-30T10:57:37.000Z</time>
      </trkpt>
      <trkpt lat="43.98093" lon="7.29446">
        <ele>697.79998779297</ele>
        <time>2019-03-30T10:57:42.000Z</time>
      </trkpt>
      <trkpt lat="43.98089" lon="7.29454">
        <ele>697.79998779297</ele>
        <time>2019-03-30T10:57:47.000Z</time>
      </trkpt>
      <trkpt lat="43.98087" lon="7.29458">
        <ele>697.59997558594</ele>
        <time>2019-03-30T10:57:49.000Z</time>
      </trkpt>
      <trkpt lat="43.98083" lon="7.29463">
        <ele>697.59997558594</ele>
        <time>2019-03-30T10:57:52.000Z</time>
      </trkpt>
      <trkpt lat="43.98069" lon="7.29472">
        <ele>698.20001220703</ele>
        <time>2019-03-30T10:57:58.000Z</time>
      </trkpt>
      <trkpt lat="43.98062" lon="7.29474">
        <ele>697.79998779297</ele>
        <time>2019-03-30T10:58:01.000Z</time>
      </trkpt>
      <trkpt lat="43.98059" lon="7.29478">
        <ele>697.79998779297</ele>
        <time>2019-03-30T10:58:03.000Z</time>
      </trkpt>
      <trkpt lat="43.98048" lon="7.29486">
        <ele>698</ele>
        <time>2019-03-30T10:58:08.000Z</time>
      </trkpt>
      <trkpt lat="43.98038" lon="7.29483">
        <ele>697.79998779297</ele>
        <time>2019-03-30T10:58:12.000Z</time>
      </trkpt>
      <trkpt lat="43.98035" lon="7.29482">
        <ele>697.59997558594</ele>
        <time>2019-03-30T10:58:13.000Z</time>
      </trkpt>
      <trkpt lat="43.98019" lon="7.29477">
        <ele>697.40002441406</ele>
        <time>2019-03-30T10:58:19.000Z</time>
      </trkpt>
      <trkpt lat="43.98006" lon="7.29472">
        <ele>697.79998779297</ele>
        <time>2019-03-30T10:58:24.000Z</time>
      </trkpt>
      <trkpt lat="43.97996" lon="7.29473">
        <ele>698.20001220703</ele>
        <time>2019-03-30T10:58:28.000Z</time>
      </trkpt>
      <trkpt lat="43.97983" lon="7.29473">
        <ele>698</ele>
        <time>2019-03-30T10:58:33.000Z</time>
      </trkpt>
      <trkpt lat="43.97975" lon="7.29485">
        <ele>698</ele>
        <time>2019-03-30T10:58:38.000Z</time>
      </trkpt>
      <trkpt lat="43.97963" lon="7.29486">
        <ele>698.20001220703</ele>
        <time>2019-03-30T10:58:42.000Z</time>
      </trkpt>
      <trkpt lat="43.97953" lon="7.29484">
        <ele>697.79998779297</ele>
        <time>2019-03-30T10:58:46.000Z</time>
      </trkpt>
      <trkpt lat="43.9794" lon="7.29475">
        <ele>698.20001220703</ele>
        <time>2019-03-30T10:58:52.000Z</time>
      </trkpt>
      <trkpt lat="43.97932" lon="7.29469">
        <ele>698.20001220703</ele>
        <time>2019-03-30T10:58:56.000Z</time>
      </trkpt>
      <trkpt lat="43.97931" lon="7.29469">
        <ele>698.20001220703</ele>
        <time>2019-03-30T10:58:57.000Z</time>
      </trkpt>
      <trkpt lat="43.97929" lon="7.29472">
        <ele>698</ele>
        <time>2019-03-30T10:58:58.000Z</time>
      </trkpt>
      <trkpt lat="43.97927" lon="7.29479">
        <ele>697.79998779297</ele>
        <time>2019-03-30T10:59:00.000Z</time>
      </trkpt>
      <trkpt lat="43.97926" lon="7.29487">
        <ele>697.59997558594</ele>
        <time>2019-03-30T10:59:02.000Z</time>
      </trkpt>
      <trkpt lat="43.97921" lon="7.295">
        <ele>697.59997558594</ele>
        <time>2019-03-30T10:59:05.000Z</time>
      </trkpt>
      <trkpt lat="43.97919" lon="7.29505">
        <ele>697.59997558594</ele>
        <time>2019-03-30T10:59:06.000Z</time>
      </trkpt>
      <trkpt lat="43.9791" lon="7.29531">
        <ele>697.20001220703</ele>
        <time>2019-03-30T10:59:11.000Z</time>
      </trkpt>
      <trkpt lat="43.97898" lon="7.29555">
        <ele>696.79998779297</ele>
        <time>2019-03-30T10:59:17.000Z</time>
      </trkpt>
      <trkpt lat="43.97895" lon="7.29556">
        <ele>696.79998779297</ele>
        <time>2019-03-30T10:59:18.000Z</time>
      </trkpt>
      <trkpt lat="43.97887" lon="7.29557">
        <ele>697</ele>
        <time>2019-03-30T10:59:20.000Z</time>
      </trkpt>
      <trkpt lat="43.97873" lon="7.29559">
        <ele>696.59997558594</ele>
        <time>2019-03-30T10:59:23.000Z</time>
      </trkpt>
      <trkpt lat="43.97864" lon="7.29561">
        <ele>696</ele>
        <time>2019-03-30T10:59:25.000Z</time>
      </trkpt>
      <trkpt lat="43.97861" lon="7.29561">
        <ele>695.59997558594</ele>
        <time>2019-03-30T10:59:26.000Z</time>
      </trkpt>
      <trkpt lat="43.97858" lon="7.29558">
        <ele>694.79998779297</ele>
        <time>2019-03-30T10:59:28.000Z</time>
      </trkpt>
      <trkpt lat="43.97853" lon="7.29552">
        <ele>694.40002441406</ele>
        <time>2019-03-30T10:59:30.000Z</time>
      </trkpt>
      <trkpt lat="43.97842" lon="7.29542">
        <ele>694.40002441406</ele>
        <time>2019-03-30T10:59:34.000Z</time>
      </trkpt>
      <trkpt lat="43.9784" lon="7.29539">
        <ele>694.40002441406</ele>
        <time>2019-03-30T10:59:35.000Z</time>
      </trkpt>
      <trkpt lat="43.97838" lon="7.2953">
        <ele>694.40002441406</ele>
        <time>2019-03-30T10:59:37.000Z</time>
      </trkpt>
      <trkpt lat="43.97833" lon="7.29515">
        <ele>694.20001220703</ele>
        <time>2019-03-30T10:59:41.000Z</time>
      </trkpt>
      <trkpt lat="43.97829" lon="7.29513">
        <ele>694</ele>
        <time>2019-03-30T10:59:44.000Z</time>
      </trkpt>
      <trkpt lat="43.97828" lon="7.29515">
        <ele>694</ele>
        <time>2019-03-30T10:59:45.000Z</time>
      </trkpt>
      <trkpt lat="43.97828" lon="7.2953">
        <ele>694</ele>
        <time>2019-03-30T10:59:49.000Z</time>
      </trkpt>
      <trkpt lat="43.97827" lon="7.29541">
        <ele>693.79998779297</ele>
        <time>2019-03-30T10:59:51.000Z</time>
      </trkpt>
      <trkpt lat="43.97826" lon="7.29553">
        <ele>693.79998779297</ele>
        <time>2019-03-30T10:59:53.000Z</time>
      </trkpt>
      <trkpt lat="43.97826" lon="7.29559">
        <ele>693.59997558594</ele>
        <time>2019-03-30T10:59:54.000Z</time>
      </trkpt>
      <trkpt lat="43.97826" lon="7.29566">
        <ele>693.40002441406</ele>
        <time>2019-03-30T10:59:55.000Z</time>
      </trkpt>
      <trkpt lat="43.97826" lon="7.29572">
        <ele>693.20001220703</ele>
        <time>2019-03-30T10:59:56.000Z</time>
      </trkpt>
      <trkpt lat="43.97828" lon="7.29584">
        <ele>692.79998779297</ele>
        <time>2019-03-30T10:59:58.000Z</time>
      </trkpt>
      <trkpt lat="43.97829" lon="7.29596">
        <ele>692.79998779297</ele>
        <time>2019-03-30T11:00:00.000Z</time>
      </trkpt>
      <trkpt lat="43.9783" lon="7.29607">
        <ele>692.79998779297</ele>
        <time>2019-03-30T11:00:02.000Z</time>
      </trkpt>
      <trkpt lat="43.97832" lon="7.29612">
        <ele>692.79998779297</ele>
        <time>2019-03-30T11:00:03.000Z</time>
      </trkpt>
      <trkpt lat="43.97836" lon="7.29622">
        <ele>692.79998779297</ele>
        <time>2019-03-30T11:00:05.000Z</time>
      </trkpt>
      <trkpt lat="43.97837" lon="7.29638">
        <ele>692.79998779297</ele>
        <time>2019-03-30T11:00:08.000Z</time>
      </trkpt>
      <trkpt lat="43.97837" lon="7.29643">
        <ele>692.79998779297</ele>
        <time>2019-03-30T11:00:09.000Z</time>
      </trkpt>
      <trkpt lat="43.97834" lon="7.29654">
        <ele>693</ele>
        <time>2019-03-30T11:00:11.000Z</time>
      </trkpt>
      <trkpt lat="43.97828" lon="7.29657">
        <ele>693</ele>
        <time>2019-03-30T11:00:13.000Z</time>
      </trkpt>
      <trkpt lat="43.97812" lon="7.29648">
        <ele>692.59997558594</ele>
        <time>2019-03-30T11:00:17.000Z</time>
      </trkpt>
      <trkpt lat="43.97803" lon="7.2964">
        <ele>692.40002441406</ele>
        <time>2019-03-30T11:00:19.000Z</time>
      </trkpt>
      <trkpt lat="43.97792" lon="7.29633">
        <ele>691.79998779297</ele>
        <time>2019-03-30T11:00:21.000Z</time>
      </trkpt>
      <trkpt lat="43.97786" lon="7.2963">
        <ele>691.20001220703</ele>
        <time>2019-03-30T11:00:22.000Z</time>
      </trkpt>
      <trkpt lat="43.97777" lon="7.29628">
        <ele>690.40002441406</ele>
        <time>2019-03-30T11:00:24.000Z</time>
      </trkpt>
      <trkpt lat="43.97774" lon="7.29628">
        <ele>690</ele>
        <time>2019-03-30T11:00:25.000Z</time>
      </trkpt>
      <trkpt lat="43.9777" lon="7.29629">
        <ele>689.79998779297</ele>
        <time>2019-03-30T11:00:26.000Z</time>
      </trkpt>
      <trkpt lat="43.97768" lon="7.29632">
        <ele>689.59997558594</ele>
        <time>2019-03-30T11:00:27.000Z</time>
      </trkpt>
      <trkpt lat="43.97764" lon="7.29633">
        <ele>689</ele>
        <time>2019-03-30T11:00:28.000Z</time>
      </trkpt>
      <trkpt lat="43.97761" lon="7.29637">
        <ele>687.59997558594</ele>
        <time>2019-03-30T11:00:30.000Z</time>
      </trkpt>
      <trkpt lat="43.9776" lon="7.29639">
        <ele>687</ele>
        <time>2019-03-30T11:00:31.000Z</time>
      </trkpt>
      <trkpt lat="43.9776" lon="7.29642">
        <ele>686.20001220703</ele>
        <time>2019-03-30T11:00:32.000Z</time>
      </trkpt>
      <trkpt lat="43.97762" lon="7.29644">
        <ele>685.40002441406</ele>
        <time>2019-03-30T11:00:33.000Z</time>
      </trkpt>
      <trkpt lat="43.97765" lon="7.29647">
        <ele>685</ele>
        <time>2019-03-30T11:00:34.000Z</time>
      </trkpt>
      <trkpt lat="43.97769" lon="7.29649">
        <ele>684.59997558594</ele>
        <time>2019-03-30T11:00:35.000Z</time>
      </trkpt>
      <trkpt lat="43.97775" lon="7.29657">
        <ele>684</ele>
        <time>2019-03-30T11:00:37.000Z</time>
      </trkpt>
      <trkpt lat="43.97776" lon="7.29663">
        <ele>683.59997558594</ele>
        <time>2019-03-30T11:00:38.000Z</time>
      </trkpt>
      <trkpt lat="43.97773" lon="7.29688">
        <ele>682.79998779297</ele>
        <time>2019-03-30T11:00:42.000Z</time>
      </trkpt>
      <trkpt lat="43.97771" lon="7.29693">
        <ele>682.59997558594</ele>
        <time>2019-03-30T11:00:43.000Z</time>
      </trkpt>
      <trkpt lat="43.97769" lon="7.29712">
        <ele>682.20001220703</ele>
        <time>2019-03-30T11:00:46.000Z</time>
      </trkpt>
      <trkpt lat="43.97769" lon="7.29724">
        <ele>682.20001220703</ele>
        <time>2019-03-30T11:00:48.000Z</time>
      </trkpt>
      <trkpt lat="43.97771" lon="7.29729">
        <ele>682.20001220703</ele>
        <time>2019-03-30T11:00:49.000Z</time>
      </trkpt>
      <trkpt lat="43.97769" lon="7.29736">
        <ele>682</ele>
        <time>2019-03-30T11:00:50.000Z</time>
      </trkpt>
      <trkpt lat="43.97767" lon="7.29748">
        <ele>681.79998779297</ele>
        <time>2019-03-30T11:00:52.000Z</time>
      </trkpt>
      <trkpt lat="43.97764" lon="7.29755">
        <ele>681.40002441406</ele>
        <time>2019-03-30T11:00:53.000Z</time>
      </trkpt>
      <trkpt lat="43.97761" lon="7.29767">
        <ele>681.40002441406</ele>
        <time>2019-03-30T11:00:55.000Z</time>
      </trkpt>
      <trkpt lat="43.9776" lon="7.29773">
        <ele>681.40002441406</ele>
        <time>2019-03-30T11:00:56.000Z</time>
      </trkpt>
      <trkpt lat="43.9776" lon="7.2978">
        <ele>681.20001220703</ele>
        <time>2019-03-30T11:00:57.000Z</time>
      </trkpt>
      <trkpt lat="43.97754" lon="7.29787">
        <ele>681.40002441406</ele>
        <time>2019-03-30T11:00:59.000Z</time>
      </trkpt>
      <trkpt lat="43.97742" lon="7.298">
        <ele>681.20001220703</ele>
        <time>2019-03-30T11:01:03.000Z</time>
      </trkpt>
      <trkpt lat="43.9774" lon="7.29812">
        <ele>681</ele>
        <time>2019-03-30T11:01:05.000Z</time>
      </trkpt>
      <trkpt lat="43.97736" lon="7.29823">
        <ele>680.79998779297</ele>
        <time>2019-03-30T11:01:07.000Z</time>
      </trkpt>
      <trkpt lat="43.97732" lon="7.29825">
        <ele>680.79998779297</ele>
        <time>2019-03-30T11:01:08.000Z</time>
      </trkpt>
      <trkpt lat="43.97728" lon="7.29826">
        <ele>680.79998779297</ele>
        <time>2019-03-30T11:01:09.000Z</time>
      </trkpt>
      <trkpt lat="43.97708" lon="7.29836">
        <ele>680.59997558594</ele>
        <time>2019-03-30T11:01:14.000Z</time>
      </trkpt>
      <trkpt lat="43.97704" lon="7.29837">
        <ele>680.40002441406</ele>
        <time>2019-03-30T11:01:15.000Z</time>
      </trkpt>
      <trkpt lat="43.97696" lon="7.29842">
        <ele>680.40002441406</ele>
        <time>2019-03-30T11:01:18.000Z</time>
      </trkpt>
      <trkpt lat="43.97696" lon="7.29846">
        <ele>680.40002441406</ele>
        <time>2019-03-30T11:01:19.000Z</time>
      </trkpt>
      <trkpt lat="43.97693" lon="7.29857">
        <ele>680.59997558594</ele>
        <time>2019-03-30T11:01:21.000Z</time>
      </trkpt>
      <trkpt lat="43.9769" lon="7.29867">
        <ele>680.40002441406</ele>
        <time>2019-03-30T11:01:23.000Z</time>
      </trkpt>
      <trkpt lat="43.97683" lon="7.29891">
        <ele>680</ele>
        <time>2019-03-30T11:01:27.000Z</time>
      </trkpt>
      <trkpt lat="43.9768" lon="7.29903">
        <ele>680</ele>
        <time>2019-03-30T11:01:29.000Z</time>
      </trkpt>
      <trkpt lat="43.97677" lon="7.29915">
        <ele>679.79998779297</ele>
        <time>2019-03-30T11:01:31.000Z</time>
      </trkpt>
      <trkpt lat="43.97675" lon="7.29921">
        <ele>680</ele>
        <time>2019-03-30T11:01:32.000Z</time>
      </trkpt>
      <trkpt lat="43.97671" lon="7.29924">
        <ele>680</ele>
        <time>2019-03-30T11:01:33.000Z</time>
      </trkpt>
      <trkpt lat="43.97666" lon="7.29932">
        <ele>680</ele>
        <time>2019-03-30T11:01:35.000Z</time>
      </trkpt>
      <trkpt lat="43.97666" lon="7.29943">
        <ele>680</ele>
        <time>2019-03-30T11:01:37.000Z</time>
      </trkpt>
      <trkpt lat="43.97663" lon="7.29947">
        <ele>680.20001220703</ele>
        <time>2019-03-30T11:01:38.000Z</time>
      </trkpt>
      <trkpt lat="43.9765" lon="7.29976">
        <ele>679.59997558594</ele>
        <time>2019-03-30T11:01:44.000Z</time>
      </trkpt>
      <trkpt lat="43.97643" lon="7.2999">
        <ele>679.59997558594</ele>
        <time>2019-03-30T11:01:47.000Z</time>
      </trkpt>
      <trkpt lat="43.97641" lon="7.29997">
        <ele>679.20001220703</ele>
        <time>2019-03-30T11:01:48.000Z</time>
      </trkpt>
      <trkpt lat="43.9764" lon="7.30004">
        <ele>679</ele>
        <time>2019-03-30T11:01:49.000Z</time>
      </trkpt>
      <trkpt lat="43.97637" lon="7.30021">
        <ele>678</ele>
        <time>2019-03-30T11:01:52.000Z</time>
      </trkpt>
      <trkpt lat="43.97629" lon="7.30036">
        <ele>678.20001220703</ele>
        <time>2019-03-30T11:01:55.000Z</time>
      </trkpt>
      <trkpt lat="43.97618" lon="7.30048">
        <ele>678</ele>
        <time>2019-03-30T11:01:58.000Z</time>
      </trkpt>
      <trkpt lat="43.97609" lon="7.30051">
        <ele>677.79998779297</ele>
        <time>2019-03-30T11:02:00.000Z</time>
      </trkpt>
      <trkpt lat="43.97601" lon="7.30056">
        <ele>677.59997558594</ele>
        <time>2019-03-30T11:02:02.000Z</time>
      </trkpt>
      <trkpt lat="43.976" lon="7.30061">
        <ele>677.59997558594</ele>
        <time>2019-03-30T11:02:03.000Z</time>
      </trkpt>
      <trkpt lat="43.97599" lon="7.30066">
        <ele>677.59997558594</ele>
        <time>2019-03-30T11:02:04.000Z</time>
      </trkpt>
      <trkpt lat="43.97599" lon="7.30081">
        <ele>677.20001220703</ele>
        <time>2019-03-30T11:02:07.000Z</time>
      </trkpt>
      <trkpt lat="43.97603" lon="7.30085">
        <ele>676.79998779297</ele>
        <time>2019-03-30T11:02:08.000Z</time>
      </trkpt>
      <trkpt lat="43.97607" lon="7.30096">
        <ele>676</ele>
        <time>2019-03-30T11:02:10.000Z</time>
      </trkpt>
      <trkpt lat="43.97606" lon="7.30103">
        <ele>675.79998779297</ele>
        <time>2019-03-30T11:02:11.000Z</time>
      </trkpt>
      <trkpt lat="43.97603" lon="7.30117">
        <ele>675.20001220703</ele>
        <time>2019-03-30T11:02:13.000Z</time>
      </trkpt>
      <trkpt lat="43.97599" lon="7.3013">
        <ele>674.79998779297</ele>
        <time>2019-03-30T11:02:15.000Z</time>
      </trkpt>
      <trkpt lat="43.97595" lon="7.30142">
        <ele>674</ele>
        <time>2019-03-30T11:02:17.000Z</time>
      </trkpt>
      <trkpt lat="43.97592" lon="7.30148">
        <ele>673.79998779297</ele>
        <time>2019-03-30T11:02:18.000Z</time>
      </trkpt>
      <trkpt lat="43.97582" lon="7.30161">
        <ele>673.20001220703</ele>
        <time>2019-03-30T11:02:21.000Z</time>
      </trkpt>
      <trkpt lat="43.97573" lon="7.30165">
        <ele>673</ele>
        <time>2019-03-30T11:02:23.000Z</time>
      </trkpt>
      <trkpt lat="43.97564" lon="7.30163">
        <ele>673.20001220703</ele>
        <time>2019-03-30T11:02:25.000Z</time>
      </trkpt>
      <trkpt lat="43.9755" lon="7.30157">
        <ele>673.20001220703</ele>
        <time>2019-03-30T11:02:28.000Z</time>
      </trkpt>
      <trkpt lat="43.97533" lon="7.30149">
        <ele>672.59997558594</ele>
        <time>2019-03-30T11:02:32.000Z</time>
      </trkpt>
      <trkpt lat="43.97525" lon="7.30144">
        <ele>672.59997558594</ele>
        <time>2019-03-30T11:02:34.000Z</time>
      </trkpt>
      <trkpt lat="43.97513" lon="7.30138">
        <ele>672.79998779297</ele>
        <time>2019-03-30T11:02:37.000Z</time>
      </trkpt>
      <trkpt lat="43.97507" lon="7.30137">
        <ele>673</ele>
        <time>2019-03-30T11:02:40.000Z</time>
      </trkpt>
      <trkpt lat="43.97504" lon="7.30142">
        <ele>673.20001220703</ele>
        <time>2019-03-30T11:02:43.000Z</time>
      </trkpt>
      <trkpt lat="43.97503" lon="7.30146">
        <ele>673</ele>
        <time>2019-03-30T11:02:45.000Z</time>
      </trkpt>
      <trkpt lat="43.97497" lon="7.30167">
        <ele>672.59997558594</ele>
        <time>2019-03-30T11:02:50.000Z</time>
      </trkpt>
      <trkpt lat="43.97494" lon="7.30186">
        <ele>671.40002441406</ele>
        <time>2019-03-30T11:02:53.000Z</time>
      </trkpt>
      <trkpt lat="43.97493" lon="7.30207">
        <ele>670.20001220703</ele>
        <time>2019-03-30T11:02:56.000Z</time>
      </trkpt>
      <trkpt lat="43.97493" lon="7.30221">
        <ele>669.59997558594</ele>
        <time>2019-03-30T11:02:58.000Z</time>
      </trkpt>
      <trkpt lat="43.97488" lon="7.30231">
        <ele>669</ele>
        <time>2019-03-30T11:03:00.000Z</time>
      </trkpt>
      <trkpt lat="43.9748" lon="7.30238">
        <ele>668.40002441406</ele>
        <time>2019-03-30T11:03:02.000Z</time>
      </trkpt>
      <trkpt lat="43.97475" lon="7.30246">
        <ele>668</ele>
        <time>2019-03-30T11:03:04.000Z</time>
      </trkpt>
      <trkpt lat="43.97474" lon="7.30253">
        <ele>667.79998779297</ele>
        <time>2019-03-30T11:03:05.000Z</time>
      </trkpt>
      <trkpt lat="43.97471" lon="7.30266">
        <ele>667.20001220703</ele>
        <time>2019-03-30T11:03:07.000Z</time>
      </trkpt>
      <trkpt lat="43.97472" lon="7.30284">
        <ele>666.79998779297</ele>
        <time>2019-03-30T11:03:09.000Z</time>
      </trkpt>
      <trkpt lat="43.97472" lon="7.30293">
        <ele>666</ele>
        <time>2019-03-30T11:03:10.000Z</time>
      </trkpt>
      <trkpt lat="43.97471" lon="7.303">
        <ele>665.20001220703</ele>
        <time>2019-03-30T11:03:11.000Z</time>
      </trkpt>
      <trkpt lat="43.97465" lon="7.3031">
        <ele>663.40002441406</ele>
        <time>2019-03-30T11:03:13.000Z</time>
      </trkpt>
      <trkpt lat="43.97456" lon="7.30316">
        <ele>662.40002441406</ele>
        <time>2019-03-30T11:03:15.000Z</time>
      </trkpt>
      <trkpt lat="43.97453" lon="7.3032">
        <ele>662.20001220703</ele>
        <time>2019-03-30T11:03:16.000Z</time>
      </trkpt>
      <trkpt lat="43.97452" lon="7.30324">
        <ele>662.20001220703</ele>
        <time>2019-03-30T11:03:17.000Z</time>
      </trkpt>
      <trkpt lat="43.97446" lon="7.30338">
        <ele>662.20001220703</ele>
        <time>2019-03-30T11:03:20.000Z</time>
      </trkpt>
      <trkpt lat="43.97442" lon="7.30341">
        <ele>662.20001220703</ele>
        <time>2019-03-30T11:03:21.000Z</time>
      </trkpt>
      <trkpt lat="43.97427" lon="7.30355">
        <ele>661.79998779297</ele>
        <time>2019-03-30T11:03:25.000Z</time>
      </trkpt>
      <trkpt lat="43.97422" lon="7.30363">
        <ele>661.59997558594</ele>
        <time>2019-03-30T11:03:27.000Z</time>
      </trkpt>
      <trkpt lat="43.97415" lon="7.30372">
        <ele>661.40002441406</ele>
        <time>2019-03-30T11:03:29.000Z</time>
      </trkpt>
      <trkpt lat="43.9741" lon="7.30374">
        <ele>661.20001220703</ele>
        <time>2019-03-30T11:03:30.000Z</time>
      </trkpt>
      <trkpt lat="43.97406" lon="7.30376">
        <ele>661</ele>
        <time>2019-03-30T11:03:31.000Z</time>
      </trkpt>
      <trkpt lat="43.97399" lon="7.30382">
        <ele>661</ele>
        <time>2019-03-30T11:03:33.000Z</time>
      </trkpt>
      <trkpt lat="43.97384" lon="7.30396">
        <ele>661</ele>
        <time>2019-03-30T11:03:37.000Z</time>
      </trkpt>
      <trkpt lat="43.97379" lon="7.3041">
        <ele>661.20001220703</ele>
        <time>2019-03-30T11:03:40.000Z</time>
      </trkpt>
      <trkpt lat="43.97368" lon="7.3043">
        <ele>661.40002441406</ele>
        <time>2019-03-30T11:03:45.000Z</time>
      </trkpt>
      <trkpt lat="43.97362" lon="7.3043">
        <ele>662.40002441406</ele>
        <time>2019-03-30T11:03:49.000Z</time>
      </trkpt>
      <trkpt lat="43.97357" lon="7.30429">
        <ele>663.59997558594</ele>
        <time>2019-03-30T11:03:53.000Z</time>
      </trkpt>
      <trkpt lat="43.97355" lon="7.3043">
        <ele>663.79998779297</ele>
        <time>2019-03-30T11:03:54.000Z</time>
      </trkpt>
      <trkpt lat="43.97354" lon="7.30432">
        <ele>663.79998779297</ele>
        <time>2019-03-30T11:03:55.000Z</time>
      </trkpt>
      <trkpt lat="43.97345" lon="7.30442">
        <ele>662.59997558594</ele>
        <time>2019-03-30T11:04:00.000Z</time>
      </trkpt>
      <trkpt lat="43.97343" lon="7.30445">
        <ele>661.59997558594</ele>
        <time>2019-03-30T11:04:02.000Z</time>
      </trkpt>
      <trkpt lat="43.97342" lon="7.30446">
        <ele>660.79998779297</ele>
        <time>2019-03-30T11:04:03.000Z</time>
      </trkpt>
      <trkpt lat="43.97342" lon="7.3045">
        <ele>660.40002441406</ele>
        <time>2019-03-30T11:04:04.000Z</time>
      </trkpt>
      <trkpt lat="43.9734" lon="7.30461">
        <ele>659.59997558594</ele>
        <time>2019-03-30T11:04:06.000Z</time>
      </trkpt>
      <trkpt lat="43.97339" lon="7.3047">
        <ele>658.40002441406</ele>
        <time>2019-03-30T11:04:08.000Z</time>
      </trkpt>
      <trkpt lat="43.97337" lon="7.30477">
        <ele>656.79998779297</ele>
        <time>2019-03-30T11:04:10.000Z</time>
      </trkpt>
      <trkpt lat="43.97337" lon="7.3048">
        <ele>656</ele>
        <time>2019-03-30T11:04:11.000Z</time>
      </trkpt>
      <trkpt lat="43.97336" lon="7.30482">
        <ele>655.79998779297</ele>
        <time>2019-03-30T11:04:12.000Z</time>
      </trkpt>
      <trkpt lat="43.97336" lon="7.30487">
        <ele>654.79998779297</ele>
        <time>2019-03-30T11:04:15.000Z</time>
      </trkpt>
      <trkpt lat="43.97337" lon="7.30494">
        <ele>654.20001220703</ele>
        <time>2019-03-30T11:04:17.000Z</time>
      </trkpt>
      <trkpt lat="43.97339" lon="7.30497">
        <ele>653.79998779297</ele>
        <time>2019-03-30T11:04:18.000Z</time>
      </trkpt>
      <trkpt lat="43.97342" lon="7.30496">
        <ele>653.20001220703</ele>
        <time>2019-03-30T11:04:19.000Z</time>
      </trkpt>
      <trkpt lat="43.97347" lon="7.30491">
        <ele>651.79998779297</ele>
        <time>2019-03-30T11:04:21.000Z</time>
      </trkpt>
      <trkpt lat="43.97355" lon="7.30488">
        <ele>650.40002441406</ele>
        <time>2019-03-30T11:04:23.000Z</time>
      </trkpt>
      <trkpt lat="43.97366" lon="7.30487">
        <ele>649.40002441406</ele>
        <time>2019-03-30T11:04:26.000Z</time>
      </trkpt>
      <trkpt lat="43.97369" lon="7.30489">
        <ele>649.20001220703</ele>
        <time>2019-03-30T11:04:27.000Z</time>
      </trkpt>
      <trkpt lat="43.9737" lon="7.30493">
        <ele>648.79998779297</ele>
        <time>2019-03-30T11:04:28.000Z</time>
      </trkpt>
      <trkpt lat="43.97365" lon="7.30503">
        <ele>648</ele>
        <time>2019-03-30T11:04:30.000Z</time>
      </trkpt>
      <trkpt lat="43.97359" lon="7.3051">
        <ele>646.79998779297</ele>
        <time>2019-03-30T11:04:32.000Z</time>
      </trkpt>
      <trkpt lat="43.97355" lon="7.30518">
        <ele>645.40002441406</ele>
        <time>2019-03-30T11:04:34.000Z</time>
      </trkpt>
      <trkpt lat="43.97353" lon="7.30523">
        <ele>644.40002441406</ele>
        <time>2019-03-30T11:04:35.000Z</time>
      </trkpt>
      <trkpt lat="43.97351" lon="7.30529">
        <ele>643.79998779297</ele>
        <time>2019-03-30T11:04:36.000Z</time>
      </trkpt>
      <trkpt lat="43.97347" lon="7.30544">
        <ele>642.20001220703</ele>
        <time>2019-03-30T11:04:39.000Z</time>
      </trkpt>
      <trkpt lat="43.97347" lon="7.30546">
        <ele>641.79998779297</ele>
        <time>2019-03-30T11:04:40.000Z</time>
      </trkpt>
      <trkpt lat="43.97347" lon="7.30546">
        <ele>641.20001220703</ele>
        <time>2019-03-30T11:04:42.000Z</time>
      </trkpt>
      <trkpt lat="43.97348" lon="7.30547">
        <ele>641</ele>
        <time>2019-03-30T11:04:43.000Z</time>
      </trkpt>
      <trkpt lat="43.97348" lon="7.30555">
        <ele>640.59997558594</ele>
        <time>2019-03-30T11:04:48.000Z</time>
      </trkpt>
      <trkpt lat="43.97348" lon="7.30559">
        <ele>640</ele>
        <time>2019-03-30T11:04:50.000Z</time>
      </trkpt>
      <trkpt lat="43.97348" lon="7.30563">
        <ele>638.40002441406</ele>
        <time>2019-03-30T11:04:53.000Z</time>
      </trkpt>
      <trkpt lat="43.9735" lon="7.30564">
        <ele>637.20001220703</ele>
        <time>2019-03-30T11:04:55.000Z</time>
      </trkpt>
      <trkpt lat="43.9735" lon="7.30565">
        <ele>635.79998779297</ele>
        <time>2019-03-30T11:04:57.000Z</time>
      </trkpt>
      <trkpt lat="43.97351" lon="7.30565">
        <ele>635.20001220703</ele>
        <time>2019-03-30T11:05:01.000Z</time>
      </trkpt>
      <trkpt lat="43.97351" lon="7.30565">
        <ele>634.79998779297</ele>
        <time>2019-03-30T11:05:04.000Z</time>
      </trkpt>
      <trkpt lat="43.97353" lon="7.30565">
        <ele>634.59997558594</ele>
        <time>2019-03-30T11:05:21.000Z</time>
      </trkpt>
      <trkpt lat="43.97358" lon="7.30564">
        <ele>634.20001220703</ele>
        <time>2019-03-30T11:05:25.000Z</time>
      </trkpt>
      <trkpt lat="43.97359" lon="7.30564">
        <ele>634</ele>
        <time>2019-03-30T11:05:26.000Z</time>
      </trkpt>
      <trkpt lat="43.97361" lon="7.30565">
        <ele>633.59997558594</ele>
        <time>2019-03-30T11:05:27.000Z</time>
      </trkpt>
      <trkpt lat="43.97366" lon="7.30567">
        <ele>632</ele>
        <time>2019-03-30T11:05:30.000Z</time>
      </trkpt>
      <trkpt lat="43.97368" lon="7.30569">
        <ele>631.20001220703</ele>
        <time>2019-03-30T11:05:31.000Z</time>
      </trkpt>
      <trkpt lat="43.97368" lon="7.3057">
        <ele>630.79998779297</ele>
        <time>2019-03-30T11:05:32.000Z</time>
      </trkpt>
      <trkpt lat="43.97369" lon="7.30572">
        <ele>629.79998779297</ele>
        <time>2019-03-30T11:05:33.000Z</time>
      </trkpt>
      <trkpt lat="43.97368" lon="7.30575">
        <ele>629.20001220703</ele>
        <time>2019-03-30T11:05:34.000Z</time>
      </trkpt>
      <trkpt lat="43.97367" lon="7.30578">
        <ele>628.59997558594</ele>
        <time>2019-03-30T11:05:35.000Z</time>
      </trkpt>
      <trkpt lat="43.97366" lon="7.30582">
        <ele>627.59997558594</ele>
        <time>2019-03-30T11:05:36.000Z</time>
      </trkpt>
      <trkpt lat="43.97365" lon="7.30585">
        <ele>627</ele>
        <time>2019-03-30T11:05:37.000Z</time>
      </trkpt>
      <trkpt lat="43.97363" lon="7.30595">
        <ele>625.79998779297</ele>
        <time>2019-03-30T11:05:39.000Z</time>
      </trkpt>
      <trkpt lat="43.97361" lon="7.30604">
        <ele>625</ele>
        <time>2019-03-30T11:05:41.000Z</time>
      </trkpt>
      <trkpt lat="43.97361" lon="7.30608">
        <ele>624.79998779297</ele>
        <time>2019-03-30T11:05:42.000Z</time>
      </trkpt>
      <trkpt lat="43.97362" lon="7.30613">
        <ele>624.59997558594</ele>
        <time>2019-03-30T11:05:43.000Z</time>
      </trkpt>
      <trkpt lat="43.97362" lon="7.30626">
        <ele>623.40002441406</ele>
        <time>2019-03-30T11:05:45.000Z</time>
      </trkpt>
      <trkpt lat="43.97361" lon="7.30631">
        <ele>622.40002441406</ele>
        <time>2019-03-30T11:05:46.000Z</time>
      </trkpt>
      <trkpt lat="43.97361" lon="7.30637">
        <ele>621.40002441406</ele>
        <time>2019-03-30T11:05:47.000Z</time>
      </trkpt>
      <trkpt lat="43.97361" lon="7.30645">
        <ele>620</ele>
        <time>2019-03-30T11:05:48.000Z</time>
      </trkpt>
      <trkpt lat="43.97362" lon="7.30651">
        <ele>619.59997558594</ele>
        <time>2019-03-30T11:05:49.000Z</time>
      </trkpt>
      <trkpt lat="43.97362" lon="7.30656">
        <ele>619.40002441406</ele>
        <time>2019-03-30T11:05:50.000Z</time>
      </trkpt>
      <trkpt lat="43.97361" lon="7.30664">
        <ele>619.20001220703</ele>
        <time>2019-03-30T11:05:52.000Z</time>
      </trkpt>
      <trkpt lat="43.97361" lon="7.30666">
        <ele>618.59997558594</ele>
        <time>2019-03-30T11:05:53.000Z</time>
      </trkpt>
      <trkpt lat="43.97362" lon="7.3067">
        <ele>618</ele>
        <time>2019-03-30T11:05:54.000Z</time>
      </trkpt>
      <trkpt lat="43.97362" lon="7.30673">
        <ele>617.40002441406</ele>
        <time>2019-03-30T11:05:55.000Z</time>
      </trkpt>
      <trkpt lat="43.97364" lon="7.30675">
        <ele>616</ele>
        <time>2019-03-30T11:05:57.000Z</time>
      </trkpt>
      <trkpt lat="43.97364" lon="7.30677">
        <ele>615.20001220703</ele>
        <time>2019-03-30T11:05:58.000Z</time>
      </trkpt>
      <trkpt lat="43.97365" lon="7.30679">
        <ele>614.59997558594</ele>
        <time>2019-03-30T11:05:59.000Z</time>
      </trkpt>
      <trkpt lat="43.97366" lon="7.30683">
        <ele>612.40002441406</ele>
        <time>2019-03-30T11:06:01.000Z</time>
      </trkpt>
      <trkpt lat="43.97369" lon="7.30689">
        <ele>610.79998779297</ele>
        <time>2019-03-30T11:06:04.000Z</time>
      </trkpt>
      <trkpt lat="43.97373" lon="7.30694">
        <ele>609.20001220703</ele>
        <time>2019-03-30T11:06:06.000Z</time>
      </trkpt>
      <trkpt lat="43.97378" lon="7.30701">
        <ele>607.40002441406</ele>
        <time>2019-03-30T11:06:08.000Z</time>
      </trkpt>
      <trkpt lat="43.9738" lon="7.30703">
        <ele>605.59997558594</ele>
        <time>2019-03-30T11:06:09.000Z</time>
      </trkpt>
      <trkpt lat="43.97381" lon="7.30707">
        <ele>604.59997558594</ele>
        <time>2019-03-30T11:06:10.000Z</time>
      </trkpt>
      <trkpt lat="43.97383" lon="7.30712">
        <ele>603.40002441406</ele>
        <time>2019-03-30T11:06:12.000Z</time>
      </trkpt>
      <trkpt lat="43.97384" lon="7.30714">
        <ele>602.40002441406</ele>
        <time>2019-03-30T11:06:13.000Z</time>
      </trkpt>
      <trkpt lat="43.97386" lon="7.30716">
        <ele>601.79998779297</ele>
        <time>2019-03-30T11:06:15.000Z</time>
      </trkpt>
      <trkpt lat="43.97387" lon="7.30716">
        <ele>601</ele>
        <time>2019-03-30T11:06:16.000Z</time>
      </trkpt>
      <trkpt lat="43.97388" lon="7.30716">
        <ele>600.40002441406</ele>
        <time>2019-03-30T11:06:17.000Z</time>
      </trkpt>
      <trkpt lat="43.9739" lon="7.30716">
        <ele>600</ele>
        <time>2019-03-30T11:06:18.000Z</time>
      </trkpt>
      <trkpt lat="43.97391" lon="7.30718">
        <ele>599</ele>
        <time>2019-03-30T11:06:19.000Z</time>
      </trkpt>
      <trkpt lat="43.97391" lon="7.30721">
        <ele>597.79998779297</ele>
        <time>2019-03-30T11:06:21.000Z</time>
      </trkpt>
      <trkpt lat="43.97392" lon="7.30725">
        <ele>596.59997558594</ele>
        <time>2019-03-30T11:06:23.000Z</time>
      </trkpt>
      <trkpt lat="43.97394" lon="7.30729">
        <ele>595.59997558594</ele>
        <time>2019-03-30T11:06:25.000Z</time>
      </trkpt>
      <trkpt lat="43.97395" lon="7.30731">
        <ele>595.20001220703</ele>
        <time>2019-03-30T11:06:26.000Z</time>
      </trkpt>
      <trkpt lat="43.97397" lon="7.30736">
        <ele>594</ele>
        <time>2019-03-30T11:06:28.000Z</time>
      </trkpt>
      <trkpt lat="43.97399" lon="7.30742">
        <ele>592.59997558594</ele>
        <time>2019-03-30T11:06:30.000Z</time>
      </trkpt>
      <trkpt lat="43.974" lon="7.30744">
        <ele>591.79998779297</ele>
        <time>2019-03-30T11:06:31.000Z</time>
      </trkpt>
      <trkpt lat="43.97401" lon="7.30745">
        <ele>591.20001220703</ele>
        <time>2019-03-30T11:06:32.000Z</time>
      </trkpt>
      <trkpt lat="43.97402" lon="7.30747">
        <ele>590.20001220703</ele>
        <time>2019-03-30T11:06:33.000Z</time>
      </trkpt>
      <trkpt lat="43.97404" lon="7.30749">
        <ele>588.79998779297</ele>
        <time>2019-03-30T11:06:35.000Z</time>
      </trkpt>
      <trkpt lat="43.97404" lon="7.30754">
        <ele>587.59997558594</ele>
        <time>2019-03-30T11:06:37.000Z</time>
      </trkpt>
      <trkpt lat="43.97404" lon="7.30757">
        <ele>587</ele>
        <time>2019-03-30T11:06:38.000Z</time>
      </trkpt>
      <trkpt lat="43.97404" lon="7.30763">
        <ele>586.20001220703</ele>
        <time>2019-03-30T11:06:40.000Z</time>
      </trkpt>
      <trkpt lat="43.97401" lon="7.30767">
        <ele>585.20001220703</ele>
        <time>2019-03-30T11:06:42.000Z</time>
      </trkpt>
      <trkpt lat="43.97399" lon="7.3077">
        <ele>584</ele>
        <time>2019-03-30T11:06:44.000Z</time>
      </trkpt>
      <trkpt lat="43.97399" lon="7.30775">
        <ele>582.20001220703</ele>
        <time>2019-03-30T11:06:46.000Z</time>
      </trkpt>
      <trkpt lat="43.97398" lon="7.3078">
        <ele>580.59997558594</ele>
        <time>2019-03-30T11:06:48.000Z</time>
      </trkpt>
      <trkpt lat="43.97396" lon="7.30781">
        <ele>579.79998779297</ele>
        <time>2019-03-30T11:06:49.000Z</time>
      </trkpt>
      <trkpt lat="43.97394" lon="7.30782">
        <ele>579</ele>
        <time>2019-03-30T11:06:50.000Z</time>
      </trkpt>
      <trkpt lat="43.97389" lon="7.30784">
        <ele>576.79998779297</ele>
        <time>2019-03-30T11:06:52.000Z</time>
      </trkpt>
      <trkpt lat="43.97386" lon="7.30786">
        <ele>575.40002441406</ele>
        <time>2019-03-30T11:06:54.000Z</time>
      </trkpt>
      <trkpt lat="43.97384" lon="7.30789">
        <ele>574.40002441406</ele>
        <time>2019-03-30T11:06:56.000Z</time>
      </trkpt>
      <trkpt lat="43.97385" lon="7.30794">
        <ele>573.40002441406</ele>
        <time>2019-03-30T11:06:58.000Z</time>
      </trkpt>
      <trkpt lat="43.97387" lon="7.30796">
        <ele>572.79998779297</ele>
        <time>2019-03-30T11:06:59.000Z</time>
      </trkpt>
      <trkpt lat="43.97392" lon="7.30801">
        <ele>571.79998779297</ele>
        <time>2019-03-30T11:07:01.000Z</time>
      </trkpt>
      <trkpt lat="43.97394" lon="7.30803">
        <ele>571.20001220703</ele>
        <time>2019-03-30T11:07:02.000Z</time>
      </trkpt>
      <trkpt lat="43.97397" lon="7.30805">
        <ele>570.20001220703</ele>
        <time>2019-03-30T11:07:03.000Z</time>
      </trkpt>
      <trkpt lat="43.97398" lon="7.30808">
        <ele>569.40002441406</ele>
        <time>2019-03-30T11:07:05.000Z</time>
      </trkpt>
      <trkpt lat="43.97398" lon="7.30808">
        <ele>568.79998779297</ele>
        <time>2019-03-30T11:07:06.000Z</time>
      </trkpt>
      <trkpt lat="43.97399" lon="7.30811">
        <ele>568.20001220703</ele>
        <time>2019-03-30T11:07:08.000Z</time>
      </trkpt>
      <trkpt lat="43.97399" lon="7.30816">
        <ele>567.40002441406</ele>
        <time>2019-03-30T11:07:10.000Z</time>
      </trkpt>
      <trkpt lat="43.97406" lon="7.30826">
        <ele>566.59997558594</ele>
        <time>2019-03-30T11:07:13.000Z</time>
      </trkpt>
      <trkpt lat="43.97409" lon="7.30827">
        <ele>566.20001220703</ele>
        <time>2019-03-30T11:07:14.000Z</time>
      </trkpt>
      <trkpt lat="43.97414" lon="7.30827">
        <ele>565</ele>
        <time>2019-03-30T11:07:16.000Z</time>
      </trkpt>
      <trkpt lat="43.97416" lon="7.30826">
        <ele>564.59997558594</ele>
        <time>2019-03-30T11:07:17.000Z</time>
      </trkpt>
      <trkpt lat="43.97419" lon="7.30827">
        <ele>564.20001220703</ele>
        <time>2019-03-30T11:07:18.000Z</time>
      </trkpt>
      <trkpt lat="43.9742" lon="7.3083">
        <ele>563.79998779297</ele>
        <time>2019-03-30T11:07:19.000Z</time>
      </trkpt>
      <trkpt lat="43.97417" lon="7.30836">
        <ele>563.40002441406</ele>
        <time>2019-03-30T11:07:22.000Z</time>
      </trkpt>
      <trkpt lat="43.97407" lon="7.30846">
        <ele>562.59997558594</ele>
        <time>2019-03-30T11:07:25.000Z</time>
      </trkpt>
      <trkpt lat="43.97404" lon="7.30853">
        <ele>562</ele>
        <time>2019-03-30T11:07:26.000Z</time>
      </trkpt>
      <trkpt lat="43.97404" lon="7.3086">
        <ele>561</ele>
        <time>2019-03-30T11:07:27.000Z</time>
      </trkpt>
      <trkpt lat="43.97405" lon="7.3087">
        <ele>559.79998779297</ele>
        <time>2019-03-30T11:07:28.000Z</time>
      </trkpt>
      <trkpt lat="43.97407" lon="7.30879">
        <ele>559</ele>
        <time>2019-03-30T11:07:29.000Z</time>
      </trkpt>
      <trkpt lat="43.97408" lon="7.30885">
        <ele>557.40002441406</ele>
        <time>2019-03-30T11:07:30.000Z</time>
      </trkpt>
      <trkpt lat="43.97412" lon="7.30895">
        <ele>556</ele>
        <time>2019-03-30T11:07:32.000Z</time>
      </trkpt>
      <trkpt lat="43.97414" lon="7.309">
        <ele>554.79998779297</ele>
        <time>2019-03-30T11:07:33.000Z</time>
      </trkpt>
      <trkpt lat="43.97415" lon="7.30919">
        <ele>554</ele>
        <time>2019-03-30T11:07:37.000Z</time>
      </trkpt>
      <trkpt lat="43.97414" lon="7.30926">
        <ele>554</ele>
        <time>2019-03-30T11:07:38.000Z</time>
      </trkpt>
      <trkpt lat="43.97413" lon="7.30941">
        <ele>552.79998779297</ele>
        <time>2019-03-30T11:07:40.000Z</time>
      </trkpt>
      <trkpt lat="43.97413" lon="7.30947">
        <ele>551.59997558594</ele>
        <time>2019-03-30T11:07:41.000Z</time>
      </trkpt>
      <trkpt lat="43.97411" lon="7.30953">
        <ele>550.59997558594</ele>
        <time>2019-03-30T11:07:42.000Z</time>
      </trkpt>
      <trkpt lat="43.97409" lon="7.30959">
        <ele>549.79998779297</ele>
        <time>2019-03-30T11:07:43.000Z</time>
      </trkpt>
      <trkpt lat="43.97407" lon="7.30963">
        <ele>548.79998779297</ele>
        <time>2019-03-30T11:07:44.000Z</time>
      </trkpt>
      <trkpt lat="43.97402" lon="7.3097">
        <ele>548.20001220703</ele>
        <time>2019-03-30T11:07:46.000Z</time>
      </trkpt>
      <trkpt lat="43.97392" lon="7.3098">
        <ele>547.40002441406</ele>
        <time>2019-03-30T11:07:49.000Z</time>
      </trkpt>
      <trkpt lat="43.97388" lon="7.30984">
        <ele>547.20001220703</ele>
        <time>2019-03-30T11:07:50.000Z</time>
      </trkpt>
      <trkpt lat="43.97384" lon="7.30988">
        <ele>547</ele>
        <time>2019-03-30T11:07:51.000Z</time>
      </trkpt>
      <trkpt lat="43.97372" lon="7.31">
        <ele>546</ele>
        <time>2019-03-30T11:07:54.000Z</time>
      </trkpt>
      <trkpt lat="43.97368" lon="7.31003">
        <ele>545.20001220703</ele>
        <time>2019-03-30T11:07:55.000Z</time>
      </trkpt>
      <trkpt lat="43.97366" lon="7.31007">
        <ele>544.59997558594</ele>
        <time>2019-03-30T11:07:56.000Z</time>
      </trkpt>
      <trkpt lat="43.97362" lon="7.31009">
        <ele>544</ele>
        <time>2019-03-30T11:07:57.000Z</time>
      </trkpt>
      <trkpt lat="43.97359" lon="7.31014">
        <ele>543.20001220703</ele>
        <time>2019-03-30T11:07:58.000Z</time>
      </trkpt>
      <trkpt lat="43.97354" lon="7.31026">
        <ele>542</ele>
        <time>2019-03-30T11:08:00.000Z</time>
      </trkpt>
      <trkpt lat="43.97352" lon="7.31032">
        <ele>541.40002441406</ele>
        <time>2019-03-30T11:08:01.000Z</time>
      </trkpt>
      <trkpt lat="43.9735" lon="7.31036">
        <ele>541</ele>
        <time>2019-03-30T11:08:02.000Z</time>
      </trkpt>
      <trkpt lat="43.97348" lon="7.31043">
        <ele>539.79998779297</ele>
        <time>2019-03-30T11:08:04.000Z</time>
      </trkpt>
      <trkpt lat="43.97349" lon="7.31045">
        <ele>539.20001220703</ele>
        <time>2019-03-30T11:08:05.000Z</time>
      </trkpt>
      <trkpt lat="43.97349" lon="7.31046">
        <ele>538.79998779297</ele>
        <time>2019-03-30T11:08:06.000Z</time>
      </trkpt>
      <trkpt lat="43.97351" lon="7.31044">
        <ele>538.40002441406</ele>
        <time>2019-03-30T11:08:07.000Z</time>
      </trkpt>
      <trkpt lat="43.97352" lon="7.31043">
        <ele>537.79998779297</ele>
        <time>2019-03-30T11:08:08.000Z</time>
      </trkpt>
      <trkpt lat="43.97356" lon="7.3104">
        <ele>536.59997558594</ele>
        <time>2019-03-30T11:08:10.000Z</time>
      </trkpt>
      <trkpt lat="43.97362" lon="7.31033">
        <ele>536.20001220703</ele>
        <time>2019-03-30T11:08:12.000Z</time>
      </trkpt>
      <trkpt lat="43.97365" lon="7.3103">
        <ele>536</ele>
        <time>2019-03-30T11:08:13.000Z</time>
      </trkpt>
      <trkpt lat="43.97371" lon="7.31026">
        <ele>535.59997558594</ele>
        <time>2019-03-30T11:08:15.000Z</time>
      </trkpt>
      <trkpt lat="43.97372" lon="7.31027">
        <ele>535.20001220703</ele>
        <time>2019-03-30T11:08:16.000Z</time>
      </trkpt>
      <trkpt lat="43.97369" lon="7.31038">
        <ele>535</ele>
        <time>2019-03-30T11:08:19.000Z</time>
      </trkpt>
      <trkpt lat="43.97365" lon="7.31048">
        <ele>534.20001220703</ele>
        <time>2019-03-30T11:08:22.000Z</time>
      </trkpt>
      <trkpt lat="43.9737" lon="7.31045">
        <ele>533</ele>
        <time>2019-03-30T11:08:25.000Z</time>
      </trkpt>
      <trkpt lat="43.97379" lon="7.31038">
        <ele>532.40002441406</ele>
        <time>2019-03-30T11:08:28.000Z</time>
      </trkpt>
      <trkpt lat="43.9738" lon="7.3104">
        <ele>532</ele>
        <time>2019-03-30T11:08:29.000Z</time>
      </trkpt>
      <trkpt lat="43.97378" lon="7.31045">
        <ele>531.59997558594</ele>
        <time>2019-03-30T11:08:31.000Z</time>
      </trkpt>
      <trkpt lat="43.97375" lon="7.31053">
        <ele>531</ele>
        <time>2019-03-30T11:08:33.000Z</time>
      </trkpt>
      <trkpt lat="43.97373" lon="7.31059">
        <ele>530.40002441406</ele>
        <time>2019-03-30T11:08:35.000Z</time>
      </trkpt>
      <trkpt lat="43.97374" lon="7.31061">
        <ele>529.79998779297</ele>
        <time>2019-03-30T11:08:37.000Z</time>
      </trkpt>
      <trkpt lat="43.97374" lon="7.31061">
        <ele>529</ele>
        <time>2019-03-30T11:08:38.000Z</time>
      </trkpt>
      <trkpt lat="43.97374" lon="7.3106">
        <ele>528</ele>
        <time>2019-03-30T11:08:39.000Z</time>
      </trkpt>
      <trkpt lat="43.97375" lon="7.31059">
        <ele>526.79998779297</ele>
        <time>2019-03-30T11:08:41.000Z</time>
      </trkpt>
      <trkpt lat="43.97377" lon="7.31057">
        <ele>526</ele>
        <time>2019-03-30T11:08:43.000Z</time>
      </trkpt>
      <trkpt lat="43.97379" lon="7.31054">
        <ele>525.79998779297</ele>
        <time>2019-03-30T11:08:44.000Z</time>
      </trkpt>
      <trkpt lat="43.97383" lon="7.31053">
        <ele>525.20001220703</ele>
        <time>2019-03-30T11:08:46.000Z</time>
      </trkpt>
      <trkpt lat="43.97383" lon="7.31057">
        <ele>524.59997558594</ele>
        <time>2019-03-30T11:08:48.000Z</time>
      </trkpt>
      <trkpt lat="43.97381" lon="7.31065">
        <ele>523.20001220703</ele>
        <time>2019-03-30T11:08:50.000Z</time>
      </trkpt>
      <trkpt lat="43.97379" lon="7.31071">
        <ele>522.40002441406</ele>
        <time>2019-03-30T11:08:51.000Z</time>
      </trkpt>
      <trkpt lat="43.97378" lon="7.31075">
        <ele>521.40002441406</ele>
        <time>2019-03-30T11:08:52.000Z</time>
      </trkpt>
      <trkpt lat="43.97376" lon="7.3108">
        <ele>520.40002441406</ele>
        <time>2019-03-30T11:08:53.000Z</time>
      </trkpt>
      <trkpt lat="43.97375" lon="7.31084">
        <ele>519.59997558594</ele>
        <time>2019-03-30T11:08:54.000Z</time>
      </trkpt>
      <trkpt lat="43.97374" lon="7.31086">
        <ele>518.79998779297</ele>
        <time>2019-03-30T11:08:55.000Z</time>
      </trkpt>
      <trkpt lat="43.97376" lon="7.31087">
        <ele>517.59997558594</ele>
        <time>2019-03-30T11:08:56.000Z</time>
      </trkpt>
      <trkpt lat="43.97378" lon="7.31083">
        <ele>516</ele>
        <time>2019-03-30T11:08:58.000Z</time>
      </trkpt>
      <trkpt lat="43.97381" lon="7.31076">
        <ele>514.59997558594</ele>
        <time>2019-03-30T11:09:00.000Z</time>
      </trkpt>
      <trkpt lat="43.97384" lon="7.31075">
        <ele>514</ele>
        <time>2019-03-30T11:09:01.000Z</time>
      </trkpt>
      <trkpt lat="43.97386" lon="7.31077">
        <ele>513.40002441406</ele>
        <time>2019-03-30T11:09:02.000Z</time>
      </trkpt>
      <trkpt lat="43.97391" lon="7.31085">
        <ele>512.59997558594</ele>
        <time>2019-03-30T11:09:04.000Z</time>
      </trkpt>
      <trkpt lat="43.97394" lon="7.31089">
        <ele>512.20001220703</ele>
        <time>2019-03-30T11:09:05.000Z</time>
      </trkpt>
      <trkpt lat="43.97408" lon="7.31092">
        <ele>511</ele>
        <time>2019-03-30T11:09:08.000Z</time>
      </trkpt>
      <trkpt lat="43.97412" lon="7.31093">
        <ele>510.60000610352</ele>
        <time>2019-03-30T11:09:09.000Z</time>
      </trkpt>
      <trkpt lat="43.97419" lon="7.31097">
        <ele>509.79998779297</ele>
        <time>2019-03-30T11:09:11.000Z</time>
      </trkpt>
      <trkpt lat="43.97421" lon="7.311">
        <ele>509.79998779297</ele>
        <time>2019-03-30T11:09:12.000Z</time>
      </trkpt>
      <trkpt lat="43.97429" lon="7.31114">
        <ele>509.39999389648</ele>
        <time>2019-03-30T11:09:16.000Z</time>
      </trkpt>
      <trkpt lat="43.9743" lon="7.31118">
        <ele>509.39999389648</ele>
        <time>2019-03-30T11:09:17.000Z</time>
      </trkpt>
      <trkpt lat="43.97436" lon="7.31131">
        <ele>508.60000610352</ele>
        <time>2019-03-30T11:09:21.000Z</time>
      </trkpt>
      <trkpt lat="43.97439" lon="7.31138">
        <ele>508.39999389648</ele>
        <time>2019-03-30T11:09:23.000Z</time>
      </trkpt>
      <trkpt lat="43.97447" lon="7.31154">
        <ele>507.60000610352</ele>
        <time>2019-03-30T11:09:28.000Z</time>
      </trkpt>
      <trkpt lat="43.97447" lon="7.31157">
        <ele>507.39999389648</ele>
        <time>2019-03-30T11:09:29.000Z</time>
      </trkpt>
      <trkpt lat="43.97444" lon="7.31157">
        <ele>507</ele>
        <time>2019-03-30T11:09:31.000Z</time>
      </trkpt>
      <trkpt lat="43.97442" lon="7.31152">
        <ele>506.60000610352</ele>
        <time>2019-03-30T11:09:33.000Z</time>
      </trkpt>
      <trkpt lat="43.9744" lon="7.31139">
        <ele>505.79998779297</ele>
        <time>2019-03-30T11:09:37.000Z</time>
      </trkpt>
      <trkpt lat="43.97437" lon="7.31127">
        <ele>505.39999389648</ele>
        <time>2019-03-30T11:09:41.000Z</time>
      </trkpt>
      <trkpt lat="43.97435" lon="7.31119">
        <ele>505.20001220703</ele>
        <time>2019-03-30T11:09:44.000Z</time>
      </trkpt>
      <trkpt lat="43.97427" lon="7.31114">
        <ele>504.79998779297</ele>
        <time>2019-03-30T11:09:48.000Z</time>
      </trkpt>
      <trkpt lat="43.97425" lon="7.31115">
        <ele>504.60000610352</ele>
        <time>2019-03-30T11:09:49.000Z</time>
      </trkpt>
      <trkpt lat="43.97423" lon="7.31117">
        <ele>504.20001220703</ele>
        <time>2019-03-30T11:09:50.000Z</time>
      </trkpt>
      <trkpt lat="43.9742" lon="7.31121">
        <ele>503.79998779297</ele>
        <time>2019-03-30T11:09:52.000Z</time>
      </trkpt>
      <trkpt lat="43.97417" lon="7.31124">
        <ele>503.39999389648</ele>
        <time>2019-03-30T11:09:54.000Z</time>
      </trkpt>
      <trkpt lat="43.97415" lon="7.31125">
        <ele>503.20001220703</ele>
        <time>2019-03-30T11:09:55.000Z</time>
      </trkpt>
      <trkpt lat="43.97411" lon="7.31126">
        <ele>502.60000610352</ele>
        <time>2019-03-30T11:09:58.000Z</time>
      </trkpt>
      <trkpt lat="43.97408" lon="7.31122">
        <ele>502.20001220703</ele>
        <time>2019-03-30T11:10:01.000Z</time>
      </trkpt>
      <trkpt lat="43.97407" lon="7.31119">
        <ele>501.79998779297</ele>
        <time>2019-03-30T11:10:03.000Z</time>
      </trkpt>
      <trkpt lat="43.97406" lon="7.31117">
        <ele>501.39999389648</ele>
        <time>2019-03-30T11:10:09.000Z</time>
      </trkpt>
      <trkpt lat="43.97406" lon="7.31117">
        <ele>501.20001220703</ele>
        <time>2019-03-30T11:10:13.000Z</time>
      </trkpt>
      <trkpt lat="43.97405" lon="7.31118">
        <ele>501.20001220703</ele>
        <time>2019-03-30T11:10:15.000Z</time>
      </trkpt>
      <trkpt lat="43.97404" lon="7.31118">
        <ele>501.20001220703</ele>
        <time>2019-03-30T11:10:18.000Z</time>
      </trkpt>
      <trkpt lat="43.97405" lon="7.31116">
        <ele>501.20001220703</ele>
        <time>2019-03-30T11:10:20.000Z</time>
      </trkpt>
      <trkpt lat="43.97406" lon="7.31115">
        <ele>501.20001220703</ele>
        <time>2019-03-30T11:10:21.000Z</time>
      </trkpt>
      <trkpt lat="43.97406" lon="7.31115">
        <ele>501.39999389648</ele>
        <time>2019-03-30T11:10:25.000Z</time>
      </trkpt>
      <trkpt lat="43.97405" lon="7.31114">
        <ele>501.79998779297</ele>
        <time>2019-03-30T11:10:34.000Z</time>
      </trkpt>
      <trkpt lat="43.97404" lon="7.31117">
        <ele>501.79998779297</ele>
        <time>2019-03-30T11:10:41.000Z</time>
      </trkpt>
      <trkpt lat="43.97405" lon="7.31115">
        <ele>502</ele>
        <time>2019-03-30T11:10:47.000Z</time>
      </trkpt>
      <trkpt lat="43.97405" lon="7.31115">
        <ele>502.20001220703</ele>
        <time>2019-03-30T11:10:50.000Z</time>
      </trkpt>
      <trkpt lat="43.97405" lon="7.31115">
        <ele>502.20001220703</ele>
        <time>2019-03-30T11:10:54.000Z</time>
      </trkpt>
      <trkpt lat="43.97406" lon="7.31113">
        <ele>502.20001220703</ele>
        <time>2019-03-30T11:11:03.000Z</time>
      </trkpt>
      <trkpt lat="43.97406" lon="7.31112">
        <ele>502.39999389648</ele>
        <time>2019-03-30T11:11:13.000Z</time>
      </trkpt>
      <trkpt lat="43.97407" lon="7.31114">
        <ele>502.20001220703</ele>
        <time>2019-03-30T11:11:26.000Z</time>
      </trkpt>
      <trkpt lat="43.97405" lon="7.31113">
        <ele>502</ele>
        <time>2019-03-30T11:11:32.000Z</time>
      </trkpt>
      <trkpt lat="43.97405" lon="7.31113">
        <ele>502.20001220703</ele>
        <time>2019-03-30T11:11:43.000Z</time>
      </trkpt>
      <trkpt lat="43.97406" lon="7.31113">
        <ele>502</ele>
        <time>2019-03-30T11:11:57.000Z</time>
      </trkpt>
      <trkpt lat="43.97406" lon="7.31115">
        <ele>502</ele>
        <time>2019-03-30T11:12:03.000Z</time>
      </trkpt>
      <trkpt lat="43.97407" lon="7.31114">
        <ele>501.79998779297</ele>
        <time>2019-03-30T11:12:06.000Z</time>
      </trkpt>
      <trkpt lat="43.97408" lon="7.31113">
        <ele>501.79998779297</ele>
        <time>2019-03-30T11:12:08.000Z</time>
      </trkpt>
      <trkpt lat="43.97408" lon="7.31112">
        <ele>501.20001220703</ele>
        <time>2019-03-30T11:12:13.000Z</time>
      </trkpt>
      <trkpt lat="43.97408" lon="7.31112">
        <ele>501.79998779297</ele>
        <time>2019-03-30T11:12:24.000Z</time>
      </trkpt>
      <trkpt lat="43.97408" lon="7.31113">
        <ele>501.79998779297</ele>
        <time>2019-03-30T11:12:30.000Z</time>
      </trkpt>
      <trkpt lat="43.97408" lon="7.31112">
        <ele>501.60000610352</ele>
        <time>2019-03-30T11:12:42.000Z</time>
      </trkpt>
      <trkpt lat="43.97408" lon="7.31112">
        <ele>501.39999389648</ele>
        <time>2019-03-30T11:12:50.000Z</time>
      </trkpt>
      <trkpt lat="43.97408" lon="7.31113">
        <ele>501.39999389648</ele>
        <time>2019-03-30T11:13:03.000Z</time>
      </trkpt>
      <trkpt lat="43.97408" lon="7.31113">
        <ele>501.39999389648</ele>
        <time>2019-03-30T11:13:16.000Z</time>
      </trkpt>
      <trkpt lat="43.97406" lon="7.31115">
        <ele>501.60000610352</ele>
        <time>2019-03-30T11:13:25.000Z</time>
      </trkpt>
      <trkpt lat="43.97406" lon="7.31115">
        <ele>501.79998779297</ele>
        <time>2019-03-30T11:13:32.000Z</time>
      </trkpt>
      <trkpt lat="43.97407" lon="7.31114">
        <ele>502.20001220703</ele>
        <time>2019-03-30T11:13:54.000Z</time>
      </trkpt>
      <trkpt lat="43.97408" lon="7.31113">
        <ele>502.20001220703</ele>
        <time>2019-03-30T11:14:00.000Z</time>
      </trkpt>
      <trkpt lat="43.97408" lon="7.31113">
        <ele>501.79998779297</ele>
        <time>2019-03-30T11:14:12.000Z</time>
      </trkpt>
      <trkpt lat="43.97408" lon="7.31113">
        <ele>501.60000610352</ele>
        <time>2019-03-30T11:14:29.000Z</time>
      </trkpt>
      <trkpt lat="43.97408" lon="7.31113">
        <ele>501.39999389648</ele>
        <time>2019-03-30T11:14:50.000Z</time>
      </trkpt>
      <trkpt lat="43.97408" lon="7.31113">
        <ele>501.39999389648</ele>
        <time>2019-03-30T11:15:10.000Z</time>
      </trkpt>
      <trkpt lat="43.97408" lon="7.31113">
        <ele>501.39999389648</ele>
        <time>2019-03-30T11:15:37.000Z</time>
      </trkpt>
      <trkpt lat="43.97408" lon="7.31113">
        <ele>501.60000610352</ele>
        <time>2019-03-30T11:16:01.000Z</time>
      </trkpt>
      <trkpt lat="43.97408" lon="7.31113">
        <ele>501.60000610352</ele>
        <time>2019-03-30T11:16:25.000Z</time>
      </trkpt>
      <trkpt lat="43.97408" lon="7.31113">
        <ele>501.79998779297</ele>
        <time>2019-03-30T11:16:51.000Z</time>
      </trkpt>
      <trkpt lat="43.97408" lon="7.31112">
        <ele>501.79998779297</ele>
        <time>2019-03-30T11:17:22.000Z</time>
      </trkpt>
      <trkpt lat="43.97408" lon="7.31113">
        <ele>501.79998779297</ele>
        <time>2019-03-30T11:17:47.000Z</time>
      </trkpt>
      <trkpt lat="43.97408" lon="7.31113">
        <ele>502</ele>
        <time>2019-03-30T11:18:06.000Z</time>
      </trkpt>
      <trkpt lat="43.97408" lon="7.31114">
        <ele>502.20001220703</ele>
        <time>2019-03-30T11:18:26.000Z</time>
      </trkpt>
      <trkpt lat="43.97408" lon="7.31114">
        <ele>502.20001220703</ele>
        <time>2019-03-30T11:18:30.000Z</time>
      </trkpt>
      <trkpt lat="43.97408" lon="7.31114">
        <ele>502.39999389648</ele>
        <time>2019-03-30T11:18:56.000Z</time>
      </trkpt>
      <trkpt lat="43.97408" lon="7.31115">
        <ele>502</ele>
        <time>2019-03-30T11:19:20.000Z</time>
      </trkpt>
      <trkpt lat="43.97407" lon="7.31114">
        <ele>502.20001220703</ele>
        <time>2019-03-30T11:19:28.000Z</time>
      </trkpt>
      <trkpt lat="43.97407" lon="7.31112">
        <ele>502.39999389648</ele>
        <time>2019-03-30T11:19:53.000Z</time>
      </trkpt>
      <trkpt lat="43.97407" lon="7.31112">
        <ele>502.20001220703</ele>
        <time>2019-03-30T11:20:08.000Z</time>
      </trkpt>
      <trkpt lat="43.97407" lon="7.31112">
        <ele>502.39999389648</ele>
        <time>2019-03-30T11:20:35.000Z</time>
      </trkpt>
      <trkpt lat="43.97408" lon="7.31112">
        <ele>502.79998779297</ele>
        <time>2019-03-30T11:20:58.000Z</time>
      </trkpt>
      <trkpt lat="43.97408" lon="7.31113">
        <ele>502.60000610352</ele>
        <time>2019-03-30T11:21:28.000Z</time>
      </trkpt>
      <trkpt lat="43.97408" lon="7.31113">
        <ele>502.39999389648</ele>
        <time>2019-03-30T11:21:45.000Z</time>
      </trkpt>
      <trkpt lat="43.97409" lon="7.31114">
        <ele>502.39999389648</ele>
        <time>2019-03-30T11:21:59.000Z</time>
      </trkpt>
      <trkpt lat="43.97409" lon="7.31113">
        <ele>503</ele>
        <time>2019-03-30T11:22:18.000Z</time>
      </trkpt>
      <trkpt lat="43.9741" lon="7.31113">
        <ele>502.60000610352</ele>
        <time>2019-03-30T11:22:38.000Z</time>
      </trkpt>
      <trkpt lat="43.97409" lon="7.31112">
        <ele>502.79998779297</ele>
        <time>2019-03-30T11:22:56.000Z</time>
      </trkpt>
      <trkpt lat="43.97409" lon="7.31112">
        <ele>502.60000610352</ele>
        <time>2019-03-30T11:23:25.000Z</time>
      </trkpt>
      <trkpt lat="43.9741" lon="7.31111">
        <ele>503</ele>
        <time>2019-03-30T11:23:46.000Z</time>
      </trkpt>
      <trkpt lat="43.97409" lon="7.31111">
        <ele>502.79998779297</ele>
        <time>2019-03-30T11:23:54.000Z</time>
      </trkpt>
      <trkpt lat="43.97409" lon="7.31111">
        <ele>503.39999389648</ele>
        <time>2019-03-30T11:23:59.000Z</time>
      </trkpt>
      <trkpt lat="43.97408" lon="7.31111">
        <ele>503.39999389648</ele>
        <time>2019-03-30T11:24:09.000Z</time>
      </trkpt>
      <trkpt lat="43.97408" lon="7.31111">
        <ele>502.79998779297</ele>
        <time>2019-03-30T11:24:21.000Z</time>
      </trkpt>
      <trkpt lat="43.9741" lon="7.31109">
        <ele>502.39999389648</ele>
        <time>2019-03-30T11:24:26.000Z</time>
      </trkpt>
      <trkpt lat="43.97413" lon="7.31106">
        <ele>502.20001220703</ele>
        <time>2019-03-30T11:24:30.000Z</time>
      </trkpt>
      <trkpt lat="43.97416" lon="7.31101">
        <ele>502.20001220703</ele>
        <time>2019-03-30T11:24:34.000Z</time>
      </trkpt>
      <trkpt lat="43.97419" lon="7.31095">
        <ele>502.20001220703</ele>
        <time>2019-03-30T11:24:42.000Z</time>
      </trkpt>
      <trkpt lat="43.97419" lon="7.31095">
        <ele>502</ele>
        <time>2019-03-30T11:24:50.000Z</time>
      </trkpt>
      <trkpt lat="43.97419" lon="7.31092">
        <ele>502.60000610352</ele>
        <time>2019-03-30T11:24:59.000Z</time>
      </trkpt>
      <trkpt lat="43.9742" lon="7.31093">
        <ele>503.20001220703</ele>
        <time>2019-03-30T11:25:04.000Z</time>
      </trkpt>
      <trkpt lat="43.9742" lon="7.31094">
        <ele>503</ele>
        <time>2019-03-30T11:25:14.000Z</time>
      </trkpt>
      <trkpt lat="43.9742" lon="7.31095">
        <ele>503.39999389648</ele>
        <time>2019-03-30T11:25:18.000Z</time>
      </trkpt>
      <trkpt lat="43.9742" lon="7.31095">
        <ele>503.39999389648</ele>
        <time>2019-03-30T11:25:24.000Z</time>
      </trkpt>
      <trkpt lat="43.97419" lon="7.31096">
        <ele>503.20001220703</ele>
        <time>2019-03-30T11:25:30.000Z</time>
      </trkpt>
      <trkpt lat="43.97419" lon="7.31096">
        <ele>503.39999389648</ele>
        <time>2019-03-30T11:25:31.000Z</time>
      </trkpt>
      <trkpt lat="43.97418" lon="7.31098">
        <ele>503.60000610352</ele>
        <time>2019-03-30T11:25:46.000Z</time>
      </trkpt>
      <trkpt lat="43.97418" lon="7.31098">
        <ele>503.39999389648</ele>
        <time>2019-03-30T11:26:04.000Z</time>
      </trkpt>
      <trkpt lat="43.97419" lon="7.31098">
        <ele>502.79998779297</ele>
        <time>2019-03-30T11:26:11.000Z</time>
      </trkpt>
      <trkpt lat="43.97418" lon="7.31099">
        <ele>504</ele>
        <time>2019-03-30T11:26:22.000Z</time>
      </trkpt>
      <trkpt lat="43.97418" lon="7.311">
        <ele>503.79998779297</ele>
        <time>2019-03-30T11:26:34.000Z</time>
      </trkpt>
      <trkpt lat="43.97418" lon="7.31101">
        <ele>503.79998779297</ele>
        <time>2019-03-30T11:26:45.000Z</time>
      </trkpt>
      <trkpt lat="43.97418" lon="7.31101">
        <ele>503.20001220703</ele>
        <time>2019-03-30T11:27:01.000Z</time>
      </trkpt>
      <trkpt lat="43.97418" lon="7.31101">
        <ele>503.60000610352</ele>
        <time>2019-03-30T11:27:07.000Z</time>
      </trkpt>
      <trkpt lat="43.97418" lon="7.31101">
        <ele>503.79998779297</ele>
        <time>2019-03-30T11:27:19.000Z</time>
      </trkpt>
      <trkpt lat="43.97418" lon="7.31101">
        <ele>503.60000610352</ele>
        <time>2019-03-30T11:27:29.000Z</time>
      </trkpt>
      <trkpt lat="43.97418" lon="7.311">
        <ele>503.79998779297</ele>
        <time>2019-03-30T11:27:38.000Z</time>
      </trkpt>
      <trkpt lat="43.97418" lon="7.31101">
        <ele>504</ele>
        <time>2019-03-30T11:27:56.000Z</time>
      </trkpt>
      <trkpt lat="43.97419" lon="7.31101">
        <ele>504.20001220703</ele>
        <time>2019-03-30T11:28:01.000Z</time>
      </trkpt>
      <trkpt lat="43.97419" lon="7.31101">
        <ele>503.79998779297</ele>
        <time>2019-03-30T11:28:12.000Z</time>
      </trkpt>
      <trkpt lat="43.97418" lon="7.31101">
        <ele>503.79998779297</ele>
        <time>2019-03-30T11:28:20.000Z</time>
      </trkpt>
      <trkpt lat="43.97419" lon="7.31101">
        <ele>504</ele>
        <time>2019-03-30T11:28:25.000Z</time>
      </trkpt>
      <trkpt lat="43.97419" lon="7.31102">
        <ele>504.20001220703</ele>
        <time>2019-03-30T11:28:27.000Z</time>
      </trkpt>
      <trkpt lat="43.97417" lon="7.31105">
        <ele>504.39999389648</ele>
        <time>2019-03-30T11:28:42.000Z</time>
      </trkpt>
      <trkpt lat="43.97417" lon="7.31105">
        <ele>504.20001220703</ele>
        <time>2019-03-30T11:28:46.000Z</time>
      </trkpt>
      <trkpt lat="43.97416" lon="7.31108">
        <ele>504.20001220703</ele>
        <time>2019-03-30T11:28:59.000Z</time>
      </trkpt>
      <trkpt lat="43.97415" lon="7.31111">
        <ele>503.79998779297</ele>
        <time>2019-03-30T11:29:19.000Z</time>
      </trkpt>
      <trkpt lat="43.97414" lon="7.31111">
        <ele>504.20001220703</ele>
        <time>2019-03-30T11:29:33.000Z</time>
      </trkpt>
      <trkpt lat="43.97415" lon="7.3111">
        <ele>504.39999389648</ele>
        <time>2019-03-30T11:29:42.000Z</time>
      </trkpt>
      <trkpt lat="43.97416" lon="7.3111">
        <ele>504.20001220703</ele>
        <time>2019-03-30T11:29:51.000Z</time>
      </trkpt>
      <trkpt lat="43.97416" lon="7.31108">
        <ele>504.39999389648</ele>
        <time>2019-03-30T11:29:59.000Z</time>
      </trkpt>
      <trkpt lat="43.97415" lon="7.31109">
        <ele>504.20001220703</ele>
        <time>2019-03-30T11:30:12.000Z</time>
      </trkpt>
      <trkpt lat="43.97415" lon="7.31108">
        <ele>504.39999389648</ele>
        <time>2019-03-30T11:30:21.000Z</time>
      </trkpt>
      <trkpt lat="43.97415" lon="7.3111">
        <ele>503.60000610352</ele>
        <time>2019-03-30T11:30:31.000Z</time>
      </trkpt>
      <trkpt lat="43.97414" lon="7.3111">
        <ele>504</ele>
        <time>2019-03-30T11:30:46.000Z</time>
      </trkpt>
      <trkpt lat="43.97414" lon="7.31111">
        <ele>504.39999389648</ele>
        <time>2019-03-30T11:30:55.000Z</time>
      </trkpt>
      <trkpt lat="43.97414" lon="7.3111">
        <ele>504.39999389648</ele>
        <time>2019-03-30T11:31:09.000Z</time>
      </trkpt>
      <trkpt lat="43.97413" lon="7.31114">
        <ele>504.60000610352</ele>
        <time>2019-03-30T11:31:24.000Z</time>
      </trkpt>
      <trkpt lat="43.97414" lon="7.31114">
        <ele>504.60000610352</ele>
        <time>2019-03-30T11:31:43.000Z</time>
      </trkpt>
      <trkpt lat="43.97417" lon="7.31111">
        <ele>504.39999389648</ele>
        <time>2019-03-30T11:31:55.000Z</time>
      </trkpt>
      <trkpt lat="43.9742" lon="7.31108">
        <ele>504.60000610352</ele>
        <time>2019-03-30T11:32:06.000Z</time>
      </trkpt>
      <trkpt lat="43.97422" lon="7.31108">
        <ele>504.79998779297</ele>
        <time>2019-03-30T11:32:15.000Z</time>
      </trkpt>
      <trkpt lat="43.97423" lon="7.31107">
        <ele>505</ele>
        <time>2019-03-30T11:32:24.000Z</time>
      </trkpt>
      <trkpt lat="43.97423" lon="7.31106">
        <ele>505</ele>
        <time>2019-03-30T11:32:26.000Z</time>
      </trkpt>
      <trkpt lat="43.97421" lon="7.31107">
        <ele>504.79998779297</ele>
        <time>2019-03-30T11:32:38.000Z</time>
      </trkpt>
      <trkpt lat="43.9742" lon="7.31107">
        <ele>504.79998779297</ele>
        <time>2019-03-30T11:32:51.000Z</time>
      </trkpt>
      <trkpt lat="43.97421" lon="7.31108">
        <ele>504.60000610352</ele>
        <time>2019-03-30T11:33:03.000Z</time>
      </trkpt>
      <trkpt lat="43.97418" lon="7.31108">
        <ele>504.79998779297</ele>
        <time>2019-03-30T11:33:17.000Z</time>
      </trkpt>
      <trkpt lat="43.97415" lon="7.3111">
        <ele>504.79998779297</ele>
        <time>2019-03-30T11:33:29.000Z</time>
      </trkpt>
      <trkpt lat="43.97414" lon="7.31112">
        <ele>504.79998779297</ele>
        <time>2019-03-30T11:33:46.000Z</time>
      </trkpt>
      <trkpt lat="43.97414" lon="7.31113">
        <ele>504.79998779297</ele>
        <time>2019-03-30T11:33:53.000Z</time>
      </trkpt>
      <trkpt lat="43.97413" lon="7.31114">
        <ele>504.79998779297</ele>
        <time>2019-03-30T11:34:01.000Z</time>
      </trkpt>
      <trkpt lat="43.97413" lon="7.31114">
        <ele>505</ele>
        <time>2019-03-30T11:34:17.000Z</time>
      </trkpt>
      <trkpt lat="43.97412" lon="7.31116">
        <ele>505</ele>
        <time>2019-03-30T11:34:39.000Z</time>
      </trkpt>
      <trkpt lat="43.9741" lon="7.3112">
        <ele>505.39999389648</ele>
        <time>2019-03-30T11:35:00.000Z</time>
      </trkpt>
      <trkpt lat="43.9741" lon="7.3112">
        <ele>505.39999389648</ele>
        <time>2019-03-30T11:35:02.000Z</time>
      </trkpt>
      <trkpt lat="43.97411" lon="7.31119">
        <ele>505.39999389648</ele>
        <time>2019-03-30T11:35:07.000Z</time>
      </trkpt>
      <trkpt lat="43.97411" lon="7.31119">
        <ele>505.20001220703</ele>
        <time>2019-03-30T11:35:26.000Z</time>
      </trkpt>
      <trkpt lat="43.97412" lon="7.31118">
        <ele>505.20001220703</ele>
        <time>2019-03-30T11:35:38.000Z</time>
      </trkpt>
      <trkpt lat="43.97412" lon="7.31118">
        <ele>505.20001220703</ele>
        <time>2019-03-30T11:35:54.000Z</time>
      </trkpt>
      <trkpt lat="43.97413" lon="7.31117">
        <ele>505.20001220703</ele>
        <time>2019-03-30T11:36:09.000Z</time>
      </trkpt>
      <trkpt lat="43.97413" lon="7.31116">
        <ele>505.20001220703</ele>
        <time>2019-03-30T11:36:26.000Z</time>
      </trkpt>
      <trkpt lat="43.97413" lon="7.31116">
        <ele>505.60000610352</ele>
        <time>2019-03-30T11:36:45.000Z</time>
      </trkpt>
      <trkpt lat="43.97413" lon="7.31118">
        <ele>505.20001220703</ele>
        <time>2019-03-30T11:36:59.000Z</time>
      </trkpt>
      <trkpt lat="43.97414" lon="7.31117">
        <ele>505.20001220703</ele>
        <time>2019-03-30T11:37:07.000Z</time>
      </trkpt>
      <trkpt lat="43.97414" lon="7.31117">
        <ele>505.79998779297</ele>
        <time>2019-03-30T11:37:11.000Z</time>
      </trkpt>
      <trkpt lat="43.97414" lon="7.31116">
        <ele>505.79998779297</ele>
        <time>2019-03-30T11:37:19.000Z</time>
      </trkpt>
      <trkpt lat="43.97416" lon="7.31113">
        <ele>505.20001220703</ele>
        <time>2019-03-30T11:37:32.000Z</time>
      </trkpt>
      <trkpt lat="43.97419" lon="7.31111">
        <ele>505.39999389648</ele>
        <time>2019-03-30T11:37:44.000Z</time>
      </trkpt>
      <trkpt lat="43.9742" lon="7.3111">
        <ele>505.60000610352</ele>
        <time>2019-03-30T11:37:54.000Z</time>
      </trkpt>
      <trkpt lat="43.97419" lon="7.3111">
        <ele>505.20001220703</ele>
        <time>2019-03-30T11:38:04.000Z</time>
      </trkpt>
      <trkpt lat="43.97418" lon="7.31112">
        <ele>505.60000610352</ele>
        <time>2019-03-30T11:38:18.000Z</time>
      </trkpt>
      <trkpt lat="43.97419" lon="7.3111">
        <ele>505.79998779297</ele>
        <time>2019-03-30T11:38:31.000Z</time>
      </trkpt>
      <trkpt lat="43.97417" lon="7.31111">
        <ele>505.39999389648</ele>
        <time>2019-03-30T11:38:45.000Z</time>
      </trkpt>
      <trkpt lat="43.97417" lon="7.31111">
        <ele>505.60000610352</ele>
        <time>2019-03-30T11:38:57.000Z</time>
      </trkpt>
      <trkpt lat="43.97417" lon="7.31109">
        <ele>505.39999389648</ele>
        <time>2019-03-30T11:39:15.000Z</time>
      </trkpt>
      <trkpt lat="43.97417" lon="7.31108">
        <ele>505.39999389648</ele>
        <time>2019-03-30T11:39:30.000Z</time>
      </trkpt>
      <trkpt lat="43.97417" lon="7.31107">
        <ele>505</ele>
        <time>2019-03-30T11:39:41.000Z</time>
      </trkpt>
      <trkpt lat="43.97418" lon="7.31106">
        <ele>505</ele>
        <time>2019-03-30T11:39:56.000Z</time>
      </trkpt>
      <trkpt lat="43.9742" lon="7.31104">
        <ele>505.39999389648</ele>
        <time>2019-03-30T11:40:15.000Z</time>
      </trkpt>
      <trkpt lat="43.97419" lon="7.31108">
        <ele>505.60000610352</ele>
        <time>2019-03-30T11:40:33.000Z</time>
      </trkpt>
      <trkpt lat="43.9742" lon="7.31107">
        <ele>505.60000610352</ele>
        <time>2019-03-30T11:40:51.000Z</time>
      </trkpt>
      <trkpt lat="43.97421" lon="7.31105">
        <ele>505.60000610352</ele>
        <time>2019-03-30T11:41:08.000Z</time>
      </trkpt>
      <trkpt lat="43.97421" lon="7.31103">
        <ele>505.60000610352</ele>
        <time>2019-03-30T11:41:29.000Z</time>
      </trkpt>
      <trkpt lat="43.97419" lon="7.31103">
        <ele>506</ele>
        <time>2019-03-30T11:41:40.000Z</time>
      </trkpt>
      <trkpt lat="43.97422" lon="7.31101">
        <ele>505.60000610352</ele>
        <time>2019-03-30T11:41:47.000Z</time>
      </trkpt>
      <trkpt lat="43.97426" lon="7.31099">
        <ele>505.60000610352</ele>
        <time>2019-03-30T11:41:57.000Z</time>
      </trkpt>
      <trkpt lat="43.9743" lon="7.31097">
        <ele>505.79998779297</ele>
        <time>2019-03-30T11:42:05.000Z</time>
      </trkpt>
      <trkpt lat="43.97425" lon="7.31098">
        <ele>505.60000610352</ele>
        <time>2019-03-30T11:42:34.000Z</time>
      </trkpt>
      <trkpt lat="43.97424" lon="7.31099">
        <ele>506.39999389648</ele>
        <time>2019-03-30T11:42:53.000Z</time>
      </trkpt>
      <trkpt lat="43.97423" lon="7.311">
        <ele>506.20001220703</ele>
        <time>2019-03-30T11:43:01.000Z</time>
      </trkpt>
      <trkpt lat="43.97422" lon="7.311">
        <ele>506</ele>
        <time>2019-03-30T11:43:24.000Z</time>
      </trkpt>
      <trkpt lat="43.97421" lon="7.311">
        <ele>505.79998779297</ele>
        <time>2019-03-30T11:43:36.000Z</time>
      </trkpt>
      <trkpt lat="43.9742" lon="7.31101">
        <ele>505.79998779297</ele>
        <time>2019-03-30T11:44:02.000Z</time>
      </trkpt>
      <trkpt lat="43.9742" lon="7.31103">
        <ele>506</ele>
        <time>2019-03-30T11:44:23.000Z</time>
      </trkpt>
      <trkpt lat="43.97419" lon="7.31104">
        <ele>506.20001220703</ele>
        <time>2019-03-30T11:44:49.000Z</time>
      </trkpt>
      <trkpt lat="43.97419" lon="7.31106">
        <ele>506.60000610352</ele>
        <time>2019-03-30T11:45:11.000Z</time>
      </trkpt>
      <trkpt lat="43.97419" lon="7.31103">
        <ele>506.20001220703</ele>
        <time>2019-03-30T11:45:22.000Z</time>
      </trkpt>
      <trkpt lat="43.9742" lon="7.31101">
        <ele>506.79998779297</ele>
        <time>2019-03-30T11:45:28.000Z</time>
      </trkpt>
      <trkpt lat="43.97422" lon="7.31099">
        <ele>507</ele>
        <time>2019-03-30T11:45:37.000Z</time>
      </trkpt>
      <trkpt lat="43.97423" lon="7.31099">
        <ele>506</ele>
        <time>2019-03-30T11:45:44.000Z</time>
      </trkpt>
      <trkpt lat="43.97424" lon="7.31098">
        <ele>506.39999389648</ele>
        <time>2019-03-30T11:45:56.000Z</time>
      </trkpt>
      <trkpt lat="43.97425" lon="7.31098">
        <ele>506.79998779297</ele>
        <time>2019-03-30T11:46:10.000Z</time>
      </trkpt>
      <trkpt lat="43.97425" lon="7.31098">
        <ele>506.20001220703</ele>
        <time>2019-03-30T11:46:17.000Z</time>
      </trkpt>
      <trkpt lat="43.97425" lon="7.31101">
        <ele>506</ele>
        <time>2019-03-30T11:46:26.000Z</time>
      </trkpt>
      <trkpt lat="43.97422" lon="7.31107">
        <ele>505.39999389648</ele>
        <time>2019-03-30T11:46:30.000Z</time>
      </trkpt>
      <trkpt lat="43.97421" lon="7.31108">
        <ele>505.39999389648</ele>
        <time>2019-03-30T11:46:31.000Z</time>
      </trkpt>
      <trkpt lat="43.97419" lon="7.31109">
        <ele>505.39999389648</ele>
        <time>2019-03-30T11:46:32.000Z</time>
      </trkpt>
      <trkpt lat="43.97416" lon="7.31112">
        <ele>505.39999389648</ele>
        <time>2019-03-30T11:46:37.000Z</time>
      </trkpt>
      <trkpt lat="43.97414" lon="7.31118">
        <ele>505.39999389648</ele>
        <time>2019-03-30T11:46:42.000Z</time>
      </trkpt>
      <trkpt lat="43.97412" lon="7.31119">
        <ele>505.39999389648</ele>
        <time>2019-03-30T11:46:47.000Z</time>
      </trkpt>
      <trkpt lat="43.97411" lon="7.31117">
        <ele>505.79998779297</ele>
        <time>2019-03-30T11:46:53.000Z</time>
      </trkpt>
      <trkpt lat="43.9741" lon="7.31117">
        <ele>505.79998779297</ele>
        <time>2019-03-30T11:47:00.000Z</time>
      </trkpt>
      <trkpt lat="43.97409" lon="7.31118">
        <ele>505.60000610352</ele>
        <time>2019-03-30T11:47:10.000Z</time>
      </trkpt>
      <trkpt lat="43.97409" lon="7.31118">
        <ele>506.39999389648</ele>
        <time>2019-03-30T11:47:17.000Z</time>
      </trkpt>
      <trkpt lat="43.97409" lon="7.31118">
        <ele>506.39999389648</ele>
        <time>2019-03-30T11:47:19.000Z</time>
      </trkpt>
      <trkpt lat="43.97408" lon="7.31123">
        <ele>506.60000610352</ele>
        <time>2019-03-30T11:47:27.000Z</time>
      </trkpt>
      <trkpt lat="43.97407" lon="7.31124">
        <ele>506.20001220703</ele>
        <time>2019-03-30T11:47:32.000Z</time>
      </trkpt>
      <trkpt lat="43.97407" lon="7.31124">
        <ele>506.79998779297</ele>
        <time>2019-03-30T11:47:39.000Z</time>
      </trkpt>
      <trkpt lat="43.97405" lon="7.31127">
        <ele>506.39999389648</ele>
        <time>2019-03-30T11:47:49.000Z</time>
      </trkpt>
      <trkpt lat="43.97404" lon="7.31128">
        <ele>506.60000610352</ele>
        <time>2019-03-30T11:47:56.000Z</time>
      </trkpt>
      <trkpt lat="43.97404" lon="7.31127">
        <ele>506.39999389648</ele>
        <time>2019-03-30T11:48:05.000Z</time>
      </trkpt>
      <trkpt lat="43.97402" lon="7.31128">
        <ele>506.39999389648</ele>
        <time>2019-03-30T11:48:17.000Z</time>
      </trkpt>
      <trkpt lat="43.97404" lon="7.31128">
        <ele>505.79998779297</ele>
        <time>2019-03-30T11:48:22.000Z</time>
      </trkpt>
      <trkpt lat="43.97405" lon="7.31129">
        <ele>506</ele>
        <time>2019-03-30T11:48:30.000Z</time>
      </trkpt>
      <trkpt lat="43.97404" lon="7.31131">
        <ele>506.39999389648</ele>
        <time>2019-03-30T11:48:39.000Z</time>
      </trkpt>
      <trkpt lat="43.97404" lon="7.31132">
        <ele>506.39999389648</ele>
        <time>2019-03-30T11:48:47.000Z</time>
      </trkpt>
      <trkpt lat="43.97405" lon="7.31131">
        <ele>506</ele>
        <time>2019-03-30T11:48:52.000Z</time>
      </trkpt>
      <trkpt lat="43.97402" lon="7.31136">
        <ele>506</ele>
        <time>2019-03-30T11:49:00.000Z</time>
      </trkpt>
      <trkpt lat="43.97402" lon="7.3114">
        <ele>505.79998779297</ele>
        <time>2019-03-30T11:49:02.000Z</time>
      </trkpt>
      <trkpt lat="43.97402" lon="7.31141">
        <ele>505.79998779297</ele>
        <time>2019-03-30T11:49:04.000Z</time>
      </trkpt>
      <trkpt lat="43.97399" lon="7.31141">
        <ele>506</ele>
        <time>2019-03-30T11:49:06.000Z</time>
      </trkpt>
      <trkpt lat="43.97398" lon="7.31141">
        <ele>506</ele>
        <time>2019-03-30T11:49:09.000Z</time>
      </trkpt>
      <trkpt lat="43.97398" lon="7.31139">
        <ele>506.39999389648</ele>
        <time>2019-03-30T11:49:14.000Z</time>
      </trkpt>
      <trkpt lat="43.974" lon="7.31143">
        <ele>506.39999389648</ele>
        <time>2019-03-30T11:49:19.000Z</time>
      </trkpt>
      <trkpt lat="43.97403" lon="7.31147">
        <ele>506.60000610352</ele>
        <time>2019-03-30T11:49:22.000Z</time>
      </trkpt>
      <trkpt lat="43.97406" lon="7.31147">
        <ele>506.60000610352</ele>
        <time>2019-03-30T11:49:24.000Z</time>
      </trkpt>
      <trkpt lat="43.97408" lon="7.31146">
        <ele>506.60000610352</ele>
        <time>2019-03-30T11:49:25.000Z</time>
      </trkpt>
      <trkpt lat="43.97419" lon="7.31134">
        <ele>506.79998779297</ele>
        <time>2019-03-30T11:49:31.000Z</time>
      </trkpt>
      <trkpt lat="43.97426" lon="7.31138">
        <ele>506.79998779297</ele>
        <time>2019-03-30T11:49:35.000Z</time>
      </trkpt>
      <trkpt lat="43.97428" lon="7.31144">
        <ele>506.79998779297</ele>
        <time>2019-03-30T11:49:37.000Z</time>
      </trkpt>
      <trkpt lat="43.9743" lon="7.31154">
        <ele>506.60000610352</ele>
        <time>2019-03-30T11:49:40.000Z</time>
      </trkpt>
      <trkpt lat="43.97437" lon="7.31176">
        <ele>506.60000610352</ele>
        <time>2019-03-30T11:49:45.000Z</time>
      </trkpt>
      <trkpt lat="43.97448" lon="7.31205">
        <ele>506</ele>
        <time>2019-03-30T11:49:53.000Z</time>
      </trkpt>
      <trkpt lat="43.97449" lon="7.31208">
        <ele>505.79998779297</ele>
        <time>2019-03-30T11:49:57.000Z</time>
      </trkpt>
      <trkpt lat="43.97452" lon="7.31207">
        <ele>506</ele>
        <time>2019-03-30T11:50:08.000Z</time>
      </trkpt>
      <trkpt lat="43.97454" lon="7.31205">
        <ele>506.20001220703</ele>
        <time>2019-03-30T11:50:25.000Z</time>
      </trkpt>
      <trkpt lat="43.97454" lon="7.31205">
        <ele>506.20001220703</ele>
        <time>2019-03-30T11:50:31.000Z</time>
      </trkpt>
      <trkpt lat="43.97455" lon="7.31204">
        <ele>506.20001220703</ele>
        <time>2019-03-30T11:50:43.000Z</time>
      </trkpt>
      <trkpt lat="43.97455" lon="7.31204">
        <ele>506.20001220703</ele>
        <time>2019-03-30T11:50:56.000Z</time>
      </trkpt>
      <trkpt lat="43.97454" lon="7.31206">
        <ele>506</ele>
        <time>2019-03-30T11:51:04.000Z</time>
      </trkpt>
      <trkpt lat="43.97452" lon="7.31206">
        <ele>506.20001220703</ele>
        <time>2019-03-30T11:51:18.000Z</time>
      </trkpt>
      <trkpt lat="43.9745" lon="7.31207">
        <ele>506.20001220703</ele>
        <time>2019-03-30T11:51:20.000Z</time>
      </trkpt>
      <trkpt lat="43.97447" lon="7.31209">
        <ele>506</ele>
        <time>2019-03-30T11:51:23.000Z</time>
      </trkpt>
      <trkpt lat="43.97451" lon="7.3122">
        <ele>506.39999389648</ele>
        <time>2019-03-30T11:51:28.000Z</time>
      </trkpt>
      <trkpt lat="43.97464" lon="7.31228">
        <ele>506.39999389648</ele>
        <time>2019-03-30T11:51:34.000Z</time>
      </trkpt>
      <trkpt lat="43.97473" lon="7.31236">
        <ele>506</ele>
        <time>2019-03-30T11:51:38.000Z</time>
      </trkpt>
      <trkpt lat="43.97473" lon="7.31239">
        <ele>506</ele>
        <time>2019-03-30T11:51:39.000Z</time>
      </trkpt>
      <trkpt lat="43.9747" lon="7.31241">
        <ele>505.60000610352</ele>
        <time>2019-03-30T11:51:42.000Z</time>
      </trkpt>
      <trkpt lat="43.97469" lon="7.31242">
        <ele>505.60000610352</ele>
        <time>2019-03-30T11:51:43.000Z</time>
      </trkpt>
      <trkpt lat="43.97469" lon="7.31242">
        <ele>505.20001220703</ele>
        <time>2019-03-30T11:51:44.000Z</time>
      </trkpt>
      <trkpt lat="43.9747" lon="7.31241">
        <ele>504.79998779297</ele>
        <time>2019-03-30T11:51:47.000Z</time>
      </trkpt>
      <trkpt lat="43.97473" lon="7.31236">
        <ele>504.20001220703</ele>
        <time>2019-03-30T11:51:59.000Z</time>
      </trkpt>
      <trkpt lat="43.97473" lon="7.31236">
        <ele>504.20001220703</ele>
        <time>2019-03-30T11:52:00.000Z</time>
      </trkpt>
      <trkpt lat="43.97474" lon="7.31234">
        <ele>505.20001220703</ele>
        <time>2019-03-30T11:52:07.000Z</time>
      </trkpt>
      <trkpt lat="43.97475" lon="7.31233">
        <ele>505.20001220703</ele>
        <time>2019-03-30T11:52:12.000Z</time>
      </trkpt>
      <trkpt lat="43.97479" lon="7.31228">
        <ele>505.20001220703</ele>
        <time>2019-03-30T11:52:32.000Z</time>
      </trkpt>
      <trkpt lat="43.97481" lon="7.31225">
        <ele>505.20001220703</ele>
        <time>2019-03-30T11:52:47.000Z</time>
      </trkpt>
      <trkpt lat="43.97478" lon="7.31228">
        <ele>505.20001220703</ele>
        <time>2019-03-30T11:52:53.000Z</time>
      </trkpt>
      <trkpt lat="43.97466" lon="7.31242">
        <ele>504.20001220703</ele>
        <time>2019-03-30T11:52:57.000Z</time>
      </trkpt>
      <trkpt lat="43.97463" lon="7.31245">
        <ele>504</ele>
        <time>2019-03-30T11:52:58.000Z</time>
      </trkpt>
      <trkpt lat="43.97454" lon="7.31255">
        <ele>502.60000610352</ele>
        <time>2019-03-30T11:53:01.000Z</time>
      </trkpt>
      <trkpt lat="43.97452" lon="7.31259">
        <ele>502.20001220703</ele>
        <time>2019-03-30T11:53:02.000Z</time>
      </trkpt>
      <trkpt lat="43.97447" lon="7.31267">
        <ele>501.39999389648</ele>
        <time>2019-03-30T11:53:04.000Z</time>
      </trkpt>
      <trkpt lat="43.97444" lon="7.31278">
        <ele>500.39999389648</ele>
        <time>2019-03-30T11:53:06.000Z</time>
      </trkpt>
      <trkpt lat="43.97444" lon="7.31284">
        <ele>500</ele>
        <time>2019-03-30T11:53:07.000Z</time>
      </trkpt>
      <trkpt lat="43.97443" lon="7.3129">
        <ele>499.60000610352</ele>
        <time>2019-03-30T11:53:08.000Z</time>
      </trkpt>
      <trkpt lat="43.97443" lon="7.31304">
        <ele>498.39999389648</ele>
        <time>2019-03-30T11:53:10.000Z</time>
      </trkpt>
      <trkpt lat="43.97442" lon="7.31309">
        <ele>497.79998779297</ele>
        <time>2019-03-30T11:53:11.000Z</time>
      </trkpt>
      <trkpt lat="43.9744" lon="7.31313">
        <ele>497</ele>
        <time>2019-03-30T11:53:12.000Z</time>
      </trkpt>
      <trkpt lat="43.97439" lon="7.31317">
        <ele>496</ele>
        <time>2019-03-30T11:53:13.000Z</time>
      </trkpt>
      <trkpt lat="43.97436" lon="7.31322">
        <ele>495.39999389648</ele>
        <time>2019-03-30T11:53:14.000Z</time>
      </trkpt>
      <trkpt lat="43.97434" lon="7.31326">
        <ele>494.79998779297</ele>
        <time>2019-03-30T11:53:15.000Z</time>
      </trkpt>
      <trkpt lat="43.97431" lon="7.31331">
        <ele>494.39999389648</ele>
        <time>2019-03-30T11:53:16.000Z</time>
      </trkpt>
      <trkpt lat="43.97428" lon="7.31337">
        <ele>493.79998779297</ele>
        <time>2019-03-30T11:53:18.000Z</time>
      </trkpt>
      <trkpt lat="43.97422" lon="7.31351">
        <ele>492.79998779297</ele>
        <time>2019-03-30T11:53:20.000Z</time>
      </trkpt>
      <trkpt lat="43.9742" lon="7.31357">
        <ele>491.60000610352</ele>
        <time>2019-03-30T11:53:21.000Z</time>
      </trkpt>
      <trkpt lat="43.97419" lon="7.31364">
        <ele>490.60000610352</ele>
        <time>2019-03-30T11:53:22.000Z</time>
      </trkpt>
      <trkpt lat="43.97418" lon="7.3137">
        <ele>489.39999389648</ele>
        <time>2019-03-30T11:53:23.000Z</time>
      </trkpt>
      <trkpt lat="43.97416" lon="7.31377">
        <ele>488.39999389648</ele>
        <time>2019-03-30T11:53:24.000Z</time>
      </trkpt>
      <trkpt lat="43.97414" lon="7.31383">
        <ele>487.39999389648</ele>
        <time>2019-03-30T11:53:25.000Z</time>
      </trkpt>
      <trkpt lat="43.9741" lon="7.31393">
        <ele>485.60000610352</ele>
        <time>2019-03-30T11:53:27.000Z</time>
      </trkpt>
      <trkpt lat="43.97406" lon="7.31398">
        <ele>485</ele>
        <time>2019-03-30T11:53:28.000Z</time>
      </trkpt>
      <trkpt lat="43.974" lon="7.31403">
        <ele>484</ele>
        <time>2019-03-30T11:53:29.000Z</time>
      </trkpt>
      <trkpt lat="43.97389" lon="7.3141">
        <ele>482.39999389648</ele>
        <time>2019-03-30T11:53:31.000Z</time>
      </trkpt>
      <trkpt lat="43.97385" lon="7.31413">
        <ele>481.79998779297</ele>
        <time>2019-03-30T11:53:32.000Z</time>
      </trkpt>
      <trkpt lat="43.97382" lon="7.31417">
        <ele>481</ele>
        <time>2019-03-30T11:53:33.000Z</time>
      </trkpt>
      <trkpt lat="43.97378" lon="7.31422">
        <ele>479.79998779297</ele>
        <time>2019-03-30T11:53:35.000Z</time>
      </trkpt>
      <trkpt lat="43.97382" lon="7.31433">
        <ele>479.20001220703</ele>
        <time>2019-03-30T11:53:39.000Z</time>
      </trkpt>
      <trkpt lat="43.97388" lon="7.3144">
        <ele>479.39999389648</ele>
        <time>2019-03-30T11:53:43.000Z</time>
      </trkpt>
      <trkpt lat="43.97399" lon="7.31441">
        <ele>480</ele>
        <time>2019-03-30T11:53:48.000Z</time>
      </trkpt>
      <trkpt lat="43.97409" lon="7.31439">
        <ele>480.20001220703</ele>
        <time>2019-03-30T11:53:53.000Z</time>
      </trkpt>
      <trkpt lat="43.97411" lon="7.3144">
        <ele>480.20001220703</ele>
        <time>2019-03-30T11:53:54.000Z</time>
      </trkpt>
      <trkpt lat="43.97417" lon="7.31444">
        <ele>481</ele>
        <time>2019-03-30T11:53:58.000Z</time>
      </trkpt>
      <trkpt lat="43.97421" lon="7.31445">
        <ele>481.39999389648</ele>
        <time>2019-03-30T11:54:00.000Z</time>
      </trkpt>
      <trkpt lat="43.97423" lon="7.31447">
        <ele>481.79998779297</ele>
        <time>2019-03-30T11:54:02.000Z</time>
      </trkpt>
      <trkpt lat="43.97425" lon="7.31449">
        <ele>482.20001220703</ele>
        <time>2019-03-30T11:54:04.000Z</time>
      </trkpt>
      <trkpt lat="43.97426" lon="7.31451">
        <ele>482.60000610352</ele>
        <time>2019-03-30T11:54:06.000Z</time>
      </trkpt>
      <trkpt lat="43.97429" lon="7.31452">
        <ele>482.79998779297</ele>
        <time>2019-03-30T11:54:08.000Z</time>
      </trkpt>
      <trkpt lat="43.97433" lon="7.31452">
        <ele>483.20001220703</ele>
        <time>2019-03-30T11:54:10.000Z</time>
      </trkpt>
      <trkpt lat="43.97434" lon="7.31452">
        <ele>483.20001220703</ele>
        <time>2019-03-30T11:54:11.000Z</time>
      </trkpt>
      <trkpt lat="43.97436" lon="7.31452">
        <ele>483.39999389648</ele>
        <time>2019-03-30T11:54:12.000Z</time>
      </trkpt>
      <trkpt lat="43.97439" lon="7.31453">
        <ele>483.60000610352</ele>
        <time>2019-03-30T11:54:14.000Z</time>
      </trkpt>
      <trkpt lat="43.97444" lon="7.31454">
        <ele>484</ele>
        <time>2019-03-30T11:54:17.000Z</time>
      </trkpt>
      <trkpt lat="43.97446" lon="7.31458">
        <ele>484.20001220703</ele>
        <time>2019-03-30T11:54:21.000Z</time>
      </trkpt>
      <trkpt lat="43.97446" lon="7.31459">
        <ele>484.39999389648</ele>
        <time>2019-03-30T11:54:22.000Z</time>
      </trkpt>
      <trkpt lat="43.97449" lon="7.31462">
        <ele>484.60000610352</ele>
        <time>2019-03-30T11:54:26.000Z</time>
      </trkpt>
      <trkpt lat="43.9745" lon="7.31461">
        <ele>485</ele>
        <time>2019-03-30T11:54:28.000Z</time>
      </trkpt>
      <trkpt lat="43.97452" lon="7.31461">
        <ele>484.79998779297</ele>
        <time>2019-03-30T11:54:36.000Z</time>
      </trkpt>
      <trkpt lat="43.97456" lon="7.3146">
        <ele>485</ele>
        <time>2019-03-30T11:54:47.000Z</time>
      </trkpt>
      <trkpt lat="43.97458" lon="7.31459">
        <ele>485</ele>
        <time>2019-03-30T11:54:56.000Z</time>
      </trkpt>
      <trkpt lat="43.97459" lon="7.31459">
        <ele>485</ele>
        <time>2019-03-30T11:55:04.000Z</time>
      </trkpt>
      <trkpt lat="43.9746" lon="7.31458">
        <ele>485</ele>
        <time>2019-03-30T11:55:17.000Z</time>
      </trkpt>
      <trkpt lat="43.97462" lon="7.31464">
        <ele>485</ele>
        <time>2019-03-30T11:55:24.000Z</time>
      </trkpt>
      <trkpt lat="43.97463" lon="7.31465">
        <ele>485.20001220703</ele>
        <time>2019-03-30T11:55:25.000Z</time>
      </trkpt>
      <trkpt lat="43.97464" lon="7.31466">
        <ele>485.39999389648</ele>
        <time>2019-03-30T11:55:26.000Z</time>
      </trkpt>
      <trkpt lat="43.97467" lon="7.31467">
        <ele>485.60000610352</ele>
        <time>2019-03-30T11:55:28.000Z</time>
      </trkpt>
      <trkpt lat="43.97474" lon="7.31466">
        <ele>486</ele>
        <time>2019-03-30T11:55:31.000Z</time>
      </trkpt>
      <trkpt lat="43.97477" lon="7.31464">
        <ele>486.20001220703</ele>
        <time>2019-03-30T11:55:32.000Z</time>
      </trkpt>
      <trkpt lat="43.97482" lon="7.31464">
        <ele>486.20001220703</ele>
        <time>2019-03-30T11:55:35.000Z</time>
      </trkpt>
      <trkpt lat="43.97484" lon="7.31466">
        <ele>486.39999389648</ele>
        <time>2019-03-30T11:55:37.000Z</time>
      </trkpt>
      <trkpt lat="43.97488" lon="7.31472">
        <ele>487.20001220703</ele>
        <time>2019-03-30T11:55:41.000Z</time>
      </trkpt>
      <trkpt lat="43.97489" lon="7.31473">
        <ele>487.39999389648</ele>
        <time>2019-03-30T11:55:42.000Z</time>
      </trkpt>
      <trkpt lat="43.97492" lon="7.31476">
        <ele>488.60000610352</ele>
        <time>2019-03-30T11:55:45.000Z</time>
      </trkpt>
      <trkpt lat="43.97494" lon="7.31478">
        <ele>489.20001220703</ele>
        <time>2019-03-30T11:55:47.000Z</time>
      </trkpt>
      <trkpt lat="43.97496" lon="7.31478">
        <ele>489.60000610352</ele>
        <time>2019-03-30T11:55:48.000Z</time>
      </trkpt>
      <trkpt lat="43.97498" lon="7.31479">
        <ele>489.60000610352</ele>
        <time>2019-03-30T11:55:49.000Z</time>
      </trkpt>
      <trkpt lat="43.97501" lon="7.31481">
        <ele>490</ele>
        <time>2019-03-30T11:55:51.000Z</time>
      </trkpt>
      <trkpt lat="43.97506" lon="7.31484">
        <ele>490.79998779297</ele>
        <time>2019-03-30T11:55:55.000Z</time>
      </trkpt>
      <trkpt lat="43.97509" lon="7.31488">
        <ele>491.39999389648</ele>
        <time>2019-03-30T11:55:58.000Z</time>
      </trkpt>
      <trkpt lat="43.97511" lon="7.31491">
        <ele>491.79998779297</ele>
        <time>2019-03-30T11:56:00.000Z</time>
      </trkpt>
      <trkpt lat="43.97517" lon="7.31497">
        <ele>492.39999389648</ele>
        <time>2019-03-30T11:56:04.000Z</time>
      </trkpt>
      <trkpt lat="43.97518" lon="7.31498">
        <ele>492.79998779297</ele>
        <time>2019-03-30T11:56:05.000Z</time>
      </trkpt>
      <trkpt lat="43.97521" lon="7.31501">
        <ele>494</ele>
        <time>2019-03-30T11:56:08.000Z</time>
      </trkpt>
      <trkpt lat="43.97523" lon="7.31505">
        <ele>494.79998779297</ele>
        <time>2019-03-30T11:56:11.000Z</time>
      </trkpt>
      <trkpt lat="43.97524" lon="7.31506">
        <ele>495.20001220703</ele>
        <time>2019-03-30T11:56:12.000Z</time>
      </trkpt>
      <trkpt lat="43.97524" lon="7.31514">
        <ele>496.39999389648</ele>
        <time>2019-03-30T11:56:16.000Z</time>
      </trkpt>
      <trkpt lat="43.97524" lon="7.31516">
        <ele>496.60000610352</ele>
        <time>2019-03-30T11:56:17.000Z</time>
      </trkpt>
      <trkpt lat="43.97523" lon="7.31518">
        <ele>497.60000610352</ele>
        <time>2019-03-30T11:56:20.000Z</time>
      </trkpt>
      <trkpt lat="43.97521" lon="7.31521">
        <ele>498</ele>
        <time>2019-03-30T11:56:23.000Z</time>
      </trkpt>
      <trkpt lat="43.97521" lon="7.31526">
        <ele>498.79998779297</ele>
        <time>2019-03-30T11:56:26.000Z</time>
      </trkpt>
      <trkpt lat="43.9752" lon="7.31528">
        <ele>499.60000610352</ele>
        <time>2019-03-30T11:56:28.000Z</time>
      </trkpt>
      <trkpt lat="43.9752" lon="7.31529">
        <ele>499.79998779297</ele>
        <time>2019-03-30T11:56:29.000Z</time>
      </trkpt>
      <trkpt lat="43.9752" lon="7.31538">
        <ele>500.79998779297</ele>
        <time>2019-03-30T11:56:35.000Z</time>
      </trkpt>
      <trkpt lat="43.97521" lon="7.31539">
        <ele>501</ele>
        <time>2019-03-30T11:56:36.000Z</time>
      </trkpt>
      <trkpt lat="43.97521" lon="7.31546">
        <ele>502</ele>
        <time>2019-03-30T11:56:41.000Z</time>
      </trkpt>
      <trkpt lat="43.97521" lon="7.31547">
        <ele>502.20001220703</ele>
        <time>2019-03-30T11:56:42.000Z</time>
      </trkpt>
      <trkpt lat="43.97521" lon="7.31547">
        <ele>503</ele>
        <time>2019-03-30T11:56:46.000Z</time>
      </trkpt>
      <trkpt lat="43.97521" lon="7.31547">
        <ele>503.20001220703</ele>
        <time>2019-03-30T11:56:47.000Z</time>
      </trkpt>
      <trkpt lat="43.97521" lon="7.31551">
        <ele>503.60000610352</ele>
        <time>2019-03-30T11:56:58.000Z</time>
      </trkpt>
      <trkpt lat="43.97521" lon="7.31554">
        <ele>503.60000610352</ele>
        <time>2019-03-30T11:57:03.000Z</time>
      </trkpt>
      <trkpt lat="43.97522" lon="7.3156">
        <ele>504</ele>
        <time>2019-03-30T11:57:08.000Z</time>
      </trkpt>
      <trkpt lat="43.97522" lon="7.31562">
        <ele>504.20001220703</ele>
        <time>2019-03-30T11:57:09.000Z</time>
      </trkpt>
      <trkpt lat="43.97522" lon="7.31566">
        <ele>504.39999389648</ele>
        <time>2019-03-30T11:57:11.000Z</time>
      </trkpt>
      <trkpt lat="43.97523" lon="7.31572">
        <ele>505</ele>
        <time>2019-03-30T11:57:14.000Z</time>
      </trkpt>
      <trkpt lat="43.97523" lon="7.31575">
        <ele>505.20001220703</ele>
        <time>2019-03-30T11:57:15.000Z</time>
      </trkpt>
      <trkpt lat="43.97525" lon="7.31586">
        <ele>506.20001220703</ele>
        <time>2019-03-30T11:57:20.000Z</time>
      </trkpt>
      <trkpt lat="43.97528" lon="7.31595">
        <ele>507.39999389648</ele>
        <time>2019-03-30T11:57:25.000Z</time>
      </trkpt>
      <trkpt lat="43.9753" lon="7.31599">
        <ele>508.20001220703</ele>
        <time>2019-03-30T11:57:28.000Z</time>
      </trkpt>
      <trkpt lat="43.97531" lon="7.31601">
        <ele>508.60000610352</ele>
        <time>2019-03-30T11:57:29.000Z</time>
      </trkpt>
      <trkpt lat="43.97536" lon="7.31612">
        <ele>509.60000610352</ele>
        <time>2019-03-30T11:57:35.000Z</time>
      </trkpt>
      <trkpt lat="43.9754" lon="7.31628">
        <ele>510.79998779297</ele>
        <time>2019-03-30T11:57:43.000Z</time>
      </trkpt>
      <trkpt lat="43.97541" lon="7.31634">
        <ele>511.39999389648</ele>
        <time>2019-03-30T11:57:46.000Z</time>
      </trkpt>
      <trkpt lat="43.97541" lon="7.31637">
        <ele>511.79998779297</ele>
        <time>2019-03-30T11:57:48.000Z</time>
      </trkpt>
      <trkpt lat="43.97542" lon="7.31639">
        <ele>512</ele>
        <time>2019-03-30T11:57:49.000Z</time>
      </trkpt>
      <trkpt lat="43.97544" lon="7.31643">
        <ele>512.59997558594</ele>
        <time>2019-03-30T11:57:52.000Z</time>
      </trkpt>
      <trkpt lat="43.97545" lon="7.31646">
        <ele>513</ele>
        <time>2019-03-30T11:57:54.000Z</time>
      </trkpt>
      <trkpt lat="43.97548" lon="7.31649">
        <ele>514.20001220703</ele>
        <time>2019-03-30T11:57:58.000Z</time>
      </trkpt>
      <trkpt lat="43.97549" lon="7.3165">
        <ele>514.40002441406</ele>
        <time>2019-03-30T11:57:59.000Z</time>
      </trkpt>
      <trkpt lat="43.97553" lon="7.3165">
        <ele>515.20001220703</ele>
        <time>2019-03-30T11:58:04.000Z</time>
      </trkpt>
      <trkpt lat="43.97554" lon="7.31651">
        <ele>515.40002441406</ele>
        <time>2019-03-30T11:58:05.000Z</time>
      </trkpt>
      <trkpt lat="43.97561" lon="7.31652">
        <ele>516.40002441406</ele>
        <time>2019-03-30T11:58:11.000Z</time>
      </trkpt>
      <trkpt lat="43.97561" lon="7.31652">
        <ele>516.59997558594</ele>
        <time>2019-03-30T11:58:12.000Z</time>
      </trkpt>
      <trkpt lat="43.97565" lon="7.31652">
        <ele>517.40002441406</ele>
        <time>2019-03-30T11:58:16.000Z</time>
      </trkpt>
      <trkpt lat="43.97568" lon="7.31652">
        <ele>518</ele>
        <time>2019-03-30T11:58:20.000Z</time>
      </trkpt>
      <trkpt lat="43.9757" lon="7.31653">
        <ele>518.59997558594</ele>
        <time>2019-03-30T11:58:22.000Z</time>
      </trkpt>
      <trkpt lat="43.97574" lon="7.31656">
        <ele>519.59997558594</ele>
        <time>2019-03-30T11:58:27.000Z</time>
      </trkpt>
      <trkpt lat="43.97575" lon="7.31657">
        <ele>519.79998779297</ele>
        <time>2019-03-30T11:58:29.000Z</time>
      </trkpt>
      <trkpt lat="43.97577" lon="7.31659">
        <ele>520.40002441406</ele>
        <time>2019-03-30T11:58:32.000Z</time>
      </trkpt>
      <trkpt lat="43.97578" lon="7.31661">
        <ele>520.59997558594</ele>
        <time>2019-03-30T11:58:33.000Z</time>
      </trkpt>
      <trkpt lat="43.97579" lon="7.31664">
        <ele>521</ele>
        <time>2019-03-30T11:58:36.000Z</time>
      </trkpt>
      <trkpt lat="43.97581" lon="7.31666">
        <ele>521.59997558594</ele>
        <time>2019-03-30T11:58:39.000Z</time>
      </trkpt>
      <trkpt lat="43.97583" lon="7.3167">
        <ele>522.40002441406</ele>
        <time>2019-03-30T11:58:43.000Z</time>
      </trkpt>
      <trkpt lat="43.97584" lon="7.31671">
        <ele>522.59997558594</ele>
        <time>2019-03-30T11:58:44.000Z</time>
      </trkpt>
      <trkpt lat="43.97585" lon="7.31672">
        <ele>522.79998779297</ele>
        <time>2019-03-30T11:58:45.000Z</time>
      </trkpt>
      <trkpt lat="43.97586" lon="7.31676">
        <ele>523.59997558594</ele>
        <time>2019-03-30T11:58:49.000Z</time>
      </trkpt>
      <trkpt lat="43.97587" lon="7.31679">
        <ele>524</ele>
        <time>2019-03-30T11:58:52.000Z</time>
      </trkpt>
      <trkpt lat="43.97589" lon="7.31681">
        <ele>524.20001220703</ele>
        <time>2019-03-30T11:58:55.000Z</time>
      </trkpt>
      <trkpt lat="43.9759" lon="7.31684">
        <ele>525</ele>
        <time>2019-03-30T11:58:59.000Z</time>
      </trkpt>
      <trkpt lat="43.97592" lon="7.31687">
        <ele>525.79998779297</ele>
        <time>2019-03-30T11:59:03.000Z</time>
      </trkpt>
      <trkpt lat="43.97593" lon="7.31687">
        <ele>526.20001220703</ele>
        <time>2019-03-30T11:59:04.000Z</time>
      </trkpt>
      <trkpt lat="43.97594" lon="7.31688">
        <ele>527.40002441406</ele>
        <time>2019-03-30T11:59:09.000Z</time>
      </trkpt>
      <trkpt lat="43.97596" lon="7.31688">
        <ele>527.59997558594</ele>
        <time>2019-03-30T11:59:10.000Z</time>
      </trkpt>
      <trkpt lat="43.97599" lon="7.31688">
        <ele>528.40002441406</ele>
        <time>2019-03-30T11:59:14.000Z</time>
      </trkpt>
      <trkpt lat="43.97603" lon="7.31688">
        <ele>529.59997558594</ele>
        <time>2019-03-30T11:59:19.000Z</time>
      </trkpt>
      <trkpt lat="43.97607" lon="7.31689">
        <ele>530.59997558594</ele>
        <time>2019-03-30T11:59:25.000Z</time>
      </trkpt>
      <trkpt lat="43.97608" lon="7.3169">
        <ele>531</ele>
        <time>2019-03-30T11:59:27.000Z</time>
      </trkpt>
      <trkpt lat="43.97611" lon="7.31692">
        <ele>531.59997558594</ele>
        <time>2019-03-30T11:59:33.000Z</time>
      </trkpt>
      <trkpt lat="43.97612" lon="7.31693">
        <ele>532</ele>
        <time>2019-03-30T11:59:35.000Z</time>
      </trkpt>
      <trkpt lat="43.97613" lon="7.31694">
        <ele>532.79998779297</ele>
        <time>2019-03-30T11:59:39.000Z</time>
      </trkpt>
      <trkpt lat="43.97613" lon="7.31695">
        <ele>533.40002441406</ele>
        <time>2019-03-30T11:59:43.000Z</time>
      </trkpt>
      <trkpt lat="43.97616" lon="7.31698">
        <ele>533.40002441406</ele>
        <time>2019-03-30T11:59:50.000Z</time>
      </trkpt>
      <trkpt lat="43.97617" lon="7.31699">
        <ele>533.40002441406</ele>
        <time>2019-03-30T11:59:51.000Z</time>
      </trkpt>
      <trkpt lat="43.97618" lon="7.31702">
        <ele>533.79998779297</ele>
        <time>2019-03-30T11:59:53.000Z</time>
      </trkpt>
      <trkpt lat="43.97623" lon="7.31706">
        <ele>534.20001220703</ele>
        <time>2019-03-30T11:59:56.000Z</time>
      </trkpt>
      <trkpt lat="43.9763" lon="7.31716">
        <ele>534.79998779297</ele>
        <time>2019-03-30T12:00:02.000Z</time>
      </trkpt>
      <trkpt lat="43.97632" lon="7.31719">
        <ele>535.20001220703</ele>
        <time>2019-03-30T12:00:04.000Z</time>
      </trkpt>
      <trkpt lat="43.97632" lon="7.3172">
        <ele>535.59997558594</ele>
        <time>2019-03-30T12:00:05.000Z</time>
      </trkpt>
      <trkpt lat="43.97634" lon="7.31723">
        <ele>536</ele>
        <time>2019-03-30T12:00:07.000Z</time>
      </trkpt>
      <trkpt lat="43.97635" lon="7.31726">
        <ele>536.40002441406</ele>
        <time>2019-03-30T12:00:09.000Z</time>
      </trkpt>
      <trkpt lat="43.97637" lon="7.31729">
        <ele>537</ele>
        <time>2019-03-30T12:00:11.000Z</time>
      </trkpt>
      <trkpt lat="43.97638" lon="7.3173">
        <ele>537.40002441406</ele>
        <time>2019-03-30T12:00:12.000Z</time>
      </trkpt>
      <trkpt lat="43.97638" lon="7.31731">
        <ele>537.59997558594</ele>
        <time>2019-03-30T12:00:13.000Z</time>
      </trkpt>
      <trkpt lat="43.9764" lon="7.31734">
        <ele>538.20001220703</ele>
        <time>2019-03-30T12:00:15.000Z</time>
      </trkpt>
      <trkpt lat="43.97641" lon="7.31735">
        <ele>538.40002441406</ele>
        <time>2019-03-30T12:00:16.000Z</time>
      </trkpt>
      <trkpt lat="43.97645" lon="7.31741">
        <ele>539.59997558594</ele>
        <time>2019-03-30T12:00:21.000Z</time>
      </trkpt>
      <trkpt lat="43.97646" lon="7.31742">
        <ele>539.79998779297</ele>
        <time>2019-03-30T12:00:22.000Z</time>
      </trkpt>
      <trkpt lat="43.97648" lon="7.31745">
        <ele>540</ele>
        <time>2019-03-30T12:00:24.000Z</time>
      </trkpt>
      <trkpt lat="43.9765" lon="7.31749">
        <ele>540.59997558594</ele>
        <time>2019-03-30T12:00:27.000Z</time>
      </trkpt>
      <trkpt lat="43.97653" lon="7.31753">
        <ele>541.40002441406</ele>
        <time>2019-03-30T12:00:30.000Z</time>
      </trkpt>
      <trkpt lat="43.97654" lon="7.31755">
        <ele>541.79998779297</ele>
        <time>2019-03-30T12:00:32.000Z</time>
      </trkpt>
      <trkpt lat="43.97655" lon="7.31757">
        <ele>542</ele>
        <time>2019-03-30T12:00:33.000Z</time>
      </trkpt>
      <trkpt lat="43.97656" lon="7.31758">
        <ele>542</ele>
        <time>2019-03-30T12:00:34.000Z</time>
      </trkpt>
      <trkpt lat="43.97661" lon="7.31763">
        <ele>543</ele>
        <time>2019-03-30T12:00:39.000Z</time>
      </trkpt>
      <trkpt lat="43.97664" lon="7.31766">
        <ele>543.40002441406</ele>
        <time>2019-03-30T12:00:42.000Z</time>
      </trkpt>
      <trkpt lat="43.97661" lon="7.31768">
        <ele>544</ele>
        <time>2019-03-30T12:00:46.000Z</time>
      </trkpt>
      <trkpt lat="43.9766" lon="7.31767">
        <ele>544</ele>
        <time>2019-03-30T12:00:47.000Z</time>
      </trkpt>
      <trkpt lat="43.97653" lon="7.31761">
        <ele>544.79998779297</ele>
        <time>2019-03-30T12:00:53.000Z</time>
      </trkpt>
      <trkpt lat="43.97651" lon="7.31759">
        <ele>545</ele>
        <time>2019-03-30T12:00:55.000Z</time>
      </trkpt>
      <trkpt lat="43.97647" lon="7.31756">
        <ele>545.59997558594</ele>
        <time>2019-03-30T12:00:59.000Z</time>
      </trkpt>
      <trkpt lat="43.97644" lon="7.31754">
        <ele>546</ele>
        <time>2019-03-30T12:01:01.000Z</time>
      </trkpt>
      <trkpt lat="43.97638" lon="7.31752">
        <ele>547</ele>
        <time>2019-03-30T12:01:06.000Z</time>
      </trkpt>
      <trkpt lat="43.97637" lon="7.31752">
        <ele>547</ele>
        <time>2019-03-30T12:01:07.000Z</time>
      </trkpt>
      <trkpt lat="43.97628" lon="7.31748">
        <ele>548</ele>
        <time>2019-03-30T12:01:14.000Z</time>
      </trkpt>
      <trkpt lat="43.97626" lon="7.31748">
        <ele>548.20001220703</ele>
        <time>2019-03-30T12:01:15.000Z</time>
      </trkpt>
      <trkpt lat="43.97614" lon="7.31746">
        <ele>549.40002441406</ele>
        <time>2019-03-30T12:01:24.000Z</time>
      </trkpt>
      <trkpt lat="43.97603" lon="7.31744">
        <ele>550.40002441406</ele>
        <time>2019-03-30T12:01:31.000Z</time>
      </trkpt>
      <trkpt lat="43.97599" lon="7.31744">
        <ele>550.79998779297</ele>
        <time>2019-03-30T12:01:34.000Z</time>
      </trkpt>
      <trkpt lat="43.97593" lon="7.31744">
        <ele>551.59997558594</ele>
        <time>2019-03-30T12:01:37.000Z</time>
      </trkpt>
      <trkpt lat="43.97588" lon="7.31744">
        <ele>552</ele>
        <time>2019-03-30T12:01:40.000Z</time>
      </trkpt>
      <trkpt lat="43.97581" lon="7.31744">
        <ele>552.59997558594</ele>
        <time>2019-03-30T12:01:44.000Z</time>
      </trkpt>
      <trkpt lat="43.97576" lon="7.31746">
        <ele>552.79998779297</ele>
        <time>2019-03-30T12:01:47.000Z</time>
      </trkpt>
      <trkpt lat="43.97558" lon="7.31753">
        <ele>553.59997558594</ele>
        <time>2019-03-30T12:01:56.000Z</time>
      </trkpt>
      <trkpt lat="43.97556" lon="7.31754">
        <ele>553.59997558594</ele>
        <time>2019-03-30T12:01:57.000Z</time>
      </trkpt>
      <trkpt lat="43.97541" lon="7.31761">
        <ele>554.59997558594</ele>
        <time>2019-03-30T12:02:04.000Z</time>
      </trkpt>
      <trkpt lat="43.97539" lon="7.31762">
        <ele>554.59997558594</ele>
        <time>2019-03-30T12:02:05.000Z</time>
      </trkpt>
      <trkpt lat="43.97537" lon="7.31763">
        <ele>554.79998779297</ele>
        <time>2019-03-30T12:02:06.000Z</time>
      </trkpt>
      <trkpt lat="43.97517" lon="7.31764">
        <ele>555.79998779297</ele>
        <time>2019-03-30T12:02:14.000Z</time>
      </trkpt>
      <trkpt lat="43.97501" lon="7.31761">
        <ele>557</ele>
        <time>2019-03-30T12:02:21.000Z</time>
      </trkpt>
      <trkpt lat="43.97484" lon="7.31756">
        <ele>558</ele>
        <time>2019-03-30T12:02:28.000Z</time>
      </trkpt>
      <trkpt lat="43.97481" lon="7.31755">
        <ele>558</ele>
        <time>2019-03-30T12:02:29.000Z</time>
      </trkpt>
      <trkpt lat="43.9746" lon="7.31752">
        <ele>559</ele>
        <time>2019-03-30T12:02:37.000Z</time>
      </trkpt>
      <trkpt lat="43.97457" lon="7.31752">
        <ele>559</ele>
        <time>2019-03-30T12:02:38.000Z</time>
      </trkpt>
      <trkpt lat="43.97438" lon="7.31757">
        <ele>560</ele>
        <time>2019-03-30T12:02:46.000Z</time>
      </trkpt>
      <trkpt lat="43.97436" lon="7.31758">
        <ele>560.20001220703</ele>
        <time>2019-03-30T12:02:47.000Z</time>
      </trkpt>
      <trkpt lat="43.97426" lon="7.31762">
        <ele>561</ele>
        <time>2019-03-30T12:02:52.000Z</time>
      </trkpt>
      <trkpt lat="43.97422" lon="7.31763">
        <ele>561.59997558594</ele>
        <time>2019-03-30T12:02:55.000Z</time>
      </trkpt>
      <trkpt lat="43.9742" lon="7.31763">
        <ele>562</ele>
        <time>2019-03-30T12:03:01.000Z</time>
      </trkpt>
      <trkpt lat="43.97418" lon="7.3176">
        <ele>561.20001220703</ele>
        <time>2019-03-30T12:03:19.000Z</time>
      </trkpt>
      <trkpt lat="43.9742" lon="7.31757">
        <ele>561.20001220703</ele>
        <time>2019-03-30T12:03:41.000Z</time>
      </trkpt>
      <trkpt lat="43.97424" lon="7.31756">
        <ele>561.20001220703</ele>
        <time>2019-03-30T12:04:04.000Z</time>
      </trkpt>
      <trkpt lat="43.97425" lon="7.31755">
        <ele>561.40002441406</ele>
        <time>2019-03-30T12:04:14.000Z</time>
      </trkpt>
      <trkpt lat="43.97424" lon="7.31753">
        <ele>561.20001220703</ele>
        <time>2019-03-30T12:04:25.000Z</time>
      </trkpt>
      <trkpt lat="43.97419" lon="7.31754">
        <ele>561.20001220703</ele>
        <time>2019-03-30T12:04:34.000Z</time>
      </trkpt>
      <trkpt lat="43.97411" lon="7.31757">
        <ele>562</ele>
        <time>2019-03-30T12:04:40.000Z</time>
      </trkpt>
      <trkpt lat="43.97409" lon="7.31758">
        <ele>562</ele>
        <time>2019-03-30T12:04:41.000Z</time>
      </trkpt>
      <trkpt lat="43.97397" lon="7.31763">
        <ele>562.79998779297</ele>
        <time>2019-03-30T12:04:48.000Z</time>
      </trkpt>
      <trkpt lat="43.9738" lon="7.31775">
        <ele>563</ele>
        <time>2019-03-30T12:04:55.000Z</time>
      </trkpt>
      <trkpt lat="43.97376" lon="7.3178">
        <ele>563</ele>
        <time>2019-03-30T12:04:57.000Z</time>
      </trkpt>
      <trkpt lat="43.97369" lon="7.3179">
        <ele>563.20001220703</ele>
        <time>2019-03-30T12:05:01.000Z</time>
      </trkpt>
      <trkpt lat="43.9736" lon="7.31802">
        <ele>563.59997558594</ele>
        <time>2019-03-30T12:05:07.000Z</time>
      </trkpt>
      <trkpt lat="43.97356" lon="7.31807">
        <ele>564.40002441406</ele>
        <time>2019-03-30T12:05:10.000Z</time>
      </trkpt>
      <trkpt lat="43.97352" lon="7.31811">
        <ele>565</ele>
        <time>2019-03-30T12:05:13.000Z</time>
      </trkpt>
      <trkpt lat="43.9735" lon="7.31814">
        <ele>565.40002441406</ele>
        <time>2019-03-30T12:05:15.000Z</time>
      </trkpt>
      <trkpt lat="43.97343" lon="7.31821">
        <ele>566.20001220703</ele>
        <time>2019-03-30T12:05:20.000Z</time>
      </trkpt>
      <trkpt lat="43.97339" lon="7.31825">
        <ele>566.40002441406</ele>
        <time>2019-03-30T12:05:23.000Z</time>
      </trkpt>
      <trkpt lat="43.97336" lon="7.31828">
        <ele>566.79998779297</ele>
        <time>2019-03-30T12:05:26.000Z</time>
      </trkpt>
      <trkpt lat="43.97334" lon="7.31829">
        <ele>566.79998779297</ele>
        <time>2019-03-30T12:05:27.000Z</time>
      </trkpt>
      <trkpt lat="43.97329" lon="7.31832">
        <ele>567.20001220703</ele>
        <time>2019-03-30T12:05:30.000Z</time>
      </trkpt>
      <trkpt lat="43.97326" lon="7.31836">
        <ele>567.40002441406</ele>
        <time>2019-03-30T12:05:33.000Z</time>
      </trkpt>
      <trkpt lat="43.97325" lon="7.31837">
        <ele>567.59997558594</ele>
        <time>2019-03-30T12:05:34.000Z</time>
      </trkpt>
      <trkpt lat="43.97323" lon="7.31839">
        <ele>568.40002441406</ele>
        <time>2019-03-30T12:05:37.000Z</time>
      </trkpt>
      <trkpt lat="43.97322" lon="7.31839">
        <ele>568.79998779297</ele>
        <time>2019-03-30T12:05:39.000Z</time>
      </trkpt>
      <trkpt lat="43.9732" lon="7.3184">
        <ele>569</ele>
        <time>2019-03-30T12:05:43.000Z</time>
      </trkpt>
      <trkpt lat="43.9732" lon="7.31843">
        <ele>569</ele>
        <time>2019-03-30T12:05:49.000Z</time>
      </trkpt>
      <trkpt lat="43.97319" lon="7.31846">
        <ele>568.79998779297</ele>
        <time>2019-03-30T12:05:55.000Z</time>
      </trkpt>
      <trkpt lat="43.97317" lon="7.31852">
        <ele>569</ele>
        <time>2019-03-30T12:06:02.000Z</time>
      </trkpt>
      <trkpt lat="43.97316" lon="7.31853">
        <ele>569.20001220703</ele>
        <time>2019-03-30T12:06:03.000Z</time>
      </trkpt>
      <trkpt lat="43.97316" lon="7.31856">
        <ele>569.79998779297</ele>
        <time>2019-03-30T12:06:07.000Z</time>
      </trkpt>
      <trkpt lat="43.97314" lon="7.31858">
        <ele>570.59997558594</ele>
        <time>2019-03-30T12:06:10.000Z</time>
      </trkpt>
      <trkpt lat="43.97313" lon="7.3186">
        <ele>571</ele>
        <time>2019-03-30T12:06:12.000Z</time>
      </trkpt>
      <trkpt lat="43.9731" lon="7.31865">
        <ele>572.20001220703</ele>
        <time>2019-03-30T12:06:17.000Z</time>
      </trkpt>
      <trkpt lat="43.97307" lon="7.31869">
        <ele>573.40002441406</ele>
        <time>2019-03-30T12:06:23.000Z</time>
      </trkpt>
      <trkpt lat="43.97304" lon="7.31874">
        <ele>574.59997558594</ele>
        <time>2019-03-30T12:06:29.000Z</time>
      </trkpt>
      <trkpt lat="43.97303" lon="7.31875">
        <ele>574.59997558594</ele>
        <time>2019-03-30T12:06:30.000Z</time>
      </trkpt>
      <trkpt lat="43.97301" lon="7.31877">
        <ele>575.59997558594</ele>
        <time>2019-03-30T12:06:35.000Z</time>
      </trkpt>
      <trkpt lat="43.97299" lon="7.31879">
        <ele>576.20001220703</ele>
        <time>2019-03-30T12:06:38.000Z</time>
      </trkpt>
      <trkpt lat="43.97297" lon="7.31881">
        <ele>576.59997558594</ele>
        <time>2019-03-30T12:06:41.000Z</time>
      </trkpt>
      <trkpt lat="43.97294" lon="7.31883">
        <ele>577.40002441406</ele>
        <time>2019-03-30T12:06:46.000Z</time>
      </trkpt>
      <trkpt lat="43.97294" lon="7.31883">
        <ele>577.79998779297</ele>
        <time>2019-03-30T12:06:48.000Z</time>
      </trkpt>
      <trkpt lat="43.97292" lon="7.31885">
        <ele>578.79998779297</ele>
        <time>2019-03-30T12:06:53.000Z</time>
      </trkpt>
      <trkpt lat="43.97291" lon="7.31885">
        <ele>578.79998779297</ele>
        <time>2019-03-30T12:06:54.000Z</time>
      </trkpt>
      <trkpt lat="43.97287" lon="7.31885">
        <ele>579.79998779297</ele>
        <time>2019-03-30T12:07:00.000Z</time>
      </trkpt>
      <trkpt lat="43.97286" lon="7.31885">
        <ele>579.79998779297</ele>
        <time>2019-03-30T12:07:01.000Z</time>
      </trkpt>
      <trkpt lat="43.97281" lon="7.31882">
        <ele>581</ele>
        <time>2019-03-30T12:07:08.000Z</time>
      </trkpt>
      <trkpt lat="43.9728" lon="7.31881">
        <ele>581.20001220703</ele>
        <time>2019-03-30T12:07:09.000Z</time>
      </trkpt>
      <trkpt lat="43.97277" lon="7.31878">
        <ele>582.20001220703</ele>
        <time>2019-03-30T12:07:13.000Z</time>
      </trkpt>
      <trkpt lat="43.97275" lon="7.31873">
        <ele>583.20001220703</ele>
        <time>2019-03-30T12:07:18.000Z</time>
      </trkpt>
      <trkpt lat="43.97274" lon="7.31872">
        <ele>583.59997558594</ele>
        <time>2019-03-30T12:07:19.000Z</time>
      </trkpt>
      <trkpt lat="43.97272" lon="7.31867">
        <ele>584.20001220703</ele>
        <time>2019-03-30T12:07:24.000Z</time>
      </trkpt>
      <trkpt lat="43.9727" lon="7.31859">
        <ele>584.40002441406</ele>
        <time>2019-03-30T12:07:28.000Z</time>
      </trkpt>
      <trkpt lat="43.97269" lon="7.31854">
        <ele>584.79998779297</ele>
        <time>2019-03-30T12:07:30.000Z</time>
      </trkpt>
      <trkpt lat="43.97266" lon="7.31846">
        <ele>585.59997558594</ele>
        <time>2019-03-30T12:07:34.000Z</time>
      </trkpt>
      <trkpt lat="43.97266" lon="7.31844">
        <ele>585.59997558594</ele>
        <time>2019-03-30T12:07:35.000Z</time>
      </trkpt>
      <trkpt lat="43.97266" lon="7.31842">
        <ele>585.79998779297</ele>
        <time>2019-03-30T12:07:36.000Z</time>
      </trkpt>
      <trkpt lat="43.9727" lon="7.31834">
        <ele>586.59997558594</ele>
        <time>2019-03-30T12:07:40.000Z</time>
      </trkpt>
      <trkpt lat="43.97271" lon="7.31833">
        <ele>586.79998779297</ele>
        <time>2019-03-30T12:07:41.000Z</time>
      </trkpt>
      <trkpt lat="43.97278" lon="7.3183">
        <ele>587.59997558594</ele>
        <time>2019-03-30T12:07:46.000Z</time>
      </trkpt>
      <trkpt lat="43.97282" lon="7.31825">
        <ele>588.40002441406</ele>
        <time>2019-03-30T12:07:50.000Z</time>
      </trkpt>
      <trkpt lat="43.97283" lon="7.31824">
        <ele>588.40002441406</ele>
        <time>2019-03-30T12:07:51.000Z</time>
      </trkpt>
      <trkpt lat="43.97286" lon="7.31822">
        <ele>588.79998779297</ele>
        <time>2019-03-30T12:07:53.000Z</time>
      </trkpt>
      <trkpt lat="43.97294" lon="7.31813">
        <ele>589</ele>
        <time>2019-03-30T12:07:58.000Z</time>
      </trkpt>
      <trkpt lat="43.97294" lon="7.3181">
        <ele>588.79998779297</ele>
        <time>2019-03-30T12:07:59.000Z</time>
      </trkpt>
      <trkpt lat="43.97291" lon="7.31805">
        <ele>588.79998779297</ele>
        <time>2019-03-30T12:08:01.000Z</time>
      </trkpt>
      <trkpt lat="43.97279" lon="7.31796">
        <ele>588.59997558594</ele>
        <time>2019-03-30T12:08:06.000Z</time>
      </trkpt>
      <trkpt lat="43.97276" lon="7.31794">
        <ele>588.59997558594</ele>
        <time>2019-03-30T12:08:07.000Z</time>
      </trkpt>
      <trkpt lat="43.97268" lon="7.31786">
        <ele>588.20001220703</ele>
        <time>2019-03-30T12:08:09.000Z</time>
      </trkpt>
      <trkpt lat="43.97265" lon="7.31781">
        <ele>587.79998779297</ele>
        <time>2019-03-30T12:08:10.000Z</time>
      </trkpt>
      <trkpt lat="43.97264" lon="7.31775">
        <ele>587.59997558594</ele>
        <time>2019-03-30T12:08:11.000Z</time>
      </trkpt>
      <trkpt lat="43.97263" lon="7.31767">
        <ele>587.20001220703</ele>
        <time>2019-03-30T12:08:13.000Z</time>
      </trkpt>
      <trkpt lat="43.97264" lon="7.3176">
        <ele>587.40002441406</ele>
        <time>2019-03-30T12:08:15.000Z</time>
      </trkpt>
      <trkpt lat="43.97264" lon="7.31749">
        <ele>588.59997558594</ele>
        <time>2019-03-30T12:08:19.000Z</time>
      </trkpt>
      <trkpt lat="43.9726" lon="7.31734">
        <ele>589.40002441406</ele>
        <time>2019-03-30T12:08:24.000Z</time>
      </trkpt>
      <trkpt lat="43.97255" lon="7.31728">
        <ele>589.59997558594</ele>
        <time>2019-03-30T12:08:27.000Z</time>
      </trkpt>
      <trkpt lat="43.97251" lon="7.31724">
        <ele>589.79998779297</ele>
        <time>2019-03-30T12:08:29.000Z</time>
      </trkpt>
      <trkpt lat="43.97251" lon="7.31711">
        <ele>590.20001220703</ele>
        <time>2019-03-30T12:08:33.000Z</time>
      </trkpt>
      <trkpt lat="43.97258" lon="7.31705">
        <ele>590.40002441406</ele>
        <time>2019-03-30T12:08:36.000Z</time>
      </trkpt>
      <trkpt lat="43.97262" lon="7.31701">
        <ele>590.40002441406</ele>
        <time>2019-03-30T12:08:38.000Z</time>
      </trkpt>
      <trkpt lat="43.97271" lon="7.31693">
        <ele>591</ele>
        <time>2019-03-30T12:08:43.000Z</time>
      </trkpt>
      <trkpt lat="43.97273" lon="7.31689">
        <ele>591.40002441406</ele>
        <time>2019-03-30T12:08:45.000Z</time>
      </trkpt>
      <trkpt lat="43.97279" lon="7.3168">
        <ele>592</ele>
        <time>2019-03-30T12:08:49.000Z</time>
      </trkpt>
      <trkpt lat="43.97283" lon="7.31676">
        <ele>592.79998779297</ele>
        <time>2019-03-30T12:08:52.000Z</time>
      </trkpt>
      <trkpt lat="43.97284" lon="7.31674">
        <ele>593</ele>
        <time>2019-03-30T12:08:53.000Z</time>
      </trkpt>
      <trkpt lat="43.9729" lon="7.31666">
        <ele>593.79998779297</ele>
        <time>2019-03-30T12:08:58.000Z</time>
      </trkpt>
      <trkpt lat="43.9729" lon="7.31663">
        <ele>594.20001220703</ele>
        <time>2019-03-30T12:09:00.000Z</time>
      </trkpt>
      <trkpt lat="43.97292" lon="7.31658">
        <ele>595</ele>
        <time>2019-03-30T12:09:03.000Z</time>
      </trkpt>
      <trkpt lat="43.97292" lon="7.31655">
        <ele>595.20001220703</ele>
        <time>2019-03-30T12:09:04.000Z</time>
      </trkpt>
      <trkpt lat="43.97296" lon="7.31646">
        <ele>596</ele>
        <time>2019-03-30T12:09:09.000Z</time>
      </trkpt>
      <trkpt lat="43.97296" lon="7.31643">
        <ele>596.40002441406</ele>
        <time>2019-03-30T12:09:11.000Z</time>
      </trkpt>
      <trkpt lat="43.97298" lon="7.31637">
        <ele>597.40002441406</ele>
        <time>2019-03-30T12:09:16.000Z</time>
      </trkpt>
      <trkpt lat="43.97301" lon="7.31631">
        <ele>598.40002441406</ele>
        <time>2019-03-30T12:09:21.000Z</time>
      </trkpt>
      <trkpt lat="43.97302" lon="7.31627">
        <ele>598.79998779297</ele>
        <time>2019-03-30T12:09:24.000Z</time>
      </trkpt>
      <trkpt lat="43.973" lon="7.31622">
        <ele>599.59997558594</ele>
        <time>2019-03-30T12:09:28.000Z</time>
      </trkpt>
      <trkpt lat="43.97298" lon="7.31621">
        <ele>600.20001220703</ele>
        <time>2019-03-30T12:09:30.000Z</time>
      </trkpt>
      <trkpt lat="43.97293" lon="7.31622">
        <ele>600.40002441406</ele>
        <time>2019-03-30T12:09:36.000Z</time>
      </trkpt>
      <trkpt lat="43.97289" lon="7.31628">
        <ele>600.59997558594</ele>
        <time>2019-03-30T12:09:41.000Z</time>
      </trkpt>
      <trkpt lat="43.97288" lon="7.31629">
        <ele>600.79998779297</ele>
        <time>2019-03-30T12:09:42.000Z</time>
      </trkpt>
      <trkpt lat="43.97284" lon="7.31635">
        <ele>601.59997558594</ele>
        <time>2019-03-30T12:09:47.000Z</time>
      </trkpt>
      <trkpt lat="43.97283" lon="7.31636">
        <ele>601.79998779297</ele>
        <time>2019-03-30T12:09:48.000Z</time>
      </trkpt>
      <trkpt lat="43.97276" lon="7.31642">
        <ele>603</ele>
        <time>2019-03-30T12:09:54.000Z</time>
      </trkpt>
      <trkpt lat="43.9727" lon="7.31648">
        <ele>604.20001220703</ele>
        <time>2019-03-30T12:09:59.000Z</time>
      </trkpt>
      <trkpt lat="43.97265" lon="7.31653">
        <ele>605.20001220703</ele>
        <time>2019-03-30T12:10:03.000Z</time>
      </trkpt>
      <trkpt lat="43.97262" lon="7.31655">
        <ele>605.59997558594</ele>
        <time>2019-03-30T12:10:05.000Z</time>
      </trkpt>
      <trkpt lat="43.97256" lon="7.31657">
        <ele>606.20001220703</ele>
        <time>2019-03-30T12:10:10.000Z</time>
      </trkpt>
      <trkpt lat="43.97255" lon="7.31658">
        <ele>606.40002441406</ele>
        <time>2019-03-30T12:10:11.000Z</time>
      </trkpt>
      <trkpt lat="43.9725" lon="7.31662">
        <ele>607.20001220703</ele>
        <time>2019-03-30T12:10:15.000Z</time>
      </trkpt>
      <trkpt lat="43.97247" lon="7.31664">
        <ele>607.59997558594</ele>
        <time>2019-03-30T12:10:17.000Z</time>
      </trkpt>
      <trkpt lat="43.9724" lon="7.31669">
        <ele>608.40002441406</ele>
        <time>2019-03-30T12:10:22.000Z</time>
      </trkpt>
      <trkpt lat="43.97236" lon="7.31671">
        <ele>609</ele>
        <time>2019-03-30T12:10:25.000Z</time>
      </trkpt>
      <trkpt lat="43.97232" lon="7.31674">
        <ele>609.59997558594</ele>
        <time>2019-03-30T12:10:28.000Z</time>
      </trkpt>
      <trkpt lat="43.97228" lon="7.31675">
        <ele>610.20001220703</ele>
        <time>2019-03-30T12:10:31.000Z</time>
      </trkpt>
      <trkpt lat="43.97226" lon="7.31676">
        <ele>610.59997558594</ele>
        <time>2019-03-30T12:10:32.000Z</time>
      </trkpt>
      <trkpt lat="43.97219" lon="7.31679">
        <ele>611</ele>
        <time>2019-03-30T12:10:36.000Z</time>
      </trkpt>
      <trkpt lat="43.97215" lon="7.31681">
        <ele>611.59997558594</ele>
        <time>2019-03-30T12:10:39.000Z</time>
      </trkpt>
      <trkpt lat="43.9721" lon="7.31684">
        <ele>612.20001220703</ele>
        <time>2019-03-30T12:10:42.000Z</time>
      </trkpt>
      <trkpt lat="43.97207" lon="7.31685">
        <ele>612.40002441406</ele>
        <time>2019-03-30T12:10:44.000Z</time>
      </trkpt>
      <trkpt lat="43.97204" lon="7.31691">
        <ele>612.59997558594</ele>
        <time>2019-03-30T12:10:47.000Z</time>
      </trkpt>
      <trkpt lat="43.97201" lon="7.31697">
        <ele>612.59997558594</ele>
        <time>2019-03-30T12:10:49.000Z</time>
      </trkpt>
      <trkpt lat="43.97198" lon="7.31702">
        <ele>613</ele>
        <time>2019-03-30T12:10:51.000Z</time>
      </trkpt>
      <trkpt lat="43.9719" lon="7.31711">
        <ele>614</ele>
        <time>2019-03-30T12:10:56.000Z</time>
      </trkpt>
      <trkpt lat="43.97183" lon="7.3172">
        <ele>615</ele>
        <time>2019-03-30T12:11:01.000Z</time>
      </trkpt>
      <trkpt lat="43.97178" lon="7.31729">
        <ele>616.20001220703</ele>
        <time>2019-03-30T12:11:06.000Z</time>
      </trkpt>
      <trkpt lat="43.97178" lon="7.3173">
        <ele>616.40002441406</ele>
        <time>2019-03-30T12:11:07.000Z</time>
      </trkpt>
      <trkpt lat="43.97176" lon="7.31736">
        <ele>617.20001220703</ele>
        <time>2019-03-30T12:11:12.000Z</time>
      </trkpt>
      <trkpt lat="43.97173" lon="7.31746">
        <ele>617</ele>
        <time>2019-03-30T12:11:17.000Z</time>
      </trkpt>
      <trkpt lat="43.97172" lon="7.31747">
        <ele>617.20001220703</ele>
        <time>2019-03-30T12:11:18.000Z</time>
      </trkpt>
      <trkpt lat="43.97171" lon="7.31753">
        <ele>617.79998779297</ele>
        <time>2019-03-30T12:11:22.000Z</time>
      </trkpt>
      <trkpt lat="43.97171" lon="7.31762">
        <ele>618.20001220703</ele>
        <time>2019-03-30T12:11:27.000Z</time>
      </trkpt>
      <trkpt lat="43.9717" lon="7.31764">
        <ele>618.40002441406</ele>
        <time>2019-03-30T12:11:28.000Z</time>
      </trkpt>
      <trkpt lat="43.97169" lon="7.31768">
        <ele>619</ele>
        <time>2019-03-30T12:11:31.000Z</time>
      </trkpt>
      <trkpt lat="43.9717" lon="7.3177">
        <ele>619.20001220703</ele>
        <time>2019-03-30T12:11:32.000Z</time>
      </trkpt>
      <trkpt lat="43.9717" lon="7.31774">
        <ele>619.40002441406</ele>
        <time>2019-03-30T12:11:34.000Z</time>
      </trkpt>
      <trkpt lat="43.97171" lon="7.31778">
        <ele>619.79998779297</ele>
        <time>2019-03-30T12:11:36.000Z</time>
      </trkpt>
      <trkpt lat="43.97172" lon="7.31783">
        <ele>620.40002441406</ele>
        <time>2019-03-30T12:11:39.000Z</time>
      </trkpt>
      <trkpt lat="43.97171" lon="7.31789">
        <ele>621</ele>
        <time>2019-03-30T12:11:42.000Z</time>
      </trkpt>
      <trkpt lat="43.9717" lon="7.31793">
        <ele>621.40002441406</ele>
        <time>2019-03-30T12:11:44.000Z</time>
      </trkpt>
      <trkpt lat="43.97169" lon="7.31795">
        <ele>621.59997558594</ele>
        <time>2019-03-30T12:11:45.000Z</time>
      </trkpt>
      <trkpt lat="43.97166" lon="7.31801">
        <ele>622.20001220703</ele>
        <time>2019-03-30T12:11:48.000Z</time>
      </trkpt>
      <trkpt lat="43.97165" lon="7.31805">
        <ele>622.59997558594</ele>
        <time>2019-03-30T12:11:50.000Z</time>
      </trkpt>
      <trkpt lat="43.97164" lon="7.31807">
        <ele>622.79998779297</ele>
        <time>2019-03-30T12:11:51.000Z</time>
      </trkpt>
      <trkpt lat="43.97161" lon="7.31817">
        <ele>623.59997558594</ele>
        <time>2019-03-30T12:11:57.000Z</time>
      </trkpt>
      <trkpt lat="43.97158" lon="7.31824">
        <ele>624.59997558594</ele>
        <time>2019-03-30T12:12:02.000Z</time>
      </trkpt>
      <trkpt lat="43.97157" lon="7.31825">
        <ele>624.79998779297</ele>
        <time>2019-03-30T12:12:03.000Z</time>
      </trkpt>
      <trkpt lat="43.97154" lon="7.3183">
        <ele>625.40002441406</ele>
        <time>2019-03-30T12:12:07.000Z</time>
      </trkpt>
      <trkpt lat="43.97152" lon="7.31835">
        <ele>625.59997558594</ele>
        <time>2019-03-30T12:12:10.000Z</time>
      </trkpt>
      <trkpt lat="43.97153" lon="7.31839">
        <ele>625.59997558594</ele>
        <time>2019-03-30T12:12:12.000Z</time>
      </trkpt>
      <trkpt lat="43.97154" lon="7.31842">
        <ele>625.40002441406</ele>
        <time>2019-03-30T12:12:14.000Z</time>
      </trkpt>
      <trkpt lat="43.97155" lon="7.31844">
        <ele>625.59997558594</ele>
        <time>2019-03-30T12:12:16.000Z</time>
      </trkpt>
      <trkpt lat="43.97156" lon="7.31845">
        <ele>625.59997558594</ele>
        <time>2019-03-30T12:12:17.000Z</time>
      </trkpt>
      <trkpt lat="43.97157" lon="7.31847">
        <ele>625.79998779297</ele>
        <time>2019-03-30T12:12:19.000Z</time>
      </trkpt>
      <trkpt lat="43.97162" lon="7.31853">
        <ele>626.20001220703</ele>
        <time>2019-03-30T12:12:23.000Z</time>
      </trkpt>
      <trkpt lat="43.97167" lon="7.3186">
        <ele>627</ele>
        <time>2019-03-30T12:12:27.000Z</time>
      </trkpt>
      <trkpt lat="43.9717" lon="7.31867">
        <ele>628</ele>
        <time>2019-03-30T12:12:31.000Z</time>
      </trkpt>
      <trkpt lat="43.97174" lon="7.31875">
        <ele>629.20001220703</ele>
        <time>2019-03-30T12:12:36.000Z</time>
      </trkpt>
      <trkpt lat="43.97176" lon="7.31876">
        <ele>629.20001220703</ele>
        <time>2019-03-30T12:12:37.000Z</time>
      </trkpt>
      <trkpt lat="43.97181" lon="7.31885">
        <ele>630.40002441406</ele>
        <time>2019-03-30T12:12:42.000Z</time>
      </trkpt>
      <trkpt lat="43.97182" lon="7.31887">
        <ele>630.59997558594</ele>
        <time>2019-03-30T12:12:43.000Z</time>
      </trkpt>
      <trkpt lat="43.97185" lon="7.31891">
        <ele>631.40002441406</ele>
        <time>2019-03-30T12:12:46.000Z</time>
      </trkpt>
      <trkpt lat="43.9719" lon="7.31899">
        <ele>632.59997558594</ele>
        <time>2019-03-30T12:12:51.000Z</time>
      </trkpt>
      <trkpt lat="43.97193" lon="7.31906">
        <ele>633.59997558594</ele>
        <time>2019-03-30T12:12:55.000Z</time>
      </trkpt>
      <trkpt lat="43.97194" lon="7.31913">
        <ele>634.20001220703</ele>
        <time>2019-03-30T12:12:59.000Z</time>
      </trkpt>
      <trkpt lat="43.97193" lon="7.31916">
        <ele>634.40002441406</ele>
        <time>2019-03-30T12:13:01.000Z</time>
      </trkpt>
      <trkpt lat="43.97193" lon="7.3192">
        <ele>634.79998779297</ele>
        <time>2019-03-30T12:13:03.000Z</time>
      </trkpt>
      <trkpt lat="43.97192" lon="7.31921">
        <ele>634.79998779297</ele>
        <time>2019-03-30T12:13:04.000Z</time>
      </trkpt>
      <trkpt lat="43.97191" lon="7.31923">
        <ele>635</ele>
        <time>2019-03-30T12:13:05.000Z</time>
      </trkpt>
      <trkpt lat="43.97188" lon="7.31929">
        <ele>635.79998779297</ele>
        <time>2019-03-30T12:13:09.000Z</time>
      </trkpt>
      <trkpt lat="43.97186" lon="7.31933">
        <ele>636.40002441406</ele>
        <time>2019-03-30T12:13:11.000Z</time>
      </trkpt>
      <trkpt lat="43.97185" lon="7.31936">
        <ele>637</ele>
        <time>2019-03-30T12:13:13.000Z</time>
      </trkpt>
      <trkpt lat="43.97186" lon="7.31941">
        <ele>637.59997558594</ele>
        <time>2019-03-30T12:13:17.000Z</time>
      </trkpt>
      <trkpt lat="43.97186" lon="7.31943">
        <ele>637.79998779297</ele>
        <time>2019-03-30T12:13:18.000Z</time>
      </trkpt>
      <trkpt lat="43.97185" lon="7.31944">
        <ele>638</ele>
        <time>2019-03-30T12:13:19.000Z</time>
      </trkpt>
      <trkpt lat="43.97184" lon="7.31948">
        <ele>638.59997558594</ele>
        <time>2019-03-30T12:13:22.000Z</time>
      </trkpt>
      <trkpt lat="43.97183" lon="7.31954">
        <ele>639.20001220703</ele>
        <time>2019-03-30T12:13:26.000Z</time>
      </trkpt>
      <trkpt lat="43.97183" lon="7.31955">
        <ele>639.20001220703</ele>
        <time>2019-03-30T12:13:27.000Z</time>
      </trkpt>
      <trkpt lat="43.97183" lon="7.31957">
        <ele>639.40002441406</ele>
        <time>2019-03-30T12:13:28.000Z</time>
      </trkpt>
      <trkpt lat="43.97183" lon="7.31964">
        <ele>640.20001220703</ele>
        <time>2019-03-30T12:13:32.000Z</time>
      </trkpt>
      <trkpt lat="43.97181" lon="7.31966">
        <ele>640.59997558594</ele>
        <time>2019-03-30T12:13:33.000Z</time>
      </trkpt>
      <trkpt lat="43.9718" lon="7.31967">
        <ele>640.79998779297</ele>
        <time>2019-03-30T12:13:34.000Z</time>
      </trkpt>
      <trkpt lat="43.97178" lon="7.31966">
        <ele>641.20001220703</ele>
        <time>2019-03-30T12:13:36.000Z</time>
      </trkpt>
      <trkpt lat="43.97176" lon="7.31962">
        <ele>641.79998779297</ele>
        <time>2019-03-30T12:13:39.000Z</time>
      </trkpt>
      <trkpt lat="43.97176" lon="7.31959">
        <ele>642.20001220703</ele>
        <time>2019-03-30T12:13:41.000Z</time>
      </trkpt>
      <trkpt lat="43.97176" lon="7.31953">
        <ele>642.79998779297</ele>
        <time>2019-03-30T12:13:45.000Z</time>
      </trkpt>
      <trkpt lat="43.97174" lon="7.31941">
        <ele>643.20001220703</ele>
        <time>2019-03-30T12:13:51.000Z</time>
      </trkpt>
      <trkpt lat="43.97173" lon="7.31938">
        <ele>643.59997558594</ele>
        <time>2019-03-30T12:13:53.000Z</time>
      </trkpt>
      <trkpt lat="43.97171" lon="7.31934">
        <ele>644.20001220703</ele>
        <time>2019-03-30T12:13:56.000Z</time>
      </trkpt>
      <trkpt lat="43.97166" lon="7.31928">
        <ele>645.59997558594</ele>
        <time>2019-03-30T12:14:01.000Z</time>
      </trkpt>
      <trkpt lat="43.97165" lon="7.31927">
        <ele>645.79998779297</ele>
        <time>2019-03-30T12:14:03.000Z</time>
      </trkpt>
      <trkpt lat="43.9716" lon="7.31924">
        <ele>646.59997558594</ele>
        <time>2019-03-30T12:14:09.000Z</time>
      </trkpt>
      <trkpt lat="43.97159" lon="7.31924">
        <ele>646.79998779297</ele>
        <time>2019-03-30T12:14:10.000Z</time>
      </trkpt>
      <trkpt lat="43.97156" lon="7.31924">
        <ele>647.59997558594</ele>
        <time>2019-03-30T12:14:13.000Z</time>
      </trkpt>
      <trkpt lat="43.97155" lon="7.31922">
        <ele>648</ele>
        <time>2019-03-30T12:14:14.000Z</time>
      </trkpt>
      <trkpt lat="43.97153" lon="7.31922">
        <ele>648.59997558594</ele>
        <time>2019-03-30T12:14:16.000Z</time>
      </trkpt>
      <trkpt lat="43.97152" lon="7.31921">
        <ele>648.59997558594</ele>
        <time>2019-03-30T12:14:17.000Z</time>
      </trkpt>
      <trkpt lat="43.9715" lon="7.3192">
        <ele>649.20001220703</ele>
        <time>2019-03-30T12:14:19.000Z</time>
      </trkpt>
      <trkpt lat="43.97146" lon="7.31919">
        <ele>649.79998779297</ele>
        <time>2019-03-30T12:14:22.000Z</time>
      </trkpt>
      <trkpt lat="43.97142" lon="7.31917">
        <ele>650.20001220703</ele>
        <time>2019-03-30T12:14:25.000Z</time>
      </trkpt>
      <trkpt lat="43.9714" lon="7.31915">
        <ele>650.79998779297</ele>
        <time>2019-03-30T12:14:28.000Z</time>
      </trkpt>
      <trkpt lat="43.97138" lon="7.31913">
        <ele>651.40002441406</ele>
        <time>2019-03-30T12:14:30.000Z</time>
      </trkpt>
      <trkpt lat="43.97138" lon="7.31913">
        <ele>651.59997558594</ele>
        <time>2019-03-30T12:14:31.000Z</time>
      </trkpt>
      <trkpt lat="43.97135" lon="7.3191">
        <ele>652</ele>
        <time>2019-03-30T12:14:34.000Z</time>
      </trkpt>
      <trkpt lat="43.97133" lon="7.31906">
        <ele>652.59997558594</ele>
        <time>2019-03-30T12:14:37.000Z</time>
      </trkpt>
      <trkpt lat="43.9713" lon="7.31903">
        <ele>653</ele>
        <time>2019-03-30T12:14:41.000Z</time>
      </trkpt>
      <trkpt lat="43.97129" lon="7.31902">
        <ele>653.20001220703</ele>
        <time>2019-03-30T12:14:42.000Z</time>
      </trkpt>
      <trkpt lat="43.97125" lon="7.31902">
        <ele>654</ele>
        <time>2019-03-30T12:14:48.000Z</time>
      </trkpt>
      <trkpt lat="43.97125" lon="7.31904">
        <ele>654.40002441406</ele>
        <time>2019-03-30T12:14:49.000Z</time>
      </trkpt>
      <trkpt lat="43.97126" lon="7.3191">
        <ele>654.79998779297</ele>
        <time>2019-03-30T12:14:53.000Z</time>
      </trkpt>
      <trkpt lat="43.97128" lon="7.31916">
        <ele>655.20001220703</ele>
        <time>2019-03-30T12:14:57.000Z</time>
      </trkpt>
      <trkpt lat="43.9713" lon="7.3192">
        <ele>655.40002441406</ele>
        <time>2019-03-30T12:14:59.000Z</time>
      </trkpt>
      <trkpt lat="43.9713" lon="7.31923">
        <ele>655.79998779297</ele>
        <time>2019-03-30T12:15:02.000Z</time>
      </trkpt>
      <trkpt lat="43.9713" lon="7.31926">
        <ele>656</ele>
        <time>2019-03-30T12:15:04.000Z</time>
      </trkpt>
      <trkpt lat="43.97131" lon="7.31928">
        <ele>656.20001220703</ele>
        <time>2019-03-30T12:15:05.000Z</time>
      </trkpt>
      <trkpt lat="43.9713" lon="7.31931">
        <ele>656.40002441406</ele>
        <time>2019-03-30T12:15:07.000Z</time>
      </trkpt>
      <trkpt lat="43.97131" lon="7.31934">
        <ele>656.79998779297</ele>
        <time>2019-03-30T12:15:09.000Z</time>
      </trkpt>
      <trkpt lat="43.97131" lon="7.31937">
        <ele>657</ele>
        <time>2019-03-30T12:15:11.000Z</time>
      </trkpt>
      <trkpt lat="43.97132" lon="7.31938">
        <ele>657.20001220703</ele>
        <time>2019-03-30T12:15:12.000Z</time>
      </trkpt>
      <trkpt lat="43.97132" lon="7.31946">
        <ele>658</ele>
        <time>2019-03-30T12:15:17.000Z</time>
      </trkpt>
      <trkpt lat="43.97132" lon="7.31947">
        <ele>658.20001220703</ele>
        <time>2019-03-30T12:15:18.000Z</time>
      </trkpt>
      <trkpt lat="43.97132" lon="7.31949">
        <ele>658.40002441406</ele>
        <time>2019-03-30T12:15:19.000Z</time>
      </trkpt>
      <trkpt lat="43.97134" lon="7.31954">
        <ele>659.40002441406</ele>
        <time>2019-03-30T12:15:24.000Z</time>
      </trkpt>
      <trkpt lat="43.97134" lon="7.31956">
        <ele>659.59997558594</ele>
        <time>2019-03-30T12:15:25.000Z</time>
      </trkpt>
      <trkpt lat="43.97135" lon="7.3196">
        <ele>660.40002441406</ele>
        <time>2019-03-30T12:15:28.000Z</time>
      </trkpt>
      <trkpt lat="43.97135" lon="7.31962">
        <ele>660.79998779297</ele>
        <time>2019-03-30T12:15:30.000Z</time>
      </trkpt>
      <trkpt lat="43.97137" lon="7.31968">
        <ele>661.59997558594</ele>
        <time>2019-03-30T12:15:35.000Z</time>
      </trkpt>
      <trkpt lat="43.97137" lon="7.31972">
        <ele>662</ele>
        <time>2019-03-30T12:15:38.000Z</time>
      </trkpt>
      <trkpt lat="43.97138" lon="7.31974">
        <ele>662.40002441406</ele>
        <time>2019-03-30T12:15:40.000Z</time>
      </trkpt>
      <trkpt lat="43.97138" lon="7.31976">
        <ele>662.40002441406</ele>
        <time>2019-03-30T12:15:41.000Z</time>
      </trkpt>
      <trkpt lat="43.97139" lon="7.31977">
        <ele>662.59997558594</ele>
        <time>2019-03-30T12:15:42.000Z</time>
      </trkpt>
      <trkpt lat="43.9714" lon="7.3198">
        <ele>663</ele>
        <time>2019-03-30T12:15:44.000Z</time>
      </trkpt>
      <trkpt lat="43.97142" lon="7.31983">
        <ele>663.40002441406</ele>
        <time>2019-03-30T12:15:47.000Z</time>
      </trkpt>
      <trkpt lat="43.97144" lon="7.31987">
        <ele>663.79998779297</ele>
        <time>2019-03-30T12:15:50.000Z</time>
      </trkpt>
      <trkpt lat="43.97147" lon="7.3199">
        <ele>664</ele>
        <time>2019-03-30T12:15:53.000Z</time>
      </trkpt>
      <trkpt lat="43.9715" lon="7.31998">
        <ele>664.79998779297</ele>
        <time>2019-03-30T12:15:58.000Z</time>
      </trkpt>
      <trkpt lat="43.9715" lon="7.32">
        <ele>665</ele>
        <time>2019-03-30T12:15:59.000Z</time>
      </trkpt>
      <trkpt lat="43.97148" lon="7.32004">
        <ele>665.59997558594</ele>
        <time>2019-03-30T12:16:02.000Z</time>
      </trkpt>
      <trkpt lat="43.97146" lon="7.32003">
        <ele>666</ele>
        <time>2019-03-30T12:16:04.000Z</time>
      </trkpt>
      <trkpt lat="43.97142" lon="7.32001">
        <ele>667</ele>
        <time>2019-03-30T12:16:09.000Z</time>
      </trkpt>
      <trkpt lat="43.97141" lon="7.32">
        <ele>667.20001220703</ele>
        <time>2019-03-30T12:16:10.000Z</time>
      </trkpt>
      <trkpt lat="43.97139" lon="7.31999">
        <ele>668.20001220703</ele>
        <time>2019-03-30T12:16:14.000Z</time>
      </trkpt>
      <trkpt lat="43.97138" lon="7.31998">
        <ele>668.59997558594</ele>
        <time>2019-03-30T12:16:15.000Z</time>
      </trkpt>
      <trkpt lat="43.97135" lon="7.31997">
        <ele>669.20001220703</ele>
        <time>2019-03-30T12:16:20.000Z</time>
      </trkpt>
      <trkpt lat="43.97135" lon="7.31997">
        <ele>669.59997558594</ele>
        <time>2019-03-30T12:16:21.000Z</time>
      </trkpt>
      <trkpt lat="43.9713" lon="7.31995">
        <ele>670.40002441406</ele>
        <time>2019-03-30T12:16:27.000Z</time>
      </trkpt>
      <trkpt lat="43.97129" lon="7.31995">
        <ele>670.40002441406</ele>
        <time>2019-03-30T12:16:28.000Z</time>
      </trkpt>
      <trkpt lat="43.97125" lon="7.31993">
        <ele>671</ele>
        <time>2019-03-30T12:16:33.000Z</time>
      </trkpt>
      <trkpt lat="43.97121" lon="7.3199">
        <ele>671.40002441406</ele>
        <time>2019-03-30T12:16:37.000Z</time>
      </trkpt>
      <trkpt lat="43.97119" lon="7.31988">
        <ele>672</ele>
        <time>2019-03-30T12:16:40.000Z</time>
      </trkpt>
      <trkpt lat="43.97116" lon="7.31986">
        <ele>672.40002441406</ele>
        <time>2019-03-30T12:16:43.000Z</time>
      </trkpt>
      <trkpt lat="43.97113" lon="7.31983">
        <ele>673</ele>
        <time>2019-03-30T12:16:47.000Z</time>
      </trkpt>
      <trkpt lat="43.97111" lon="7.31982">
        <ele>673.20001220703</ele>
        <time>2019-03-30T12:16:49.000Z</time>
      </trkpt>
      <trkpt lat="43.97108" lon="7.31979">
        <ele>673.40002441406</ele>
        <time>2019-03-30T12:16:52.000Z</time>
      </trkpt>
      <trkpt lat="43.97106" lon="7.31978">
        <ele>673.59997558594</ele>
        <time>2019-03-30T12:16:53.000Z</time>
      </trkpt>
      <trkpt lat="43.97103" lon="7.31974">
        <ele>674.59997558594</ele>
        <time>2019-03-30T12:16:57.000Z</time>
      </trkpt>
      <trkpt lat="43.97099" lon="7.3197">
        <ele>675.40002441406</ele>
        <time>2019-03-30T12:17:01.000Z</time>
      </trkpt>
      <trkpt lat="43.97098" lon="7.31969">
        <ele>675.59997558594</ele>
        <time>2019-03-30T12:17:02.000Z</time>
      </trkpt>
      <trkpt lat="43.97094" lon="7.31962">
        <ele>676.40002441406</ele>
        <time>2019-03-30T12:17:07.000Z</time>
      </trkpt>
      <trkpt lat="43.97092" lon="7.31959">
        <ele>676.59997558594</ele>
        <time>2019-03-30T12:17:09.000Z</time>
      </trkpt>
      <trkpt lat="43.97087" lon="7.31952">
        <ele>677.40002441406</ele>
        <time>2019-03-30T12:17:14.000Z</time>
      </trkpt>
      <trkpt lat="43.97086" lon="7.31949">
        <ele>677.59997558594</ele>
        <time>2019-03-30T12:17:16.000Z</time>
      </trkpt>
      <trkpt lat="43.97085" lon="7.31945">
        <ele>678</ele>
        <time>2019-03-30T12:17:19.000Z</time>
      </trkpt>
      <trkpt lat="43.97084" lon="7.31944">
        <ele>678.20001220703</ele>
        <time>2019-03-30T12:17:20.000Z</time>
      </trkpt>
      <trkpt lat="43.9708" lon="7.31938">
        <ele>678.59997558594</ele>
        <time>2019-03-30T12:17:24.000Z</time>
      </trkpt>
      <trkpt lat="43.97078" lon="7.31935">
        <ele>678.79998779297</ele>
        <time>2019-03-30T12:17:26.000Z</time>
      </trkpt>
      <trkpt lat="43.97075" lon="7.31932">
        <ele>679</ele>
        <time>2019-03-30T12:17:29.000Z</time>
      </trkpt>
      <trkpt lat="43.97073" lon="7.31929">
        <ele>679.40002441406</ele>
        <time>2019-03-30T12:17:31.000Z</time>
      </trkpt>
      <trkpt lat="43.97072" lon="7.31928">
        <ele>679.59997558594</ele>
        <time>2019-03-30T12:17:32.000Z</time>
      </trkpt>
      <trkpt lat="43.97071" lon="7.31927">
        <ele>679.79998779297</ele>
        <time>2019-03-30T12:17:33.000Z</time>
      </trkpt>
      <trkpt lat="43.97067" lon="7.31925">
        <ele>680.20001220703</ele>
        <time>2019-03-30T12:17:36.000Z</time>
      </trkpt>
      <trkpt lat="43.97065" lon="7.31923">
        <ele>680.59997558594</ele>
        <time>2019-03-30T12:17:38.000Z</time>
      </trkpt>
      <trkpt lat="43.97063" lon="7.31921">
        <ele>680.79998779297</ele>
        <time>2019-03-30T12:17:40.000Z</time>
      </trkpt>
      <trkpt lat="43.97062" lon="7.31919">
        <ele>681.40002441406</ele>
        <time>2019-03-30T12:17:42.000Z</time>
      </trkpt>
      <trkpt lat="43.97059" lon="7.31915">
        <ele>682</ele>
        <time>2019-03-30T12:17:45.000Z</time>
      </trkpt>
      <trkpt lat="43.97055" lon="7.31908">
        <ele>682.40002441406</ele>
        <time>2019-03-30T12:17:50.000Z</time>
      </trkpt>
      <trkpt lat="43.97051" lon="7.319">
        <ele>683</ele>
        <time>2019-03-30T12:17:55.000Z</time>
      </trkpt>
      <trkpt lat="43.9705" lon="7.31899">
        <ele>683.20001220703</ele>
        <time>2019-03-30T12:17:56.000Z</time>
      </trkpt>
      <trkpt lat="43.97048" lon="7.31897">
        <ele>683.40002441406</ele>
        <time>2019-03-30T12:17:58.000Z</time>
      </trkpt>
      <trkpt lat="43.97044" lon="7.31896">
        <ele>684.20001220703</ele>
        <time>2019-03-30T12:18:02.000Z</time>
      </trkpt>
      <trkpt lat="43.97039" lon="7.319">
        <ele>685.40002441406</ele>
        <time>2019-03-30T12:18:08.000Z</time>
      </trkpt>
      <trkpt lat="43.97035" lon="7.31908">
        <ele>686.40002441406</ele>
        <time>2019-03-30T12:18:14.000Z</time>
      </trkpt>
      <trkpt lat="43.97035" lon="7.31909">
        <ele>686.59997558594</ele>
        <time>2019-03-30T12:18:15.000Z</time>
      </trkpt>
      <trkpt lat="43.97035" lon="7.31915">
        <ele>687.59997558594</ele>
        <time>2019-03-30T12:18:20.000Z</time>
      </trkpt>
      <trkpt lat="43.97035" lon="7.31916">
        <ele>687.79998779297</ele>
        <time>2019-03-30T12:18:22.000Z</time>
      </trkpt>
      <trkpt lat="43.97036" lon="7.31923">
        <ele>688.59997558594</ele>
        <time>2019-03-30T12:18:28.000Z</time>
      </trkpt>
      <trkpt lat="43.97036" lon="7.31925">
        <ele>689</ele>
        <time>2019-03-30T12:18:30.000Z</time>
      </trkpt>
      <trkpt lat="43.97037" lon="7.31931">
        <ele>689.79998779297</ele>
        <time>2019-03-30T12:18:35.000Z</time>
      </trkpt>
      <trkpt lat="43.97037" lon="7.31933">
        <ele>689.79998779297</ele>
        <time>2019-03-30T12:18:36.000Z</time>
      </trkpt>
      <trkpt lat="43.97031" lon="7.31937">
        <ele>690.79998779297</ele>
        <time>2019-03-30T12:18:41.000Z</time>
      </trkpt>
      <trkpt lat="43.9703" lon="7.31936">
        <ele>691.20001220703</ele>
        <time>2019-03-30T12:18:42.000Z</time>
      </trkpt>
      <trkpt lat="43.97026" lon="7.31933">
        <ele>692</ele>
        <time>2019-03-30T12:18:45.000Z</time>
      </trkpt>
      <trkpt lat="43.97023" lon="7.3193">
        <ele>692.40002441406</ele>
        <time>2019-03-30T12:18:48.000Z</time>
      </trkpt>
      <trkpt lat="43.9702" lon="7.31928">
        <ele>693</ele>
        <time>2019-03-30T12:18:51.000Z</time>
      </trkpt>
      <trkpt lat="43.97017" lon="7.31924">
        <ele>693.40002441406</ele>
        <time>2019-03-30T12:18:55.000Z</time>
      </trkpt>
      <trkpt lat="43.97015" lon="7.31924">
        <ele>693.40002441406</ele>
        <time>2019-03-30T12:18:56.000Z</time>
      </trkpt>
      <trkpt lat="43.97013" lon="7.31921">
        <ele>693.59997558594</ele>
        <time>2019-03-30T12:18:59.000Z</time>
      </trkpt>
      <trkpt lat="43.97011" lon="7.31919">
        <ele>693.79998779297</ele>
        <time>2019-03-30T12:19:01.000Z</time>
      </trkpt>
      <trkpt lat="43.97007" lon="7.31914">
        <ele>694</ele>
        <time>2019-03-30T12:19:06.000Z</time>
      </trkpt>
      <trkpt lat="43.97007" lon="7.31913">
        <ele>694.20001220703</ele>
        <time>2019-03-30T12:19:07.000Z</time>
      </trkpt>
      <trkpt lat="43.97003" lon="7.31904">
        <ele>695</ele>
        <time>2019-03-30T12:19:13.000Z</time>
      </trkpt>
      <trkpt lat="43.96998" lon="7.31893">
        <ele>695.59997558594</ele>
        <time>2019-03-30T12:19:19.000Z</time>
      </trkpt>
      <trkpt lat="43.96996" lon="7.31889">
        <ele>696.20001220703</ele>
        <time>2019-03-30T12:19:22.000Z</time>
      </trkpt>
      <trkpt lat="43.96994" lon="7.31887">
        <ele>696.59997558594</ele>
        <time>2019-03-30T12:19:26.000Z</time>
      </trkpt>
      <trkpt lat="43.96992" lon="7.31884">
        <ele>696.79998779297</ele>
        <time>2019-03-30T12:19:27.000Z</time>
      </trkpt>
      <trkpt lat="43.9699" lon="7.31882">
        <ele>697.20001220703</ele>
        <time>2019-03-30T12:19:29.000Z</time>
      </trkpt>
      <trkpt lat="43.9699" lon="7.31882">
        <ele>697.40002441406</ele>
        <time>2019-03-30T12:19:30.000Z</time>
      </trkpt>
      <trkpt lat="43.96989" lon="7.31881">
        <ele>697.59997558594</ele>
        <time>2019-03-30T12:19:31.000Z</time>
      </trkpt>
      <trkpt lat="43.96986" lon="7.31878">
        <ele>698.40002441406</ele>
        <time>2019-03-30T12:19:34.000Z</time>
      </trkpt>
      <trkpt lat="43.96986" lon="7.31877">
        <ele>698.59997558594</ele>
        <time>2019-03-30T12:19:35.000Z</time>
      </trkpt>
      <trkpt lat="43.96985" lon="7.31876">
        <ele>698.79998779297</ele>
        <time>2019-03-30T12:19:36.000Z</time>
      </trkpt>
      <trkpt lat="43.96983" lon="7.31872">
        <ele>699.59997558594</ele>
        <time>2019-03-30T12:19:40.000Z</time>
      </trkpt>
      <trkpt lat="43.96981" lon="7.3187">
        <ele>699.79998779297</ele>
        <time>2019-03-30T12:19:42.000Z</time>
      </trkpt>
      <trkpt lat="43.96978" lon="7.31865">
        <ele>700.59997558594</ele>
        <time>2019-03-30T12:19:47.000Z</time>
      </trkpt>
      <trkpt lat="43.96977" lon="7.31864">
        <ele>700.59997558594</ele>
        <time>2019-03-30T12:19:48.000Z</time>
      </trkpt>
      <trkpt lat="43.96973" lon="7.31862">
        <ele>701.59997558594</ele>
        <time>2019-03-30T12:19:55.000Z</time>
      </trkpt>
      <trkpt lat="43.96972" lon="7.31864">
        <ele>702</ele>
        <time>2019-03-30T12:19:57.000Z</time>
      </trkpt>
      <trkpt lat="43.96973" lon="7.31869">
        <ele>702.20001220703</ele>
        <time>2019-03-30T12:20:00.000Z</time>
      </trkpt>
      <trkpt lat="43.96973" lon="7.3187">
        <ele>702.40002441406</ele>
        <time>2019-03-30T12:20:01.000Z</time>
      </trkpt>
      <trkpt lat="43.96974" lon="7.31874">
        <ele>702.79998779297</ele>
        <time>2019-03-30T12:20:04.000Z</time>
      </trkpt>
      <trkpt lat="43.96974" lon="7.31875">
        <ele>703</ele>
        <time>2019-03-30T12:20:05.000Z</time>
      </trkpt>
      <trkpt lat="43.96975" lon="7.31877">
        <ele>703.20001220703</ele>
        <time>2019-03-30T12:20:06.000Z</time>
      </trkpt>
      <trkpt lat="43.96977" lon="7.31883">
        <ele>703.59997558594</ele>
        <time>2019-03-30T12:20:10.000Z</time>
      </trkpt>
      <trkpt lat="43.96978" lon="7.31886">
        <ele>703.79998779297</ele>
        <time>2019-03-30T12:20:12.000Z</time>
      </trkpt>
      <trkpt lat="43.96979" lon="7.31888">
        <ele>703.79998779297</ele>
        <time>2019-03-30T12:20:13.000Z</time>
      </trkpt>
      <trkpt lat="43.96983" lon="7.31897">
        <ele>704.40002441406</ele>
        <time>2019-03-30T12:20:19.000Z</time>
      </trkpt>
      <trkpt lat="43.96984" lon="7.31902">
        <ele>704.79998779297</ele>
        <time>2019-03-30T12:20:22.000Z</time>
      </trkpt>
      <trkpt lat="43.96982" lon="7.31907">
        <ele>705.40002441406</ele>
        <time>2019-03-30T12:20:25.000Z</time>
      </trkpt>
      <trkpt lat="43.96979" lon="7.31906">
        <ele>706</ele>
        <time>2019-03-30T12:20:28.000Z</time>
      </trkpt>
      <trkpt lat="43.96978" lon="7.31905">
        <ele>706.20001220703</ele>
        <time>2019-03-30T12:20:29.000Z</time>
      </trkpt>
      <trkpt lat="43.96974" lon="7.319">
        <ele>707.20001220703</ele>
        <time>2019-03-30T12:20:33.000Z</time>
      </trkpt>
      <trkpt lat="43.96974" lon="7.31899">
        <ele>707.40002441406</ele>
        <time>2019-03-30T12:20:34.000Z</time>
      </trkpt>
      <trkpt lat="43.96974" lon="7.31898">
        <ele>707.40002441406</ele>
        <time>2019-03-30T12:20:35.000Z</time>
      </trkpt>
      <trkpt lat="43.96969" lon="7.31894">
        <ele>708.20001220703</ele>
        <time>2019-03-30T12:20:40.000Z</time>
      </trkpt>
      <trkpt lat="43.96968" lon="7.31893">
        <ele>708.20001220703</ele>
        <time>2019-03-30T12:20:41.000Z</time>
      </trkpt>
      <trkpt lat="43.96964" lon="7.31888">
        <ele>708.79998779297</ele>
        <time>2019-03-30T12:20:46.000Z</time>
      </trkpt>
      <trkpt lat="43.96962" lon="7.31887">
        <ele>709.20001220703</ele>
        <time>2019-03-30T12:20:48.000Z</time>
      </trkpt>
      <trkpt lat="43.9696" lon="7.31886">
        <ele>709.79998779297</ele>
        <time>2019-03-30T12:20:50.000Z</time>
      </trkpt>
      <trkpt lat="43.96959" lon="7.31885">
        <ele>710.20001220703</ele>
        <time>2019-03-30T12:20:52.000Z</time>
      </trkpt>
      <trkpt lat="43.96958" lon="7.31885">
        <ele>710.40002441406</ele>
        <time>2019-03-30T12:20:53.000Z</time>
      </trkpt>
      <trkpt lat="43.96955" lon="7.31885">
        <ele>711.20001220703</ele>
        <time>2019-03-30T12:20:58.000Z</time>
      </trkpt>
      <trkpt lat="43.96954" lon="7.31885">
        <ele>711.59997558594</ele>
        <time>2019-03-30T12:21:00.000Z</time>
      </trkpt>
      <trkpt lat="43.96952" lon="7.31885">
        <ele>712</ele>
        <time>2019-03-30T12:21:02.000Z</time>
      </trkpt>
      <trkpt lat="43.96949" lon="7.31882">
        <ele>712.59997558594</ele>
        <time>2019-03-30T12:21:07.000Z</time>
      </trkpt>
      <trkpt lat="43.96948" lon="7.31881">
        <ele>712.79998779297</ele>
        <time>2019-03-30T12:21:08.000Z</time>
      </trkpt>
      <trkpt lat="43.96941" lon="7.31878">
        <ele>713.59997558594</ele>
        <time>2019-03-30T12:21:13.000Z</time>
      </trkpt>
      <trkpt lat="43.9694" lon="7.31878">
        <ele>713.79998779297</ele>
        <time>2019-03-30T12:21:14.000Z</time>
      </trkpt>
      <trkpt lat="43.96936" lon="7.31876">
        <ele>714.40002441406</ele>
        <time>2019-03-30T12:21:17.000Z</time>
      </trkpt>
      <trkpt lat="43.96934" lon="7.31874">
        <ele>714.59997558594</ele>
        <time>2019-03-30T12:21:19.000Z</time>
      </trkpt>
      <trkpt lat="43.96933" lon="7.31874">
        <ele>714.79998779297</ele>
        <time>2019-03-30T12:21:20.000Z</time>
      </trkpt>
      <trkpt lat="43.96927" lon="7.3187">
        <ele>715.79998779297</ele>
        <time>2019-03-30T12:21:25.000Z</time>
      </trkpt>
      <trkpt lat="43.96924" lon="7.31869">
        <ele>716.20001220703</ele>
        <time>2019-03-30T12:21:27.000Z</time>
      </trkpt>
      <trkpt lat="43.96921" lon="7.31868">
        <ele>716.59997558594</ele>
        <time>2019-03-30T12:21:29.000Z</time>
      </trkpt>
      <trkpt lat="43.9692" lon="7.31866">
        <ele>716.79998779297</ele>
        <time>2019-03-30T12:21:30.000Z</time>
      </trkpt>
      <trkpt lat="43.96919" lon="7.31865">
        <ele>716.79998779297</ele>
        <time>2019-03-30T12:21:31.000Z</time>
      </trkpt>
      <trkpt lat="43.96916" lon="7.31861">
        <ele>716.79998779297</ele>
        <time>2019-03-30T12:21:33.000Z</time>
      </trkpt>
      <trkpt lat="43.96913" lon="7.31855">
        <ele>716.79998779297</ele>
        <time>2019-03-30T12:21:35.000Z</time>
      </trkpt>
      <trkpt lat="43.9691" lon="7.31845">
        <ele>716.79998779297</ele>
        <time>2019-03-30T12:21:38.000Z</time>
      </trkpt>
      <trkpt lat="43.96909" lon="7.31833">
        <ele>717.40002441406</ele>
        <time>2019-03-30T12:21:43.000Z</time>
      </trkpt>
      <trkpt lat="43.9691" lon="7.31831">
        <ele>717.79998779297</ele>
        <time>2019-03-30T12:21:45.000Z</time>
      </trkpt>
      <trkpt lat="43.9691" lon="7.31828">
        <ele>718.20001220703</ele>
        <time>2019-03-30T12:21:46.000Z</time>
      </trkpt>
      <trkpt lat="43.9691" lon="7.31824">
        <ele>718.40002441406</ele>
        <time>2019-03-30T12:21:48.000Z</time>
      </trkpt>
      <trkpt lat="43.96913" lon="7.31811">
        <ele>718.59997558594</ele>
        <time>2019-03-30T12:21:54.000Z</time>
      </trkpt>
      <trkpt lat="43.96915" lon="7.31804">
        <ele>719</ele>
        <time>2019-03-30T12:21:57.000Z</time>
      </trkpt>
      <trkpt lat="43.96916" lon="7.31802">
        <ele>719.20001220703</ele>
        <time>2019-03-30T12:21:58.000Z</time>
      </trkpt>
      <trkpt lat="43.96918" lon="7.31798">
        <ele>719.59997558594</ele>
        <time>2019-03-30T12:22:00.000Z</time>
      </trkpt>
      <trkpt lat="43.96923" lon="7.31774">
        <ele>720.20001220703</ele>
        <time>2019-03-30T12:22:09.000Z</time>
      </trkpt>
      <trkpt lat="43.96932" lon="7.31755">
        <ele>720.79998779297</ele>
        <time>2019-03-30T12:22:16.000Z</time>
      </trkpt>
      <trkpt lat="43.96944" lon="7.31735">
        <ele>720.59997558594</ele>
        <time>2019-03-30T12:22:23.000Z</time>
      </trkpt>
      <trkpt lat="43.96948" lon="7.31716">
        <ele>720.79998779297</ele>
        <time>2019-03-30T12:22:29.000Z</time>
      </trkpt>
      <trkpt lat="43.96947" lon="7.31708">
        <ele>721.20001220703</ele>
        <time>2019-03-30T12:22:32.000Z</time>
      </trkpt>
      <trkpt lat="43.96945" lon="7.31696">
        <ele>721.59997558594</ele>
        <time>2019-03-30T12:22:36.000Z</time>
      </trkpt>
      <trkpt lat="43.96951" lon="7.31683">
        <ele>722</ele>
        <time>2019-03-30T12:22:41.000Z</time>
      </trkpt>
      <trkpt lat="43.96952" lon="7.31681">
        <ele>722.20001220703</ele>
        <time>2019-03-30T12:22:43.000Z</time>
      </trkpt>
      <trkpt lat="43.96955" lon="7.31671">
        <ele>722.79998779297</ele>
        <time>2019-03-30T12:22:48.000Z</time>
      </trkpt>
      <trkpt lat="43.96958" lon="7.3166">
        <ele>723.40002441406</ele>
        <time>2019-03-30T12:22:53.000Z</time>
      </trkpt>
      <trkpt lat="43.96958" lon="7.31658">
        <ele>723.59997558594</ele>
        <time>2019-03-30T12:22:54.000Z</time>
      </trkpt>
      <trkpt lat="43.96961" lon="7.31648">
        <ele>724.59997558594</ele>
        <time>2019-03-30T12:23:00.000Z</time>
      </trkpt>
      <trkpt lat="43.96961" lon="7.31647">
        <ele>724.79998779297</ele>
        <time>2019-03-30T12:23:01.000Z</time>
      </trkpt>
      <trkpt lat="43.96962" lon="7.31641">
        <ele>725.40002441406</ele>
        <time>2019-03-30T12:23:05.000Z</time>
      </trkpt>
      <trkpt lat="43.96962" lon="7.3164">
        <ele>725.59997558594</ele>
        <time>2019-03-30T12:23:06.000Z</time>
      </trkpt>
      <trkpt lat="43.96963" lon="7.31636">
        <ele>725.79998779297</ele>
        <time>2019-03-30T12:23:08.000Z</time>
      </trkpt>
      <trkpt lat="43.96962" lon="7.31635">
        <ele>726.20001220703</ele>
        <time>2019-03-30T12:23:10.000Z</time>
      </trkpt>
      <trkpt lat="43.9696" lon="7.31633">
        <ele>726.59997558594</ele>
        <time>2019-03-30T12:23:13.000Z</time>
      </trkpt>
      <trkpt lat="43.96958" lon="7.31633">
        <ele>726.59997558594</ele>
        <time>2019-03-30T12:23:14.000Z</time>
      </trkpt>
      <trkpt lat="43.96955" lon="7.31634">
        <ele>727.20001220703</ele>
        <time>2019-03-30T12:23:17.000Z</time>
      </trkpt>
      <trkpt lat="43.96954" lon="7.31636">
        <ele>727.20001220703</ele>
        <time>2019-03-30T12:23:18.000Z</time>
      </trkpt>
      <trkpt lat="43.96951" lon="7.31639">
        <ele>727.59997558594</ele>
        <time>2019-03-30T12:23:21.000Z</time>
      </trkpt>
      <trkpt lat="43.96948" lon="7.31642">
        <ele>728.40002441406</ele>
        <time>2019-03-30T12:23:24.000Z</time>
      </trkpt>
      <trkpt lat="43.96946" lon="7.31643">
        <ele>728.79998779297</ele>
        <time>2019-03-30T12:23:27.000Z</time>
      </trkpt>
      <trkpt lat="43.96942" lon="7.31646">
        <ele>729.79998779297</ele>
        <time>2019-03-30T12:23:31.000Z</time>
      </trkpt>
      <trkpt lat="43.96939" lon="7.31648">
        <ele>731</ele>
        <time>2019-03-30T12:23:35.000Z</time>
      </trkpt>
      <trkpt lat="43.96936" lon="7.3165">
        <ele>731.79998779297</ele>
        <time>2019-03-30T12:23:39.000Z</time>
      </trkpt>
      <trkpt lat="43.96936" lon="7.3165">
        <ele>732</ele>
        <time>2019-03-30T12:23:40.000Z</time>
      </trkpt>
      <trkpt lat="43.96933" lon="7.31651">
        <ele>732.40002441406</ele>
        <time>2019-03-30T12:23:43.000Z</time>
      </trkpt>
      <trkpt lat="43.96932" lon="7.31651">
        <ele>732.59997558594</ele>
        <time>2019-03-30T12:23:44.000Z</time>
      </trkpt>
      <trkpt lat="43.96931" lon="7.31652">
        <ele>733.20001220703</ele>
        <time>2019-03-30T12:23:46.000Z</time>
      </trkpt>
      <trkpt lat="43.96928" lon="7.31652">
        <ele>734</ele>
        <time>2019-03-30T12:23:50.000Z</time>
      </trkpt>
      <trkpt lat="43.96927" lon="7.31653">
        <ele>734.20001220703</ele>
        <time>2019-03-30T12:23:51.000Z</time>
      </trkpt>
      <trkpt lat="43.96922" lon="7.31652">
        <ele>734.79998779297</ele>
        <time>2019-03-30T12:23:57.000Z</time>
      </trkpt>
      <trkpt lat="43.96917" lon="7.31651">
        <ele>735.20001220703</ele>
        <time>2019-03-30T12:24:01.000Z</time>
      </trkpt>
      <trkpt lat="43.96916" lon="7.31652">
        <ele>735.59997558594</ele>
        <time>2019-03-30T12:24:03.000Z</time>
      </trkpt>
      <trkpt lat="43.96914" lon="7.31652">
        <ele>736.20001220703</ele>
        <time>2019-03-30T12:24:05.000Z</time>
      </trkpt>
      <trkpt lat="43.96907" lon="7.31653">
        <ele>737.20001220703</ele>
        <time>2019-03-30T12:24:10.000Z</time>
      </trkpt>
      <trkpt lat="43.96906" lon="7.31654">
        <ele>737.40002441406</ele>
        <time>2019-03-30T12:24:11.000Z</time>
      </trkpt>
      <trkpt lat="43.96897" lon="7.31659">
        <ele>737.79998779297</ele>
        <time>2019-03-30T12:24:17.000Z</time>
      </trkpt>
      <trkpt lat="43.96891" lon="7.31668">
        <ele>738.40002441406</ele>
        <time>2019-03-30T12:24:23.000Z</time>
      </trkpt>
      <trkpt lat="43.96885" lon="7.31676">
        <ele>739.40002441406</ele>
        <time>2019-03-30T12:24:29.000Z</time>
      </trkpt>
      <trkpt lat="43.96884" lon="7.31677">
        <ele>739.59997558594</ele>
        <time>2019-03-30T12:24:30.000Z</time>
      </trkpt>
      <trkpt lat="43.96883" lon="7.31679">
        <ele>740</ele>
        <time>2019-03-30T12:24:32.000Z</time>
      </trkpt>
      <trkpt lat="43.9688" lon="7.31684">
        <ele>740.40002441406</ele>
        <time>2019-03-30T12:24:36.000Z</time>
      </trkpt>
      <trkpt lat="43.96879" lon="7.31685">
        <ele>740.40002441406</ele>
        <time>2019-03-30T12:24:37.000Z</time>
      </trkpt>
      <trkpt lat="43.96875" lon="7.31691">
        <ele>741.20001220703</ele>
        <time>2019-03-30T12:24:42.000Z</time>
      </trkpt>
      <trkpt lat="43.96874" lon="7.31693">
        <ele>741.40002441406</ele>
        <time>2019-03-30T12:24:44.000Z</time>
      </trkpt>
      <trkpt lat="43.96874" lon="7.31694">
        <ele>741.59997558594</ele>
        <time>2019-03-30T12:24:45.000Z</time>
      </trkpt>
      <trkpt lat="43.96873" lon="7.31697">
        <ele>741.79998779297</ele>
        <time>2019-03-30T12:24:47.000Z</time>
      </trkpt>
      <trkpt lat="43.9687" lon="7.31701">
        <ele>742.40002441406</ele>
        <time>2019-03-30T12:24:50.000Z</time>
      </trkpt>
      <trkpt lat="43.9687" lon="7.31702">
        <ele>742.59997558594</ele>
        <time>2019-03-30T12:24:51.000Z</time>
      </trkpt>
      <trkpt lat="43.96868" lon="7.31705">
        <ele>742.79998779297</ele>
        <time>2019-03-30T12:24:53.000Z</time>
      </trkpt>
      <trkpt lat="43.96865" lon="7.31709">
        <ele>743.59997558594</ele>
        <time>2019-03-30T12:24:57.000Z</time>
      </trkpt>
      <trkpt lat="43.96865" lon="7.31711">
        <ele>744</ele>
        <time>2019-03-30T12:24:58.000Z</time>
      </trkpt>
      <trkpt lat="43.96864" lon="7.31712">
        <ele>744</ele>
        <time>2019-03-30T12:24:59.000Z</time>
      </trkpt>
      <trkpt lat="43.96864" lon="7.31716">
        <ele>744.59997558594</ele>
        <time>2019-03-30T12:25:02.000Z</time>
      </trkpt>
      <trkpt lat="43.96864" lon="7.31717">
        <ele>744.79998779297</ele>
        <time>2019-03-30T12:25:03.000Z</time>
      </trkpt>
      <trkpt lat="43.96862" lon="7.31723">
        <ele>746</ele>
        <time>2019-03-30T12:25:09.000Z</time>
      </trkpt>
      <trkpt lat="43.9686" lon="7.31726">
        <ele>746.40002441406</ele>
        <time>2019-03-30T12:25:12.000Z</time>
      </trkpt>
      <trkpt lat="43.96858" lon="7.31728">
        <ele>746.79998779297</ele>
        <time>2019-03-30T12:25:14.000Z</time>
      </trkpt>
      <trkpt lat="43.96856" lon="7.3173">
        <ele>747.20001220703</ele>
        <time>2019-03-30T12:25:16.000Z</time>
      </trkpt>
      <trkpt lat="43.96852" lon="7.31737">
        <ele>748</ele>
        <time>2019-03-30T12:25:21.000Z</time>
      </trkpt>
      <trkpt lat="43.9685" lon="7.31739">
        <ele>748.40002441406</ele>
        <time>2019-03-30T12:25:23.000Z</time>
      </trkpt>
      <trkpt lat="43.96848" lon="7.31742">
        <ele>748.79998779297</ele>
        <time>2019-03-30T12:25:26.000Z</time>
      </trkpt>
      <trkpt lat="43.9684" lon="7.3175">
        <ele>749.40002441406</ele>
        <time>2019-03-30T12:25:32.000Z</time>
      </trkpt>
      <trkpt lat="43.9684" lon="7.31752">
        <ele>749.59997558594</ele>
        <time>2019-03-30T12:25:33.000Z</time>
      </trkpt>
      <trkpt lat="43.96837" lon="7.31754">
        <ele>749.59997558594</ele>
        <time>2019-03-30T12:25:35.000Z</time>
      </trkpt>
      <trkpt lat="43.96836" lon="7.31755">
        <ele>749.79998779297</ele>
        <time>2019-03-30T12:25:36.000Z</time>
      </trkpt>
      <trkpt lat="43.96831" lon="7.31761">
        <ele>750.20001220703</ele>
        <time>2019-03-30T12:25:41.000Z</time>
      </trkpt>
      <trkpt lat="43.96828" lon="7.31765">
        <ele>750.59997558594</ele>
        <time>2019-03-30T12:25:44.000Z</time>
      </trkpt>
      <trkpt lat="43.96825" lon="7.31767">
        <ele>750.79998779297</ele>
        <time>2019-03-30T12:25:46.000Z</time>
      </trkpt>
      <trkpt lat="43.96824" lon="7.3177">
        <ele>751</ele>
        <time>2019-03-30T12:25:47.000Z</time>
      </trkpt>
      <trkpt lat="43.96823" lon="7.31775">
        <ele>751.59997558594</ele>
        <time>2019-03-30T12:25:50.000Z</time>
      </trkpt>
      <trkpt lat="43.96822" lon="7.31776">
        <ele>752</ele>
        <time>2019-03-30T12:25:51.000Z</time>
      </trkpt>
      <trkpt lat="43.96822" lon="7.31778">
        <ele>752.40002441406</ele>
        <time>2019-03-30T12:25:52.000Z</time>
      </trkpt>
      <trkpt lat="43.96822" lon="7.31779">
        <ele>752.59997558594</ele>
        <time>2019-03-30T12:25:53.000Z</time>
      </trkpt>
      <trkpt lat="43.96821" lon="7.31784">
        <ele>753.79998779297</ele>
        <time>2019-03-30T12:25:57.000Z</time>
      </trkpt>
      <trkpt lat="43.96821" lon="7.31785">
        <ele>754</ele>
        <time>2019-03-30T12:25:58.000Z</time>
      </trkpt>
      <trkpt lat="43.9682" lon="7.31791">
        <ele>754.79998779297</ele>
        <time>2019-03-30T12:26:03.000Z</time>
      </trkpt>
      <trkpt lat="43.96819" lon="7.31793">
        <ele>754.79998779297</ele>
        <time>2019-03-30T12:26:04.000Z</time>
      </trkpt>
      <trkpt lat="43.96818" lon="7.31795">
        <ele>754.79998779297</ele>
        <time>2019-03-30T12:26:05.000Z</time>
      </trkpt>
      <trkpt lat="43.96817" lon="7.318">
        <ele>755.20001220703</ele>
        <time>2019-03-30T12:26:08.000Z</time>
      </trkpt>
      <trkpt lat="43.96813" lon="7.31806">
        <ele>755.59997558594</ele>
        <time>2019-03-30T12:26:12.000Z</time>
      </trkpt>
      <trkpt lat="43.96812" lon="7.31806">
        <ele>755.79998779297</ele>
        <time>2019-03-30T12:26:13.000Z</time>
      </trkpt>
      <trkpt lat="43.96809" lon="7.31804">
        <ele>757</ele>
        <time>2019-03-30T12:26:17.000Z</time>
      </trkpt>
      <trkpt lat="43.96809" lon="7.31802">
        <ele>757.20001220703</ele>
        <time>2019-03-30T12:26:18.000Z</time>
      </trkpt>
      <trkpt lat="43.96808" lon="7.318">
        <ele>757.40002441406</ele>
        <time>2019-03-30T12:26:20.000Z</time>
      </trkpt>
      <trkpt lat="43.96806" lon="7.31796">
        <ele>758</ele>
        <time>2019-03-30T12:26:25.000Z</time>
      </trkpt>
      <trkpt lat="43.96805" lon="7.31791">
        <ele>758.79998779297</ele>
        <time>2019-03-30T12:26:29.000Z</time>
      </trkpt>
      <trkpt lat="43.96805" lon="7.31788">
        <ele>759</ele>
        <time>2019-03-30T12:26:31.000Z</time>
      </trkpt>
      <trkpt lat="43.96805" lon="7.31787">
        <ele>759.20001220703</ele>
        <time>2019-03-30T12:26:32.000Z</time>
      </trkpt>
      <trkpt lat="43.96805" lon="7.31783">
        <ele>759.59997558594</ele>
        <time>2019-03-30T12:26:35.000Z</time>
      </trkpt>
      <trkpt lat="43.96806" lon="7.31781">
        <ele>759.59997558594</ele>
        <time>2019-03-30T12:26:37.000Z</time>
      </trkpt>
      <trkpt lat="43.96807" lon="7.31774">
        <ele>760.20001220703</ele>
        <time>2019-03-30T12:26:42.000Z</time>
      </trkpt>
      <trkpt lat="43.96807" lon="7.31772">
        <ele>760.20001220703</ele>
        <time>2019-03-30T12:26:43.000Z</time>
      </trkpt>
      <trkpt lat="43.96809" lon="7.31763">
        <ele>760.79998779297</ele>
        <time>2019-03-30T12:26:48.000Z</time>
      </trkpt>
      <trkpt lat="43.9681" lon="7.31758">
        <ele>761.20001220703</ele>
        <time>2019-03-30T12:26:51.000Z</time>
      </trkpt>
      <trkpt lat="43.96811" lon="7.31753">
        <ele>761.59997558594</ele>
        <time>2019-03-30T12:26:54.000Z</time>
      </trkpt>
      <trkpt lat="43.9681" lon="7.31738">
        <ele>762</ele>
        <time>2019-03-30T12:27:01.000Z</time>
      </trkpt>
      <trkpt lat="43.96812" lon="7.31725">
        <ele>762.20001220703</ele>
        <time>2019-03-30T12:27:06.000Z</time>
      </trkpt>
      <trkpt lat="43.96812" lon="7.31723">
        <ele>762.40002441406</ele>
        <time>2019-03-30T12:27:07.000Z</time>
      </trkpt>
      <trkpt lat="43.96813" lon="7.31717">
        <ele>763.20001220703</ele>
        <time>2019-03-30T12:27:11.000Z</time>
      </trkpt>
      <trkpt lat="43.96812" lon="7.31715">
        <ele>763.20001220703</ele>
        <time>2019-03-30T12:27:12.000Z</time>
      </trkpt>
      <trkpt lat="43.96809" lon="7.31711">
        <ele>763.40002441406</ele>
        <time>2019-03-30T12:27:15.000Z</time>
      </trkpt>
      <trkpt lat="43.96807" lon="7.31706">
        <ele>764.40002441406</ele>
        <time>2019-03-30T12:27:19.000Z</time>
      </trkpt>
      <trkpt lat="43.96807" lon="7.31704">
        <ele>764.59997558594</ele>
        <time>2019-03-30T12:27:20.000Z</time>
      </trkpt>
      <trkpt lat="43.96803" lon="7.31695">
        <ele>765.59997558594</ele>
        <time>2019-03-30T12:27:26.000Z</time>
      </trkpt>
      <trkpt lat="43.968" lon="7.31685">
        <ele>766.79998779297</ele>
        <time>2019-03-30T12:27:32.000Z</time>
      </trkpt>
      <trkpt lat="43.968" lon="7.31679">
        <ele>767.20001220703</ele>
        <time>2019-03-30T12:27:35.000Z</time>
      </trkpt>
      <trkpt lat="43.96801" lon="7.31672">
        <ele>767.59997558594</ele>
        <time>2019-03-30T12:27:38.000Z</time>
      </trkpt>
      <trkpt lat="43.96803" lon="7.31665">
        <ele>767.79998779297</ele>
        <time>2019-03-30T12:27:41.000Z</time>
      </trkpt>
      <trkpt lat="43.96805" lon="7.31657">
        <ele>768.20001220703</ele>
        <time>2019-03-30T12:27:45.000Z</time>
      </trkpt>
      <trkpt lat="43.96807" lon="7.31652">
        <ele>768.59997558594</ele>
        <time>2019-03-30T12:27:48.000Z</time>
      </trkpt>
      <trkpt lat="43.96809" lon="7.31646">
        <ele>768.79998779297</ele>
        <time>2019-03-30T12:27:51.000Z</time>
      </trkpt>
      <trkpt lat="43.96813" lon="7.31638">
        <ele>769</ele>
        <time>2019-03-30T12:27:55.000Z</time>
      </trkpt>
      <trkpt lat="43.96815" lon="7.31632">
        <ele>769.40002441406</ele>
        <time>2019-03-30T12:27:58.000Z</time>
      </trkpt>
      <trkpt lat="43.96819" lon="7.31625">
        <ele>769.79998779297</ele>
        <time>2019-03-30T12:28:03.000Z</time>
      </trkpt>
      <trkpt lat="43.96819" lon="7.31622">
        <ele>770</ele>
        <time>2019-03-30T12:28:04.000Z</time>
      </trkpt>
      <trkpt lat="43.96819" lon="7.31621">
        <ele>770.20001220703</ele>
        <time>2019-03-30T12:28:08.000Z</time>
      </trkpt>
      <trkpt lat="43.96819" lon="7.3162">
        <ele>769.59997558594</ele>
        <time>2019-03-30T12:28:19.000Z</time>
      </trkpt>
      <trkpt lat="43.96819" lon="7.3162">
        <ele>770.40002441406</ele>
        <time>2019-03-30T12:28:31.000Z</time>
      </trkpt>
      <trkpt lat="43.9682" lon="7.31619">
        <ele>769.79998779297</ele>
        <time>2019-03-30T12:28:41.000Z</time>
      </trkpt>
      <trkpt lat="43.9682" lon="7.31618">
        <ele>770.20001220703</ele>
        <time>2019-03-30T12:28:54.000Z</time>
      </trkpt>
      <trkpt lat="43.96817" lon="7.3162">
        <ele>770.40002441406</ele>
        <time>2019-03-30T12:28:58.000Z</time>
      </trkpt>
      <trkpt lat="43.96816" lon="7.31622">
        <ele>770.40002441406</ele>
        <time>2019-03-30T12:29:00.000Z</time>
      </trkpt>
      <trkpt lat="43.96813" lon="7.31625">
        <ele>770.79998779297</ele>
        <time>2019-03-30T12:29:03.000Z</time>
      </trkpt>
      <trkpt lat="43.96811" lon="7.31626">
        <ele>771.20001220703</ele>
        <time>2019-03-30T12:29:05.000Z</time>
      </trkpt>
      <trkpt lat="43.96809" lon="7.31629">
        <ele>771.40002441406</ele>
        <time>2019-03-30T12:29:07.000Z</time>
      </trkpt>
      <trkpt lat="43.96806" lon="7.31632">
        <ele>772</ele>
        <time>2019-03-30T12:29:10.000Z</time>
      </trkpt>
      <trkpt lat="43.968" lon="7.3164">
        <ele>773</ele>
        <time>2019-03-30T12:29:16.000Z</time>
      </trkpt>
      <trkpt lat="43.96794" lon="7.31647">
        <ele>773.59997558594</ele>
        <time>2019-03-30T12:29:22.000Z</time>
      </trkpt>
      <trkpt lat="43.96792" lon="7.3165">
        <ele>774</ele>
        <time>2019-03-30T12:29:24.000Z</time>
      </trkpt>
      <trkpt lat="43.96787" lon="7.31656">
        <ele>774.79998779297</ele>
        <time>2019-03-30T12:29:28.000Z</time>
      </trkpt>
      <trkpt lat="43.96786" lon="7.3166">
        <ele>775.20001220703</ele>
        <time>2019-03-30T12:29:30.000Z</time>
      </trkpt>
      <trkpt lat="43.96783" lon="7.31668">
        <ele>776.20001220703</ele>
        <time>2019-03-30T12:29:34.000Z</time>
      </trkpt>
      <trkpt lat="43.9678" lon="7.31673">
        <ele>777.20001220703</ele>
        <time>2019-03-30T12:29:38.000Z</time>
      </trkpt>
      <trkpt lat="43.96779" lon="7.31672">
        <ele>777.40002441406</ele>
        <time>2019-03-30T12:29:39.000Z</time>
      </trkpt>
      <trkpt lat="43.96779" lon="7.31665">
        <ele>778.40002441406</ele>
        <time>2019-03-30T12:29:42.000Z</time>
      </trkpt>
      <trkpt lat="43.96778" lon="7.31663">
        <ele>778.59997558594</ele>
        <time>2019-03-30T12:29:43.000Z</time>
      </trkpt>
      <trkpt lat="43.96779" lon="7.31645">
        <ele>778.59997558594</ele>
        <time>2019-03-30T12:29:51.000Z</time>
      </trkpt>
      <trkpt lat="43.96784" lon="7.31632">
        <ele>779.20001220703</ele>
        <time>2019-03-30T12:29:58.000Z</time>
      </trkpt>
      <trkpt lat="43.96789" lon="7.31618">
        <ele>779.79998779297</ele>
        <time>2019-03-30T12:30:05.000Z</time>
      </trkpt>
      <trkpt lat="43.9679" lon="7.31617">
        <ele>779.79998779297</ele>
        <time>2019-03-30T12:30:06.000Z</time>
      </trkpt>
      <trkpt lat="43.96794" lon="7.31604">
        <ele>780.59997558594</ele>
        <time>2019-03-30T12:30:13.000Z</time>
      </trkpt>
      <trkpt lat="43.96795" lon="7.31597">
        <ele>780.59997558594</ele>
        <time>2019-03-30T12:30:16.000Z</time>
      </trkpt>
      <trkpt lat="43.96795" lon="7.31596">
        <ele>780.59997558594</ele>
        <time>2019-03-30T12:30:17.000Z</time>
      </trkpt>
      <trkpt lat="43.96795" lon="7.31596">
        <ele>780.20001220703</ele>
        <time>2019-03-30T12:30:24.000Z</time>
      </trkpt>
      <trkpt lat="43.96796" lon="7.31597">
        <ele>780</ele>
        <time>2019-03-30T12:30:39.000Z</time>
      </trkpt>
      <trkpt lat="43.96797" lon="7.31596">
        <ele>780.20001220703</ele>
        <time>2019-03-30T12:30:49.000Z</time>
      </trkpt>
      <trkpt lat="43.96797" lon="7.31596">
        <ele>780.40002441406</ele>
        <time>2019-03-30T12:30:54.000Z</time>
      </trkpt>
      <trkpt lat="43.96797" lon="7.31596">
        <ele>780.79998779297</ele>
        <time>2019-03-30T12:30:57.000Z</time>
      </trkpt>
      <trkpt lat="43.96794" lon="7.31595">
        <ele>781</ele>
        <time>2019-03-30T12:31:01.000Z</time>
      </trkpt>
      <trkpt lat="43.96792" lon="7.31593">
        <ele>781.59997558594</ele>
        <time>2019-03-30T12:31:08.000Z</time>
      </trkpt>
      <trkpt lat="43.96791" lon="7.31593">
        <ele>782</ele>
        <time>2019-03-30T12:31:10.000Z</time>
      </trkpt>
      <trkpt lat="43.96789" lon="7.31591">
        <ele>782.40002441406</ele>
        <time>2019-03-30T12:31:13.000Z</time>
      </trkpt>
      <trkpt lat="43.96789" lon="7.3159">
        <ele>783</ele>
        <time>2019-03-30T12:31:18.000Z</time>
      </trkpt>
      <trkpt lat="43.96789" lon="7.3159">
        <ele>783.20001220703</ele>
        <time>2019-03-30T12:31:22.000Z</time>
      </trkpt>
      <trkpt lat="43.9679" lon="7.3159">
        <ele>783</ele>
        <time>2019-03-30T12:31:41.000Z</time>
      </trkpt>
      <trkpt lat="43.9679" lon="7.3159">
        <ele>783</ele>
        <time>2019-03-30T12:31:53.000Z</time>
      </trkpt>
      <trkpt lat="43.9679" lon="7.3159">
        <ele>782.79998779297</ele>
        <time>2019-03-30T12:32:02.000Z</time>
      </trkpt>
      <trkpt lat="43.9679" lon="7.31592">
        <ele>782.79998779297</ele>
        <time>2019-03-30T12:32:08.000Z</time>
      </trkpt>
      <trkpt lat="43.96791" lon="7.31592">
        <ele>782.79998779297</ele>
        <time>2019-03-30T12:32:14.000Z</time>
      </trkpt>
      <trkpt lat="43.96791" lon="7.31592">
        <ele>782.79998779297</ele>
        <time>2019-03-30T12:32:20.000Z</time>
      </trkpt>
      <trkpt lat="43.96793" lon="7.31594">
        <ele>782.79998779297</ele>
        <time>2019-03-30T12:32:31.000Z</time>
      </trkpt>
      <trkpt lat="43.96797" lon="7.31602">
        <ele>782.40002441406</ele>
        <time>2019-03-30T12:32:40.000Z</time>
      </trkpt>
      <trkpt lat="43.96796" lon="7.31603">
        <ele>782.20001220703</ele>
        <time>2019-03-30T12:32:41.000Z</time>
      </trkpt>
      <trkpt lat="43.96796" lon="7.31604">
        <ele>781.79998779297</ele>
        <time>2019-03-30T12:32:42.000Z</time>
      </trkpt>
      <trkpt lat="43.96796" lon="7.31604">
        <ele>781.40002441406</ele>
        <time>2019-03-30T12:32:45.000Z</time>
      </trkpt>
      <trkpt lat="43.96797" lon="7.31604">
        <ele>781</ele>
        <time>2019-03-30T12:33:00.000Z</time>
      </trkpt>
      <trkpt lat="43.96797" lon="7.31604">
        <ele>781.40002441406</ele>
        <time>2019-03-30T12:33:15.000Z</time>
      </trkpt>
      <trkpt lat="43.96799" lon="7.31602">
        <ele>781.79998779297</ele>
        <time>2019-03-30T12:33:25.000Z</time>
      </trkpt>
      <trkpt lat="43.96798" lon="7.31602">
        <ele>780.79998779297</ele>
        <time>2019-03-30T12:33:32.000Z</time>
      </trkpt>
      <trkpt lat="43.96798" lon="7.31603">
        <ele>781.20001220703</ele>
        <time>2019-03-30T12:33:43.000Z</time>
      </trkpt>
      <trkpt lat="43.96798" lon="7.31603">
        <ele>781.40002441406</ele>
        <time>2019-03-30T12:33:48.000Z</time>
      </trkpt>
      <trkpt lat="43.96798" lon="7.31603">
        <ele>781.79998779297</ele>
        <time>2019-03-30T12:33:51.000Z</time>
      </trkpt>
      <trkpt lat="43.96798" lon="7.31603">
        <ele>781.40002441406</ele>
        <time>2019-03-30T12:33:57.000Z</time>
      </trkpt>
      <trkpt lat="43.96799" lon="7.31603">
        <ele>781.79998779297</ele>
        <time>2019-03-30T12:34:08.000Z</time>
      </trkpt>
      <trkpt lat="43.96799" lon="7.31603">
        <ele>781.59997558594</ele>
        <time>2019-03-30T12:34:15.000Z</time>
      </trkpt>
      <trkpt lat="43.968" lon="7.31599">
        <ele>781</ele>
        <time>2019-03-30T12:34:20.000Z</time>
      </trkpt>
      <trkpt lat="43.968" lon="7.31598">
        <ele>780.79998779297</ele>
        <time>2019-03-30T12:34:21.000Z</time>
      </trkpt>
      <trkpt lat="43.96801" lon="7.316">
        <ele>780.40002441406</ele>
        <time>2019-03-30T12:34:23.000Z</time>
      </trkpt>
      <trkpt lat="43.96802" lon="7.31603">
        <ele>781</ele>
        <time>2019-03-30T12:34:26.000Z</time>
      </trkpt>
      <trkpt lat="43.96803" lon="7.31605">
        <ele>781.20001220703</ele>
        <time>2019-03-30T12:34:33.000Z</time>
      </trkpt>
      <trkpt lat="43.96803" lon="7.31599">
        <ele>780.59997558594</ele>
        <time>2019-03-30T12:34:39.000Z</time>
      </trkpt>
      <trkpt lat="43.96803" lon="7.31598">
        <ele>781.40002441406</ele>
        <time>2019-03-30T12:34:48.000Z</time>
      </trkpt>
      <trkpt lat="43.96802" lon="7.316">
        <ele>781.40002441406</ele>
        <time>2019-03-30T12:34:52.000Z</time>
      </trkpt>
      <trkpt lat="43.96802" lon="7.316">
        <ele>781.40002441406</ele>
        <time>2019-03-30T12:34:54.000Z</time>
      </trkpt>
      <trkpt lat="43.968" lon="7.31598">
        <ele>781.20001220703</ele>
        <time>2019-03-30T12:35:03.000Z</time>
      </trkpt>
      <trkpt lat="43.96799" lon="7.31598">
        <ele>780.79998779297</ele>
        <time>2019-03-30T12:35:09.000Z</time>
      </trkpt>
      <trkpt lat="43.968" lon="7.31598">
        <ele>780.40002441406</ele>
        <time>2019-03-30T12:35:17.000Z</time>
      </trkpt>
      <trkpt lat="43.96801" lon="7.31603">
        <ele>780.40002441406</ele>
        <time>2019-03-30T12:35:23.000Z</time>
      </trkpt>
      <trkpt lat="43.96802" lon="7.31606">
        <ele>780</ele>
        <time>2019-03-30T12:35:30.000Z</time>
      </trkpt>
      <trkpt lat="43.96801" lon="7.31608">
        <ele>780.40002441406</ele>
        <time>2019-03-30T12:35:37.000Z</time>
      </trkpt>
      <trkpt lat="43.96801" lon="7.31607">
        <ele>781</ele>
        <time>2019-03-30T12:35:45.000Z</time>
      </trkpt>
      <trkpt lat="43.96801" lon="7.31607">
        <ele>781.40002441406</ele>
        <time>2019-03-30T12:35:59.000Z</time>
      </trkpt>
      <trkpt lat="43.96801" lon="7.31607">
        <ele>781.59997558594</ele>
        <time>2019-03-30T12:36:08.000Z</time>
      </trkpt>
      <trkpt lat="43.96801" lon="7.31608">
        <ele>781.79998779297</ele>
        <time>2019-03-30T12:36:11.000Z</time>
      </trkpt>
      <trkpt lat="43.96801" lon="7.31608">
        <ele>781.79998779297</ele>
        <time>2019-03-30T12:36:15.000Z</time>
      </trkpt>
      <trkpt lat="43.96801" lon="7.31608">
        <ele>781.40002441406</ele>
        <time>2019-03-30T12:36:24.000Z</time>
      </trkpt>
      <trkpt lat="43.96801" lon="7.31608">
        <ele>780.79998779297</ele>
        <time>2019-03-30T12:36:38.000Z</time>
      </trkpt>
      <trkpt lat="43.96801" lon="7.31608">
        <ele>780.79998779297</ele>
        <time>2019-03-30T12:36:44.000Z</time>
      </trkpt>
      <trkpt lat="43.968" lon="7.31609">
        <ele>780.79998779297</ele>
        <time>2019-03-30T12:36:58.000Z</time>
      </trkpt>
      <trkpt lat="43.96799" lon="7.31608">
        <ele>781</ele>
        <time>2019-03-30T12:37:04.000Z</time>
      </trkpt>
      <trkpt lat="43.96799" lon="7.31608">
        <ele>781.40002441406</ele>
        <time>2019-03-30T12:37:09.000Z</time>
      </trkpt>
      <trkpt lat="43.96799" lon="7.31608">
        <ele>781.40002441406</ele>
        <time>2019-03-30T12:37:16.000Z</time>
      </trkpt>
      <trkpt lat="43.96799" lon="7.31607">
        <ele>781.20001220703</ele>
        <time>2019-03-30T12:37:17.000Z</time>
      </trkpt>
      <trkpt lat="43.96798" lon="7.316">
        <ele>781.40002441406</ele>
        <time>2019-03-30T12:37:21.000Z</time>
      </trkpt>
      <trkpt lat="43.96798" lon="7.31599">
        <ele>782</ele>
        <time>2019-03-30T12:37:25.000Z</time>
      </trkpt>
      <trkpt lat="43.96798" lon="7.31599">
        <ele>782.20001220703</ele>
        <time>2019-03-30T12:37:26.000Z</time>
      </trkpt>
      <trkpt lat="43.96799" lon="7.316">
        <ele>781.40002441406</ele>
        <time>2019-03-30T12:37:36.000Z</time>
      </trkpt>
      <trkpt lat="43.96799" lon="7.316">
        <ele>782.20001220703</ele>
        <time>2019-03-30T12:37:46.000Z</time>
      </trkpt>
      <trkpt lat="43.96799" lon="7.31599">
        <ele>781.79998779297</ele>
        <time>2019-03-30T12:37:50.000Z</time>
      </trkpt>
      <trkpt lat="43.96799" lon="7.316">
        <ele>781</ele>
        <time>2019-03-30T12:38:00.000Z</time>
      </trkpt>
      <trkpt lat="43.96799" lon="7.316">
        <ele>781</ele>
        <time>2019-03-30T12:38:02.000Z</time>
      </trkpt>
      <trkpt lat="43.96799" lon="7.316">
        <ele>781.20001220703</ele>
        <time>2019-03-30T12:38:07.000Z</time>
      </trkpt>
      <trkpt lat="43.96799" lon="7.316">
        <ele>781.40002441406</ele>
        <time>2019-03-30T12:38:12.000Z</time>
      </trkpt>
      <trkpt lat="43.96799" lon="7.31604">
        <ele>781.59997558594</ele>
        <time>2019-03-30T12:38:20.000Z</time>
      </trkpt>
      <trkpt lat="43.96799" lon="7.31604">
        <ele>781.59997558594</ele>
        <time>2019-03-30T12:38:27.000Z</time>
      </trkpt>
      <trkpt lat="43.96799" lon="7.31604">
        <ele>782.40002441406</ele>
        <time>2019-03-30T12:38:39.000Z</time>
      </trkpt>
      <trkpt lat="43.968" lon="7.31604">
        <ele>781.59997558594</ele>
        <time>2019-03-30T12:38:47.000Z</time>
      </trkpt>
      <trkpt lat="43.968" lon="7.31603">
        <ele>781.79998779297</ele>
        <time>2019-03-30T12:39:12.000Z</time>
      </trkpt>
      <trkpt lat="43.96801" lon="7.31603">
        <ele>781.79998779297</ele>
        <time>2019-03-30T12:39:18.000Z</time>
      </trkpt>
      <trkpt lat="43.96801" lon="7.316">
        <ele>782.20001220703</ele>
        <time>2019-03-30T12:39:29.000Z</time>
      </trkpt>
      <trkpt lat="43.96801" lon="7.316">
        <ele>782.20001220703</ele>
        <time>2019-03-30T12:39:38.000Z</time>
      </trkpt>
      <trkpt lat="43.96801" lon="7.316">
        <ele>782</ele>
        <time>2019-03-30T12:39:49.000Z</time>
      </trkpt>
      <trkpt lat="43.968" lon="7.31601">
        <ele>782.20001220703</ele>
        <time>2019-03-30T12:40:05.000Z</time>
      </trkpt>
      <trkpt lat="43.968" lon="7.31599">
        <ele>781.79998779297</ele>
        <time>2019-03-30T12:40:10.000Z</time>
      </trkpt>
      <trkpt lat="43.968" lon="7.31599">
        <ele>782</ele>
        <time>2019-03-30T12:40:15.000Z</time>
      </trkpt>
      <trkpt lat="43.96802" lon="7.31601">
        <ele>782.40002441406</ele>
        <time>2019-03-30T12:40:22.000Z</time>
      </trkpt>
      <trkpt lat="43.96803" lon="7.31603">
        <ele>782.20001220703</ele>
        <time>2019-03-30T12:40:31.000Z</time>
      </trkpt>
      <trkpt lat="43.96802" lon="7.31602">
        <ele>782.20001220703</ele>
        <time>2019-03-30T12:40:32.000Z</time>
      </trkpt>
      <trkpt lat="43.96803" lon="7.31603">
        <ele>782.20001220703</ele>
        <time>2019-03-30T12:40:38.000Z</time>
      </trkpt>
      <trkpt lat="43.96806" lon="7.31603">
        <ele>781.20001220703</ele>
        <time>2019-03-30T12:40:48.000Z</time>
      </trkpt>
      <trkpt lat="43.96806" lon="7.31603">
        <ele>781</ele>
        <time>2019-03-30T12:40:49.000Z</time>
      </trkpt>
      <trkpt lat="43.96806" lon="7.31599">
        <ele>780.20001220703</ele>
        <time>2019-03-30T12:40:53.000Z</time>
      </trkpt>
      <trkpt lat="43.96805" lon="7.31598">
        <ele>779.59997558594</ele>
        <time>2019-03-30T12:40:56.000Z</time>
      </trkpt>
      <trkpt lat="43.96802" lon="7.3159">
        <ele>779.40002441406</ele>
        <time>2019-03-30T12:41:02.000Z</time>
      </trkpt>
      <trkpt lat="43.96801" lon="7.31587">
        <ele>779.20001220703</ele>
        <time>2019-03-30T12:41:03.000Z</time>
      </trkpt>
      <trkpt lat="43.96795" lon="7.31581">
        <ele>778.20001220703</ele>
        <time>2019-03-30T12:41:07.000Z</time>
      </trkpt>
      <trkpt lat="43.96792" lon="7.3158">
        <ele>778.79998779297</ele>
        <time>2019-03-30T12:41:12.000Z</time>
      </trkpt>
      <trkpt lat="43.96792" lon="7.31579">
        <ele>778.79998779297</ele>
        <time>2019-03-30T12:41:32.000Z</time>
      </trkpt>
      <trkpt lat="43.96792" lon="7.3158">
        <ele>779</ele>
        <time>2019-03-30T12:41:50.000Z</time>
      </trkpt>
      <trkpt lat="43.96792" lon="7.3158">
        <ele>779.20001220703</ele>
        <time>2019-03-30T12:42:00.000Z</time>
      </trkpt>
      <trkpt lat="43.96792" lon="7.31578">
        <ele>778.79998779297</ele>
        <time>2019-03-30T12:42:15.000Z</time>
      </trkpt>
      <trkpt lat="43.96791" lon="7.31576">
        <ele>778.79998779297</ele>
        <time>2019-03-30T12:42:34.000Z</time>
      </trkpt>
      <trkpt lat="43.9679" lon="7.31577">
        <ele>779.20001220703</ele>
        <time>2019-03-30T12:42:47.000Z</time>
      </trkpt>
      <trkpt lat="43.96792" lon="7.31577">
        <ele>778.40002441406</ele>
        <time>2019-03-30T12:42:51.000Z</time>
      </trkpt>
      <trkpt lat="43.96794" lon="7.31577">
        <ele>778.59997558594</ele>
        <time>2019-03-30T12:42:53.000Z</time>
      </trkpt>
      <trkpt lat="43.96799" lon="7.31583">
        <ele>778.20001220703</ele>
        <time>2019-03-30T12:42:59.000Z</time>
      </trkpt>
      <trkpt lat="43.968" lon="7.31583">
        <ele>778.20001220703</ele>
        <time>2019-03-30T12:43:00.000Z</time>
      </trkpt>
      <trkpt lat="43.96805" lon="7.3159">
        <ele>778.40002441406</ele>
        <time>2019-03-30T12:43:07.000Z</time>
      </trkpt>
      <trkpt lat="43.96806" lon="7.31592">
        <ele>778.40002441406</ele>
        <time>2019-03-30T12:43:09.000Z</time>
      </trkpt>
      <trkpt lat="43.96807" lon="7.31596">
        <ele>778.40002441406</ele>
        <time>2019-03-30T12:43:13.000Z</time>
      </trkpt>
      <trkpt lat="43.96806" lon="7.31599">
        <ele>779</ele>
        <time>2019-03-30T12:43:19.000Z</time>
      </trkpt>
      <trkpt lat="43.96805" lon="7.31604">
        <ele>780</ele>
        <time>2019-03-30T12:43:25.000Z</time>
      </trkpt>
      <trkpt lat="43.96805" lon="7.31605">
        <ele>780.20001220703</ele>
        <time>2019-03-30T12:43:27.000Z</time>
      </trkpt>
      <trkpt lat="43.96804" lon="7.31606">
        <ele>781</ele>
        <time>2019-03-30T12:43:31.000Z</time>
      </trkpt>
      <trkpt lat="43.96803" lon="7.31607">
        <ele>781.40002441406</ele>
        <time>2019-03-30T12:43:35.000Z</time>
      </trkpt>
      <trkpt lat="43.96803" lon="7.31607">
        <ele>781.59997558594</ele>
        <time>2019-03-30T12:43:37.000Z</time>
      </trkpt>
      <trkpt lat="43.96803" lon="7.31608">
        <ele>782</ele>
        <time>2019-03-30T12:43:54.000Z</time>
      </trkpt>
      <trkpt lat="43.96802" lon="7.31609">
        <ele>782.20001220703</ele>
        <time>2019-03-30T12:44:04.000Z</time>
      </trkpt>
      <trkpt lat="43.96802" lon="7.3161">
        <ele>782</ele>
        <time>2019-03-30T12:44:20.000Z</time>
      </trkpt>
      <trkpt lat="43.96802" lon="7.31608">
        <ele>781.79998779297</ele>
        <time>2019-03-30T12:44:30.000Z</time>
      </trkpt>
      <trkpt lat="43.96802" lon="7.31602">
        <ele>782.40002441406</ele>
        <time>2019-03-30T12:44:36.000Z</time>
      </trkpt>
      <trkpt lat="43.96802" lon="7.31602">
        <ele>783.40002441406</ele>
        <time>2019-03-30T12:44:41.000Z</time>
      </trkpt>
      <trkpt lat="43.96802" lon="7.31604">
        <ele>782.40002441406</ele>
        <time>2019-03-30T12:44:50.000Z</time>
      </trkpt>
      <trkpt lat="43.96802" lon="7.31603">
        <ele>782.20001220703</ele>
        <time>2019-03-30T12:44:51.000Z</time>
      </trkpt>
      <trkpt lat="43.96802" lon="7.31604">
        <ele>781.59997558594</ele>
        <time>2019-03-30T12:45:00.000Z</time>
      </trkpt>
      <trkpt lat="43.96801" lon="7.31599">
        <ele>781.59997558594</ele>
        <time>2019-03-30T12:45:08.000Z</time>
      </trkpt>
      <trkpt lat="43.96801" lon="7.31599">
        <ele>782.79998779297</ele>
        <time>2019-03-30T12:45:16.000Z</time>
      </trkpt>
      <trkpt lat="43.96801" lon="7.31599">
        <ele>782.59997558594</ele>
        <time>2019-03-30T12:45:34.000Z</time>
      </trkpt>
      <trkpt lat="43.968" lon="7.31599">
        <ele>782.40002441406</ele>
        <time>2019-03-30T12:45:45.000Z</time>
      </trkpt>
      <trkpt lat="43.968" lon="7.31598">
        <ele>782.40002441406</ele>
        <time>2019-03-30T12:45:58.000Z</time>
      </trkpt>
      <trkpt lat="43.968" lon="7.31598">
        <ele>782.40002441406</ele>
        <time>2019-03-30T12:46:08.000Z</time>
      </trkpt>
      <trkpt lat="43.968" lon="7.31597">
        <ele>782.79998779297</ele>
        <time>2019-03-30T12:46:19.000Z</time>
      </trkpt>
      <trkpt lat="43.968" lon="7.31597">
        <ele>783.40002441406</ele>
        <time>2019-03-30T12:46:29.000Z</time>
      </trkpt>
      <trkpt lat="43.968" lon="7.31597">
        <ele>783.40002441406</ele>
        <time>2019-03-30T12:46:36.000Z</time>
      </trkpt>
      <trkpt lat="43.96801" lon="7.31598">
        <ele>783.59997558594</ele>
        <time>2019-03-30T12:46:48.000Z</time>
      </trkpt>
      <trkpt lat="43.96802" lon="7.31602">
        <ele>783.40002441406</ele>
        <time>2019-03-30T12:46:51.000Z</time>
      </trkpt>
      <trkpt lat="43.96801" lon="7.31606">
        <ele>782.40002441406</ele>
        <time>2019-03-30T12:46:58.000Z</time>
      </trkpt>
      <trkpt lat="43.96801" lon="7.31606">
        <ele>782.79998779297</ele>
        <time>2019-03-30T12:47:11.000Z</time>
      </trkpt>
      <trkpt lat="43.96801" lon="7.31606">
        <ele>782.79998779297</ele>
        <time>2019-03-30T12:47:24.000Z</time>
      </trkpt>
      <trkpt lat="43.96802" lon="7.31605">
        <ele>782</ele>
        <time>2019-03-30T12:47:47.000Z</time>
      </trkpt>
      <trkpt lat="43.96802" lon="7.31605">
        <ele>782.59997558594</ele>
        <time>2019-03-30T12:47:57.000Z</time>
      </trkpt>
      <trkpt lat="43.96802" lon="7.31602">
        <ele>782.40002441406</ele>
        <time>2019-03-30T12:48:10.000Z</time>
      </trkpt>
      <trkpt lat="43.96802" lon="7.316">
        <ele>781.59997558594</ele>
        <time>2019-03-30T12:48:17.000Z</time>
      </trkpt>
      <trkpt lat="43.96802" lon="7.31598">
        <ele>783</ele>
        <time>2019-03-30T12:48:27.000Z</time>
      </trkpt>
      <trkpt lat="43.96803" lon="7.31596">
        <ele>782.40002441406</ele>
        <time>2019-03-30T12:48:29.000Z</time>
      </trkpt>
      <trkpt lat="43.96804" lon="7.31596">
        <ele>782</ele>
        <time>2019-03-30T12:48:32.000Z</time>
      </trkpt>
      <trkpt lat="43.96805" lon="7.31595">
        <ele>782.20001220703</ele>
        <time>2019-03-30T12:48:33.000Z</time>
      </trkpt>
      <trkpt lat="43.96805" lon="7.31591">
        <ele>781.20001220703</ele>
        <time>2019-03-30T12:48:36.000Z</time>
      </trkpt>
      <trkpt lat="43.96804" lon="7.31588">
        <ele>779.79998779297</ele>
        <time>2019-03-30T12:48:38.000Z</time>
      </trkpt>
      <trkpt lat="43.96803" lon="7.31585">
        <ele>778.79998779297</ele>
        <time>2019-03-30T12:48:40.000Z</time>
      </trkpt>
      <trkpt lat="43.96802" lon="7.31584">
        <ele>778.59997558594</ele>
        <time>2019-03-30T12:48:41.000Z</time>
      </trkpt>
      <trkpt lat="43.968" lon="7.31582">
        <ele>778.79998779297</ele>
        <time>2019-03-30T12:48:43.000Z</time>
      </trkpt>
      <trkpt lat="43.96795" lon="7.31577">
        <ele>778.79998779297</ele>
        <time>2019-03-30T12:48:49.000Z</time>
      </trkpt>
      <trkpt lat="43.96793" lon="7.31577">
        <ele>779.59997558594</ele>
        <time>2019-03-30T12:48:54.000Z</time>
      </trkpt>
      <trkpt lat="43.96793" lon="7.31577">
        <ele>779.79998779297</ele>
        <time>2019-03-30T12:48:55.000Z</time>
      </trkpt>
      <trkpt lat="43.96792" lon="7.31576">
        <ele>779.40002441406</ele>
        <time>2019-03-30T12:48:59.000Z</time>
      </trkpt>
      <trkpt lat="43.96792" lon="7.31575">
        <ele>779</ele>
        <time>2019-03-30T12:49:06.000Z</time>
      </trkpt>
      <trkpt lat="43.96795" lon="7.31575">
        <ele>779.40002441406</ele>
        <time>2019-03-30T12:49:17.000Z</time>
      </trkpt>
      <trkpt lat="43.96802" lon="7.31578">
        <ele>779.40002441406</ele>
        <time>2019-03-30T12:49:22.000Z</time>
      </trkpt>
      <trkpt lat="43.96807" lon="7.31581">
        <ele>778.59997558594</ele>
        <time>2019-03-30T12:49:24.000Z</time>
      </trkpt>
      <trkpt lat="43.96813" lon="7.31586">
        <ele>777.59997558594</ele>
        <time>2019-03-30T12:49:27.000Z</time>
      </trkpt>
      <trkpt lat="43.96818" lon="7.31587">
        <ele>776.40002441406</ele>
        <time>2019-03-30T12:49:30.000Z</time>
      </trkpt>
      <trkpt lat="43.96819" lon="7.31587">
        <ele>776</ele>
        <time>2019-03-30T12:49:31.000Z</time>
      </trkpt>
      <trkpt lat="43.96819" lon="7.31587">
        <ele>775.40002441406</ele>
        <time>2019-03-30T12:49:32.000Z</time>
      </trkpt>
      <trkpt lat="43.96819" lon="7.31587">
        <ele>774.59997558594</ele>
        <time>2019-03-30T12:49:37.000Z</time>
      </trkpt>
      <trkpt lat="43.96819" lon="7.31586">
        <ele>774.40002441406</ele>
        <time>2019-03-30T12:49:40.000Z</time>
      </trkpt>
      <trkpt lat="43.96819" lon="7.31584">
        <ele>774.20001220703</ele>
        <time>2019-03-30T12:49:43.000Z</time>
      </trkpt>
      <trkpt lat="43.96818" lon="7.31582">
        <ele>774.20001220703</ele>
        <time>2019-03-30T12:49:44.000Z</time>
      </trkpt>
      <trkpt lat="43.96813" lon="7.31571">
        <ele>773.79998779297</ele>
        <time>2019-03-30T12:49:47.000Z</time>
      </trkpt>
      <trkpt lat="43.96811" lon="7.31568">
        <ele>773.20001220703</ele>
        <time>2019-03-30T12:49:48.000Z</time>
      </trkpt>
      <trkpt lat="43.96802" lon="7.3156">
        <ele>772</ele>
        <time>2019-03-30T12:49:52.000Z</time>
      </trkpt>
      <trkpt lat="43.968" lon="7.31558">
        <ele>772</ele>
        <time>2019-03-30T12:49:53.000Z</time>
      </trkpt>
      <trkpt lat="43.96788" lon="7.31553">
        <ele>771.20001220703</ele>
        <time>2019-03-30T12:49:58.000Z</time>
      </trkpt>
      <trkpt lat="43.96784" lon="7.31554">
        <ele>770.79998779297</ele>
        <time>2019-03-30T12:50:00.000Z</time>
      </trkpt>
      <trkpt lat="43.96773" lon="7.31555">
        <ele>770.40002441406</ele>
        <time>2019-03-30T12:50:06.000Z</time>
      </trkpt>
      <trkpt lat="43.96772" lon="7.31555">
        <ele>770.40002441406</ele>
        <time>2019-03-30T12:50:10.000Z</time>
      </trkpt>
      <trkpt lat="43.96771" lon="7.31557">
        <ele>771</ele>
        <time>2019-03-30T12:50:30.000Z</time>
      </trkpt>
      <trkpt lat="43.9677" lon="7.31557">
        <ele>770.79998779297</ele>
        <time>2019-03-30T12:50:43.000Z</time>
      </trkpt>
      <trkpt lat="43.96769" lon="7.31557">
        <ele>770.40002441406</ele>
        <time>2019-03-30T12:50:52.000Z</time>
      </trkpt>
      <trkpt lat="43.96769" lon="7.31558">
        <ele>770.40002441406</ele>
        <time>2019-03-30T12:51:05.000Z</time>
      </trkpt>
      <trkpt lat="43.96769" lon="7.31558">
        <ele>770.20001220703</ele>
        <time>2019-03-30T12:51:15.000Z</time>
      </trkpt>
      <trkpt lat="43.9677" lon="7.31559">
        <ele>770.20001220703</ele>
        <time>2019-03-30T12:51:38.000Z</time>
      </trkpt>
      <trkpt lat="43.96769" lon="7.31558">
        <ele>770.59997558594</ele>
        <time>2019-03-30T12:51:46.000Z</time>
      </trkpt>
      <trkpt lat="43.96764" lon="7.31556">
        <ele>770.59997558594</ele>
        <time>2019-03-30T12:51:48.000Z</time>
      </trkpt>
      <trkpt lat="43.9676" lon="7.31552">
        <ele>770.20001220703</ele>
        <time>2019-03-30T12:51:50.000Z</time>
      </trkpt>
      <trkpt lat="43.96757" lon="7.31551">
        <ele>769.59997558594</ele>
        <time>2019-03-30T12:51:51.000Z</time>
      </trkpt>
      <trkpt lat="43.96751" lon="7.31549">
        <ele>768</ele>
        <time>2019-03-30T12:51:53.000Z</time>
      </trkpt>
      <trkpt lat="43.96744" lon="7.31547">
        <ele>766.20001220703</ele>
        <time>2019-03-30T12:51:55.000Z</time>
      </trkpt>
      <trkpt lat="43.96739" lon="7.31546">
        <ele>764.59997558594</ele>
        <time>2019-03-30T12:51:57.000Z</time>
      </trkpt>
      <trkpt lat="43.96737" lon="7.31545">
        <ele>764</ele>
        <time>2019-03-30T12:51:58.000Z</time>
      </trkpt>
      <trkpt lat="43.96738" lon="7.31545">
        <ele>763.40002441406</ele>
        <time>2019-03-30T12:51:59.000Z</time>
      </trkpt>
      <trkpt lat="43.96736" lon="7.31544">
        <ele>762.59997558594</ele>
        <time>2019-03-30T12:52:02.000Z</time>
      </trkpt>
      <trkpt lat="43.96734" lon="7.31543">
        <ele>762.20001220703</ele>
        <time>2019-03-30T12:52:05.000Z</time>
      </trkpt>
      <trkpt lat="43.96731" lon="7.31541">
        <ele>762.20001220703</ele>
        <time>2019-03-30T12:52:08.000Z</time>
      </trkpt>
      <trkpt lat="43.96725" lon="7.31539">
        <ele>762.79998779297</ele>
        <time>2019-03-30T12:52:15.000Z</time>
      </trkpt>
      <trkpt lat="43.96722" lon="7.31537">
        <ele>763</ele>
        <time>2019-03-30T12:52:20.000Z</time>
      </trkpt>
      <trkpt lat="43.96714" lon="7.31532">
        <ele>762.59997558594</ele>
        <time>2019-03-30T12:52:25.000Z</time>
      </trkpt>
      <trkpt lat="43.96711" lon="7.31532">
        <ele>762.40002441406</ele>
        <time>2019-03-30T12:52:27.000Z</time>
      </trkpt>
      <trkpt lat="43.9671" lon="7.31533">
        <ele>762</ele>
        <time>2019-03-30T12:52:30.000Z</time>
      </trkpt>
      <trkpt lat="43.96708" lon="7.31534">
        <ele>761.20001220703</ele>
        <time>2019-03-30T12:52:34.000Z</time>
      </trkpt>
      <trkpt lat="43.96708" lon="7.31536">
        <ele>761</ele>
        <time>2019-03-30T12:52:36.000Z</time>
      </trkpt>
      <trkpt lat="43.96707" lon="7.31541">
        <ele>760.40002441406</ele>
        <time>2019-03-30T12:52:42.000Z</time>
      </trkpt>
      <trkpt lat="43.96706" lon="7.31541">
        <ele>760</ele>
        <time>2019-03-30T12:52:43.000Z</time>
      </trkpt>
      <trkpt lat="43.96702" lon="7.3154">
        <ele>759</ele>
        <time>2019-03-30T12:52:48.000Z</time>
      </trkpt>
      <trkpt lat="43.96702" lon="7.31536">
        <ele>758</ele>
        <time>2019-03-30T12:52:54.000Z</time>
      </trkpt>
      <trkpt lat="43.96701" lon="7.31535">
        <ele>758.20001220703</ele>
        <time>2019-03-30T12:53:15.000Z</time>
      </trkpt>
      <trkpt lat="43.96701" lon="7.3153">
        <ele>757.79998779297</ele>
        <time>2019-03-30T12:53:21.000Z</time>
      </trkpt>
      <trkpt lat="43.967" lon="7.31526">
        <ele>757</ele>
        <time>2019-03-30T12:53:25.000Z</time>
      </trkpt>
      <trkpt lat="43.96699" lon="7.31524">
        <ele>756.20001220703</ele>
        <time>2019-03-30T12:53:28.000Z</time>
      </trkpt>
      <trkpt lat="43.96699" lon="7.31523">
        <ele>756</ele>
        <time>2019-03-30T12:53:43.000Z</time>
      </trkpt>
      <trkpt lat="43.967" lon="7.31522">
        <ele>755.79998779297</ele>
        <time>2019-03-30T12:53:48.000Z</time>
      </trkpt>
      <trkpt lat="43.967" lon="7.31518">
        <ele>755.59997558594</ele>
        <time>2019-03-30T12:53:51.000Z</time>
      </trkpt>
      <trkpt lat="43.96699" lon="7.31516">
        <ele>754.79998779297</ele>
        <time>2019-03-30T12:53:54.000Z</time>
      </trkpt>
      <trkpt lat="43.96697" lon="7.31513">
        <ele>753.59997558594</ele>
        <time>2019-03-30T12:53:58.000Z</time>
      </trkpt>
      <trkpt lat="43.96695" lon="7.31511">
        <ele>752.40002441406</ele>
        <time>2019-03-30T12:54:02.000Z</time>
      </trkpt>
      <trkpt lat="43.96695" lon="7.3151">
        <ele>751.79998779297</ele>
        <time>2019-03-30T12:54:04.000Z</time>
      </trkpt>
      <trkpt lat="43.96694" lon="7.3151">
        <ele>751.20001220703</ele>
        <time>2019-03-30T12:54:06.000Z</time>
      </trkpt>
      <trkpt lat="43.96692" lon="7.31511">
        <ele>750.20001220703</ele>
        <time>2019-03-30T12:54:10.000Z</time>
      </trkpt>
      <trkpt lat="43.96692" lon="7.31512">
        <ele>750</ele>
        <time>2019-03-30T12:54:11.000Z</time>
      </trkpt>
      <trkpt lat="43.9669" lon="7.31512">
        <ele>749</ele>
        <time>2019-03-30T12:54:16.000Z</time>
      </trkpt>
      <trkpt lat="43.96689" lon="7.31512">
        <ele>748.59997558594</ele>
        <time>2019-03-30T12:54:17.000Z</time>
      </trkpt>
      <trkpt lat="43.96688" lon="7.31511">
        <ele>748</ele>
        <time>2019-03-30T12:54:19.000Z</time>
      </trkpt>
      <trkpt lat="43.96689" lon="7.31507">
        <ele>747</ele>
        <time>2019-03-30T12:54:24.000Z</time>
      </trkpt>
      <trkpt lat="43.96689" lon="7.31504">
        <ele>747</ele>
        <time>2019-03-30T12:54:26.000Z</time>
      </trkpt>
      <trkpt lat="43.9669" lon="7.315">
        <ele>745.79998779297</ele>
        <time>2019-03-30T12:54:30.000Z</time>
      </trkpt>
      <trkpt lat="43.96691" lon="7.31497">
        <ele>744.79998779297</ele>
        <time>2019-03-30T12:54:33.000Z</time>
      </trkpt>
      <trkpt lat="43.96692" lon="7.31497">
        <ele>744.59997558594</ele>
        <time>2019-03-30T12:54:34.000Z</time>
      </trkpt>
      <trkpt lat="43.96691" lon="7.31494">
        <ele>744.20001220703</ele>
        <time>2019-03-30T12:54:36.000Z</time>
      </trkpt>
      <trkpt lat="43.96691" lon="7.31492">
        <ele>743.40002441406</ele>
        <time>2019-03-30T12:54:39.000Z</time>
      </trkpt>
      <trkpt lat="43.96691" lon="7.31491">
        <ele>743</ele>
        <time>2019-03-30T12:54:40.000Z</time>
      </trkpt>
      <trkpt lat="43.96691" lon="7.31491">
        <ele>742</ele>
        <time>2019-03-30T12:54:42.000Z</time>
      </trkpt>
      <trkpt lat="43.96692" lon="7.31491">
        <ele>741.79998779297</ele>
        <time>2019-03-30T12:54:46.000Z</time>
      </trkpt>
      <trkpt lat="43.96695" lon="7.31485">
        <ele>741.59997558594</ele>
        <time>2019-03-30T12:54:49.000Z</time>
      </trkpt>
      <trkpt lat="43.96694" lon="7.31485">
        <ele>741.40002441406</ele>
        <time>2019-03-30T12:54:50.000Z</time>
      </trkpt>
      <trkpt lat="43.96693" lon="7.31484">
        <ele>740.79998779297</ele>
        <time>2019-03-30T12:54:51.000Z</time>
      </trkpt>
      <trkpt lat="43.96689" lon="7.31482">
        <ele>739.79998779297</ele>
        <time>2019-03-30T12:54:53.000Z</time>
      </trkpt>
      <trkpt lat="43.96688" lon="7.31479">
        <ele>739.40002441406</ele>
        <time>2019-03-30T12:54:54.000Z</time>
      </trkpt>
      <trkpt lat="43.96689" lon="7.31475">
        <ele>738.20001220703</ele>
        <time>2019-03-30T12:54:56.000Z</time>
      </trkpt>
      <trkpt lat="43.96688" lon="7.31467">
        <ele>737</ele>
        <time>2019-03-30T12:54:58.000Z</time>
      </trkpt>
      <trkpt lat="43.96687" lon="7.31464">
        <ele>735.79998779297</ele>
        <time>2019-03-30T12:54:59.000Z</time>
      </trkpt>
      <trkpt lat="43.96683" lon="7.31459">
        <ele>734.40002441406</ele>
        <time>2019-03-30T12:55:01.000Z</time>
      </trkpt>
      <trkpt lat="43.96681" lon="7.31455">
        <ele>733.40002441406</ele>
        <time>2019-03-30T12:55:02.000Z</time>
      </trkpt>
      <trkpt lat="43.9668" lon="7.3145">
        <ele>732.79998779297</ele>
        <time>2019-03-30T12:55:03.000Z</time>
      </trkpt>
      <trkpt lat="43.96678" lon="7.31445">
        <ele>732</ele>
        <time>2019-03-30T12:55:04.000Z</time>
      </trkpt>
      <trkpt lat="43.96676" lon="7.3144">
        <ele>731.20001220703</ele>
        <time>2019-03-30T12:55:05.000Z</time>
      </trkpt>
      <trkpt lat="43.96674" lon="7.31433">
        <ele>729.79998779297</ele>
        <time>2019-03-30T12:55:07.000Z</time>
      </trkpt>
      <trkpt lat="43.96668" lon="7.31427">
        <ele>728.20001220703</ele>
        <time>2019-03-30T12:55:09.000Z</time>
      </trkpt>
      <trkpt lat="43.96665" lon="7.31418">
        <ele>726.40002441406</ele>
        <time>2019-03-30T12:55:11.000Z</time>
      </trkpt>
      <trkpt lat="43.9667" lon="7.31413">
        <ele>724.79998779297</ele>
        <time>2019-03-30T12:55:13.000Z</time>
      </trkpt>
      <trkpt lat="43.96674" lon="7.31413">
        <ele>723.79998779297</ele>
        <time>2019-03-30T12:55:15.000Z</time>
      </trkpt>
      <trkpt lat="43.96677" lon="7.31413">
        <ele>723.40002441406</ele>
        <time>2019-03-30T12:55:17.000Z</time>
      </trkpt>
      <trkpt lat="43.96679" lon="7.31413">
        <ele>722.79998779297</ele>
        <time>2019-03-30T12:55:21.000Z</time>
      </trkpt>
      <trkpt lat="43.96679" lon="7.31413">
        <ele>722.59997558594</ele>
        <time>2019-03-30T12:55:22.000Z</time>
      </trkpt>
      <trkpt lat="43.96679" lon="7.31413">
        <ele>721.79998779297</ele>
        <time>2019-03-30T12:55:29.000Z</time>
      </trkpt>
      <trkpt lat="43.96679" lon="7.31409">
        <ele>721.59997558594</ele>
        <time>2019-03-30T12:55:34.000Z</time>
      </trkpt>
      <trkpt lat="43.96679" lon="7.31408">
        <ele>721.40002441406</ele>
        <time>2019-03-30T12:55:35.000Z</time>
      </trkpt>
      <trkpt lat="43.9668" lon="7.31404">
        <ele>720.59997558594</ele>
        <time>2019-03-30T12:55:41.000Z</time>
      </trkpt>
      <trkpt lat="43.9668" lon="7.31404">
        <ele>720.40002441406</ele>
        <time>2019-03-30T12:55:42.000Z</time>
      </trkpt>
      <trkpt lat="43.96676" lon="7.31397">
        <ele>720.59997558594</ele>
        <time>2019-03-30T12:55:47.000Z</time>
      </trkpt>
      <trkpt lat="43.96674" lon="7.3138">
        <ele>719.40002441406</ele>
        <time>2019-03-30T12:55:52.000Z</time>
      </trkpt>
      <trkpt lat="43.96672" lon="7.31369">
        <ele>718</ele>
        <time>2019-03-30T12:55:55.000Z</time>
      </trkpt>
      <trkpt lat="43.9667" lon="7.31367">
        <ele>717.59997558594</ele>
        <time>2019-03-30T12:55:56.000Z</time>
      </trkpt>
      <trkpt lat="43.96669" lon="7.31364">
        <ele>716.79998779297</ele>
        <time>2019-03-30T12:55:58.000Z</time>
      </trkpt>
      <trkpt lat="43.96668" lon="7.31362">
        <ele>716.59997558594</ele>
        <time>2019-03-30T12:55:59.000Z</time>
      </trkpt>
      <trkpt lat="43.96668" lon="7.31362">
        <ele>716.40002441406</ele>
        <time>2019-03-30T12:56:01.000Z</time>
      </trkpt>
      <trkpt lat="43.96668" lon="7.31361">
        <ele>715.59997558594</ele>
        <time>2019-03-30T12:56:04.000Z</time>
      </trkpt>
      <trkpt lat="43.96666" lon="7.31359">
        <ele>715</ele>
        <time>2019-03-30T12:56:08.000Z</time>
      </trkpt>
      <trkpt lat="43.96665" lon="7.31357">
        <ele>714.59997558594</ele>
        <time>2019-03-30T12:56:13.000Z</time>
      </trkpt>
      <trkpt lat="43.96665" lon="7.31357">
        <ele>714.20001220703</ele>
        <time>2019-03-30T12:56:14.000Z</time>
      </trkpt>
      <trkpt lat="43.96662" lon="7.31352">
        <ele>713.79998779297</ele>
        <time>2019-03-30T12:56:24.000Z</time>
      </trkpt>
      <trkpt lat="43.96661" lon="7.3135">
        <ele>713.20001220703</ele>
        <time>2019-03-30T12:56:26.000Z</time>
      </trkpt>
      <trkpt lat="43.9666" lon="7.31348">
        <ele>713.20001220703</ele>
        <time>2019-03-30T12:56:27.000Z</time>
      </trkpt>
      <trkpt lat="43.96657" lon="7.31345">
        <ele>712.20001220703</ele>
        <time>2019-03-30T12:56:30.000Z</time>
      </trkpt>
      <trkpt lat="43.96654" lon="7.31342">
        <ele>711</ele>
        <time>2019-03-30T12:56:34.000Z</time>
      </trkpt>
      <trkpt lat="43.9665" lon="7.3134">
        <ele>711</ele>
        <time>2019-03-30T12:56:37.000Z</time>
      </trkpt>
      <trkpt lat="43.96645" lon="7.31337">
        <ele>710.79998779297</ele>
        <time>2019-03-30T12:56:41.000Z</time>
      </trkpt>
      <trkpt lat="43.96638" lon="7.31333">
        <ele>710</ele>
        <time>2019-03-30T12:56:46.000Z</time>
      </trkpt>
      <trkpt lat="43.96638" lon="7.31333">
        <ele>709.59997558594</ele>
        <time>2019-03-30T12:56:47.000Z</time>
      </trkpt>
      <trkpt lat="43.96637" lon="7.31331">
        <ele>709.20001220703</ele>
        <time>2019-03-30T12:56:48.000Z</time>
      </trkpt>
      <trkpt lat="43.96637" lon="7.31328">
        <ele>708.40002441406</ele>
        <time>2019-03-30T12:56:50.000Z</time>
      </trkpt>
      <trkpt lat="43.96636" lon="7.31327">
        <ele>707.20001220703</ele>
        <time>2019-03-30T12:56:52.000Z</time>
      </trkpt>
      <trkpt lat="43.9663" lon="7.31325">
        <ele>705.79998779297</ele>
        <time>2019-03-30T12:56:55.000Z</time>
      </trkpt>
      <trkpt lat="43.96626" lon="7.31322">
        <ele>704.59997558594</ele>
        <time>2019-03-30T12:56:58.000Z</time>
      </trkpt>
      <trkpt lat="43.96626" lon="7.31321">
        <ele>704.20001220703</ele>
        <time>2019-03-30T12:56:59.000Z</time>
      </trkpt>
      <trkpt lat="43.96624" lon="7.31315">
        <ele>703.20001220703</ele>
        <time>2019-03-30T12:57:01.000Z</time>
      </trkpt>
      <trkpt lat="43.96624" lon="7.31307">
        <ele>702.40002441406</ele>
        <time>2019-03-30T12:57:03.000Z</time>
      </trkpt>
      <trkpt lat="43.96622" lon="7.31304">
        <ele>701.59997558594</ele>
        <time>2019-03-30T12:57:04.000Z</time>
      </trkpt>
      <trkpt lat="43.96619" lon="7.31301">
        <ele>701</ele>
        <time>2019-03-30T12:57:05.000Z</time>
      </trkpt>
      <trkpt lat="43.96618" lon="7.31297">
        <ele>700.20001220703</ele>
        <time>2019-03-30T12:57:06.000Z</time>
      </trkpt>
      <trkpt lat="43.96618" lon="7.31294">
        <ele>699.40002441406</ele>
        <time>2019-03-30T12:57:07.000Z</time>
      </trkpt>
      <trkpt lat="43.96617" lon="7.31291">
        <ele>698.59997558594</ele>
        <time>2019-03-30T12:57:08.000Z</time>
      </trkpt>
      <trkpt lat="43.96615" lon="7.31285">
        <ele>697.20001220703</ele>
        <time>2019-03-30T12:57:10.000Z</time>
      </trkpt>
      <trkpt lat="43.96614" lon="7.31281">
        <ele>696.40002441406</ele>
        <time>2019-03-30T12:57:11.000Z</time>
      </trkpt>
      <trkpt lat="43.96613" lon="7.31278">
        <ele>695.79998779297</ele>
        <time>2019-03-30T12:57:12.000Z</time>
      </trkpt>
      <trkpt lat="43.96612" lon="7.31277">
        <ele>695.40002441406</ele>
        <time>2019-03-30T12:57:13.000Z</time>
      </trkpt>
      <trkpt lat="43.96611" lon="7.31275">
        <ele>694.79998779297</ele>
        <time>2019-03-30T12:57:14.000Z</time>
      </trkpt>
      <trkpt lat="43.9661" lon="7.31274">
        <ele>694.20001220703</ele>
        <time>2019-03-30T12:57:15.000Z</time>
      </trkpt>
      <trkpt lat="43.9661" lon="7.31272">
        <ele>693.59997558594</ele>
        <time>2019-03-30T12:57:16.000Z</time>
      </trkpt>
      <trkpt lat="43.96609" lon="7.3127">
        <ele>692</ele>
        <time>2019-03-30T12:57:18.000Z</time>
      </trkpt>
      <trkpt lat="43.96607" lon="7.31268">
        <ele>690.79998779297</ele>
        <time>2019-03-30T12:57:20.000Z</time>
      </trkpt>
      <trkpt lat="43.96605" lon="7.31265">
        <ele>689.59997558594</ele>
        <time>2019-03-30T12:57:22.000Z</time>
      </trkpt>
      <trkpt lat="43.96601" lon="7.3126">
        <ele>688.40002441406</ele>
        <time>2019-03-30T12:57:24.000Z</time>
      </trkpt>
      <trkpt lat="43.96598" lon="7.31255">
        <ele>687.40002441406</ele>
        <time>2019-03-30T12:57:26.000Z</time>
      </trkpt>
      <trkpt lat="43.96595" lon="7.31253">
        <ele>685.79998779297</ele>
        <time>2019-03-30T12:57:28.000Z</time>
      </trkpt>
      <trkpt lat="43.96591" lon="7.31251">
        <ele>684.20001220703</ele>
        <time>2019-03-30T12:57:30.000Z</time>
      </trkpt>
      <trkpt lat="43.9659" lon="7.31249">
        <ele>683.40002441406</ele>
        <time>2019-03-30T12:57:31.000Z</time>
      </trkpt>
      <trkpt lat="43.96589" lon="7.31247">
        <ele>682.59997558594</ele>
        <time>2019-03-30T12:57:32.000Z</time>
      </trkpt>
      <trkpt lat="43.96586" lon="7.31244">
        <ele>681.40002441406</ele>
        <time>2019-03-30T12:57:34.000Z</time>
      </trkpt>
      <trkpt lat="43.96584" lon="7.31239">
        <ele>680.20001220703</ele>
        <time>2019-03-30T12:57:36.000Z</time>
      </trkpt>
      <trkpt lat="43.96584" lon="7.31237">
        <ele>679.79998779297</ele>
        <time>2019-03-30T12:57:37.000Z</time>
      </trkpt>
      <trkpt lat="43.96583" lon="7.31235">
        <ele>679.20001220703</ele>
        <time>2019-03-30T12:57:38.000Z</time>
      </trkpt>
      <trkpt lat="43.96583" lon="7.31227">
        <ele>677.59997558594</ele>
        <time>2019-03-30T12:57:40.000Z</time>
      </trkpt>
      <trkpt lat="43.96582" lon="7.31223">
        <ele>676.79998779297</ele>
        <time>2019-03-30T12:57:41.000Z</time>
      </trkpt>
      <trkpt lat="43.96581" lon="7.31218">
        <ele>676.40002441406</ele>
        <time>2019-03-30T12:57:42.000Z</time>
      </trkpt>
      <trkpt lat="43.96577" lon="7.31208">
        <ele>674.79998779297</ele>
        <time>2019-03-30T12:57:44.000Z</time>
      </trkpt>
      <trkpt lat="43.96576" lon="7.31205">
        <ele>673.79998779297</ele>
        <time>2019-03-30T12:57:45.000Z</time>
      </trkpt>
      <trkpt lat="43.96574" lon="7.31203">
        <ele>673.20001220703</ele>
        <time>2019-03-30T12:57:46.000Z</time>
      </trkpt>
      <trkpt lat="43.96571" lon="7.31202">
        <ele>671.79998779297</ele>
        <time>2019-03-30T12:57:48.000Z</time>
      </trkpt>
      <trkpt lat="43.96571" lon="7.31202">
        <ele>671.20001220703</ele>
        <time>2019-03-30T12:57:49.000Z</time>
      </trkpt>
      <trkpt lat="43.96571" lon="7.31203">
        <ele>670.79998779297</ele>
        <time>2019-03-30T12:58:08.000Z</time>
      </trkpt>
      <trkpt lat="43.96571" lon="7.31203">
        <ele>670.79998779297</ele>
        <time>2019-03-30T12:58:10.000Z</time>
      </trkpt>
      <trkpt lat="43.96571" lon="7.31202">
        <ele>671</ele>
        <time>2019-03-30T12:58:29.000Z</time>
      </trkpt>
      <trkpt lat="43.96571" lon="7.31203">
        <ele>670.79998779297</ele>
        <time>2019-03-30T12:58:40.000Z</time>
      </trkpt>
      <trkpt lat="43.96571" lon="7.31203">
        <ele>670.59997558594</ele>
        <time>2019-03-30T12:59:02.000Z</time>
      </trkpt>
      <trkpt lat="43.96571" lon="7.31203">
        <ele>670.40002441406</ele>
        <time>2019-03-30T12:59:16.000Z</time>
      </trkpt>
      <trkpt lat="43.96571" lon="7.31204">
        <ele>670.40002441406</ele>
        <time>2019-03-30T12:59:39.000Z</time>
      </trkpt>
      <trkpt lat="43.9657" lon="7.31205">
        <ele>670.40002441406</ele>
        <time>2019-03-30T12:59:43.000Z</time>
      </trkpt>
      <trkpt lat="43.96567" lon="7.31205">
        <ele>670.40002441406</ele>
        <time>2019-03-30T12:59:46.000Z</time>
      </trkpt>
      <trkpt lat="43.96566" lon="7.31206">
        <ele>670.20001220703</ele>
        <time>2019-03-30T12:59:47.000Z</time>
      </trkpt>
      <trkpt lat="43.96563" lon="7.31206">
        <ele>669.40002441406</ele>
        <time>2019-03-30T12:59:50.000Z</time>
      </trkpt>
      <trkpt lat="43.96563" lon="7.31205">
        <ele>669.20001220703</ele>
        <time>2019-03-30T12:59:51.000Z</time>
      </trkpt>
      <trkpt lat="43.96563" lon="7.31205">
        <ele>668.79998779297</ele>
        <time>2019-03-30T12:59:59.000Z</time>
      </trkpt>
      <trkpt lat="43.96564" lon="7.31205">
        <ele>668.79998779297</ele>
        <time>2019-03-30T13:00:16.000Z</time>
      </trkpt>
      <trkpt lat="43.96563" lon="7.31205">
        <ele>669</ele>
        <time>2019-03-30T13:00:42.000Z</time>
      </trkpt>
      <trkpt lat="43.96562" lon="7.31205">
        <ele>669</ele>
        <time>2019-03-30T13:00:43.000Z</time>
      </trkpt>
      <trkpt lat="43.96558" lon="7.31199">
        <ele>668.79998779297</ele>
        <time>2019-03-30T13:00:46.000Z</time>
      </trkpt>
      <trkpt lat="43.96553" lon="7.31193">
        <ele>668.40002441406</ele>
        <time>2019-03-30T13:00:49.000Z</time>
      </trkpt>
      <trkpt lat="43.9655" lon="7.3119">
        <ele>667.59997558594</ele>
        <time>2019-03-30T13:00:51.000Z</time>
      </trkpt>
      <trkpt lat="43.96549" lon="7.3119">
        <ele>667.40002441406</ele>
        <time>2019-03-30T13:00:53.000Z</time>
      </trkpt>
      <trkpt lat="43.96549" lon="7.31189">
        <ele>666.79998779297</ele>
        <time>2019-03-30T13:00:55.000Z</time>
      </trkpt>
      <trkpt lat="43.96549" lon="7.31189">
        <ele>666.20001220703</ele>
        <time>2019-03-30T13:00:58.000Z</time>
      </trkpt>
      <trkpt lat="43.96548" lon="7.31189">
        <ele>665.59997558594</ele>
        <time>2019-03-30T13:01:07.000Z</time>
      </trkpt>
      <trkpt lat="43.96546" lon="7.31187">
        <ele>665</ele>
        <time>2019-03-30T13:01:14.000Z</time>
      </trkpt>
      <trkpt lat="43.96546" lon="7.31187">
        <ele>664.59997558594</ele>
        <time>2019-03-30T13:01:15.000Z</time>
      </trkpt>
      <trkpt lat="43.96546" lon="7.31186">
        <ele>663.79998779297</ele>
        <time>2019-03-30T13:01:17.000Z</time>
      </trkpt>
      <trkpt lat="43.96545" lon="7.31185">
        <ele>663.59997558594</ele>
        <time>2019-03-30T13:01:18.000Z</time>
      </trkpt>
      <trkpt lat="43.96544" lon="7.31182">
        <ele>663</ele>
        <time>2019-03-30T13:01:23.000Z</time>
      </trkpt>
      <trkpt lat="43.96544" lon="7.31183">
        <ele>663.79998779297</ele>
        <time>2019-03-30T13:01:30.000Z</time>
      </trkpt>
      <trkpt lat="43.96544" lon="7.31182">
        <ele>663.40002441406</ele>
        <time>2019-03-30T13:01:37.000Z</time>
      </trkpt>
      <trkpt lat="43.96544" lon="7.31185">
        <ele>663.59997558594</ele>
        <time>2019-03-30T13:01:42.000Z</time>
      </trkpt>
      <trkpt lat="43.9654" lon="7.31198">
        <ele>663.40002441406</ele>
        <time>2019-03-30T13:01:47.000Z</time>
      </trkpt>
      <trkpt lat="43.96539" lon="7.31204">
        <ele>662.59997558594</ele>
        <time>2019-03-30T13:01:49.000Z</time>
      </trkpt>
      <trkpt lat="43.96537" lon="7.31209">
        <ele>661.40002441406</ele>
        <time>2019-03-30T13:01:51.000Z</time>
      </trkpt>
      <trkpt lat="43.96536" lon="7.31213">
        <ele>660.40002441406</ele>
        <time>2019-03-30T13:01:53.000Z</time>
      </trkpt>
      <trkpt lat="43.96536" lon="7.31219">
        <ele>658.79998779297</ele>
        <time>2019-03-30T13:01:56.000Z</time>
      </trkpt>
      <trkpt lat="43.96536" lon="7.31222">
        <ele>657.79998779297</ele>
        <time>2019-03-30T13:01:58.000Z</time>
      </trkpt>
      <trkpt lat="43.96537" lon="7.31233">
        <ele>656.59997558594</ele>
        <time>2019-03-30T13:02:01.000Z</time>
      </trkpt>
      <trkpt lat="43.96537" lon="7.31237">
        <ele>656.40002441406</ele>
        <time>2019-03-30T13:02:02.000Z</time>
      </trkpt>
      <trkpt lat="43.96538" lon="7.31252">
        <ele>655.20001220703</ele>
        <time>2019-03-30T13:02:05.000Z</time>
      </trkpt>
      <trkpt lat="43.96538" lon="7.31263">
        <ele>654</ele>
        <time>2019-03-30T13:02:07.000Z</time>
      </trkpt>
      <trkpt lat="43.96538" lon="7.31274">
        <ele>652.59997558594</ele>
        <time>2019-03-30T13:02:09.000Z</time>
      </trkpt>
      <trkpt lat="43.96538" lon="7.31291">
        <ele>652</ele>
        <time>2019-03-30T13:02:12.000Z</time>
      </trkpt>
      <trkpt lat="43.96537" lon="7.31308">
        <ele>651.79998779297</ele>
        <time>2019-03-30T13:02:15.000Z</time>
      </trkpt>
      <trkpt lat="43.96538" lon="7.31314">
        <ele>651.20001220703</ele>
        <time>2019-03-30T13:02:16.000Z</time>
      </trkpt>
      <trkpt lat="43.96536" lon="7.31325">
        <ele>650</ele>
        <time>2019-03-30T13:02:18.000Z</time>
      </trkpt>
      <trkpt lat="43.96534" lon="7.31329">
        <ele>649.40002441406</ele>
        <time>2019-03-30T13:02:19.000Z</time>
      </trkpt>
      <trkpt lat="43.96534" lon="7.3134">
        <ele>649</ele>
        <time>2019-03-30T13:02:21.000Z</time>
      </trkpt>
      <trkpt lat="43.96534" lon="7.31345">
        <ele>648.79998779297</ele>
        <time>2019-03-30T13:02:22.000Z</time>
      </trkpt>
      <trkpt lat="43.96534" lon="7.31351">
        <ele>648.59997558594</ele>
        <time>2019-03-30T13:02:23.000Z</time>
      </trkpt>
      <trkpt lat="43.96534" lon="7.31365">
        <ele>647.59997558594</ele>
        <time>2019-03-30T13:02:25.000Z</time>
      </trkpt>
      <trkpt lat="43.96532" lon="7.31371">
        <ele>647</ele>
        <time>2019-03-30T13:02:26.000Z</time>
      </trkpt>
      <trkpt lat="43.9653" lon="7.31375">
        <ele>646.40002441406</ele>
        <time>2019-03-30T13:02:27.000Z</time>
      </trkpt>
      <trkpt lat="43.96527" lon="7.3139">
        <ele>645.79998779297</ele>
        <time>2019-03-30T13:02:30.000Z</time>
      </trkpt>
      <trkpt lat="43.96526" lon="7.31395">
        <ele>645.79998779297</ele>
        <time>2019-03-30T13:02:31.000Z</time>
      </trkpt>
      <trkpt lat="43.96523" lon="7.31409">
        <ele>645.59997558594</ele>
        <time>2019-03-30T13:02:35.000Z</time>
      </trkpt>
      <trkpt lat="43.96523" lon="7.31411">
        <ele>645.20001220703</ele>
        <time>2019-03-30T13:02:36.000Z</time>
      </trkpt>
      <trkpt lat="43.96523" lon="7.31412">
        <ele>644.20001220703</ele>
        <time>2019-03-30T13:02:38.000Z</time>
      </trkpt>
      <trkpt lat="43.96523" lon="7.31414">
        <ele>644</ele>
        <time>2019-03-30T13:02:39.000Z</time>
      </trkpt>
      <trkpt lat="43.96521" lon="7.31424">
        <ele>644.59997558594</ele>
        <time>2019-03-30T13:02:43.000Z</time>
      </trkpt>
      <trkpt lat="43.96512" lon="7.31429">
        <ele>644.20001220703</ele>
        <time>2019-03-30T13:02:48.000Z</time>
      </trkpt>
      <trkpt lat="43.96504" lon="7.31434">
        <ele>644.79998779297</ele>
        <time>2019-03-30T13:02:53.000Z</time>
      </trkpt>
      <trkpt lat="43.96501" lon="7.31434">
        <ele>645</ele>
        <time>2019-03-30T13:02:54.000Z</time>
      </trkpt>
      <trkpt lat="43.96497" lon="7.31433">
        <ele>645.40002441406</ele>
        <time>2019-03-30T13:02:55.000Z</time>
      </trkpt>
      <trkpt lat="43.96492" lon="7.31433">
        <ele>645.59997558594</ele>
        <time>2019-03-30T13:02:56.000Z</time>
      </trkpt>
      <trkpt lat="43.96488" lon="7.31433">
        <ele>645.59997558594</ele>
        <time>2019-03-30T13:02:57.000Z</time>
      </trkpt>
      <trkpt lat="43.96476" lon="7.3143">
        <ele>644.79998779297</ele>
        <time>2019-03-30T13:03:00.000Z</time>
      </trkpt>
      <trkpt lat="43.96465" lon="7.31436">
        <ele>644.79998779297</ele>
        <time>2019-03-30T13:03:05.000Z</time>
      </trkpt>
      <trkpt lat="43.96463" lon="7.31439">
        <ele>644.79998779297</ele>
        <time>2019-03-30T13:03:06.000Z</time>
      </trkpt>
      <trkpt lat="43.96457" lon="7.31448">
        <ele>644.40002441406</ele>
        <time>2019-03-30T13:03:09.000Z</time>
      </trkpt>
      <trkpt lat="43.96454" lon="7.31451">
        <ele>644.20001220703</ele>
        <time>2019-03-30T13:03:10.000Z</time>
      </trkpt>
      <trkpt lat="43.96452" lon="7.31453">
        <ele>644</ele>
        <time>2019-03-30T13:03:11.000Z</time>
      </trkpt>
      <trkpt lat="43.96448" lon="7.31457">
        <ele>643.40002441406</ele>
        <time>2019-03-30T13:03:13.000Z</time>
      </trkpt>
      <trkpt lat="43.96447" lon="7.31459">
        <ele>643</ele>
        <time>2019-03-30T13:03:14.000Z</time>
      </trkpt>
      <trkpt lat="43.96439" lon="7.31465">
        <ele>642.20001220703</ele>
        <time>2019-03-30T13:03:17.000Z</time>
      </trkpt>
      <trkpt lat="43.96434" lon="7.31475">
        <ele>642.20001220703</ele>
        <time>2019-03-30T13:03:21.000Z</time>
      </trkpt>
      <trkpt lat="43.96432" lon="7.31477">
        <ele>642.20001220703</ele>
        <time>2019-03-30T13:03:22.000Z</time>
      </trkpt>
      <trkpt lat="43.96424" lon="7.31479">
        <ele>642.40002441406</ele>
        <time>2019-03-30T13:03:25.000Z</time>
      </trkpt>
      <trkpt lat="43.96407" lon="7.31483">
        <ele>641.59997558594</ele>
        <time>2019-03-30T13:03:29.000Z</time>
      </trkpt>
      <trkpt lat="43.96399" lon="7.31486">
        <ele>640.40002441406</ele>
        <time>2019-03-30T13:03:31.000Z</time>
      </trkpt>
      <trkpt lat="43.96395" lon="7.31489">
        <ele>639.40002441406</ele>
        <time>2019-03-30T13:03:33.000Z</time>
      </trkpt>
      <trkpt lat="43.96384" lon="7.31496">
        <ele>638.40002441406</ele>
        <time>2019-03-30T13:03:37.000Z</time>
      </trkpt>
      <trkpt lat="43.96381" lon="7.31498">
        <ele>638.40002441406</ele>
        <time>2019-03-30T13:03:38.000Z</time>
      </trkpt>
      <trkpt lat="43.96369" lon="7.31506">
        <ele>639</ele>
        <time>2019-03-30T13:03:44.000Z</time>
      </trkpt>
      <trkpt lat="43.96368" lon="7.31508">
        <ele>639.40002441406</ele>
        <time>2019-03-30T13:03:45.000Z</time>
      </trkpt>
      <trkpt lat="43.96365" lon="7.3151">
        <ele>639.59997558594</ele>
        <time>2019-03-30T13:03:48.000Z</time>
      </trkpt>
      <trkpt lat="43.96365" lon="7.31511">
        <ele>640.40002441406</ele>
        <time>2019-03-30T13:03:53.000Z</time>
      </trkpt>
      <trkpt lat="43.96365" lon="7.31511">
        <ele>640.40002441406</ele>
        <time>2019-03-30T13:03:54.000Z</time>
      </trkpt>
      <trkpt lat="43.96364" lon="7.31511">
        <ele>640.40002441406</ele>
        <time>2019-03-30T13:03:56.000Z</time>
      </trkpt>
      <trkpt lat="43.96361" lon="7.31514">
        <ele>641</ele>
        <time>2019-03-30T13:03:59.000Z</time>
      </trkpt>
      <trkpt lat="43.96359" lon="7.31516">
        <ele>641.40002441406</ele>
        <time>2019-03-30T13:04:01.000Z</time>
      </trkpt>
      <trkpt lat="43.96357" lon="7.31519">
        <ele>642.59997558594</ele>
        <time>2019-03-30T13:04:06.000Z</time>
      </trkpt>
      <trkpt lat="43.96354" lon="7.31521">
        <ele>642.59997558594</ele>
        <time>2019-03-30T13:04:12.000Z</time>
      </trkpt>
      <trkpt lat="43.96347" lon="7.31523">
        <ele>642.79998779297</ele>
        <time>2019-03-30T13:04:17.000Z</time>
      </trkpt>
      <trkpt lat="43.96344" lon="7.31523">
        <ele>642.79998779297</ele>
        <time>2019-03-30T13:04:19.000Z</time>
      </trkpt>
      <trkpt lat="43.96337" lon="7.31522">
        <ele>643</ele>
        <time>2019-03-30T13:04:23.000Z</time>
      </trkpt>
      <trkpt lat="43.96326" lon="7.31517">
        <ele>643.20001220703</ele>
        <time>2019-03-30T13:04:27.000Z</time>
      </trkpt>
      <trkpt lat="43.96318" lon="7.31513">
        <ele>642.40002441406</ele>
        <time>2019-03-30T13:04:31.000Z</time>
      </trkpt>
      <trkpt lat="43.96307" lon="7.31506">
        <ele>643.20001220703</ele>
        <time>2019-03-30T13:04:37.000Z</time>
      </trkpt>
      <trkpt lat="43.96294" lon="7.31494">
        <ele>643.40002441406</ele>
        <time>2019-03-30T13:04:42.000Z</time>
      </trkpt>
      <trkpt lat="43.96289" lon="7.31491">
        <ele>643.40002441406</ele>
        <time>2019-03-30T13:04:46.000Z</time>
      </trkpt>
      <trkpt lat="43.96289" lon="7.31491">
        <ele>643.59997558594</ele>
        <time>2019-03-30T13:04:47.000Z</time>
      </trkpt>
      <trkpt lat="43.96287" lon="7.31491">
        <ele>643.79998779297</ele>
        <time>2019-03-30T13:04:52.000Z</time>
      </trkpt>
      <trkpt lat="43.96284" lon="7.3149">
        <ele>644</ele>
        <time>2019-03-30T13:04:56.000Z</time>
      </trkpt>
      <trkpt lat="43.96282" lon="7.3149">
        <ele>644</ele>
        <time>2019-03-30T13:04:58.000Z</time>
      </trkpt>
      <trkpt lat="43.96281" lon="7.3149">
        <ele>644</ele>
        <time>2019-03-30T13:04:59.000Z</time>
      </trkpt>
      <trkpt lat="43.96278" lon="7.31489">
        <ele>643.79998779297</ele>
        <time>2019-03-30T13:05:03.000Z</time>
      </trkpt>
      <trkpt lat="43.96276" lon="7.31489">
        <ele>643.79998779297</ele>
        <time>2019-03-30T13:05:05.000Z</time>
      </trkpt>
      <trkpt lat="43.96273" lon="7.31487">
        <ele>644</ele>
        <time>2019-03-30T13:05:11.000Z</time>
      </trkpt>
      <trkpt lat="43.96267" lon="7.31485">
        <ele>644</ele>
        <time>2019-03-30T13:05:16.000Z</time>
      </trkpt>
      <trkpt lat="43.96256" lon="7.31482">
        <ele>644.59997558594</ele>
        <time>2019-03-30T13:05:21.000Z</time>
      </trkpt>
      <trkpt lat="43.96251" lon="7.3148">
        <ele>644.59997558594</ele>
        <time>2019-03-30T13:05:24.000Z</time>
      </trkpt>
      <trkpt lat="43.96248" lon="7.31478">
        <ele>644.59997558594</ele>
        <time>2019-03-30T13:05:26.000Z</time>
      </trkpt>
      <trkpt lat="43.96245" lon="7.31477">
        <ele>644.40002441406</ele>
        <time>2019-03-30T13:05:30.000Z</time>
      </trkpt>
      <trkpt lat="43.96235" lon="7.31471">
        <ele>644.40002441406</ele>
        <time>2019-03-30T13:05:35.000Z</time>
      </trkpt>
      <trkpt lat="43.96231" lon="7.31469">
        <ele>644.20001220703</ele>
        <time>2019-03-30T13:05:39.000Z</time>
      </trkpt>
      <trkpt lat="43.96222" lon="7.31465">
        <ele>644.20001220703</ele>
        <time>2019-03-30T13:05:44.000Z</time>
      </trkpt>
      <trkpt lat="43.9621" lon="7.31463">
        <ele>644.79998779297</ele>
        <time>2019-03-30T13:05:49.000Z</time>
      </trkpt>
      <trkpt lat="43.962" lon="7.31464">
        <ele>645.59997558594</ele>
        <time>2019-03-30T13:05:55.000Z</time>
      </trkpt>
      <trkpt lat="43.96196" lon="7.31466">
        <ele>646.59997558594</ele>
        <time>2019-03-30T13:05:59.000Z</time>
      </trkpt>
      <trkpt lat="43.96192" lon="7.31466">
        <ele>647.20001220703</ele>
        <time>2019-03-30T13:06:02.000Z</time>
      </trkpt>
      <trkpt lat="43.96188" lon="7.31466">
        <ele>647.79998779297</ele>
        <time>2019-03-30T13:06:05.000Z</time>
      </trkpt>
      <trkpt lat="43.96186" lon="7.31467">
        <ele>648</ele>
        <time>2019-03-30T13:06:07.000Z</time>
      </trkpt>
      <trkpt lat="43.96184" lon="7.31468">
        <ele>648.79998779297</ele>
        <time>2019-03-30T13:06:11.000Z</time>
      </trkpt>
      <trkpt lat="43.96183" lon="7.31468">
        <ele>649.20001220703</ele>
        <time>2019-03-30T13:06:13.000Z</time>
      </trkpt>
      <trkpt lat="43.96181" lon="7.31468">
        <ele>649.79998779297</ele>
        <time>2019-03-30T13:06:16.000Z</time>
      </trkpt>
      <trkpt lat="43.96179" lon="7.31469">
        <ele>650.40002441406</ele>
        <time>2019-03-30T13:06:19.000Z</time>
      </trkpt>
      <trkpt lat="43.96175" lon="7.31469">
        <ele>650.79998779297</ele>
        <time>2019-03-30T13:06:23.000Z</time>
      </trkpt>
      <trkpt lat="43.96174" lon="7.31469">
        <ele>651.20001220703</ele>
        <time>2019-03-30T13:06:25.000Z</time>
      </trkpt>
      <trkpt lat="43.96172" lon="7.31471">
        <ele>652</ele>
        <time>2019-03-30T13:06:30.000Z</time>
      </trkpt>
      <trkpt lat="43.9617" lon="7.31472">
        <ele>652.59997558594</ele>
        <time>2019-03-30T13:06:33.000Z</time>
      </trkpt>
      <trkpt lat="43.96168" lon="7.31472">
        <ele>653.20001220703</ele>
        <time>2019-03-30T13:06:36.000Z</time>
      </trkpt>
      <trkpt lat="43.96167" lon="7.31472">
        <ele>654.20001220703</ele>
        <time>2019-03-30T13:06:40.000Z</time>
      </trkpt>
      <trkpt lat="43.96167" lon="7.31472">
        <ele>654.20001220703</ele>
        <time>2019-03-30T13:06:41.000Z</time>
      </trkpt>
      <trkpt lat="43.96164" lon="7.31471">
        <ele>654.40002441406</ele>
        <time>2019-03-30T13:06:46.000Z</time>
      </trkpt>
      <trkpt lat="43.96162" lon="7.31472">
        <ele>655.40002441406</ele>
        <time>2019-03-30T13:06:51.000Z</time>
      </trkpt>
      <trkpt lat="43.9616" lon="7.31472">
        <ele>656</ele>
        <time>2019-03-30T13:06:54.000Z</time>
      </trkpt>
      <trkpt lat="43.96157" lon="7.31473">
        <ele>656.40002441406</ele>
        <time>2019-03-30T13:07:00.000Z</time>
      </trkpt>
      <trkpt lat="43.96153" lon="7.31473">
        <ele>657.59997558594</ele>
        <time>2019-03-30T13:07:06.000Z</time>
      </trkpt>
      <trkpt lat="43.96149" lon="7.31473">
        <ele>658.59997558594</ele>
        <time>2019-03-30T13:07:12.000Z</time>
      </trkpt>
      <trkpt lat="43.96145" lon="7.31474">
        <ele>659.79998779297</ele>
        <time>2019-03-30T13:07:18.000Z</time>
      </trkpt>
      <trkpt lat="43.96144" lon="7.31475">
        <ele>660</ele>
        <time>2019-03-30T13:07:19.000Z</time>
      </trkpt>
      <trkpt lat="43.9614" lon="7.31476">
        <ele>661</ele>
        <time>2019-03-30T13:07:24.000Z</time>
      </trkpt>
      <trkpt lat="43.96139" lon="7.31477">
        <ele>661.40002441406</ele>
        <time>2019-03-30T13:07:26.000Z</time>
      </trkpt>
      <trkpt lat="43.96136" lon="7.31477">
        <ele>662.20001220703</ele>
        <time>2019-03-30T13:07:30.000Z</time>
      </trkpt>
      <trkpt lat="43.96132" lon="7.31478">
        <ele>663</ele>
        <time>2019-03-30T13:07:35.000Z</time>
      </trkpt>
      <trkpt lat="43.9613" lon="7.31479">
        <ele>663.40002441406</ele>
        <time>2019-03-30T13:07:37.000Z</time>
      </trkpt>
      <trkpt lat="43.96127" lon="7.3148">
        <ele>664</ele>
        <time>2019-03-30T13:07:41.000Z</time>
      </trkpt>
      <trkpt lat="43.96126" lon="7.3148">
        <ele>664.40002441406</ele>
        <time>2019-03-30T13:07:43.000Z</time>
      </trkpt>
      <trkpt lat="43.96124" lon="7.3148">
        <ele>665</ele>
        <time>2019-03-30T13:07:48.000Z</time>
      </trkpt>
      <trkpt lat="43.96123" lon="7.3148">
        <ele>665.20001220703</ele>
        <time>2019-03-30T13:07:50.000Z</time>
      </trkpt>
      <trkpt lat="43.96119" lon="7.31481">
        <ele>665</ele>
        <time>2019-03-30T13:07:53.000Z</time>
      </trkpt>
      <trkpt lat="43.96116" lon="7.31483">
        <ele>665.20001220703</ele>
        <time>2019-03-30T13:07:55.000Z</time>
      </trkpt>
      <trkpt lat="43.96114" lon="7.31484">
        <ele>665.40002441406</ele>
        <time>2019-03-30T13:07:56.000Z</time>
      </trkpt>
      <trkpt lat="43.96108" lon="7.31486">
        <ele>666.40002441406</ele>
        <time>2019-03-30T13:08:00.000Z</time>
      </trkpt>
      <trkpt lat="43.96103" lon="7.31489">
        <ele>667.40002441406</ele>
        <time>2019-03-30T13:08:05.000Z</time>
      </trkpt>
      <trkpt lat="43.96103" lon="7.31489">
        <ele>667.59997558594</ele>
        <time>2019-03-30T13:08:06.000Z</time>
      </trkpt>
      <trkpt lat="43.961" lon="7.31491">
        <ele>668.79998779297</ele>
        <time>2019-03-30T13:08:11.000Z</time>
      </trkpt>
      <trkpt lat="43.96098" lon="7.31494">
        <ele>669.40002441406</ele>
        <time>2019-03-30T13:08:14.000Z</time>
      </trkpt>
      <trkpt lat="43.96097" lon="7.31495">
        <ele>670</ele>
        <time>2019-03-30T13:08:17.000Z</time>
      </trkpt>
      <trkpt lat="43.96096" lon="7.31497">
        <ele>670.20001220703</ele>
        <time>2019-03-30T13:08:19.000Z</time>
      </trkpt>
      <trkpt lat="43.96094" lon="7.31498">
        <ele>670.59997558594</ele>
        <time>2019-03-30T13:08:21.000Z</time>
      </trkpt>
      <trkpt lat="43.96092" lon="7.315">
        <ele>671.20001220703</ele>
        <time>2019-03-30T13:08:23.000Z</time>
      </trkpt>
      <trkpt lat="43.9609" lon="7.31503">
        <ele>671.79998779297</ele>
        <time>2019-03-30T13:08:28.000Z</time>
      </trkpt>
      <trkpt lat="43.96088" lon="7.31508">
        <ele>672</ele>
        <time>2019-03-30T13:08:34.000Z</time>
      </trkpt>
      <trkpt lat="43.96085" lon="7.3152">
        <ele>672.20001220703</ele>
        <time>2019-03-30T13:08:39.000Z</time>
      </trkpt>
      <trkpt lat="43.96083" lon="7.31525">
        <ele>672.59997558594</ele>
        <time>2019-03-30T13:08:41.000Z</time>
      </trkpt>
      <trkpt lat="43.9608" lon="7.31538">
        <ele>672.59997558594</ele>
        <time>2019-03-30T13:08:46.000Z</time>
      </trkpt>
      <trkpt lat="43.96083" lon="7.31546">
        <ele>673.40002441406</ele>
        <time>2019-03-30T13:08:50.000Z</time>
      </trkpt>
      <trkpt lat="43.96085" lon="7.3155">
        <ele>673.79998779297</ele>
        <time>2019-03-30T13:08:52.000Z</time>
      </trkpt>
      <trkpt lat="43.96092" lon="7.31561">
        <ele>673.59997558594</ele>
        <time>2019-03-30T13:08:57.000Z</time>
      </trkpt>
      <trkpt lat="43.96099" lon="7.31578">
        <ele>673.40002441406</ele>
        <time>2019-03-30T13:09:03.000Z</time>
      </trkpt>
      <trkpt lat="43.96102" lon="7.31594">
        <ele>673.59997558594</ele>
        <time>2019-03-30T13:09:07.000Z</time>
      </trkpt>
      <trkpt lat="43.96107" lon="7.31602">
        <ele>672</ele>
        <time>2019-03-30T13:09:10.000Z</time>
      </trkpt>
      <trkpt lat="43.96112" lon="7.31608">
        <ele>670.79998779297</ele>
        <time>2019-03-30T13:09:12.000Z</time>
      </trkpt>
      <trkpt lat="43.96116" lon="7.31611">
        <ele>670.40002441406</ele>
        <time>2019-03-30T13:09:13.000Z</time>
      </trkpt>
      <trkpt lat="43.96121" lon="7.31618">
        <ele>669.59997558594</ele>
        <time>2019-03-30T13:09:15.000Z</time>
      </trkpt>
      <trkpt lat="43.96122" lon="7.31623">
        <ele>669</ele>
        <time>2019-03-30T13:09:16.000Z</time>
      </trkpt>
      <trkpt lat="43.96124" lon="7.31628">
        <ele>669</ele>
        <time>2019-03-30T13:09:17.000Z</time>
      </trkpt>
      <trkpt lat="43.96127" lon="7.31638">
        <ele>668.20001220703</ele>
        <time>2019-03-30T13:09:19.000Z</time>
      </trkpt>
      <trkpt lat="43.96132" lon="7.31645">
        <ele>667.40002441406</ele>
        <time>2019-03-30T13:09:21.000Z</time>
      </trkpt>
      <trkpt lat="43.96134" lon="7.31648">
        <ele>667.20001220703</ele>
        <time>2019-03-30T13:09:22.000Z</time>
      </trkpt>
      <trkpt lat="43.96139" lon="7.31655">
        <ele>665.40002441406</ele>
        <time>2019-03-30T13:09:24.000Z</time>
      </trkpt>
      <trkpt lat="43.9614" lon="7.3166">
        <ele>664</ele>
        <time>2019-03-30T13:09:26.000Z</time>
      </trkpt>
      <trkpt lat="43.9614" lon="7.31674">
        <ele>662.79998779297</ele>
        <time>2019-03-30T13:09:31.000Z</time>
      </trkpt>
      <trkpt lat="43.9614" lon="7.31678">
        <ele>662.59997558594</ele>
        <time>2019-03-30T13:09:32.000Z</time>
      </trkpt>
      <trkpt lat="43.96143" lon="7.31685">
        <ele>661.59997558594</ele>
        <time>2019-03-30T13:09:34.000Z</time>
      </trkpt>
      <trkpt lat="43.96148" lon="7.3169">
        <ele>660.79998779297</ele>
        <time>2019-03-30T13:09:36.000Z</time>
      </trkpt>
      <trkpt lat="43.96151" lon="7.31692">
        <ele>660.40002441406</ele>
        <time>2019-03-30T13:09:37.000Z</time>
      </trkpt>
      <trkpt lat="43.96157" lon="7.31699">
        <ele>658.79998779297</ele>
        <time>2019-03-30T13:09:40.000Z</time>
      </trkpt>
      <trkpt lat="43.96159" lon="7.31702">
        <ele>657.79998779297</ele>
        <time>2019-03-30T13:09:42.000Z</time>
      </trkpt>
      <trkpt lat="43.96159" lon="7.31704">
        <ele>657.20001220703</ele>
        <time>2019-03-30T13:09:48.000Z</time>
      </trkpt>
      <trkpt lat="43.96159" lon="7.31706">
        <ele>656.79998779297</ele>
        <time>2019-03-30T13:09:52.000Z</time>
      </trkpt>
      <trkpt lat="43.96159" lon="7.31708">
        <ele>656.40002441406</ele>
        <time>2019-03-30T13:09:55.000Z</time>
      </trkpt>
      <trkpt lat="43.96157" lon="7.31716">
        <ele>656.40002441406</ele>
        <time>2019-03-30T13:10:01.000Z</time>
      </trkpt>
      <trkpt lat="43.96156" lon="7.31721">
        <ele>655.40002441406</ele>
        <time>2019-03-30T13:10:05.000Z</time>
      </trkpt>
      <trkpt lat="43.96156" lon="7.31723">
        <ele>655</ele>
        <time>2019-03-30T13:10:08.000Z</time>
      </trkpt>
      <trkpt lat="43.96155" lon="7.31727">
        <ele>654.40002441406</ele>
        <time>2019-03-30T13:10:12.000Z</time>
      </trkpt>
      <trkpt lat="43.96155" lon="7.31728">
        <ele>653.59997558594</ele>
        <time>2019-03-30T13:10:15.000Z</time>
      </trkpt>
      <trkpt lat="43.96154" lon="7.31729">
        <ele>653.40002441406</ele>
        <time>2019-03-30T13:10:17.000Z</time>
      </trkpt>
      <trkpt lat="43.96154" lon="7.31731">
        <ele>652.59997558594</ele>
        <time>2019-03-30T13:10:24.000Z</time>
      </trkpt>
      <trkpt lat="43.96154" lon="7.31734">
        <ele>652.40002441406</ele>
        <time>2019-03-30T13:10:31.000Z</time>
      </trkpt>
      <trkpt lat="43.96154" lon="7.31735">
        <ele>652.40002441406</ele>
        <time>2019-03-30T13:10:32.000Z</time>
      </trkpt>
      <trkpt lat="43.96153" lon="7.31737">
        <ele>651.40002441406</ele>
        <time>2019-03-30T13:10:39.000Z</time>
      </trkpt>
      <trkpt lat="43.96153" lon="7.31738">
        <ele>651.20001220703</ele>
        <time>2019-03-30T13:10:41.000Z</time>
      </trkpt>
      <trkpt lat="43.96153" lon="7.31739">
        <ele>651</ele>
        <time>2019-03-30T13:10:45.000Z</time>
      </trkpt>
      <trkpt lat="43.96153" lon="7.31741">
        <ele>650.59997558594</ele>
        <time>2019-03-30T13:10:50.000Z</time>
      </trkpt>
      <trkpt lat="43.96153" lon="7.31743">
        <ele>650.59997558594</ele>
        <time>2019-03-30T13:10:54.000Z</time>
      </trkpt>
      <trkpt lat="43.96152" lon="7.31744">
        <ele>650.40002441406</ele>
        <time>2019-03-30T13:10:55.000Z</time>
      </trkpt>
      <trkpt lat="43.96152" lon="7.31745">
        <ele>650.20001220703</ele>
        <time>2019-03-30T13:10:58.000Z</time>
      </trkpt>
      <trkpt lat="43.96152" lon="7.31749">
        <ele>649.79998779297</ele>
        <time>2019-03-30T13:11:03.000Z</time>
      </trkpt>
      <trkpt lat="43.96151" lon="7.31751">
        <ele>650</ele>
        <time>2019-03-30T13:11:04.000Z</time>
      </trkpt>
      <trkpt lat="43.96149" lon="7.31755">
        <ele>650.20001220703</ele>
        <time>2019-03-30T13:11:08.000Z</time>
      </trkpt>
      <trkpt lat="43.96144" lon="7.3176">
        <ele>650</ele>
        <time>2019-03-30T13:11:14.000Z</time>
      </trkpt>
      <trkpt lat="43.96143" lon="7.31765">
        <ele>649.20001220703</ele>
        <time>2019-03-30T13:11:20.000Z</time>
      </trkpt>
      <trkpt lat="43.96143" lon="7.31766">
        <ele>649</ele>
        <time>2019-03-30T13:11:21.000Z</time>
      </trkpt>
      <trkpt lat="43.96143" lon="7.31773">
        <ele>649</ele>
        <time>2019-03-30T13:11:26.000Z</time>
      </trkpt>
      <trkpt lat="43.96141" lon="7.31782">
        <ele>648.79998779297</ele>
        <time>2019-03-30T13:11:32.000Z</time>
      </trkpt>
      <trkpt lat="43.96141" lon="7.3179">
        <ele>649.20001220703</ele>
        <time>2019-03-30T13:11:38.000Z</time>
      </trkpt>
      <trkpt lat="43.96141" lon="7.31791">
        <ele>649.40002441406</ele>
        <time>2019-03-30T13:11:39.000Z</time>
      </trkpt>
      <trkpt lat="43.9614" lon="7.31793">
        <ele>649.40002441406</ele>
        <time>2019-03-30T13:11:40.000Z</time>
      </trkpt>
      <trkpt lat="43.96138" lon="7.31798">
        <ele>650</ele>
        <time>2019-03-30T13:11:44.000Z</time>
      </trkpt>
      <trkpt lat="43.96138" lon="7.31799">
        <ele>650.20001220703</ele>
        <time>2019-03-30T13:11:45.000Z</time>
      </trkpt>
      <trkpt lat="43.96134" lon="7.31807">
        <ele>650.59997558594</ele>
        <time>2019-03-30T13:11:53.000Z</time>
      </trkpt>
      <trkpt lat="43.96133" lon="7.31808">
        <ele>650.59997558594</ele>
        <time>2019-03-30T13:11:54.000Z</time>
      </trkpt>
      <trkpt lat="43.96129" lon="7.31809">
        <ele>650.59997558594</ele>
        <time>2019-03-30T13:11:59.000Z</time>
      </trkpt>
      <trkpt lat="43.96126" lon="7.3181">
        <ele>650</ele>
        <time>2019-03-30T13:12:04.000Z</time>
      </trkpt>
      <trkpt lat="43.9612" lon="7.31813">
        <ele>649.20001220703</ele>
        <time>2019-03-30T13:12:11.000Z</time>
      </trkpt>
      <trkpt lat="43.96118" lon="7.31814">
        <ele>649</ele>
        <time>2019-03-30T13:12:13.000Z</time>
      </trkpt>
      <trkpt lat="43.96114" lon="7.31816">
        <ele>648</ele>
        <time>2019-03-30T13:12:19.000Z</time>
      </trkpt>
      <trkpt lat="43.96113" lon="7.31815">
        <ele>647.79998779297</ele>
        <time>2019-03-30T13:12:20.000Z</time>
      </trkpt>
      <trkpt lat="43.9611" lon="7.31815">
        <ele>646.59997558594</ele>
        <time>2019-03-30T13:12:24.000Z</time>
      </trkpt>
      <trkpt lat="43.96108" lon="7.31815">
        <ele>645.59997558594</ele>
        <time>2019-03-30T13:12:27.000Z</time>
      </trkpt>
      <trkpt lat="43.96107" lon="7.31815">
        <ele>645.20001220703</ele>
        <time>2019-03-30T13:12:29.000Z</time>
      </trkpt>
      <trkpt lat="43.96105" lon="7.31815">
        <ele>644.40002441406</ele>
        <time>2019-03-30T13:12:31.000Z</time>
      </trkpt>
      <trkpt lat="43.96102" lon="7.31817">
        <ele>643.20001220703</ele>
        <time>2019-03-30T13:12:35.000Z</time>
      </trkpt>
      <trkpt lat="43.96098" lon="7.31816">
        <ele>642.40002441406</ele>
        <time>2019-03-30T13:12:39.000Z</time>
      </trkpt>
      <trkpt lat="43.96089" lon="7.31816">
        <ele>641.79998779297</ele>
        <time>2019-03-30T13:12:42.000Z</time>
      </trkpt>
      <trkpt lat="43.96085" lon="7.31816">
        <ele>641.40002441406</ele>
        <time>2019-03-30T13:12:43.000Z</time>
      </trkpt>
      <trkpt lat="43.96082" lon="7.31815">
        <ele>640.79998779297</ele>
        <time>2019-03-30T13:12:44.000Z</time>
      </trkpt>
      <trkpt lat="43.96079" lon="7.31811">
        <ele>639.59997558594</ele>
        <time>2019-03-30T13:12:46.000Z</time>
      </trkpt>
      <trkpt lat="43.96077" lon="7.31809">
        <ele>638.40002441406</ele>
        <time>2019-03-30T13:12:48.000Z</time>
      </trkpt>
      <trkpt lat="43.96077" lon="7.31809">
        <ele>637</ele>
        <time>2019-03-30T13:12:50.000Z</time>
      </trkpt>
      <trkpt lat="43.96076" lon="7.31808">
        <ele>636</ele>
        <time>2019-03-30T13:12:52.000Z</time>
      </trkpt>
      <trkpt lat="43.96071" lon="7.31807">
        <ele>635.59997558594</ele>
        <time>2019-03-30T13:12:54.000Z</time>
      </trkpt>
      <trkpt lat="43.96058" lon="7.31806">
        <ele>634.79998779297</ele>
        <time>2019-03-30T13:12:58.000Z</time>
      </trkpt>
      <trkpt lat="43.96055" lon="7.31806">
        <ele>634.20001220703</ele>
        <time>2019-03-30T13:12:59.000Z</time>
      </trkpt>
      <trkpt lat="43.96049" lon="7.31805">
        <ele>633.59997558594</ele>
        <time>2019-03-30T13:13:01.000Z</time>
      </trkpt>
      <trkpt lat="43.96044" lon="7.31804">
        <ele>632.79998779297</ele>
        <time>2019-03-30T13:13:04.000Z</time>
      </trkpt>
      <trkpt lat="43.96043" lon="7.31804">
        <ele>632.59997558594</ele>
        <time>2019-03-30T13:13:05.000Z</time>
      </trkpt>
      <trkpt lat="43.96039" lon="7.31806">
        <ele>632</ele>
        <time>2019-03-30T13:13:08.000Z</time>
      </trkpt>
      <trkpt lat="43.96039" lon="7.31808">
        <ele>631.79998779297</ele>
        <time>2019-03-30T13:13:10.000Z</time>
      </trkpt>
      <trkpt lat="43.9604" lon="7.31809">
        <ele>632</ele>
        <time>2019-03-30T13:13:11.000Z</time>
      </trkpt>
      <trkpt lat="43.96043" lon="7.31817">
        <ele>631.79998779297</ele>
        <time>2019-03-30T13:13:15.000Z</time>
      </trkpt>
      <trkpt lat="43.96048" lon="7.31834">
        <ele>631.20001220703</ele>
        <time>2019-03-30T13:13:20.000Z</time>
      </trkpt>
      <trkpt lat="43.96052" lon="7.31842">
        <ele>630.40002441406</ele>
        <time>2019-03-30T13:13:25.000Z</time>
      </trkpt>
      <trkpt lat="43.96057" lon="7.31848">
        <ele>630.79998779297</ele>
        <time>2019-03-30T13:13:29.000Z</time>
      </trkpt>
      <trkpt lat="43.96058" lon="7.3185">
        <ele>630.79998779297</ele>
        <time>2019-03-30T13:13:30.000Z</time>
      </trkpt>
      <trkpt lat="43.96064" lon="7.31864">
        <ele>632.20001220703</ele>
        <time>2019-03-30T13:13:37.000Z</time>
      </trkpt>
      <trkpt lat="43.96065" lon="7.31867">
        <ele>632.40002441406</ele>
        <time>2019-03-30T13:13:38.000Z</time>
      </trkpt>
      <trkpt lat="43.96068" lon="7.31875">
        <ele>633</ele>
        <time>2019-03-30T13:13:42.000Z</time>
      </trkpt>
      <trkpt lat="43.96069" lon="7.31883">
        <ele>633.59997558594</ele>
        <time>2019-03-30T13:13:45.000Z</time>
      </trkpt>
      <trkpt lat="43.96073" lon="7.31895">
        <ele>634.40002441406</ele>
        <time>2019-03-30T13:13:50.000Z</time>
      </trkpt>
      <trkpt lat="43.96073" lon="7.319">
        <ele>634.79998779297</ele>
        <time>2019-03-30T13:13:52.000Z</time>
      </trkpt>
      <trkpt lat="43.96075" lon="7.31911">
        <ele>635.59997558594</ele>
        <time>2019-03-30T13:13:56.000Z</time>
      </trkpt>
      <trkpt lat="43.96075" lon="7.31914">
        <ele>635.79998779297</ele>
        <time>2019-03-30T13:13:57.000Z</time>
      </trkpt>
      <trkpt lat="43.96076" lon="7.3193">
        <ele>636.79998779297</ele>
        <time>2019-03-30T13:14:03.000Z</time>
      </trkpt>
      <trkpt lat="43.96077" lon="7.31947">
        <ele>638</ele>
        <time>2019-03-30T13:14:10.000Z</time>
      </trkpt>
      <trkpt lat="43.96075" lon="7.31959">
        <ele>639</ele>
        <time>2019-03-30T13:14:15.000Z</time>
      </trkpt>
      <trkpt lat="43.96073" lon="7.31965">
        <ele>639.79998779297</ele>
        <time>2019-03-30T13:14:18.000Z</time>
      </trkpt>
      <trkpt lat="43.96071" lon="7.31969">
        <ele>640.20001220703</ele>
        <time>2019-03-30T13:14:20.000Z</time>
      </trkpt>
      <trkpt lat="43.96062" lon="7.31977">
        <ele>640.79998779297</ele>
        <time>2019-03-30T13:14:25.000Z</time>
      </trkpt>
      <trkpt lat="43.96055" lon="7.31978">
        <ele>641.20001220703</ele>
        <time>2019-03-30T13:14:28.000Z</time>
      </trkpt>
      <trkpt lat="43.96051" lon="7.31976">
        <ele>641.59997558594</ele>
        <time>2019-03-30T13:14:30.000Z</time>
      </trkpt>
      <trkpt lat="43.96049" lon="7.3197">
        <ele>642</ele>
        <time>2019-03-30T13:14:32.000Z</time>
      </trkpt>
      <trkpt lat="43.96049" lon="7.31963">
        <ele>642.40002441406</ele>
        <time>2019-03-30T13:14:34.000Z</time>
      </trkpt>
      <trkpt lat="43.96049" lon="7.31949">
        <ele>643</ele>
        <time>2019-03-30T13:14:39.000Z</time>
      </trkpt>
      <trkpt lat="43.96046" lon="7.31936">
        <ele>643.40002441406</ele>
        <time>2019-03-30T13:14:43.000Z</time>
      </trkpt>
      <trkpt lat="43.96041" lon="7.31921">
        <ele>643.79998779297</ele>
        <time>2019-03-30T13:14:48.000Z</time>
      </trkpt>
      <trkpt lat="43.96035" lon="7.31912">
        <ele>644.40002441406</ele>
        <time>2019-03-30T13:14:52.000Z</time>
      </trkpt>
      <trkpt lat="43.96029" lon="7.31904">
        <ele>645</ele>
        <time>2019-03-30T13:14:55.000Z</time>
      </trkpt>
      <trkpt lat="43.96023" lon="7.31897">
        <ele>645.59997558594</ele>
        <time>2019-03-30T13:14:58.000Z</time>
      </trkpt>
      <trkpt lat="43.9601" lon="7.31881">
        <ele>646.20001220703</ele>
        <time>2019-03-30T13:15:05.000Z</time>
      </trkpt>
      <trkpt lat="43.96004" lon="7.31875">
        <ele>646.59997558594</ele>
        <time>2019-03-30T13:15:08.000Z</time>
      </trkpt>
      <trkpt lat="43.95992" lon="7.31861">
        <ele>647.79998779297</ele>
        <time>2019-03-30T13:15:14.000Z</time>
      </trkpt>
      <trkpt lat="43.95979" lon="7.31845">
        <ele>648.79998779297</ele>
        <time>2019-03-30T13:15:21.000Z</time>
      </trkpt>
      <trkpt lat="43.95977" lon="7.31844">
        <ele>649.20001220703</ele>
        <time>2019-03-30T13:15:22.000Z</time>
      </trkpt>
      <trkpt lat="43.95969" lon="7.31833">
        <ele>650</ele>
        <time>2019-03-30T13:15:26.000Z</time>
      </trkpt>
      <trkpt lat="43.95967" lon="7.31826">
        <ele>650.20001220703</ele>
        <time>2019-03-30T13:15:28.000Z</time>
      </trkpt>
      <trkpt lat="43.95969" lon="7.31812">
        <ele>650.59997558594</ele>
        <time>2019-03-30T13:15:32.000Z</time>
      </trkpt>
      <trkpt lat="43.95971" lon="7.31805">
        <ele>651</ele>
        <time>2019-03-30T13:15:34.000Z</time>
      </trkpt>
      <trkpt lat="43.95977" lon="7.3179">
        <ele>652.20001220703</ele>
        <time>2019-03-30T13:15:39.000Z</time>
      </trkpt>
      <trkpt lat="43.95985" lon="7.31768">
        <ele>653.40002441406</ele>
        <time>2019-03-30T13:15:46.000Z</time>
      </trkpt>
      <trkpt lat="43.95988" lon="7.31763">
        <ele>653.79998779297</ele>
        <time>2019-03-30T13:15:48.000Z</time>
      </trkpt>
      <trkpt lat="43.95993" lon="7.31748">
        <ele>654.59997558594</ele>
        <time>2019-03-30T13:15:53.000Z</time>
      </trkpt>
      <trkpt lat="43.95995" lon="7.31742">
        <ele>655</ele>
        <time>2019-03-30T13:15:55.000Z</time>
      </trkpt>
      <trkpt lat="43.95999" lon="7.31732">
        <ele>655.79998779297</ele>
        <time>2019-03-30T13:15:59.000Z</time>
      </trkpt>
      <trkpt lat="43.96003" lon="7.31725">
        <ele>656.40002441406</ele>
        <time>2019-03-30T13:16:02.000Z</time>
      </trkpt>
      <trkpt lat="43.96006" lon="7.31716">
        <ele>656.79998779297</ele>
        <time>2019-03-30T13:16:08.000Z</time>
      </trkpt>
      <trkpt lat="43.96006" lon="7.31716">
        <ele>656.79998779297</ele>
        <time>2019-03-30T13:16:11.000Z</time>
      </trkpt>
      <trkpt lat="43.96006" lon="7.31716">
        <ele>656.79998779297</ele>
        <time>2019-03-30T13:16:16.000Z</time>
      </trkpt>
      <trkpt lat="43.96006" lon="7.31715">
        <ele>656.79998779297</ele>
        <time>2019-03-30T13:16:44.000Z</time>
      </trkpt>
      <trkpt lat="43.96005" lon="7.31713">
        <ele>656.79998779297</ele>
        <time>2019-03-30T13:16:51.000Z</time>
      </trkpt>
      <trkpt lat="43.96002" lon="7.31711">
        <ele>656.79998779297</ele>
        <time>2019-03-30T13:16:58.000Z</time>
      </trkpt>
      <trkpt lat="43.96001" lon="7.31711">
        <ele>656.79998779297</ele>
        <time>2019-03-30T13:16:59.000Z</time>
      </trkpt>
      <trkpt lat="43.95994" lon="7.31711">
        <ele>657.20001220703</ele>
        <time>2019-03-30T13:17:03.000Z</time>
      </trkpt>
      <trkpt lat="43.95988" lon="7.31711">
        <ele>657.79998779297</ele>
        <time>2019-03-30T13:17:06.000Z</time>
      </trkpt>
      <trkpt lat="43.9598" lon="7.31709">
        <ele>658.40002441406</ele>
        <time>2019-03-30T13:17:10.000Z</time>
      </trkpt>
      <trkpt lat="43.95972" lon="7.31702">
        <ele>659</ele>
        <time>2019-03-30T13:17:15.000Z</time>
      </trkpt>
      <trkpt lat="43.95968" lon="7.31696">
        <ele>659.40002441406</ele>
        <time>2019-03-30T13:17:18.000Z</time>
      </trkpt>
      <trkpt lat="43.95962" lon="7.31688">
        <ele>660</ele>
        <time>2019-03-30T13:17:22.000Z</time>
      </trkpt>
      <trkpt lat="43.95961" lon="7.31686">
        <ele>660.20001220703</ele>
        <time>2019-03-30T13:17:23.000Z</time>
      </trkpt>
      <trkpt lat="43.95951" lon="7.31681">
        <ele>661</ele>
        <time>2019-03-30T13:17:29.000Z</time>
      </trkpt>
      <trkpt lat="43.9594" lon="7.31676">
        <ele>661.79998779297</ele>
        <time>2019-03-30T13:17:35.000Z</time>
      </trkpt>
      <trkpt lat="43.95934" lon="7.31674">
        <ele>662</ele>
        <time>2019-03-30T13:17:38.000Z</time>
      </trkpt>
      <trkpt lat="43.95925" lon="7.31666">
        <ele>662.79998779297</ele>
        <time>2019-03-30T13:17:43.000Z</time>
      </trkpt>
      <trkpt lat="43.95922" lon="7.31662">
        <ele>663</ele>
        <time>2019-03-30T13:17:45.000Z</time>
      </trkpt>
      <trkpt lat="43.95917" lon="7.31653">
        <ele>663.59997558594</ele>
        <time>2019-03-30T13:17:49.000Z</time>
      </trkpt>
      <trkpt lat="43.95912" lon="7.31646">
        <ele>664.20001220703</ele>
        <time>2019-03-30T13:17:52.000Z</time>
      </trkpt>
      <trkpt lat="43.95907" lon="7.31636">
        <ele>664.79998779297</ele>
        <time>2019-03-30T13:17:56.000Z</time>
      </trkpt>
      <trkpt lat="43.95904" lon="7.31629">
        <ele>665.20001220703</ele>
        <time>2019-03-30T13:17:59.000Z</time>
      </trkpt>
      <trkpt lat="43.95901" lon="7.31622">
        <ele>665.59997558594</ele>
        <time>2019-03-30T13:18:02.000Z</time>
      </trkpt>
      <trkpt lat="43.95897" lon="7.31614">
        <ele>666.20001220703</ele>
        <time>2019-03-30T13:18:05.000Z</time>
      </trkpt>
      <trkpt lat="43.95889" lon="7.31605">
        <ele>667.20001220703</ele>
        <time>2019-03-30T13:18:10.000Z</time>
      </trkpt>
      <trkpt lat="43.95888" lon="7.31603">
        <ele>667.40002441406</ele>
        <time>2019-03-30T13:18:11.000Z</time>
      </trkpt>
      <trkpt lat="43.95875" lon="7.3159">
        <ele>668.40002441406</ele>
        <time>2019-03-30T13:18:18.000Z</time>
      </trkpt>
      <trkpt lat="43.95874" lon="7.31588">
        <ele>668.40002441406</ele>
        <time>2019-03-30T13:18:19.000Z</time>
      </trkpt>
      <trkpt lat="43.95865" lon="7.31573">
        <ele>669</ele>
        <time>2019-03-30T13:18:25.000Z</time>
      </trkpt>
      <trkpt lat="43.95861" lon="7.31565">
        <ele>669.40002441406</ele>
        <time>2019-03-30T13:18:28.000Z</time>
      </trkpt>
      <trkpt lat="43.95859" lon="7.31552">
        <ele>670</ele>
        <time>2019-03-30T13:18:32.000Z</time>
      </trkpt>
      <trkpt lat="43.95861" lon="7.31538">
        <ele>670.59997558594</ele>
        <time>2019-03-30T13:18:37.000Z</time>
      </trkpt>
      <trkpt lat="43.95864" lon="7.31532">
        <ele>670.59997558594</ele>
        <time>2019-03-30T13:18:39.000Z</time>
      </trkpt>
      <trkpt lat="43.9587" lon="7.31512">
        <ele>671.40002441406</ele>
        <time>2019-03-30T13:18:46.000Z</time>
      </trkpt>
      <trkpt lat="43.95871" lon="7.31509">
        <ele>671.59997558594</ele>
        <time>2019-03-30T13:18:47.000Z</time>
      </trkpt>
      <trkpt lat="43.95873" lon="7.31496">
        <ele>672.20001220703</ele>
        <time>2019-03-30T13:18:51.000Z</time>
      </trkpt>
      <trkpt lat="43.95876" lon="7.31488">
        <ele>672.59997558594</ele>
        <time>2019-03-30T13:18:54.000Z</time>
      </trkpt>
      <trkpt lat="43.95879" lon="7.31481">
        <ele>673</ele>
        <time>2019-03-30T13:18:57.000Z</time>
      </trkpt>
      <trkpt lat="43.95891" lon="7.31465">
        <ele>673.79998779297</ele>
        <time>2019-03-30T13:19:04.000Z</time>
      </trkpt>
      <trkpt lat="43.95893" lon="7.31463">
        <ele>673.79998779297</ele>
        <time>2019-03-30T13:19:05.000Z</time>
      </trkpt>
      <trkpt lat="43.95903" lon="7.31453">
        <ele>674.79998779297</ele>
        <time>2019-03-30T13:19:11.000Z</time>
      </trkpt>
      <trkpt lat="43.95907" lon="7.31447">
        <ele>675.40002441406</ele>
        <time>2019-03-30T13:19:14.000Z</time>
      </trkpt>
      <trkpt lat="43.95907" lon="7.31444">
        <ele>675.40002441406</ele>
        <time>2019-03-30T13:19:15.000Z</time>
      </trkpt>
      <trkpt lat="43.95907" lon="7.31431">
        <ele>675.79998779297</ele>
        <time>2019-03-30T13:19:20.000Z</time>
      </trkpt>
      <trkpt lat="43.95906" lon="7.31428">
        <ele>676</ele>
        <time>2019-03-30T13:19:21.000Z</time>
      </trkpt>
      <trkpt lat="43.95892" lon="7.31409">
        <ele>676.79998779297</ele>
        <time>2019-03-30T13:19:30.000Z</time>
      </trkpt>
      <trkpt lat="43.95891" lon="7.31408">
        <ele>677</ele>
        <time>2019-03-30T13:19:31.000Z</time>
      </trkpt>
      <trkpt lat="43.9588" lon="7.31398">
        <ele>677.79998779297</ele>
        <time>2019-03-30T13:19:37.000Z</time>
      </trkpt>
      <trkpt lat="43.95878" lon="7.31397">
        <ele>678</ele>
        <time>2019-03-30T13:19:38.000Z</time>
      </trkpt>
      <trkpt lat="43.95865" lon="7.31394">
        <ele>678.59997558594</ele>
        <time>2019-03-30T13:19:44.000Z</time>
      </trkpt>
      <trkpt lat="43.95854" lon="7.314">
        <ele>678.79998779297</ele>
        <time>2019-03-30T13:19:50.000Z</time>
      </trkpt>
      <trkpt lat="43.95846" lon="7.31407">
        <ele>679</ele>
        <time>2019-03-30T13:19:55.000Z</time>
      </trkpt>
      <trkpt lat="43.95844" lon="7.31411">
        <ele>679.20001220703</ele>
        <time>2019-03-30T13:19:57.000Z</time>
      </trkpt>
      <trkpt lat="43.95843" lon="7.31418">
        <ele>679.59997558594</ele>
        <time>2019-03-30T13:20:01.000Z</time>
      </trkpt>
      <trkpt lat="43.95842" lon="7.31425">
        <ele>679.79998779297</ele>
        <time>2019-03-30T13:20:04.000Z</time>
      </trkpt>
      <trkpt lat="43.95842" lon="7.31429">
        <ele>680</ele>
        <time>2019-03-30T13:20:06.000Z</time>
      </trkpt>
      <trkpt lat="43.9584" lon="7.3144">
        <ele>680.79998779297</ele>
        <time>2019-03-30T13:20:11.000Z</time>
      </trkpt>
      <trkpt lat="43.95838" lon="7.31446">
        <ele>681.20001220703</ele>
        <time>2019-03-30T13:20:13.000Z</time>
      </trkpt>
      <trkpt lat="43.95832" lon="7.31455">
        <ele>681.79998779297</ele>
        <time>2019-03-30T13:20:17.000Z</time>
      </trkpt>
      <trkpt lat="43.95826" lon="7.31459">
        <ele>682.40002441406</ele>
        <time>2019-03-30T13:20:20.000Z</time>
      </trkpt>
      <trkpt lat="43.9582" lon="7.31461">
        <ele>682.79998779297</ele>
        <time>2019-03-30T13:20:23.000Z</time>
      </trkpt>
      <trkpt lat="43.95812" lon="7.31464">
        <ele>683.59997558594</ele>
        <time>2019-03-30T13:20:27.000Z</time>
      </trkpt>
      <trkpt lat="43.95802" lon="7.31472">
        <ele>684.40002441406</ele>
        <time>2019-03-30T13:20:32.000Z</time>
      </trkpt>
      <trkpt lat="43.95791" lon="7.31484">
        <ele>684.59997558594</ele>
        <time>2019-03-30T13:20:38.000Z</time>
      </trkpt>
      <trkpt lat="43.95786" lon="7.31488">
        <ele>685.59997558594</ele>
        <time>2019-03-30T13:20:41.000Z</time>
      </trkpt>
      <trkpt lat="43.95784" lon="7.31489">
        <ele>686</ele>
        <time>2019-03-30T13:20:42.000Z</time>
      </trkpt>
      <trkpt lat="43.9577" lon="7.3149">
        <ele>686.79998779297</ele>
        <time>2019-03-30T13:20:48.000Z</time>
      </trkpt>
      <trkpt lat="43.95768" lon="7.31489">
        <ele>687</ele>
        <time>2019-03-30T13:20:49.000Z</time>
      </trkpt>
      <trkpt lat="43.95754" lon="7.31494">
        <ele>687.59997558594</ele>
        <time>2019-03-30T13:20:56.000Z</time>
      </trkpt>
      <trkpt lat="43.95751" lon="7.31497">
        <ele>688</ele>
        <time>2019-03-30T13:20:58.000Z</time>
      </trkpt>
      <trkpt lat="43.95745" lon="7.31507">
        <ele>688.40002441406</ele>
        <time>2019-03-30T13:21:03.000Z</time>
      </trkpt>
      <trkpt lat="43.95744" lon="7.31518">
        <ele>688.79998779297</ele>
        <time>2019-03-30T13:21:08.000Z</time>
      </trkpt>
      <trkpt lat="43.95745" lon="7.31526">
        <ele>689</ele>
        <time>2019-03-30T13:21:11.000Z</time>
      </trkpt>
      <trkpt lat="43.95746" lon="7.31531">
        <ele>689.59997558594</ele>
        <time>2019-03-30T13:21:13.000Z</time>
      </trkpt>
      <trkpt lat="43.95747" lon="7.31537">
        <ele>690</ele>
        <time>2019-03-30T13:21:15.000Z</time>
      </trkpt>
      <trkpt lat="43.95746" lon="7.31554">
        <ele>690.79998779297</ele>
        <time>2019-03-30T13:21:20.000Z</time>
      </trkpt>
      <trkpt lat="43.95744" lon="7.31561">
        <ele>691</ele>
        <time>2019-03-30T13:21:22.000Z</time>
      </trkpt>
      <trkpt lat="43.95737" lon="7.31575">
        <ele>691.40002441406</ele>
        <time>2019-03-30T13:21:27.000Z</time>
      </trkpt>
      <trkpt lat="43.9573" lon="7.31588">
        <ele>692.20001220703</ele>
        <time>2019-03-30T13:21:32.000Z</time>
      </trkpt>
      <trkpt lat="43.95726" lon="7.31596">
        <ele>692.59997558594</ele>
        <time>2019-03-30T13:21:35.000Z</time>
      </trkpt>
      <trkpt lat="43.95721" lon="7.31607">
        <ele>693.40002441406</ele>
        <time>2019-03-30T13:21:39.000Z</time>
      </trkpt>
      <trkpt lat="43.95715" lon="7.31618">
        <ele>694</ele>
        <time>2019-03-30T13:21:43.000Z</time>
      </trkpt>
      <trkpt lat="43.95709" lon="7.31624">
        <ele>694.40002441406</ele>
        <time>2019-03-30T13:21:46.000Z</time>
      </trkpt>
      <trkpt lat="43.957" lon="7.31631">
        <ele>695</ele>
        <time>2019-03-30T13:21:50.000Z</time>
      </trkpt>
      <trkpt lat="43.95689" lon="7.3164">
        <ele>695.40002441406</ele>
        <time>2019-03-30T13:21:55.000Z</time>
      </trkpt>
      <trkpt lat="43.9568" lon="7.31646">
        <ele>696</ele>
        <time>2019-03-30T13:21:59.000Z</time>
      </trkpt>
      <trkpt lat="43.95676" lon="7.3165">
        <ele>696.40002441406</ele>
        <time>2019-03-30T13:22:01.000Z</time>
      </trkpt>
      <trkpt lat="43.95661" lon="7.3166">
        <ele>697.40002441406</ele>
        <time>2019-03-30T13:22:07.000Z</time>
      </trkpt>
      <trkpt lat="43.95658" lon="7.31661">
        <ele>697.59997558594</ele>
        <time>2019-03-30T13:22:08.000Z</time>
      </trkpt>
      <trkpt lat="43.9564" lon="7.3167">
        <ele>698.59997558594</ele>
        <time>2019-03-30T13:22:16.000Z</time>
      </trkpt>
      <trkpt lat="43.95627" lon="7.31677">
        <ele>699.79998779297</ele>
        <time>2019-03-30T13:22:22.000Z</time>
      </trkpt>
      <trkpt lat="43.95623" lon="7.3168">
        <ele>700</ele>
        <time>2019-03-30T13:22:24.000Z</time>
      </trkpt>
      <trkpt lat="43.95617" lon="7.31685">
        <ele>700.79998779297</ele>
        <time>2019-03-30T13:22:27.000Z</time>
      </trkpt>
      <trkpt lat="43.95613" lon="7.31692">
        <ele>701.20001220703</ele>
        <time>2019-03-30T13:22:30.000Z</time>
      </trkpt>
      <trkpt lat="43.95613" lon="7.31694">
        <ele>701.40002441406</ele>
        <time>2019-03-30T13:22:31.000Z</time>
      </trkpt>
      <trkpt lat="43.95613" lon="7.31705">
        <ele>702</ele>
        <time>2019-03-30T13:22:35.000Z</time>
      </trkpt>
      <trkpt lat="43.95613" lon="7.31707">
        <ele>702</ele>
        <time>2019-03-30T13:22:36.000Z</time>
      </trkpt>
      <trkpt lat="43.95614" lon="7.3171">
        <ele>702.20001220703</ele>
        <time>2019-03-30T13:22:37.000Z</time>
      </trkpt>
      <trkpt lat="43.95616" lon="7.31725">
        <ele>703</ele>
        <time>2019-03-30T13:22:43.000Z</time>
      </trkpt>
      <trkpt lat="43.95616" lon="7.31728">
        <ele>703</ele>
        <time>2019-03-30T13:22:44.000Z</time>
      </trkpt>
      <trkpt lat="43.95613" lon="7.31746">
        <ele>703.79998779297</ele>
        <time>2019-03-30T13:22:51.000Z</time>
      </trkpt>
      <trkpt lat="43.95613" lon="7.31749">
        <ele>704</ele>
        <time>2019-03-30T13:22:52.000Z</time>
      </trkpt>
      <trkpt lat="43.95614" lon="7.31764">
        <ele>704.79998779297</ele>
        <time>2019-03-30T13:22:57.000Z</time>
      </trkpt>
      <trkpt lat="43.95621" lon="7.3178">
        <ele>704.59997558594</ele>
        <time>2019-03-30T13:23:03.000Z</time>
      </trkpt>
      <trkpt lat="43.95626" lon="7.31798">
        <ele>704.79998779297</ele>
        <time>2019-03-30T13:23:09.000Z</time>
      </trkpt>
      <trkpt lat="43.95625" lon="7.31801">
        <ele>705</ele>
        <time>2019-03-30T13:23:10.000Z</time>
      </trkpt>
      <trkpt lat="43.95621" lon="7.31814">
        <ele>706</ele>
        <time>2019-03-30T13:23:14.000Z</time>
      </trkpt>
      <trkpt lat="43.9562" lon="7.31816">
        <ele>706.20001220703</ele>
        <time>2019-03-30T13:23:15.000Z</time>
      </trkpt>
      <trkpt lat="43.9562" lon="7.31831">
        <ele>707</ele>
        <time>2019-03-30T13:23:20.000Z</time>
      </trkpt>
      <trkpt lat="43.95621" lon="7.31833">
        <ele>707</ele>
        <time>2019-03-30T13:23:21.000Z</time>
      </trkpt>
      <trkpt lat="43.95629" lon="7.31849">
        <ele>707.79998779297</ele>
        <time>2019-03-30T13:23:27.000Z</time>
      </trkpt>
      <trkpt lat="43.95631" lon="7.31856">
        <ele>708.40002441406</ele>
        <time>2019-03-30T13:23:29.000Z</time>
      </trkpt>
      <trkpt lat="43.95631" lon="7.31866">
        <ele>709</ele>
        <time>2019-03-30T13:23:32.000Z</time>
      </trkpt>
      <trkpt lat="43.95628" lon="7.31871">
        <ele>709.40002441406</ele>
        <time>2019-03-30T13:23:34.000Z</time>
      </trkpt>
      <trkpt lat="43.95623" lon="7.31881">
        <ele>710.20001220703</ele>
        <time>2019-03-30T13:23:38.000Z</time>
      </trkpt>
      <trkpt lat="43.9562" lon="7.31886">
        <ele>710.59997558594</ele>
        <time>2019-03-30T13:23:40.000Z</time>
      </trkpt>
      <trkpt lat="43.95613" lon="7.31904">
        <ele>711.20001220703</ele>
        <time>2019-03-30T13:23:46.000Z</time>
      </trkpt>
      <trkpt lat="43.95612" lon="7.31914">
        <ele>711.79998779297</ele>
        <time>2019-03-30T13:23:49.000Z</time>
      </trkpt>
      <trkpt lat="43.95609" lon="7.31931">
        <ele>713</ele>
        <time>2019-03-30T13:23:54.000Z</time>
      </trkpt>
      <trkpt lat="43.95607" lon="7.31952">
        <ele>714</ele>
        <time>2019-03-30T13:24:00.000Z</time>
      </trkpt>
      <trkpt lat="43.95606" lon="7.31966">
        <ele>714.79998779297</ele>
        <time>2019-03-30T13:24:04.000Z</time>
      </trkpt>
      <trkpt lat="43.95606" lon="7.31973">
        <ele>715.20001220703</ele>
        <time>2019-03-30T13:24:06.000Z</time>
      </trkpt>
      <trkpt lat="43.95603" lon="7.31984">
        <ele>716.20001220703</ele>
        <time>2019-03-30T13:24:10.000Z</time>
      </trkpt>
      <trkpt lat="43.95602" lon="7.31987">
        <ele>716.20001220703</ele>
        <time>2019-03-30T13:24:11.000Z</time>
      </trkpt>
      <trkpt lat="43.95594" lon="7.32003">
        <ele>717</ele>
        <time>2019-03-30T13:24:17.000Z</time>
      </trkpt>
      <trkpt lat="43.9559" lon="7.32016">
        <ele>717.40002441406</ele>
        <time>2019-03-30T13:24:21.000Z</time>
      </trkpt>
      <trkpt lat="43.95589" lon="7.32023">
        <ele>717.40002441406</ele>
        <time>2019-03-30T13:24:23.000Z</time>
      </trkpt>
      <trkpt lat="43.95589" lon="7.32037">
        <ele>718.40002441406</ele>
        <time>2019-03-30T13:24:27.000Z</time>
      </trkpt>
      <trkpt lat="43.9559" lon="7.32047">
        <ele>719</ele>
        <time>2019-03-30T13:24:30.000Z</time>
      </trkpt>
      <trkpt lat="43.95592" lon="7.32057">
        <ele>719.59997558594</ele>
        <time>2019-03-30T13:24:33.000Z</time>
      </trkpt>
      <trkpt lat="43.95594" lon="7.32075">
        <ele>720.59997558594</ele>
        <time>2019-03-30T13:24:38.000Z</time>
      </trkpt>
      <trkpt lat="43.95596" lon="7.32081">
        <ele>721</ele>
        <time>2019-03-30T13:24:40.000Z</time>
      </trkpt>
      <trkpt lat="43.95599" lon="7.32094">
        <ele>721.59997558594</ele>
        <time>2019-03-30T13:24:44.000Z</time>
      </trkpt>
      <trkpt lat="43.95604" lon="7.32107">
        <ele>722</ele>
        <time>2019-03-30T13:24:48.000Z</time>
      </trkpt>
      <trkpt lat="43.95616" lon="7.32132">
        <ele>722.79998779297</ele>
        <time>2019-03-30T13:24:56.000Z</time>
      </trkpt>
      <trkpt lat="43.95623" lon="7.32151">
        <ele>724</ele>
        <time>2019-03-30T13:25:02.000Z</time>
      </trkpt>
      <trkpt lat="43.95632" lon="7.3217">
        <ele>725</ele>
        <time>2019-03-30T13:25:08.000Z</time>
      </trkpt>
      <trkpt lat="43.95635" lon="7.32176">
        <ele>725.20001220703</ele>
        <time>2019-03-30T13:25:10.000Z</time>
      </trkpt>
      <trkpt lat="43.95643" lon="7.3219">
        <ele>726</ele>
        <time>2019-03-30T13:25:15.000Z</time>
      </trkpt>
      <trkpt lat="43.95646" lon="7.32195">
        <ele>726.40002441406</ele>
        <time>2019-03-30T13:25:17.000Z</time>
      </trkpt>
      <trkpt lat="43.95652" lon="7.32209">
        <ele>727.20001220703</ele>
        <time>2019-03-30T13:25:22.000Z</time>
      </trkpt>
      <trkpt lat="43.95653" lon="7.32212">
        <ele>727.40002441406</ele>
        <time>2019-03-30T13:25:23.000Z</time>
      </trkpt>
      <trkpt lat="43.95661" lon="7.32229">
        <ele>728.20001220703</ele>
        <time>2019-03-30T13:25:29.000Z</time>
      </trkpt>
      <trkpt lat="43.9566" lon="7.32243">
        <ele>729</ele>
        <time>2019-03-30T13:25:33.000Z</time>
      </trkpt>
      <trkpt lat="43.95658" lon="7.32245">
        <ele>729.20001220703</ele>
        <time>2019-03-30T13:25:34.000Z</time>
      </trkpt>
      <trkpt lat="43.95656" lon="7.32247">
        <ele>729.40002441406</ele>
        <time>2019-03-30T13:25:35.000Z</time>
      </trkpt>
      <trkpt lat="43.95647" lon="7.32247">
        <ele>730.79998779297</ele>
        <time>2019-03-30T13:25:39.000Z</time>
      </trkpt>
      <trkpt lat="43.95639" lon="7.32244">
        <ele>731.59997558594</ele>
        <time>2019-03-30T13:25:42.000Z</time>
      </trkpt>
      <trkpt lat="43.95637" lon="7.32243">
        <ele>731.79998779297</ele>
        <time>2019-03-30T13:25:43.000Z</time>
      </trkpt>
      <trkpt lat="43.95628" lon="7.32239">
        <ele>733</ele>
        <time>2019-03-30T13:25:47.000Z</time>
      </trkpt>
      <trkpt lat="43.95614" lon="7.32234">
        <ele>734</ele>
        <time>2019-03-30T13:25:53.000Z</time>
      </trkpt>
      <trkpt lat="43.95609" lon="7.32233">
        <ele>734.40002441406</ele>
        <time>2019-03-30T13:25:55.000Z</time>
      </trkpt>
      <trkpt lat="43.95603" lon="7.3223">
        <ele>735.20001220703</ele>
        <time>2019-03-30T13:25:58.000Z</time>
      </trkpt>
      <trkpt lat="43.95594" lon="7.32226">
        <ele>736.20001220703</ele>
        <time>2019-03-30T13:26:02.000Z</time>
      </trkpt>
      <trkpt lat="43.95581" lon="7.32218">
        <ele>737.20001220703</ele>
        <time>2019-03-30T13:26:08.000Z</time>
      </trkpt>
      <trkpt lat="43.95575" lon="7.32213">
        <ele>737.59997558594</ele>
        <time>2019-03-30T13:26:11.000Z</time>
      </trkpt>
      <trkpt lat="43.95565" lon="7.32207">
        <ele>738.20001220703</ele>
        <time>2019-03-30T13:26:16.000Z</time>
      </trkpt>
      <trkpt lat="43.95559" lon="7.32205">
        <ele>738.20001220703</ele>
        <time>2019-03-30T13:26:19.000Z</time>
      </trkpt>
      <trkpt lat="43.95548" lon="7.32206">
        <ele>739.20001220703</ele>
        <time>2019-03-30T13:26:24.000Z</time>
      </trkpt>
      <trkpt lat="43.95543" lon="7.32209">
        <ele>739.59997558594</ele>
        <time>2019-03-30T13:26:27.000Z</time>
      </trkpt>
      <trkpt lat="43.95534" lon="7.32218">
        <ele>740.40002441406</ele>
        <time>2019-03-30T13:26:32.000Z</time>
      </trkpt>
      <trkpt lat="43.9553" lon="7.32225">
        <ele>741</ele>
        <time>2019-03-30T13:26:35.000Z</time>
      </trkpt>
      <trkpt lat="43.95526" lon="7.32234">
        <ele>741.59997558594</ele>
        <time>2019-03-30T13:26:39.000Z</time>
      </trkpt>
      <trkpt lat="43.95524" lon="7.32243">
        <ele>742.20001220703</ele>
        <time>2019-03-30T13:26:42.000Z</time>
      </trkpt>
      <trkpt lat="43.95521" lon="7.3225">
        <ele>742.79998779297</ele>
        <time>2019-03-30T13:26:45.000Z</time>
      </trkpt>
      <trkpt lat="43.95518" lon="7.32264">
        <ele>743.59997558594</ele>
        <time>2019-03-30T13:26:50.000Z</time>
      </trkpt>
      <trkpt lat="43.95516" lon="7.32269">
        <ele>743.79998779297</ele>
        <time>2019-03-30T13:26:52.000Z</time>
      </trkpt>
      <trkpt lat="43.95512" lon="7.32289">
        <ele>745</ele>
        <time>2019-03-30T13:26:59.000Z</time>
      </trkpt>
      <trkpt lat="43.9551" lon="7.32311">
        <ele>745.79998779297</ele>
        <time>2019-03-30T13:27:07.000Z</time>
      </trkpt>
      <trkpt lat="43.9551" lon="7.3232">
        <ele>746.20001220703</ele>
        <time>2019-03-30T13:27:10.000Z</time>
      </trkpt>
      <trkpt lat="43.95512" lon="7.32334">
        <ele>747</ele>
        <time>2019-03-30T13:27:15.000Z</time>
      </trkpt>
      <trkpt lat="43.95513" lon="7.3234">
        <ele>747.20001220703</ele>
        <time>2019-03-30T13:27:17.000Z</time>
      </trkpt>
      <trkpt lat="43.95518" lon="7.32361">
        <ele>748.20001220703</ele>
        <time>2019-03-30T13:27:24.000Z</time>
      </trkpt>
      <trkpt lat="43.95519" lon="7.32364">
        <ele>748.40002441406</ele>
        <time>2019-03-30T13:27:25.000Z</time>
      </trkpt>
      <trkpt lat="43.95521" lon="7.32385">
        <ele>749.40002441406</ele>
        <time>2019-03-30T13:27:31.000Z</time>
      </trkpt>
      <trkpt lat="43.9552" lon="7.32388">
        <ele>749.59997558594</ele>
        <time>2019-03-30T13:27:32.000Z</time>
      </trkpt>
      <trkpt lat="43.95515" lon="7.32397">
        <ele>750.40002441406</ele>
        <time>2019-03-30T13:27:36.000Z</time>
      </trkpt>
      <trkpt lat="43.95511" lon="7.324">
        <ele>750.79998779297</ele>
        <time>2019-03-30T13:27:38.000Z</time>
      </trkpt>
      <trkpt lat="43.95503" lon="7.32403">
        <ele>751.40002441406</ele>
        <time>2019-03-30T13:27:42.000Z</time>
      </trkpt>
      <trkpt lat="43.95495" lon="7.32404">
        <ele>752.20001220703</ele>
        <time>2019-03-30T13:27:46.000Z</time>
      </trkpt>
      <trkpt lat="43.95491" lon="7.32405">
        <ele>752.59997558594</ele>
        <time>2019-03-30T13:27:48.000Z</time>
      </trkpt>
      <trkpt lat="43.9548" lon="7.32407">
        <ele>753.40002441406</ele>
        <time>2019-03-30T13:27:54.000Z</time>
      </trkpt>
      <trkpt lat="43.95476" lon="7.32407">
        <ele>753.59997558594</ele>
        <time>2019-03-30T13:27:56.000Z</time>
      </trkpt>
      <trkpt lat="43.95464" lon="7.32411">
        <ele>754.79998779297</ele>
        <time>2019-03-30T13:28:03.000Z</time>
      </trkpt>
      <trkpt lat="43.95452" lon="7.32422">
        <ele>755.79998779297</ele>
        <time>2019-03-30T13:28:10.000Z</time>
      </trkpt>
      <trkpt lat="43.95451" lon="7.32425">
        <ele>756</ele>
        <time>2019-03-30T13:28:11.000Z</time>
      </trkpt>
      <trkpt lat="43.9544" lon="7.32438">
        <ele>757</ele>
        <time>2019-03-30T13:28:18.000Z</time>
      </trkpt>
      <trkpt lat="43.95437" lon="7.32443">
        <ele>757.40002441406</ele>
        <time>2019-03-30T13:28:20.000Z</time>
      </trkpt>
      <trkpt lat="43.9543" lon="7.32452">
        <ele>758</ele>
        <time>2019-03-30T13:28:25.000Z</time>
      </trkpt>
      <trkpt lat="43.95428" lon="7.32454">
        <ele>758.20001220703</ele>
        <time>2019-03-30T13:28:26.000Z</time>
      </trkpt>
      <trkpt lat="43.95416" lon="7.3247">
        <ele>759.20001220703</ele>
        <time>2019-03-30T13:28:34.000Z</time>
      </trkpt>
      <trkpt lat="43.95412" lon="7.32477">
        <ele>759.40002441406</ele>
        <time>2019-03-30T13:28:37.000Z</time>
      </trkpt>
      <trkpt lat="43.95407" lon="7.32489">
        <ele>760.20001220703</ele>
        <time>2019-03-30T13:28:42.000Z</time>
      </trkpt>
      <trkpt lat="43.95406" lon="7.325">
        <ele>760.79998779297</ele>
        <time>2019-03-30T13:28:46.000Z</time>
      </trkpt>
      <trkpt lat="43.95405" lon="7.32516">
        <ele>761.40002441406</ele>
        <time>2019-03-30T13:28:52.000Z</time>
      </trkpt>
      <trkpt lat="43.95404" lon="7.32525">
        <ele>762.20001220703</ele>
        <time>2019-03-30T13:28:55.000Z</time>
      </trkpt>
      <trkpt lat="43.95404" lon="7.32531">
        <ele>762.59997558594</ele>
        <time>2019-03-30T13:28:57.000Z</time>
      </trkpt>
      <trkpt lat="43.95405" lon="7.32547">
        <ele>763.59997558594</ele>
        <time>2019-03-30T13:29:03.000Z</time>
      </trkpt>
      <trkpt lat="43.95407" lon="7.3256">
        <ele>764.59997558594</ele>
        <time>2019-03-30T13:29:08.000Z</time>
      </trkpt>
      <trkpt lat="43.95409" lon="7.32568">
        <ele>765.40002441406</ele>
        <time>2019-03-30T13:29:11.000Z</time>
      </trkpt>
      <trkpt lat="43.95411" lon="7.32573">
        <ele>765.79998779297</ele>
        <time>2019-03-30T13:29:13.000Z</time>
      </trkpt>
      <trkpt lat="43.95415" lon="7.32585">
        <ele>767</ele>
        <time>2019-03-30T13:29:18.000Z</time>
      </trkpt>
      <trkpt lat="43.95422" lon="7.32607">
        <ele>768</ele>
        <time>2019-03-30T13:29:27.000Z</time>
      </trkpt>
      <trkpt lat="43.95426" lon="7.32619">
        <ele>769</ele>
        <time>2019-03-30T13:29:32.000Z</time>
      </trkpt>
      <trkpt lat="43.95432" lon="7.32634">
        <ele>770</ele>
        <time>2019-03-30T13:29:38.000Z</time>
      </trkpt>
      <trkpt lat="43.95433" lon="7.32637">
        <ele>770.20001220703</ele>
        <time>2019-03-30T13:29:39.000Z</time>
      </trkpt>
      <trkpt lat="43.95441" lon="7.32653">
        <ele>771</ele>
        <time>2019-03-30T13:29:46.000Z</time>
      </trkpt>
      <trkpt lat="43.95445" lon="7.32661">
        <ele>771.20001220703</ele>
        <time>2019-03-30T13:29:49.000Z</time>
      </trkpt>
      <trkpt lat="43.95449" lon="7.3267">
        <ele>771.79998779297</ele>
        <time>2019-03-30T13:29:53.000Z</time>
      </trkpt>
      <trkpt lat="43.95453" lon="7.32679">
        <ele>772.20001220703</ele>
        <time>2019-03-30T13:29:57.000Z</time>
      </trkpt>
      <trkpt lat="43.95456" lon="7.32689">
        <ele>773</ele>
        <time>2019-03-30T13:30:01.000Z</time>
      </trkpt>
      <trkpt lat="43.95459" lon="7.32697">
        <ele>773.40002441406</ele>
        <time>2019-03-30T13:30:04.000Z</time>
      </trkpt>
      <trkpt lat="43.95466" lon="7.32718">
        <ele>774.20001220703</ele>
        <time>2019-03-30T13:30:12.000Z</time>
      </trkpt>
      <trkpt lat="43.95467" lon="7.3272">
        <ele>774.40002441406</ele>
        <time>2019-03-30T13:30:13.000Z</time>
      </trkpt>
      <trkpt lat="43.95475" lon="7.32739">
        <ele>775.20001220703</ele>
        <time>2019-03-30T13:30:21.000Z</time>
      </trkpt>
      <trkpt lat="43.95476" lon="7.32743">
        <ele>775.20001220703</ele>
        <time>2019-03-30T13:30:26.000Z</time>
      </trkpt>
      <trkpt lat="43.95475" lon="7.32745">
        <ele>774.40002441406</ele>
        <time>2019-03-30T13:30:39.000Z</time>
      </trkpt>
      <trkpt lat="43.95476" lon="7.32745">
        <ele>774</ele>
        <time>2019-03-30T13:30:47.000Z</time>
      </trkpt>
      <trkpt lat="43.95476" lon="7.32746">
        <ele>774.40002441406</ele>
        <time>2019-03-30T13:31:01.000Z</time>
      </trkpt>
      <trkpt lat="43.95477" lon="7.32748">
        <ele>774.59997558594</ele>
        <time>2019-03-30T13:31:02.000Z</time>
      </trkpt>
      <trkpt lat="43.95479" lon="7.32754">
        <ele>775.20001220703</ele>
        <time>2019-03-30T13:31:05.000Z</time>
      </trkpt>
      <trkpt lat="43.9548" lon="7.32757">
        <ele>775.40002441406</ele>
        <time>2019-03-30T13:31:07.000Z</time>
      </trkpt>
      <trkpt lat="43.95484" lon="7.32772">
        <ele>776.40002441406</ele>
        <time>2019-03-30T13:31:15.000Z</time>
      </trkpt>
      <trkpt lat="43.95485" lon="7.32774">
        <ele>776.59997558594</ele>
        <time>2019-03-30T13:31:16.000Z</time>
      </trkpt>
      <trkpt lat="43.9549" lon="7.32791">
        <ele>777.59997558594</ele>
        <time>2019-03-30T13:31:23.000Z</time>
      </trkpt>
      <trkpt lat="43.95496" lon="7.32812">
        <ele>778.59997558594</ele>
        <time>2019-03-30T13:31:31.000Z</time>
      </trkpt>
      <trkpt lat="43.95504" lon="7.32834">
        <ele>779.59997558594</ele>
        <time>2019-03-30T13:31:39.000Z</time>
      </trkpt>
      <trkpt lat="43.95505" lon="7.32836">
        <ele>779.79998779297</ele>
        <time>2019-03-30T13:31:40.000Z</time>
      </trkpt>
      <trkpt lat="43.95515" lon="7.32856">
        <ele>780.79998779297</ele>
        <time>2019-03-30T13:31:47.000Z</time>
      </trkpt>
      <trkpt lat="43.95516" lon="7.32859">
        <ele>780.79998779297</ele>
        <time>2019-03-30T13:31:48.000Z</time>
      </trkpt>
      <trkpt lat="43.95517" lon="7.32879">
        <ele>781.59997558594</ele>
        <time>2019-03-30T13:31:53.000Z</time>
      </trkpt>
      <trkpt lat="43.95516" lon="7.32883">
        <ele>781.79998779297</ele>
        <time>2019-03-30T13:31:54.000Z</time>
      </trkpt>
      <trkpt lat="43.95511" lon="7.32903">
        <ele>782.40002441406</ele>
        <time>2019-03-30T13:31:59.000Z</time>
      </trkpt>
      <trkpt lat="43.95507" lon="7.32937">
        <ele>781.20001220703</ele>
        <time>2019-03-30T13:32:03.000Z</time>
      </trkpt>
      <trkpt lat="43.95505" lon="7.32948">
        <ele>780.59997558594</ele>
        <time>2019-03-30T13:32:04.000Z</time>
      </trkpt>
      <trkpt lat="43.95502" lon="7.32959">
        <ele>779.59997558594</ele>
        <time>2019-03-30T13:32:05.000Z</time>
      </trkpt>
      <trkpt lat="43.95498" lon="7.32969">
        <ele>778.40002441406</ele>
        <time>2019-03-30T13:32:06.000Z</time>
      </trkpt>
      <trkpt lat="43.95494" lon="7.32979">
        <ele>777.59997558594</ele>
        <time>2019-03-30T13:32:07.000Z</time>
      </trkpt>
      <trkpt lat="43.95492" lon="7.32988">
        <ele>777</ele>
        <time>2019-03-30T13:32:08.000Z</time>
      </trkpt>
      <trkpt lat="43.95491" lon="7.32996">
        <ele>775.79998779297</ele>
        <time>2019-03-30T13:32:09.000Z</time>
      </trkpt>
      <trkpt lat="43.95493" lon="7.33004">
        <ele>774.59997558594</ele>
        <time>2019-03-30T13:32:10.000Z</time>
      </trkpt>
      <trkpt lat="43.95498" lon="7.33022">
        <ele>773.59997558594</ele>
        <time>2019-03-30T13:32:12.000Z</time>
      </trkpt>
      <trkpt lat="43.95501" lon="7.33039">
        <ele>772.40002441406</ele>
        <time>2019-03-30T13:32:14.000Z</time>
      </trkpt>
      <trkpt lat="43.95498" lon="7.33053">
        <ele>771</ele>
        <time>2019-03-30T13:32:16.000Z</time>
      </trkpt>
      <trkpt lat="43.95493" lon="7.33055">
        <ele>770.20001220703</ele>
        <time>2019-03-30T13:32:17.000Z</time>
      </trkpt>
      <trkpt lat="43.95487" lon="7.33055">
        <ele>769.59997558594</ele>
        <time>2019-03-30T13:32:18.000Z</time>
      </trkpt>
      <trkpt lat="43.95476" lon="7.33058">
        <ele>769.20001220703</ele>
        <time>2019-03-30T13:32:20.000Z</time>
      </trkpt>
      <trkpt lat="43.95469" lon="7.33071">
        <ele>768.79998779297</ele>
        <time>2019-03-30T13:32:22.000Z</time>
      </trkpt>
      <trkpt lat="43.95468" lon="7.33081">
        <ele>768.40002441406</ele>
        <time>2019-03-30T13:32:23.000Z</time>
      </trkpt>
      <trkpt lat="43.95468" lon="7.33101">
        <ele>767.20001220703</ele>
        <time>2019-03-30T13:32:25.000Z</time>
      </trkpt>
      <trkpt lat="43.95468" lon="7.3312">
        <ele>765.59997558594</ele>
        <time>2019-03-30T13:32:27.000Z</time>
      </trkpt>
      <trkpt lat="43.95468" lon="7.33136">
        <ele>764.20001220703</ele>
        <time>2019-03-30T13:32:29.000Z</time>
      </trkpt>
      <trkpt lat="43.95467" lon="7.33144">
        <ele>763.59997558594</ele>
        <time>2019-03-30T13:32:30.000Z</time>
      </trkpt>
      <trkpt lat="43.95463" lon="7.33159">
        <ele>763</ele>
        <time>2019-03-30T13:32:32.000Z</time>
      </trkpt>
      <trkpt lat="43.95461" lon="7.33175">
        <ele>763</ele>
        <time>2019-03-30T13:32:34.000Z</time>
      </trkpt>
      <trkpt lat="43.9546" lon="7.33182">
        <ele>763</ele>
        <time>2019-03-30T13:32:35.000Z</time>
      </trkpt>
      <trkpt lat="43.95459" lon="7.33197">
        <ele>762.79998779297</ele>
        <time>2019-03-30T13:32:37.000Z</time>
      </trkpt>
      <trkpt lat="43.9545" lon="7.33218">
        <ele>762.59997558594</ele>
        <time>2019-03-30T13:32:40.000Z</time>
      </trkpt>
      <trkpt lat="43.95442" lon="7.33225">
        <ele>762</ele>
        <time>2019-03-30T13:32:42.000Z</time>
      </trkpt>
      <trkpt lat="43.95435" lon="7.33229">
        <ele>761.40002441406</ele>
        <time>2019-03-30T13:32:44.000Z</time>
      </trkpt>
      <trkpt lat="43.95432" lon="7.33234">
        <ele>761</ele>
        <time>2019-03-30T13:32:45.000Z</time>
      </trkpt>
      <trkpt lat="43.95427" lon="7.33248">
        <ele>760</ele>
        <time>2019-03-30T13:32:47.000Z</time>
      </trkpt>
      <trkpt lat="43.95424" lon="7.33257">
        <ele>759.59997558594</ele>
        <time>2019-03-30T13:32:48.000Z</time>
      </trkpt>
      <trkpt lat="43.95415" lon="7.33269">
        <ele>757.79998779297</ele>
        <time>2019-03-30T13:32:50.000Z</time>
      </trkpt>
      <trkpt lat="43.9541" lon="7.3327">
        <ele>756.79998779297</ele>
        <time>2019-03-30T13:32:51.000Z</time>
      </trkpt>
      <trkpt lat="43.95405" lon="7.33267">
        <ele>755.79998779297</ele>
        <time>2019-03-30T13:32:52.000Z</time>
      </trkpt>
      <trkpt lat="43.95401" lon="7.33259">
        <ele>755.20001220703</ele>
        <time>2019-03-30T13:32:53.000Z</time>
      </trkpt>
      <trkpt lat="43.95401" lon="7.33253">
        <ele>754.59997558594</ele>
        <time>2019-03-30T13:32:54.000Z</time>
      </trkpt>
      <trkpt lat="43.95405" lon="7.33243">
        <ele>754.59997558594</ele>
        <time>2019-03-30T13:32:56.000Z</time>
      </trkpt>
      <trkpt lat="43.95407" lon="7.33239">
        <ele>754.79998779297</ele>
        <time>2019-03-30T13:32:57.000Z</time>
      </trkpt>
      <trkpt lat="43.95411" lon="7.33226">
        <ele>756.20001220703</ele>
        <time>2019-03-30T13:33:00.000Z</time>
      </trkpt>
      <trkpt lat="43.95413" lon="7.33219">
        <ele>757.40002441406</ele>
        <time>2019-03-30T13:33:02.000Z</time>
      </trkpt>
      <trkpt lat="43.95414" lon="7.33203">
        <ele>758.79998779297</ele>
        <time>2019-03-30T13:33:05.000Z</time>
      </trkpt>
      <trkpt lat="43.95414" lon="7.33188">
        <ele>759.79998779297</ele>
        <time>2019-03-30T13:33:08.000Z</time>
      </trkpt>
      <trkpt lat="43.95414" lon="7.33168">
        <ele>761</ele>
        <time>2019-03-30T13:33:12.000Z</time>
      </trkpt>
      <trkpt lat="43.95413" lon="7.33151">
        <ele>762</ele>
        <time>2019-03-30T13:33:16.000Z</time>
      </trkpt>
      <trkpt lat="43.95414" lon="7.33144">
        <ele>762.59997558594</ele>
        <time>2019-03-30T13:33:18.000Z</time>
      </trkpt>
      <trkpt lat="43.95414" lon="7.33138">
        <ele>763.40002441406</ele>
        <time>2019-03-30T13:33:20.000Z</time>
      </trkpt>
      <trkpt lat="43.95414" lon="7.33129">
        <ele>764.59997558594</ele>
        <time>2019-03-30T13:33:23.000Z</time>
      </trkpt>
      <trkpt lat="43.95413" lon="7.3312">
        <ele>765.40002441406</ele>
        <time>2019-03-30T13:33:26.000Z</time>
      </trkpt>
      <trkpt lat="43.95412" lon="7.33114">
        <ele>765.79998779297</ele>
        <time>2019-03-30T13:33:28.000Z</time>
      </trkpt>
      <trkpt lat="43.95406" lon="7.33103">
        <ele>766.79998779297</ele>
        <time>2019-03-30T13:33:32.000Z</time>
      </trkpt>
      <trkpt lat="43.95404" lon="7.331">
        <ele>766.79998779297</ele>
        <time>2019-03-30T13:33:33.000Z</time>
      </trkpt>
      <trkpt lat="43.95404" lon="7.33096">
        <ele>766.79998779297</ele>
        <time>2019-03-30T13:33:34.000Z</time>
      </trkpt>
      <trkpt lat="43.95404" lon="7.33088">
        <ele>767</ele>
        <time>2019-03-30T13:33:36.000Z</time>
      </trkpt>
      <trkpt lat="43.95403" lon="7.33074">
        <ele>768</ele>
        <time>2019-03-30T13:33:40.000Z</time>
      </trkpt>
      <trkpt lat="43.95401" lon="7.33066">
        <ele>768.79998779297</ele>
        <time>2019-03-30T13:33:42.000Z</time>
      </trkpt>
      <trkpt lat="43.95401" lon="7.33063">
        <ele>769.20001220703</ele>
        <time>2019-03-30T13:33:43.000Z</time>
      </trkpt>
      <trkpt lat="43.95395" lon="7.33033">
        <ele>770.20001220703</ele>
        <time>2019-03-30T13:33:51.000Z</time>
      </trkpt>
      <trkpt lat="43.95393" lon="7.33025">
        <ele>770.40002441406</ele>
        <time>2019-03-30T13:33:53.000Z</time>
      </trkpt>
      <trkpt lat="43.95383" lon="7.32994">
        <ele>770.20001220703</ele>
        <time>2019-03-30T13:34:00.000Z</time>
      </trkpt>
      <trkpt lat="43.95375" lon="7.32965">
        <ele>770.40002441406</ele>
        <time>2019-03-30T13:34:07.000Z</time>
      </trkpt>
      <trkpt lat="43.95366" lon="7.32952">
        <ele>770.79998779297</ele>
        <time>2019-03-30T13:34:12.000Z</time>
      </trkpt>
      <trkpt lat="43.95362" lon="7.3295">
        <ele>771.59997558594</ele>
        <time>2019-03-30T13:34:14.000Z</time>
      </trkpt>
      <trkpt lat="43.95358" lon="7.32945">
        <ele>772.20001220703</ele>
        <time>2019-03-30T13:34:17.000Z</time>
      </trkpt>
      <trkpt lat="43.95358" lon="7.32943">
        <ele>772.20001220703</ele>
        <time>2019-03-30T13:34:18.000Z</time>
      </trkpt>
      <trkpt lat="43.95362" lon="7.32932">
        <ele>771.59997558594</ele>
        <time>2019-03-30T13:34:22.000Z</time>
      </trkpt>
      <trkpt lat="43.95364" lon="7.32929">
        <ele>771.20001220703</ele>
        <time>2019-03-30T13:34:23.000Z</time>
      </trkpt>
      <trkpt lat="43.95365" lon="7.32923">
        <ele>770.79998779297</ele>
        <time>2019-03-30T13:34:25.000Z</time>
      </trkpt>
      <trkpt lat="43.95364" lon="7.32919">
        <ele>770.20001220703</ele>
        <time>2019-03-30T13:34:26.000Z</time>
      </trkpt>
      <trkpt lat="43.95362" lon="7.32906">
        <ele>769</ele>
        <time>2019-03-30T13:34:29.000Z</time>
      </trkpt>
      <trkpt lat="43.95362" lon="7.32904">
        <ele>768.40002441406</ele>
        <time>2019-03-30T13:34:30.000Z</time>
      </trkpt>
      <trkpt lat="43.95362" lon="7.32903">
        <ele>767.59997558594</ele>
        <time>2019-03-30T13:34:31.000Z</time>
      </trkpt>
      <trkpt lat="43.95364" lon="7.32903">
        <ele>767</ele>
        <time>2019-03-30T13:34:32.000Z</time>
      </trkpt>
      <trkpt lat="43.95366" lon="7.32902">
        <ele>766.40002441406</ele>
        <time>2019-03-30T13:34:33.000Z</time>
      </trkpt>
      <trkpt lat="43.95369" lon="7.32902">
        <ele>766</ele>
        <time>2019-03-30T13:34:34.000Z</time>
      </trkpt>
      <trkpt lat="43.95374" lon="7.32901">
        <ele>765.40002441406</ele>
        <time>2019-03-30T13:34:36.000Z</time>
      </trkpt>
      <trkpt lat="43.9538" lon="7.329">
        <ele>764.79998779297</ele>
        <time>2019-03-30T13:34:38.000Z</time>
      </trkpt>
      <trkpt lat="43.95382" lon="7.329">
        <ele>764.59997558594</ele>
        <time>2019-03-30T13:34:39.000Z</time>
      </trkpt>
      <trkpt lat="43.95382" lon="7.329">
        <ele>764.20001220703</ele>
        <time>2019-03-30T13:34:41.000Z</time>
      </trkpt>
      <trkpt lat="43.95383" lon="7.329">
        <ele>763.79998779297</ele>
        <time>2019-03-30T13:34:44.000Z</time>
      </trkpt>
      <trkpt lat="43.95384" lon="7.329">
        <ele>763.40002441406</ele>
        <time>2019-03-30T13:34:50.000Z</time>
      </trkpt>
      <trkpt lat="43.95384" lon="7.329">
        <ele>763</ele>
        <time>2019-03-30T13:34:53.000Z</time>
      </trkpt>
      <trkpt lat="43.95382" lon="7.329">
        <ele>762.79998779297</ele>
        <time>2019-03-30T13:35:01.000Z</time>
      </trkpt>
      <trkpt lat="43.95381" lon="7.329">
        <ele>763</ele>
        <time>2019-03-30T13:35:03.000Z</time>
      </trkpt>
      <trkpt lat="43.95378" lon="7.329">
        <ele>762.79998779297</ele>
        <time>2019-03-30T13:35:07.000Z</time>
      </trkpt>
      <trkpt lat="43.95375" lon="7.32902">
        <ele>762.79998779297</ele>
        <time>2019-03-30T13:35:10.000Z</time>
      </trkpt>
      <trkpt lat="43.95373" lon="7.32903">
        <ele>763</ele>
        <time>2019-03-30T13:35:11.000Z</time>
      </trkpt>
      <trkpt lat="43.9537" lon="7.32903">
        <ele>763.20001220703</ele>
        <time>2019-03-30T13:35:14.000Z</time>
      </trkpt>
      <trkpt lat="43.95366" lon="7.32904">
        <ele>763.79998779297</ele>
        <time>2019-03-30T13:35:18.000Z</time>
      </trkpt>
      <trkpt lat="43.95365" lon="7.32905">
        <ele>764.20001220703</ele>
        <time>2019-03-30T13:35:20.000Z</time>
      </trkpt>
      <trkpt lat="43.95365" lon="7.32911">
        <ele>764.79998779297</ele>
        <time>2019-03-30T13:35:24.000Z</time>
      </trkpt>
      <trkpt lat="43.95365" lon="7.32912">
        <ele>765.20001220703</ele>
        <time>2019-03-30T13:35:25.000Z</time>
      </trkpt>
      <trkpt lat="43.95365" lon="7.32913">
        <ele>765.59997558594</ele>
        <time>2019-03-30T13:35:26.000Z</time>
      </trkpt>
      <trkpt lat="43.95365" lon="7.32918">
        <ele>766.20001220703</ele>
        <time>2019-03-30T13:35:29.000Z</time>
      </trkpt>
      <trkpt lat="43.95365" lon="7.32919">
        <ele>766.40002441406</ele>
        <time>2019-03-30T13:35:30.000Z</time>
      </trkpt>
      <trkpt lat="43.95364" lon="7.32925">
        <ele>767.20001220703</ele>
        <time>2019-03-30T13:35:33.000Z</time>
      </trkpt>
      <trkpt lat="43.95362" lon="7.32929">
        <ele>768.20001220703</ele>
        <time>2019-03-30T13:35:37.000Z</time>
      </trkpt>
      <trkpt lat="43.95361" lon="7.32931">
        <ele>768.40002441406</ele>
        <time>2019-03-30T13:35:38.000Z</time>
      </trkpt>
      <trkpt lat="43.95359" lon="7.3294">
        <ele>769.59997558594</ele>
        <time>2019-03-30T13:35:45.000Z</time>
      </trkpt>
      <trkpt lat="43.95359" lon="7.32942">
        <ele>769.79998779297</ele>
        <time>2019-03-30T13:35:46.000Z</time>
      </trkpt>
      <trkpt lat="43.95357" lon="7.32945">
        <ele>770.59997558594</ele>
        <time>2019-03-30T13:35:49.000Z</time>
      </trkpt>
      <trkpt lat="43.95354" lon="7.32952">
        <ele>771.59997558594</ele>
        <time>2019-03-30T13:35:55.000Z</time>
      </trkpt>
      <trkpt lat="43.95353" lon="7.32953">
        <ele>771.79998779297</ele>
        <time>2019-03-30T13:35:56.000Z</time>
      </trkpt>
      <trkpt lat="43.95348" lon="7.32963">
        <ele>772.59997558594</ele>
        <time>2019-03-30T13:36:05.000Z</time>
      </trkpt>
      <trkpt lat="43.95348" lon="7.32963">
        <ele>772.59997558594</ele>
        <time>2019-03-30T13:36:06.000Z</time>
      </trkpt>
      <trkpt lat="43.95348" lon="7.32963">
        <ele>772.59997558594</ele>
        <time>2019-03-30T13:36:09.000Z</time>
      </trkpt>
      <trkpt lat="43.95347" lon="7.32962">
        <ele>772.40002441406</ele>
        <time>2019-03-30T13:36:25.000Z</time>
      </trkpt>
      <trkpt lat="43.95347" lon="7.32962">
        <ele>772.59997558594</ele>
        <time>2019-03-30T13:36:38.000Z</time>
      </trkpt>
      <trkpt lat="43.95351" lon="7.32952">
        <ele>772.59997558594</ele>
        <time>2019-03-30T13:36:42.000Z</time>
      </trkpt>
      <trkpt lat="43.95361" lon="7.32928">
        <ele>771.59997558594</ele>
        <time>2019-03-30T13:36:48.000Z</time>
      </trkpt>
      <trkpt lat="43.95362" lon="7.3292">
        <ele>771.20001220703</ele>
        <time>2019-03-30T13:36:50.000Z</time>
      </trkpt>
      <trkpt lat="43.95361" lon="7.32914">
        <ele>770.79998779297</ele>
        <time>2019-03-30T13:36:51.000Z</time>
      </trkpt>
      <trkpt lat="43.9536" lon="7.3291">
        <ele>770.20001220703</ele>
        <time>2019-03-30T13:36:52.000Z</time>
      </trkpt>
      <trkpt lat="43.9536" lon="7.32903">
        <ele>768.40002441406</ele>
        <time>2019-03-30T13:36:54.000Z</time>
      </trkpt>
      <trkpt lat="43.95361" lon="7.32902">
        <ele>767.40002441406</ele>
        <time>2019-03-30T13:36:55.000Z</time>
      </trkpt>
      <trkpt lat="43.95363" lon="7.32901">
        <ele>766.79998779297</ele>
        <time>2019-03-30T13:36:56.000Z</time>
      </trkpt>
      <trkpt lat="43.95371" lon="7.329">
        <ele>765.59997558594</ele>
        <time>2019-03-30T13:36:58.000Z</time>
      </trkpt>
      <trkpt lat="43.95381" lon="7.32898">
        <ele>764.20001220703</ele>
        <time>2019-03-30T13:37:01.000Z</time>
      </trkpt>
      <trkpt lat="43.95383" lon="7.32898">
        <ele>763.79998779297</ele>
        <time>2019-03-30T13:37:02.000Z</time>
      </trkpt>
      <trkpt lat="43.95388" lon="7.32899">
        <ele>763.40002441406</ele>
        <time>2019-03-30T13:37:04.000Z</time>
      </trkpt>
      <trkpt lat="43.9539" lon="7.32898">
        <ele>763</ele>
        <time>2019-03-30T13:37:05.000Z</time>
      </trkpt>
      <trkpt lat="43.9539" lon="7.32897">
        <ele>762.59997558594</ele>
        <time>2019-03-30T13:37:06.000Z</time>
      </trkpt>
      <trkpt lat="43.95389" lon="7.32891">
        <ele>761.59997558594</ele>
        <time>2019-03-30T13:37:09.000Z</time>
      </trkpt>
      <trkpt lat="43.95389" lon="7.3289">
        <ele>761.20001220703</ele>
        <time>2019-03-30T13:37:10.000Z</time>
      </trkpt>
      <trkpt lat="43.95385" lon="7.32887">
        <ele>760.20001220703</ele>
        <time>2019-03-30T13:37:12.000Z</time>
      </trkpt>
      <trkpt lat="43.95379" lon="7.32883">
        <ele>759.40002441406</ele>
        <time>2019-03-30T13:37:14.000Z</time>
      </trkpt>
      <trkpt lat="43.95376" lon="7.32881">
        <ele>759</ele>
        <time>2019-03-30T13:37:15.000Z</time>
      </trkpt>
      <trkpt lat="43.95367" lon="7.32873">
        <ele>758</ele>
        <time>2019-03-30T13:37:18.000Z</time>
      </trkpt>
      <trkpt lat="43.95363" lon="7.32872">
        <ele>757.59997558594</ele>
        <time>2019-03-30T13:37:19.000Z</time>
      </trkpt>
      <trkpt lat="43.9536" lon="7.32872">
        <ele>757</ele>
        <time>2019-03-30T13:37:20.000Z</time>
      </trkpt>
      <trkpt lat="43.9535" lon="7.32875">
        <ele>755.79998779297</ele>
        <time>2019-03-30T13:37:23.000Z</time>
      </trkpt>
      <trkpt lat="43.9534" lon="7.32875">
        <ele>755.40002441406</ele>
        <time>2019-03-30T13:37:27.000Z</time>
      </trkpt>
      <trkpt lat="43.95325" lon="7.32876">
        <ele>755.59997558594</ele>
        <time>2019-03-30T13:37:32.000Z</time>
      </trkpt>
      <trkpt lat="43.95301" lon="7.32884">
        <ele>755</ele>
        <time>2019-03-30T13:37:38.000Z</time>
      </trkpt>
      <trkpt lat="43.95286" lon="7.32888">
        <ele>754.79998779297</ele>
        <time>2019-03-30T13:37:44.000Z</time>
      </trkpt>
      <trkpt lat="43.95279" lon="7.3289">
        <ele>754.59997558594</ele>
        <time>2019-03-30T13:37:47.000Z</time>
      </trkpt>
      <trkpt lat="43.95274" lon="7.32891">
        <ele>754.59997558594</ele>
        <time>2019-03-30T13:37:50.000Z</time>
      </trkpt>
      <trkpt lat="43.9527" lon="7.32892">
        <ele>755.79998779297</ele>
        <time>2019-03-30T13:37:53.000Z</time>
      </trkpt>
      <trkpt lat="43.95264" lon="7.32896">
        <ele>756.79998779297</ele>
        <time>2019-03-30T13:37:56.000Z</time>
      </trkpt>
      <trkpt lat="43.95262" lon="7.32897">
        <ele>756.79998779297</ele>
        <time>2019-03-30T13:37:57.000Z</time>
      </trkpt>
      <trkpt lat="43.95256" lon="7.32903">
        <ele>757.79998779297</ele>
        <time>2019-03-30T13:38:02.000Z</time>
      </trkpt>
      <trkpt lat="43.95255" lon="7.32904">
        <ele>758.20001220703</ele>
        <time>2019-03-30T13:38:03.000Z</time>
      </trkpt>
      <trkpt lat="43.95255" lon="7.32904">
        <ele>759.40002441406</ele>
        <time>2019-03-30T13:38:06.000Z</time>
      </trkpt>
      <trkpt lat="43.95253" lon="7.32906">
        <ele>759.59997558594</ele>
        <time>2019-03-30T13:38:13.000Z</time>
      </trkpt>
      <trkpt lat="43.95256" lon="7.32906">
        <ele>760.20001220703</ele>
        <time>2019-03-30T13:38:19.000Z</time>
      </trkpt>
      <trkpt lat="43.95256" lon="7.32906">
        <ele>760.40002441406</ele>
        <time>2019-03-30T13:38:20.000Z</time>
      </trkpt>
      <trkpt lat="43.95257" lon="7.32909">
        <ele>761.59997558594</ele>
        <time>2019-03-30T13:38:24.000Z</time>
      </trkpt>
      <trkpt lat="43.95257" lon="7.3291">
        <ele>762</ele>
        <time>2019-03-30T13:38:26.000Z</time>
      </trkpt>
      <trkpt lat="43.95256" lon="7.32913">
        <ele>762.59997558594</ele>
        <time>2019-03-30T13:38:30.000Z</time>
      </trkpt>
      <trkpt lat="43.95254" lon="7.32913">
        <ele>763</ele>
        <time>2019-03-30T13:38:33.000Z</time>
      </trkpt>
      <trkpt lat="43.95252" lon="7.32916">
        <ele>763.59997558594</ele>
        <time>2019-03-30T13:38:38.000Z</time>
      </trkpt>
      <trkpt lat="43.95251" lon="7.32917">
        <ele>764.20001220703</ele>
        <time>2019-03-30T13:38:40.000Z</time>
      </trkpt>
      <trkpt lat="43.95249" lon="7.32917">
        <ele>764.79998779297</ele>
        <time>2019-03-30T13:38:42.000Z</time>
      </trkpt>
      <trkpt lat="43.95245" lon="7.32919">
        <ele>765.79998779297</ele>
        <time>2019-03-30T13:38:47.000Z</time>
      </trkpt>
      <trkpt lat="43.95244" lon="7.32919">
        <ele>766</ele>
        <time>2019-03-30T13:38:48.000Z</time>
      </trkpt>
      <trkpt lat="43.9524" lon="7.3292">
        <ele>767</ele>
        <time>2019-03-30T13:38:53.000Z</time>
      </trkpt>
      <trkpt lat="43.95238" lon="7.32921">
        <ele>767.20001220703</ele>
        <time>2019-03-30T13:38:55.000Z</time>
      </trkpt>
      <trkpt lat="43.95235" lon="7.32923">
        <ele>768.20001220703</ele>
        <time>2019-03-30T13:38:59.000Z</time>
      </trkpt>
      <trkpt lat="43.95232" lon="7.32924">
        <ele>769.20001220703</ele>
        <time>2019-03-30T13:39:03.000Z</time>
      </trkpt>
      <trkpt lat="43.95231" lon="7.32925">
        <ele>769.40002441406</ele>
        <time>2019-03-30T13:39:04.000Z</time>
      </trkpt>
      <trkpt lat="43.95228" lon="7.32927">
        <ele>770.59997558594</ele>
        <time>2019-03-30T13:39:10.000Z</time>
      </trkpt>
      <trkpt lat="43.95228" lon="7.32928">
        <ele>771</ele>
        <time>2019-03-30T13:39:13.000Z</time>
      </trkpt>
      <trkpt lat="43.95228" lon="7.32927">
        <ele>771.79998779297</ele>
        <time>2019-03-30T13:39:17.000Z</time>
      </trkpt>
      <trkpt lat="43.95226" lon="7.3293">
        <ele>772.20001220703</ele>
        <time>2019-03-30T13:39:22.000Z</time>
      </trkpt>
      <trkpt lat="43.95225" lon="7.32932">
        <ele>773</ele>
        <time>2019-03-30T13:39:26.000Z</time>
      </trkpt>
      <trkpt lat="43.95223" lon="7.32934">
        <ele>773.20001220703</ele>
        <time>2019-03-30T13:39:29.000Z</time>
      </trkpt>
      <trkpt lat="43.95216" lon="7.32943">
        <ele>773</ele>
        <time>2019-03-30T13:39:37.000Z</time>
      </trkpt>
      <trkpt lat="43.95214" lon="7.32952">
        <ele>774</ele>
        <time>2019-03-30T13:39:44.000Z</time>
      </trkpt>
      <trkpt lat="43.95213" lon="7.32953">
        <ele>774.20001220703</ele>
        <time>2019-03-30T13:39:45.000Z</time>
      </trkpt>
      <trkpt lat="43.95212" lon="7.32954">
        <ele>775.40002441406</ele>
        <time>2019-03-30T13:39:51.000Z</time>
      </trkpt>
      <trkpt lat="43.95212" lon="7.32954">
        <ele>775.59997558594</ele>
        <time>2019-03-30T13:39:52.000Z</time>
      </trkpt>
      <trkpt lat="43.95208" lon="7.32958">
        <ele>776.40002441406</ele>
        <time>2019-03-30T13:40:01.000Z</time>
      </trkpt>
      <trkpt lat="43.95203" lon="7.32961">
        <ele>777.20001220703</ele>
        <time>2019-03-30T13:40:09.000Z</time>
      </trkpt>
      <trkpt lat="43.95203" lon="7.32962">
        <ele>777.40002441406</ele>
        <time>2019-03-30T13:40:10.000Z</time>
      </trkpt>
      <trkpt lat="43.95198" lon="7.32965">
        <ele>778.79998779297</ele>
        <time>2019-03-30T13:40:15.000Z</time>
      </trkpt>
      <trkpt lat="43.95197" lon="7.32966">
        <ele>779</ele>
        <time>2019-03-30T13:40:17.000Z</time>
      </trkpt>
      <trkpt lat="43.95195" lon="7.32969">
        <ele>779.79998779297</ele>
        <time>2019-03-30T13:40:21.000Z</time>
      </trkpt>
      <trkpt lat="43.95191" lon="7.32971">
        <ele>780.20001220703</ele>
        <time>2019-03-30T13:40:25.000Z</time>
      </trkpt>
      <trkpt lat="43.95188" lon="7.32973">
        <ele>781</ele>
        <time>2019-03-30T13:40:30.000Z</time>
      </trkpt>
      <trkpt lat="43.95185" lon="7.32975">
        <ele>781.59997558594</ele>
        <time>2019-03-30T13:40:33.000Z</time>
      </trkpt>
      <trkpt lat="43.95182" lon="7.32977">
        <ele>782</ele>
        <time>2019-03-30T13:40:38.000Z</time>
      </trkpt>
      <trkpt lat="43.9518" lon="7.32978">
        <ele>782.40002441406</ele>
        <time>2019-03-30T13:40:40.000Z</time>
      </trkpt>
      <trkpt lat="43.95178" lon="7.32979">
        <ele>783.20001220703</ele>
        <time>2019-03-30T13:40:43.000Z</time>
      </trkpt>
      <trkpt lat="43.95175" lon="7.32981">
        <ele>784.40002441406</ele>
        <time>2019-03-30T13:40:48.000Z</time>
      </trkpt>
      <trkpt lat="43.95175" lon="7.32981">
        <ele>784.59997558594</ele>
        <time>2019-03-30T13:40:49.000Z</time>
      </trkpt>
      <trkpt lat="43.95174" lon="7.32981">
        <ele>785.20001220703</ele>
        <time>2019-03-30T13:40:56.000Z</time>
      </trkpt>
      <trkpt lat="43.95172" lon="7.32981">
        <ele>785.40002441406</ele>
        <time>2019-03-30T13:41:01.000Z</time>
      </trkpt>
      <trkpt lat="43.95169" lon="7.32982">
        <ele>785.20001220703</ele>
        <time>2019-03-30T13:41:06.000Z</time>
      </trkpt>
      <trkpt lat="43.95168" lon="7.32983">
        <ele>785.59997558594</ele>
        <time>2019-03-30T13:41:08.000Z</time>
      </trkpt>
      <trkpt lat="43.95166" lon="7.32983">
        <ele>786.20001220703</ele>
        <time>2019-03-30T13:41:12.000Z</time>
      </trkpt>
      <trkpt lat="43.95165" lon="7.32984">
        <ele>786.79998779297</ele>
        <time>2019-03-30T13:41:16.000Z</time>
      </trkpt>
      <trkpt lat="43.95164" lon="7.32985">
        <ele>787</ele>
        <time>2019-03-30T13:41:18.000Z</time>
      </trkpt>
      <trkpt lat="43.95162" lon="7.32986">
        <ele>787.79998779297</ele>
        <time>2019-03-30T13:41:23.000Z</time>
      </trkpt>
      <trkpt lat="43.95161" lon="7.32986">
        <ele>788</ele>
        <time>2019-03-30T13:41:25.000Z</time>
      </trkpt>
      <trkpt lat="43.95159" lon="7.32987">
        <ele>789</ele>
        <time>2019-03-30T13:41:29.000Z</time>
      </trkpt>
      <trkpt lat="43.95159" lon="7.32987">
        <ele>789.40002441406</ele>
        <time>2019-03-30T13:41:31.000Z</time>
      </trkpt>
      <trkpt lat="43.95155" lon="7.32989">
        <ele>789.79998779297</ele>
        <time>2019-03-30T13:41:37.000Z</time>
      </trkpt>
      <trkpt lat="43.95153" lon="7.32989">
        <ele>790</ele>
        <time>2019-03-30T13:41:38.000Z</time>
      </trkpt>
      <trkpt lat="43.95151" lon="7.32989">
        <ele>791.20001220703</ele>
        <time>2019-03-30T13:41:41.000Z</time>
      </trkpt>
      <trkpt lat="43.95149" lon="7.32989">
        <ele>792.20001220703</ele>
        <time>2019-03-30T13:41:46.000Z</time>
      </trkpt>
      <trkpt lat="43.95149" lon="7.3299">
        <ele>792.20001220703</ele>
        <time>2019-03-30T13:41:47.000Z</time>
      </trkpt>
      <trkpt lat="43.95147" lon="7.3299">
        <ele>793</ele>
        <time>2019-03-30T13:41:52.000Z</time>
      </trkpt>
      <trkpt lat="43.95145" lon="7.3299">
        <ele>793.20001220703</ele>
        <time>2019-03-30T13:41:55.000Z</time>
      </trkpt>
      <trkpt lat="43.95144" lon="7.3299">
        <ele>794.20001220703</ele>
        <time>2019-03-30T13:41:59.000Z</time>
      </trkpt>
      <trkpt lat="43.95142" lon="7.32991">
        <ele>795.40002441406</ele>
        <time>2019-03-30T13:42:04.000Z</time>
      </trkpt>
      <trkpt lat="43.95142" lon="7.32991">
        <ele>795.40002441406</ele>
        <time>2019-03-30T13:42:05.000Z</time>
      </trkpt>
      <trkpt lat="43.95146" lon="7.3299">
        <ele>796.40002441406</ele>
        <time>2019-03-30T13:42:11.000Z</time>
      </trkpt>
      <trkpt lat="43.95152" lon="7.32991">
        <ele>797.20001220703</ele>
        <time>2019-03-30T13:42:17.000Z</time>
      </trkpt>
      <trkpt lat="43.95154" lon="7.32991">
        <ele>797.59997558594</ele>
        <time>2019-03-30T13:42:19.000Z</time>
      </trkpt>
      <trkpt lat="43.95157" lon="7.32992">
        <ele>798.20001220703</ele>
        <time>2019-03-30T13:42:23.000Z</time>
      </trkpt>
      <trkpt lat="43.95158" lon="7.32992">
        <ele>798.59997558594</ele>
        <time>2019-03-30T13:42:24.000Z</time>
      </trkpt>
      <trkpt lat="43.95164" lon="7.32996">
        <ele>799.59997558594</ele>
        <time>2019-03-30T13:42:32.000Z</time>
      </trkpt>
      <trkpt lat="43.95171" lon="7.32998">
        <ele>800.79998779297</ele>
        <time>2019-03-30T13:42:40.000Z</time>
      </trkpt>
      <trkpt lat="43.95172" lon="7.32998">
        <ele>801</ele>
        <time>2019-03-30T13:42:41.000Z</time>
      </trkpt>
      <trkpt lat="43.95175" lon="7.33001">
        <ele>801.59997558594</ele>
        <time>2019-03-30T13:42:46.000Z</time>
      </trkpt>
      <trkpt lat="43.95174" lon="7.33003">
        <ele>801.59997558594</ele>
        <time>2019-03-30T13:42:48.000Z</time>
      </trkpt>
      <trkpt lat="43.95174" lon="7.33003">
        <ele>801.79998779297</ele>
        <time>2019-03-30T13:42:49.000Z</time>
      </trkpt>
      <trkpt lat="43.95172" lon="7.33003">
        <ele>802.79998779297</ele>
        <time>2019-03-30T13:42:53.000Z</time>
      </trkpt>
      <trkpt lat="43.95172" lon="7.33003">
        <ele>803</ele>
        <time>2019-03-30T13:42:54.000Z</time>
      </trkpt>
      <trkpt lat="43.9517" lon="7.33005">
        <ele>803.20001220703</ele>
        <time>2019-03-30T13:42:59.000Z</time>
      </trkpt>
      <trkpt lat="43.95168" lon="7.33007">
        <ele>803.20001220703</ele>
        <time>2019-03-30T13:43:04.000Z</time>
      </trkpt>
      <trkpt lat="43.95166" lon="7.33008">
        <ele>804.20001220703</ele>
        <time>2019-03-30T13:43:09.000Z</time>
      </trkpt>
      <trkpt lat="43.95165" lon="7.33009">
        <ele>804.20001220703</ele>
        <time>2019-03-30T13:43:10.000Z</time>
      </trkpt>
      <trkpt lat="43.95162" lon="7.3301">
        <ele>805.20001220703</ele>
        <time>2019-03-30T13:43:16.000Z</time>
      </trkpt>
      <trkpt lat="43.95162" lon="7.3301">
        <ele>805.20001220703</ele>
        <time>2019-03-30T13:43:17.000Z</time>
      </trkpt>
      <trkpt lat="43.95159" lon="7.33012">
        <ele>806</ele>
        <time>2019-03-30T13:43:23.000Z</time>
      </trkpt>
      <trkpt lat="43.95158" lon="7.33012">
        <ele>806.20001220703</ele>
        <time>2019-03-30T13:43:25.000Z</time>
      </trkpt>
      <trkpt lat="43.95157" lon="7.33013">
        <ele>807</ele>
        <time>2019-03-30T13:43:28.000Z</time>
      </trkpt>
      <trkpt lat="43.95156" lon="7.33013">
        <ele>807.40002441406</ele>
        <time>2019-03-30T13:43:30.000Z</time>
      </trkpt>
      <trkpt lat="43.95154" lon="7.33014">
        <ele>807.79998779297</ele>
        <time>2019-03-30T13:43:34.000Z</time>
      </trkpt>
      <trkpt lat="43.95151" lon="7.33015">
        <ele>808.40002441406</ele>
        <time>2019-03-30T13:43:39.000Z</time>
      </trkpt>
      <trkpt lat="43.9515" lon="7.33016">
        <ele>808.59997558594</ele>
        <time>2019-03-30T13:43:41.000Z</time>
      </trkpt>
      <trkpt lat="43.95146" lon="7.33017">
        <ele>809.40002441406</ele>
        <time>2019-03-30T13:43:47.000Z</time>
      </trkpt>
      <trkpt lat="43.95147" lon="7.33017">
        <ele>809.59997558594</ele>
        <time>2019-03-30T13:43:48.000Z</time>
      </trkpt>
      <trkpt lat="43.95144" lon="7.3302">
        <ele>810.40002441406</ele>
        <time>2019-03-30T13:43:53.000Z</time>
      </trkpt>
      <trkpt lat="43.95144" lon="7.3302">
        <ele>810.40002441406</ele>
        <time>2019-03-30T13:43:54.000Z</time>
      </trkpt>
      <trkpt lat="43.95143" lon="7.33021">
        <ele>810.79998779297</ele>
        <time>2019-03-30T13:43:58.000Z</time>
      </trkpt>
      <trkpt lat="43.95142" lon="7.33024">
        <ele>811.59997558594</ele>
        <time>2019-03-30T13:44:02.000Z</time>
      </trkpt>
      <trkpt lat="43.95141" lon="7.33024">
        <ele>811.79998779297</ele>
        <time>2019-03-30T13:44:03.000Z</time>
      </trkpt>
      <trkpt lat="43.9514" lon="7.33027">
        <ele>812.59997558594</ele>
        <time>2019-03-30T13:44:08.000Z</time>
      </trkpt>
      <trkpt lat="43.95139" lon="7.33028">
        <ele>812.79998779297</ele>
        <time>2019-03-30T13:44:09.000Z</time>
      </trkpt>
      <trkpt lat="43.95138" lon="7.33031">
        <ele>813.79998779297</ele>
        <time>2019-03-30T13:44:14.000Z</time>
      </trkpt>
      <trkpt lat="43.95137" lon="7.33031">
        <ele>813.79998779297</ele>
        <time>2019-03-30T13:44:15.000Z</time>
      </trkpt>
      <trkpt lat="43.95138" lon="7.33033">
        <ele>815</ele>
        <time>2019-03-30T13:44:21.000Z</time>
      </trkpt>
      <trkpt lat="43.95143" lon="7.33031">
        <ele>816</ele>
        <time>2019-03-30T13:44:27.000Z</time>
      </trkpt>
      <trkpt lat="43.95146" lon="7.33029">
        <ele>816.59997558594</ele>
        <time>2019-03-30T13:44:32.000Z</time>
      </trkpt>
      <trkpt lat="43.95149" lon="7.33028">
        <ele>817</ele>
        <time>2019-03-30T13:44:36.000Z</time>
      </trkpt>
      <trkpt lat="43.9515" lon="7.33028">
        <ele>817.40002441406</ele>
        <time>2019-03-30T13:44:38.000Z</time>
      </trkpt>
      <trkpt lat="43.95153" lon="7.33028">
        <ele>818</ele>
        <time>2019-03-30T13:44:43.000Z</time>
      </trkpt>
      <trkpt lat="43.95154" lon="7.33028">
        <ele>818.20001220703</ele>
        <time>2019-03-30T13:44:44.000Z</time>
      </trkpt>
      <trkpt lat="43.95157" lon="7.3303">
        <ele>819</ele>
        <time>2019-03-30T13:44:50.000Z</time>
      </trkpt>
      <trkpt lat="43.95158" lon="7.3303">
        <ele>819.20001220703</ele>
        <time>2019-03-30T13:44:52.000Z</time>
      </trkpt>
      <trkpt lat="43.95161" lon="7.33032">
        <ele>819.79998779297</ele>
        <time>2019-03-30T13:44:57.000Z</time>
      </trkpt>
      <trkpt lat="43.95164" lon="7.33032">
        <ele>820.40002441406</ele>
        <time>2019-03-30T13:45:00.000Z</time>
      </trkpt>
      <trkpt lat="43.95167" lon="7.33033">
        <ele>820.79998779297</ele>
        <time>2019-03-30T13:45:04.000Z</time>
      </trkpt>
      <trkpt lat="43.95167" lon="7.33037">
        <ele>821.40002441406</ele>
        <time>2019-03-30T13:45:10.000Z</time>
      </trkpt>
      <trkpt lat="43.95166" lon="7.33038">
        <ele>821.40002441406</ele>
        <time>2019-03-30T13:45:11.000Z</time>
      </trkpt>
      <trkpt lat="43.95162" lon="7.33039">
        <ele>822.40002441406</ele>
        <time>2019-03-30T13:45:17.000Z</time>
      </trkpt>
      <trkpt lat="43.95159" lon="7.33041">
        <ele>823.40002441406</ele>
        <time>2019-03-30T13:45:23.000Z</time>
      </trkpt>
      <trkpt lat="43.95159" lon="7.33041">
        <ele>823.59997558594</ele>
        <time>2019-03-30T13:45:24.000Z</time>
      </trkpt>
      <trkpt lat="43.95156" lon="7.33043">
        <ele>824.59997558594</ele>
        <time>2019-03-30T13:45:29.000Z</time>
      </trkpt>
      <trkpt lat="43.95156" lon="7.33043">
        <ele>824.79998779297</ele>
        <time>2019-03-30T13:45:30.000Z</time>
      </trkpt>
      <trkpt lat="43.95152" lon="7.33046">
        <ele>826</ele>
        <time>2019-03-30T13:45:36.000Z</time>
      </trkpt>
      <trkpt lat="43.95148" lon="7.3305">
        <ele>826.59997558594</ele>
        <time>2019-03-30T13:45:42.000Z</time>
      </trkpt>
      <trkpt lat="43.95148" lon="7.33052">
        <ele>827</ele>
        <time>2019-03-30T13:45:44.000Z</time>
      </trkpt>
      <trkpt lat="43.95147" lon="7.33053">
        <ele>827.20001220703</ele>
        <time>2019-03-30T13:45:45.000Z</time>
      </trkpt>
      <trkpt lat="43.95144" lon="7.33056">
        <ele>827.79998779297</ele>
        <time>2019-03-30T13:45:50.000Z</time>
      </trkpt>
      <trkpt lat="43.95143" lon="7.33057">
        <ele>828</ele>
        <time>2019-03-30T13:45:51.000Z</time>
      </trkpt>
      <trkpt lat="43.9514" lon="7.33061">
        <ele>829.20001220703</ele>
        <time>2019-03-30T13:45:57.000Z</time>
      </trkpt>
      <trkpt lat="43.95139" lon="7.33062">
        <ele>829.20001220703</ele>
        <time>2019-03-30T13:45:58.000Z</time>
      </trkpt>
      <trkpt lat="43.95136" lon="7.33062">
        <ele>830.20001220703</ele>
        <time>2019-03-30T13:46:03.000Z</time>
      </trkpt>
      <trkpt lat="43.95136" lon="7.33062">
        <ele>830.40002441406</ele>
        <time>2019-03-30T13:46:05.000Z</time>
      </trkpt>
      <trkpt lat="43.95132" lon="7.3306">
        <ele>831</ele>
        <time>2019-03-30T13:46:11.000Z</time>
      </trkpt>
      <trkpt lat="43.95131" lon="7.3306">
        <ele>831.20001220703</ele>
        <time>2019-03-30T13:46:13.000Z</time>
      </trkpt>
      <trkpt lat="43.95129" lon="7.3306">
        <ele>831.59997558594</ele>
        <time>2019-03-30T13:46:16.000Z</time>
      </trkpt>
      <trkpt lat="43.95127" lon="7.3306">
        <ele>832.40002441406</ele>
        <time>2019-03-30T13:46:22.000Z</time>
      </trkpt>
      <trkpt lat="43.95126" lon="7.3306">
        <ele>832.59997558594</ele>
        <time>2019-03-30T13:46:23.000Z</time>
      </trkpt>
      <trkpt lat="43.95124" lon="7.33061">
        <ele>833.59997558594</ele>
        <time>2019-03-30T13:46:27.000Z</time>
      </trkpt>
      <trkpt lat="43.95123" lon="7.33061">
        <ele>833.79998779297</ele>
        <time>2019-03-30T13:46:30.000Z</time>
      </trkpt>
      <trkpt lat="43.95119" lon="7.33063">
        <ele>834.59997558594</ele>
        <time>2019-03-30T13:46:37.000Z</time>
      </trkpt>
      <trkpt lat="43.95116" lon="7.33065">
        <ele>835.40002441406</ele>
        <time>2019-03-30T13:46:44.000Z</time>
      </trkpt>
      <trkpt lat="43.95116" lon="7.33067">
        <ele>835.79998779297</ele>
        <time>2019-03-30T13:46:46.000Z</time>
      </trkpt>
      <trkpt lat="43.95119" lon="7.3307">
        <ele>836.59997558594</ele>
        <time>2019-03-30T13:46:51.000Z</time>
      </trkpt>
      <trkpt lat="43.9512" lon="7.3307">
        <ele>836.79998779297</ele>
        <time>2019-03-30T13:46:53.000Z</time>
      </trkpt>
      <trkpt lat="43.95122" lon="7.3307">
        <ele>837.40002441406</ele>
        <time>2019-03-30T13:46:57.000Z</time>
      </trkpt>
      <trkpt lat="43.95124" lon="7.33071">
        <ele>837.79998779297</ele>
        <time>2019-03-30T13:47:00.000Z</time>
      </trkpt>
      <trkpt lat="43.95127" lon="7.33072">
        <ele>838.40002441406</ele>
        <time>2019-03-30T13:47:03.000Z</time>
      </trkpt>
      <trkpt lat="43.95126" lon="7.33072">
        <ele>838.40002441406</ele>
        <time>2019-03-30T13:47:04.000Z</time>
      </trkpt>
      <trkpt lat="43.95128" lon="7.33075">
        <ele>838.79998779297</ele>
        <time>2019-03-30T13:47:08.000Z</time>
      </trkpt>
      <trkpt lat="43.95127" lon="7.33076">
        <ele>839</ele>
        <time>2019-03-30T13:47:10.000Z</time>
      </trkpt>
      <trkpt lat="43.95125" lon="7.33076">
        <ele>840</ele>
        <time>2019-03-30T13:47:16.000Z</time>
      </trkpt>
      <trkpt lat="43.95122" lon="7.33075">
        <ele>841</ele>
        <time>2019-03-30T13:47:21.000Z</time>
      </trkpt>
      <trkpt lat="43.95122" lon="7.33075">
        <ele>841.20001220703</ele>
        <time>2019-03-30T13:47:22.000Z</time>
      </trkpt>
      <trkpt lat="43.95119" lon="7.33077">
        <ele>842</ele>
        <time>2019-03-30T13:47:28.000Z</time>
      </trkpt>
      <trkpt lat="43.95119" lon="7.33077">
        <ele>842.20001220703</ele>
        <time>2019-03-30T13:47:29.000Z</time>
      </trkpt>
      <trkpt lat="43.95115" lon="7.33075">
        <ele>843</ele>
        <time>2019-03-30T13:47:35.000Z</time>
      </trkpt>
      <trkpt lat="43.95115" lon="7.33074">
        <ele>843.20001220703</ele>
        <time>2019-03-30T13:47:36.000Z</time>
      </trkpt>
      <trkpt lat="43.95112" lon="7.33071">
        <ele>843.59997558594</ele>
        <time>2019-03-30T13:47:42.000Z</time>
      </trkpt>
      <trkpt lat="43.95108" lon="7.3307">
        <ele>844</ele>
        <time>2019-03-30T13:47:48.000Z</time>
      </trkpt>
      <trkpt lat="43.95108" lon="7.3307">
        <ele>844.20001220703</ele>
        <time>2019-03-30T13:47:49.000Z</time>
      </trkpt>
      <trkpt lat="43.95105" lon="7.33069">
        <ele>844.79998779297</ele>
        <time>2019-03-30T13:47:55.000Z</time>
      </trkpt>
      <trkpt lat="43.95104" lon="7.3307">
        <ele>845.20001220703</ele>
        <time>2019-03-30T13:47:58.000Z</time>
      </trkpt>
      <trkpt lat="43.95102" lon="7.33068">
        <ele>845.40002441406</ele>
        <time>2019-03-30T13:48:00.000Z</time>
      </trkpt>
      <trkpt lat="43.95099" lon="7.33069">
        <ele>846.20001220703</ele>
        <time>2019-03-30T13:48:07.000Z</time>
      </trkpt>
      <trkpt lat="43.95099" lon="7.33069">
        <ele>846.40002441406</ele>
        <time>2019-03-30T13:48:08.000Z</time>
      </trkpt>
      <trkpt lat="43.95096" lon="7.3307">
        <ele>847.20001220703</ele>
        <time>2019-03-30T13:48:13.000Z</time>
      </trkpt>
      <trkpt lat="43.95095" lon="7.3307">
        <ele>847.59997558594</ele>
        <time>2019-03-30T13:48:15.000Z</time>
      </trkpt>
      <trkpt lat="43.95093" lon="7.3307">
        <ele>848.20001220703</ele>
        <time>2019-03-30T13:48:18.000Z</time>
      </trkpt>
      <trkpt lat="43.95094" lon="7.33072">
        <ele>848.79998779297</ele>
        <time>2019-03-30T13:48:20.000Z</time>
      </trkpt>
      <trkpt lat="43.95093" lon="7.33072">
        <ele>849</ele>
        <time>2019-03-30T13:48:21.000Z</time>
      </trkpt>
      <trkpt lat="43.95093" lon="7.33073">
        <ele>849.20001220703</ele>
        <time>2019-03-30T13:48:22.000Z</time>
      </trkpt>
      <trkpt lat="43.95091" lon="7.33072">
        <ele>849.40002441406</ele>
        <time>2019-03-30T13:48:24.000Z</time>
      </trkpt>
      <trkpt lat="43.9509" lon="7.33072">
        <ele>849.59997558594</ele>
        <time>2019-03-30T13:48:26.000Z</time>
      </trkpt>
      <trkpt lat="43.95087" lon="7.33069">
        <ele>850.20001220703</ele>
        <time>2019-03-30T13:48:32.000Z</time>
      </trkpt>
      <trkpt lat="43.95085" lon="7.33067">
        <ele>850.40002441406</ele>
        <time>2019-03-30T13:48:34.000Z</time>
      </trkpt>
      <trkpt lat="43.95083" lon="7.33065">
        <ele>851.40002441406</ele>
        <time>2019-03-30T13:48:39.000Z</time>
      </trkpt>
      <trkpt lat="43.95083" lon="7.33064">
        <ele>851.59997558594</ele>
        <time>2019-03-30T13:48:40.000Z</time>
      </trkpt>
      <trkpt lat="43.95081" lon="7.33063">
        <ele>852</ele>
        <time>2019-03-30T13:48:43.000Z</time>
      </trkpt>
      <trkpt lat="43.9508" lon="7.33063">
        <ele>852.20001220703</ele>
        <time>2019-03-30T13:48:45.000Z</time>
      </trkpt>
      <trkpt lat="43.95079" lon="7.33061">
        <ele>852.59997558594</ele>
        <time>2019-03-30T13:48:47.000Z</time>
      </trkpt>
      <trkpt lat="43.95076" lon="7.33059">
        <ele>853.59997558594</ele>
        <time>2019-03-30T13:48:52.000Z</time>
      </trkpt>
      <trkpt lat="43.95072" lon="7.33058">
        <ele>854.40002441406</ele>
        <time>2019-03-30T13:48:58.000Z</time>
      </trkpt>
      <trkpt lat="43.95072" lon="7.33058">
        <ele>854.59997558594</ele>
        <time>2019-03-30T13:48:59.000Z</time>
      </trkpt>
      <trkpt lat="43.95068" lon="7.33057">
        <ele>855.59997558594</ele>
        <time>2019-03-30T13:49:05.000Z</time>
      </trkpt>
      <trkpt lat="43.95068" lon="7.33057">
        <ele>855.79998779297</ele>
        <time>2019-03-30T13:49:06.000Z</time>
      </trkpt>
      <trkpt lat="43.95065" lon="7.33055">
        <ele>856.40002441406</ele>
        <time>2019-03-30T13:49:11.000Z</time>
      </trkpt>
      <trkpt lat="43.95063" lon="7.33054">
        <ele>857</ele>
        <time>2019-03-30T13:49:14.000Z</time>
      </trkpt>
      <trkpt lat="43.9506" lon="7.33053">
        <ele>857.40002441406</ele>
        <time>2019-03-30T13:49:18.000Z</time>
      </trkpt>
      <trkpt lat="43.95058" lon="7.33051">
        <ele>858.20001220703</ele>
        <time>2019-03-30T13:49:22.000Z</time>
      </trkpt>
      <trkpt lat="43.95056" lon="7.33049">
        <ele>859</ele>
        <time>2019-03-30T13:49:25.000Z</time>
      </trkpt>
      <trkpt lat="43.95055" lon="7.33049">
        <ele>859.40002441406</ele>
        <time>2019-03-30T13:49:26.000Z</time>
      </trkpt>
      <trkpt lat="43.95052" lon="7.33048">
        <ele>859.79998779297</ele>
        <time>2019-03-30T13:49:32.000Z</time>
      </trkpt>
      <trkpt lat="43.95049" lon="7.33047">
        <ele>860.40002441406</ele>
        <time>2019-03-30T13:49:36.000Z</time>
      </trkpt>
      <trkpt lat="43.95046" lon="7.33047">
        <ele>861</ele>
        <time>2019-03-30T13:49:39.000Z</time>
      </trkpt>
      <trkpt lat="43.95045" lon="7.33047">
        <ele>861.40002441406</ele>
        <time>2019-03-30T13:49:41.000Z</time>
      </trkpt>
      <trkpt lat="43.95041" lon="7.33046">
        <ele>862.59997558594</ele>
        <time>2019-03-30T13:49:44.000Z</time>
      </trkpt>
      <trkpt lat="43.95034" lon="7.33047">
        <ele>863.59997558594</ele>
        <time>2019-03-30T13:49:53.000Z</time>
      </trkpt>
      <trkpt lat="43.95033" lon="7.33047">
        <ele>863.79998779297</ele>
        <time>2019-03-30T13:49:54.000Z</time>
      </trkpt>
      <trkpt lat="43.95029" lon="7.33048">
        <ele>864.79998779297</ele>
        <time>2019-03-30T13:49:59.000Z</time>
      </trkpt>
      <trkpt lat="43.95026" lon="7.33048">
        <ele>865.20001220703</ele>
        <time>2019-03-30T13:50:02.000Z</time>
      </trkpt>
      <trkpt lat="43.95023" lon="7.33049">
        <ele>865.79998779297</ele>
        <time>2019-03-30T13:50:05.000Z</time>
      </trkpt>
      <trkpt lat="43.95022" lon="7.33049">
        <ele>866.59997558594</ele>
        <time>2019-03-30T13:50:09.000Z</time>
      </trkpt>
      <trkpt lat="43.95022" lon="7.33048">
        <ele>866.20001220703</ele>
        <time>2019-03-30T13:50:17.000Z</time>
      </trkpt>
      <trkpt lat="43.95021" lon="7.33047">
        <ele>865.59997558594</ele>
        <time>2019-03-30T13:50:26.000Z</time>
      </trkpt>
      <trkpt lat="43.95021" lon="7.33046">
        <ele>866.40002441406</ele>
        <time>2019-03-30T13:50:33.000Z</time>
      </trkpt>
      <trkpt lat="43.95017" lon="7.33045">
        <ele>866.40002441406</ele>
        <time>2019-03-30T13:50:39.000Z</time>
      </trkpt>
      <trkpt lat="43.95008" lon="7.33041">
        <ele>867</ele>
        <time>2019-03-30T13:50:45.000Z</time>
      </trkpt>
      <trkpt lat="43.95006" lon="7.3304">
        <ele>867</ele>
        <time>2019-03-30T13:50:46.000Z</time>
      </trkpt>
      <trkpt lat="43.94998" lon="7.33035">
        <ele>868.20001220703</ele>
        <time>2019-03-30T13:50:51.000Z</time>
      </trkpt>
      <trkpt lat="43.94993" lon="7.33034">
        <ele>869</ele>
        <time>2019-03-30T13:50:54.000Z</time>
      </trkpt>
      <trkpt lat="43.94991" lon="7.33033">
        <ele>869.20001220703</ele>
        <time>2019-03-30T13:50:55.000Z</time>
      </trkpt>
      <trkpt lat="43.94984" lon="7.33033">
        <ele>870.40002441406</ele>
        <time>2019-03-30T13:50:59.000Z</time>
      </trkpt>
      <trkpt lat="43.9498" lon="7.33033">
        <ele>870.79998779297</ele>
        <time>2019-03-30T13:51:01.000Z</time>
      </trkpt>
      <trkpt lat="43.94975" lon="7.33035">
        <ele>871.59997558594</ele>
        <time>2019-03-30T13:51:05.000Z</time>
      </trkpt>
      <trkpt lat="43.94972" lon="7.33035">
        <ele>872.40002441406</ele>
        <time>2019-03-30T13:51:07.000Z</time>
      </trkpt>
      <trkpt lat="43.94971" lon="7.33036">
        <ele>872.59997558594</ele>
        <time>2019-03-30T13:51:08.000Z</time>
      </trkpt>
      <trkpt lat="43.94964" lon="7.33039">
        <ele>873.59997558594</ele>
        <time>2019-03-30T13:51:13.000Z</time>
      </trkpt>
      <trkpt lat="43.94962" lon="7.33041">
        <ele>873.79998779297</ele>
        <time>2019-03-30T13:51:14.000Z</time>
      </trkpt>
      <trkpt lat="43.94954" lon="7.33049">
        <ele>874.20001220703</ele>
        <time>2019-03-30T13:51:18.000Z</time>
      </trkpt>
      <trkpt lat="43.94952" lon="7.33049">
        <ele>874</ele>
        <time>2019-03-30T13:51:19.000Z</time>
      </trkpt>
      <trkpt lat="43.9495" lon="7.33045">
        <ele>873.59997558594</ele>
        <time>2019-03-30T13:51:21.000Z</time>
      </trkpt>
      <trkpt lat="43.94947" lon="7.33041">
        <ele>873.79998779297</ele>
        <time>2019-03-30T13:51:26.000Z</time>
      </trkpt>
      <trkpt lat="43.94946" lon="7.33042">
        <ele>874.40002441406</ele>
        <time>2019-03-30T13:51:33.000Z</time>
      </trkpt>
      <trkpt lat="43.94946" lon="7.33043">
        <ele>874.79998779297</ele>
        <time>2019-03-30T13:51:36.000Z</time>
      </trkpt>
      <trkpt lat="43.94945" lon="7.33046">
        <ele>875.79998779297</ele>
        <time>2019-03-30T13:51:40.000Z</time>
      </trkpt>
      <trkpt lat="43.94944" lon="7.33048">
        <ele>876.40002441406</ele>
        <time>2019-03-30T13:51:45.000Z</time>
      </trkpt>
      <trkpt lat="43.94942" lon="7.33052">
        <ele>876.79998779297</ele>
        <time>2019-03-30T13:51:50.000Z</time>
      </trkpt>
      <trkpt lat="43.94942" lon="7.33053">
        <ele>877</ele>
        <time>2019-03-30T13:51:51.000Z</time>
      </trkpt>
      <trkpt lat="43.94938" lon="7.3306">
        <ele>877.59997558594</ele>
        <time>2019-03-30T13:51:56.000Z</time>
      </trkpt>
      <trkpt lat="43.94937" lon="7.33062">
        <ele>877.79998779297</ele>
        <time>2019-03-30T13:51:57.000Z</time>
      </trkpt>
      <trkpt lat="43.94937" lon="7.33064">
        <ele>878</ele>
        <time>2019-03-30T13:51:58.000Z</time>
      </trkpt>
      <trkpt lat="43.94935" lon="7.33069">
        <ele>878.59997558594</ele>
        <time>2019-03-30T13:52:01.000Z</time>
      </trkpt>
      <trkpt lat="43.94934" lon="7.33073">
        <ele>879.20001220703</ele>
        <time>2019-03-30T13:52:04.000Z</time>
      </trkpt>
      <trkpt lat="43.94929" lon="7.3308">
        <ele>880.40002441406</ele>
        <time>2019-03-30T13:52:09.000Z</time>
      </trkpt>
      <trkpt lat="43.94928" lon="7.33081">
        <ele>880.59997558594</ele>
        <time>2019-03-30T13:52:10.000Z</time>
      </trkpt>
      <trkpt lat="43.94918" lon="7.3309">
        <ele>881.40002441406</ele>
        <time>2019-03-30T13:52:19.000Z</time>
      </trkpt>
      <trkpt lat="43.94911" lon="7.33095">
        <ele>882.59997558594</ele>
        <time>2019-03-30T13:52:25.000Z</time>
      </trkpt>
      <trkpt lat="43.9491" lon="7.33096">
        <ele>882.79998779297</ele>
        <time>2019-03-30T13:52:26.000Z</time>
      </trkpt>
      <trkpt lat="43.94903" lon="7.33099">
        <ele>883.59997558594</ele>
        <time>2019-03-30T13:52:31.000Z</time>
      </trkpt>
      <trkpt lat="43.94902" lon="7.33102">
        <ele>884.20001220703</ele>
        <time>2019-03-30T13:52:33.000Z</time>
      </trkpt>
      <trkpt lat="43.94901" lon="7.33105">
        <ele>884.59997558594</ele>
        <time>2019-03-30T13:52:35.000Z</time>
      </trkpt>
      <trkpt lat="43.94898" lon="7.33112">
        <ele>885.79998779297</ele>
        <time>2019-03-30T13:52:39.000Z</time>
      </trkpt>
      <trkpt lat="43.94897" lon="7.33113">
        <ele>886.20001220703</ele>
        <time>2019-03-30T13:52:40.000Z</time>
      </trkpt>
      <trkpt lat="43.94896" lon="7.33115">
        <ele>886.79998779297</ele>
        <time>2019-03-30T13:52:42.000Z</time>
      </trkpt>
      <trkpt lat="43.94894" lon="7.33117">
        <ele>887.79998779297</ele>
        <time>2019-03-30T13:52:46.000Z</time>
      </trkpt>
      <trkpt lat="43.9489" lon="7.33124">
        <ele>888.20001220703</ele>
        <time>2019-03-30T13:52:54.000Z</time>
      </trkpt>
      <trkpt lat="43.94888" lon="7.33123">
        <ele>889</ele>
        <time>2019-03-30T13:52:57.000Z</time>
      </trkpt>
      <trkpt lat="43.94887" lon="7.33123">
        <ele>889.40002441406</ele>
        <time>2019-03-30T13:52:59.000Z</time>
      </trkpt>
      <trkpt lat="43.94886" lon="7.33124">
        <ele>890</ele>
        <time>2019-03-30T13:53:03.000Z</time>
      </trkpt>
      <trkpt lat="43.94885" lon="7.33124">
        <ele>890.20001220703</ele>
        <time>2019-03-30T13:53:05.000Z</time>
      </trkpt>
      <trkpt lat="43.94883" lon="7.33127">
        <ele>890.20001220703</ele>
        <time>2019-03-30T13:53:07.000Z</time>
      </trkpt>
      <trkpt lat="43.9488" lon="7.33129">
        <ele>890.40002441406</ele>
        <time>2019-03-30T13:53:10.000Z</time>
      </trkpt>
      <trkpt lat="43.94878" lon="7.3313">
        <ele>890.79998779297</ele>
        <time>2019-03-30T13:53:11.000Z</time>
      </trkpt>
      <trkpt lat="43.94877" lon="7.3313">
        <ele>891</ele>
        <time>2019-03-30T13:53:12.000Z</time>
      </trkpt>
      <trkpt lat="43.94874" lon="7.33133">
        <ele>892.20001220703</ele>
        <time>2019-03-30T13:53:15.000Z</time>
      </trkpt>
      <trkpt lat="43.94872" lon="7.33135">
        <ele>892.79998779297</ele>
        <time>2019-03-30T13:53:17.000Z</time>
      </trkpt>
      <trkpt lat="43.94868" lon="7.33137">
        <ele>893.40002441406</ele>
        <time>2019-03-30T13:53:20.000Z</time>
      </trkpt>
      <trkpt lat="43.94867" lon="7.33139">
        <ele>894</ele>
        <time>2019-03-30T13:53:23.000Z</time>
      </trkpt>
      <trkpt lat="43.94867" lon="7.33139">
        <ele>894.40002441406</ele>
        <time>2019-03-30T13:53:25.000Z</time>
      </trkpt>
      <trkpt lat="43.94866" lon="7.3314">
        <ele>894.79998779297</ele>
        <time>2019-03-30T13:53:29.000Z</time>
      </trkpt>
      <trkpt lat="43.94862" lon="7.33145">
        <ele>895.20001220703</ele>
        <time>2019-03-30T13:53:36.000Z</time>
      </trkpt>
      <trkpt lat="43.94861" lon="7.33148">
        <ele>895.40002441406</ele>
        <time>2019-03-30T13:53:37.000Z</time>
      </trkpt>
      <trkpt lat="43.94859" lon="7.33152">
        <ele>896.40002441406</ele>
        <time>2019-03-30T13:53:40.000Z</time>
      </trkpt>
      <trkpt lat="43.94858" lon="7.33153">
        <ele>896.59997558594</ele>
        <time>2019-03-30T13:53:41.000Z</time>
      </trkpt>
      <trkpt lat="43.94856" lon="7.33158">
        <ele>897.40002441406</ele>
        <time>2019-03-30T13:53:46.000Z</time>
      </trkpt>
      <trkpt lat="43.94856" lon="7.33158">
        <ele>897.79998779297</ele>
        <time>2019-03-30T13:53:47.000Z</time>
      </trkpt>
      <trkpt lat="43.94857" lon="7.33165">
        <ele>898.59997558594</ele>
        <time>2019-03-30T13:53:53.000Z</time>
      </trkpt>
      <trkpt lat="43.94856" lon="7.33166">
        <ele>898.79998779297</ele>
        <time>2019-03-30T13:53:54.000Z</time>
      </trkpt>
      <trkpt lat="43.94854" lon="7.33168">
        <ele>899.40002441406</ele>
        <time>2019-03-30T13:53:58.000Z</time>
      </trkpt>
      <trkpt lat="43.94853" lon="7.33168">
        <ele>899.59997558594</ele>
        <time>2019-03-30T13:53:59.000Z</time>
      </trkpt>
      <trkpt lat="43.94849" lon="7.33165">
        <ele>900</ele>
        <time>2019-03-30T13:54:04.000Z</time>
      </trkpt>
      <trkpt lat="43.94847" lon="7.33163">
        <ele>900.79998779297</ele>
        <time>2019-03-30T13:54:08.000Z</time>
      </trkpt>
      <trkpt lat="43.94846" lon="7.33163">
        <ele>901</ele>
        <time>2019-03-30T13:54:09.000Z</time>
      </trkpt>
      <trkpt lat="43.94842" lon="7.3316">
        <ele>902.20001220703</ele>
        <time>2019-03-30T13:54:15.000Z</time>
      </trkpt>
      <trkpt lat="43.9484" lon="7.3316">
        <ele>902.59997558594</ele>
        <time>2019-03-30T13:54:18.000Z</time>
      </trkpt>
      <trkpt lat="43.94837" lon="7.33158">
        <ele>903.20001220703</ele>
        <time>2019-03-30T13:54:23.000Z</time>
      </trkpt>
      <trkpt lat="43.94835" lon="7.33158">
        <ele>903.59997558594</ele>
        <time>2019-03-30T13:54:25.000Z</time>
      </trkpt>
      <trkpt lat="43.94834" lon="7.3316">
        <ele>904.20001220703</ele>
        <time>2019-03-30T13:54:29.000Z</time>
      </trkpt>
      <trkpt lat="43.94834" lon="7.33163">
        <ele>904.59997558594</ele>
        <time>2019-03-30T13:54:32.000Z</time>
      </trkpt>
      <trkpt lat="43.94836" lon="7.33167">
        <ele>905.40002441406</ele>
        <time>2019-03-30T13:54:37.000Z</time>
      </trkpt>
      <trkpt lat="43.94836" lon="7.33171">
        <ele>906</ele>
        <time>2019-03-30T13:54:41.000Z</time>
      </trkpt>
      <trkpt lat="43.94836" lon="7.33173">
        <ele>906.59997558594</ele>
        <time>2019-03-30T13:54:43.000Z</time>
      </trkpt>
      <trkpt lat="43.94836" lon="7.3318">
        <ele>907.79998779297</ele>
        <time>2019-03-30T13:54:49.000Z</time>
      </trkpt>
      <trkpt lat="43.94836" lon="7.33181">
        <ele>908</ele>
        <time>2019-03-30T13:54:50.000Z</time>
      </trkpt>
      <trkpt lat="43.94837" lon="7.33188">
        <ele>909</ele>
        <time>2019-03-30T13:54:57.000Z</time>
      </trkpt>
      <trkpt lat="43.94837" lon="7.33189">
        <ele>909.20001220703</ele>
        <time>2019-03-30T13:54:58.000Z</time>
      </trkpt>
      <trkpt lat="43.94836" lon="7.33191">
        <ele>909.59997558594</ele>
        <time>2019-03-30T13:55:00.000Z</time>
      </trkpt>
      <trkpt lat="43.94834" lon="7.33192">
        <ele>910</ele>
        <time>2019-03-30T13:55:02.000Z</time>
      </trkpt>
      <trkpt lat="43.94834" lon="7.33191">
        <ele>910.20001220703</ele>
        <time>2019-03-30T13:55:03.000Z</time>
      </trkpt>
      <trkpt lat="43.94829" lon="7.33188">
        <ele>911</ele>
        <time>2019-03-30T13:55:10.000Z</time>
      </trkpt>
      <trkpt lat="43.94828" lon="7.33188">
        <ele>911</ele>
        <time>2019-03-30T13:55:11.000Z</time>
      </trkpt>
      <trkpt lat="43.94824" lon="7.33183">
        <ele>912.20001220703</ele>
        <time>2019-03-30T13:55:17.000Z</time>
      </trkpt>
      <trkpt lat="43.9482" lon="7.3318">
        <ele>913.40002441406</ele>
        <time>2019-03-30T13:55:22.000Z</time>
      </trkpt>
      <trkpt lat="43.94816" lon="7.33178">
        <ele>914</ele>
        <time>2019-03-30T13:55:27.000Z</time>
      </trkpt>
      <trkpt lat="43.94812" lon="7.33177">
        <ele>914.40002441406</ele>
        <time>2019-03-30T13:55:31.000Z</time>
      </trkpt>
      <trkpt lat="43.94808" lon="7.33175">
        <ele>914.79998779297</ele>
        <time>2019-03-30T13:55:35.000Z</time>
      </trkpt>
      <trkpt lat="43.94806" lon="7.33173">
        <ele>915.40002441406</ele>
        <time>2019-03-30T13:55:37.000Z</time>
      </trkpt>
      <trkpt lat="43.94803" lon="7.33172">
        <ele>916.59997558594</ele>
        <time>2019-03-30T13:55:43.000Z</time>
      </trkpt>
      <trkpt lat="43.94797" lon="7.33173">
        <ele>917.59997558594</ele>
        <time>2019-03-30T13:55:50.000Z</time>
      </trkpt>
      <trkpt lat="43.94796" lon="7.33174">
        <ele>918.20001220703</ele>
        <time>2019-03-30T13:55:52.000Z</time>
      </trkpt>
      <trkpt lat="43.94794" lon="7.33174">
        <ele>918.79998779297</ele>
        <time>2019-03-30T13:55:55.000Z</time>
      </trkpt>
      <trkpt lat="43.94793" lon="7.33173">
        <ele>919</ele>
        <time>2019-03-30T13:55:58.000Z</time>
      </trkpt>
      <trkpt lat="43.94791" lon="7.33173">
        <ele>919</ele>
        <time>2019-03-30T13:56:04.000Z</time>
      </trkpt>
      <trkpt lat="43.94791" lon="7.33172">
        <ele>919.59997558594</ele>
        <time>2019-03-30T13:56:08.000Z</time>
      </trkpt>
      <trkpt lat="43.9479" lon="7.33172">
        <ele>919.79998779297</ele>
        <time>2019-03-30T13:56:10.000Z</time>
      </trkpt>
      <trkpt lat="43.94788" lon="7.33171">
        <ele>919.59997558594</ele>
        <time>2019-03-30T13:56:18.000Z</time>
      </trkpt>
      <trkpt lat="43.94788" lon="7.33172">
        <ele>919.79998779297</ele>
        <time>2019-03-30T13:56:26.000Z</time>
      </trkpt>
      <trkpt lat="43.94787" lon="7.33172">
        <ele>920</ele>
        <time>2019-03-30T13:56:31.000Z</time>
      </trkpt>
      <trkpt lat="43.94787" lon="7.33172">
        <ele>919.79998779297</ele>
        <time>2019-03-30T13:56:34.000Z</time>
      </trkpt>
      <trkpt lat="43.94787" lon="7.33173">
        <ele>919.79998779297</ele>
        <time>2019-03-30T13:56:50.000Z</time>
      </trkpt>
      <trkpt lat="43.94787" lon="7.33173">
        <ele>919.59997558594</ele>
        <time>2019-03-30T13:57:14.000Z</time>
      </trkpt>
      <trkpt lat="43.94787" lon="7.33173">
        <ele>920</ele>
        <time>2019-03-30T13:57:29.000Z</time>
      </trkpt>
      <trkpt lat="43.94787" lon="7.33173">
        <ele>919.79998779297</ele>
        <time>2019-03-30T13:57:39.000Z</time>
      </trkpt>
      <trkpt lat="43.94787" lon="7.33173">
        <ele>920</ele>
        <time>2019-03-30T13:57:46.000Z</time>
      </trkpt>
      <trkpt lat="43.94787" lon="7.33174">
        <ele>919.40002441406</ele>
        <time>2019-03-30T13:57:54.000Z</time>
      </trkpt>
      <trkpt lat="43.94786" lon="7.33174">
        <ele>920</ele>
        <time>2019-03-30T13:58:02.000Z</time>
      </trkpt>
      <trkpt lat="43.94786" lon="7.33174">
        <ele>919.59997558594</ele>
        <time>2019-03-30T13:58:17.000Z</time>
      </trkpt>
      <trkpt lat="43.94786" lon="7.33174">
        <ele>919.20001220703</ele>
        <time>2019-03-30T13:58:31.000Z</time>
      </trkpt>
      <trkpt lat="43.94786" lon="7.33175">
        <ele>919.20001220703</ele>
        <time>2019-03-30T13:58:55.000Z</time>
      </trkpt>
      <trkpt lat="43.94786" lon="7.33175">
        <ele>919.59997558594</ele>
        <time>2019-03-30T13:59:06.000Z</time>
      </trkpt>
      <trkpt lat="43.94786" lon="7.33175">
        <ele>919.59997558594</ele>
        <time>2019-03-30T13:59:21.000Z</time>
      </trkpt>
      <trkpt lat="43.94786" lon="7.33175">
        <ele>919.59997558594</ele>
        <time>2019-03-30T13:59:36.000Z</time>
      </trkpt>
      <trkpt lat="43.94786" lon="7.33175">
        <ele>919.79998779297</ele>
        <time>2019-03-30T13:59:51.000Z</time>
      </trkpt>
      <trkpt lat="43.94786" lon="7.33175">
        <ele>919.59997558594</ele>
        <time>2019-03-30T14:00:08.000Z</time>
      </trkpt>
      <trkpt lat="43.94786" lon="7.33175">
        <ele>919.59997558594</ele>
        <time>2019-03-30T14:00:19.000Z</time>
      </trkpt>
      <trkpt lat="43.94786" lon="7.33175">
        <ele>919.40002441406</ele>
        <time>2019-03-30T14:00:30.000Z</time>
      </trkpt>
      <trkpt lat="43.94786" lon="7.33175">
        <ele>919.79998779297</ele>
        <time>2019-03-30T14:00:53.000Z</time>
      </trkpt>
      <trkpt lat="43.94786" lon="7.33175">
        <ele>919.79998779297</ele>
        <time>2019-03-30T14:01:04.000Z</time>
      </trkpt>
      <trkpt lat="43.94786" lon="7.33175">
        <ele>919.79998779297</ele>
        <time>2019-03-30T14:01:19.000Z</time>
      </trkpt>
      <trkpt lat="43.94786" lon="7.33175">
        <ele>920</ele>
        <time>2019-03-30T14:01:28.000Z</time>
      </trkpt>
      <trkpt lat="43.94786" lon="7.33175">
        <ele>919.79998779297</ele>
        <time>2019-03-30T14:01:43.000Z</time>
      </trkpt>
      <trkpt lat="43.94786" lon="7.33176">
        <ele>920.20001220703</ele>
        <time>2019-03-30T14:01:56.000Z</time>
      </trkpt>
      <trkpt lat="43.94786" lon="7.33176">
        <ele>920.20001220703</ele>
        <time>2019-03-30T14:02:21.000Z</time>
      </trkpt>
      <trkpt lat="43.94786" lon="7.33177">
        <ele>920.40002441406</ele>
        <time>2019-03-30T14:02:45.000Z</time>
      </trkpt>
      <trkpt lat="43.94785" lon="7.33177">
        <ele>920.59997558594</ele>
        <time>2019-03-30T14:03:10.000Z</time>
      </trkpt>
      <trkpt lat="43.94785" lon="7.33176">
        <ele>920.59997558594</ele>
        <time>2019-03-30T14:03:42.000Z</time>
      </trkpt>
      <trkpt lat="43.94786" lon="7.33177">
        <ele>920.40002441406</ele>
        <time>2019-03-30T14:03:59.000Z</time>
      </trkpt>
      <trkpt lat="43.94786" lon="7.33177">
        <ele>920.59997558594</ele>
        <time>2019-03-30T14:04:07.000Z</time>
      </trkpt>
      <trkpt lat="43.94786" lon="7.33176">
        <ele>920.59997558594</ele>
        <time>2019-03-30T14:04:18.000Z</time>
      </trkpt>
      <trkpt lat="43.94787" lon="7.33176">
        <ele>920.59997558594</ele>
        <time>2019-03-30T14:04:29.000Z</time>
      </trkpt>
      <trkpt lat="43.94787" lon="7.33175">
        <ele>920.59997558594</ele>
        <time>2019-03-30T14:04:40.000Z</time>
      </trkpt>
      <trkpt lat="43.94786" lon="7.33175">
        <ele>920.20001220703</ele>
        <time>2019-03-30T14:04:48.000Z</time>
      </trkpt>
      <trkpt lat="43.94786" lon="7.33175">
        <ele>921</ele>
        <time>2019-03-30T14:04:52.000Z</time>
      </trkpt>
      <trkpt lat="43.94786" lon="7.33175">
        <ele>921</ele>
        <time>2019-03-30T14:04:55.000Z</time>
      </trkpt>
      <trkpt lat="43.94787" lon="7.33175">
        <ele>921.59997558594</ele>
        <time>2019-03-30T14:05:06.000Z</time>
      </trkpt>
      <trkpt lat="43.94788" lon="7.33175">
        <ele>921</ele>
        <time>2019-03-30T14:05:16.000Z</time>
      </trkpt>
      <trkpt lat="43.94788" lon="7.33175">
        <ele>922</ele>
        <time>2019-03-30T14:05:25.000Z</time>
      </trkpt>
      <trkpt lat="43.94788" lon="7.33175">
        <ele>921.20001220703</ele>
        <time>2019-03-30T14:05:38.000Z</time>
      </trkpt>
      <trkpt lat="43.94788" lon="7.33175">
        <ele>921.59997558594</ele>
        <time>2019-03-30T14:05:51.000Z</time>
      </trkpt>
      <trkpt lat="43.94788" lon="7.33175">
        <ele>921.79998779297</ele>
        <time>2019-03-30T14:06:03.000Z</time>
      </trkpt>
      <trkpt lat="43.94788" lon="7.33175">
        <ele>921.59997558594</ele>
        <time>2019-03-30T14:06:14.000Z</time>
      </trkpt>
      <trkpt lat="43.94788" lon="7.33175">
        <ele>921.20001220703</ele>
        <time>2019-03-30T14:06:22.000Z</time>
      </trkpt>
      <trkpt lat="43.94788" lon="7.33174">
        <ele>921</ele>
        <time>2019-03-30T14:06:30.000Z</time>
      </trkpt>
      <trkpt lat="43.94789" lon="7.33175">
        <ele>921.20001220703</ele>
        <time>2019-03-30T14:06:43.000Z</time>
      </trkpt>
      <trkpt lat="43.94791" lon="7.33175">
        <ele>920.79998779297</ele>
        <time>2019-03-30T14:06:56.000Z</time>
      </trkpt>
      <trkpt lat="43.94792" lon="7.33174">
        <ele>920.79998779297</ele>
        <time>2019-03-30T14:07:07.000Z</time>
      </trkpt>
      <trkpt lat="43.94792" lon="7.33174">
        <ele>920.59997558594</ele>
        <time>2019-03-30T14:07:19.000Z</time>
      </trkpt>
      <trkpt lat="43.94794" lon="7.33174">
        <ele>920.59997558594</ele>
        <time>2019-03-30T14:07:26.000Z</time>
      </trkpt>
      <trkpt lat="43.94792" lon="7.33176">
        <ele>920.59997558594</ele>
        <time>2019-03-30T14:07:35.000Z</time>
      </trkpt>
      <trkpt lat="43.94792" lon="7.33176">
        <ele>920.79998779297</ele>
        <time>2019-03-30T14:07:40.000Z</time>
      </trkpt>
      <trkpt lat="43.94792" lon="7.33175">
        <ele>921</ele>
        <time>2019-03-30T14:07:47.000Z</time>
      </trkpt>
      <trkpt lat="43.94794" lon="7.33176">
        <ele>920.79998779297</ele>
        <time>2019-03-30T14:07:53.000Z</time>
      </trkpt>
      <trkpt lat="43.94794" lon="7.33177">
        <ele>920.59997558594</ele>
        <time>2019-03-30T14:08:00.000Z</time>
      </trkpt>
      <trkpt lat="43.948" lon="7.33172">
        <ele>921</ele>
        <time>2019-03-30T14:08:05.000Z</time>
      </trkpt>
      <trkpt lat="43.94805" lon="7.33162">
        <ele>919.59997558594</ele>
        <time>2019-03-30T14:08:09.000Z</time>
      </trkpt>
      <trkpt lat="43.94805" lon="7.3316">
        <ele>919.20001220703</ele>
        <time>2019-03-30T14:08:10.000Z</time>
      </trkpt>
      <trkpt lat="43.94806" lon="7.33159">
        <ele>918.59997558594</ele>
        <time>2019-03-30T14:08:14.000Z</time>
      </trkpt>
      <trkpt lat="43.94805" lon="7.33158">
        <ele>918.40002441406</ele>
        <time>2019-03-30T14:08:22.000Z</time>
      </trkpt>
      <trkpt lat="43.94804" lon="7.33157">
        <ele>918.79998779297</ele>
        <time>2019-03-30T14:08:30.000Z</time>
      </trkpt>
      <trkpt lat="43.94804" lon="7.33156">
        <ele>918.59997558594</ele>
        <time>2019-03-30T14:08:40.000Z</time>
      </trkpt>
      <trkpt lat="43.94804" lon="7.33155">
        <ele>918.40002441406</ele>
        <time>2019-03-30T14:08:54.000Z</time>
      </trkpt>
      <trkpt lat="43.94804" lon="7.33155">
        <ele>918.20001220703</ele>
        <time>2019-03-30T14:09:00.000Z</time>
      </trkpt>
      <trkpt lat="43.94804" lon="7.33155">
        <ele>918.20001220703</ele>
        <time>2019-03-30T14:09:08.000Z</time>
      </trkpt>
      <trkpt lat="43.94805" lon="7.33154">
        <ele>918.20001220703</ele>
        <time>2019-03-30T14:09:16.000Z</time>
      </trkpt>
      <trkpt lat="43.94807" lon="7.33149">
        <ele>918.40002441406</ele>
        <time>2019-03-30T14:09:21.000Z</time>
      </trkpt>
      <trkpt lat="43.94812" lon="7.33141">
        <ele>918</ele>
        <time>2019-03-30T14:09:28.000Z</time>
      </trkpt>
      <trkpt lat="43.94819" lon="7.3313">
        <ele>917.79998779297</ele>
        <time>2019-03-30T14:09:32.000Z</time>
      </trkpt>
      <trkpt lat="43.94822" lon="7.33125">
        <ele>917.59997558594</ele>
        <time>2019-03-30T14:09:34.000Z</time>
      </trkpt>
      <trkpt lat="43.94829" lon="7.33112">
        <ele>917.20001220703</ele>
        <time>2019-03-30T14:09:37.000Z</time>
      </trkpt>
      <trkpt lat="43.94831" lon="7.33106">
        <ele>916.59997558594</ele>
        <time>2019-03-30T14:09:38.000Z</time>
      </trkpt>
      <trkpt lat="43.94832" lon="7.33099">
        <ele>916</ele>
        <time>2019-03-30T14:09:39.000Z</time>
      </trkpt>
      <trkpt lat="43.94836" lon="7.33088">
        <ele>915</ele>
        <time>2019-03-30T14:09:41.000Z</time>
      </trkpt>
      <trkpt lat="43.9484" lon="7.33084">
        <ele>914.20001220703</ele>
        <time>2019-03-30T14:09:42.000Z</time>
      </trkpt>
      <trkpt lat="43.94843" lon="7.33085">
        <ele>913.59997558594</ele>
        <time>2019-03-30T14:09:43.000Z</time>
      </trkpt>
      <trkpt lat="43.94846" lon="7.33084">
        <ele>913.20001220703</ele>
        <time>2019-03-30T14:09:44.000Z</time>
      </trkpt>
      <trkpt lat="43.94847" lon="7.33082">
        <ele>912.79998779297</ele>
        <time>2019-03-30T14:09:45.000Z</time>
      </trkpt>
      <trkpt lat="43.94849" lon="7.33081">
        <ele>912.20001220703</ele>
        <time>2019-03-30T14:09:46.000Z</time>
      </trkpt>
      <trkpt lat="43.94856" lon="7.33075">
        <ele>911.79998779297</ele>
        <time>2019-03-30T14:09:48.000Z</time>
      </trkpt>
      <trkpt lat="43.94873" lon="7.3306">
        <ele>911.20001220703</ele>
        <time>2019-03-30T14:09:52.000Z</time>
      </trkpt>
      <trkpt lat="43.94876" lon="7.33053">
        <ele>910.79998779297</ele>
        <time>2019-03-30T14:09:53.000Z</time>
      </trkpt>
      <trkpt lat="43.94878" lon="7.33045">
        <ele>910</ele>
        <time>2019-03-30T14:09:54.000Z</time>
      </trkpt>
      <trkpt lat="43.94882" lon="7.33032">
        <ele>909</ele>
        <time>2019-03-30T14:09:56.000Z</time>
      </trkpt>
      <trkpt lat="43.94888" lon="7.33029">
        <ele>907.59997558594</ele>
        <time>2019-03-30T14:09:57.000Z</time>
      </trkpt>
      <trkpt lat="43.94892" lon="7.33025">
        <ele>906.40002441406</ele>
        <time>2019-03-30T14:09:58.000Z</time>
      </trkpt>
      <trkpt lat="43.94902" lon="7.33012">
        <ele>904.59997558594</ele>
        <time>2019-03-30T14:10:00.000Z</time>
      </trkpt>
      <trkpt lat="43.94906" lon="7.33004">
        <ele>903.79998779297</ele>
        <time>2019-03-30T14:10:01.000Z</time>
      </trkpt>
      <trkpt lat="43.94909" lon="7.32995">
        <ele>903.59997558594</ele>
        <time>2019-03-30T14:10:02.000Z</time>
      </trkpt>
      <trkpt lat="43.94911" lon="7.32989">
        <ele>903</ele>
        <time>2019-03-30T14:10:03.000Z</time>
      </trkpt>
      <trkpt lat="43.94922" lon="7.32977">
        <ele>901.40002441406</ele>
        <time>2019-03-30T14:10:05.000Z</time>
      </trkpt>
      <trkpt lat="43.94933" lon="7.32966">
        <ele>900.40002441406</ele>
        <time>2019-03-30T14:10:07.000Z</time>
      </trkpt>
      <trkpt lat="43.94937" lon="7.32961">
        <ele>899.59997558594</ele>
        <time>2019-03-30T14:10:08.000Z</time>
      </trkpt>
      <trkpt lat="43.9494" lon="7.32954">
        <ele>899.20001220703</ele>
        <time>2019-03-30T14:10:09.000Z</time>
      </trkpt>
      <trkpt lat="43.94949" lon="7.32946">
        <ele>899.40002441406</ele>
        <time>2019-03-30T14:10:11.000Z</time>
      </trkpt>
      <trkpt lat="43.94961" lon="7.32928">
        <ele>899.20001220703</ele>
        <time>2019-03-30T14:10:15.000Z</time>
      </trkpt>
      <trkpt lat="43.94964" lon="7.32923">
        <ele>899.20001220703</ele>
        <time>2019-03-30T14:10:16.000Z</time>
      </trkpt>
      <trkpt lat="43.94977" lon="7.32905">
        <ele>899</ele>
        <time>2019-03-30T14:10:20.000Z</time>
      </trkpt>
      <trkpt lat="43.94987" lon="7.3289">
        <ele>899.20001220703</ele>
        <time>2019-03-30T14:10:23.000Z</time>
      </trkpt>
      <trkpt lat="43.94998" lon="7.32882">
        <ele>899.20001220703</ele>
        <time>2019-03-30T14:10:25.000Z</time>
      </trkpt>
      <trkpt lat="43.95018" lon="7.32862">
        <ele>899.20001220703</ele>
        <time>2019-03-30T14:10:29.000Z</time>
      </trkpt>
      <trkpt lat="43.95023" lon="7.32856">
        <ele>899.20001220703</ele>
        <time>2019-03-30T14:10:30.000Z</time>
      </trkpt>
      <trkpt lat="43.95025" lon="7.32849">
        <ele>899.40002441406</ele>
        <time>2019-03-30T14:10:31.000Z</time>
      </trkpt>
      <trkpt lat="43.9503" lon="7.32834">
        <ele>899.40002441406</ele>
        <time>2019-03-30T14:10:33.000Z</time>
      </trkpt>
      <trkpt lat="43.9503" lon="7.32803">
        <ele>899</ele>
        <time>2019-03-30T14:10:37.000Z</time>
      </trkpt>
      <trkpt lat="43.9502" lon="7.32776">
        <ele>898.79998779297</ele>
        <time>2019-03-30T14:10:41.000Z</time>
      </trkpt>
      <trkpt lat="43.95016" lon="7.3277">
        <ele>898.79998779297</ele>
        <time>2019-03-30T14:10:42.000Z</time>
      </trkpt>
      <trkpt lat="43.95" lon="7.32738">
        <ele>898.20001220703</ele>
        <time>2019-03-30T14:10:47.000Z</time>
      </trkpt>
      <trkpt lat="43.94997" lon="7.32732">
        <ele>898.20001220703</ele>
        <time>2019-03-30T14:10:48.000Z</time>
      </trkpt>
      <trkpt lat="43.94996" lon="7.3272">
        <ele>898</ele>
        <time>2019-03-30T14:10:50.000Z</time>
      </trkpt>
      <trkpt lat="43.94998" lon="7.32715">
        <ele>898.20001220703</ele>
        <time>2019-03-30T14:10:51.000Z</time>
      </trkpt>
      <trkpt lat="43.95003" lon="7.32685">
        <ele>898.20001220703</ele>
        <time>2019-03-30T14:10:56.000Z</time>
      </trkpt>
      <trkpt lat="43.94993" lon="7.32671">
        <ele>897.59997558594</ele>
        <time>2019-03-30T14:10:59.000Z</time>
      </trkpt>
      <trkpt lat="43.94979" lon="7.32667">
        <ele>897.20001220703</ele>
        <time>2019-03-30T14:11:02.000Z</time>
      </trkpt>
      <trkpt lat="43.94971" lon="7.32655">
        <ele>897.59997558594</ele>
        <time>2019-03-30T14:11:05.000Z</time>
      </trkpt>
      <trkpt lat="43.94961" lon="7.32651">
        <ele>897.59997558594</ele>
        <time>2019-03-30T14:11:08.000Z</time>
      </trkpt>
      <trkpt lat="43.94956" lon="7.32636">
        <ele>897.79998779297</ele>
        <time>2019-03-30T14:11:11.000Z</time>
      </trkpt>
      <trkpt lat="43.94954" lon="7.3263">
        <ele>897.79998779297</ele>
        <time>2019-03-30T14:11:12.000Z</time>
      </trkpt>
      <trkpt lat="43.94947" lon="7.32627">
        <ele>897.59997558594</ele>
        <time>2019-03-30T14:11:14.000Z</time>
      </trkpt>
      <trkpt lat="43.94943" lon="7.3261">
        <ele>897.59997558594</ele>
        <time>2019-03-30T14:11:17.000Z</time>
      </trkpt>
      <trkpt lat="43.94949" lon="7.3259">
        <ele>897.59997558594</ele>
        <time>2019-03-30T14:11:20.000Z</time>
      </trkpt>
      <trkpt lat="43.9495" lon="7.32584">
        <ele>897.59997558594</ele>
        <time>2019-03-30T14:11:21.000Z</time>
      </trkpt>
      <trkpt lat="43.94952" lon="7.32575">
        <ele>897.20001220703</ele>
        <time>2019-03-30T14:11:23.000Z</time>
      </trkpt>
      <trkpt lat="43.94952" lon="7.32567">
        <ele>897</ele>
        <time>2019-03-30T14:11:24.000Z</time>
      </trkpt>
      <trkpt lat="43.94945" lon="7.32557">
        <ele>896.59997558594</ele>
        <time>2019-03-30T14:11:27.000Z</time>
      </trkpt>
      <trkpt lat="43.94939" lon="7.32538">
        <ele>896.79998779297</ele>
        <time>2019-03-30T14:11:30.000Z</time>
      </trkpt>
      <trkpt lat="43.94938" lon="7.32535">
        <ele>896.79998779297</ele>
        <time>2019-03-30T14:11:31.000Z</time>
      </trkpt>
      <trkpt lat="43.94933" lon="7.32517">
        <ele>896.79998779297</ele>
        <time>2019-03-30T14:11:34.000Z</time>
      </trkpt>
      <trkpt lat="43.94935" lon="7.32513">
        <ele>896.59997558594</ele>
        <time>2019-03-30T14:11:35.000Z</time>
      </trkpt>
      <trkpt lat="43.9494" lon="7.32496">
        <ele>896.79998779297</ele>
        <time>2019-03-30T14:11:38.000Z</time>
      </trkpt>
      <trkpt lat="43.94943" lon="7.32489">
        <ele>897</ele>
        <time>2019-03-30T14:11:39.000Z</time>
      </trkpt>
      <trkpt lat="43.94958" lon="7.32468">
        <ele>896.59997558594</ele>
        <time>2019-03-30T14:11:43.000Z</time>
      </trkpt>
      <trkpt lat="43.94961" lon="7.32462">
        <ele>896.40002441406</ele>
        <time>2019-03-30T14:11:44.000Z</time>
      </trkpt>
      <trkpt lat="43.94966" lon="7.3245">
        <ele>896.20001220703</ele>
        <time>2019-03-30T14:11:46.000Z</time>
      </trkpt>
      <trkpt lat="43.94968" lon="7.32436">
        <ele>896.40002441406</ele>
        <time>2019-03-30T14:11:48.000Z</time>
      </trkpt>
      <trkpt lat="43.94966" lon="7.32415">
        <ele>896.40002441406</ele>
        <time>2019-03-30T14:11:52.000Z</time>
      </trkpt>
      <trkpt lat="43.94965" lon="7.3241">
        <ele>896.59997558594</ele>
        <time>2019-03-30T14:11:53.000Z</time>
      </trkpt>
      <trkpt lat="43.94958" lon="7.32403">
        <ele>896.79998779297</ele>
        <time>2019-03-30T14:11:55.000Z</time>
      </trkpt>
      <trkpt lat="43.94949" lon="7.32399">
        <ele>897</ele>
        <time>2019-03-30T14:11:57.000Z</time>
      </trkpt>
      <trkpt lat="43.9493" lon="7.32388">
        <ele>896.59997558594</ele>
        <time>2019-03-30T14:12:01.000Z</time>
      </trkpt>
      <trkpt lat="43.94925" lon="7.32386">
        <ele>896.40002441406</ele>
        <time>2019-03-30T14:12:02.000Z</time>
      </trkpt>
      <trkpt lat="43.94922" lon="7.32381">
        <ele>896.59997558594</ele>
        <time>2019-03-30T14:12:03.000Z</time>
      </trkpt>
      <trkpt lat="43.94914" lon="7.32374">
        <ele>896.20001220703</ele>
        <time>2019-03-30T14:12:05.000Z</time>
      </trkpt>
      <trkpt lat="43.94905" lon="7.32369">
        <ele>896.20001220703</ele>
        <time>2019-03-30T14:12:07.000Z</time>
      </trkpt>
      <trkpt lat="43.94892" lon="7.32364">
        <ele>896.59997558594</ele>
        <time>2019-03-30T14:12:10.000Z</time>
      </trkpt>
      <trkpt lat="43.94878" lon="7.32359">
        <ele>896.59997558594</ele>
        <time>2019-03-30T14:12:14.000Z</time>
      </trkpt>
      <trkpt lat="43.94878" lon="7.32347">
        <ele>896.59997558594</ele>
        <time>2019-03-30T14:12:16.000Z</time>
      </trkpt>
      <trkpt lat="43.94881" lon="7.32334">
        <ele>896.59997558594</ele>
        <time>2019-03-30T14:12:18.000Z</time>
      </trkpt>
      <trkpt lat="43.94884" lon="7.32328">
        <ele>896.59997558594</ele>
        <time>2019-03-30T14:12:19.000Z</time>
      </trkpt>
      <trkpt lat="43.94888" lon="7.32322">
        <ele>896.40002441406</ele>
        <time>2019-03-30T14:12:20.000Z</time>
      </trkpt>
      <trkpt lat="43.94895" lon="7.32298">
        <ele>896.20001220703</ele>
        <time>2019-03-30T14:12:24.000Z</time>
      </trkpt>
      <trkpt lat="43.94895" lon="7.32291">
        <ele>896.20001220703</ele>
        <time>2019-03-30T14:12:25.000Z</time>
      </trkpt>
      <trkpt lat="43.94897" lon="7.32276">
        <ele>896</ele>
        <time>2019-03-30T14:12:27.000Z</time>
      </trkpt>
      <trkpt lat="43.94902" lon="7.32266">
        <ele>896</ele>
        <time>2019-03-30T14:12:29.000Z</time>
      </trkpt>
      <trkpt lat="43.94903" lon="7.32246">
        <ele>895.79998779297</ele>
        <time>2019-03-30T14:12:32.000Z</time>
      </trkpt>
      <trkpt lat="43.94903" lon="7.32239">
        <ele>895.79998779297</ele>
        <time>2019-03-30T14:12:33.000Z</time>
      </trkpt>
      <trkpt lat="43.94905" lon="7.32232">
        <ele>895.59997558594</ele>
        <time>2019-03-30T14:12:34.000Z</time>
      </trkpt>
      <trkpt lat="43.94907" lon="7.32218">
        <ele>895.59997558594</ele>
        <time>2019-03-30T14:12:36.000Z</time>
      </trkpt>
      <trkpt lat="43.94909" lon="7.32211">
        <ele>895.59997558594</ele>
        <time>2019-03-30T14:12:37.000Z</time>
      </trkpt>
      <trkpt lat="43.9492" lon="7.32195">
        <ele>895.59997558594</ele>
        <time>2019-03-30T14:12:40.000Z</time>
      </trkpt>
      <trkpt lat="43.94924" lon="7.32191">
        <ele>895.79998779297</ele>
        <time>2019-03-30T14:12:41.000Z</time>
      </trkpt>
      <trkpt lat="43.94927" lon="7.32185">
        <ele>895.59997558594</ele>
        <time>2019-03-30T14:12:42.000Z</time>
      </trkpt>
      <trkpt lat="43.94936" lon="7.32166">
        <ele>895.59997558594</ele>
        <time>2019-03-30T14:12:45.000Z</time>
      </trkpt>
      <trkpt lat="43.94943" lon="7.32154">
        <ele>895.40002441406</ele>
        <time>2019-03-30T14:12:47.000Z</time>
      </trkpt>
      <trkpt lat="43.94953" lon="7.32146">
        <ele>895.40002441406</ele>
        <time>2019-03-30T14:12:49.000Z</time>
      </trkpt>
      <trkpt lat="43.94966" lon="7.32127">
        <ele>895.40002441406</ele>
        <time>2019-03-30T14:12:53.000Z</time>
      </trkpt>
      <trkpt lat="43.94964" lon="7.32097">
        <ele>895.20001220703</ele>
        <time>2019-03-30T14:12:57.000Z</time>
      </trkpt>
      <trkpt lat="43.94959" lon="7.32084">
        <ele>895</ele>
        <time>2019-03-30T14:12:59.000Z</time>
      </trkpt>
      <trkpt lat="43.9496" lon="7.32077">
        <ele>894.79998779297</ele>
        <time>2019-03-30T14:13:00.000Z</time>
      </trkpt>
      <trkpt lat="43.94966" lon="7.32058">
        <ele>894.59997558594</ele>
        <time>2019-03-30T14:13:03.000Z</time>
      </trkpt>
      <trkpt lat="43.94961" lon="7.32041">
        <ele>894.59997558594</ele>
        <time>2019-03-30T14:13:06.000Z</time>
      </trkpt>
      <trkpt lat="43.94958" lon="7.32017">
        <ele>894.59997558594</ele>
        <time>2019-03-30T14:13:09.000Z</time>
      </trkpt>
      <trkpt lat="43.94958" lon="7.3201">
        <ele>894.40002441406</ele>
        <time>2019-03-30T14:13:10.000Z</time>
      </trkpt>
      <trkpt lat="43.94957" lon="7.31982">
        <ele>894.20001220703</ele>
        <time>2019-03-30T14:13:14.000Z</time>
      </trkpt>
      <trkpt lat="43.94955" lon="7.31977">
        <ele>894.20001220703</ele>
        <time>2019-03-30T14:13:15.000Z</time>
      </trkpt>
      <trkpt lat="43.94954" lon="7.31975">
        <ele>894.40002441406</ele>
        <time>2019-03-30T14:13:18.000Z</time>
      </trkpt>
      <trkpt lat="43.94954" lon="7.31973">
        <ele>894.20001220703</ele>
        <time>2019-03-30T14:13:32.000Z</time>
      </trkpt>
      <trkpt lat="43.94954" lon="7.31973">
        <ele>894</ele>
        <time>2019-03-30T14:13:46.000Z</time>
      </trkpt>
      <trkpt lat="43.94954" lon="7.31973">
        <ele>893.79998779297</ele>
        <time>2019-03-30T14:13:54.000Z</time>
      </trkpt>
      <trkpt lat="43.94955" lon="7.31973">
        <ele>893.79998779297</ele>
        <time>2019-03-30T14:14:11.000Z</time>
      </trkpt>
      <trkpt lat="43.94954" lon="7.31973">
        <ele>893.79998779297</ele>
        <time>2019-03-30T14:14:20.000Z</time>
      </trkpt>
      <trkpt lat="43.94954" lon="7.31973">
        <ele>894</ele>
        <time>2019-03-30T14:14:32.000Z</time>
      </trkpt>
      <trkpt lat="43.94954" lon="7.31972">
        <ele>894.40002441406</ele>
        <time>2019-03-30T14:14:42.000Z</time>
      </trkpt>
      <trkpt lat="43.94953" lon="7.31971">
        <ele>894.40002441406</ele>
        <time>2019-03-30T14:15:02.000Z</time>
      </trkpt>
      <trkpt lat="43.94953" lon="7.31972">
        <ele>894.40002441406</ele>
        <time>2019-03-30T14:15:14.000Z</time>
      </trkpt>
      <trkpt lat="43.94953" lon="7.31971">
        <ele>894.20001220703</ele>
        <time>2019-03-30T14:15:33.000Z</time>
      </trkpt>
      <trkpt lat="43.94948" lon="7.31965">
        <ele>894.20001220703</ele>
        <time>2019-03-30T14:15:41.000Z</time>
      </trkpt>
      <trkpt lat="43.94936" lon="7.31953">
        <ele>894</ele>
        <time>2019-03-30T14:15:46.000Z</time>
      </trkpt>
      <trkpt lat="43.9493" lon="7.31945">
        <ele>894</ele>
        <time>2019-03-30T14:15:48.000Z</time>
      </trkpt>
      <trkpt lat="43.9492" lon="7.31931">
        <ele>893.59997558594</ele>
        <time>2019-03-30T14:15:51.000Z</time>
      </trkpt>
      <trkpt lat="43.94901" lon="7.31914">
        <ele>893</ele>
        <time>2019-03-30T14:15:56.000Z</time>
      </trkpt>
      <trkpt lat="43.94897" lon="7.3191">
        <ele>893</ele>
        <time>2019-03-30T14:15:57.000Z</time>
      </trkpt>
      <trkpt lat="43.94887" lon="7.31899">
        <ele>892.79998779297</ele>
        <time>2019-03-30T14:16:00.000Z</time>
      </trkpt>
      <trkpt lat="43.94873" lon="7.31881">
        <ele>892.59997558594</ele>
        <time>2019-03-30T14:16:04.000Z</time>
      </trkpt>
      <trkpt lat="43.94874" lon="7.31863">
        <ele>892.59997558594</ele>
        <time>2019-03-30T14:16:07.000Z</time>
      </trkpt>
      <trkpt lat="43.9487" lon="7.31849">
        <ele>892.59997558594</ele>
        <time>2019-03-30T14:16:10.000Z</time>
      </trkpt>
      <trkpt lat="43.94864" lon="7.31841">
        <ele>892.59997558594</ele>
        <time>2019-03-30T14:16:12.000Z</time>
      </trkpt>
      <trkpt lat="43.9486" lon="7.31838">
        <ele>892.59997558594</ele>
        <time>2019-03-30T14:16:13.000Z</time>
      </trkpt>
      <trkpt lat="43.94856" lon="7.31837">
        <ele>892.59997558594</ele>
        <time>2019-03-30T14:16:14.000Z</time>
      </trkpt>
      <trkpt lat="43.94844" lon="7.31846">
        <ele>892.59997558594</ele>
        <time>2019-03-30T14:16:17.000Z</time>
      </trkpt>
      <trkpt lat="43.9483" lon="7.31847">
        <ele>892.59997558594</ele>
        <time>2019-03-30T14:16:20.000Z</time>
      </trkpt>
      <trkpt lat="43.94806" lon="7.31842">
        <ele>892.59997558594</ele>
        <time>2019-03-30T14:16:25.000Z</time>
      </trkpt>
      <trkpt lat="43.94792" lon="7.3184">
        <ele>892.20001220703</ele>
        <time>2019-03-30T14:16:28.000Z</time>
      </trkpt>
      <trkpt lat="43.94777" lon="7.31838">
        <ele>892.20001220703</ele>
        <time>2019-03-30T14:16:31.000Z</time>
      </trkpt>
      <trkpt lat="43.94762" lon="7.31824">
        <ele>892</ele>
        <time>2019-03-30T14:16:35.000Z</time>
      </trkpt>
      <trkpt lat="43.94758" lon="7.31815">
        <ele>891.59997558594</ele>
        <time>2019-03-30T14:16:37.000Z</time>
      </trkpt>
      <trkpt lat="43.94755" lon="7.31815">
        <ele>891.79998779297</ele>
        <time>2019-03-30T14:16:38.000Z</time>
      </trkpt>
      <trkpt lat="43.94742" lon="7.31822">
        <ele>891.59997558594</ele>
        <time>2019-03-30T14:16:41.000Z</time>
      </trkpt>
      <trkpt lat="43.94736" lon="7.31824">
        <ele>891.59997558594</ele>
        <time>2019-03-30T14:16:42.000Z</time>
      </trkpt>
      <trkpt lat="43.94726" lon="7.31822">
        <ele>891.40002441406</ele>
        <time>2019-03-30T14:16:44.000Z</time>
      </trkpt>
      <trkpt lat="43.94717" lon="7.31819">
        <ele>891.40002441406</ele>
        <time>2019-03-30T14:16:46.000Z</time>
      </trkpt>
      <trkpt lat="43.94697" lon="7.31812">
        <ele>892</ele>
        <time>2019-03-30T14:16:50.000Z</time>
      </trkpt>
      <trkpt lat="43.94678" lon="7.31801">
        <ele>891.59997558594</ele>
        <time>2019-03-30T14:16:54.000Z</time>
      </trkpt>
      <trkpt lat="43.94669" lon="7.31795">
        <ele>891.20001220703</ele>
        <time>2019-03-30T14:16:56.000Z</time>
      </trkpt>
      <trkpt lat="43.94655" lon="7.31785">
        <ele>891.20001220703</ele>
        <time>2019-03-30T14:16:59.000Z</time>
      </trkpt>
      <trkpt lat="43.9465" lon="7.31774">
        <ele>891</ele>
        <time>2019-03-30T14:17:01.000Z</time>
      </trkpt>
      <trkpt lat="43.94641" lon="7.31763">
        <ele>891</ele>
        <time>2019-03-30T14:17:04.000Z</time>
      </trkpt>
      <trkpt lat="43.94625" lon="7.31757">
        <ele>891</ele>
        <time>2019-03-30T14:17:07.000Z</time>
      </trkpt>
      <trkpt lat="43.9462" lon="7.31753">
        <ele>891</ele>
        <time>2019-03-30T14:17:08.000Z</time>
      </trkpt>
      <trkpt lat="43.94605" lon="7.31743">
        <ele>890.59997558594</ele>
        <time>2019-03-30T14:17:11.000Z</time>
      </trkpt>
      <trkpt lat="43.946" lon="7.31739">
        <ele>890.59997558594</ele>
        <time>2019-03-30T14:17:12.000Z</time>
      </trkpt>
      <trkpt lat="43.94595" lon="7.31735">
        <ele>890.59997558594</ele>
        <time>2019-03-30T14:17:13.000Z</time>
      </trkpt>
      <trkpt lat="43.94581" lon="7.31719">
        <ele>890.20001220703</ele>
        <time>2019-03-30T14:17:16.000Z</time>
      </trkpt>
      <trkpt lat="43.94569" lon="7.31702">
        <ele>889.79998779297</ele>
        <time>2019-03-30T14:17:19.000Z</time>
      </trkpt>
      <trkpt lat="43.9456" lon="7.31691">
        <ele>889.59997558594</ele>
        <time>2019-03-30T14:17:21.000Z</time>
      </trkpt>
      <trkpt lat="43.94548" lon="7.31678">
        <ele>889.59997558594</ele>
        <time>2019-03-30T14:17:24.000Z</time>
      </trkpt>
      <trkpt lat="43.9454" lon="7.31668">
        <ele>889.40002441406</ele>
        <time>2019-03-30T14:17:26.000Z</time>
      </trkpt>
      <trkpt lat="43.94538" lon="7.31662">
        <ele>889.40002441406</ele>
        <time>2019-03-30T14:17:27.000Z</time>
      </trkpt>
      <trkpt lat="43.94536" lon="7.31656">
        <ele>889.40002441406</ele>
        <time>2019-03-30T14:17:30.000Z</time>
      </trkpt>
      <trkpt lat="43.94535" lon="7.31653">
        <ele>889.40002441406</ele>
        <time>2019-03-30T14:17:32.000Z</time>
      </trkpt>
      <trkpt lat="43.94533" lon="7.31644">
        <ele>889.40002441406</ele>
        <time>2019-03-30T14:17:35.000Z</time>
      </trkpt>
      <trkpt lat="43.94529" lon="7.31622">
        <ele>889</ele>
        <time>2019-03-30T14:17:39.000Z</time>
      </trkpt>
      <trkpt lat="43.94527" lon="7.31616">
        <ele>888.79998779297</ele>
        <time>2019-03-30T14:17:40.000Z</time>
      </trkpt>
      <trkpt lat="43.94525" lon="7.31599">
        <ele>888.79998779297</ele>
        <time>2019-03-30T14:17:43.000Z</time>
      </trkpt>
      <trkpt lat="43.94526" lon="7.31581">
        <ele>888.59997558594</ele>
        <time>2019-03-30T14:17:46.000Z</time>
      </trkpt>
      <trkpt lat="43.94528" lon="7.31574">
        <ele>888.79998779297</ele>
        <time>2019-03-30T14:17:48.000Z</time>
      </trkpt>
      <trkpt lat="43.94531" lon="7.31567">
        <ele>888.59997558594</ele>
        <time>2019-03-30T14:17:51.000Z</time>
      </trkpt>
      <trkpt lat="43.94532" lon="7.31566">
        <ele>888.59997558594</ele>
        <time>2019-03-30T14:17:52.000Z</time>
      </trkpt>
      <trkpt lat="43.94541" lon="7.31558">
        <ele>889.40002441406</ele>
        <time>2019-03-30T14:17:57.000Z</time>
      </trkpt>
      <trkpt lat="43.94553" lon="7.3155">
        <ele>889</ele>
        <time>2019-03-30T14:18:02.000Z</time>
      </trkpt>
      <trkpt lat="43.94563" lon="7.31541">
        <ele>888.59997558594</ele>
        <time>2019-03-30T14:18:05.000Z</time>
      </trkpt>
      <trkpt lat="43.9457" lon="7.31537">
        <ele>888.59997558594</ele>
        <time>2019-03-30T14:18:07.000Z</time>
      </trkpt>
      <trkpt lat="43.94573" lon="7.31534">
        <ele>888.59997558594</ele>
        <time>2019-03-30T14:18:08.000Z</time>
      </trkpt>
      <trkpt lat="43.94576" lon="7.31531">
        <ele>888.59997558594</ele>
        <time>2019-03-30T14:18:09.000Z</time>
      </trkpt>
      <trkpt lat="43.9459" lon="7.31523">
        <ele>888.40002441406</ele>
        <time>2019-03-30T14:18:13.000Z</time>
      </trkpt>
      <trkpt lat="43.94603" lon="7.31521">
        <ele>888</ele>
        <time>2019-03-30T14:18:16.000Z</time>
      </trkpt>
      <trkpt lat="43.94612" lon="7.3152">
        <ele>888</ele>
        <time>2019-03-30T14:18:18.000Z</time>
      </trkpt>
      <trkpt lat="43.94637" lon="7.31514">
        <ele>888.40002441406</ele>
        <time>2019-03-30T14:18:24.000Z</time>
      </trkpt>
      <trkpt lat="43.94652" lon="7.31506">
        <ele>888.20001220703</ele>
        <time>2019-03-30T14:18:28.000Z</time>
      </trkpt>
      <trkpt lat="43.94661" lon="7.31505">
        <ele>887.79998779297</ele>
        <time>2019-03-30T14:18:30.000Z</time>
      </trkpt>
      <trkpt lat="43.94673" lon="7.31503">
        <ele>887.79998779297</ele>
        <time>2019-03-30T14:18:33.000Z</time>
      </trkpt>
      <trkpt lat="43.94683" lon="7.31504">
        <ele>888</ele>
        <time>2019-03-30T14:18:36.000Z</time>
      </trkpt>
      <trkpt lat="43.94686" lon="7.31503">
        <ele>888</ele>
        <time>2019-03-30T14:18:40.000Z</time>
      </trkpt>
      <trkpt lat="43.94686" lon="7.31503">
        <ele>887.40002441406</ele>
        <time>2019-03-30T14:18:45.000Z</time>
      </trkpt>
      <trkpt lat="43.94689" lon="7.31501">
        <ele>887.40002441406</ele>
        <time>2019-03-30T14:18:48.000Z</time>
      </trkpt>
      <trkpt lat="43.9469" lon="7.31501">
        <ele>887.40002441406</ele>
        <time>2019-03-30T14:18:49.000Z</time>
      </trkpt>
      <trkpt lat="43.9469" lon="7.31499">
        <ele>887.40002441406</ele>
        <time>2019-03-30T14:18:50.000Z</time>
      </trkpt>
      <trkpt lat="43.94695" lon="7.3149">
        <ele>887.40002441406</ele>
        <time>2019-03-30T14:18:54.000Z</time>
      </trkpt>
      <trkpt lat="43.94709" lon="7.31469">
        <ele>887.40002441406</ele>
        <time>2019-03-30T14:19:00.000Z</time>
      </trkpt>
      <trkpt lat="43.94726" lon="7.31464">
        <ele>887</ele>
        <time>2019-03-30T14:19:05.000Z</time>
      </trkpt>
      <trkpt lat="43.94745" lon="7.31469">
        <ele>887.40002441406</ele>
        <time>2019-03-30T14:19:10.000Z</time>
      </trkpt>
      <trkpt lat="43.9475" lon="7.31466">
        <ele>887.40002441406</ele>
        <time>2019-03-30T14:19:12.000Z</time>
      </trkpt>
      <trkpt lat="43.94752" lon="7.31462">
        <ele>887.20001220703</ele>
        <time>2019-03-30T14:19:13.000Z</time>
      </trkpt>
      <trkpt lat="43.94759" lon="7.31443">
        <ele>887</ele>
        <time>2019-03-30T14:19:17.000Z</time>
      </trkpt>
      <trkpt lat="43.9477" lon="7.31431">
        <ele>886.59997558594</ele>
        <time>2019-03-30T14:19:20.000Z</time>
      </trkpt>
      <trkpt lat="43.94778" lon="7.31427">
        <ele>886.59997558594</ele>
        <time>2019-03-30T14:19:22.000Z</time>
      </trkpt>
      <trkpt lat="43.94784" lon="7.31424">
        <ele>886.59997558594</ele>
        <time>2019-03-30T14:19:24.000Z</time>
      </trkpt>
      <trkpt lat="43.94784" lon="7.31421">
        <ele>886.59997558594</ele>
        <time>2019-03-30T14:19:25.000Z</time>
      </trkpt>
      <trkpt lat="43.94782" lon="7.31414">
        <ele>886.79998779297</ele>
        <time>2019-03-30T14:19:27.000Z</time>
      </trkpt>
      <trkpt lat="43.94779" lon="7.31392">
        <ele>886.40002441406</ele>
        <time>2019-03-30T14:19:31.000Z</time>
      </trkpt>
      <trkpt lat="43.94779" lon="7.31387">
        <ele>886.40002441406</ele>
        <time>2019-03-30T14:19:32.000Z</time>
      </trkpt>
      <trkpt lat="43.94781" lon="7.31377">
        <ele>886.20001220703</ele>
        <time>2019-03-30T14:19:34.000Z</time>
      </trkpt>
      <trkpt lat="43.94786" lon="7.31368">
        <ele>886</ele>
        <time>2019-03-30T14:19:36.000Z</time>
      </trkpt>
      <trkpt lat="43.94804" lon="7.31352">
        <ele>885.79998779297</ele>
        <time>2019-03-30T14:19:41.000Z</time>
      </trkpt>
      <trkpt lat="43.94816" lon="7.31348">
        <ele>885.40002441406</ele>
        <time>2019-03-30T14:19:44.000Z</time>
      </trkpt>
      <trkpt lat="43.94822" lon="7.31345">
        <ele>885.20001220703</ele>
        <time>2019-03-30T14:19:46.000Z</time>
      </trkpt>
      <trkpt lat="43.94823" lon="7.31345">
        <ele>885.20001220703</ele>
        <time>2019-03-30T14:19:49.000Z</time>
      </trkpt>
      <trkpt lat="43.94824" lon="7.31345">
        <ele>885</ele>
        <time>2019-03-30T14:19:50.000Z</time>
      </trkpt>
      <trkpt lat="43.94829" lon="7.31342">
        <ele>884.40002441406</ele>
        <time>2019-03-30T14:19:54.000Z</time>
      </trkpt>
      <trkpt lat="43.94829" lon="7.31335">
        <ele>884.79998779297</ele>
        <time>2019-03-30T14:19:58.000Z</time>
      </trkpt>
      <trkpt lat="43.94831" lon="7.31319">
        <ele>884.79998779297</ele>
        <time>2019-03-30T14:20:02.000Z</time>
      </trkpt>
      <trkpt lat="43.94839" lon="7.31299">
        <ele>884.40002441406</ele>
        <time>2019-03-30T14:20:07.000Z</time>
      </trkpt>
      <trkpt lat="43.94843" lon="7.31291">
        <ele>884.20001220703</ele>
        <time>2019-03-30T14:20:09.000Z</time>
      </trkpt>
      <trkpt lat="43.94849" lon="7.3128">
        <ele>884.20001220703</ele>
        <time>2019-03-30T14:20:12.000Z</time>
      </trkpt>
      <trkpt lat="43.94858" lon="7.31259">
        <ele>884</ele>
        <time>2019-03-30T14:20:17.000Z</time>
      </trkpt>
      <trkpt lat="43.94867" lon="7.31238">
        <ele>883.79998779297</ele>
        <time>2019-03-30T14:20:22.000Z</time>
      </trkpt>
      <trkpt lat="43.94871" lon="7.3122">
        <ele>883.20001220703</ele>
        <time>2019-03-30T14:20:27.000Z</time>
      </trkpt>
      <trkpt lat="43.94872" lon="7.31217">
        <ele>883.20001220703</ele>
        <time>2019-03-30T14:20:28.000Z</time>
      </trkpt>
      <trkpt lat="43.94872" lon="7.31217">
        <ele>883</ele>
        <time>2019-03-30T14:20:31.000Z</time>
      </trkpt>
      <trkpt lat="43.94873" lon="7.3121">
        <ele>882.79998779297</ele>
        <time>2019-03-30T14:20:38.000Z</time>
      </trkpt>
      <trkpt lat="43.94874" lon="7.31209">
        <ele>882.79998779297</ele>
        <time>2019-03-30T14:20:39.000Z</time>
      </trkpt>
      <trkpt lat="43.94875" lon="7.31207">
        <ele>883.20001220703</ele>
        <time>2019-03-30T14:20:44.000Z</time>
      </trkpt>
      <trkpt lat="43.94877" lon="7.31199">
        <ele>883.79998779297</ele>
        <time>2019-03-30T14:20:50.000Z</time>
      </trkpt>
      <trkpt lat="43.94879" lon="7.31189">
        <ele>882.79998779297</ele>
        <time>2019-03-30T14:20:57.000Z</time>
      </trkpt>
      <trkpt lat="43.94879" lon="7.31188">
        <ele>882.79998779297</ele>
        <time>2019-03-30T14:20:58.000Z</time>
      </trkpt>
      <trkpt lat="43.94881" lon="7.31186">
        <ele>882.79998779297</ele>
        <time>2019-03-30T14:21:03.000Z</time>
      </trkpt>
      <trkpt lat="43.94883" lon="7.31182">
        <ele>883</ele>
        <time>2019-03-30T14:21:06.000Z</time>
      </trkpt>
      <trkpt lat="43.94884" lon="7.31181">
        <ele>883</ele>
        <time>2019-03-30T14:21:07.000Z</time>
      </trkpt>
      <trkpt lat="43.94888" lon="7.31172">
        <ele>883</ele>
        <time>2019-03-30T14:21:13.000Z</time>
      </trkpt>
      <trkpt lat="43.9489" lon="7.31169">
        <ele>882.79998779297</ele>
        <time>2019-03-30T14:21:19.000Z</time>
      </trkpt>
      <trkpt lat="43.94895" lon="7.31155">
        <ele>883</ele>
        <time>2019-03-30T14:21:24.000Z</time>
      </trkpt>
      <trkpt lat="43.9491" lon="7.31132">
        <ele>882.79998779297</ele>
        <time>2019-03-30T14:21:30.000Z</time>
      </trkpt>
      <trkpt lat="43.94928" lon="7.31111">
        <ele>882.20001220703</ele>
        <time>2019-03-30T14:21:37.000Z</time>
      </trkpt>
      <trkpt lat="43.9493" lon="7.31109">
        <ele>882.20001220703</ele>
        <time>2019-03-30T14:21:38.000Z</time>
      </trkpt>
      <trkpt lat="43.94943" lon="7.31093">
        <ele>882.20001220703</ele>
        <time>2019-03-30T14:21:43.000Z</time>
      </trkpt>
      <trkpt lat="43.94958" lon="7.31073">
        <ele>882.20001220703</ele>
        <time>2019-03-30T14:21:48.000Z</time>
      </trkpt>
      <trkpt lat="43.94961" lon="7.31069">
        <ele>882.20001220703</ele>
        <time>2019-03-30T14:21:49.000Z</time>
      </trkpt>
      <trkpt lat="43.9497" lon="7.31053">
        <ele>882</ele>
        <time>2019-03-30T14:21:54.000Z</time>
      </trkpt>
      <trkpt lat="43.94978" lon="7.31038">
        <ele>881.79998779297</ele>
        <time>2019-03-30T14:21:59.000Z</time>
      </trkpt>
      <trkpt lat="43.94991" lon="7.3102">
        <ele>881.59997558594</ele>
        <time>2019-03-30T14:22:05.000Z</time>
      </trkpt>
      <trkpt lat="43.94997" lon="7.31002">
        <ele>881.20001220703</ele>
        <time>2019-03-30T14:22:09.000Z</time>
      </trkpt>
      <trkpt lat="43.95008" lon="7.30977">
        <ele>881</ele>
        <time>2019-03-30T14:22:15.000Z</time>
      </trkpt>
      <trkpt lat="43.95008" lon="7.30973">
        <ele>881</ele>
        <time>2019-03-30T14:22:16.000Z</time>
      </trkpt>
      <trkpt lat="43.95008" lon="7.30965">
        <ele>881</ele>
        <time>2019-03-30T14:22:18.000Z</time>
      </trkpt>
      <trkpt lat="43.95008" lon="7.30956">
        <ele>880.59997558594</ele>
        <time>2019-03-30T14:22:22.000Z</time>
      </trkpt>
      <trkpt lat="43.9501" lon="7.30948">
        <ele>880</ele>
        <time>2019-03-30T14:22:26.000Z</time>
      </trkpt>
      <trkpt lat="43.9501" lon="7.30946">
        <ele>880.20001220703</ele>
        <time>2019-03-30T14:22:27.000Z</time>
      </trkpt>
      <trkpt lat="43.9501" lon="7.3093">
        <ele>880.20001220703</ele>
        <time>2019-03-30T14:22:31.000Z</time>
      </trkpt>
      <trkpt lat="43.95008" lon="7.30901">
        <ele>880</ele>
        <time>2019-03-30T14:22:37.000Z</time>
      </trkpt>
      <trkpt lat="43.95004" lon="7.30878">
        <ele>879.40002441406</ele>
        <time>2019-03-30T14:22:42.000Z</time>
      </trkpt>
      <trkpt lat="43.95005" lon="7.30857">
        <ele>879.20001220703</ele>
        <time>2019-03-30T14:22:48.000Z</time>
      </trkpt>
      <trkpt lat="43.95004" lon="7.30855">
        <ele>879</ele>
        <time>2019-03-30T14:22:49.000Z</time>
      </trkpt>
      <trkpt lat="43.95004" lon="7.30852">
        <ele>878.79998779297</ele>
        <time>2019-03-30T14:22:53.000Z</time>
      </trkpt>
      <trkpt lat="43.95004" lon="7.30846">
        <ele>878.40002441406</ele>
        <time>2019-03-30T14:23:00.000Z</time>
      </trkpt>
      <trkpt lat="43.95004" lon="7.30841">
        <ele>878.20001220703</ele>
        <time>2019-03-30T14:23:05.000Z</time>
      </trkpt>
      <trkpt lat="43.95004" lon="7.30839">
        <ele>877.79998779297</ele>
        <time>2019-03-30T14:23:08.000Z</time>
      </trkpt>
      <trkpt lat="43.95004" lon="7.30836">
        <ele>877.59997558594</ele>
        <time>2019-03-30T14:23:12.000Z</time>
      </trkpt>
      <trkpt lat="43.95004" lon="7.30835">
        <ele>877.59997558594</ele>
        <time>2019-03-30T14:23:13.000Z</time>
      </trkpt>
      <trkpt lat="43.95005" lon="7.30833">
        <ele>877.79998779297</ele>
        <time>2019-03-30T14:23:16.000Z</time>
      </trkpt>
      <trkpt lat="43.95006" lon="7.30831">
        <ele>878.79998779297</ele>
        <time>2019-03-30T14:23:20.000Z</time>
      </trkpt>
      <trkpt lat="43.95007" lon="7.3083">
        <ele>879.79998779297</ele>
        <time>2019-03-30T14:23:23.000Z</time>
      </trkpt>
      <trkpt lat="43.95007" lon="7.30829">
        <ele>880</ele>
        <time>2019-03-30T14:23:24.000Z</time>
      </trkpt>
      <trkpt lat="43.95008" lon="7.30824">
        <ele>880.79998779297</ele>
        <time>2019-03-30T14:23:29.000Z</time>
      </trkpt>
      <trkpt lat="43.95009" lon="7.30816">
        <ele>881.20001220703</ele>
        <time>2019-03-30T14:23:32.000Z</time>
      </trkpt>
      <trkpt lat="43.95009" lon="7.30811">
        <ele>881.20001220703</ele>
        <time>2019-03-30T14:23:33.000Z</time>
      </trkpt>
      <trkpt lat="43.95012" lon="7.30775">
        <ele>880.59997558594</ele>
        <time>2019-03-30T14:23:40.000Z</time>
      </trkpt>
      <trkpt lat="43.95013" lon="7.30743">
        <ele>880.79998779297</ele>
        <time>2019-03-30T14:23:45.000Z</time>
      </trkpt>
      <trkpt lat="43.95014" lon="7.30737">
        <ele>880.79998779297</ele>
        <time>2019-03-30T14:23:46.000Z</time>
      </trkpt>
      <trkpt lat="43.95014" lon="7.30719">
        <ele>881</ele>
        <time>2019-03-30T14:23:50.000Z</time>
      </trkpt>
      <trkpt lat="43.95019" lon="7.307">
        <ele>880.40002441406</ele>
        <time>2019-03-30T14:23:54.000Z</time>
      </trkpt>
      <trkpt lat="43.95023" lon="7.30687">
        <ele>880</ele>
        <time>2019-03-30T14:23:57.000Z</time>
      </trkpt>
      <trkpt lat="43.95029" lon="7.30672">
        <ele>880.59997558594</ele>
        <time>2019-03-30T14:24:00.000Z</time>
      </trkpt>
      <trkpt lat="43.95032" lon="7.30657">
        <ele>880.59997558594</ele>
        <time>2019-03-30T14:24:03.000Z</time>
      </trkpt>
      <trkpt lat="43.95036" lon="7.30646">
        <ele>880.40002441406</ele>
        <time>2019-03-30T14:24:05.000Z</time>
      </trkpt>
      <trkpt lat="43.9505" lon="7.30619">
        <ele>879.20001220703</ele>
        <time>2019-03-30T14:24:10.000Z</time>
      </trkpt>
      <trkpt lat="43.95053" lon="7.30615">
        <ele>879</ele>
        <time>2019-03-30T14:24:11.000Z</time>
      </trkpt>
      <trkpt lat="43.95057" lon="7.30612">
        <ele>878.59997558594</ele>
        <time>2019-03-30T14:24:12.000Z</time>
      </trkpt>
      <trkpt lat="43.95064" lon="7.30601">
        <ele>877.40002441406</ele>
        <time>2019-03-30T14:24:14.000Z</time>
      </trkpt>
      <trkpt lat="43.95066" lon="7.30598">
        <ele>877</ele>
        <time>2019-03-30T14:24:15.000Z</time>
      </trkpt>
      <trkpt lat="43.95073" lon="7.30583">
        <ele>876.20001220703</ele>
        <time>2019-03-30T14:24:17.000Z</time>
      </trkpt>
      <trkpt lat="43.95083" lon="7.30565">
        <ele>876.20001220703</ele>
        <time>2019-03-30T14:24:20.000Z</time>
      </trkpt>
      <trkpt lat="43.95086" lon="7.3056">
        <ele>876.20001220703</ele>
        <time>2019-03-30T14:24:21.000Z</time>
      </trkpt>
      <trkpt lat="43.95097" lon="7.30539">
        <ele>875.79998779297</ele>
        <time>2019-03-30T14:24:25.000Z</time>
      </trkpt>
      <trkpt lat="43.95103" lon="7.30532">
        <ele>875.79998779297</ele>
        <time>2019-03-30T14:24:27.000Z</time>
      </trkpt>
      <trkpt lat="43.95107" lon="7.30532">
        <ele>875.79998779297</ele>
        <time>2019-03-30T14:24:30.000Z</time>
      </trkpt>
      <trkpt lat="43.95108" lon="7.30532">
        <ele>876</ele>
        <time>2019-03-30T14:24:34.000Z</time>
      </trkpt>
      <trkpt lat="43.9511" lon="7.30532">
        <ele>875.40002441406</ele>
        <time>2019-03-30T14:24:42.000Z</time>
      </trkpt>
      <trkpt lat="43.95112" lon="7.30531">
        <ele>875.59997558594</ele>
        <time>2019-03-30T14:24:47.000Z</time>
      </trkpt>
      <trkpt lat="43.95112" lon="7.30532">
        <ele>875.59997558594</ele>
        <time>2019-03-30T14:24:48.000Z</time>
      </trkpt>
      <trkpt lat="43.95112" lon="7.30529">
        <ele>875.59997558594</ele>
        <time>2019-03-30T14:24:49.000Z</time>
      </trkpt>
      <trkpt lat="43.95112" lon="7.3052">
        <ele>875.59997558594</ele>
        <time>2019-03-30T14:24:52.000Z</time>
      </trkpt>
      <trkpt lat="43.9511" lon="7.30509">
        <ele>875.59997558594</ele>
        <time>2019-03-30T14:24:54.000Z</time>
      </trkpt>
      <trkpt lat="43.95111" lon="7.30495">
        <ele>875.40002441406</ele>
        <time>2019-03-30T14:24:56.000Z</time>
      </trkpt>
      <trkpt lat="43.95116" lon="7.30476">
        <ele>875.40002441406</ele>
        <time>2019-03-30T14:24:59.000Z</time>
      </trkpt>
      <trkpt lat="43.95119" lon="7.30463">
        <ele>875.40002441406</ele>
        <time>2019-03-30T14:25:01.000Z</time>
      </trkpt>
      <trkpt lat="43.9512" lon="7.30451">
        <ele>875.59997558594</ele>
        <time>2019-03-30T14:25:03.000Z</time>
      </trkpt>
      <trkpt lat="43.95122" lon="7.3044">
        <ele>875.79998779297</ele>
        <time>2019-03-30T14:25:06.000Z</time>
      </trkpt>
      <trkpt lat="43.95122" lon="7.30428">
        <ele>875.79998779297</ele>
        <time>2019-03-30T14:25:09.000Z</time>
      </trkpt>
      <trkpt lat="43.95128" lon="7.30413">
        <ele>876</ele>
        <time>2019-03-30T14:25:13.000Z</time>
      </trkpt>
      <trkpt lat="43.95129" lon="7.30408">
        <ele>876</ele>
        <time>2019-03-30T14:25:14.000Z</time>
      </trkpt>
      <trkpt lat="43.95135" lon="7.3038">
        <ele>876.40002441406</ele>
        <time>2019-03-30T14:25:20.000Z</time>
      </trkpt>
      <trkpt lat="43.95139" lon="7.30363">
        <ele>877</ele>
        <time>2019-03-30T14:25:24.000Z</time>
      </trkpt>
      <trkpt lat="43.95141" lon="7.30362">
        <ele>877.20001220703</ele>
        <time>2019-03-30T14:25:25.000Z</time>
      </trkpt>
      <trkpt lat="43.95149" lon="7.30363">
        <ele>878.20001220703</ele>
        <time>2019-03-30T14:25:29.000Z</time>
      </trkpt>
      <trkpt lat="43.95151" lon="7.30363">
        <ele>878.59997558594</ele>
        <time>2019-03-30T14:25:30.000Z</time>
      </trkpt>
      <trkpt lat="43.95157" lon="7.30363">
        <ele>879.79998779297</ele>
        <time>2019-03-30T14:25:33.000Z</time>
      </trkpt>
      <trkpt lat="43.95161" lon="7.30361">
        <ele>880.40002441406</ele>
        <time>2019-03-30T14:25:35.000Z</time>
      </trkpt>
      <trkpt lat="43.95165" lon="7.30359">
        <ele>881</ele>
        <time>2019-03-30T14:25:37.000Z</time>
      </trkpt>
      <trkpt lat="43.95176" lon="7.30356">
        <ele>882.20001220703</ele>
        <time>2019-03-30T14:25:44.000Z</time>
      </trkpt>
      <trkpt lat="43.95179" lon="7.30355">
        <ele>882.40002441406</ele>
        <time>2019-03-30T14:25:46.000Z</time>
      </trkpt>
      <trkpt lat="43.95182" lon="7.30354">
        <ele>882.59997558594</ele>
        <time>2019-03-30T14:25:48.000Z</time>
      </trkpt>
      <trkpt lat="43.95183" lon="7.30353">
        <ele>882.79998779297</ele>
        <time>2019-03-30T14:25:53.000Z</time>
      </trkpt>
      <trkpt lat="43.95184" lon="7.30352">
        <ele>883.20001220703</ele>
        <time>2019-03-30T14:25:56.000Z</time>
      </trkpt>
      <trkpt lat="43.95184" lon="7.30351">
        <ele>883.40002441406</ele>
        <time>2019-03-30T14:25:58.000Z</time>
      </trkpt>
      <trkpt lat="43.95184" lon="7.3035">
        <ele>883.20001220703</ele>
        <time>2019-03-30T14:25:59.000Z</time>
      </trkpt>
      <trkpt lat="43.95184" lon="7.30342">
        <ele>882.59997558594</ele>
        <time>2019-03-30T14:26:03.000Z</time>
      </trkpt>
      <trkpt lat="43.95185" lon="7.30339">
        <ele>882.20001220703</ele>
        <time>2019-03-30T14:26:04.000Z</time>
      </trkpt>
      <trkpt lat="43.95186" lon="7.30338">
        <ele>881.79998779297</ele>
        <time>2019-03-30T14:26:05.000Z</time>
      </trkpt>
      <trkpt lat="43.95187" lon="7.30338">
        <ele>881</ele>
        <time>2019-03-30T14:26:06.000Z</time>
      </trkpt>
      <trkpt lat="43.95188" lon="7.30338">
        <ele>880.59997558594</ele>
        <time>2019-03-30T14:26:07.000Z</time>
      </trkpt>
      <trkpt lat="43.95191" lon="7.30339">
        <ele>879.59997558594</ele>
        <time>2019-03-30T14:26:09.000Z</time>
      </trkpt>
      <trkpt lat="43.95197" lon="7.30344">
        <ele>878.79998779297</ele>
        <time>2019-03-30T14:26:13.000Z</time>
      </trkpt>
      <trkpt lat="43.95209" lon="7.30354">
        <ele>879.20001220703</ele>
        <time>2019-03-30T14:26:19.000Z</time>
      </trkpt>
      <trkpt lat="43.95219" lon="7.30361">
        <ele>879.20001220703</ele>
        <time>2019-03-30T14:26:23.000Z</time>
      </trkpt>
      <trkpt lat="43.95223" lon="7.30364">
        <ele>878.79998779297</ele>
        <time>2019-03-30T14:26:27.000Z</time>
      </trkpt>
      <trkpt lat="43.95224" lon="7.30365">
        <ele>878.59997558594</ele>
        <time>2019-03-30T14:26:28.000Z</time>
      </trkpt>
      <trkpt lat="43.95232" lon="7.30371">
        <ele>877.59997558594</ele>
        <time>2019-03-30T14:26:31.000Z</time>
      </trkpt>
      <trkpt lat="43.95234" lon="7.30375">
        <ele>877.20001220703</ele>
        <time>2019-03-30T14:26:32.000Z</time>
      </trkpt>
      <trkpt lat="43.9524" lon="7.30384">
        <ele>876.20001220703</ele>
        <time>2019-03-30T14:26:34.000Z</time>
      </trkpt>
      <trkpt lat="43.95242" lon="7.30389">
        <ele>875.59997558594</ele>
        <time>2019-03-30T14:26:35.000Z</time>
      </trkpt>
      <trkpt lat="43.95248" lon="7.30401">
        <ele>875.20001220703</ele>
        <time>2019-03-30T14:26:38.000Z</time>
      </trkpt>
      <trkpt lat="43.95253" lon="7.30405">
        <ele>875</ele>
        <time>2019-03-30T14:26:39.000Z</time>
      </trkpt>
      <trkpt lat="43.95269" lon="7.30415">
        <ele>874.20001220703</ele>
        <time>2019-03-30T14:26:42.000Z</time>
      </trkpt>
      <trkpt lat="43.95273" lon="7.30417">
        <ele>873.79998779297</ele>
        <time>2019-03-30T14:26:43.000Z</time>
      </trkpt>
      <trkpt lat="43.95283" lon="7.30421">
        <ele>873</ele>
        <time>2019-03-30T14:26:46.000Z</time>
      </trkpt>
      <trkpt lat="43.95288" lon="7.30423">
        <ele>873.20001220703</ele>
        <time>2019-03-30T14:26:47.000Z</time>
      </trkpt>
      <trkpt lat="43.95291" lon="7.30426">
        <ele>873.40002441406</ele>
        <time>2019-03-30T14:26:48.000Z</time>
      </trkpt>
      <trkpt lat="43.95305" lon="7.30431">
        <ele>873.40002441406</ele>
        <time>2019-03-30T14:26:51.000Z</time>
      </trkpt>
      <trkpt lat="43.95312" lon="7.30436">
        <ele>873.59997558594</ele>
        <time>2019-03-30T14:26:53.000Z</time>
      </trkpt>
      <trkpt lat="43.95321" lon="7.30445">
        <ele>874</ele>
        <time>2019-03-30T14:26:55.000Z</time>
      </trkpt>
      <trkpt lat="43.95325" lon="7.30449">
        <ele>874</ele>
        <time>2019-03-30T14:26:56.000Z</time>
      </trkpt>
      <trkpt lat="43.95328" lon="7.30455">
        <ele>873.79998779297</ele>
        <time>2019-03-30T14:26:57.000Z</time>
      </trkpt>
      <trkpt lat="43.95331" lon="7.30465">
        <ele>873.59997558594</ele>
        <time>2019-03-30T14:26:59.000Z</time>
      </trkpt>
      <trkpt lat="43.95331" lon="7.30473">
        <ele>873.59997558594</ele>
        <time>2019-03-30T14:27:01.000Z</time>
      </trkpt>
      <trkpt lat="43.9533" lon="7.30477">
        <ele>874</ele>
        <time>2019-03-30T14:27:02.000Z</time>
      </trkpt>
      <trkpt lat="43.95327" lon="7.30481">
        <ele>874</ele>
        <time>2019-03-30T14:27:03.000Z</time>
      </trkpt>
      <trkpt lat="43.95327" lon="7.30503">
        <ele>874</ele>
        <time>2019-03-30T14:27:07.000Z</time>
      </trkpt>
      <trkpt lat="43.95329" lon="7.30513">
        <ele>873</ele>
        <time>2019-03-30T14:27:10.000Z</time>
      </trkpt>
      <trkpt lat="43.95333" lon="7.30521">
        <ele>874.20001220703</ele>
        <time>2019-03-30T14:27:14.000Z</time>
      </trkpt>
      <trkpt lat="43.95334" lon="7.30526">
        <ele>875.20001220703</ele>
        <time>2019-03-30T14:27:16.000Z</time>
      </trkpt>
      <trkpt lat="43.95333" lon="7.30529">
        <ele>875.40002441406</ele>
        <time>2019-03-30T14:27:17.000Z</time>
      </trkpt>
      <trkpt lat="43.95332" lon="7.30537">
        <ele>876</ele>
        <time>2019-03-30T14:27:19.000Z</time>
      </trkpt>
      <trkpt lat="43.9533" lon="7.30545">
        <ele>876.40002441406</ele>
        <time>2019-03-30T14:27:21.000Z</time>
      </trkpt>
      <trkpt lat="43.95329" lon="7.30561">
        <ele>877</ele>
        <time>2019-03-30T14:27:25.000Z</time>
      </trkpt>
      <trkpt lat="43.9533" lon="7.30567">
        <ele>877</ele>
        <time>2019-03-30T14:27:26.000Z</time>
      </trkpt>
      <trkpt lat="43.95332" lon="7.30583">
        <ele>875.79998779297</ele>
        <time>2019-03-30T14:27:28.000Z</time>
      </trkpt>
      <trkpt lat="43.95335" lon="7.30591">
        <ele>874.79998779297</ele>
        <time>2019-03-30T14:27:29.000Z</time>
      </trkpt>
      <trkpt lat="43.95337" lon="7.30599">
        <ele>873.79998779297</ele>
        <time>2019-03-30T14:27:30.000Z</time>
      </trkpt>
      <trkpt lat="43.95339" lon="7.30607">
        <ele>872.79998779297</ele>
        <time>2019-03-30T14:27:31.000Z</time>
      </trkpt>
      <trkpt lat="43.95343" lon="7.30616">
        <ele>871.79998779297</ele>
        <time>2019-03-30T14:27:32.000Z</time>
      </trkpt>
      <trkpt lat="43.95347" lon="7.30623">
        <ele>870.59997558594</ele>
        <time>2019-03-30T14:27:33.000Z</time>
      </trkpt>
      <trkpt lat="43.95355" lon="7.30635">
        <ele>869.40002441406</ele>
        <time>2019-03-30T14:27:35.000Z</time>
      </trkpt>
      <trkpt lat="43.95357" lon="7.30642">
        <ele>869</ele>
        <time>2019-03-30T14:27:36.000Z</time>
      </trkpt>
      <trkpt lat="43.9536" lon="7.3065">
        <ele>868.20001220703</ele>
        <time>2019-03-30T14:27:37.000Z</time>
      </trkpt>
      <trkpt lat="43.95367" lon="7.30657">
        <ele>868</ele>
        <time>2019-03-30T14:27:39.000Z</time>
      </trkpt>
      <trkpt lat="43.9537" lon="7.30659">
        <ele>867.40002441406</ele>
        <time>2019-03-30T14:27:40.000Z</time>
      </trkpt>
      <trkpt lat="43.95371" lon="7.3066">
        <ele>867.20001220703</ele>
        <time>2019-03-30T14:27:41.000Z</time>
      </trkpt>
      <trkpt lat="43.95372" lon="7.30659">
        <ele>866.79998779297</ele>
        <time>2019-03-30T14:27:42.000Z</time>
      </trkpt>
      <trkpt lat="43.95377" lon="7.30663">
        <ele>865.59997558594</ele>
        <time>2019-03-30T14:27:44.000Z</time>
      </trkpt>
      <trkpt lat="43.9538" lon="7.30665">
        <ele>865.59997558594</ele>
        <time>2019-03-30T14:27:45.000Z</time>
      </trkpt>
      <trkpt lat="43.95383" lon="7.30669">
        <ele>865.20001220703</ele>
        <time>2019-03-30T14:27:46.000Z</time>
      </trkpt>
      <trkpt lat="43.95387" lon="7.30674">
        <ele>864.59997558594</ele>
        <time>2019-03-30T14:27:47.000Z</time>
      </trkpt>
      <trkpt lat="43.95391" lon="7.30679">
        <ele>864</ele>
        <time>2019-03-30T14:27:48.000Z</time>
      </trkpt>
      <trkpt lat="43.95395" lon="7.30683">
        <ele>863.20001220703</ele>
        <time>2019-03-30T14:27:49.000Z</time>
      </trkpt>
      <trkpt lat="43.95399" lon="7.30686">
        <ele>862.59997558594</ele>
        <time>2019-03-30T14:27:50.000Z</time>
      </trkpt>
      <trkpt lat="43.95405" lon="7.30688">
        <ele>861</ele>
        <time>2019-03-30T14:27:52.000Z</time>
      </trkpt>
      <trkpt lat="43.95417" lon="7.30692">
        <ele>860.40002441406</ele>
        <time>2019-03-30T14:27:54.000Z</time>
      </trkpt>
      <trkpt lat="43.95421" lon="7.30694">
        <ele>859.40002441406</ele>
        <time>2019-03-30T14:27:55.000Z</time>
      </trkpt>
      <trkpt lat="43.95427" lon="7.30699">
        <ele>858.40002441406</ele>
        <time>2019-03-30T14:27:57.000Z</time>
      </trkpt>
      <trkpt lat="43.95429" lon="7.30701">
        <ele>857.59997558594</ele>
        <time>2019-03-30T14:27:58.000Z</time>
      </trkpt>
      <trkpt lat="43.95432" lon="7.30705">
        <ele>856.79998779297</ele>
        <time>2019-03-30T14:27:59.000Z</time>
      </trkpt>
      <trkpt lat="43.95433" lon="7.3071">
        <ele>855.79998779297</ele>
        <time>2019-03-30T14:28:00.000Z</time>
      </trkpt>
      <trkpt lat="43.95436" lon="7.30715">
        <ele>855.20001220703</ele>
        <time>2019-03-30T14:28:01.000Z</time>
      </trkpt>
      <trkpt lat="43.9544" lon="7.30721">
        <ele>854</ele>
        <time>2019-03-30T14:28:02.000Z</time>
      </trkpt>
      <trkpt lat="43.95447" lon="7.30732">
        <ele>851.59997558594</ele>
        <time>2019-03-30T14:28:04.000Z</time>
      </trkpt>
      <trkpt lat="43.9545" lon="7.30735">
        <ele>850.59997558594</ele>
        <time>2019-03-30T14:28:05.000Z</time>
      </trkpt>
      <trkpt lat="43.95456" lon="7.30738">
        <ele>849</ele>
        <time>2019-03-30T14:28:06.000Z</time>
      </trkpt>
      <trkpt lat="43.95461" lon="7.30741">
        <ele>847.20001220703</ele>
        <time>2019-03-30T14:28:07.000Z</time>
      </trkpt>
      <trkpt lat="43.95465" lon="7.30746">
        <ele>845</ele>
        <time>2019-03-30T14:28:08.000Z</time>
      </trkpt>
      <trkpt lat="43.95471" lon="7.30752">
        <ele>843.20001220703</ele>
        <time>2019-03-30T14:28:09.000Z</time>
      </trkpt>
      <trkpt lat="43.95475" lon="7.30757">
        <ele>841.20001220703</ele>
        <time>2019-03-30T14:28:10.000Z</time>
      </trkpt>
      <trkpt lat="43.95479" lon="7.30763">
        <ele>840.59997558594</ele>
        <time>2019-03-30T14:28:11.000Z</time>
      </trkpt>
      <trkpt lat="43.95482" lon="7.30767">
        <ele>839</ele>
        <time>2019-03-30T14:28:12.000Z</time>
      </trkpt>
      <trkpt lat="43.95488" lon="7.30771">
        <ele>837.59997558594</ele>
        <time>2019-03-30T14:28:14.000Z</time>
      </trkpt>
      <trkpt lat="43.95494" lon="7.30771">
        <ele>836.59997558594</ele>
        <time>2019-03-30T14:28:16.000Z</time>
      </trkpt>
      <trkpt lat="43.95502" lon="7.30772">
        <ele>835.20001220703</ele>
        <time>2019-03-30T14:28:18.000Z</time>
      </trkpt>
      <trkpt lat="43.9551" lon="7.30774">
        <ele>833.40002441406</ele>
        <time>2019-03-30T14:28:20.000Z</time>
      </trkpt>
      <trkpt lat="43.95519" lon="7.30777">
        <ele>832.20001220703</ele>
        <time>2019-03-30T14:28:22.000Z</time>
      </trkpt>
      <trkpt lat="43.95529" lon="7.3078">
        <ele>831.20001220703</ele>
        <time>2019-03-30T14:28:24.000Z</time>
      </trkpt>
      <trkpt lat="43.95534" lon="7.30783">
        <ele>830.59997558594</ele>
        <time>2019-03-30T14:28:25.000Z</time>
      </trkpt>
      <trkpt lat="43.95539" lon="7.30784">
        <ele>829.40002441406</ele>
        <time>2019-03-30T14:28:26.000Z</time>
      </trkpt>
      <trkpt lat="43.95545" lon="7.3079">
        <ele>828</ele>
        <time>2019-03-30T14:28:28.000Z</time>
      </trkpt>
      <trkpt lat="43.95562" lon="7.30798">
        <ele>827</ele>
        <time>2019-03-30T14:28:32.000Z</time>
      </trkpt>
      <trkpt lat="43.95568" lon="7.30798">
        <ele>826.59997558594</ele>
        <time>2019-03-30T14:28:33.000Z</time>
      </trkpt>
      <trkpt lat="43.95579" lon="7.30799">
        <ele>825.20001220703</ele>
        <time>2019-03-30T14:28:35.000Z</time>
      </trkpt>
      <trkpt lat="43.95583" lon="7.308">
        <ele>823.79998779297</ele>
        <time>2019-03-30T14:28:36.000Z</time>
      </trkpt>
      <trkpt lat="43.95588" lon="7.308">
        <ele>822.59997558594</ele>
        <time>2019-03-30T14:28:37.000Z</time>
      </trkpt>
      <trkpt lat="43.95592" lon="7.30801">
        <ele>821.59997558594</ele>
        <time>2019-03-30T14:28:38.000Z</time>
      </trkpt>
      <trkpt lat="43.95595" lon="7.30801">
        <ele>820.59997558594</ele>
        <time>2019-03-30T14:28:39.000Z</time>
      </trkpt>
      <trkpt lat="43.95603" lon="7.308">
        <ele>819.40002441406</ele>
        <time>2019-03-30T14:28:41.000Z</time>
      </trkpt>
      <trkpt lat="43.95617" lon="7.30799">
        <ele>818.59997558594</ele>
        <time>2019-03-30T14:28:44.000Z</time>
      </trkpt>
      <trkpt lat="43.95622" lon="7.30796">
        <ele>818</ele>
        <time>2019-03-30T14:28:45.000Z</time>
      </trkpt>
      <trkpt lat="43.95636" lon="7.30786">
        <ele>816.40002441406</ele>
        <time>2019-03-30T14:28:48.000Z</time>
      </trkpt>
      <trkpt lat="43.95638" lon="7.30785">
        <ele>815.59997558594</ele>
        <time>2019-03-30T14:28:49.000Z</time>
      </trkpt>
      <trkpt lat="43.9564" lon="7.30784">
        <ele>815.20001220703</ele>
        <time>2019-03-30T14:28:50.000Z</time>
      </trkpt>
      <trkpt lat="43.95647" lon="7.30779">
        <ele>814.40002441406</ele>
        <time>2019-03-30T14:28:53.000Z</time>
      </trkpt>
      <trkpt lat="43.95651" lon="7.30778">
        <ele>814</ele>
        <time>2019-03-30T14:28:54.000Z</time>
      </trkpt>
      <trkpt lat="43.95656" lon="7.30774">
        <ele>813.59997558594</ele>
        <time>2019-03-30T14:28:55.000Z</time>
      </trkpt>
      <trkpt lat="43.95667" lon="7.30769">
        <ele>812.40002441406</ele>
        <time>2019-03-30T14:28:57.000Z</time>
      </trkpt>
      <trkpt lat="43.95676" lon="7.30772">
        <ele>810.40002441406</ele>
        <time>2019-03-30T14:28:59.000Z</time>
      </trkpt>
      <trkpt lat="43.95681" lon="7.30775">
        <ele>809.40002441406</ele>
        <time>2019-03-30T14:29:00.000Z</time>
      </trkpt>
      <trkpt lat="43.95685" lon="7.3078">
        <ele>808.40002441406</ele>
        <time>2019-03-30T14:29:01.000Z</time>
      </trkpt>
      <trkpt lat="43.95696" lon="7.30795">
        <ele>807.40002441406</ele>
        <time>2019-03-30T14:29:04.000Z</time>
      </trkpt>
      <trkpt lat="43.957" lon="7.30801">
        <ele>807.20001220703</ele>
        <time>2019-03-30T14:29:05.000Z</time>
      </trkpt>
      <trkpt lat="43.95704" lon="7.30805">
        <ele>807</ele>
        <time>2019-03-30T14:29:06.000Z</time>
      </trkpt>
      <trkpt lat="43.95713" lon="7.30808">
        <ele>806.40002441406</ele>
        <time>2019-03-30T14:29:08.000Z</time>
      </trkpt>
      <trkpt lat="43.95722" lon="7.3081">
        <ele>806.40002441406</ele>
        <time>2019-03-30T14:29:10.000Z</time>
      </trkpt>
      <trkpt lat="43.95732" lon="7.30805">
        <ele>806.20001220703</ele>
        <time>2019-03-30T14:29:12.000Z</time>
      </trkpt>
      <trkpt lat="43.95741" lon="7.30798">
        <ele>805.59997558594</ele>
        <time>2019-03-30T14:29:14.000Z</time>
      </trkpt>
      <trkpt lat="43.95746" lon="7.30798">
        <ele>805.20001220703</ele>
        <time>2019-03-30T14:29:15.000Z</time>
      </trkpt>
      <trkpt lat="43.9575" lon="7.30798">
        <ele>804.59997558594</ele>
        <time>2019-03-30T14:29:16.000Z</time>
      </trkpt>
      <trkpt lat="43.95758" lon="7.30799">
        <ele>804</ele>
        <time>2019-03-30T14:29:18.000Z</time>
      </trkpt>
      <trkpt lat="43.95767" lon="7.30807">
        <ele>803.59997558594</ele>
        <time>2019-03-30T14:29:20.000Z</time>
      </trkpt>
      <trkpt lat="43.95776" lon="7.30813">
        <ele>802.79998779297</ele>
        <time>2019-03-30T14:29:22.000Z</time>
      </trkpt>
      <trkpt lat="43.95784" lon="7.30819">
        <ele>801.40002441406</ele>
        <time>2019-03-30T14:29:24.000Z</time>
      </trkpt>
      <trkpt lat="43.95788" lon="7.30823">
        <ele>800.79998779297</ele>
        <time>2019-03-30T14:29:25.000Z</time>
      </trkpt>
      <trkpt lat="43.95796" lon="7.30829">
        <ele>799.79998779297</ele>
        <time>2019-03-30T14:29:27.000Z</time>
      </trkpt>
      <trkpt lat="43.95799" lon="7.30831">
        <ele>798.79998779297</ele>
        <time>2019-03-30T14:29:28.000Z</time>
      </trkpt>
      <trkpt lat="43.958" lon="7.30835">
        <ele>797.40002441406</ele>
        <time>2019-03-30T14:29:29.000Z</time>
      </trkpt>
      <trkpt lat="43.95801" lon="7.30843">
        <ele>796.40002441406</ele>
        <time>2019-03-30T14:29:31.000Z</time>
      </trkpt>
      <trkpt lat="43.95801" lon="7.30849">
        <ele>795.20001220703</ele>
        <time>2019-03-30T14:29:33.000Z</time>
      </trkpt>
      <trkpt lat="43.95797" lon="7.30856">
        <ele>794.79998779297</ele>
        <time>2019-03-30T14:29:35.000Z</time>
      </trkpt>
      <trkpt lat="43.95796" lon="7.30858">
        <ele>794</ele>
        <time>2019-03-30T14:29:36.000Z</time>
      </trkpt>
      <trkpt lat="43.9579" lon="7.30866">
        <ele>792.79998779297</ele>
        <time>2019-03-30T14:29:39.000Z</time>
      </trkpt>
      <trkpt lat="43.9579" lon="7.30868">
        <ele>792.59997558594</ele>
        <time>2019-03-30T14:29:40.000Z</time>
      </trkpt>
      <trkpt lat="43.95791" lon="7.30871">
        <ele>791.40002441406</ele>
        <time>2019-03-30T14:29:42.000Z</time>
      </trkpt>
      <trkpt lat="43.95796" lon="7.3087">
        <ele>790</ele>
        <time>2019-03-30T14:29:44.000Z</time>
      </trkpt>
      <trkpt lat="43.95798" lon="7.30868">
        <ele>788.79998779297</ele>
        <time>2019-03-30T14:29:45.000Z</time>
      </trkpt>
      <trkpt lat="43.95801" lon="7.30869">
        <ele>787.20001220703</ele>
        <time>2019-03-30T14:29:46.000Z</time>
      </trkpt>
      <trkpt lat="43.95803" lon="7.30869">
        <ele>785.79998779297</ele>
        <time>2019-03-30T14:29:47.000Z</time>
      </trkpt>
      <trkpt lat="43.95804" lon="7.30868">
        <ele>784.20001220703</ele>
        <time>2019-03-30T14:29:48.000Z</time>
      </trkpt>
      <trkpt lat="43.95806" lon="7.30868">
        <ele>783</ele>
        <time>2019-03-30T14:29:49.000Z</time>
      </trkpt>
      <trkpt lat="43.95808" lon="7.30868">
        <ele>782</ele>
        <time>2019-03-30T14:29:50.000Z</time>
      </trkpt>
      <trkpt lat="43.95809" lon="7.30871">
        <ele>780.40002441406</ele>
        <time>2019-03-30T14:29:52.000Z</time>
      </trkpt>
      <trkpt lat="43.95805" lon="7.30874">
        <ele>779.40002441406</ele>
        <time>2019-03-30T14:29:54.000Z</time>
      </trkpt>
      <trkpt lat="43.95804" lon="7.30877">
        <ele>778.20001220703</ele>
        <time>2019-03-30T14:29:56.000Z</time>
      </trkpt>
      <trkpt lat="43.95804" lon="7.30877">
        <ele>777</ele>
        <time>2019-03-30T14:29:58.000Z</time>
      </trkpt>
      <trkpt lat="43.95804" lon="7.30877">
        <ele>775.79998779297</ele>
        <time>2019-03-30T14:30:01.000Z</time>
      </trkpt>
      <trkpt lat="43.95804" lon="7.30877">
        <ele>775.59997558594</ele>
        <time>2019-03-30T14:30:02.000Z</time>
      </trkpt>
      <trkpt lat="43.95806" lon="7.30878">
        <ele>775.20001220703</ele>
        <time>2019-03-30T14:30:08.000Z</time>
      </trkpt>
      <trkpt lat="43.95809" lon="7.30878">
        <ele>775</ele>
        <time>2019-03-30T14:30:10.000Z</time>
      </trkpt>
      <trkpt lat="43.95816" lon="7.30878">
        <ele>774.79998779297</ele>
        <time>2019-03-30T14:30:12.000Z</time>
      </trkpt>
      <trkpt lat="43.95828" lon="7.30878">
        <ele>773.59997558594</ele>
        <time>2019-03-30T14:30:15.000Z</time>
      </trkpt>
      <trkpt lat="43.95832" lon="7.30878">
        <ele>773.20001220703</ele>
        <time>2019-03-30T14:30:16.000Z</time>
      </trkpt>
      <trkpt lat="43.95838" lon="7.30879">
        <ele>772</ele>
        <time>2019-03-30T14:30:18.000Z</time>
      </trkpt>
      <trkpt lat="43.95844" lon="7.30879">
        <ele>770.20001220703</ele>
        <time>2019-03-30T14:30:20.000Z</time>
      </trkpt>
      <trkpt lat="43.95849" lon="7.30878">
        <ele>769</ele>
        <time>2019-03-30T14:30:21.000Z</time>
      </trkpt>
      <trkpt lat="43.95853" lon="7.30878">
        <ele>767.59997558594</ele>
        <time>2019-03-30T14:30:22.000Z</time>
      </trkpt>
      <trkpt lat="43.95857" lon="7.3088">
        <ele>766.20001220703</ele>
        <time>2019-03-30T14:30:23.000Z</time>
      </trkpt>
      <trkpt lat="43.95863" lon="7.30883">
        <ele>765.20001220703</ele>
        <time>2019-03-30T14:30:24.000Z</time>
      </trkpt>
      <trkpt lat="43.95868" lon="7.30887">
        <ele>764</ele>
        <time>2019-03-30T14:30:25.000Z</time>
      </trkpt>
      <trkpt lat="43.95874" lon="7.30889">
        <ele>762.59997558594</ele>
        <time>2019-03-30T14:30:26.000Z</time>
      </trkpt>
      <trkpt lat="43.95884" lon="7.3089">
        <ele>761.20001220703</ele>
        <time>2019-03-30T14:30:28.000Z</time>
      </trkpt>
      <trkpt lat="43.9589" lon="7.3089">
        <ele>760.20001220703</ele>
        <time>2019-03-30T14:30:29.000Z</time>
      </trkpt>
      <trkpt lat="43.95896" lon="7.3089">
        <ele>759.59997558594</ele>
        <time>2019-03-30T14:30:30.000Z</time>
      </trkpt>
      <trkpt lat="43.95905" lon="7.30892">
        <ele>758.40002441406</ele>
        <time>2019-03-30T14:30:32.000Z</time>
      </trkpt>
      <trkpt lat="43.95909" lon="7.30894">
        <ele>758</ele>
        <time>2019-03-30T14:30:33.000Z</time>
      </trkpt>
      <trkpt lat="43.95916" lon="7.30896">
        <ele>757</ele>
        <time>2019-03-30T14:30:35.000Z</time>
      </trkpt>
      <trkpt lat="43.95922" lon="7.30899">
        <ele>756.59997558594</ele>
        <time>2019-03-30T14:30:37.000Z</time>
      </trkpt>
      <trkpt lat="43.95924" lon="7.309">
        <ele>755.59997558594</ele>
        <time>2019-03-30T14:30:38.000Z</time>
      </trkpt>
      <trkpt lat="43.9593" lon="7.30897">
        <ele>754</ele>
        <time>2019-03-30T14:30:40.000Z</time>
      </trkpt>
      <trkpt lat="43.95934" lon="7.30896">
        <ele>752.59997558594</ele>
        <time>2019-03-30T14:30:41.000Z</time>
      </trkpt>
      <trkpt lat="43.95938" lon="7.30895">
        <ele>750.79998779297</ele>
        <time>2019-03-30T14:30:42.000Z</time>
      </trkpt>
      <trkpt lat="43.9594" lon="7.30892">
        <ele>749.59997558594</ele>
        <time>2019-03-30T14:30:43.000Z</time>
      </trkpt>
      <trkpt lat="43.95944" lon="7.30889">
        <ele>747.20001220703</ele>
        <time>2019-03-30T14:30:44.000Z</time>
      </trkpt>
      <trkpt lat="43.95949" lon="7.30885">
        <ele>745.40002441406</ele>
        <time>2019-03-30T14:30:46.000Z</time>
      </trkpt>
      <trkpt lat="43.95953" lon="7.30885">
        <ele>743.59997558594</ele>
        <time>2019-03-30T14:30:48.000Z</time>
      </trkpt>
      <trkpt lat="43.95958" lon="7.30888">
        <ele>742.20001220703</ele>
        <time>2019-03-30T14:30:50.000Z</time>
      </trkpt>
      <trkpt lat="43.95961" lon="7.30891">
        <ele>740.79998779297</ele>
        <time>2019-03-30T14:30:52.000Z</time>
      </trkpt>
      <trkpt lat="43.95963" lon="7.30892">
        <ele>740.40002441406</ele>
        <time>2019-03-30T14:30:53.000Z</time>
      </trkpt>
      <trkpt lat="43.95967" lon="7.30895">
        <ele>739.40002441406</ele>
        <time>2019-03-30T14:30:55.000Z</time>
      </trkpt>
      <trkpt lat="43.9597" lon="7.30895">
        <ele>738</ele>
        <time>2019-03-30T14:30:57.000Z</time>
      </trkpt>
      <trkpt lat="43.95973" lon="7.30895">
        <ele>736.79998779297</ele>
        <time>2019-03-30T14:30:58.000Z</time>
      </trkpt>
      <trkpt lat="43.95982" lon="7.30897">
        <ele>735.40002441406</ele>
        <time>2019-03-30T14:31:00.000Z</time>
      </trkpt>
      <trkpt lat="43.95987" lon="7.30899">
        <ele>734.40002441406</ele>
        <time>2019-03-30T14:31:01.000Z</time>
      </trkpt>
      <trkpt lat="43.95993" lon="7.30902">
        <ele>732.79998779297</ele>
        <time>2019-03-30T14:31:03.000Z</time>
      </trkpt>
      <trkpt lat="43.95994" lon="7.30903">
        <ele>731.59997558594</ele>
        <time>2019-03-30T14:31:04.000Z</time>
      </trkpt>
      <trkpt lat="43.96" lon="7.30906">
        <ele>730.20001220703</ele>
        <time>2019-03-30T14:31:07.000Z</time>
      </trkpt>
      <trkpt lat="43.96002" lon="7.30905">
        <ele>729.59997558594</ele>
        <time>2019-03-30T14:31:08.000Z</time>
      </trkpt>
      <trkpt lat="43.96005" lon="7.30903">
        <ele>729</ele>
        <time>2019-03-30T14:31:09.000Z</time>
      </trkpt>
      <trkpt lat="43.96008" lon="7.30901">
        <ele>727.59997558594</ele>
        <time>2019-03-30T14:31:11.000Z</time>
      </trkpt>
      <trkpt lat="43.96008" lon="7.30899">
        <ele>727</ele>
        <time>2019-03-30T14:31:12.000Z</time>
      </trkpt>
      <trkpt lat="43.96008" lon="7.30896">
        <ele>726.40002441406</ele>
        <time>2019-03-30T14:31:13.000Z</time>
      </trkpt>
      <trkpt lat="43.96006" lon="7.30895">
        <ele>725.40002441406</ele>
        <time>2019-03-30T14:31:14.000Z</time>
      </trkpt>
      <trkpt lat="43.96003" lon="7.30893">
        <ele>724.20001220703</ele>
        <time>2019-03-30T14:31:15.000Z</time>
      </trkpt>
      <trkpt lat="43.96003" lon="7.30892">
        <ele>723</ele>
        <time>2019-03-30T14:31:16.000Z</time>
      </trkpt>
      <trkpt lat="43.96001" lon="7.30891">
        <ele>721.79998779297</ele>
        <time>2019-03-30T14:31:17.000Z</time>
      </trkpt>
      <trkpt lat="43.96" lon="7.30889">
        <ele>720.40002441406</ele>
        <time>2019-03-30T14:31:18.000Z</time>
      </trkpt>
      <trkpt lat="43.96002" lon="7.30888">
        <ele>719</ele>
        <time>2019-03-30T14:31:19.000Z</time>
      </trkpt>
      <trkpt lat="43.96002" lon="7.30887">
        <ele>718</ele>
        <time>2019-03-30T14:31:20.000Z</time>
      </trkpt>
      <trkpt lat="43.96" lon="7.30879">
        <ele>716.59997558594</ele>
        <time>2019-03-30T14:31:22.000Z</time>
      </trkpt>
      <trkpt lat="43.95999" lon="7.30876">
        <ele>715.79998779297</ele>
        <time>2019-03-30T14:31:23.000Z</time>
      </trkpt>
      <trkpt lat="43.95998" lon="7.30873">
        <ele>714.79998779297</ele>
        <time>2019-03-30T14:31:24.000Z</time>
      </trkpt>
      <trkpt lat="43.95998" lon="7.30871">
        <ele>715.59997558594</ele>
        <time>2019-03-30T14:31:25.000Z</time>
      </trkpt>
      <trkpt lat="43.95999" lon="7.3087">
        <ele>714.79998779297</ele>
        <time>2019-03-30T14:31:26.000Z</time>
      </trkpt>
      <trkpt lat="43.96001" lon="7.30868">
        <ele>713.79998779297</ele>
        <time>2019-03-30T14:31:28.000Z</time>
      </trkpt>
      <trkpt lat="43.96001" lon="7.30865">
        <ele>713</ele>
        <time>2019-03-30T14:31:30.000Z</time>
      </trkpt>
      <trkpt lat="43.95999" lon="7.30864">
        <ele>712</ele>
        <time>2019-03-30T14:31:32.000Z</time>
      </trkpt>
      <trkpt lat="43.95993" lon="7.30857">
        <ele>711.20001220703</ele>
        <time>2019-03-30T14:31:34.000Z</time>
      </trkpt>
      <trkpt lat="43.95989" lon="7.30854">
        <ele>710.79998779297</ele>
        <time>2019-03-30T14:31:35.000Z</time>
      </trkpt>
      <trkpt lat="43.95978" lon="7.30847">
        <ele>709.40002441406</ele>
        <time>2019-03-30T14:31:37.000Z</time>
      </trkpt>
      <trkpt lat="43.95974" lon="7.30841">
        <ele>709</ele>
        <time>2019-03-30T14:31:38.000Z</time>
      </trkpt>
      <trkpt lat="43.95966" lon="7.3083">
        <ele>708</ele>
        <time>2019-03-30T14:31:40.000Z</time>
      </trkpt>
      <trkpt lat="43.95963" lon="7.30824">
        <ele>707.20001220703</ele>
        <time>2019-03-30T14:31:41.000Z</time>
      </trkpt>
      <trkpt lat="43.9596" lon="7.3082">
        <ele>705.79998779297</ele>
        <time>2019-03-30T14:31:42.000Z</time>
      </trkpt>
      <trkpt lat="43.95955" lon="7.30819">
        <ele>704.59997558594</ele>
        <time>2019-03-30T14:31:43.000Z</time>
      </trkpt>
      <trkpt lat="43.9595" lon="7.30817">
        <ele>703.59997558594</ele>
        <time>2019-03-30T14:31:44.000Z</time>
      </trkpt>
      <trkpt lat="43.95945" lon="7.30817">
        <ele>702.59997558594</ele>
        <time>2019-03-30T14:31:45.000Z</time>
      </trkpt>
      <trkpt lat="43.9594" lon="7.30816">
        <ele>702.20001220703</ele>
        <time>2019-03-30T14:31:46.000Z</time>
      </trkpt>
      <trkpt lat="43.9593" lon="7.30813">
        <ele>701.40002441406</ele>
        <time>2019-03-30T14:31:48.000Z</time>
      </trkpt>
      <trkpt lat="43.95925" lon="7.30808">
        <ele>701.40002441406</ele>
        <time>2019-03-30T14:31:49.000Z</time>
      </trkpt>
      <trkpt lat="43.95916" lon="7.30795">
        <ele>700.59997558594</ele>
        <time>2019-03-30T14:31:53.000Z</time>
      </trkpt>
      <trkpt lat="43.95922" lon="7.30792">
        <ele>700.40002441406</ele>
        <time>2019-03-30T14:31:56.000Z</time>
      </trkpt>
      <trkpt lat="43.95924" lon="7.30793">
        <ele>700.20001220703</ele>
        <time>2019-03-30T14:31:57.000Z</time>
      </trkpt>
      <trkpt lat="43.9593" lon="7.30795">
        <ele>698.40002441406</ele>
        <time>2019-03-30T14:31:59.000Z</time>
      </trkpt>
      <trkpt lat="43.95934" lon="7.30795">
        <ele>697.59997558594</ele>
        <time>2019-03-30T14:32:00.000Z</time>
      </trkpt>
      <trkpt lat="43.95936" lon="7.30792">
        <ele>696.79998779297</ele>
        <time>2019-03-30T14:32:01.000Z</time>
      </trkpt>
      <trkpt lat="43.9594" lon="7.3079">
        <ele>696</ele>
        <time>2019-03-30T14:32:02.000Z</time>
      </trkpt>
      <trkpt lat="43.95942" lon="7.30788">
        <ele>695.59997558594</ele>
        <time>2019-03-30T14:32:03.000Z</time>
      </trkpt>
      <trkpt lat="43.95949" lon="7.30783">
        <ele>694.40002441406</ele>
        <time>2019-03-30T14:32:06.000Z</time>
      </trkpt>
      <trkpt lat="43.95954" lon="7.30782">
        <ele>693.40002441406</ele>
        <time>2019-03-30T14:32:08.000Z</time>
      </trkpt>
      <trkpt lat="43.9596" lon="7.30781">
        <ele>691.79998779297</ele>
        <time>2019-03-30T14:32:10.000Z</time>
      </trkpt>
      <trkpt lat="43.95962" lon="7.3078">
        <ele>690.79998779297</ele>
        <time>2019-03-30T14:32:11.000Z</time>
      </trkpt>
      <trkpt lat="43.95964" lon="7.30779">
        <ele>689.59997558594</ele>
        <time>2019-03-30T14:32:12.000Z</time>
      </trkpt>
      <trkpt lat="43.95967" lon="7.30778">
        <ele>688.40002441406</ele>
        <time>2019-03-30T14:32:13.000Z</time>
      </trkpt>
      <trkpt lat="43.95968" lon="7.30779">
        <ele>687.40002441406</ele>
        <time>2019-03-30T14:32:14.000Z</time>
      </trkpt>
      <trkpt lat="43.95968" lon="7.30777">
        <ele>685.40002441406</ele>
        <time>2019-03-30T14:32:16.000Z</time>
      </trkpt>
      <trkpt lat="43.95965" lon="7.30774">
        <ele>683.59997558594</ele>
        <time>2019-03-30T14:32:18.000Z</time>
      </trkpt>
      <trkpt lat="43.95964" lon="7.3077">
        <ele>682.79998779297</ele>
        <time>2019-03-30T14:32:19.000Z</time>
      </trkpt>
      <trkpt lat="43.95964" lon="7.30767">
        <ele>682</ele>
        <time>2019-03-30T14:32:20.000Z</time>
      </trkpt>
      <trkpt lat="43.95967" lon="7.30765">
        <ele>680.79998779297</ele>
        <time>2019-03-30T14:32:22.000Z</time>
      </trkpt>
      <trkpt lat="43.95969" lon="7.30767">
        <ele>680.40002441406</ele>
        <time>2019-03-30T14:32:23.000Z</time>
      </trkpt>
      <trkpt lat="43.9597" lon="7.30768">
        <ele>679.59997558594</ele>
        <time>2019-03-30T14:32:24.000Z</time>
      </trkpt>
      <trkpt lat="43.95971" lon="7.30767">
        <ele>678</ele>
        <time>2019-03-30T14:32:26.000Z</time>
      </trkpt>
      <trkpt lat="43.95971" lon="7.30765">
        <ele>677.20001220703</ele>
        <time>2019-03-30T14:32:27.000Z</time>
      </trkpt>
      <trkpt lat="43.9597" lon="7.30763">
        <ele>676.40002441406</ele>
        <time>2019-03-30T14:32:28.000Z</time>
      </trkpt>
      <trkpt lat="43.95967" lon="7.30756">
        <ele>675.20001220703</ele>
        <time>2019-03-30T14:32:30.000Z</time>
      </trkpt>
      <trkpt lat="43.95968" lon="7.30754">
        <ele>674.59997558594</ele>
        <time>2019-03-30T14:32:31.000Z</time>
      </trkpt>
      <trkpt lat="43.95969" lon="7.30752">
        <ele>674</ele>
        <time>2019-03-30T14:32:32.000Z</time>
      </trkpt>
      <trkpt lat="43.95971" lon="7.30753">
        <ele>672.59997558594</ele>
        <time>2019-03-30T14:32:34.000Z</time>
      </trkpt>
      <trkpt lat="43.95973" lon="7.30752">
        <ele>671.20001220703</ele>
        <time>2019-03-30T14:32:36.000Z</time>
      </trkpt>
      <trkpt lat="43.95973" lon="7.30748">
        <ele>669.59997558594</ele>
        <time>2019-03-30T14:32:38.000Z</time>
      </trkpt>
      <trkpt lat="43.95976" lon="7.30748">
        <ele>668.59997558594</ele>
        <time>2019-03-30T14:32:40.000Z</time>
      </trkpt>
      <trkpt lat="43.95977" lon="7.30751">
        <ele>667.59997558594</ele>
        <time>2019-03-30T14:32:42.000Z</time>
      </trkpt>
      <trkpt lat="43.95979" lon="7.30755">
        <ele>665.79998779297</ele>
        <time>2019-03-30T14:32:45.000Z</time>
      </trkpt>
      <trkpt lat="43.9598" lon="7.30756">
        <ele>664.40002441406</ele>
        <time>2019-03-30T14:32:47.000Z</time>
      </trkpt>
      <trkpt lat="43.95982" lon="7.30759">
        <ele>663.40002441406</ele>
        <time>2019-03-30T14:32:49.000Z</time>
      </trkpt>
      <trkpt lat="43.95986" lon="7.30763">
        <ele>662</ele>
        <time>2019-03-30T14:32:51.000Z</time>
      </trkpt>
      <trkpt lat="43.9599" lon="7.30765">
        <ele>660.40002441406</ele>
        <time>2019-03-30T14:32:53.000Z</time>
      </trkpt>
      <trkpt lat="43.9599" lon="7.30765">
        <ele>658.40002441406</ele>
        <time>2019-03-30T14:32:55.000Z</time>
      </trkpt>
      <trkpt lat="43.9599" lon="7.30765">
        <ele>657.20001220703</ele>
        <time>2019-03-30T14:32:57.000Z</time>
      </trkpt>
      <trkpt lat="43.9599" lon="7.30765">
        <ele>656.20001220703</ele>
        <time>2019-03-30T14:33:00.000Z</time>
      </trkpt>
      <trkpt lat="43.9599" lon="7.30764">
        <ele>655.40002441406</ele>
        <time>2019-03-30T14:33:03.000Z</time>
      </trkpt>
      <trkpt lat="43.95989" lon="7.30763">
        <ele>655</ele>
        <time>2019-03-30T14:33:04.000Z</time>
      </trkpt>
      <trkpt lat="43.95988" lon="7.3076">
        <ele>653.79998779297</ele>
        <time>2019-03-30T14:33:08.000Z</time>
      </trkpt>
      <trkpt lat="43.95988" lon="7.3076">
        <ele>653.40002441406</ele>
        <time>2019-03-30T14:33:09.000Z</time>
      </trkpt>
      <trkpt lat="43.95987" lon="7.30758">
        <ele>652.59997558594</ele>
        <time>2019-03-30T14:33:11.000Z</time>
      </trkpt>
      <trkpt lat="43.95987" lon="7.30756">
        <ele>651.40002441406</ele>
        <time>2019-03-30T14:33:15.000Z</time>
      </trkpt>
      <trkpt lat="43.95987" lon="7.30756">
        <ele>650.20001220703</ele>
        <time>2019-03-30T14:33:20.000Z</time>
      </trkpt>
      <trkpt lat="43.95987" lon="7.30756">
        <ele>649.20001220703</ele>
        <time>2019-03-30T14:33:27.000Z</time>
      </trkpt>
      <trkpt lat="43.95987" lon="7.30756">
        <ele>648.40002441406</ele>
        <time>2019-03-30T14:33:33.000Z</time>
      </trkpt>
      <trkpt lat="43.95987" lon="7.30756">
        <ele>648.20001220703</ele>
        <time>2019-03-30T14:33:34.000Z</time>
      </trkpt>
      <trkpt lat="43.95987" lon="7.30757">
        <ele>647.20001220703</ele>
        <time>2019-03-30T14:33:39.000Z</time>
      </trkpt>
      <trkpt lat="43.95988" lon="7.30758">
        <ele>646.40002441406</ele>
        <time>2019-03-30T14:33:44.000Z</time>
      </trkpt>
      <trkpt lat="43.95989" lon="7.30759">
        <ele>646</ele>
        <time>2019-03-30T14:33:48.000Z</time>
      </trkpt>
      <trkpt lat="43.95989" lon="7.30759">
        <ele>645.40002441406</ele>
        <time>2019-03-30T14:33:51.000Z</time>
      </trkpt>
      <trkpt lat="43.95989" lon="7.30759">
        <ele>644.79998779297</ele>
        <time>2019-03-30T14:33:55.000Z</time>
      </trkpt>
      <trkpt lat="43.95989" lon="7.30759">
        <ele>644</ele>
        <time>2019-03-30T14:34:00.000Z</time>
      </trkpt>
      <trkpt lat="43.95989" lon="7.30759">
        <ele>643.79998779297</ele>
        <time>2019-03-30T14:34:01.000Z</time>
      </trkpt>
      <trkpt lat="43.9599" lon="7.30759">
        <ele>643</ele>
        <time>2019-03-30T14:34:06.000Z</time>
      </trkpt>
      <trkpt lat="43.95991" lon="7.30757">
        <ele>642.79998779297</ele>
        <time>2019-03-30T14:34:10.000Z</time>
      </trkpt>
      <trkpt lat="43.95991" lon="7.30756">
        <ele>642.59997558594</ele>
        <time>2019-03-30T14:34:12.000Z</time>
      </trkpt>
      <trkpt lat="43.95991" lon="7.30756">
        <ele>641.59997558594</ele>
        <time>2019-03-30T14:34:16.000Z</time>
      </trkpt>
      <trkpt lat="43.95991" lon="7.30755">
        <ele>641.40002441406</ele>
        <time>2019-03-30T14:34:18.000Z</time>
      </trkpt>
      <trkpt lat="43.95991" lon="7.30755">
        <ele>642</ele>
        <time>2019-03-30T14:34:25.000Z</time>
      </trkpt>
      <trkpt lat="43.9599" lon="7.30755">
        <ele>642.40002441406</ele>
        <time>2019-03-30T14:34:32.000Z</time>
      </trkpt>
      <trkpt lat="43.9599" lon="7.30755">
        <ele>642.20001220703</ele>
        <time>2019-03-30T14:34:41.000Z</time>
      </trkpt>
      <trkpt lat="43.95988" lon="7.30756">
        <ele>642</ele>
        <time>2019-03-30T14:34:53.000Z</time>
      </trkpt>
      <trkpt lat="43.95988" lon="7.30756">
        <ele>641.79998779297</ele>
        <time>2019-03-30T14:35:09.000Z</time>
      </trkpt>
      <trkpt lat="43.95987" lon="7.30757">
        <ele>642.20001220703</ele>
        <time>2019-03-30T14:35:25.000Z</time>
      </trkpt>
      <trkpt lat="43.95987" lon="7.30757">
        <ele>642.59997558594</ele>
        <time>2019-03-30T14:35:31.000Z</time>
      </trkpt>
      <trkpt lat="43.95986" lon="7.30758">
        <ele>642.79998779297</ele>
        <time>2019-03-30T14:35:33.000Z</time>
      </trkpt>
      <trkpt lat="43.95987" lon="7.30759">
        <ele>643.20001220703</ele>
        <time>2019-03-30T14:35:43.000Z</time>
      </trkpt>
      <trkpt lat="43.95988" lon="7.30759">
        <ele>643</ele>
        <time>2019-03-30T14:35:49.000Z</time>
      </trkpt>
      <trkpt lat="43.95991" lon="7.30761">
        <ele>642.79998779297</ele>
        <time>2019-03-30T14:35:52.000Z</time>
      </trkpt>
      <trkpt lat="43.95997" lon="7.30762">
        <ele>641.59997558594</ele>
        <time>2019-03-30T14:35:56.000Z</time>
      </trkpt>
      <trkpt lat="43.96" lon="7.30762">
        <ele>641</ele>
        <time>2019-03-30T14:35:59.000Z</time>
      </trkpt>
      <trkpt lat="43.96003" lon="7.30761">
        <ele>641.59997558594</ele>
        <time>2019-03-30T14:36:03.000Z</time>
      </trkpt>
      <trkpt lat="43.96003" lon="7.30761">
        <ele>641.79998779297</ele>
        <time>2019-03-30T14:36:05.000Z</time>
      </trkpt>
      <trkpt lat="43.96006" lon="7.30762">
        <ele>641.40002441406</ele>
        <time>2019-03-30T14:36:11.000Z</time>
      </trkpt>
      <trkpt lat="43.96005" lon="7.3076">
        <ele>641.20001220703</ele>
        <time>2019-03-30T14:36:12.000Z</time>
      </trkpt>
      <trkpt lat="43.96007" lon="7.30762">
        <ele>640.79998779297</ele>
        <time>2019-03-30T14:36:14.000Z</time>
      </trkpt>
      <trkpt lat="43.96008" lon="7.30762">
        <ele>640.59997558594</ele>
        <time>2019-03-30T14:36:16.000Z</time>
      </trkpt>
      <trkpt lat="43.9601" lon="7.30762">
        <ele>640.40002441406</ele>
        <time>2019-03-30T14:36:18.000Z</time>
      </trkpt>
      <trkpt lat="43.96012" lon="7.3076">
        <ele>640.40002441406</ele>
        <time>2019-03-30T14:36:20.000Z</time>
      </trkpt>
      <trkpt lat="43.96013" lon="7.3076">
        <ele>639.79998779297</ele>
        <time>2019-03-30T14:36:23.000Z</time>
      </trkpt>
      <trkpt lat="43.96015" lon="7.30758">
        <ele>639.40002441406</ele>
        <time>2019-03-30T14:36:26.000Z</time>
      </trkpt>
      <trkpt lat="43.96017" lon="7.30756">
        <ele>639.59997558594</ele>
        <time>2019-03-30T14:36:28.000Z</time>
      </trkpt>
      <trkpt lat="43.96017" lon="7.30752">
        <ele>638.79998779297</ele>
        <time>2019-03-30T14:36:31.000Z</time>
      </trkpt>
      <trkpt lat="43.96017" lon="7.3075">
        <ele>638.40002441406</ele>
        <time>2019-03-30T14:36:32.000Z</time>
      </trkpt>
      <trkpt lat="43.96018" lon="7.30748">
        <ele>638.20001220703</ele>
        <time>2019-03-30T14:36:33.000Z</time>
      </trkpt>
      <trkpt lat="43.96021" lon="7.30742">
        <ele>637</ele>
        <time>2019-03-30T14:36:35.000Z</time>
      </trkpt>
      <trkpt lat="43.96027" lon="7.30735">
        <ele>635.59997558594</ele>
        <time>2019-03-30T14:36:37.000Z</time>
      </trkpt>
      <trkpt lat="43.96034" lon="7.30734">
        <ele>633.40002441406</ele>
        <time>2019-03-30T14:36:39.000Z</time>
      </trkpt>
      <trkpt lat="43.96038" lon="7.30736">
        <ele>632.40002441406</ele>
        <time>2019-03-30T14:36:40.000Z</time>
      </trkpt>
      <trkpt lat="43.96048" lon="7.30735">
        <ele>630.40002441406</ele>
        <time>2019-03-30T14:36:42.000Z</time>
      </trkpt>
      <trkpt lat="43.96052" lon="7.30732">
        <ele>629.59997558594</ele>
        <time>2019-03-30T14:36:43.000Z</time>
      </trkpt>
      <trkpt lat="43.96057" lon="7.3073">
        <ele>629</ele>
        <time>2019-03-30T14:36:44.000Z</time>
      </trkpt>
      <trkpt lat="43.96064" lon="7.30731">
        <ele>627.59997558594</ele>
        <time>2019-03-30T14:36:46.000Z</time>
      </trkpt>
      <trkpt lat="43.9607" lon="7.30731">
        <ele>626</ele>
        <time>2019-03-30T14:36:48.000Z</time>
      </trkpt>
      <trkpt lat="43.96076" lon="7.30729">
        <ele>624.59997558594</ele>
        <time>2019-03-30T14:36:50.000Z</time>
      </trkpt>
      <trkpt lat="43.96082" lon="7.30728">
        <ele>622.40002441406</ele>
        <time>2019-03-30T14:36:52.000Z</time>
      </trkpt>
      <trkpt lat="43.96083" lon="7.30727">
        <ele>621</ele>
        <time>2019-03-30T14:36:53.000Z</time>
      </trkpt>
      <trkpt lat="43.96084" lon="7.30725">
        <ele>620</ele>
        <time>2019-03-30T14:36:54.000Z</time>
      </trkpt>
      <trkpt lat="43.96084" lon="7.30724">
        <ele>619.20001220703</ele>
        <time>2019-03-30T14:36:55.000Z</time>
      </trkpt>
      <trkpt lat="43.96084" lon="7.30725">
        <ele>618.20001220703</ele>
        <time>2019-03-30T14:36:56.000Z</time>
      </trkpt>
      <trkpt lat="43.96086" lon="7.30718">
        <ele>616.79998779297</ele>
        <time>2019-03-30T14:36:59.000Z</time>
      </trkpt>
      <trkpt lat="43.96095" lon="7.30709">
        <ele>615.59997558594</ele>
        <time>2019-03-30T14:37:02.000Z</time>
      </trkpt>
      <trkpt lat="43.96098" lon="7.30707">
        <ele>614.59997558594</ele>
        <time>2019-03-30T14:37:03.000Z</time>
      </trkpt>
      <trkpt lat="43.96102" lon="7.30705">
        <ele>613.59997558594</ele>
        <time>2019-03-30T14:37:04.000Z</time>
      </trkpt>
      <trkpt lat="43.96106" lon="7.30702">
        <ele>612.40002441406</ele>
        <time>2019-03-30T14:37:05.000Z</time>
      </trkpt>
      <trkpt lat="43.96113" lon="7.30696">
        <ele>610.79998779297</ele>
        <time>2019-03-30T14:37:07.000Z</time>
      </trkpt>
      <trkpt lat="43.96119" lon="7.30691">
        <ele>609.20001220703</ele>
        <time>2019-03-30T14:37:09.000Z</time>
      </trkpt>
      <trkpt lat="43.96123" lon="7.30684">
        <ele>609.20001220703</ele>
        <time>2019-03-30T14:37:11.000Z</time>
      </trkpt>
      <trkpt lat="43.96125" lon="7.30681">
        <ele>607.20001220703</ele>
        <time>2019-03-30T14:37:12.000Z</time>
      </trkpt>
      <trkpt lat="43.96126" lon="7.30678">
        <ele>605.20001220703</ele>
        <time>2019-03-30T14:37:13.000Z</time>
      </trkpt>
      <trkpt lat="43.96126" lon="7.30676">
        <ele>603.40002441406</ele>
        <time>2019-03-30T14:37:14.000Z</time>
      </trkpt>
      <trkpt lat="43.96126" lon="7.30672">
        <ele>601.79998779297</ele>
        <time>2019-03-30T14:37:15.000Z</time>
      </trkpt>
      <trkpt lat="43.96126" lon="7.30669">
        <ele>600</ele>
        <time>2019-03-30T14:37:16.000Z</time>
      </trkpt>
      <trkpt lat="43.96124" lon="7.30664">
        <ele>598.79998779297</ele>
        <time>2019-03-30T14:37:17.000Z</time>
      </trkpt>
      <trkpt lat="43.96123" lon="7.30659">
        <ele>597.40002441406</ele>
        <time>2019-03-30T14:37:18.000Z</time>
      </trkpt>
      <trkpt lat="43.96122" lon="7.30654">
        <ele>596</ele>
        <time>2019-03-30T14:37:19.000Z</time>
      </trkpt>
      <trkpt lat="43.96121" lon="7.30648">
        <ele>594.40002441406</ele>
        <time>2019-03-30T14:37:20.000Z</time>
      </trkpt>
      <trkpt lat="43.96119" lon="7.3064">
        <ele>593</ele>
        <time>2019-03-30T14:37:21.000Z</time>
      </trkpt>
      <trkpt lat="43.96118" lon="7.30631">
        <ele>591.59997558594</ele>
        <time>2019-03-30T14:37:22.000Z</time>
      </trkpt>
      <trkpt lat="43.96117" lon="7.30618">
        <ele>590.20001220703</ele>
        <time>2019-03-30T14:37:24.000Z</time>
      </trkpt>
      <trkpt lat="43.96118" lon="7.30611">
        <ele>589.40002441406</ele>
        <time>2019-03-30T14:37:25.000Z</time>
      </trkpt>
      <trkpt lat="43.96118" lon="7.30604">
        <ele>587</ele>
        <time>2019-03-30T14:37:26.000Z</time>
      </trkpt>
      <trkpt lat="43.9612" lon="7.30598">
        <ele>586</ele>
        <time>2019-03-30T14:37:27.000Z</time>
      </trkpt>
      <trkpt lat="43.9612" lon="7.30591">
        <ele>585.20001220703</ele>
        <time>2019-03-30T14:37:28.000Z</time>
      </trkpt>
      <trkpt lat="43.96122" lon="7.30585">
        <ele>584.20001220703</ele>
        <time>2019-03-30T14:37:29.000Z</time>
      </trkpt>
      <trkpt lat="43.96122" lon="7.3058">
        <ele>583.20001220703</ele>
        <time>2019-03-30T14:37:30.000Z</time>
      </trkpt>
      <trkpt lat="43.96122" lon="7.30574">
        <ele>582.40002441406</ele>
        <time>2019-03-30T14:37:31.000Z</time>
      </trkpt>
      <trkpt lat="43.96124" lon="7.30572">
        <ele>581.40002441406</ele>
        <time>2019-03-30T14:37:32.000Z</time>
      </trkpt>
      <trkpt lat="43.96128" lon="7.3057">
        <ele>579.40002441406</ele>
        <time>2019-03-30T14:37:34.000Z</time>
      </trkpt>
      <trkpt lat="43.96132" lon="7.3057">
        <ele>578.20001220703</ele>
        <time>2019-03-30T14:37:35.000Z</time>
      </trkpt>
      <trkpt lat="43.96135" lon="7.3057">
        <ele>576.59997558594</ele>
        <time>2019-03-30T14:37:36.000Z</time>
      </trkpt>
      <trkpt lat="43.96138" lon="7.30571">
        <ele>575.20001220703</ele>
        <time>2019-03-30T14:37:37.000Z</time>
      </trkpt>
      <trkpt lat="43.96141" lon="7.30571">
        <ele>574</ele>
        <time>2019-03-30T14:37:38.000Z</time>
      </trkpt>
      <trkpt lat="43.96143" lon="7.30569">
        <ele>572.59997558594</ele>
        <time>2019-03-30T14:37:39.000Z</time>
      </trkpt>
      <trkpt lat="43.96146" lon="7.30568">
        <ele>571</ele>
        <time>2019-03-30T14:37:40.000Z</time>
      </trkpt>
      <trkpt lat="43.96146" lon="7.30568">
        <ele>569.59997558594</ele>
        <time>2019-03-30T14:37:41.000Z</time>
      </trkpt>
      <trkpt lat="43.96145" lon="7.30567">
        <ele>568.40002441406</ele>
        <time>2019-03-30T14:37:42.000Z</time>
      </trkpt>
      <trkpt lat="43.96144" lon="7.30567">
        <ele>568</ele>
        <time>2019-03-30T14:37:43.000Z</time>
      </trkpt>
      <trkpt lat="43.96142" lon="7.30566">
        <ele>566.40002441406</ele>
        <time>2019-03-30T14:37:44.000Z</time>
      </trkpt>
      <trkpt lat="43.96141" lon="7.30565">
        <ele>566</ele>
        <time>2019-03-30T14:37:45.000Z</time>
      </trkpt>
      <trkpt lat="43.96142" lon="7.30564">
        <ele>564.40002441406</ele>
        <time>2019-03-30T14:37:46.000Z</time>
      </trkpt>
      <trkpt lat="43.96144" lon="7.30564">
        <ele>563.20001220703</ele>
        <time>2019-03-30T14:37:47.000Z</time>
      </trkpt>
      <trkpt lat="43.96145" lon="7.30565">
        <ele>562.20001220703</ele>
        <time>2019-03-30T14:37:48.000Z</time>
      </trkpt>
      <trkpt lat="43.96148" lon="7.30564">
        <ele>561</ele>
        <time>2019-03-30T14:37:49.000Z</time>
      </trkpt>
      <trkpt lat="43.96154" lon="7.30559">
        <ele>559</ele>
        <time>2019-03-30T14:37:51.000Z</time>
      </trkpt>
      <trkpt lat="43.96157" lon="7.30555">
        <ele>557.59997558594</ele>
        <time>2019-03-30T14:37:52.000Z</time>
      </trkpt>
      <trkpt lat="43.96159" lon="7.30552">
        <ele>557.20001220703</ele>
        <time>2019-03-30T14:37:53.000Z</time>
      </trkpt>
      <trkpt lat="43.96161" lon="7.30548">
        <ele>556</ele>
        <time>2019-03-30T14:37:54.000Z</time>
      </trkpt>
      <trkpt lat="43.96162" lon="7.30545">
        <ele>554.79998779297</ele>
        <time>2019-03-30T14:37:55.000Z</time>
      </trkpt>
      <trkpt lat="43.96164" lon="7.30543">
        <ele>553.79998779297</ele>
        <time>2019-03-30T14:37:56.000Z</time>
      </trkpt>
      <trkpt lat="43.96165" lon="7.30538">
        <ele>551.79998779297</ele>
        <time>2019-03-30T14:37:58.000Z</time>
      </trkpt>
      <trkpt lat="43.96167" lon="7.30535">
        <ele>551.20001220703</ele>
        <time>2019-03-30T14:37:59.000Z</time>
      </trkpt>
      <trkpt lat="43.96169" lon="7.30531">
        <ele>550.59997558594</ele>
        <time>2019-03-30T14:38:00.000Z</time>
      </trkpt>
      <trkpt lat="43.9617" lon="7.30523">
        <ele>549.20001220703</ele>
        <time>2019-03-30T14:38:02.000Z</time>
      </trkpt>
      <trkpt lat="43.96174" lon="7.30514">
        <ele>548</ele>
        <time>2019-03-30T14:38:04.000Z</time>
      </trkpt>
      <trkpt lat="43.96178" lon="7.30506">
        <ele>546.40002441406</ele>
        <time>2019-03-30T14:38:06.000Z</time>
      </trkpt>
      <trkpt lat="43.9618" lon="7.30503">
        <ele>544.79998779297</ele>
        <time>2019-03-30T14:38:08.000Z</time>
      </trkpt>
      <trkpt lat="43.9618" lon="7.30501">
        <ele>544.20001220703</ele>
        <time>2019-03-30T14:38:09.000Z</time>
      </trkpt>
      <trkpt lat="43.9618" lon="7.30497">
        <ele>543.59997558594</ele>
        <time>2019-03-30T14:38:10.000Z</time>
      </trkpt>
      <trkpt lat="43.96183" lon="7.30485">
        <ele>542.40002441406</ele>
        <time>2019-03-30T14:38:12.000Z</time>
      </trkpt>
      <trkpt lat="43.9619" lon="7.30475">
        <ele>541</ele>
        <time>2019-03-30T14:38:14.000Z</time>
      </trkpt>
      <trkpt lat="43.96195" lon="7.30472">
        <ele>540.40002441406</ele>
        <time>2019-03-30T14:38:15.000Z</time>
      </trkpt>
      <trkpt lat="43.962" lon="7.30471">
        <ele>540</ele>
        <time>2019-03-30T14:38:16.000Z</time>
      </trkpt>
      <trkpt lat="43.96205" lon="7.30469">
        <ele>539.59997558594</ele>
        <time>2019-03-30T14:38:17.000Z</time>
      </trkpt>
      <trkpt lat="43.96215" lon="7.30463">
        <ele>539.40002441406</ele>
        <time>2019-03-30T14:38:19.000Z</time>
      </trkpt>
      <trkpt lat="43.96224" lon="7.30458">
        <ele>539.20001220703</ele>
        <time>2019-03-30T14:38:21.000Z</time>
      </trkpt>
      <trkpt lat="43.96227" lon="7.30453">
        <ele>538.79998779297</ele>
        <time>2019-03-30T14:38:22.000Z</time>
      </trkpt>
      <trkpt lat="43.96232" lon="7.30449">
        <ele>538.79998779297</ele>
        <time>2019-03-30T14:38:23.000Z</time>
      </trkpt>
      <trkpt lat="43.9624" lon="7.3045">
        <ele>538.79998779297</ele>
        <time>2019-03-30T14:38:26.000Z</time>
      </trkpt>
      <trkpt lat="43.96244" lon="7.3045">
        <ele>540</ele>
        <time>2019-03-30T14:38:28.000Z</time>
      </trkpt>
      <trkpt lat="43.96251" lon="7.30452">
        <ele>541.40002441406</ele>
        <time>2019-03-30T14:38:30.000Z</time>
      </trkpt>
      <trkpt lat="43.96259" lon="7.30454">
        <ele>541.79998779297</ele>
        <time>2019-03-30T14:38:32.000Z</time>
      </trkpt>
      <trkpt lat="43.96271" lon="7.30456">
        <ele>542</ele>
        <time>2019-03-30T14:38:35.000Z</time>
      </trkpt>
      <trkpt lat="43.96276" lon="7.3046">
        <ele>542.20001220703</ele>
        <time>2019-03-30T14:38:36.000Z</time>
      </trkpt>
      <trkpt lat="43.96282" lon="7.30469">
        <ele>542.59997558594</ele>
        <time>2019-03-30T14:38:38.000Z</time>
      </trkpt>
      <trkpt lat="43.96289" lon="7.30479">
        <ele>543.20001220703</ele>
        <time>2019-03-30T14:38:40.000Z</time>
      </trkpt>
      <trkpt lat="43.96292" lon="7.30484">
        <ele>543.40002441406</ele>
        <time>2019-03-30T14:38:41.000Z</time>
      </trkpt>
      <trkpt lat="43.96313" lon="7.30517">
        <ele>542.40002441406</ele>
        <time>2019-03-30T14:38:48.000Z</time>
      </trkpt>
      <trkpt lat="43.96322" lon="7.30535">
        <ele>542.20001220703</ele>
        <time>2019-03-30T14:38:52.000Z</time>
      </trkpt>
      <trkpt lat="43.96325" lon="7.3054">
        <ele>542.20001220703</ele>
        <time>2019-03-30T14:38:53.000Z</time>
      </trkpt>
      <trkpt lat="43.96331" lon="7.30551">
        <ele>541.59997558594</ele>
        <time>2019-03-30T14:38:55.000Z</time>
      </trkpt>
      <trkpt lat="43.96333" lon="7.30554">
        <ele>541.20001220703</ele>
        <time>2019-03-30T14:38:56.000Z</time>
      </trkpt>
      <trkpt lat="43.96345" lon="7.30565">
        <ele>540.20001220703</ele>
        <time>2019-03-30T14:38:59.000Z</time>
      </trkpt>
      <trkpt lat="43.96347" lon="7.30569">
        <ele>539.79998779297</ele>
        <time>2019-03-30T14:39:00.000Z</time>
      </trkpt>
      <trkpt lat="43.96349" lon="7.30573">
        <ele>539</ele>
        <time>2019-03-30T14:39:01.000Z</time>
      </trkpt>
      <trkpt lat="43.96349" lon="7.30577">
        <ele>538.59997558594</ele>
        <time>2019-03-30T14:39:03.000Z</time>
      </trkpt>
      <trkpt lat="43.96354" lon="7.30591">
        <ele>538.59997558594</ele>
        <time>2019-03-30T14:39:07.000Z</time>
      </trkpt>
      <trkpt lat="43.96358" lon="7.30603">
        <ele>537.79998779297</ele>
        <time>2019-03-30T14:39:10.000Z</time>
      </trkpt>
      <trkpt lat="43.96359" lon="7.30609">
        <ele>536.79998779297</ele>
        <time>2019-03-30T14:39:12.000Z</time>
      </trkpt>
      <trkpt lat="43.9636" lon="7.3061">
        <ele>535.59997558594</ele>
        <time>2019-03-30T14:39:15.000Z</time>
      </trkpt>
      <trkpt lat="43.96364" lon="7.30615">
        <ele>534.79998779297</ele>
        <time>2019-03-30T14:39:21.000Z</time>
      </trkpt>
      <trkpt lat="43.96365" lon="7.30616">
        <ele>534.40002441406</ele>
        <time>2019-03-30T14:39:23.000Z</time>
      </trkpt>
      <trkpt lat="43.96367" lon="7.30619">
        <ele>533.20001220703</ele>
        <time>2019-03-30T14:39:28.000Z</time>
      </trkpt>
      <trkpt lat="43.96369" lon="7.30621">
        <ele>532.40002441406</ele>
        <time>2019-03-30T14:39:33.000Z</time>
      </trkpt>
      <trkpt lat="43.96369" lon="7.30622">
        <ele>532</ele>
        <time>2019-03-30T14:39:34.000Z</time>
      </trkpt>
      <trkpt lat="43.9637" lon="7.30624">
        <ele>530.59997558594</ele>
        <time>2019-03-30T14:39:38.000Z</time>
      </trkpt>
      <trkpt lat="43.96372" lon="7.30626">
        <ele>529.59997558594</ele>
        <time>2019-03-30T14:39:41.000Z</time>
      </trkpt>
      <trkpt lat="43.96374" lon="7.30628">
        <ele>528.40002441406</ele>
        <time>2019-03-30T14:39:45.000Z</time>
      </trkpt>
      <trkpt lat="43.96375" lon="7.30628">
        <ele>528.40002441406</ele>
        <time>2019-03-30T14:39:46.000Z</time>
      </trkpt>
      <trkpt lat="43.96375" lon="7.30622">
        <ele>528</ele>
        <time>2019-03-30T14:39:52.000Z</time>
      </trkpt>
      <trkpt lat="43.96374" lon="7.30621">
        <ele>528.40002441406</ele>
        <time>2019-03-30T14:39:54.000Z</time>
      </trkpt>
      <trkpt lat="43.96374" lon="7.30619">
        <ele>528.59997558594</ele>
        <time>2019-03-30T14:39:58.000Z</time>
      </trkpt>
      <trkpt lat="43.96373" lon="7.30617">
        <ele>529</ele>
        <time>2019-03-30T14:40:04.000Z</time>
      </trkpt>
      <trkpt lat="43.96372" lon="7.30613">
        <ele>529.40002441406</ele>
        <time>2019-03-30T14:40:10.000Z</time>
      </trkpt>
      <trkpt lat="43.96372" lon="7.30611">
        <ele>529.20001220703</ele>
        <time>2019-03-30T14:40:11.000Z</time>
      </trkpt>
      <trkpt lat="43.96369" lon="7.30605">
        <ele>529.59997558594</ele>
        <time>2019-03-30T14:40:14.000Z</time>
      </trkpt>
      <trkpt lat="43.96367" lon="7.30598">
        <ele>530</ele>
        <time>2019-03-30T14:40:17.000Z</time>
      </trkpt>
      <trkpt lat="43.96365" lon="7.3059">
        <ele>530.59997558594</ele>
        <time>2019-03-30T14:40:20.000Z</time>
      </trkpt>
      <trkpt lat="43.96359" lon="7.30576">
        <ele>531.59997558594</ele>
        <time>2019-03-30T14:40:25.000Z</time>
      </trkpt>
      <trkpt lat="43.96358" lon="7.30574">
        <ele>531.79998779297</ele>
        <time>2019-03-30T14:40:26.000Z</time>
      </trkpt>
      <trkpt lat="43.96346" lon="7.30549">
        <ele>532.79998779297</ele>
        <time>2019-03-30T14:40:36.000Z</time>
      </trkpt>
      <trkpt lat="43.96345" lon="7.30546">
        <ele>532.79998779297</ele>
        <time>2019-03-30T14:40:37.000Z</time>
      </trkpt>
      <trkpt lat="43.96335" lon="7.3053">
        <ele>534</ele>
        <time>2019-03-30T14:40:44.000Z</time>
      </trkpt>
      <trkpt lat="43.96332" lon="7.30526">
        <ele>534.59997558594</ele>
        <time>2019-03-30T14:40:46.000Z</time>
      </trkpt>
      <trkpt lat="43.9633" lon="7.3052">
        <ele>535.20001220703</ele>
        <time>2019-03-30T14:40:48.000Z</time>
      </trkpt>
      <trkpt lat="43.96327" lon="7.30509">
        <ele>535.79998779297</ele>
        <time>2019-03-30T14:40:52.000Z</time>
      </trkpt>
      <trkpt lat="43.96325" lon="7.30507">
        <ele>536.20001220703</ele>
        <time>2019-03-30T14:40:53.000Z</time>
      </trkpt>
      <trkpt lat="43.96318" lon="7.30492">
        <ele>537.40002441406</ele>
        <time>2019-03-30T14:40:59.000Z</time>
      </trkpt>
      <trkpt lat="43.96316" lon="7.3049">
        <ele>537.59997558594</ele>
        <time>2019-03-30T14:41:00.000Z</time>
      </trkpt>
      <trkpt lat="43.96305" lon="7.3047">
        <ele>538.59997558594</ele>
        <time>2019-03-30T14:41:08.000Z</time>
      </trkpt>
      <trkpt lat="43.96304" lon="7.30467">
        <ele>538.59997558594</ele>
        <time>2019-03-30T14:41:09.000Z</time>
      </trkpt>
      <trkpt lat="43.963" lon="7.30457">
        <ele>539.79998779297</ele>
        <time>2019-03-30T14:41:13.000Z</time>
      </trkpt>
      <trkpt lat="43.96295" lon="7.30451">
        <ele>540.59997558594</ele>
        <time>2019-03-30T14:41:16.000Z</time>
      </trkpt>
      <trkpt lat="43.96285" lon="7.30441">
        <ele>541.20001220703</ele>
        <time>2019-03-30T14:41:23.000Z</time>
      </trkpt>
      <trkpt lat="43.96283" lon="7.30441">
        <ele>541.20001220703</ele>
        <time>2019-03-30T14:41:24.000Z</time>
      </trkpt>
      <trkpt lat="43.96272" lon="7.30442">
        <ele>542.59997558594</ele>
        <time>2019-03-30T14:41:29.000Z</time>
      </trkpt>
      <trkpt lat="43.9627" lon="7.30442">
        <ele>542.59997558594</ele>
        <time>2019-03-30T14:41:30.000Z</time>
      </trkpt>
      <trkpt lat="43.9626" lon="7.30445">
        <ele>542.59997558594</ele>
        <time>2019-03-30T14:41:35.000Z</time>
      </trkpt>
      <trkpt lat="43.96247" lon="7.30447">
        <ele>541.40002441406</ele>
        <time>2019-03-30T14:41:41.000Z</time>
      </trkpt>
      <trkpt lat="43.96229" lon="7.30449">
        <ele>541.59997558594</ele>
        <time>2019-03-30T14:41:49.000Z</time>
      </trkpt>
      <trkpt lat="43.96207" lon="7.30453">
        <ele>542.59997558594</ele>
        <time>2019-03-30T14:41:58.000Z</time>
      </trkpt>
      <trkpt lat="43.962" lon="7.30454">
        <ele>543.40002441406</ele>
        <time>2019-03-30T14:42:01.000Z</time>
      </trkpt>
      <trkpt lat="43.96185" lon="7.30464">
        <ele>543.59997558594</ele>
        <time>2019-03-30T14:42:08.000Z</time>
      </trkpt>
      <trkpt lat="43.96172" lon="7.30476">
        <ele>544.20001220703</ele>
        <time>2019-03-30T14:42:14.000Z</time>
      </trkpt>
      <trkpt lat="43.96163" lon="7.30486">
        <ele>544</ele>
        <time>2019-03-30T14:42:19.000Z</time>
      </trkpt>
      <trkpt lat="43.96152" lon="7.30491">
        <ele>544.59997558594</ele>
        <time>2019-03-30T14:42:23.000Z</time>
      </trkpt>
      <trkpt lat="43.9615" lon="7.30491">
        <ele>544.79998779297</ele>
        <time>2019-03-30T14:42:24.000Z</time>
      </trkpt>
      <trkpt lat="43.96136" lon="7.30487">
        <ele>545.59997558594</ele>
        <time>2019-03-30T14:42:29.000Z</time>
      </trkpt>
      <trkpt lat="43.96133" lon="7.30486">
        <ele>545.79998779297</ele>
        <time>2019-03-30T14:42:30.000Z</time>
      </trkpt>
      <trkpt lat="43.96122" lon="7.30486">
        <ele>546.40002441406</ele>
        <time>2019-03-30T14:42:34.000Z</time>
      </trkpt>
      <trkpt lat="43.96111" lon="7.30494">
        <ele>546.79998779297</ele>
        <time>2019-03-30T14:42:38.000Z</time>
      </trkpt>
      <trkpt lat="43.96092" lon="7.30519">
        <ele>545.59997558594</ele>
        <time>2019-03-30T14:42:45.000Z</time>
      </trkpt>
      <trkpt lat="43.96076" lon="7.30541">
        <ele>545.40002441406</ele>
        <time>2019-03-30T14:42:50.000Z</time>
      </trkpt>
      <trkpt lat="43.96071" lon="7.30551">
        <ele>545.59997558594</ele>
        <time>2019-03-30T14:42:52.000Z</time>
      </trkpt>
      <trkpt lat="43.96055" lon="7.30587">
        <ele>546.20001220703</ele>
        <time>2019-03-30T14:42:58.000Z</time>
      </trkpt>
      <trkpt lat="43.96052" lon="7.30593">
        <ele>546.20001220703</ele>
        <time>2019-03-30T14:42:59.000Z</time>
      </trkpt>
      <trkpt lat="43.96043" lon="7.30601">
        <ele>546.59997558594</ele>
        <time>2019-03-30T14:43:01.000Z</time>
      </trkpt>
      <trkpt lat="43.96032" lon="7.30602">
        <ele>546.79998779297</ele>
        <time>2019-03-30T14:43:03.000Z</time>
      </trkpt>
      <trkpt lat="43.96022" lon="7.30598">
        <ele>547.20001220703</ele>
        <time>2019-03-30T14:43:05.000Z</time>
      </trkpt>
      <trkpt lat="43.96008" lon="7.30588">
        <ele>547.79998779297</ele>
        <time>2019-03-30T14:43:08.000Z</time>
      </trkpt>
      <trkpt lat="43.96001" lon="7.30578">
        <ele>547.40002441406</ele>
        <time>2019-03-30T14:43:10.000Z</time>
      </trkpt>
      <trkpt lat="43.95994" lon="7.30568">
        <ele>547.40002441406</ele>
        <time>2019-03-30T14:43:12.000Z</time>
      </trkpt>
      <trkpt lat="43.9599" lon="7.30565">
        <ele>547.40002441406</ele>
        <time>2019-03-30T14:43:13.000Z</time>
      </trkpt>
      <trkpt lat="43.95981" lon="7.3056">
        <ele>548</ele>
        <time>2019-03-30T14:43:15.000Z</time>
      </trkpt>
      <trkpt lat="43.95959" lon="7.30564">
        <ele>548.40002441406</ele>
        <time>2019-03-30T14:43:19.000Z</time>
      </trkpt>
      <trkpt lat="43.95954" lon="7.30566">
        <ele>548.20001220703</ele>
        <time>2019-03-30T14:43:20.000Z</time>
      </trkpt>
      <trkpt lat="43.95938" lon="7.30571">
        <ele>547.79998779297</ele>
        <time>2019-03-30T14:43:23.000Z</time>
      </trkpt>
      <trkpt lat="43.95927" lon="7.30569">
        <ele>548</ele>
        <time>2019-03-30T14:43:25.000Z</time>
      </trkpt>
      <trkpt lat="43.95914" lon="7.3056">
        <ele>548.59997558594</ele>
        <time>2019-03-30T14:43:28.000Z</time>
      </trkpt>
      <trkpt lat="43.95906" lon="7.30554">
        <ele>548.79998779297</ele>
        <time>2019-03-30T14:43:30.000Z</time>
      </trkpt>
      <trkpt lat="43.95901" lon="7.30553">
        <ele>548.79998779297</ele>
        <time>2019-03-30T14:43:31.000Z</time>
      </trkpt>
      <trkpt lat="43.95897" lon="7.30552">
        <ele>549</ele>
        <time>2019-03-30T14:43:32.000Z</time>
      </trkpt>
      <trkpt lat="43.95888" lon="7.30553">
        <ele>549.40002441406</ele>
        <time>2019-03-30T14:43:34.000Z</time>
      </trkpt>
      <trkpt lat="43.95877" lon="7.30557">
        <ele>550</ele>
        <time>2019-03-30T14:43:37.000Z</time>
      </trkpt>
      <trkpt lat="43.95873" lon="7.30559">
        <ele>550</ele>
        <time>2019-03-30T14:43:38.000Z</time>
      </trkpt>
      <trkpt lat="43.9587" lon="7.30561">
        <ele>550.20001220703</ele>
        <time>2019-03-30T14:43:39.000Z</time>
      </trkpt>
      <trkpt lat="43.95853" lon="7.30562">
        <ele>551</ele>
        <time>2019-03-30T14:43:44.000Z</time>
      </trkpt>
      <trkpt lat="43.95838" lon="7.30556">
        <ele>552.20001220703</ele>
        <time>2019-03-30T14:43:48.000Z</time>
      </trkpt>
      <trkpt lat="43.9583" lon="7.30551">
        <ele>552.59997558594</ele>
        <time>2019-03-30T14:43:50.000Z</time>
      </trkpt>
      <trkpt lat="43.95816" lon="7.30543">
        <ele>553.40002441406</ele>
        <time>2019-03-30T14:43:54.000Z</time>
      </trkpt>
      <trkpt lat="43.95805" lon="7.30536">
        <ele>553.59997558594</ele>
        <time>2019-03-30T14:43:57.000Z</time>
      </trkpt>
      <trkpt lat="43.9579" lon="7.30528">
        <ele>554.40002441406</ele>
        <time>2019-03-30T14:44:01.000Z</time>
      </trkpt>
      <trkpt lat="43.95776" lon="7.30519">
        <ele>555.20001220703</ele>
        <time>2019-03-30T14:44:05.000Z</time>
      </trkpt>
      <trkpt lat="43.95769" lon="7.30514">
        <ele>555.59997558594</ele>
        <time>2019-03-30T14:44:07.000Z</time>
      </trkpt>
      <trkpt lat="43.95738" lon="7.30493">
        <ele>556.20001220703</ele>
        <time>2019-03-30T14:44:16.000Z</time>
      </trkpt>
      <trkpt lat="43.95715" lon="7.30478">
        <ele>556.59997558594</ele>
        <time>2019-03-30T14:44:22.000Z</time>
      </trkpt>
      <trkpt lat="43.95699" lon="7.30466">
        <ele>556.79998779297</ele>
        <time>2019-03-30T14:44:26.000Z</time>
      </trkpt>
      <trkpt lat="43.95695" lon="7.30463">
        <ele>556.79998779297</ele>
        <time>2019-03-30T14:44:27.000Z</time>
      </trkpt>
      <trkpt lat="43.95686" lon="7.30449">
        <ele>556.79998779297</ele>
        <time>2019-03-30T14:44:30.000Z</time>
      </trkpt>
      <trkpt lat="43.95683" lon="7.30423">
        <ele>556.59997558594</ele>
        <time>2019-03-30T14:44:34.000Z</time>
      </trkpt>
      <trkpt lat="43.95683" lon="7.30417">
        <ele>556.79998779297</ele>
        <time>2019-03-30T14:44:35.000Z</time>
      </trkpt>
      <trkpt lat="43.9568" lon="7.30399">
        <ele>557</ele>
        <time>2019-03-30T14:44:38.000Z</time>
      </trkpt>
      <trkpt lat="43.95675" lon="7.30383">
        <ele>557.40002441406</ele>
        <time>2019-03-30T14:44:41.000Z</time>
      </trkpt>
      <trkpt lat="43.95672" lon="7.30371">
        <ele>557.59997558594</ele>
        <time>2019-03-30T14:44:43.000Z</time>
      </trkpt>
      <trkpt lat="43.95671" lon="7.30365">
        <ele>557.59997558594</ele>
        <time>2019-03-30T14:44:44.000Z</time>
      </trkpt>
      <trkpt lat="43.95662" lon="7.30328">
        <ele>558.20001220703</ele>
        <time>2019-03-30T14:44:50.000Z</time>
      </trkpt>
      <trkpt lat="43.9566" lon="7.30323">
        <ele>558.20001220703</ele>
        <time>2019-03-30T14:44:51.000Z</time>
      </trkpt>
      <trkpt lat="43.95648" lon="7.30294">
        <ele>557.79998779297</ele>
        <time>2019-03-30T14:44:56.000Z</time>
      </trkpt>
      <trkpt lat="43.95638" lon="7.30278">
        <ele>558.20001220703</ele>
        <time>2019-03-30T14:44:59.000Z</time>
      </trkpt>
      <trkpt lat="43.95626" lon="7.30265">
        <ele>558.59997558594</ele>
        <time>2019-03-30T14:45:02.000Z</time>
      </trkpt>
      <trkpt lat="43.95622" lon="7.3026">
        <ele>558.79998779297</ele>
        <time>2019-03-30T14:45:03.000Z</time>
      </trkpt>
      <trkpt lat="43.95614" lon="7.30242">
        <ele>559.20001220703</ele>
        <time>2019-03-30T14:45:06.000Z</time>
      </trkpt>
      <trkpt lat="43.95613" lon="7.30235">
        <ele>559.20001220703</ele>
        <time>2019-03-30T14:45:07.000Z</time>
      </trkpt>
      <trkpt lat="43.95603" lon="7.30188">
        <ele>559.40002441406</ele>
        <time>2019-03-30T14:45:14.000Z</time>
      </trkpt>
      <trkpt lat="43.95599" lon="7.30177">
        <ele>559.79998779297</ele>
        <time>2019-03-30T14:45:16.000Z</time>
      </trkpt>
      <trkpt lat="43.95589" lon="7.30159">
        <ele>560.59997558594</ele>
        <time>2019-03-30T14:45:20.000Z</time>
      </trkpt>
      <trkpt lat="43.95586" lon="7.30155">
        <ele>560.79998779297</ele>
        <time>2019-03-30T14:45:21.000Z</time>
      </trkpt>
      <trkpt lat="43.95572" lon="7.30136">
        <ele>562</ele>
        <time>2019-03-30T14:45:26.000Z</time>
      </trkpt>
      <trkpt lat="43.95566" lon="7.3013">
        <ele>562.59997558594</ele>
        <time>2019-03-30T14:45:28.000Z</time>
      </trkpt>
      <trkpt lat="43.95559" lon="7.30124">
        <ele>563</ele>
        <time>2019-03-30T14:45:30.000Z</time>
      </trkpt>
      <trkpt lat="43.9554" lon="7.30108">
        <ele>563.40002441406</ele>
        <time>2019-03-30T14:45:35.000Z</time>
      </trkpt>
      <trkpt lat="43.95537" lon="7.30104">
        <ele>563.40002441406</ele>
        <time>2019-03-30T14:45:36.000Z</time>
      </trkpt>
      <trkpt lat="43.9553" lon="7.30095">
        <ele>563.59997558594</ele>
        <time>2019-03-30T14:45:38.000Z</time>
      </trkpt>
      <trkpt lat="43.95524" lon="7.30085">
        <ele>563.20001220703</ele>
        <time>2019-03-30T14:45:40.000Z</time>
      </trkpt>
      <trkpt lat="43.95502" lon="7.30053">
        <ele>564</ele>
        <time>2019-03-30T14:45:48.000Z</time>
      </trkpt>
      <trkpt lat="43.95493" lon="7.30046">
        <ele>564.20001220703</ele>
        <time>2019-03-30T14:45:51.000Z</time>
      </trkpt>
      <trkpt lat="43.95483" lon="7.30037">
        <ele>565</ele>
        <time>2019-03-30T14:45:55.000Z</time>
      </trkpt>
      <trkpt lat="43.95478" lon="7.30034">
        <ele>565.20001220703</ele>
        <time>2019-03-30T14:45:57.000Z</time>
      </trkpt>
      <trkpt lat="43.95465" lon="7.30023">
        <ele>566.20001220703</ele>
        <time>2019-03-30T14:46:03.000Z</time>
      </trkpt>
      <trkpt lat="43.95455" lon="7.30017">
        <ele>567.59997558594</ele>
        <time>2019-03-30T14:46:08.000Z</time>
      </trkpt>
      <trkpt lat="43.95449" lon="7.30013">
        <ele>568</ele>
        <time>2019-03-30T14:46:11.000Z</time>
      </trkpt>
      <trkpt lat="43.95439" lon="7.30008">
        <ele>568.59997558594</ele>
        <time>2019-03-30T14:46:16.000Z</time>
      </trkpt>
      <trkpt lat="43.95435" lon="7.30007">
        <ele>568.79998779297</ele>
        <time>2019-03-30T14:46:18.000Z</time>
      </trkpt>
      <trkpt lat="43.95426" lon="7.30003">
        <ele>569.79998779297</ele>
        <time>2019-03-30T14:46:22.000Z</time>
      </trkpt>
      <trkpt lat="43.95415" lon="7.29999">
        <ele>570.40002441406</ele>
        <time>2019-03-30T14:46:27.000Z</time>
      </trkpt>
      <trkpt lat="43.95407" lon="7.29999">
        <ele>570.79998779297</ele>
        <time>2019-03-30T14:46:30.000Z</time>
      </trkpt>
      <trkpt lat="43.95394" lon="7.30001">
        <ele>571.79998779297</ele>
        <time>2019-03-30T14:46:35.000Z</time>
      </trkpt>
      <trkpt lat="43.95383" lon="7.30002">
        <ele>573</ele>
        <time>2019-03-30T14:46:39.000Z</time>
      </trkpt>
      <trkpt lat="43.95371" lon="7.30001">
        <ele>574.20001220703</ele>
        <time>2019-03-30T14:46:44.000Z</time>
      </trkpt>
      <trkpt lat="43.95368" lon="7.3">
        <ele>574.40002441406</ele>
        <time>2019-03-30T14:46:45.000Z</time>
      </trkpt>
      <trkpt lat="43.95362" lon="7.29995">
        <ele>575.20001220703</ele>
        <time>2019-03-30T14:46:48.000Z</time>
      </trkpt>
      <trkpt lat="43.95356" lon="7.29985">
        <ele>575.79998779297</ele>
        <time>2019-03-30T14:46:52.000Z</time>
      </trkpt>
      <trkpt lat="43.95355" lon="7.29979">
        <ele>576.20001220703</ele>
        <time>2019-03-30T14:46:54.000Z</time>
      </trkpt>
      <trkpt lat="43.95356" lon="7.29967">
        <ele>576.79998779297</ele>
        <time>2019-03-30T14:46:58.000Z</time>
      </trkpt>
      <trkpt lat="43.95356" lon="7.29961">
        <ele>577.20001220703</ele>
        <time>2019-03-30T14:47:00.000Z</time>
      </trkpt>
      <trkpt lat="43.95353" lon="7.29945">
        <ele>578.20001220703</ele>
        <time>2019-03-30T14:47:05.000Z</time>
      </trkpt>
      <trkpt lat="43.95343" lon="7.29922">
        <ele>579.40002441406</ele>
        <time>2019-03-30T14:47:13.000Z</time>
      </trkpt>
      <trkpt lat="43.95341" lon="7.2992">
        <ele>579.59997558594</ele>
        <time>2019-03-30T14:47:14.000Z</time>
      </trkpt>
      <trkpt lat="43.95332" lon="7.29917">
        <ele>580</ele>
        <time>2019-03-30T14:47:18.000Z</time>
      </trkpt>
      <trkpt lat="43.95328" lon="7.29917">
        <ele>580</ele>
        <time>2019-03-30T14:47:20.000Z</time>
      </trkpt>
      <trkpt lat="43.95317" lon="7.29917">
        <ele>580.40002441406</ele>
        <time>2019-03-30T14:47:24.000Z</time>
      </trkpt>
      <trkpt lat="43.95308" lon="7.29914">
        <ele>581</ele>
        <time>2019-03-30T14:47:28.000Z</time>
      </trkpt>
      <trkpt lat="43.95293" lon="7.29901">
        <ele>581.59997558594</ele>
        <time>2019-03-30T14:47:36.000Z</time>
      </trkpt>
      <trkpt lat="43.95291" lon="7.299">
        <ele>581.79998779297</ele>
        <time>2019-03-30T14:47:37.000Z</time>
      </trkpt>
      <trkpt lat="43.95277" lon="7.29893">
        <ele>582.59997558594</ele>
        <time>2019-03-30T14:47:43.000Z</time>
      </trkpt>
      <trkpt lat="43.95273" lon="7.29893">
        <ele>583</ele>
        <time>2019-03-30T14:47:45.000Z</time>
      </trkpt>
      <trkpt lat="43.9526" lon="7.29895">
        <ele>583.79998779297</ele>
        <time>2019-03-30T14:47:50.000Z</time>
      </trkpt>
      <trkpt lat="43.95256" lon="7.29895">
        <ele>584.40002441406</ele>
        <time>2019-03-30T14:47:52.000Z</time>
      </trkpt>
      <trkpt lat="43.95244" lon="7.29893">
        <ele>584.40002441406</ele>
        <time>2019-03-30T14:47:57.000Z</time>
      </trkpt>
      <trkpt lat="43.95237" lon="7.29889">
        <ele>585</ele>
        <time>2019-03-30T14:48:00.000Z</time>
      </trkpt>
      <trkpt lat="43.9523" lon="7.2988">
        <ele>586</ele>
        <time>2019-03-30T14:48:04.000Z</time>
      </trkpt>
      <trkpt lat="43.95221" lon="7.29868">
        <ele>587.20001220703</ele>
        <time>2019-03-30T14:48:09.000Z</time>
      </trkpt>
      <trkpt lat="43.95212" lon="7.29861">
        <ele>588</ele>
        <time>2019-03-30T14:48:13.000Z</time>
      </trkpt>
      <trkpt lat="43.9521" lon="7.2986">
        <ele>588.20001220703</ele>
        <time>2019-03-30T14:48:14.000Z</time>
      </trkpt>
      <trkpt lat="43.95197" lon="7.29852">
        <ele>589.40002441406</ele>
        <time>2019-03-30T14:48:20.000Z</time>
      </trkpt>
      <trkpt lat="43.95194" lon="7.29851">
        <ele>589.40002441406</ele>
        <time>2019-03-30T14:48:21.000Z</time>
      </trkpt>
      <trkpt lat="43.95173" lon="7.29843">
        <ele>590.40002441406</ele>
        <time>2019-03-30T14:48:30.000Z</time>
      </trkpt>
      <trkpt lat="43.95159" lon="7.29837">
        <ele>591.59997558594</ele>
        <time>2019-03-30T14:48:36.000Z</time>
      </trkpt>
      <trkpt lat="43.95148" lon="7.29833">
        <ele>592.79998779297</ele>
        <time>2019-03-30T14:48:41.000Z</time>
      </trkpt>
      <trkpt lat="43.95133" lon="7.29827">
        <ele>593.40002441406</ele>
        <time>2019-03-30T14:48:48.000Z</time>
      </trkpt>
      <trkpt lat="43.95129" lon="7.29825">
        <ele>593.79998779297</ele>
        <time>2019-03-30T14:48:50.000Z</time>
      </trkpt>
      <trkpt lat="43.95125" lon="7.29823">
        <ele>594.20001220703</ele>
        <time>2019-03-30T14:48:52.000Z</time>
      </trkpt>
      <trkpt lat="43.95122" lon="7.29821">
        <ele>594.59997558594</ele>
        <time>2019-03-30T14:48:54.000Z</time>
      </trkpt>
      <trkpt lat="43.95121" lon="7.29819">
        <ele>595</ele>
        <time>2019-03-30T14:48:55.000Z</time>
      </trkpt>
      <trkpt lat="43.95119" lon="7.29818">
        <ele>595.20001220703</ele>
        <time>2019-03-30T14:48:56.000Z</time>
      </trkpt>
      <trkpt lat="43.95112" lon="7.29812">
        <ele>596</ele>
        <time>2019-03-30T14:49:00.000Z</time>
      </trkpt>
      <trkpt lat="43.95102" lon="7.29801">
        <ele>597.20001220703</ele>
        <time>2019-03-30T14:49:06.000Z</time>
      </trkpt>
      <trkpt lat="43.95097" lon="7.29795">
        <ele>597.59997558594</ele>
        <time>2019-03-30T14:49:09.000Z</time>
      </trkpt>
      <trkpt lat="43.95088" lon="7.29785">
        <ele>598.40002441406</ele>
        <time>2019-03-30T14:49:14.000Z</time>
      </trkpt>
      <trkpt lat="43.95082" lon="7.29779">
        <ele>598.59997558594</ele>
        <time>2019-03-30T14:49:17.000Z</time>
      </trkpt>
      <trkpt lat="43.95072" lon="7.29771">
        <ele>599.40002441406</ele>
        <time>2019-03-30T14:49:21.000Z</time>
      </trkpt>
      <trkpt lat="43.95065" lon="7.29765">
        <ele>600</ele>
        <time>2019-03-30T14:49:24.000Z</time>
      </trkpt>
      <trkpt lat="43.95061" lon="7.2976">
        <ele>600.40002441406</ele>
        <time>2019-03-30T14:49:26.000Z</time>
      </trkpt>
      <trkpt lat="43.95053" lon="7.2975">
        <ele>601.40002441406</ele>
        <time>2019-03-30T14:49:30.000Z</time>
      </trkpt>
      <trkpt lat="43.95047" lon="7.29743">
        <ele>602</ele>
        <time>2019-03-30T14:49:33.000Z</time>
      </trkpt>
      <trkpt lat="43.95041" lon="7.29735">
        <ele>602.59997558594</ele>
        <time>2019-03-30T14:49:36.000Z</time>
      </trkpt>
      <trkpt lat="43.9503" lon="7.29727">
        <ele>603.79998779297</ele>
        <time>2019-03-30T14:49:41.000Z</time>
      </trkpt>
      <trkpt lat="43.95028" lon="7.29726">
        <ele>604</ele>
        <time>2019-03-30T14:49:42.000Z</time>
      </trkpt>
      <trkpt lat="43.95012" lon="7.29719">
        <ele>604.79998779297</ele>
        <time>2019-03-30T14:49:49.000Z</time>
      </trkpt>
      <trkpt lat="43.9501" lon="7.29719">
        <ele>605</ele>
        <time>2019-03-30T14:49:50.000Z</time>
      </trkpt>
      <trkpt lat="43.94996" lon="7.29719">
        <ele>606</ele>
        <time>2019-03-30T14:49:56.000Z</time>
      </trkpt>
      <trkpt lat="43.9499" lon="7.29721">
        <ele>606.20001220703</ele>
        <time>2019-03-30T14:49:58.000Z</time>
      </trkpt>
      <trkpt lat="43.94973" lon="7.29729">
        <ele>607.20001220703</ele>
        <time>2019-03-30T14:50:04.000Z</time>
      </trkpt>
      <trkpt lat="43.94971" lon="7.29731">
        <ele>607.79998779297</ele>
        <time>2019-03-30T14:50:05.000Z</time>
      </trkpt>
      <trkpt lat="43.94966" lon="7.29732">
        <ele>608.40002441406</ele>
        <time>2019-03-30T14:50:07.000Z</time>
      </trkpt>
      <trkpt lat="43.94956" lon="7.29737">
        <ele>609.40002441406</ele>
        <time>2019-03-30T14:50:11.000Z</time>
      </trkpt>
      <trkpt lat="43.94954" lon="7.29738">
        <ele>609.59997558594</ele>
        <time>2019-03-30T14:50:12.000Z</time>
      </trkpt>
      <trkpt lat="43.94947" lon="7.29742">
        <ele>610.59997558594</ele>
        <time>2019-03-30T14:50:17.000Z</time>
      </trkpt>
      <trkpt lat="43.94935" lon="7.29748">
        <ele>611.20001220703</ele>
        <time>2019-03-30T14:50:22.000Z</time>
      </trkpt>
      <trkpt lat="43.94929" lon="7.2975">
        <ele>611.59997558594</ele>
        <time>2019-03-30T14:50:25.000Z</time>
      </trkpt>
      <trkpt lat="43.94917" lon="7.29752">
        <ele>612.59997558594</ele>
        <time>2019-03-30T14:50:30.000Z</time>
      </trkpt>
      <trkpt lat="43.94906" lon="7.29754">
        <ele>613.79998779297</ele>
        <time>2019-03-30T14:50:35.000Z</time>
      </trkpt>
      <trkpt lat="43.94901" lon="7.29754">
        <ele>614.20001220703</ele>
        <time>2019-03-30T14:50:37.000Z</time>
      </trkpt>
      <trkpt lat="43.94894" lon="7.29756">
        <ele>614.79998779297</ele>
        <time>2019-03-30T14:50:40.000Z</time>
      </trkpt>
      <trkpt lat="43.94878" lon="7.2976">
        <ele>615.40002441406</ele>
        <time>2019-03-30T14:50:47.000Z</time>
      </trkpt>
      <trkpt lat="43.9487" lon="7.29762">
        <ele>616</ele>
        <time>2019-03-30T14:50:50.000Z</time>
      </trkpt>
      <trkpt lat="43.94862" lon="7.29763">
        <ele>616.40002441406</ele>
        <time>2019-03-30T14:50:53.000Z</time>
      </trkpt>
      <trkpt lat="43.94854" lon="7.29762">
        <ele>617</ele>
        <time>2019-03-30T14:50:56.000Z</time>
      </trkpt>
      <trkpt lat="43.94844" lon="7.29758">
        <ele>617.79998779297</ele>
        <time>2019-03-30T14:51:00.000Z</time>
      </trkpt>
      <trkpt lat="43.9484" lon="7.29754">
        <ele>618.20001220703</ele>
        <time>2019-03-30T14:51:02.000Z</time>
      </trkpt>
      <trkpt lat="43.9483" lon="7.29742">
        <ele>618.79998779297</ele>
        <time>2019-03-30T14:51:07.000Z</time>
      </trkpt>
      <trkpt lat="43.94829" lon="7.2974">
        <ele>619.20001220703</ele>
        <time>2019-03-30T14:51:08.000Z</time>
      </trkpt>
      <trkpt lat="43.94827" lon="7.29733">
        <ele>619.59997558594</ele>
        <time>2019-03-30T14:51:11.000Z</time>
      </trkpt>
      <trkpt lat="43.94827" lon="7.29732">
        <ele>619.79998779297</ele>
        <time>2019-03-30T14:51:12.000Z</time>
      </trkpt>
      <trkpt lat="43.94826" lon="7.2973">
        <ele>620</ele>
        <time>2019-03-30T14:51:16.000Z</time>
      </trkpt>
      <trkpt lat="43.94823" lon="7.2973">
        <ele>619.59997558594</ele>
        <time>2019-03-30T14:51:36.000Z</time>
      </trkpt>
      <trkpt lat="43.9482" lon="7.29727">
        <ele>619.79998779297</ele>
        <time>2019-03-30T14:51:42.000Z</time>
      </trkpt>
      <trkpt lat="43.94819" lon="7.29724">
        <ele>619.79998779297</ele>
        <time>2019-03-30T14:51:43.000Z</time>
      </trkpt>
      <trkpt lat="43.94819" lon="7.2972">
        <ele>619.40002441406</ele>
        <time>2019-03-30T14:51:46.000Z</time>
      </trkpt>
      <trkpt lat="43.94819" lon="7.2972">
        <ele>619</ele>
        <time>2019-03-30T14:51:55.000Z</time>
      </trkpt>
      <trkpt lat="43.94818" lon="7.29721">
        <ele>618.79998779297</ele>
        <time>2019-03-30T14:52:12.000Z</time>
      </trkpt>
      <trkpt lat="43.94817" lon="7.29719">
        <ele>619.20001220703</ele>
        <time>2019-03-30T14:52:41.000Z</time>
      </trkpt>
      <trkpt lat="43.94819" lon="7.29718">
        <ele>619.40002441406</ele>
        <time>2019-03-30T14:52:45.000Z</time>
      </trkpt>
      <trkpt lat="43.9482" lon="7.29719">
        <ele>619.20001220703</ele>
        <time>2019-03-30T14:52:47.000Z</time>
      </trkpt>
      <trkpt lat="43.94824" lon="7.2972">
        <ele>618</ele>
        <time>2019-03-30T14:52:52.000Z</time>
      </trkpt>
      <trkpt lat="43.94826" lon="7.2972">
        <ele>617.20001220703</ele>
        <time>2019-03-30T14:52:54.000Z</time>
      </trkpt>
      <trkpt lat="43.94826" lon="7.2972">
        <ele>617</ele>
        <time>2019-03-30T14:52:55.000Z</time>
      </trkpt>
      <trkpt lat="43.94827" lon="7.29721">
        <ele>615.59997558594</ele>
        <time>2019-03-30T14:52:58.000Z</time>
      </trkpt>
      <trkpt lat="43.94827" lon="7.29721">
        <ele>615.40002441406</ele>
        <time>2019-03-30T14:52:59.000Z</time>
      </trkpt>
      <trkpt lat="43.94828" lon="7.29722">
        <ele>615</ele>
        <time>2019-03-30T14:53:19.000Z</time>
      </trkpt>
      <trkpt lat="43.94837" lon="7.29731">
        <ele>614.79998779297</ele>
        <time>2019-03-30T14:53:23.000Z</time>
      </trkpt>
      <trkpt lat="43.94839" lon="7.29733">
        <ele>614.40002441406</ele>
        <time>2019-03-30T14:53:24.000Z</time>
      </trkpt>
      <trkpt lat="43.94843" lon="7.29729">
        <ele>613</ele>
        <time>2019-03-30T14:53:26.000Z</time>
      </trkpt>
      <trkpt lat="43.94846" lon="7.29728">
        <ele>611</ele>
        <time>2019-03-30T14:53:28.000Z</time>
      </trkpt>
      <trkpt lat="43.94848" lon="7.29725">
        <ele>609.20001220703</ele>
        <time>2019-03-30T14:53:30.000Z</time>
      </trkpt>
      <trkpt lat="43.94847" lon="7.29716">
        <ele>608.40002441406</ele>
        <time>2019-03-30T14:53:32.000Z</time>
      </trkpt>
      <trkpt lat="43.94849" lon="7.29713">
        <ele>607.59997558594</ele>
        <time>2019-03-30T14:53:33.000Z</time>
      </trkpt>
      <trkpt lat="43.94851" lon="7.29712">
        <ele>606.59997558594</ele>
        <time>2019-03-30T14:53:34.000Z</time>
      </trkpt>
      <trkpt lat="43.94856" lon="7.2971">
        <ele>605</ele>
        <time>2019-03-30T14:53:36.000Z</time>
      </trkpt>
      <trkpt lat="43.94858" lon="7.29707">
        <ele>604.79998779297</ele>
        <time>2019-03-30T14:53:37.000Z</time>
      </trkpt>
      <trkpt lat="43.94857" lon="7.29705">
        <ele>603.59997558594</ele>
        <time>2019-03-30T14:53:38.000Z</time>
      </trkpt>
      <trkpt lat="43.94854" lon="7.29704">
        <ele>603.59997558594</ele>
        <time>2019-03-30T14:53:39.000Z</time>
      </trkpt>
      <trkpt lat="43.9485" lon="7.29699">
        <ele>602.40002441406</ele>
        <time>2019-03-30T14:53:41.000Z</time>
      </trkpt>
      <trkpt lat="43.94849" lon="7.29698">
        <ele>602.40002441406</ele>
        <time>2019-03-30T14:53:42.000Z</time>
      </trkpt>
      <trkpt lat="43.9485" lon="7.29698">
        <ele>601.20001220703</ele>
        <time>2019-03-30T14:53:45.000Z</time>
      </trkpt>
      <trkpt lat="43.9485" lon="7.29698">
        <ele>601</ele>
        <time>2019-03-30T14:53:46.000Z</time>
      </trkpt>
      <trkpt lat="43.94852" lon="7.29697">
        <ele>600.59997558594</ele>
        <time>2019-03-30T14:53:53.000Z</time>
      </trkpt>
      <trkpt lat="43.94856" lon="7.29697">
        <ele>600.40002441406</ele>
        <time>2019-03-30T14:53:55.000Z</time>
      </trkpt>
      <trkpt lat="43.94862" lon="7.29694">
        <ele>600.20001220703</ele>
        <time>2019-03-30T14:53:57.000Z</time>
      </trkpt>
      <trkpt lat="43.94873" lon="7.29687">
        <ele>599.40002441406</ele>
        <time>2019-03-30T14:53:59.000Z</time>
      </trkpt>
      <trkpt lat="43.94879" lon="7.29683">
        <ele>598.79998779297</ele>
        <time>2019-03-30T14:54:00.000Z</time>
      </trkpt>
      <trkpt lat="43.94889" lon="7.29678">
        <ele>597.20001220703</ele>
        <time>2019-03-30T14:54:02.000Z</time>
      </trkpt>
      <trkpt lat="43.94893" lon="7.29677">
        <ele>595.79998779297</ele>
        <time>2019-03-30T14:54:03.000Z</time>
      </trkpt>
      <trkpt lat="43.94896" lon="7.29677">
        <ele>594.79998779297</ele>
        <time>2019-03-30T14:54:04.000Z</time>
      </trkpt>
      <trkpt lat="43.94898" lon="7.29676">
        <ele>593.59997558594</ele>
        <time>2019-03-30T14:54:05.000Z</time>
      </trkpt>
      <trkpt lat="43.94899" lon="7.29675">
        <ele>592.20001220703</ele>
        <time>2019-03-30T14:54:07.000Z</time>
      </trkpt>
      <trkpt lat="43.94898" lon="7.29675">
        <ele>590.79998779297</ele>
        <time>2019-03-30T14:54:09.000Z</time>
      </trkpt>
      <trkpt lat="43.94898" lon="7.29673">
        <ele>590.20001220703</ele>
        <time>2019-03-30T14:54:13.000Z</time>
      </trkpt>
      <trkpt lat="43.94897" lon="7.29673">
        <ele>589.59997558594</ele>
        <time>2019-03-30T14:54:15.000Z</time>
      </trkpt>
      <trkpt lat="43.94892" lon="7.29669">
        <ele>589.20001220703</ele>
        <time>2019-03-30T14:54:19.000Z</time>
      </trkpt>
      <trkpt lat="43.9488" lon="7.29658">
        <ele>588.40002441406</ele>
        <time>2019-03-30T14:54:22.000Z</time>
      </trkpt>
      <trkpt lat="43.94874" lon="7.29655">
        <ele>587.79998779297</ele>
        <time>2019-03-30T14:54:23.000Z</time>
      </trkpt>
      <trkpt lat="43.94868" lon="7.29652">
        <ele>587</ele>
        <time>2019-03-30T14:54:24.000Z</time>
      </trkpt>
      <trkpt lat="43.94863" lon="7.29648">
        <ele>585.79998779297</ele>
        <time>2019-03-30T14:54:25.000Z</time>
      </trkpt>
      <trkpt lat="43.94856" lon="7.29637">
        <ele>584.40002441406</ele>
        <time>2019-03-30T14:54:27.000Z</time>
      </trkpt>
      <trkpt lat="43.94853" lon="7.2963">
        <ele>583</ele>
        <time>2019-03-30T14:54:28.000Z</time>
      </trkpt>
      <trkpt lat="43.94846" lon="7.29618">
        <ele>580.79998779297</ele>
        <time>2019-03-30T14:54:30.000Z</time>
      </trkpt>
      <trkpt lat="43.94843" lon="7.29614">
        <ele>579.20001220703</ele>
        <time>2019-03-30T14:54:31.000Z</time>
      </trkpt>
      <trkpt lat="43.9484" lon="7.2961">
        <ele>578</ele>
        <time>2019-03-30T14:54:32.000Z</time>
      </trkpt>
      <trkpt lat="43.94838" lon="7.2961">
        <ele>576</ele>
        <time>2019-03-30T14:54:33.000Z</time>
      </trkpt>
      <trkpt lat="43.94836" lon="7.29609">
        <ele>574.40002441406</ele>
        <time>2019-03-30T14:54:34.000Z</time>
      </trkpt>
      <trkpt lat="43.94836" lon="7.29607">
        <ele>573.20001220703</ele>
        <time>2019-03-30T14:54:35.000Z</time>
      </trkpt>
      <trkpt lat="43.94837" lon="7.29607">
        <ele>572</ele>
        <time>2019-03-30T14:54:36.000Z</time>
      </trkpt>
      <trkpt lat="43.94838" lon="7.29607">
        <ele>571.59997558594</ele>
        <time>2019-03-30T14:54:37.000Z</time>
      </trkpt>
      <trkpt lat="43.94839" lon="7.29606">
        <ele>570.20001220703</ele>
        <time>2019-03-30T14:54:38.000Z</time>
      </trkpt>
      <trkpt lat="43.9484" lon="7.29605">
        <ele>569.59997558594</ele>
        <time>2019-03-30T14:54:39.000Z</time>
      </trkpt>
      <trkpt lat="43.94839" lon="7.29603">
        <ele>569.20001220703</ele>
        <time>2019-03-30T14:54:40.000Z</time>
      </trkpt>
      <trkpt lat="43.94833" lon="7.29599">
        <ele>567.59997558594</ele>
        <time>2019-03-30T14:54:42.000Z</time>
      </trkpt>
      <trkpt lat="43.9483" lon="7.29593">
        <ele>567</ele>
        <time>2019-03-30T14:54:43.000Z</time>
      </trkpt>
      <trkpt lat="43.94826" lon="7.29589">
        <ele>566.20001220703</ele>
        <time>2019-03-30T14:54:44.000Z</time>
      </trkpt>
      <trkpt lat="43.94823" lon="7.29584">
        <ele>565.40002441406</ele>
        <time>2019-03-30T14:54:45.000Z</time>
      </trkpt>
      <trkpt lat="43.94822" lon="7.29579">
        <ele>564.20001220703</ele>
        <time>2019-03-30T14:54:46.000Z</time>
      </trkpt>
      <trkpt lat="43.94818" lon="7.2957">
        <ele>561.40002441406</ele>
        <time>2019-03-30T14:54:48.000Z</time>
      </trkpt>
      <trkpt lat="43.94816" lon="7.29566">
        <ele>560.20001220703</ele>
        <time>2019-03-30T14:54:49.000Z</time>
      </trkpt>
      <trkpt lat="43.94814" lon="7.2956">
        <ele>558.59997558594</ele>
        <time>2019-03-30T14:54:51.000Z</time>
      </trkpt>
      <trkpt lat="43.94814" lon="7.29558">
        <ele>557.79998779297</ele>
        <time>2019-03-30T14:54:52.000Z</time>
      </trkpt>
      <trkpt lat="43.94815" lon="7.29557">
        <ele>556.79998779297</ele>
        <time>2019-03-30T14:54:53.000Z</time>
      </trkpt>
      <trkpt lat="43.94818" lon="7.29559">
        <ele>554.79998779297</ele>
        <time>2019-03-30T14:54:55.000Z</time>
      </trkpt>
      <trkpt lat="43.94824" lon="7.2956">
        <ele>553.79998779297</ele>
        <time>2019-03-30T14:54:57.000Z</time>
      </trkpt>
      <trkpt lat="43.94823" lon="7.29558">
        <ele>553.59997558594</ele>
        <time>2019-03-30T14:54:58.000Z</time>
      </trkpt>
      <trkpt lat="43.94821" lon="7.29556">
        <ele>552.79998779297</ele>
        <time>2019-03-30T14:54:59.000Z</time>
      </trkpt>
      <trkpt lat="43.94817" lon="7.2955">
        <ele>551.59997558594</ele>
        <time>2019-03-30T14:55:01.000Z</time>
      </trkpt>
      <trkpt lat="43.94813" lon="7.29541">
        <ele>550.20001220703</ele>
        <time>2019-03-30T14:55:03.000Z</time>
      </trkpt>
      <trkpt lat="43.94808" lon="7.29531">
        <ele>548.79998779297</ele>
        <time>2019-03-30T14:55:05.000Z</time>
      </trkpt>
      <trkpt lat="43.94805" lon="7.29524">
        <ele>546.79998779297</ele>
        <time>2019-03-30T14:55:07.000Z</time>
      </trkpt>
      <trkpt lat="43.94802" lon="7.29518">
        <ele>544.40002441406</ele>
        <time>2019-03-30T14:55:09.000Z</time>
      </trkpt>
      <trkpt lat="43.94801" lon="7.29514">
        <ele>543</ele>
        <time>2019-03-30T14:55:10.000Z</time>
      </trkpt>
      <trkpt lat="43.94799" lon="7.2951">
        <ele>541.59997558594</ele>
        <time>2019-03-30T14:55:11.000Z</time>
      </trkpt>
      <trkpt lat="43.94795" lon="7.29503">
        <ele>540.20001220703</ele>
        <time>2019-03-30T14:55:13.000Z</time>
      </trkpt>
      <trkpt lat="43.94794" lon="7.29499">
        <ele>539.59997558594</ele>
        <time>2019-03-30T14:55:14.000Z</time>
      </trkpt>
      <trkpt lat="43.94794" lon="7.29494">
        <ele>538.79998779297</ele>
        <time>2019-03-30T14:55:15.000Z</time>
      </trkpt>
      <trkpt lat="43.94793" lon="7.2949">
        <ele>538</ele>
        <time>2019-03-30T14:55:16.000Z</time>
      </trkpt>
      <trkpt lat="43.94793" lon="7.29486">
        <ele>536.79998779297</ele>
        <time>2019-03-30T14:55:17.000Z</time>
      </trkpt>
      <trkpt lat="43.94791" lon="7.29481">
        <ele>534.79998779297</ele>
        <time>2019-03-30T14:55:18.000Z</time>
      </trkpt>
      <trkpt lat="43.9479" lon="7.29476">
        <ele>533.40002441406</ele>
        <time>2019-03-30T14:55:19.000Z</time>
      </trkpt>
      <trkpt lat="43.9479" lon="7.29466">
        <ele>532.20001220703</ele>
        <time>2019-03-30T14:55:21.000Z</time>
      </trkpt>
      <trkpt lat="43.94792" lon="7.29465">
        <ele>530.79998779297</ele>
        <time>2019-03-30T14:55:23.000Z</time>
      </trkpt>
      <trkpt lat="43.94793" lon="7.29467">
        <ele>530.20001220703</ele>
        <time>2019-03-30T14:55:24.000Z</time>
      </trkpt>
      <trkpt lat="43.94795" lon="7.29468">
        <ele>529.40002441406</ele>
        <time>2019-03-30T14:55:25.000Z</time>
      </trkpt>
      <trkpt lat="43.94797" lon="7.29468">
        <ele>528.40002441406</ele>
        <time>2019-03-30T14:55:27.000Z</time>
      </trkpt>
      <trkpt lat="43.94797" lon="7.29466">
        <ele>527.79998779297</ele>
        <time>2019-03-30T14:55:28.000Z</time>
      </trkpt>
      <trkpt lat="43.94796" lon="7.29461">
        <ele>526.79998779297</ele>
        <time>2019-03-30T14:55:30.000Z</time>
      </trkpt>
      <trkpt lat="43.94795" lon="7.29454">
        <ele>526</ele>
        <time>2019-03-30T14:55:32.000Z</time>
      </trkpt>
      <trkpt lat="43.94797" lon="7.29454">
        <ele>525.40002441406</ele>
        <time>2019-03-30T14:55:33.000Z</time>
      </trkpt>
      <trkpt lat="43.94799" lon="7.29455">
        <ele>525</ele>
        <time>2019-03-30T14:55:34.000Z</time>
      </trkpt>
      <trkpt lat="43.94801" lon="7.29457">
        <ele>524.40002441406</ele>
        <time>2019-03-30T14:55:35.000Z</time>
      </trkpt>
      <trkpt lat="43.94809" lon="7.29466">
        <ele>522.59997558594</ele>
        <time>2019-03-30T14:55:38.000Z</time>
      </trkpt>
      <trkpt lat="43.9481" lon="7.29466">
        <ele>522</ele>
        <time>2019-03-30T14:55:39.000Z</time>
      </trkpt>
      <trkpt lat="43.94812" lon="7.29464">
        <ele>521.20001220703</ele>
        <time>2019-03-30T14:55:40.000Z</time>
      </trkpt>
      <trkpt lat="43.94811" lon="7.29457">
        <ele>519.79998779297</ele>
        <time>2019-03-30T14:55:42.000Z</time>
      </trkpt>
      <trkpt lat="43.94809" lon="7.29451">
        <ele>518.59997558594</ele>
        <time>2019-03-30T14:55:43.000Z</time>
      </trkpt>
      <trkpt lat="43.94809" lon="7.29447">
        <ele>517.79998779297</ele>
        <time>2019-03-30T14:55:44.000Z</time>
      </trkpt>
      <trkpt lat="43.9481" lon="7.29445">
        <ele>517</ele>
        <time>2019-03-30T14:55:45.000Z</time>
      </trkpt>
      <trkpt lat="43.9481" lon="7.29443">
        <ele>516.20001220703</ele>
        <time>2019-03-30T14:55:46.000Z</time>
      </trkpt>
      <trkpt lat="43.94811" lon="7.29439">
        <ele>515.59997558594</ele>
        <time>2019-03-30T14:55:47.000Z</time>
      </trkpt>
      <trkpt lat="43.9481" lon="7.29437">
        <ele>515</ele>
        <time>2019-03-30T14:55:48.000Z</time>
      </trkpt>
      <trkpt lat="43.94811" lon="7.29434">
        <ele>514.20001220703</ele>
        <time>2019-03-30T14:55:49.000Z</time>
      </trkpt>
      <trkpt lat="43.94816" lon="7.29435">
        <ele>513.20001220703</ele>
        <time>2019-03-30T14:55:51.000Z</time>
      </trkpt>
      <trkpt lat="43.94823" lon="7.29441">
        <ele>511.20001220703</ele>
        <time>2019-03-30T14:55:53.000Z</time>
      </trkpt>
      <trkpt lat="43.94824" lon="7.29441">
        <ele>510.39999389648</ele>
        <time>2019-03-30T14:55:54.000Z</time>
      </trkpt>
      <trkpt lat="43.94824" lon="7.2944">
        <ele>509.39999389648</ele>
        <time>2019-03-30T14:55:55.000Z</time>
      </trkpt>
      <trkpt lat="43.94824" lon="7.29435">
        <ele>508</ele>
        <time>2019-03-30T14:55:57.000Z</time>
      </trkpt>
      <trkpt lat="43.94824" lon="7.29427">
        <ele>506.79998779297</ele>
        <time>2019-03-30T14:55:58.000Z</time>
      </trkpt>
      <trkpt lat="43.94824" lon="7.29422">
        <ele>506</ele>
        <time>2019-03-30T14:55:59.000Z</time>
      </trkpt>
      <trkpt lat="43.94823" lon="7.29417">
        <ele>505</ele>
        <time>2019-03-30T14:56:00.000Z</time>
      </trkpt>
      <trkpt lat="43.9482" lon="7.29409">
        <ele>503.60000610352</ele>
        <time>2019-03-30T14:56:02.000Z</time>
      </trkpt>
      <trkpt lat="43.94818" lon="7.29399">
        <ele>502</ele>
        <time>2019-03-30T14:56:04.000Z</time>
      </trkpt>
      <trkpt lat="43.94818" lon="7.29391">
        <ele>500.20001220703</ele>
        <time>2019-03-30T14:56:06.000Z</time>
      </trkpt>
      <trkpt lat="43.94815" lon="7.29383">
        <ele>498.60000610352</ele>
        <time>2019-03-30T14:56:08.000Z</time>
      </trkpt>
      <trkpt lat="43.94814" lon="7.29368">
        <ele>496.60000610352</ele>
        <time>2019-03-30T14:56:10.000Z</time>
      </trkpt>
      <trkpt lat="43.94814" lon="7.29361">
        <ele>495.60000610352</ele>
        <time>2019-03-30T14:56:11.000Z</time>
      </trkpt>
      <trkpt lat="43.94815" lon="7.29351">
        <ele>493.20001220703</ele>
        <time>2019-03-30T14:56:13.000Z</time>
      </trkpt>
      <trkpt lat="43.94816" lon="7.2935">
        <ele>491.60000610352</ele>
        <time>2019-03-30T14:56:14.000Z</time>
      </trkpt>
      <trkpt lat="43.94816" lon="7.29352">
        <ele>490.39999389648</ele>
        <time>2019-03-30T14:56:15.000Z</time>
      </trkpt>
      <trkpt lat="43.94818" lon="7.29355">
        <ele>488.79998779297</ele>
        <time>2019-03-30T14:56:17.000Z</time>
      </trkpt>
      <trkpt lat="43.94819" lon="7.29351">
        <ele>487.39999389648</ele>
        <time>2019-03-30T14:56:18.000Z</time>
      </trkpt>
      <trkpt lat="43.94818" lon="7.29348">
        <ele>486.60000610352</ele>
        <time>2019-03-30T14:56:19.000Z</time>
      </trkpt>
      <trkpt lat="43.94817" lon="7.29343">
        <ele>486.20001220703</ele>
        <time>2019-03-30T14:56:20.000Z</time>
      </trkpt>
      <trkpt lat="43.94816" lon="7.29332">
        <ele>484.60000610352</ele>
        <time>2019-03-30T14:56:22.000Z</time>
      </trkpt>
      <trkpt lat="43.94818" lon="7.29332">
        <ele>483.60000610352</ele>
        <time>2019-03-30T14:56:23.000Z</time>
      </trkpt>
      <trkpt lat="43.94819" lon="7.29331">
        <ele>483</ele>
        <time>2019-03-30T14:56:24.000Z</time>
      </trkpt>
      <trkpt lat="43.94819" lon="7.2933">
        <ele>481.79998779297</ele>
        <time>2019-03-30T14:56:25.000Z</time>
      </trkpt>
      <trkpt lat="43.94818" lon="7.29329">
        <ele>481</ele>
        <time>2019-03-30T14:56:26.000Z</time>
      </trkpt>
      <trkpt lat="43.94817" lon="7.29327">
        <ele>480.20001220703</ele>
        <time>2019-03-30T14:56:27.000Z</time>
      </trkpt>
      <trkpt lat="43.94818" lon="7.29325">
        <ele>479.39999389648</ele>
        <time>2019-03-30T14:56:28.000Z</time>
      </trkpt>
      <trkpt lat="43.94819" lon="7.29324">
        <ele>478.79998779297</ele>
        <time>2019-03-30T14:56:29.000Z</time>
      </trkpt>
      <trkpt lat="43.9482" lon="7.29323">
        <ele>478.20001220703</ele>
        <time>2019-03-30T14:56:30.000Z</time>
      </trkpt>
      <trkpt lat="43.94821" lon="7.29321">
        <ele>477.39999389648</ele>
        <time>2019-03-30T14:56:32.000Z</time>
      </trkpt>
      <trkpt lat="43.9482" lon="7.29318">
        <ele>476.79998779297</ele>
        <time>2019-03-30T14:56:33.000Z</time>
      </trkpt>
      <trkpt lat="43.94818" lon="7.29314">
        <ele>476.20001220703</ele>
        <time>2019-03-30T14:56:34.000Z</time>
      </trkpt>
      <trkpt lat="43.94813" lon="7.29302">
        <ele>474.79998779297</ele>
        <time>2019-03-30T14:56:36.000Z</time>
      </trkpt>
      <trkpt lat="43.94808" lon="7.29288">
        <ele>472.79998779297</ele>
        <time>2019-03-30T14:56:38.000Z</time>
      </trkpt>
      <trkpt lat="43.94803" lon="7.29272">
        <ele>471</ele>
        <time>2019-03-30T14:56:40.000Z</time>
      </trkpt>
      <trkpt lat="43.94801" lon="7.2926">
        <ele>470</ele>
        <time>2019-03-30T14:56:42.000Z</time>
      </trkpt>
      <trkpt lat="43.94802" lon="7.29254">
        <ele>469.20001220703</ele>
        <time>2019-03-30T14:56:43.000Z</time>
      </trkpt>
      <trkpt lat="43.94803" lon="7.29251">
        <ele>468.79998779297</ele>
        <time>2019-03-30T14:56:44.000Z</time>
      </trkpt>
      <trkpt lat="43.94805" lon="7.2925">
        <ele>468.39999389648</ele>
        <time>2019-03-30T14:56:45.000Z</time>
      </trkpt>
      <trkpt lat="43.94805" lon="7.29253">
        <ele>467.60000610352</ele>
        <time>2019-03-30T14:56:47.000Z</time>
      </trkpt>
      <trkpt lat="43.94806" lon="7.29256">
        <ele>466.79998779297</ele>
        <time>2019-03-30T14:56:48.000Z</time>
      </trkpt>
      <trkpt lat="43.94807" lon="7.29259">
        <ele>466.20001220703</ele>
        <time>2019-03-30T14:56:49.000Z</time>
      </trkpt>
      <trkpt lat="43.9481" lon="7.2926">
        <ele>464.79998779297</ele>
        <time>2019-03-30T14:56:51.000Z</time>
      </trkpt>
      <trkpt lat="43.94811" lon="7.29259">
        <ele>464.20001220703</ele>
        <time>2019-03-30T14:56:52.000Z</time>
      </trkpt>
      <trkpt lat="43.94811" lon="7.29256">
        <ele>463.39999389648</ele>
        <time>2019-03-30T14:56:53.000Z</time>
      </trkpt>
      <trkpt lat="43.94811" lon="7.2925">
        <ele>462</ele>
        <time>2019-03-30T14:56:55.000Z</time>
      </trkpt>
      <trkpt lat="43.94812" lon="7.29247">
        <ele>461</ele>
        <time>2019-03-30T14:56:57.000Z</time>
      </trkpt>
      <trkpt lat="43.94814" lon="7.29248">
        <ele>460.20001220703</ele>
        <time>2019-03-30T14:56:58.000Z</time>
      </trkpt>
      <trkpt lat="43.94814" lon="7.29248">
        <ele>459.39999389648</ele>
        <time>2019-03-30T14:56:59.000Z</time>
      </trkpt>
      <trkpt lat="43.94815" lon="7.29249">
        <ele>458.39999389648</ele>
        <time>2019-03-30T14:57:01.000Z</time>
      </trkpt>
      <trkpt lat="43.94815" lon="7.29248">
        <ele>457.20001220703</ele>
        <time>2019-03-30T14:57:04.000Z</time>
      </trkpt>
      <trkpt lat="43.94816" lon="7.29247">
        <ele>456.79998779297</ele>
        <time>2019-03-30T14:57:05.000Z</time>
      </trkpt>
      <trkpt lat="43.94818" lon="7.29243">
        <ele>456</ele>
        <time>2019-03-30T14:57:08.000Z</time>
      </trkpt>
      <trkpt lat="43.94818" lon="7.29242">
        <ele>455.79998779297</ele>
        <time>2019-03-30T14:57:09.000Z</time>
      </trkpt>
      <trkpt lat="43.9482" lon="7.29242">
        <ele>455</ele>
        <time>2019-03-30T14:57:11.000Z</time>
      </trkpt>
      <trkpt lat="43.94823" lon="7.29245">
        <ele>454.39999389648</ele>
        <time>2019-03-30T14:57:13.000Z</time>
      </trkpt>
      <trkpt lat="43.94826" lon="7.29249">
        <ele>454</ele>
        <time>2019-03-30T14:57:15.000Z</time>
      </trkpt>
      <trkpt lat="43.94827" lon="7.2925">
        <ele>452.60000610352</ele>
        <time>2019-03-30T14:57:19.000Z</time>
      </trkpt>
      <trkpt lat="43.94828" lon="7.29248">
        <ele>452</ele>
        <time>2019-03-30T14:57:23.000Z</time>
      </trkpt>
      <trkpt lat="43.94826" lon="7.29246">
        <ele>452</ele>
        <time>2019-03-30T14:57:24.000Z</time>
      </trkpt>
      <trkpt lat="43.94823" lon="7.29241">
        <ele>451.39999389648</ele>
        <time>2019-03-30T14:57:26.000Z</time>
      </trkpt>
      <trkpt lat="43.94822" lon="7.29239">
        <ele>451.20001220703</ele>
        <time>2019-03-30T14:57:27.000Z</time>
      </trkpt>
      <trkpt lat="43.94823" lon="7.29238">
        <ele>450.60000610352</ele>
        <time>2019-03-30T14:57:28.000Z</time>
      </trkpt>
      <trkpt lat="43.94825" lon="7.29237">
        <ele>450</ele>
        <time>2019-03-30T14:57:29.000Z</time>
      </trkpt>
      <trkpt lat="43.94828" lon="7.2924">
        <ele>449</ele>
        <time>2019-03-30T14:57:31.000Z</time>
      </trkpt>
      <trkpt lat="43.9483" lon="7.29243">
        <ele>448.60000610352</ele>
        <time>2019-03-30T14:57:32.000Z</time>
      </trkpt>
      <trkpt lat="43.94832" lon="7.29242">
        <ele>447.79998779297</ele>
        <time>2019-03-30T14:57:33.000Z</time>
      </trkpt>
      <trkpt lat="43.94833" lon="7.29241">
        <ele>446.60000610352</ele>
        <time>2019-03-30T14:57:35.000Z</time>
      </trkpt>
      <trkpt lat="43.94832" lon="7.2924">
        <ele>445.20001220703</ele>
        <time>2019-03-30T14:57:38.000Z</time>
      </trkpt>
      <trkpt lat="43.94829" lon="7.29236">
        <ele>445</ele>
        <time>2019-03-30T14:57:40.000Z</time>
      </trkpt>
      <trkpt lat="43.94822" lon="7.29228">
        <ele>444.20001220703</ele>
        <time>2019-03-30T14:57:43.000Z</time>
      </trkpt>
      <trkpt lat="43.94822" lon="7.29225">
        <ele>443.20001220703</ele>
        <time>2019-03-30T14:57:44.000Z</time>
      </trkpt>
      <trkpt lat="43.94822" lon="7.29224">
        <ele>442.39999389648</ele>
        <time>2019-03-30T14:57:45.000Z</time>
      </trkpt>
      <trkpt lat="43.94826" lon="7.29224">
        <ele>441.20001220703</ele>
        <time>2019-03-30T14:57:47.000Z</time>
      </trkpt>
      <trkpt lat="43.94829" lon="7.29225">
        <ele>439.60000610352</ele>
        <time>2019-03-30T14:57:49.000Z</time>
      </trkpt>
      <trkpt lat="43.94829" lon="7.29223">
        <ele>439</ele>
        <time>2019-03-30T14:57:50.000Z</time>
      </trkpt>
      <trkpt lat="43.94828" lon="7.29222">
        <ele>438.39999389648</ele>
        <time>2019-03-30T14:57:51.000Z</time>
      </trkpt>
      <trkpt lat="43.94824" lon="7.29218">
        <ele>437.20001220703</ele>
        <time>2019-03-30T14:57:53.000Z</time>
      </trkpt>
      <trkpt lat="43.94819" lon="7.2921">
        <ele>436</ele>
        <time>2019-03-30T14:57:55.000Z</time>
      </trkpt>
      <trkpt lat="43.94816" lon="7.29199">
        <ele>434.39999389648</ele>
        <time>2019-03-30T14:57:57.000Z</time>
      </trkpt>
      <trkpt lat="43.94817" lon="7.29195">
        <ele>433.39999389648</ele>
        <time>2019-03-30T14:57:58.000Z</time>
      </trkpt>
      <trkpt lat="43.94819" lon="7.29194">
        <ele>432</ele>
        <time>2019-03-30T14:57:59.000Z</time>
      </trkpt>
      <trkpt lat="43.94822" lon="7.29195">
        <ele>430.79998779297</ele>
        <time>2019-03-30T14:58:00.000Z</time>
      </trkpt>
      <trkpt lat="43.94824" lon="7.29197">
        <ele>429.60000610352</ele>
        <time>2019-03-30T14:58:01.000Z</time>
      </trkpt>
      <trkpt lat="43.94826" lon="7.29198">
        <ele>428.79998779297</ele>
        <time>2019-03-30T14:58:02.000Z</time>
      </trkpt>
      <trkpt lat="43.94828" lon="7.29198">
        <ele>427.60000610352</ele>
        <time>2019-03-30T14:58:03.000Z</time>
      </trkpt>
      <trkpt lat="43.94829" lon="7.29198">
        <ele>427</ele>
        <time>2019-03-30T14:58:04.000Z</time>
      </trkpt>
      <trkpt lat="43.94831" lon="7.29198">
        <ele>426.20001220703</ele>
        <time>2019-03-30T14:58:06.000Z</time>
      </trkpt>
      <trkpt lat="43.94837" lon="7.29198">
        <ele>425.20001220703</ele>
        <time>2019-03-30T14:58:08.000Z</time>
      </trkpt>
      <trkpt lat="43.9484" lon="7.29198">
        <ele>424.79998779297</ele>
        <time>2019-03-30T14:58:09.000Z</time>
      </trkpt>
      <trkpt lat="43.94844" lon="7.29196">
        <ele>424</ele>
        <time>2019-03-30T14:58:10.000Z</time>
      </trkpt>
      <trkpt lat="43.94852" lon="7.29196">
        <ele>422.39999389648</ele>
        <time>2019-03-30T14:58:12.000Z</time>
      </trkpt>
      <trkpt lat="43.94858" lon="7.29198">
        <ele>421.20001220703</ele>
        <time>2019-03-30T14:58:13.000Z</time>
      </trkpt>
      <trkpt lat="43.94864" lon="7.29201">
        <ele>420.20001220703</ele>
        <time>2019-03-30T14:58:14.000Z</time>
      </trkpt>
      <trkpt lat="43.94869" lon="7.29205">
        <ele>419</ele>
        <time>2019-03-30T14:58:15.000Z</time>
      </trkpt>
      <trkpt lat="43.94879" lon="7.29211">
        <ele>418.20001220703</ele>
        <time>2019-03-30T14:58:17.000Z</time>
      </trkpt>
      <trkpt lat="43.94886" lon="7.29216">
        <ele>417.60000610352</ele>
        <time>2019-03-30T14:58:18.000Z</time>
      </trkpt>
      <trkpt lat="43.94891" lon="7.2922">
        <ele>417.20001220703</ele>
        <time>2019-03-30T14:58:19.000Z</time>
      </trkpt>
      <trkpt lat="43.949" lon="7.29225">
        <ele>416.79998779297</ele>
        <time>2019-03-30T14:58:21.000Z</time>
      </trkpt>
      <trkpt lat="43.94905" lon="7.29227">
        <ele>416.60000610352</ele>
        <time>2019-03-30T14:58:22.000Z</time>
      </trkpt>
      <trkpt lat="43.94913" lon="7.29229">
        <ele>415</ele>
        <time>2019-03-30T14:58:24.000Z</time>
      </trkpt>
      <trkpt lat="43.94918" lon="7.29233">
        <ele>413.60000610352</ele>
        <time>2019-03-30T14:58:26.000Z</time>
      </trkpt>
      <trkpt lat="43.94921" lon="7.29235">
        <ele>413</ele>
        <time>2019-03-30T14:58:28.000Z</time>
      </trkpt>
      <trkpt lat="43.94922" lon="7.29233">
        <ele>412.20001220703</ele>
        <time>2019-03-30T14:58:29.000Z</time>
      </trkpt>
      <trkpt lat="43.94923" lon="7.2923">
        <ele>411.60000610352</ele>
        <time>2019-03-30T14:58:30.000Z</time>
      </trkpt>
      <trkpt lat="43.94924" lon="7.29226">
        <ele>411</ele>
        <time>2019-03-30T14:58:31.000Z</time>
      </trkpt>
      <trkpt lat="43.94926" lon="7.29216">
        <ele>409.20001220703</ele>
        <time>2019-03-30T14:58:33.000Z</time>
      </trkpt>
      <trkpt lat="43.94929" lon="7.29208">
        <ele>408.39999389648</ele>
        <time>2019-03-30T14:58:35.000Z</time>
      </trkpt>
      <trkpt lat="43.9493" lon="7.29204">
        <ele>408.20001220703</ele>
        <time>2019-03-30T14:58:36.000Z</time>
      </trkpt>
      <trkpt lat="43.94929" lon="7.29201">
        <ele>408.60000610352</ele>
        <time>2019-03-30T14:58:39.000Z</time>
      </trkpt>
      <trkpt lat="43.94925" lon="7.29197">
        <ele>410</ele>
        <time>2019-03-30T14:58:47.000Z</time>
      </trkpt>
      <trkpt lat="43.94924" lon="7.29197">
        <ele>410.20001220703</ele>
        <time>2019-03-30T14:58:48.000Z</time>
      </trkpt>
      <trkpt lat="43.94922" lon="7.29193">
        <ele>411.39999389648</ele>
        <time>2019-03-30T14:58:53.000Z</time>
      </trkpt>
      <trkpt lat="43.94921" lon="7.29193">
        <ele>411.60000610352</ele>
        <time>2019-03-30T14:58:54.000Z</time>
      </trkpt>
      <trkpt lat="43.94919" lon="7.29194">
        <ele>412</ele>
        <time>2019-03-30T14:58:56.000Z</time>
      </trkpt>
      <trkpt lat="43.94918" lon="7.29193">
        <ele>412.39999389648</ele>
        <time>2019-03-30T14:58:58.000Z</time>
      </trkpt>
      <trkpt lat="43.94918" lon="7.29192">
        <ele>412.60000610352</ele>
        <time>2019-03-30T14:58:59.000Z</time>
      </trkpt>
      <trkpt lat="43.94916" lon="7.2919">
        <ele>413</ele>
        <time>2019-03-30T14:59:02.000Z</time>
      </trkpt>
      <trkpt lat="43.94916" lon="7.2919">
        <ele>413.60000610352</ele>
        <time>2019-03-30T14:59:08.000Z</time>
      </trkpt>
      <trkpt lat="43.94916" lon="7.2919">
        <ele>413.60000610352</ele>
        <time>2019-03-30T14:59:09.000Z</time>
      </trkpt>
      <trkpt lat="43.94916" lon="7.29191">
        <ele>413.60000610352</ele>
        <time>2019-03-30T14:59:23.000Z</time>
      </trkpt>
      <trkpt lat="43.94917" lon="7.29192">
        <ele>413.39999389648</ele>
        <time>2019-03-30T14:59:47.000Z</time>
      </trkpt>
      <trkpt lat="43.94916" lon="7.29192">
        <ele>413.39999389648</ele>
        <time>2019-03-30T15:00:00.000Z</time>
      </trkpt>
      <trkpt lat="43.94914" lon="7.29193">
        <ele>413.60000610352</ele>
        <time>2019-03-30T15:00:06.000Z</time>
      </trkpt>
      <trkpt lat="43.94909" lon="7.29186">
        <ele>413.79998779297</ele>
        <time>2019-03-30T15:00:13.000Z</time>
      </trkpt>
      <trkpt lat="43.94906" lon="7.2918">
        <ele>413.79998779297</ele>
        <time>2019-03-30T15:00:19.000Z</time>
      </trkpt>
      <trkpt lat="43.94906" lon="7.29181">
        <ele>413.20001220703</ele>
        <time>2019-03-30T15:00:33.000Z</time>
      </trkpt>
      <trkpt lat="43.94908" lon="7.29183">
        <ele>413</ele>
        <time>2019-03-30T15:00:38.000Z</time>
      </trkpt>
      <trkpt lat="43.94909" lon="7.29184">
        <ele>413</ele>
        <time>2019-03-30T15:00:39.000Z</time>
      </trkpt>
      <trkpt lat="43.94914" lon="7.29185">
        <ele>413.60000610352</ele>
        <time>2019-03-30T15:00:47.000Z</time>
      </trkpt>
      <trkpt lat="43.94916" lon="7.29182">
        <ele>414.20001220703</ele>
        <time>2019-03-30T15:00:53.000Z</time>
      </trkpt>
      <trkpt lat="43.94916" lon="7.2918">
        <ele>414.39999389648</ele>
        <time>2019-03-30T15:00:55.000Z</time>
      </trkpt>
      <trkpt lat="43.94915" lon="7.29178">
        <ele>414.60000610352</ele>
        <time>2019-03-30T15:00:57.000Z</time>
      </trkpt>
      <trkpt lat="43.94914" lon="7.29177">
        <ele>415.39999389648</ele>
        <time>2019-03-30T15:00:59.000Z</time>
      </trkpt>
      <trkpt lat="43.94913" lon="7.29176">
        <ele>415.79998779297</ele>
        <time>2019-03-30T15:01:00.000Z</time>
      </trkpt>
      <trkpt lat="43.94912" lon="7.29172">
        <ele>416.79998779297</ele>
        <time>2019-03-30T15:01:04.000Z</time>
      </trkpt>
      <trkpt lat="43.94913" lon="7.2917">
        <ele>417</ele>
        <time>2019-03-30T15:01:06.000Z</time>
      </trkpt>
      <trkpt lat="43.94918" lon="7.29166">
        <ele>418</ele>
        <time>2019-03-30T15:01:12.000Z</time>
      </trkpt>
      <trkpt lat="43.94921" lon="7.29163">
        <ele>418.39999389648</ele>
        <time>2019-03-30T15:01:15.000Z</time>
      </trkpt>
      <trkpt lat="43.94922" lon="7.2916">
        <ele>419.20001220703</ele>
        <time>2019-03-30T15:01:19.000Z</time>
      </trkpt>
      <trkpt lat="43.94922" lon="7.2916">
        <ele>419.39999389648</ele>
        <time>2019-03-30T15:01:21.000Z</time>
      </trkpt>
      <trkpt lat="43.94922" lon="7.29157">
        <ele>419.39999389648</ele>
        <time>2019-03-30T15:01:23.000Z</time>
      </trkpt>
      <trkpt lat="43.94921" lon="7.29147">
        <ele>419.60000610352</ele>
        <time>2019-03-30T15:01:27.000Z</time>
      </trkpt>
      <trkpt lat="43.9492" lon="7.29136">
        <ele>420.39999389648</ele>
        <time>2019-03-30T15:01:31.000Z</time>
      </trkpt>
      <trkpt lat="43.9492" lon="7.29128">
        <ele>421.39999389648</ele>
        <time>2019-03-30T15:01:34.000Z</time>
      </trkpt>
      <trkpt lat="43.94921" lon="7.29125">
        <ele>422</ele>
        <time>2019-03-30T15:01:35.000Z</time>
      </trkpt>
      <trkpt lat="43.94926" lon="7.29116">
        <ele>422.60000610352</ele>
        <time>2019-03-30T15:01:39.000Z</time>
      </trkpt>
      <trkpt lat="43.94935" lon="7.29091">
        <ele>422.20001220703</ele>
        <time>2019-03-30T15:01:44.000Z</time>
      </trkpt>
      <trkpt lat="43.94937" lon="7.29085">
        <ele>421.79998779297</ele>
        <time>2019-03-30T15:01:45.000Z</time>
      </trkpt>
      <trkpt lat="43.94939" lon="7.29062">
        <ele>420.60000610352</ele>
        <time>2019-03-30T15:01:48.000Z</time>
      </trkpt>
      <trkpt lat="43.94937" lon="7.29033">
        <ele>419.20001220703</ele>
        <time>2019-03-30T15:01:51.000Z</time>
      </trkpt>
      <trkpt lat="43.94936" lon="7.29012">
        <ele>418.60000610352</ele>
        <time>2019-03-30T15:01:53.000Z</time>
      </trkpt>
      <trkpt lat="43.94933" lon="7.2899">
        <ele>417.79998779297</ele>
        <time>2019-03-30T15:01:55.000Z</time>
      </trkpt>
      <trkpt lat="43.94932" lon="7.28957">
        <ele>415.79998779297</ele>
        <time>2019-03-30T15:01:58.000Z</time>
      </trkpt>
      <trkpt lat="43.94932" lon="7.28945">
        <ele>415.20001220703</ele>
        <time>2019-03-30T15:01:59.000Z</time>
      </trkpt>
      <trkpt lat="43.94931" lon="7.28935">
        <ele>414.60000610352</ele>
        <time>2019-03-30T15:02:00.000Z</time>
      </trkpt>
      <trkpt lat="43.94928" lon="7.28913">
        <ele>413.20001220703</ele>
        <time>2019-03-30T15:02:02.000Z</time>
      </trkpt>
      <trkpt lat="43.94926" lon="7.28902">
        <ele>412.39999389648</ele>
        <time>2019-03-30T15:02:03.000Z</time>
      </trkpt>
      <trkpt lat="43.94924" lon="7.28892">
        <ele>411.79998779297</ele>
        <time>2019-03-30T15:02:04.000Z</time>
      </trkpt>
      <trkpt lat="43.94921" lon="7.28872">
        <ele>410.39999389648</ele>
        <time>2019-03-30T15:02:06.000Z</time>
      </trkpt>
      <trkpt lat="43.94917" lon="7.28852">
        <ele>410</ele>
        <time>2019-03-30T15:02:08.000Z</time>
      </trkpt>
      <trkpt lat="43.94911" lon="7.28833">
        <ele>410.20001220703</ele>
        <time>2019-03-30T15:02:10.000Z</time>
      </trkpt>
      <trkpt lat="43.94893" lon="7.288">
        <ele>409</ele>
        <time>2019-03-30T15:02:14.000Z</time>
      </trkpt>
      <trkpt lat="43.94877" lon="7.28779">
        <ele>408</ele>
        <time>2019-03-30T15:02:17.000Z</time>
      </trkpt>
      <trkpt lat="43.94866" lon="7.28764">
        <ele>407</ele>
        <time>2019-03-30T15:02:19.000Z</time>
      </trkpt>
      <trkpt lat="43.94849" lon="7.28746">
        <ele>405.39999389648</ele>
        <time>2019-03-30T15:02:22.000Z</time>
      </trkpt>
      <trkpt lat="43.94836" lon="7.28737">
        <ele>405</ele>
        <time>2019-03-30T15:02:24.000Z</time>
      </trkpt>
      <trkpt lat="43.94823" lon="7.2873">
        <ele>404.79998779297</ele>
        <time>2019-03-30T15:02:26.000Z</time>
      </trkpt>
      <trkpt lat="43.94803" lon="7.28717">
        <ele>404.20001220703</ele>
        <time>2019-03-30T15:02:29.000Z</time>
      </trkpt>
      <trkpt lat="43.94784" lon="7.28693">
        <ele>403.39999389648</ele>
        <time>2019-03-30T15:02:32.000Z</time>
      </trkpt>
      <trkpt lat="43.94779" lon="7.28683">
        <ele>402.79998779297</ele>
        <time>2019-03-30T15:02:33.000Z</time>
      </trkpt>
      <trkpt lat="43.9477" lon="7.28663">
        <ele>402</ele>
        <time>2019-03-30T15:02:35.000Z</time>
      </trkpt>
      <trkpt lat="43.94767" lon="7.28651">
        <ele>401</ele>
        <time>2019-03-30T15:02:36.000Z</time>
      </trkpt>
      <trkpt lat="43.94763" lon="7.28635">
        <ele>400</ele>
        <time>2019-03-30T15:02:38.000Z</time>
      </trkpt>
      <trkpt lat="43.94758" lon="7.28619">
        <ele>398.79998779297</ele>
        <time>2019-03-30T15:02:39.000Z</time>
      </trkpt>
      <trkpt lat="43.94751" lon="7.28599">
        <ele>397.79998779297</ele>
        <time>2019-03-30T15:02:41.000Z</time>
      </trkpt>
      <trkpt lat="43.94743" lon="7.2858">
        <ele>396.60000610352</ele>
        <time>2019-03-30T15:02:43.000Z</time>
      </trkpt>
      <trkpt lat="43.94734" lon="7.28548">
        <ele>395.39999389648</ele>
        <time>2019-03-30T15:02:46.000Z</time>
      </trkpt>
      <trkpt lat="43.94724" lon="7.28516">
        <ele>394</ele>
        <time>2019-03-30T15:02:49.000Z</time>
      </trkpt>
      <trkpt lat="43.94717" lon="7.28497">
        <ele>393.60000610352</ele>
        <time>2019-03-30T15:02:51.000Z</time>
      </trkpt>
      <trkpt lat="43.94708" lon="7.28479">
        <ele>393.20001220703</ele>
        <time>2019-03-30T15:02:53.000Z</time>
      </trkpt>
      <trkpt lat="43.94698" lon="7.28462">
        <ele>392.79998779297</ele>
        <time>2019-03-30T15:02:55.000Z</time>
      </trkpt>
      <trkpt lat="43.94691" lon="7.28454">
        <ele>392.39999389648</ele>
        <time>2019-03-30T15:02:56.000Z</time>
      </trkpt>
      <trkpt lat="43.94677" lon="7.28443">
        <ele>391.60000610352</ele>
        <time>2019-03-30T15:02:58.000Z</time>
      </trkpt>
      <trkpt lat="43.9466" lon="7.28434">
        <ele>391</ele>
        <time>2019-03-30T15:03:00.000Z</time>
      </trkpt>
      <trkpt lat="43.94652" lon="7.2843">
        <ele>390.79998779297</ele>
        <time>2019-03-30T15:03:01.000Z</time>
      </trkpt>
      <trkpt lat="43.94638" lon="7.28421">
        <ele>390.39999389648</ele>
        <time>2019-03-30T15:03:03.000Z</time>
      </trkpt>
      <trkpt lat="43.94617" lon="7.28408">
        <ele>389.60000610352</ele>
        <time>2019-03-30T15:03:06.000Z</time>
      </trkpt>
      <trkpt lat="43.94609" lon="7.28404">
        <ele>389</ele>
        <time>2019-03-30T15:03:07.000Z</time>
      </trkpt>
      <trkpt lat="43.94587" lon="7.28394">
        <ele>388</ele>
        <time>2019-03-30T15:03:10.000Z</time>
      </trkpt>
      <trkpt lat="43.9455" lon="7.28376">
        <ele>387</ele>
        <time>2019-03-30T15:03:15.000Z</time>
      </trkpt>
      <trkpt lat="43.94542" lon="7.28373">
        <ele>386.79998779297</ele>
        <time>2019-03-30T15:03:16.000Z</time>
      </trkpt>
      <trkpt lat="43.94513" lon="7.2836">
        <ele>385.60000610352</ele>
        <time>2019-03-30T15:03:20.000Z</time>
      </trkpt>
      <trkpt lat="43.94495" lon="7.28353">
        <ele>385.60000610352</ele>
        <time>2019-03-30T15:03:23.000Z</time>
      </trkpt>
      <trkpt lat="43.94463" lon="7.28338">
        <ele>384.20001220703</ele>
        <time>2019-03-30T15:03:28.000Z</time>
      </trkpt>
      <trkpt lat="43.94444" lon="7.28329">
        <ele>383.39999389648</ele>
        <time>2019-03-30T15:03:31.000Z</time>
      </trkpt>
      <trkpt lat="43.9439" lon="7.28304">
        <ele>383.60000610352</ele>
        <time>2019-03-30T15:03:40.000Z</time>
      </trkpt>
      <trkpt lat="43.94372" lon="7.28297">
        <ele>383</ele>
        <time>2019-03-30T15:03:43.000Z</time>
      </trkpt>
      <trkpt lat="43.9435" lon="7.28287">
        <ele>382.20001220703</ele>
        <time>2019-03-30T15:03:47.000Z</time>
      </trkpt>
      <trkpt lat="43.94345" lon="7.28286">
        <ele>382.20001220703</ele>
        <time>2019-03-30T15:03:48.000Z</time>
      </trkpt>
      <trkpt lat="43.94333" lon="7.28281">
        <ele>382</ele>
        <time>2019-03-30T15:03:50.000Z</time>
      </trkpt>
      <trkpt lat="43.94323" lon="7.28279">
        <ele>382</ele>
        <time>2019-03-30T15:03:52.000Z</time>
      </trkpt>
      <trkpt lat="43.94318" lon="7.28279">
        <ele>382</ele>
        <time>2019-03-30T15:03:53.000Z</time>
      </trkpt>
      <trkpt lat="43.94305" lon="7.28288">
        <ele>381.79998779297</ele>
        <time>2019-03-30T15:03:56.000Z</time>
      </trkpt>
      <trkpt lat="43.94297" lon="7.2829">
        <ele>380.79998779297</ele>
        <time>2019-03-30T15:03:58.000Z</time>
      </trkpt>
      <trkpt lat="43.94291" lon="7.28289">
        <ele>380.60000610352</ele>
        <time>2019-03-30T15:04:00.000Z</time>
      </trkpt>
      <trkpt lat="43.94282" lon="7.28285">
        <ele>381.39999389648</ele>
        <time>2019-03-30T15:04:05.000Z</time>
      </trkpt>
      <trkpt lat="43.94282" lon="7.28286">
        <ele>381.60000610352</ele>
        <time>2019-03-30T15:04:08.000Z</time>
      </trkpt>
    </trkseg>
  </trk>
</gpx>